<?xml version="1.0" encoding="UTF-8" standalone="no" ?>
<gpx xmlns="http://www.topografix.com/GPX/1/1" xmlns:xsi="http://www.w3.org/2001/XMLSchema-instance" xsi:schemaLocation="http://www.topografix.com/GPX/1/1 http://www.topografix.com/GPX/1/1/gpx.xsd" version="1.1" creator="VisuGPX - https://www.visugpx.com">
  <metadata>
    <name>Grabels_16082020</name>
  </metadata>
  <trk>
    <name><![CDATA[Move]]></name>
    <trkseg>
      <trkpt lat="43.65538" lon="3.82777">
        <ele>115.19999694824</ele>
        <time>2020-08-16T06:35:22.000Z</time>
      </trkpt>
      <trkpt lat="43.65539" lon="3.82779">
        <ele>110.5</ele>
        <time>2020-08-16T06:35:23.000Z</time>
      </trkpt>
      <trkpt lat="43.65541" lon="3.82781">
        <ele>110.5</ele>
        <time>2020-08-16T06:35:24.000Z</time>
      </trkpt>
      <trkpt lat="43.65543" lon="3.82783">
        <ele>110.5</ele>
        <time>2020-08-16T06:35:25.000Z</time>
      </trkpt>
      <trkpt lat="43.65545" lon="3.82785">
        <ele>110.4</ele>
        <time>2020-08-16T06:35:26.000Z</time>
      </trkpt>
      <trkpt lat="43.65547" lon="3.82787">
        <ele>110.3</ele>
        <time>2020-08-16T06:35:27.000Z</time>
      </trkpt>
      <trkpt lat="43.65549" lon="3.82789">
        <ele>110.2</ele>
        <time>2020-08-16T06:35:28.000Z</time>
      </trkpt>
      <trkpt lat="43.65552" lon="3.82792">
        <ele>110.1</ele>
        <time>2020-08-16T06:35:29.000Z</time>
      </trkpt>
      <trkpt lat="43.65555" lon="3.82794">
        <ele>109.9</ele>
        <time>2020-08-16T06:35:30.000Z</time>
      </trkpt>
      <trkpt lat="43.65558" lon="3.82797">
        <ele>116</ele>
        <time>2020-08-16T06:35:31.000Z</time>
      </trkpt>
      <trkpt lat="43.6556" lon="3.828">
        <ele>116</ele>
        <time>2020-08-16T06:35:32.000Z</time>
      </trkpt>
      <trkpt lat="43.65561" lon="3.82802">
        <ele>116</ele>
        <time>2020-08-16T06:35:33.000Z</time>
      </trkpt>
      <trkpt lat="43.65563" lon="3.82803">
        <ele>116</ele>
        <time>2020-08-16T06:35:34.000Z</time>
      </trkpt>
      <trkpt lat="43.65565" lon="3.82804">
        <ele>116</ele>
        <time>2020-08-16T06:35:35.000Z</time>
      </trkpt>
      <trkpt lat="43.65567" lon="3.82805">
        <ele>116</ele>
        <time>2020-08-16T06:35:36.000Z</time>
      </trkpt>
      <trkpt lat="43.6557" lon="3.82805">
        <ele>116</ele>
        <time>2020-08-16T06:35:37.000Z</time>
      </trkpt>
      <trkpt lat="43.65573" lon="3.82805">
        <ele>116</ele>
        <time>2020-08-16T06:35:38.000Z</time>
      </trkpt>
      <trkpt lat="43.65576" lon="3.82807">
        <ele>116</ele>
        <time>2020-08-16T06:35:39.000Z</time>
      </trkpt>
      <trkpt lat="43.65579" lon="3.82811">
        <ele>116</ele>
        <time>2020-08-16T06:35:40.000Z</time>
      </trkpt>
      <trkpt lat="43.65582" lon="3.82815">
        <ele>116</ele>
        <time>2020-08-16T06:35:41.000Z</time>
      </trkpt>
      <trkpt lat="43.65585" lon="3.82818">
        <ele>115.9065426275</ele>
        <time>2020-08-16T06:35:42.000Z</time>
      </trkpt>
      <trkpt lat="43.65587" lon="3.82822">
        <ele>115.80270036406</ele>
        <time>2020-08-16T06:35:43.000Z</time>
      </trkpt>
      <trkpt lat="43.65589" lon="3.82825">
        <ele>115.69885810063</ele>
        <time>2020-08-16T06:35:44.000Z</time>
      </trkpt>
      <trkpt lat="43.6559" lon="3.82828">
        <ele>115.59501583719</ele>
        <time>2020-08-16T06:35:45.000Z</time>
      </trkpt>
      <trkpt lat="43.65592" lon="3.82831">
        <ele>115.49117357376</ele>
        <time>2020-08-16T06:35:46.000Z</time>
      </trkpt>
      <trkpt lat="43.65594" lon="3.82834">
        <ele>115.38733131032</ele>
        <time>2020-08-16T06:35:47.000Z</time>
      </trkpt>
      <trkpt lat="43.65597" lon="3.82838">
        <ele>115.28348904688</ele>
        <time>2020-08-16T06:35:48.000Z</time>
      </trkpt>
      <trkpt lat="43.65599" lon="3.82841">
        <ele>115.17964678345</ele>
        <time>2020-08-16T06:35:49.000Z</time>
      </trkpt>
      <trkpt lat="43.65601" lon="3.82845">
        <ele>115.07580452001</ele>
        <time>2020-08-16T06:35:50.000Z</time>
      </trkpt>
      <trkpt lat="43.65603" lon="3.82848">
        <ele>115</ele>
        <time>2020-08-16T06:35:51.000Z</time>
      </trkpt>
      <trkpt lat="43.65604" lon="3.82852">
        <ele>115</ele>
        <time>2020-08-16T06:35:52.000Z</time>
      </trkpt>
      <trkpt lat="43.65606" lon="3.82855">
        <ele>115</ele>
        <time>2020-08-16T06:35:53.000Z</time>
      </trkpt>
      <trkpt lat="43.65607" lon="3.82859">
        <ele>115</ele>
        <time>2020-08-16T06:35:54.000Z</time>
      </trkpt>
      <trkpt lat="43.65608" lon="3.82862">
        <ele>115</ele>
        <time>2020-08-16T06:35:55.000Z</time>
      </trkpt>
      <trkpt lat="43.6561" lon="3.82865">
        <ele>115</ele>
        <time>2020-08-16T06:35:56.000Z</time>
      </trkpt>
      <trkpt lat="43.65611" lon="3.82869">
        <ele>115</ele>
        <time>2020-08-16T06:35:57.000Z</time>
      </trkpt>
      <trkpt lat="43.65612" lon="3.82873">
        <ele>115</ele>
        <time>2020-08-16T06:35:58.000Z</time>
      </trkpt>
      <trkpt lat="43.65613" lon="3.82876">
        <ele>115</ele>
        <time>2020-08-16T06:35:59.000Z</time>
      </trkpt>
      <trkpt lat="43.65615" lon="3.82879">
        <ele>115</ele>
        <time>2020-08-16T06:36:00.000Z</time>
      </trkpt>
      <trkpt lat="43.65616" lon="3.8288">
        <ele>114.95185555125</ele>
        <time>2020-08-16T06:36:01.000Z</time>
      </trkpt>
      <trkpt lat="43.65619" lon="3.82882">
        <ele>114.75125368145</ele>
        <time>2020-08-16T06:36:02.000Z</time>
      </trkpt>
      <trkpt lat="43.65621" lon="3.82883">
        <ele>114.55065181164</ele>
        <time>2020-08-16T06:36:03.000Z</time>
      </trkpt>
      <trkpt lat="43.65624" lon="3.82885">
        <ele>114.35004994184</ele>
        <time>2020-08-16T06:36:04.000Z</time>
      </trkpt>
      <trkpt lat="43.65627" lon="3.82886">
        <ele>114.14944807204</ele>
        <time>2020-08-16T06:36:05.000Z</time>
      </trkpt>
      <trkpt lat="43.6563" lon="3.82889">
        <ele>113.94884620224</ele>
        <time>2020-08-16T06:36:06.000Z</time>
      </trkpt>
      <trkpt lat="43.65633" lon="3.82891">
        <ele>113.74824433243</ele>
        <time>2020-08-16T06:36:07.000Z</time>
      </trkpt>
      <trkpt lat="43.65636" lon="3.82892">
        <ele>113.54764246263</ele>
        <time>2020-08-16T06:36:08.000Z</time>
      </trkpt>
      <trkpt lat="43.65638" lon="3.82893">
        <ele>113.34704059283</ele>
        <time>2020-08-16T06:36:09.000Z</time>
      </trkpt>
      <trkpt lat="43.65641" lon="3.82894">
        <ele>113.14643872303</ele>
        <time>2020-08-16T06:36:10.000Z</time>
      </trkpt>
      <trkpt lat="43.65645" lon="3.82896">
        <ele>112.97299968</ele>
        <time>2020-08-16T06:36:11.000Z</time>
      </trkpt>
      <trkpt lat="43.65649" lon="3.82898">
        <ele>112.87299968</ele>
        <time>2020-08-16T06:36:12.000Z</time>
      </trkpt>
      <trkpt lat="43.65652" lon="3.829">
        <ele>112.77299968</ele>
        <time>2020-08-16T06:36:13.000Z</time>
      </trkpt>
      <trkpt lat="43.65655" lon="3.82901">
        <ele>112.67299968</ele>
        <time>2020-08-16T06:36:14.000Z</time>
      </trkpt>
      <trkpt lat="43.65658" lon="3.82902">
        <ele>112.57299968</ele>
        <time>2020-08-16T06:36:15.000Z</time>
      </trkpt>
      <trkpt lat="43.65661" lon="3.82905">
        <ele>112.47299968</ele>
        <time>2020-08-16T06:36:16.000Z</time>
      </trkpt>
      <trkpt lat="43.65664" lon="3.82908">
        <ele>112.37299968</ele>
        <time>2020-08-16T06:36:17.000Z</time>
      </trkpt>
      <trkpt lat="43.65668" lon="3.8291">
        <ele>112.27299968</ele>
        <time>2020-08-16T06:36:18.000Z</time>
      </trkpt>
      <trkpt lat="43.65672" lon="3.82911">
        <ele>112.17299968</ele>
        <time>2020-08-16T06:36:19.000Z</time>
      </trkpt>
      <trkpt lat="43.65675" lon="3.82911">
        <ele>112.07299968</ele>
        <time>2020-08-16T06:36:20.000Z</time>
      </trkpt>
      <trkpt lat="43.65678" lon="3.82912">
        <ele>111.91907993417</ele>
        <time>2020-08-16T06:36:21.000Z</time>
      </trkpt>
      <trkpt lat="43.6568" lon="3.82912">
        <ele>111.61937953866</ele>
        <time>2020-08-16T06:36:22.000Z</time>
      </trkpt>
      <trkpt lat="43.65683" lon="3.82912">
        <ele>111.31967914315</ele>
        <time>2020-08-16T06:36:23.000Z</time>
      </trkpt>
      <trkpt lat="43.65686" lon="3.82913">
        <ele>111.01997874765</ele>
        <time>2020-08-16T06:36:24.000Z</time>
      </trkpt>
      <trkpt lat="43.65689" lon="3.82915">
        <ele>110.72027835214</ele>
        <time>2020-08-16T06:36:25.000Z</time>
      </trkpt>
      <trkpt lat="43.65692" lon="3.82917">
        <ele>110.42057795663</ele>
        <time>2020-08-16T06:36:26.000Z</time>
      </trkpt>
      <trkpt lat="43.65695" lon="3.82919">
        <ele>110.12087756112</ele>
        <time>2020-08-16T06:36:27.000Z</time>
      </trkpt>
      <trkpt lat="43.65698" lon="3.82921">
        <ele>109.82117716561</ele>
        <time>2020-08-16T06:36:28.000Z</time>
      </trkpt>
      <trkpt lat="43.65701" lon="3.82922">
        <ele>109.5214767701</ele>
        <time>2020-08-16T06:36:29.000Z</time>
      </trkpt>
      <trkpt lat="43.65704" lon="3.82923">
        <ele>109.22177637459</ele>
        <time>2020-08-16T06:36:30.000Z</time>
      </trkpt>
      <trkpt lat="43.65707" lon="3.82924">
        <ele>108.94794668334</ele>
        <time>2020-08-16T06:36:31.000Z</time>
      </trkpt>
      <trkpt lat="43.6571" lon="3.82924">
        <ele>108.74774654727</ele>
        <time>2020-08-16T06:36:32.000Z</time>
      </trkpt>
      <trkpt lat="43.65714" lon="3.82925">
        <ele>108.5475464112</ele>
        <time>2020-08-16T06:36:33.000Z</time>
      </trkpt>
      <trkpt lat="43.65716" lon="3.82926">
        <ele>108.34734627512</ele>
        <time>2020-08-16T06:36:34.000Z</time>
      </trkpt>
      <trkpt lat="43.65718" lon="3.82927">
        <ele>108.14714613905</ele>
        <time>2020-08-16T06:36:35.000Z</time>
      </trkpt>
      <trkpt lat="43.65721" lon="3.82925">
        <ele>107.74674586691</ele>
        <time>2020-08-16T06:36:37.000Z</time>
      </trkpt>
      <trkpt lat="43.65723" lon="3.82923">
        <ele>107.54654573084</ele>
        <time>2020-08-16T06:36:38.000Z</time>
      </trkpt>
      <trkpt lat="43.65725" lon="3.82921">
        <ele>107.34634559476</ele>
        <time>2020-08-16T06:36:39.000Z</time>
      </trkpt>
      <trkpt lat="43.65728" lon="3.82919">
        <ele>107.14614545869</ele>
        <time>2020-08-16T06:36:40.000Z</time>
      </trkpt>
      <trkpt lat="43.65731" lon="3.82917">
        <ele>106.8649984</ele>
        <time>2020-08-16T06:36:41.000Z</time>
      </trkpt>
      <trkpt lat="43.65735" lon="3.82918">
        <ele>106.3649984</ele>
        <time>2020-08-16T06:36:42.000Z</time>
      </trkpt>
      <trkpt lat="43.65739" lon="3.82921">
        <ele>105.8649984</ele>
        <time>2020-08-16T06:36:43.000Z</time>
      </trkpt>
      <trkpt lat="43.65744" lon="3.82927">
        <ele>105.3649984</ele>
        <time>2020-08-16T06:36:44.000Z</time>
      </trkpt>
      <trkpt lat="43.65748" lon="3.82933">
        <ele>104.8649984</ele>
        <time>2020-08-16T06:36:45.000Z</time>
      </trkpt>
      <trkpt lat="43.65752" lon="3.8294">
        <ele>104.3649984</ele>
        <time>2020-08-16T06:36:46.000Z</time>
      </trkpt>
      <trkpt lat="43.65755" lon="3.82947">
        <ele>103.8649984</ele>
        <time>2020-08-16T06:36:47.000Z</time>
      </trkpt>
      <trkpt lat="43.65757" lon="3.82954">
        <ele>103.3649984</ele>
        <time>2020-08-16T06:36:48.000Z</time>
      </trkpt>
      <trkpt lat="43.6576" lon="3.82961">
        <ele>102.8649984</ele>
        <time>2020-08-16T06:36:49.000Z</time>
      </trkpt>
      <trkpt lat="43.65762" lon="3.82967">
        <ele>102.3649984</ele>
        <time>2020-08-16T06:36:50.000Z</time>
      </trkpt>
      <trkpt lat="43.65764" lon="3.82974">
        <ele>101.94684976378</ele>
        <time>2020-08-16T06:36:51.000Z</time>
      </trkpt>
      <trkpt lat="43.65766" lon="3.8298">
        <ele>101.74999937008</ele>
        <time>2020-08-16T06:36:52.000Z</time>
      </trkpt>
      <trkpt lat="43.65768" lon="3.82987">
        <ele>101.55314897638</ele>
        <time>2020-08-16T06:36:53.000Z</time>
      </trkpt>
      <trkpt lat="43.65769" lon="3.82993">
        <ele>101.35629858268</ele>
        <time>2020-08-16T06:36:54.000Z</time>
      </trkpt>
      <trkpt lat="43.65771" lon="3.82999">
        <ele>101.15944818898</ele>
        <time>2020-08-16T06:36:55.000Z</time>
      </trkpt>
      <trkpt lat="43.65773" lon="3.83004">
        <ele>100.96259779528</ele>
        <time>2020-08-16T06:36:56.000Z</time>
      </trkpt>
      <trkpt lat="43.65775" lon="3.8301">
        <ele>100.76574740157</ele>
        <time>2020-08-16T06:36:57.000Z</time>
      </trkpt>
      <trkpt lat="43.65777" lon="3.83015">
        <ele>100.56889700787</ele>
        <time>2020-08-16T06:36:58.000Z</time>
      </trkpt>
      <trkpt lat="43.65779" lon="3.8302">
        <ele>100.37204661417</ele>
        <time>2020-08-16T06:36:59.000Z</time>
      </trkpt>
      <trkpt lat="43.6578" lon="3.83025">
        <ele>100.17519622047</ele>
        <time>2020-08-16T06:37:00.000Z</time>
      </trkpt>
      <trkpt lat="43.65782" lon="3.8303">
        <ele>99.977641626016</ele>
        <time>2020-08-16T06:37:01.000Z</time>
      </trkpt>
      <trkpt lat="43.65784" lon="3.83034">
        <ele>99.774389593496</ele>
        <time>2020-08-16T06:37:02.000Z</time>
      </trkpt>
      <trkpt lat="43.65786" lon="3.83037">
        <ele>99.571137560976</ele>
        <time>2020-08-16T06:37:03.000Z</time>
      </trkpt>
      <trkpt lat="43.65788" lon="3.8304">
        <ele>99.367885528455</ele>
        <time>2020-08-16T06:37:04.000Z</time>
      </trkpt>
      <trkpt lat="43.6579" lon="3.8304">
        <ele>99.164633495935</ele>
        <time>2020-08-16T06:37:05.000Z</time>
      </trkpt>
      <trkpt lat="43.65792" lon="3.8304">
        <ele>98.961381463415</ele>
        <time>2020-08-16T06:37:06.000Z</time>
      </trkpt>
      <trkpt lat="43.65794" lon="3.83038">
        <ele>98.758129430894</ele>
        <time>2020-08-16T06:37:07.000Z</time>
      </trkpt>
      <trkpt lat="43.65797" lon="3.83036">
        <ele>98.554877398374</ele>
        <time>2020-08-16T06:37:08.000Z</time>
      </trkpt>
      <trkpt lat="43.658" lon="3.83033">
        <ele>98.351625365854</ele>
        <time>2020-08-16T06:37:09.000Z</time>
      </trkpt>
      <trkpt lat="43.65803" lon="3.83031">
        <ele>98.148373333333</ele>
        <time>2020-08-16T06:37:10.000Z</time>
      </trkpt>
      <trkpt lat="43.65806" lon="3.83029">
        <ele>97.973735097276</ele>
        <time>2020-08-16T06:37:11.000Z</time>
      </trkpt>
      <trkpt lat="43.6581" lon="3.83027">
        <ele>97.876458832685</ele>
        <time>2020-08-16T06:37:12.000Z</time>
      </trkpt>
      <trkpt lat="43.65813" lon="3.83026">
        <ele>97.779182568093</ele>
        <time>2020-08-16T06:37:13.000Z</time>
      </trkpt>
      <trkpt lat="43.65817" lon="3.83025">
        <ele>97.681906303502</ele>
        <time>2020-08-16T06:37:14.000Z</time>
      </trkpt>
      <trkpt lat="43.6582" lon="3.83025">
        <ele>97.584630038911</ele>
        <time>2020-08-16T06:37:15.000Z</time>
      </trkpt>
      <trkpt lat="43.65824" lon="3.83024">
        <ele>97.487353774319</ele>
        <time>2020-08-16T06:37:16.000Z</time>
      </trkpt>
      <trkpt lat="43.65827" lon="3.83024">
        <ele>97.390077509728</ele>
        <time>2020-08-16T06:37:17.000Z</time>
      </trkpt>
      <trkpt lat="43.65831" lon="3.83023">
        <ele>97.292801245136</ele>
        <time>2020-08-16T06:37:18.000Z</time>
      </trkpt>
      <trkpt lat="43.65833" lon="3.83021">
        <ele>97.195524980545</ele>
        <time>2020-08-16T06:37:19.000Z</time>
      </trkpt>
      <trkpt lat="43.65836" lon="3.83019">
        <ele>97.098248715953</ele>
        <time>2020-08-16T06:37:20.000Z</time>
      </trkpt>
      <trkpt lat="43.65839" lon="3.83017">
        <ele>97.000972451362</ele>
        <time>2020-08-16T06:37:21.000Z</time>
      </trkpt>
      <trkpt lat="43.65843" lon="3.83016">
        <ele>97</ele>
        <time>2020-08-16T06:37:22.000Z</time>
      </trkpt>
      <trkpt lat="43.65846" lon="3.83015">
        <ele>97</ele>
        <time>2020-08-16T06:37:23.000Z</time>
      </trkpt>
      <trkpt lat="43.6585" lon="3.83014">
        <ele>97</ele>
        <time>2020-08-16T06:37:24.000Z</time>
      </trkpt>
      <trkpt lat="43.65853" lon="3.83013">
        <ele>97</ele>
        <time>2020-08-16T06:37:25.000Z</time>
      </trkpt>
      <trkpt lat="43.65857" lon="3.83012">
        <ele>97</ele>
        <time>2020-08-16T06:37:26.000Z</time>
      </trkpt>
      <trkpt lat="43.6586" lon="3.83011">
        <ele>97</ele>
        <time>2020-08-16T06:37:27.000Z</time>
      </trkpt>
      <trkpt lat="43.65863" lon="3.8301">
        <ele>97</ele>
        <time>2020-08-16T06:37:28.000Z</time>
      </trkpt>
      <trkpt lat="43.65867" lon="3.8301">
        <ele>97</ele>
        <time>2020-08-16T06:37:29.000Z</time>
      </trkpt>
      <trkpt lat="43.6587" lon="3.83009">
        <ele>97</ele>
        <time>2020-08-16T06:37:30.000Z</time>
      </trkpt>
      <trkpt lat="43.65873" lon="3.83009">
        <ele>97.024194201256</ele>
        <time>2020-08-16T06:37:31.000Z</time>
      </trkpt>
      <trkpt lat="43.65877" lon="3.83008">
        <ele>97.124585744337</ele>
        <time>2020-08-16T06:37:32.000Z</time>
      </trkpt>
      <trkpt lat="43.6588" lon="3.83008">
        <ele>97.224977287417</ele>
        <time>2020-08-16T06:37:33.000Z</time>
      </trkpt>
      <trkpt lat="43.65884" lon="3.83007">
        <ele>97.325368830498</ele>
        <time>2020-08-16T06:37:34.000Z</time>
      </trkpt>
      <trkpt lat="43.65887" lon="3.83007">
        <ele>97.425760373579</ele>
        <time>2020-08-16T06:37:35.000Z</time>
      </trkpt>
      <trkpt lat="43.6589" lon="3.83006">
        <ele>97.526151916659</ele>
        <time>2020-08-16T06:37:36.000Z</time>
      </trkpt>
      <trkpt lat="43.65894" lon="3.83006">
        <ele>97.62654345974</ele>
        <time>2020-08-16T06:37:37.000Z</time>
      </trkpt>
      <trkpt lat="43.65897" lon="3.83005">
        <ele>97.726935002821</ele>
        <time>2020-08-16T06:37:38.000Z</time>
      </trkpt>
      <trkpt lat="43.659" lon="3.83005">
        <ele>97.827326545901</ele>
        <time>2020-08-16T06:37:39.000Z</time>
      </trkpt>
      <trkpt lat="43.65903" lon="3.83004">
        <ele>97.927718088982</ele>
        <time>2020-08-16T06:37:40.000Z</time>
      </trkpt>
      <trkpt lat="43.65907" lon="3.83004">
        <ele>98.027944129625</ele>
        <time>2020-08-16T06:37:41.000Z</time>
      </trkpt>
      <trkpt lat="43.6591" lon="3.83003">
        <ele>98.127744592571</ele>
        <time>2020-08-16T06:37:42.000Z</time>
      </trkpt>
      <trkpt lat="43.65913" lon="3.83002">
        <ele>98.227545055518</ele>
        <time>2020-08-16T06:37:43.000Z</time>
      </trkpt>
      <trkpt lat="43.65916" lon="3.83002">
        <ele>98.327345518464</ele>
        <time>2020-08-16T06:37:44.000Z</time>
      </trkpt>
      <trkpt lat="43.6592" lon="3.83001">
        <ele>98.427145981411</ele>
        <time>2020-08-16T06:37:45.000Z</time>
      </trkpt>
      <trkpt lat="43.65923" lon="3.83001">
        <ele>98.526946444357</ele>
        <time>2020-08-16T06:37:46.000Z</time>
      </trkpt>
      <trkpt lat="43.65926" lon="3.83">
        <ele>98.626746907303</ele>
        <time>2020-08-16T06:37:47.000Z</time>
      </trkpt>
      <trkpt lat="43.65929" lon="3.83">
        <ele>98.72654737025</ele>
        <time>2020-08-16T06:37:48.000Z</time>
      </trkpt>
      <trkpt lat="43.65933" lon="3.82999">
        <ele>98.826347833196</ele>
        <time>2020-08-16T06:37:49.000Z</time>
      </trkpt>
      <trkpt lat="43.65936" lon="3.82999">
        <ele>98.926148296143</ele>
        <time>2020-08-16T06:37:50.000Z</time>
      </trkpt>
      <trkpt lat="43.65939" lon="3.82998">
        <ele>99.050535696293</ele>
        <time>2020-08-16T06:37:51.000Z</time>
      </trkpt>
      <trkpt lat="43.65943" lon="3.82998">
        <ele>99.244898974633</ele>
        <time>2020-08-16T06:37:52.000Z</time>
      </trkpt>
      <trkpt lat="43.65946" lon="3.82997">
        <ele>99.439262252972</ele>
        <time>2020-08-16T06:37:53.000Z</time>
      </trkpt>
      <trkpt lat="43.65949" lon="3.82997">
        <ele>99.633625531311</ele>
        <time>2020-08-16T06:37:54.000Z</time>
      </trkpt>
      <trkpt lat="43.65952" lon="3.82996">
        <ele>99.827988809651</ele>
        <time>2020-08-16T06:37:55.000Z</time>
      </trkpt>
      <trkpt lat="43.65956" lon="3.82996">
        <ele>100.02235208799</ele>
        <time>2020-08-16T06:37:56.000Z</time>
      </trkpt>
      <trkpt lat="43.65959" lon="3.82995">
        <ele>100.21671536633</ele>
        <time>2020-08-16T06:37:57.000Z</time>
      </trkpt>
      <trkpt lat="43.65962" lon="3.82995">
        <ele>100.41107864467</ele>
        <time>2020-08-16T06:37:58.000Z</time>
      </trkpt>
      <trkpt lat="43.65965" lon="3.82994">
        <ele>100.60544192301</ele>
        <time>2020-08-16T06:37:59.000Z</time>
      </trkpt>
      <trkpt lat="43.65969" lon="3.82993">
        <ele>100.79980520135</ele>
        <time>2020-08-16T06:38:00.000Z</time>
      </trkpt>
      <trkpt lat="43.65972" lon="3.82993">
        <ele>100.99416847969</ele>
        <time>2020-08-16T06:38:01.000Z</time>
      </trkpt>
      <trkpt lat="43.65975" lon="3.82992">
        <ele>101</ele>
        <time>2020-08-16T06:38:02.000Z</time>
      </trkpt>
      <trkpt lat="43.65979" lon="3.82992">
        <ele>101</ele>
        <time>2020-08-16T06:38:03.000Z</time>
      </trkpt>
      <trkpt lat="43.65981" lon="3.82991">
        <ele>101</ele>
        <time>2020-08-16T06:38:04.000Z</time>
      </trkpt>
      <trkpt lat="43.65984" lon="3.8299">
        <ele>101</ele>
        <time>2020-08-16T06:38:05.000Z</time>
      </trkpt>
      <trkpt lat="43.65987" lon="3.8299">
        <ele>101</ele>
        <time>2020-08-16T06:38:06.000Z</time>
      </trkpt>
      <trkpt lat="43.6599" lon="3.8299">
        <ele>101</ele>
        <time>2020-08-16T06:38:07.000Z</time>
      </trkpt>
      <trkpt lat="43.65993" lon="3.82989">
        <ele>101</ele>
        <time>2020-08-16T06:38:08.000Z</time>
      </trkpt>
      <trkpt lat="43.65996" lon="3.82989">
        <ele>101</ele>
        <time>2020-08-16T06:38:09.000Z</time>
      </trkpt>
      <trkpt lat="43.65999" lon="3.82988">
        <ele>101</ele>
        <time>2020-08-16T06:38:10.000Z</time>
      </trkpt>
      <trkpt lat="43.66001" lon="3.82988">
        <ele>101.08100096</ele>
        <time>2020-08-16T06:38:11.000Z</time>
      </trkpt>
      <trkpt lat="43.66004" lon="3.82987">
        <ele>101.38100096</ele>
        <time>2020-08-16T06:38:12.000Z</time>
      </trkpt>
      <trkpt lat="43.66006" lon="3.82986">
        <ele>101.68100096</ele>
        <time>2020-08-16T06:38:13.000Z</time>
      </trkpt>
      <trkpt lat="43.66008" lon="3.82984">
        <ele>101.98100096</ele>
        <time>2020-08-16T06:38:14.000Z</time>
      </trkpt>
      <trkpt lat="43.6601" lon="3.82981">
        <ele>102.58100096</ele>
        <time>2020-08-16T06:38:16.000Z</time>
      </trkpt>
      <trkpt lat="43.66013" lon="3.82981">
        <ele>102.88100096</ele>
        <time>2020-08-16T06:38:17.000Z</time>
      </trkpt>
      <trkpt lat="43.66015" lon="3.82982">
        <ele>103.18100096</ele>
        <time>2020-08-16T06:38:18.000Z</time>
      </trkpt>
      <trkpt lat="43.66018" lon="3.82983">
        <ele>103.48100096</ele>
        <time>2020-08-16T06:38:19.000Z</time>
      </trkpt>
      <trkpt lat="43.6602" lon="3.82983">
        <ele>103.78100096</ele>
        <time>2020-08-16T06:38:20.000Z</time>
      </trkpt>
      <trkpt lat="43.66023" lon="3.82983">
        <ele>104.02621388662</ele>
        <time>2020-08-16T06:38:21.000Z</time>
      </trkpt>
      <trkpt lat="43.66026" lon="3.82983">
        <ele>104.12330120494</ele>
        <time>2020-08-16T06:38:22.000Z</time>
      </trkpt>
      <trkpt lat="43.66029" lon="3.82982">
        <ele>104.22038852325</ele>
        <time>2020-08-16T06:38:23.000Z</time>
      </trkpt>
      <trkpt lat="43.66032" lon="3.82982">
        <ele>104.31747584157</ele>
        <time>2020-08-16T06:38:24.000Z</time>
      </trkpt>
      <trkpt lat="43.66034" lon="3.82982">
        <ele>104.41456315988</ele>
        <time>2020-08-16T06:38:25.000Z</time>
      </trkpt>
      <trkpt lat="43.66037" lon="3.82982">
        <ele>104.5116504782</ele>
        <time>2020-08-16T06:38:26.000Z</time>
      </trkpt>
      <trkpt lat="43.6604" lon="3.82982">
        <ele>104.60873779651</ele>
        <time>2020-08-16T06:38:27.000Z</time>
      </trkpt>
      <trkpt lat="43.66043" lon="3.82982">
        <ele>104.70582511483</ele>
        <time>2020-08-16T06:38:28.000Z</time>
      </trkpt>
      <trkpt lat="43.66046" lon="3.82981">
        <ele>104.80291243314</ele>
        <time>2020-08-16T06:38:29.000Z</time>
      </trkpt>
      <trkpt lat="43.66049" lon="3.82981">
        <ele>104.89999975146</ele>
        <time>2020-08-16T06:38:30.000Z</time>
      </trkpt>
      <trkpt lat="43.66052" lon="3.8298">
        <ele>104.99708706977</ele>
        <time>2020-08-16T06:38:31.000Z</time>
      </trkpt>
      <trkpt lat="43.66055" lon="3.8298">
        <ele>105.20020580399</ele>
        <time>2020-08-16T06:38:32.000Z</time>
      </trkpt>
      <trkpt lat="43.66058" lon="3.8298">
        <ele>105.40660422096</ele>
        <time>2020-08-16T06:38:33.000Z</time>
      </trkpt>
      <trkpt lat="43.66061" lon="3.82979">
        <ele>105.61300263794</ele>
        <time>2020-08-16T06:38:34.000Z</time>
      </trkpt>
      <trkpt lat="43.66064" lon="3.82979">
        <ele>105.81940105491</ele>
        <time>2020-08-16T06:38:35.000Z</time>
      </trkpt>
      <trkpt lat="43.66067" lon="3.82978">
        <ele>106.02579947188</ele>
        <time>2020-08-16T06:38:36.000Z</time>
      </trkpt>
      <trkpt lat="43.6607" lon="3.82978">
        <ele>106.23219788886</ele>
        <time>2020-08-16T06:38:37.000Z</time>
      </trkpt>
      <trkpt lat="43.66073" lon="3.82978">
        <ele>106.43859630583</ele>
        <time>2020-08-16T06:38:38.000Z</time>
      </trkpt>
      <trkpt lat="43.66076" lon="3.82978">
        <ele>106.6449947228</ele>
        <time>2020-08-16T06:38:39.000Z</time>
      </trkpt>
      <trkpt lat="43.66079" lon="3.82978">
        <ele>106.85139313978</ele>
        <time>2020-08-16T06:38:40.000Z</time>
      </trkpt>
      <trkpt lat="43.66082" lon="3.82979">
        <ele>107.02721089282</ele>
        <time>2020-08-16T06:38:41.000Z</time>
      </trkpt>
      <trkpt lat="43.66085" lon="3.82979">
        <ele>107.12439265287</ele>
        <time>2020-08-16T06:38:42.000Z</time>
      </trkpt>
      <trkpt lat="43.66088" lon="3.82979">
        <ele>107.22157441293</ele>
        <time>2020-08-16T06:38:43.000Z</time>
      </trkpt>
      <trkpt lat="43.66091" lon="3.82979">
        <ele>107.31875617299</ele>
        <time>2020-08-16T06:38:44.000Z</time>
      </trkpt>
      <trkpt lat="43.66093" lon="3.82979">
        <ele>107.41593793304</ele>
        <time>2020-08-16T06:38:45.000Z</time>
      </trkpt>
      <trkpt lat="43.66096" lon="3.82979">
        <ele>107.5131196931</ele>
        <time>2020-08-16T06:38:46.000Z</time>
      </trkpt>
      <trkpt lat="43.66099" lon="3.82979">
        <ele>107.61030145316</ele>
        <time>2020-08-16T06:38:47.000Z</time>
      </trkpt>
      <trkpt lat="43.66101" lon="3.82979">
        <ele>107.70748321321</ele>
        <time>2020-08-16T06:38:48.000Z</time>
      </trkpt>
      <trkpt lat="43.66104" lon="3.8298">
        <ele>107.80466497327</ele>
        <time>2020-08-16T06:38:49.000Z</time>
      </trkpt>
      <trkpt lat="43.66106" lon="3.82981">
        <ele>107.90184673333</ele>
        <time>2020-08-16T06:38:50.000Z</time>
      </trkpt>
      <trkpt lat="43.66108" lon="3.82981">
        <ele>107.99902849338</ele>
        <time>2020-08-16T06:38:51.000Z</time>
      </trkpt>
      <trkpt lat="43.66111" lon="3.82982">
        <ele>108.09880265146</ele>
        <time>2020-08-16T06:38:52.000Z</time>
      </trkpt>
      <trkpt lat="43.66113" lon="3.82983">
        <ele>108.19860298692</ele>
        <time>2020-08-16T06:38:53.000Z</time>
      </trkpt>
      <trkpt lat="43.66116" lon="3.82984">
        <ele>108.29840332238</ele>
        <time>2020-08-16T06:38:54.000Z</time>
      </trkpt>
      <trkpt lat="43.66118" lon="3.82987">
        <ele>108.39820365783</ele>
        <time>2020-08-16T06:38:55.000Z</time>
      </trkpt>
      <trkpt lat="43.6612" lon="3.82988">
        <ele>108.49800399329</ele>
        <time>2020-08-16T06:38:56.000Z</time>
      </trkpt>
      <trkpt lat="43.66122" lon="3.8299">
        <ele>108.59780432875</ele>
        <time>2020-08-16T06:38:57.000Z</time>
      </trkpt>
      <trkpt lat="43.66124" lon="3.82991">
        <ele>108.69760466421</ele>
        <time>2020-08-16T06:38:58.000Z</time>
      </trkpt>
      <trkpt lat="43.66127" lon="3.82992">
        <ele>108.79740499966</ele>
        <time>2020-08-16T06:38:59.000Z</time>
      </trkpt>
      <trkpt lat="43.6613" lon="3.82993">
        <ele>108.89720533512</ele>
        <time>2020-08-16T06:39:00.000Z</time>
      </trkpt>
      <trkpt lat="43.66132" lon="3.82995">
        <ele>108.99700567058</ele>
        <time>2020-08-16T06:39:01.000Z</time>
      </trkpt>
      <trkpt lat="43.66134" lon="3.82997">
        <ele>109</ele>
        <time>2020-08-16T06:39:02.000Z</time>
      </trkpt>
      <trkpt lat="43.66137" lon="3.82998">
        <ele>109</ele>
        <time>2020-08-16T06:39:03.000Z</time>
      </trkpt>
      <trkpt lat="43.66139" lon="3.83">
        <ele>109</ele>
        <time>2020-08-16T06:39:04.000Z</time>
      </trkpt>
      <trkpt lat="43.66142" lon="3.83002">
        <ele>109</ele>
        <time>2020-08-16T06:39:05.000Z</time>
      </trkpt>
      <trkpt lat="43.66144" lon="3.83003">
        <ele>109</ele>
        <time>2020-08-16T06:39:06.000Z</time>
      </trkpt>
      <trkpt lat="43.66147" lon="3.83005">
        <ele>109</ele>
        <time>2020-08-16T06:39:07.000Z</time>
      </trkpt>
      <trkpt lat="43.66149" lon="3.83006">
        <ele>109</ele>
        <time>2020-08-16T06:39:08.000Z</time>
      </trkpt>
      <trkpt lat="43.66151" lon="3.83008">
        <ele>109</ele>
        <time>2020-08-16T06:39:09.000Z</time>
      </trkpt>
      <trkpt lat="43.66153" lon="3.83009">
        <ele>109</ele>
        <time>2020-08-16T06:39:10.000Z</time>
      </trkpt>
      <trkpt lat="43.66156" lon="3.8301">
        <ele>109.02702733869</ele>
        <time>2020-08-16T06:39:11.000Z</time>
      </trkpt>
      <trkpt lat="43.66158" lon="3.83012">
        <ele>109.12712740673</ele>
        <time>2020-08-16T06:39:12.000Z</time>
      </trkpt>
      <trkpt lat="43.6616" lon="3.83014">
        <ele>109.22722747476</ele>
        <time>2020-08-16T06:39:13.000Z</time>
      </trkpt>
      <trkpt lat="43.66162" lon="3.83015">
        <ele>109.3273275428</ele>
        <time>2020-08-16T06:39:14.000Z</time>
      </trkpt>
      <trkpt lat="43.66164" lon="3.83017">
        <ele>109.42742761083</ele>
        <time>2020-08-16T06:39:15.000Z</time>
      </trkpt>
      <trkpt lat="43.66167" lon="3.83018">
        <ele>109.52752767887</ele>
        <time>2020-08-16T06:39:16.000Z</time>
      </trkpt>
      <trkpt lat="43.66169" lon="3.8302">
        <ele>109.62762774691</ele>
        <time>2020-08-16T06:39:17.000Z</time>
      </trkpt>
      <trkpt lat="43.66172" lon="3.83021">
        <ele>109.72772781494</ele>
        <time>2020-08-16T06:39:18.000Z</time>
      </trkpt>
      <trkpt lat="43.66174" lon="3.83022">
        <ele>109.82782788298</ele>
        <time>2020-08-16T06:39:19.000Z</time>
      </trkpt>
      <trkpt lat="43.66177" lon="3.83023">
        <ele>109.92792795101</ele>
        <time>2020-08-16T06:39:20.000Z</time>
      </trkpt>
      <trkpt lat="43.66179" lon="3.83025">
        <ele>110.02797203691</ele>
        <time>2020-08-16T06:39:21.000Z</time>
      </trkpt>
      <trkpt lat="43.66181" lon="3.83026">
        <ele>110.12787216875</ele>
        <time>2020-08-16T06:39:22.000Z</time>
      </trkpt>
      <trkpt lat="43.66184" lon="3.83028">
        <ele>110.22777230059</ele>
        <time>2020-08-16T06:39:23.000Z</time>
      </trkpt>
      <trkpt lat="43.66186" lon="3.83029">
        <ele>110.32767243242</ele>
        <time>2020-08-16T06:39:24.000Z</time>
      </trkpt>
      <trkpt lat="43.66189" lon="3.8303">
        <ele>110.42757256426</ele>
        <time>2020-08-16T06:39:25.000Z</time>
      </trkpt>
      <trkpt lat="43.66191" lon="3.83032">
        <ele>110.5274726961</ele>
        <time>2020-08-16T06:39:26.000Z</time>
      </trkpt>
      <trkpt lat="43.66194" lon="3.83033">
        <ele>110.62737282793</ele>
        <time>2020-08-16T06:39:27.000Z</time>
      </trkpt>
      <trkpt lat="43.66196" lon="3.83034">
        <ele>110.72727295977</ele>
        <time>2020-08-16T06:39:28.000Z</time>
      </trkpt>
      <trkpt lat="43.66199" lon="3.83035">
        <ele>110.8271730916</ele>
        <time>2020-08-16T06:39:29.000Z</time>
      </trkpt>
      <trkpt lat="43.66202" lon="3.83036">
        <ele>110.92707322344</ele>
        <time>2020-08-16T06:39:30.000Z</time>
      </trkpt>
      <trkpt lat="43.66204" lon="3.83037">
        <ele>110.97310457646</ele>
        <time>2020-08-16T06:39:31.000Z</time>
      </trkpt>
      <trkpt lat="43.66207" lon="3.83038">
        <ele>110.87349307724</ele>
        <time>2020-08-16T06:39:32.000Z</time>
      </trkpt>
      <trkpt lat="43.66209" lon="3.83039">
        <ele>110.77388157802</ele>
        <time>2020-08-16T06:39:33.000Z</time>
      </trkpt>
      <trkpt lat="43.66212" lon="3.83039">
        <ele>110.67427007881</ele>
        <time>2020-08-16T06:39:34.000Z</time>
      </trkpt>
      <trkpt lat="43.66215" lon="3.83039">
        <ele>110.57465857959</ele>
        <time>2020-08-16T06:39:35.000Z</time>
      </trkpt>
      <trkpt lat="43.66217" lon="3.83039">
        <ele>110.47504708038</ele>
        <time>2020-08-16T06:39:36.000Z</time>
      </trkpt>
      <trkpt lat="43.66219" lon="3.83039">
        <ele>110.37543558116</ele>
        <time>2020-08-16T06:39:37.000Z</time>
      </trkpt>
      <trkpt lat="43.66222" lon="3.8304">
        <ele>110.27582408195</ele>
        <time>2020-08-16T06:39:38.000Z</time>
      </trkpt>
      <trkpt lat="43.66224" lon="3.8304">
        <ele>110.17621258273</ele>
        <time>2020-08-16T06:39:39.000Z</time>
      </trkpt>
      <trkpt lat="43.66226" lon="3.83039">
        <ele>110.07660108352</ele>
        <time>2020-08-16T06:39:40.000Z</time>
      </trkpt>
      <trkpt lat="43.66228" lon="3.83039">
        <ele>110.02319060708</ele>
        <time>2020-08-16T06:39:41.000Z</time>
      </trkpt>
      <trkpt lat="43.6623" lon="3.83038">
        <ele>110.12358215016</ele>
        <time>2020-08-16T06:39:42.000Z</time>
      </trkpt>
      <trkpt lat="43.66232" lon="3.83037">
        <ele>110.22397369324</ele>
        <time>2020-08-16T06:39:43.000Z</time>
      </trkpt>
      <trkpt lat="43.66235" lon="3.83036">
        <ele>110.4247567794</ele>
        <time>2020-08-16T06:39:45.000Z</time>
      </trkpt>
      <trkpt lat="43.66238" lon="3.83035">
        <ele>110.62553986556</ele>
        <time>2020-08-16T06:39:47.000Z</time>
      </trkpt>
      <trkpt lat="43.66241" lon="3.83037">
        <ele>110.82632295172</ele>
        <time>2020-08-16T06:39:49.000Z</time>
      </trkpt>
      <trkpt lat="43.66243" lon="3.83038">
        <ele>111.3180936965</ele>
        <time>2020-08-16T06:39:54.000Z</time>
      </trkpt>
      <trkpt lat="43.66245" lon="3.83037">
        <ele>111.51264622568</ele>
        <time>2020-08-16T06:39:56.000Z</time>
      </trkpt>
      <trkpt lat="43.66247" lon="3.83037">
        <ele>111.70719875486</ele>
        <time>2020-08-16T06:39:58.000Z</time>
      </trkpt>
      <trkpt lat="43.6625" lon="3.83036">
        <ele>111.90175128405</ele>
        <time>2020-08-16T06:40:00.000Z</time>
      </trkpt>
      <trkpt lat="43.66252" lon="3.83035">
        <ele>112</ele>
        <time>2020-08-16T06:40:02.000Z</time>
      </trkpt>
      <trkpt lat="43.66254" lon="3.83034">
        <ele>112</ele>
        <time>2020-08-16T06:40:04.000Z</time>
      </trkpt>
      <trkpt lat="43.66257" lon="3.83033">
        <ele>112</ele>
        <time>2020-08-16T06:40:06.000Z</time>
      </trkpt>
      <trkpt lat="43.66258" lon="3.83032">
        <ele>112.028</ele>
        <time>2020-08-16T06:40:11.000Z</time>
      </trkpt>
      <trkpt lat="43.66262" lon="3.83031">
        <ele>112.228</ele>
        <time>2020-08-16T06:40:13.000Z</time>
      </trkpt>
      <trkpt lat="43.66264" lon="3.8303">
        <ele>112.328</ele>
        <time>2020-08-16T06:40:14.000Z</time>
      </trkpt>
      <trkpt lat="43.66266" lon="3.83029">
        <ele>112.428</ele>
        <time>2020-08-16T06:40:15.000Z</time>
      </trkpt>
      <trkpt lat="43.66268" lon="3.83028">
        <ele>112.528</ele>
        <time>2020-08-16T06:40:16.000Z</time>
      </trkpt>
      <trkpt lat="43.66271" lon="3.83027">
        <ele>112.628</ele>
        <time>2020-08-16T06:40:17.000Z</time>
      </trkpt>
      <trkpt lat="43.66273" lon="3.83026">
        <ele>112.728</ele>
        <time>2020-08-16T06:40:18.000Z</time>
      </trkpt>
      <trkpt lat="43.66275" lon="3.83025">
        <ele>112.828</ele>
        <time>2020-08-16T06:40:19.000Z</time>
      </trkpt>
      <trkpt lat="43.66278" lon="3.83023">
        <ele>112.928</ele>
        <time>2020-08-16T06:40:20.000Z</time>
      </trkpt>
      <trkpt lat="43.6628" lon="3.83022">
        <ele>113.028</ele>
        <time>2020-08-16T06:40:21.000Z</time>
      </trkpt>
      <trkpt lat="43.66283" lon="3.83021">
        <ele>113.128</ele>
        <time>2020-08-16T06:40:22.000Z</time>
      </trkpt>
      <trkpt lat="43.66285" lon="3.8302">
        <ele>113.228</ele>
        <time>2020-08-16T06:40:23.000Z</time>
      </trkpt>
      <trkpt lat="43.66288" lon="3.83018">
        <ele>113.328</ele>
        <time>2020-08-16T06:40:24.000Z</time>
      </trkpt>
      <trkpt lat="43.6629" lon="3.83017">
        <ele>113.428</ele>
        <time>2020-08-16T06:40:25.000Z</time>
      </trkpt>
      <trkpt lat="43.66293" lon="3.83016">
        <ele>113.528</ele>
        <time>2020-08-16T06:40:26.000Z</time>
      </trkpt>
      <trkpt lat="43.66295" lon="3.83015">
        <ele>113.628</ele>
        <time>2020-08-16T06:40:27.000Z</time>
      </trkpt>
      <trkpt lat="43.66297" lon="3.83013">
        <ele>113.728</ele>
        <time>2020-08-16T06:40:28.000Z</time>
      </trkpt>
      <trkpt lat="43.66299" lon="3.83012">
        <ele>113.828</ele>
        <time>2020-08-16T06:40:29.000Z</time>
      </trkpt>
      <trkpt lat="43.66302" lon="3.83011">
        <ele>113.928</ele>
        <time>2020-08-16T06:40:30.000Z</time>
      </trkpt>
      <trkpt lat="43.66304" lon="3.8301">
        <ele>114</ele>
        <time>2020-08-16T06:40:31.000Z</time>
      </trkpt>
      <trkpt lat="43.66306" lon="3.83008">
        <ele>114</ele>
        <time>2020-08-16T06:40:32.000Z</time>
      </trkpt>
      <trkpt lat="43.66308" lon="3.83007">
        <ele>114</ele>
        <time>2020-08-16T06:40:33.000Z</time>
      </trkpt>
      <trkpt lat="43.6631" lon="3.83006">
        <ele>114</ele>
        <time>2020-08-16T06:40:34.000Z</time>
      </trkpt>
      <trkpt lat="43.66313" lon="3.83005">
        <ele>114</ele>
        <time>2020-08-16T06:40:35.000Z</time>
      </trkpt>
      <trkpt lat="43.66315" lon="3.83003">
        <ele>114</ele>
        <time>2020-08-16T06:40:36.000Z</time>
      </trkpt>
      <trkpt lat="43.66318" lon="3.83001">
        <ele>114</ele>
        <time>2020-08-16T06:40:37.000Z</time>
      </trkpt>
      <trkpt lat="43.6632" lon="3.83">
        <ele>114</ele>
        <time>2020-08-16T06:40:38.000Z</time>
      </trkpt>
      <trkpt lat="43.66322" lon="3.82998">
        <ele>114</ele>
        <time>2020-08-16T06:40:39.000Z</time>
      </trkpt>
      <trkpt lat="43.66325" lon="3.82997">
        <ele>114</ele>
        <time>2020-08-16T06:40:40.000Z</time>
      </trkpt>
      <trkpt lat="43.66327" lon="3.82995">
        <ele>114.05210545757</ele>
        <time>2020-08-16T06:40:41.000Z</time>
      </trkpt>
      <trkpt lat="43.66329" lon="3.82994">
        <ele>114.25250613066</ele>
        <time>2020-08-16T06:40:42.000Z</time>
      </trkpt>
      <trkpt lat="43.66331" lon="3.82993">
        <ele>114.45290680375</ele>
        <time>2020-08-16T06:40:43.000Z</time>
      </trkpt>
      <trkpt lat="43.66334" lon="3.82991">
        <ele>114.65330747684</ele>
        <time>2020-08-16T06:40:44.000Z</time>
      </trkpt>
      <trkpt lat="43.66336" lon="3.82989">
        <ele>114.85370814993</ele>
        <time>2020-08-16T06:40:45.000Z</time>
      </trkpt>
      <trkpt lat="43.66338" lon="3.82987">
        <ele>115.05410882302</ele>
        <time>2020-08-16T06:40:46.000Z</time>
      </trkpt>
      <trkpt lat="43.6634" lon="3.82986">
        <ele>115.25450949611</ele>
        <time>2020-08-16T06:40:47.000Z</time>
      </trkpt>
      <trkpt lat="43.66342" lon="3.82984">
        <ele>115.4549101692</ele>
        <time>2020-08-16T06:40:48.000Z</time>
      </trkpt>
      <trkpt lat="43.66344" lon="3.82981">
        <ele>115.65531084229</ele>
        <time>2020-08-16T06:40:49.000Z</time>
      </trkpt>
      <trkpt lat="43.66347" lon="3.82979">
        <ele>115.85571151538</ele>
        <time>2020-08-16T06:40:50.000Z</time>
      </trkpt>
      <trkpt lat="43.66348" lon="3.82976">
        <ele>116.03916082163</ele>
        <time>2020-08-16T06:40:51.000Z</time>
      </trkpt>
      <trkpt lat="43.66351" lon="3.82974">
        <ele>116.1790208989</ele>
        <time>2020-08-16T06:40:52.000Z</time>
      </trkpt>
      <trkpt lat="43.66352" lon="3.82973">
        <ele>116.31888097617</ele>
        <time>2020-08-16T06:40:53.000Z</time>
      </trkpt>
      <trkpt lat="43.66354" lon="3.82972">
        <ele>117</ele>
        <time>2020-08-16T06:40:59.000Z</time>
      </trkpt>
      <trkpt lat="43.66357" lon="3.82969">
        <ele>117.16614152138</ele>
        <time>2020-08-16T06:41:04.000Z</time>
      </trkpt>
      <trkpt lat="43.66358" lon="3.82967">
        <ele>117.58675126418</ele>
        <time>2020-08-16T06:41:06.000Z</time>
      </trkpt>
      <trkpt lat="43.66359" lon="3.82964">
        <ele>118.42797074979</ele>
        <time>2020-08-16T06:41:10.000Z</time>
      </trkpt>
      <trkpt lat="43.6636" lon="3.82964">
        <ele>120.14383561644</ele>
        <time>2020-08-16T06:41:15.000Z</time>
      </trkpt>
      <trkpt lat="43.66365" lon="3.8296">
        <ele>123</ele>
        <time>2020-08-16T06:41:38.000Z</time>
      </trkpt>
      <trkpt lat="43.66367" lon="3.82959">
        <ele>123</ele>
        <time>2020-08-16T06:41:39.000Z</time>
      </trkpt>
      <trkpt lat="43.66369" lon="3.82957">
        <ele>123</ele>
        <time>2020-08-16T06:41:40.000Z</time>
      </trkpt>
      <trkpt lat="43.66371" lon="3.82955">
        <ele>123</ele>
        <time>2020-08-16T06:41:41.000Z</time>
      </trkpt>
      <trkpt lat="43.66374" lon="3.82953">
        <ele>123</ele>
        <time>2020-08-16T06:41:42.000Z</time>
      </trkpt>
      <trkpt lat="43.66376" lon="3.82952">
        <ele>123</ele>
        <time>2020-08-16T06:41:43.000Z</time>
      </trkpt>
      <trkpt lat="43.66378" lon="3.8295">
        <ele>123</ele>
        <time>2020-08-16T06:41:44.000Z</time>
      </trkpt>
      <trkpt lat="43.6638" lon="3.82949">
        <ele>123</ele>
        <time>2020-08-16T06:41:45.000Z</time>
      </trkpt>
      <trkpt lat="43.66382" lon="3.82948">
        <ele>123</ele>
        <time>2020-08-16T06:41:46.000Z</time>
      </trkpt>
      <trkpt lat="43.66384" lon="3.82946">
        <ele>123.02721089282</ele>
        <time>2020-08-16T06:41:47.000Z</time>
      </trkpt>
      <trkpt lat="43.66387" lon="3.82944">
        <ele>123.12439265287</ele>
        <time>2020-08-16T06:41:48.000Z</time>
      </trkpt>
      <trkpt lat="43.66389" lon="3.82942">
        <ele>123.22157441293</ele>
        <time>2020-08-16T06:41:49.000Z</time>
      </trkpt>
      <trkpt lat="43.66391" lon="3.82941">
        <ele>123.31875617299</ele>
        <time>2020-08-16T06:41:50.000Z</time>
      </trkpt>
      <trkpt lat="43.66393" lon="3.82939">
        <ele>123.41593793304</ele>
        <time>2020-08-16T06:41:51.000Z</time>
      </trkpt>
      <trkpt lat="43.66394" lon="3.82938">
        <ele>123.5131196931</ele>
        <time>2020-08-16T06:41:52.000Z</time>
      </trkpt>
      <trkpt lat="43.66396" lon="3.82936">
        <ele>123.61030145316</ele>
        <time>2020-08-16T06:41:53.000Z</time>
      </trkpt>
      <trkpt lat="43.66398" lon="3.82935">
        <ele>123.70748321321</ele>
        <time>2020-08-16T06:41:54.000Z</time>
      </trkpt>
      <trkpt lat="43.664" lon="3.82933">
        <ele>123.80466497327</ele>
        <time>2020-08-16T06:41:55.000Z</time>
      </trkpt>
      <trkpt lat="43.66403" lon="3.8293">
        <ele>123.90184673333</ele>
        <time>2020-08-16T06:41:56.000Z</time>
      </trkpt>
      <trkpt lat="43.66405" lon="3.82928">
        <ele>123.99902849338</ele>
        <time>2020-08-16T06:41:57.000Z</time>
      </trkpt>
      <trkpt lat="43.66408" lon="3.82926">
        <ele>124</ele>
        <time>2020-08-16T06:41:58.000Z</time>
      </trkpt>
      <trkpt lat="43.66411" lon="3.82923">
        <ele>124</ele>
        <time>2020-08-16T06:41:59.000Z</time>
      </trkpt>
      <trkpt lat="43.66414" lon="3.82922">
        <ele>124</ele>
        <time>2020-08-16T06:42:00.000Z</time>
      </trkpt>
      <trkpt lat="43.66417" lon="3.8292">
        <ele>124</ele>
        <time>2020-08-16T06:42:01.000Z</time>
      </trkpt>
      <trkpt lat="43.6642" lon="3.82917">
        <ele>124</ele>
        <time>2020-08-16T06:42:02.000Z</time>
      </trkpt>
      <trkpt lat="43.66423" lon="3.82914">
        <ele>124</ele>
        <time>2020-08-16T06:42:03.000Z</time>
      </trkpt>
      <trkpt lat="43.66426" lon="3.82912">
        <ele>124</ele>
        <time>2020-08-16T06:42:04.000Z</time>
      </trkpt>
      <trkpt lat="43.66429" lon="3.82909">
        <ele>124</ele>
        <time>2020-08-16T06:42:05.000Z</time>
      </trkpt>
      <trkpt lat="43.66432" lon="3.82907">
        <ele>124</ele>
        <time>2020-08-16T06:42:06.000Z</time>
      </trkpt>
      <trkpt lat="43.66435" lon="3.82905">
        <ele>124</ele>
        <time>2020-08-16T06:42:07.000Z</time>
      </trkpt>
      <trkpt lat="43.66439" lon="3.82903">
        <ele>124</ele>
        <time>2020-08-16T06:42:08.000Z</time>
      </trkpt>
      <trkpt lat="43.66442" lon="3.82901">
        <ele>124</ele>
        <time>2020-08-16T06:42:09.000Z</time>
      </trkpt>
      <trkpt lat="43.66446" lon="3.82899">
        <ele>124</ele>
        <time>2020-08-16T06:42:10.000Z</time>
      </trkpt>
      <trkpt lat="43.66449" lon="3.82897">
        <ele>124</ele>
        <time>2020-08-16T06:42:11.000Z</time>
      </trkpt>
      <trkpt lat="43.66451" lon="3.82894">
        <ele>124</ele>
        <time>2020-08-16T06:42:12.000Z</time>
      </trkpt>
      <trkpt lat="43.66454" lon="3.82892">
        <ele>124</ele>
        <time>2020-08-16T06:42:13.000Z</time>
      </trkpt>
      <trkpt lat="43.66457" lon="3.82891">
        <ele>124</ele>
        <time>2020-08-16T06:42:14.000Z</time>
      </trkpt>
      <trkpt lat="43.6646" lon="3.82889">
        <ele>124</ele>
        <time>2020-08-16T06:42:15.000Z</time>
      </trkpt>
      <trkpt lat="43.66463" lon="3.82888">
        <ele>124</ele>
        <time>2020-08-16T06:42:16.000Z</time>
      </trkpt>
      <trkpt lat="43.66467" lon="3.82886">
        <ele>124</ele>
        <time>2020-08-16T06:42:17.000Z</time>
      </trkpt>
      <trkpt lat="43.6647" lon="3.82883">
        <ele>124</ele>
        <time>2020-08-16T06:42:18.000Z</time>
      </trkpt>
      <trkpt lat="43.66473" lon="3.82881">
        <ele>124</ele>
        <time>2020-08-16T06:42:19.000Z</time>
      </trkpt>
      <trkpt lat="43.66477" lon="3.82878">
        <ele>124</ele>
        <time>2020-08-16T06:42:20.000Z</time>
      </trkpt>
      <trkpt lat="43.6648" lon="3.82875">
        <ele>124</ele>
        <time>2020-08-16T06:42:21.000Z</time>
      </trkpt>
      <trkpt lat="43.66484" lon="3.82871">
        <ele>124</ele>
        <time>2020-08-16T06:42:22.000Z</time>
      </trkpt>
      <trkpt lat="43.66488" lon="3.82867">
        <ele>124</ele>
        <time>2020-08-16T06:42:23.000Z</time>
      </trkpt>
      <trkpt lat="43.66492" lon="3.82864">
        <ele>124</ele>
        <time>2020-08-16T06:42:24.000Z</time>
      </trkpt>
      <trkpt lat="43.66496" lon="3.8286">
        <ele>124</ele>
        <time>2020-08-16T06:42:25.000Z</time>
      </trkpt>
      <trkpt lat="43.665" lon="3.82858">
        <ele>124</ele>
        <time>2020-08-16T06:42:26.000Z</time>
      </trkpt>
      <trkpt lat="43.66504" lon="3.82856">
        <ele>124</ele>
        <time>2020-08-16T06:42:27.000Z</time>
      </trkpt>
      <trkpt lat="43.66507" lon="3.82853">
        <ele>124</ele>
        <time>2020-08-16T06:42:28.000Z</time>
      </trkpt>
      <trkpt lat="43.6651" lon="3.8285">
        <ele>124</ele>
        <time>2020-08-16T06:42:29.000Z</time>
      </trkpt>
      <trkpt lat="43.66514" lon="3.82847">
        <ele>124</ele>
        <time>2020-08-16T06:42:30.000Z</time>
      </trkpt>
      <trkpt lat="43.66518" lon="3.82844">
        <ele>124</ele>
        <time>2020-08-16T06:42:31.000Z</time>
      </trkpt>
      <trkpt lat="43.66523" lon="3.82842">
        <ele>124</ele>
        <time>2020-08-16T06:42:32.000Z</time>
      </trkpt>
      <trkpt lat="43.66527" lon="3.82839">
        <ele>124</ele>
        <time>2020-08-16T06:42:33.000Z</time>
      </trkpt>
      <trkpt lat="43.66532" lon="3.82835">
        <ele>124</ele>
        <time>2020-08-16T06:42:34.000Z</time>
      </trkpt>
      <trkpt lat="43.66536" lon="3.82832">
        <ele>124</ele>
        <time>2020-08-16T06:42:35.000Z</time>
      </trkpt>
      <trkpt lat="43.66541" lon="3.82828">
        <ele>124</ele>
        <time>2020-08-16T06:42:36.000Z</time>
      </trkpt>
      <trkpt lat="43.66545" lon="3.82825">
        <ele>124</ele>
        <time>2020-08-16T06:42:37.000Z</time>
      </trkpt>
      <trkpt lat="43.66549" lon="3.82822">
        <ele>123.89814781893</ele>
        <time>2020-08-16T06:42:38.000Z</time>
      </trkpt>
      <trkpt lat="43.66552" lon="3.8282">
        <ele>123.79526716049</ele>
        <time>2020-08-16T06:42:39.000Z</time>
      </trkpt>
      <trkpt lat="43.66555" lon="3.82818">
        <ele>123.69238650206</ele>
        <time>2020-08-16T06:42:40.000Z</time>
      </trkpt>
      <trkpt lat="43.66558" lon="3.82816">
        <ele>123.58950584362</ele>
        <time>2020-08-16T06:42:41.000Z</time>
      </trkpt>
      <trkpt lat="43.66561" lon="3.82813">
        <ele>123.48662518519</ele>
        <time>2020-08-16T06:42:42.000Z</time>
      </trkpt>
      <trkpt lat="43.66563" lon="3.82811">
        <ele>123.38374452675</ele>
        <time>2020-08-16T06:42:43.000Z</time>
      </trkpt>
      <trkpt lat="43.66565" lon="3.82809">
        <ele>123.28086386831</ele>
        <time>2020-08-16T06:42:44.000Z</time>
      </trkpt>
      <trkpt lat="43.66568" lon="3.82807">
        <ele>123.17798320988</ele>
        <time>2020-08-16T06:42:45.000Z</time>
      </trkpt>
      <trkpt lat="43.66571" lon="3.82805">
        <ele>123.07510255144</ele>
        <time>2020-08-16T06:42:46.000Z</time>
      </trkpt>
      <trkpt lat="43.66574" lon="3.82803">
        <ele>123</ele>
        <time>2020-08-16T06:42:47.000Z</time>
      </trkpt>
      <trkpt lat="43.66576" lon="3.82801">
        <ele>123</ele>
        <time>2020-08-16T06:42:48.000Z</time>
      </trkpt>
      <trkpt lat="43.66578" lon="3.828">
        <ele>123</ele>
        <time>2020-08-16T06:42:49.000Z</time>
      </trkpt>
      <trkpt lat="43.6658" lon="3.82799">
        <ele>123</ele>
        <time>2020-08-16T06:42:50.000Z</time>
      </trkpt>
      <trkpt lat="43.66583" lon="3.82797">
        <ele>123</ele>
        <time>2020-08-16T06:42:51.000Z</time>
      </trkpt>
      <trkpt lat="43.66586" lon="3.82795">
        <ele>123</ele>
        <time>2020-08-16T06:42:52.000Z</time>
      </trkpt>
      <trkpt lat="43.66588" lon="3.82793">
        <ele>123</ele>
        <time>2020-08-16T06:42:53.000Z</time>
      </trkpt>
      <trkpt lat="43.66591" lon="3.82791">
        <ele>123</ele>
        <time>2020-08-16T06:42:54.000Z</time>
      </trkpt>
      <trkpt lat="43.66594" lon="3.82788">
        <ele>123</ele>
        <time>2020-08-16T06:42:55.000Z</time>
      </trkpt>
      <trkpt lat="43.66597" lon="3.82786">
        <ele>123</ele>
        <time>2020-08-16T06:42:56.000Z</time>
      </trkpt>
      <trkpt lat="43.66599" lon="3.82785">
        <ele>122.97205587038</ele>
        <time>2020-08-16T06:42:57.000Z</time>
      </trkpt>
      <trkpt lat="43.66602" lon="3.82782">
        <ele>122.87225540743</ele>
        <time>2020-08-16T06:42:58.000Z</time>
      </trkpt>
      <trkpt lat="43.66605" lon="3.8278">
        <ele>122.77245494448</ele>
        <time>2020-08-16T06:42:59.000Z</time>
      </trkpt>
      <trkpt lat="43.66607" lon="3.82777">
        <ele>122.67265448154</ele>
        <time>2020-08-16T06:43:00.000Z</time>
      </trkpt>
      <trkpt lat="43.6661" lon="3.82775">
        <ele>122.57285401859</ele>
        <time>2020-08-16T06:43:01.000Z</time>
      </trkpt>
      <trkpt lat="43.66613" lon="3.82772">
        <ele>122.47305355564</ele>
        <time>2020-08-16T06:43:02.000Z</time>
      </trkpt>
      <trkpt lat="43.66615" lon="3.8277">
        <ele>122.3732530927</ele>
        <time>2020-08-16T06:43:03.000Z</time>
      </trkpt>
      <trkpt lat="43.66617" lon="3.82768">
        <ele>122.27345262975</ele>
        <time>2020-08-16T06:43:04.000Z</time>
      </trkpt>
      <trkpt lat="43.6662" lon="3.82765">
        <ele>122.1736521668</ele>
        <time>2020-08-16T06:43:05.000Z</time>
      </trkpt>
      <trkpt lat="43.66623" lon="3.82763">
        <ele>122.07385170386</ele>
        <time>2020-08-16T06:43:06.000Z</time>
      </trkpt>
      <trkpt lat="43.66625" lon="3.82761">
        <ele>121.92192002501</ele>
        <time>2020-08-16T06:43:07.000Z</time>
      </trkpt>
      <trkpt lat="43.66628" lon="3.8276">
        <ele>121.6216198209</ele>
        <time>2020-08-16T06:43:08.000Z</time>
      </trkpt>
      <trkpt lat="43.6663" lon="3.82758">
        <ele>121.32131961679</ele>
        <time>2020-08-16T06:43:09.000Z</time>
      </trkpt>
      <trkpt lat="43.66637" lon="3.82751">
        <ele>120.72071920858</ele>
        <time>2020-08-16T06:43:11.000Z</time>
      </trkpt>
      <trkpt lat="43.66645" lon="3.82742">
        <ele>120.12011880036</ele>
        <time>2020-08-16T06:43:13.000Z</time>
      </trkpt>
      <trkpt lat="43.66649" lon="3.82739">
        <ele>119.81981859625</ele>
        <time>2020-08-16T06:43:14.000Z</time>
      </trkpt>
      <trkpt lat="43.66651" lon="3.82737">
        <ele>119.51951839215</ele>
        <time>2020-08-16T06:43:15.000Z</time>
      </trkpt>
      <trkpt lat="43.66653" lon="3.82736">
        <ele>119.21921818804</ele>
        <time>2020-08-16T06:43:16.000Z</time>
      </trkpt>
      <trkpt lat="43.66656" lon="3.82734">
        <ele>118.87287259327</ele>
        <time>2020-08-16T06:43:18.000Z</time>
      </trkpt>
      <trkpt lat="43.66658" lon="3.82732">
        <ele>118.77277252524</ele>
        <time>2020-08-16T06:43:19.000Z</time>
      </trkpt>
      <trkpt lat="43.6666" lon="3.8273">
        <ele>118.6726724572</ele>
        <time>2020-08-16T06:43:20.000Z</time>
      </trkpt>
      <trkpt lat="43.66662" lon="3.82727">
        <ele>118.57257238917</ele>
        <time>2020-08-16T06:43:21.000Z</time>
      </trkpt>
      <trkpt lat="43.66665" lon="3.82725">
        <ele>118.47247232113</ele>
        <time>2020-08-16T06:43:22.000Z</time>
      </trkpt>
      <trkpt lat="43.66669" lon="3.82722">
        <ele>118.37237225309</ele>
        <time>2020-08-16T06:43:23.000Z</time>
      </trkpt>
      <trkpt lat="43.66672" lon="3.82719">
        <ele>118.27227218506</ele>
        <time>2020-08-16T06:43:24.000Z</time>
      </trkpt>
      <trkpt lat="43.66675" lon="3.82715">
        <ele>118.17217211702</ele>
        <time>2020-08-16T06:43:25.000Z</time>
      </trkpt>
      <trkpt lat="43.66679" lon="3.82712">
        <ele>118.07207204899</ele>
        <time>2020-08-16T06:43:26.000Z</time>
      </trkpt>
      <trkpt lat="43.66682" lon="3.8271">
        <ele>118.05594407383</ele>
        <time>2020-08-16T06:43:27.000Z</time>
      </trkpt>
      <trkpt lat="43.66684" lon="3.82708">
        <ele>118.2557443375</ele>
        <time>2020-08-16T06:43:28.000Z</time>
      </trkpt>
      <trkpt lat="43.66684" lon="3.82706">
        <ele>118.45554460117</ele>
        <time>2020-08-16T06:43:29.000Z</time>
      </trkpt>
      <trkpt lat="43.66684" lon="3.82703">
        <ele>118.65534486485</ele>
        <time>2020-08-16T06:43:30.000Z</time>
      </trkpt>
      <trkpt lat="43.66683" lon="3.827">
        <ele>118.85514512852</ele>
        <time>2020-08-16T06:43:31.000Z</time>
      </trkpt>
      <trkpt lat="43.66682" lon="3.82698">
        <ele>119.05494539219</ele>
        <time>2020-08-16T06:43:32.000Z</time>
      </trkpt>
      <trkpt lat="43.66681" lon="3.82695">
        <ele>119.25474565586</ele>
        <time>2020-08-16T06:43:33.000Z</time>
      </trkpt>
      <trkpt lat="43.6668" lon="3.82693">
        <ele>119.45454591953</ele>
        <time>2020-08-16T06:43:34.000Z</time>
      </trkpt>
      <trkpt lat="43.66679" lon="3.8269">
        <ele>119.65434618321</ele>
        <time>2020-08-16T06:43:35.000Z</time>
      </trkpt>
      <trkpt lat="43.66677" lon="3.82688">
        <ele>119.85414644688</ele>
        <time>2020-08-16T06:43:36.000Z</time>
      </trkpt>
      <trkpt lat="43.66677" lon="3.82685">
        <ele>120.02702733869</ele>
        <time>2020-08-16T06:43:37.000Z</time>
      </trkpt>
      <trkpt lat="43.66677" lon="3.82682">
        <ele>120.12712740673</ele>
        <time>2020-08-16T06:43:38.000Z</time>
      </trkpt>
      <trkpt lat="43.66678" lon="3.82679">
        <ele>120.22722747476</ele>
        <time>2020-08-16T06:43:39.000Z</time>
      </trkpt>
      <trkpt lat="43.66679" lon="3.82677">
        <ele>120.3273275428</ele>
        <time>2020-08-16T06:43:40.000Z</time>
      </trkpt>
      <trkpt lat="43.6668" lon="3.82675">
        <ele>120.42742761083</ele>
        <time>2020-08-16T06:43:41.000Z</time>
      </trkpt>
      <trkpt lat="43.66683" lon="3.82673">
        <ele>120.52752767887</ele>
        <time>2020-08-16T06:43:42.000Z</time>
      </trkpt>
      <trkpt lat="43.66685" lon="3.82672">
        <ele>120.62762774691</ele>
        <time>2020-08-16T06:43:43.000Z</time>
      </trkpt>
      <trkpt lat="43.66687" lon="3.82671">
        <ele>120.72772781494</ele>
        <time>2020-08-16T06:43:44.000Z</time>
      </trkpt>
      <trkpt lat="43.6669" lon="3.82671">
        <ele>120.82782788298</ele>
        <time>2020-08-16T06:43:45.000Z</time>
      </trkpt>
      <trkpt lat="43.66693" lon="3.8267">
        <ele>120.92792795101</ele>
        <time>2020-08-16T06:43:46.000Z</time>
      </trkpt>
      <trkpt lat="43.66697" lon="3.82669">
        <ele>121.028</ele>
        <time>2020-08-16T06:43:47.000Z</time>
      </trkpt>
      <trkpt lat="43.667" lon="3.82668">
        <ele>121.128</ele>
        <time>2020-08-16T06:43:48.000Z</time>
      </trkpt>
      <trkpt lat="43.66703" lon="3.82667">
        <ele>121.228</ele>
        <time>2020-08-16T06:43:49.000Z</time>
      </trkpt>
      <trkpt lat="43.66706" lon="3.82667">
        <ele>121.328</ele>
        <time>2020-08-16T06:43:50.000Z</time>
      </trkpt>
      <trkpt lat="43.66709" lon="3.82667">
        <ele>121.428</ele>
        <time>2020-08-16T06:43:51.000Z</time>
      </trkpt>
      <trkpt lat="43.66713" lon="3.82666">
        <ele>121.528</ele>
        <time>2020-08-16T06:43:52.000Z</time>
      </trkpt>
      <trkpt lat="43.66715" lon="3.82664">
        <ele>121.628</ele>
        <time>2020-08-16T06:43:53.000Z</time>
      </trkpt>
      <trkpt lat="43.66718" lon="3.82663">
        <ele>121.728</ele>
        <time>2020-08-16T06:43:54.000Z</time>
      </trkpt>
      <trkpt lat="43.66721" lon="3.82661">
        <ele>121.828</ele>
        <time>2020-08-16T06:43:55.000Z</time>
      </trkpt>
      <trkpt lat="43.66723" lon="3.82659">
        <ele>121.928</ele>
        <time>2020-08-16T06:43:56.000Z</time>
      </trkpt>
      <trkpt lat="43.66726" lon="3.82657">
        <ele>122.02797203691</ele>
        <time>2020-08-16T06:43:57.000Z</time>
      </trkpt>
      <trkpt lat="43.66729" lon="3.82654">
        <ele>122.12787216875</ele>
        <time>2020-08-16T06:43:58.000Z</time>
      </trkpt>
      <trkpt lat="43.66732" lon="3.82651">
        <ele>122.22777230059</ele>
        <time>2020-08-16T06:43:59.000Z</time>
      </trkpt>
      <trkpt lat="43.66735" lon="3.8265">
        <ele>122.32767243242</ele>
        <time>2020-08-16T06:44:00.000Z</time>
      </trkpt>
      <trkpt lat="43.66739" lon="3.82647">
        <ele>122.42757256426</ele>
        <time>2020-08-16T06:44:01.000Z</time>
      </trkpt>
      <trkpt lat="43.66742" lon="3.82645">
        <ele>122.5274726961</ele>
        <time>2020-08-16T06:44:02.000Z</time>
      </trkpt>
      <trkpt lat="43.66746" lon="3.82643">
        <ele>122.62737282793</ele>
        <time>2020-08-16T06:44:03.000Z</time>
      </trkpt>
      <trkpt lat="43.66749" lon="3.82641">
        <ele>122.72727295977</ele>
        <time>2020-08-16T06:44:04.000Z</time>
      </trkpt>
      <trkpt lat="43.66753" lon="3.82638">
        <ele>122.8271730916</ele>
        <time>2020-08-16T06:44:05.000Z</time>
      </trkpt>
      <trkpt lat="43.66756" lon="3.82635">
        <ele>122.92707322344</ele>
        <time>2020-08-16T06:44:06.000Z</time>
      </trkpt>
      <trkpt lat="43.6676" lon="3.82633">
        <ele>123</ele>
        <time>2020-08-16T06:44:07.000Z</time>
      </trkpt>
      <trkpt lat="43.66764" lon="3.8263">
        <ele>123</ele>
        <time>2020-08-16T06:44:08.000Z</time>
      </trkpt>
      <trkpt lat="43.66767" lon="3.82628">
        <ele>123</ele>
        <time>2020-08-16T06:44:09.000Z</time>
      </trkpt>
      <trkpt lat="43.66771" lon="3.82626">
        <ele>123</ele>
        <time>2020-08-16T06:44:10.000Z</time>
      </trkpt>
      <trkpt lat="43.66774" lon="3.82623">
        <ele>123</ele>
        <time>2020-08-16T06:44:11.000Z</time>
      </trkpt>
      <trkpt lat="43.66778" lon="3.82621">
        <ele>123</ele>
        <time>2020-08-16T06:44:12.000Z</time>
      </trkpt>
      <trkpt lat="43.66781" lon="3.82618">
        <ele>123</ele>
        <time>2020-08-16T06:44:13.000Z</time>
      </trkpt>
      <trkpt lat="43.66785" lon="3.82616">
        <ele>123</ele>
        <time>2020-08-16T06:44:14.000Z</time>
      </trkpt>
      <trkpt lat="43.66789" lon="3.82614">
        <ele>123</ele>
        <time>2020-08-16T06:44:15.000Z</time>
      </trkpt>
      <trkpt lat="43.66793" lon="3.82611">
        <ele>123</ele>
        <time>2020-08-16T06:44:16.000Z</time>
      </trkpt>
      <trkpt lat="43.66797" lon="3.82609">
        <ele>123</ele>
        <time>2020-08-16T06:44:17.000Z</time>
      </trkpt>
      <trkpt lat="43.668" lon="3.82606">
        <ele>123</ele>
        <time>2020-08-16T06:44:18.000Z</time>
      </trkpt>
      <trkpt lat="43.66804" lon="3.82603">
        <ele>123</ele>
        <time>2020-08-16T06:44:19.000Z</time>
      </trkpt>
      <trkpt lat="43.66807" lon="3.82599">
        <ele>123</ele>
        <time>2020-08-16T06:44:20.000Z</time>
      </trkpt>
      <trkpt lat="43.66809" lon="3.82596">
        <ele>123</ele>
        <time>2020-08-16T06:44:21.000Z</time>
      </trkpt>
      <trkpt lat="43.66811" lon="3.82593">
        <ele>123</ele>
        <time>2020-08-16T06:44:22.000Z</time>
      </trkpt>
      <trkpt lat="43.66813" lon="3.8259">
        <ele>123</ele>
        <time>2020-08-16T06:44:23.000Z</time>
      </trkpt>
      <trkpt lat="43.66816" lon="3.82588">
        <ele>123</ele>
        <time>2020-08-16T06:44:24.000Z</time>
      </trkpt>
      <trkpt lat="43.66817" lon="3.82585">
        <ele>123</ele>
        <time>2020-08-16T06:44:25.000Z</time>
      </trkpt>
      <trkpt lat="43.66819" lon="3.82583">
        <ele>123</ele>
        <time>2020-08-16T06:44:26.000Z</time>
      </trkpt>
      <trkpt lat="43.6682" lon="3.82581">
        <ele>122.97394727122</ele>
        <time>2020-08-16T06:44:27.000Z</time>
      </trkpt>
      <trkpt lat="43.66822" lon="3.82579">
        <ele>122.87374693467</ele>
        <time>2020-08-16T06:44:28.000Z</time>
      </trkpt>
      <trkpt lat="43.66824" lon="3.82577">
        <ele>122.77354659813</ele>
        <time>2020-08-16T06:44:29.000Z</time>
      </trkpt>
      <trkpt lat="43.66827" lon="3.82575">
        <ele>122.67334626158</ele>
        <time>2020-08-16T06:44:30.000Z</time>
      </trkpt>
      <trkpt lat="43.66829" lon="3.82574">
        <ele>122.57314592504</ele>
        <time>2020-08-16T06:44:31.000Z</time>
      </trkpt>
      <trkpt lat="43.66832" lon="3.82571">
        <ele>122.47294558849</ele>
        <time>2020-08-16T06:44:32.000Z</time>
      </trkpt>
      <trkpt lat="43.66834" lon="3.8257">
        <ele>122.37274525195</ele>
        <time>2020-08-16T06:44:33.000Z</time>
      </trkpt>
      <trkpt lat="43.66837" lon="3.82568">
        <ele>122.2725449154</ele>
        <time>2020-08-16T06:44:34.000Z</time>
      </trkpt>
      <trkpt lat="43.6684" lon="3.82566">
        <ele>122.17234457886</ele>
        <time>2020-08-16T06:44:35.000Z</time>
      </trkpt>
      <trkpt lat="43.66843" lon="3.82564">
        <ele>122.07214424231</ele>
        <time>2020-08-16T06:44:36.000Z</time>
      </trkpt>
      <trkpt lat="43.66847" lon="3.82562">
        <ele>121.97202796309</ele>
        <time>2020-08-16T06:44:37.000Z</time>
      </trkpt>
      <trkpt lat="43.6685" lon="3.8256">
        <ele>121.87212783125</ele>
        <time>2020-08-16T06:44:38.000Z</time>
      </trkpt>
      <trkpt lat="43.66853" lon="3.82556">
        <ele>121.77222769941</ele>
        <time>2020-08-16T06:44:39.000Z</time>
      </trkpt>
      <trkpt lat="43.66855" lon="3.82553">
        <ele>121.67232756758</ele>
        <time>2020-08-16T06:44:40.000Z</time>
      </trkpt>
      <trkpt lat="43.66858" lon="3.82549">
        <ele>121.57242743574</ele>
        <time>2020-08-16T06:44:41.000Z</time>
      </trkpt>
      <trkpt lat="43.6686" lon="3.82545">
        <ele>121.4725273039</ele>
        <time>2020-08-16T06:44:42.000Z</time>
      </trkpt>
      <trkpt lat="43.66863" lon="3.82542">
        <ele>121.37262717207</ele>
        <time>2020-08-16T06:44:43.000Z</time>
      </trkpt>
      <trkpt lat="43.66866" lon="3.82539">
        <ele>121.27272704023</ele>
        <time>2020-08-16T06:44:44.000Z</time>
      </trkpt>
      <trkpt lat="43.66869" lon="3.82536">
        <ele>121.1728269084</ele>
        <time>2020-08-16T06:44:45.000Z</time>
      </trkpt>
      <trkpt lat="43.66872" lon="3.82533">
        <ele>121.07292677656</ele>
        <time>2020-08-16T06:44:46.000Z</time>
      </trkpt>
      <trkpt lat="43.66875" lon="3.82531">
        <ele>121</ele>
        <time>2020-08-16T06:44:47.000Z</time>
      </trkpt>
      <trkpt lat="43.66879" lon="3.82529">
        <ele>121</ele>
        <time>2020-08-16T06:44:48.000Z</time>
      </trkpt>
      <trkpt lat="43.66883" lon="3.82527">
        <ele>121</ele>
        <time>2020-08-16T06:44:49.000Z</time>
      </trkpt>
      <trkpt lat="43.66887" lon="3.82523">
        <ele>121</ele>
        <time>2020-08-16T06:44:50.000Z</time>
      </trkpt>
      <trkpt lat="43.66891" lon="3.82519">
        <ele>121</ele>
        <time>2020-08-16T06:44:51.000Z</time>
      </trkpt>
      <trkpt lat="43.66895" lon="3.82516">
        <ele>121</ele>
        <time>2020-08-16T06:44:52.000Z</time>
      </trkpt>
      <trkpt lat="43.66898" lon="3.82512">
        <ele>121</ele>
        <time>2020-08-16T06:44:53.000Z</time>
      </trkpt>
      <trkpt lat="43.66901" lon="3.82509">
        <ele>121</ele>
        <time>2020-08-16T06:44:54.000Z</time>
      </trkpt>
      <trkpt lat="43.66903" lon="3.82505">
        <ele>121</ele>
        <time>2020-08-16T06:44:55.000Z</time>
      </trkpt>
      <trkpt lat="43.66906" lon="3.82503">
        <ele>121</ele>
        <time>2020-08-16T06:44:56.000Z</time>
      </trkpt>
      <trkpt lat="43.66908" lon="3.82501">
        <ele>121.02531707098</ele>
        <time>2020-08-16T06:44:57.000Z</time>
      </trkpt>
      <trkpt lat="43.6691" lon="3.82499">
        <ele>121.12268802409</ele>
        <time>2020-08-16T06:44:58.000Z</time>
      </trkpt>
      <trkpt lat="43.66913" lon="3.82498">
        <ele>121.2200589772</ele>
        <time>2020-08-16T06:44:59.000Z</time>
      </trkpt>
      <trkpt lat="43.66915" lon="3.82496">
        <ele>121.3174299303</ele>
        <time>2020-08-16T06:45:00.000Z</time>
      </trkpt>
      <trkpt lat="43.66918" lon="3.82494">
        <ele>121.41480088341</ele>
        <time>2020-08-16T06:45:01.000Z</time>
      </trkpt>
      <trkpt lat="43.66921" lon="3.82491">
        <ele>121.51217183652</ele>
        <time>2020-08-16T06:45:02.000Z</time>
      </trkpt>
      <trkpt lat="43.66923" lon="3.82488">
        <ele>121.60954278963</ele>
        <time>2020-08-16T06:45:03.000Z</time>
      </trkpt>
      <trkpt lat="43.66925" lon="3.82486">
        <ele>121.70691374273</ele>
        <time>2020-08-16T06:45:04.000Z</time>
      </trkpt>
      <trkpt lat="43.66927" lon="3.82483">
        <ele>121.80428469584</ele>
        <time>2020-08-16T06:45:05.000Z</time>
      </trkpt>
      <trkpt lat="43.66929" lon="3.82481">
        <ele>121.90165564895</ele>
        <time>2020-08-16T06:45:06.000Z</time>
      </trkpt>
      <trkpt lat="43.66932" lon="3.82478">
        <ele>121.99902660206</ele>
        <time>2020-08-16T06:45:07.000Z</time>
      </trkpt>
      <trkpt lat="43.66934" lon="3.82475">
        <ele>122</ele>
        <time>2020-08-16T06:45:08.000Z</time>
      </trkpt>
      <trkpt lat="43.66937" lon="3.82472">
        <ele>122</ele>
        <time>2020-08-16T06:45:09.000Z</time>
      </trkpt>
      <trkpt lat="43.6694" lon="3.8247">
        <ele>122</ele>
        <time>2020-08-16T06:45:10.000Z</time>
      </trkpt>
      <trkpt lat="43.66943" lon="3.82466">
        <ele>122</ele>
        <time>2020-08-16T06:45:11.000Z</time>
      </trkpt>
      <trkpt lat="43.66945" lon="3.82463">
        <ele>122</ele>
        <time>2020-08-16T06:45:12.000Z</time>
      </trkpt>
      <trkpt lat="43.66948" lon="3.82461">
        <ele>122</ele>
        <time>2020-08-16T06:45:13.000Z</time>
      </trkpt>
      <trkpt lat="43.66951" lon="3.82458">
        <ele>122</ele>
        <time>2020-08-16T06:45:14.000Z</time>
      </trkpt>
      <trkpt lat="43.66954" lon="3.82455">
        <ele>122</ele>
        <time>2020-08-16T06:45:15.000Z</time>
      </trkpt>
      <trkpt lat="43.66957" lon="3.82452">
        <ele>122</ele>
        <time>2020-08-16T06:45:16.000Z</time>
      </trkpt>
      <trkpt lat="43.6696" lon="3.82449">
        <ele>121.97281555087</ele>
        <time>2020-08-16T06:45:17.000Z</time>
      </trkpt>
      <trkpt lat="43.66963" lon="3.82445">
        <ele>121.87572823256</ele>
        <time>2020-08-16T06:45:18.000Z</time>
      </trkpt>
      <trkpt lat="43.66967" lon="3.82441">
        <ele>121.77864091424</ele>
        <time>2020-08-16T06:45:19.000Z</time>
      </trkpt>
      <trkpt lat="43.66971" lon="3.82439">
        <ele>121.68155359593</ele>
        <time>2020-08-16T06:45:20.000Z</time>
      </trkpt>
      <trkpt lat="43.66976" lon="3.82436">
        <ele>121.58446627761</ele>
        <time>2020-08-16T06:45:21.000Z</time>
      </trkpt>
      <trkpt lat="43.66979" lon="3.82431">
        <ele>121.4873789593</ele>
        <time>2020-08-16T06:45:22.000Z</time>
      </trkpt>
      <trkpt lat="43.66982" lon="3.82425">
        <ele>121.39029164098</ele>
        <time>2020-08-16T06:45:23.000Z</time>
      </trkpt>
      <trkpt lat="43.66983" lon="3.82419">
        <ele>121.29320432267</ele>
        <time>2020-08-16T06:45:24.000Z</time>
      </trkpt>
      <trkpt lat="43.66984" lon="3.82415">
        <ele>121.19611700435</ele>
        <time>2020-08-16T06:45:25.000Z</time>
      </trkpt>
      <trkpt lat="43.66984" lon="3.82411">
        <ele>121.09902968604</ele>
        <time>2020-08-16T06:45:26.000Z</time>
      </trkpt>
      <trkpt lat="43.66984" lon="3.82407">
        <ele>121.00194236772</ele>
        <time>2020-08-16T06:45:27.000Z</time>
      </trkpt>
      <trkpt lat="43.66983" lon="3.82403">
        <ele>121.20185264035</ele>
        <time>2020-08-16T06:45:28.000Z</time>
      </trkpt>
      <trkpt lat="43.66982" lon="3.82398">
        <ele>121.40782606747</ele>
        <time>2020-08-16T06:45:29.000Z</time>
      </trkpt>
      <trkpt lat="43.66982" lon="3.82395">
        <ele>121.61379949459</ele>
        <time>2020-08-16T06:45:30.000Z</time>
      </trkpt>
      <trkpt lat="43.66982" lon="3.82391">
        <ele>121.81977292171</ele>
        <time>2020-08-16T06:45:31.000Z</time>
      </trkpt>
      <trkpt lat="43.66981" lon="3.82387">
        <ele>122.02574634883</ele>
        <time>2020-08-16T06:45:32.000Z</time>
      </trkpt>
      <trkpt lat="43.66981" lon="3.82384">
        <ele>122.23171977595</ele>
        <time>2020-08-16T06:45:33.000Z</time>
      </trkpt>
      <trkpt lat="43.66981" lon="3.82381">
        <ele>122.43769320307</ele>
        <time>2020-08-16T06:45:34.000Z</time>
      </trkpt>
      <trkpt lat="43.66981" lon="3.82377">
        <ele>122.6436666302</ele>
        <time>2020-08-16T06:45:35.000Z</time>
      </trkpt>
      <trkpt lat="43.6698" lon="3.82374">
        <ele>122.84964005732</ele>
        <time>2020-08-16T06:45:36.000Z</time>
      </trkpt>
      <trkpt lat="43.6698" lon="3.8237">
        <ele>123.02700032</ele>
        <time>2020-08-16T06:45:37.000Z</time>
      </trkpt>
      <trkpt lat="43.66979" lon="3.82366">
        <ele>123.12700032</ele>
        <time>2020-08-16T06:45:38.000Z</time>
      </trkpt>
      <trkpt lat="43.66979" lon="3.82363">
        <ele>123.22700032</ele>
        <time>2020-08-16T06:45:39.000Z</time>
      </trkpt>
      <trkpt lat="43.66978" lon="3.8236">
        <ele>123.32700032</ele>
        <time>2020-08-16T06:45:40.000Z</time>
      </trkpt>
      <trkpt lat="43.66978" lon="3.82356">
        <ele>123.42700032</ele>
        <time>2020-08-16T06:45:41.000Z</time>
      </trkpt>
      <trkpt lat="43.66977" lon="3.82353">
        <ele>123.52700032</ele>
        <time>2020-08-16T06:45:42.000Z</time>
      </trkpt>
      <trkpt lat="43.66977" lon="3.82349">
        <ele>123.62700032</ele>
        <time>2020-08-16T06:45:43.000Z</time>
      </trkpt>
      <trkpt lat="43.66976" lon="3.82346">
        <ele>123.72700032</ele>
        <time>2020-08-16T06:45:44.000Z</time>
      </trkpt>
      <trkpt lat="43.66976" lon="3.82343">
        <ele>123.82700032</ele>
        <time>2020-08-16T06:45:45.000Z</time>
      </trkpt>
      <trkpt lat="43.66975" lon="3.8234">
        <ele>123.92700032</ele>
        <time>2020-08-16T06:45:46.000Z</time>
      </trkpt>
      <trkpt lat="43.66974" lon="3.82337">
        <ele>124.02702733869</ele>
        <time>2020-08-16T06:45:47.000Z</time>
      </trkpt>
      <trkpt lat="43.66973" lon="3.82334">
        <ele>124.12712740673</ele>
        <time>2020-08-16T06:45:48.000Z</time>
      </trkpt>
      <trkpt lat="43.66972" lon="3.82331">
        <ele>124.22722747476</ele>
        <time>2020-08-16T06:45:49.000Z</time>
      </trkpt>
      <trkpt lat="43.6697" lon="3.82328">
        <ele>124.3273275428</ele>
        <time>2020-08-16T06:45:50.000Z</time>
      </trkpt>
      <trkpt lat="43.66969" lon="3.82325">
        <ele>124.42742761083</ele>
        <time>2020-08-16T06:45:51.000Z</time>
      </trkpt>
      <trkpt lat="43.66968" lon="3.82322">
        <ele>124.52752767887</ele>
        <time>2020-08-16T06:45:52.000Z</time>
      </trkpt>
      <trkpt lat="43.66967" lon="3.82319">
        <ele>124.62762774691</ele>
        <time>2020-08-16T06:45:53.000Z</time>
      </trkpt>
      <trkpt lat="43.66965" lon="3.82316">
        <ele>124.72772781494</ele>
        <time>2020-08-16T06:45:54.000Z</time>
      </trkpt>
      <trkpt lat="43.66964" lon="3.82313">
        <ele>124.82782788298</ele>
        <time>2020-08-16T06:45:55.000Z</time>
      </trkpt>
      <trkpt lat="43.66963" lon="3.8231">
        <ele>124.92792795101</ele>
        <time>2020-08-16T06:45:56.000Z</time>
      </trkpt>
      <trkpt lat="43.66962" lon="3.82307">
        <ele>125</ele>
        <time>2020-08-16T06:45:57.000Z</time>
      </trkpt>
      <trkpt lat="43.6696" lon="3.82304">
        <ele>125</ele>
        <time>2020-08-16T06:45:58.000Z</time>
      </trkpt>
      <trkpt lat="43.66958" lon="3.82302">
        <ele>125</ele>
        <time>2020-08-16T06:45:59.000Z</time>
      </trkpt>
      <trkpt lat="43.66957" lon="3.82299">
        <ele>125</ele>
        <time>2020-08-16T06:46:00.000Z</time>
      </trkpt>
      <trkpt lat="43.66955" lon="3.82297">
        <ele>125</ele>
        <time>2020-08-16T06:46:01.000Z</time>
      </trkpt>
      <trkpt lat="43.66953" lon="3.82294">
        <ele>125</ele>
        <time>2020-08-16T06:46:02.000Z</time>
      </trkpt>
      <trkpt lat="43.66951" lon="3.82292">
        <ele>125</ele>
        <time>2020-08-16T06:46:03.000Z</time>
      </trkpt>
      <trkpt lat="43.66949" lon="3.8229">
        <ele>125</ele>
        <time>2020-08-16T06:46:04.000Z</time>
      </trkpt>
      <trkpt lat="43.66948" lon="3.82287">
        <ele>125</ele>
        <time>2020-08-16T06:46:05.000Z</time>
      </trkpt>
      <trkpt lat="43.66946" lon="3.82284">
        <ele>125</ele>
        <time>2020-08-16T06:46:06.000Z</time>
      </trkpt>
      <trkpt lat="43.66944" lon="3.82282">
        <ele>125.02797203691</ele>
        <time>2020-08-16T06:46:07.000Z</time>
      </trkpt>
      <trkpt lat="43.66942" lon="3.82279">
        <ele>125.12787216875</ele>
        <time>2020-08-16T06:46:08.000Z</time>
      </trkpt>
      <trkpt lat="43.6694" lon="3.82277">
        <ele>125.22777230059</ele>
        <time>2020-08-16T06:46:09.000Z</time>
      </trkpt>
      <trkpt lat="43.66939" lon="3.82275">
        <ele>125.32767243242</ele>
        <time>2020-08-16T06:46:10.000Z</time>
      </trkpt>
      <trkpt lat="43.66937" lon="3.82272">
        <ele>125.42757256426</ele>
        <time>2020-08-16T06:46:11.000Z</time>
      </trkpt>
      <trkpt lat="43.66935" lon="3.8227">
        <ele>125.5274726961</ele>
        <time>2020-08-16T06:46:12.000Z</time>
      </trkpt>
      <trkpt lat="43.66933" lon="3.82268">
        <ele>125.62737282793</ele>
        <time>2020-08-16T06:46:13.000Z</time>
      </trkpt>
      <trkpt lat="43.66931" lon="3.82266">
        <ele>125.72727295977</ele>
        <time>2020-08-16T06:46:14.000Z</time>
      </trkpt>
      <trkpt lat="43.66929" lon="3.82265">
        <ele>125.8271730916</ele>
        <time>2020-08-16T06:46:15.000Z</time>
      </trkpt>
      <trkpt lat="43.66926" lon="3.82263">
        <ele>125.92707322344</ele>
        <time>2020-08-16T06:46:16.000Z</time>
      </trkpt>
      <trkpt lat="43.66924" lon="3.82261">
        <ele>126.02700032</ele>
        <time>2020-08-16T06:46:17.000Z</time>
      </trkpt>
      <trkpt lat="43.66922" lon="3.82259">
        <ele>126.12700032</ele>
        <time>2020-08-16T06:46:18.000Z</time>
      </trkpt>
      <trkpt lat="43.66921" lon="3.82256">
        <ele>126.22700032</ele>
        <time>2020-08-16T06:46:19.000Z</time>
      </trkpt>
      <trkpt lat="43.66919" lon="3.82254">
        <ele>126.32700032</ele>
        <time>2020-08-16T06:46:20.000Z</time>
      </trkpt>
      <trkpt lat="43.66917" lon="3.82252">
        <ele>126.42700032</ele>
        <time>2020-08-16T06:46:21.000Z</time>
      </trkpt>
      <trkpt lat="43.66915" lon="3.8225">
        <ele>126.52700032</ele>
        <time>2020-08-16T06:46:22.000Z</time>
      </trkpt>
      <trkpt lat="43.66913" lon="3.82247">
        <ele>126.62700032</ele>
        <time>2020-08-16T06:46:23.000Z</time>
      </trkpt>
      <trkpt lat="43.66911" lon="3.82245">
        <ele>126.72700032</ele>
        <time>2020-08-16T06:46:24.000Z</time>
      </trkpt>
      <trkpt lat="43.66909" lon="3.82242">
        <ele>126.82700032</ele>
        <time>2020-08-16T06:46:25.000Z</time>
      </trkpt>
      <trkpt lat="43.66907" lon="3.8224">
        <ele>126.92700032</ele>
        <time>2020-08-16T06:46:26.000Z</time>
      </trkpt>
      <trkpt lat="43.66905" lon="3.82239">
        <ele>127.02700032</ele>
        <time>2020-08-16T06:46:27.000Z</time>
      </trkpt>
      <trkpt lat="43.66903" lon="3.82237">
        <ele>127.12700032</ele>
        <time>2020-08-16T06:46:28.000Z</time>
      </trkpt>
      <trkpt lat="43.66901" lon="3.82236">
        <ele>127.22700032</ele>
        <time>2020-08-16T06:46:29.000Z</time>
      </trkpt>
      <trkpt lat="43.66899" lon="3.82234">
        <ele>127.32700032</ele>
        <time>2020-08-16T06:46:30.000Z</time>
      </trkpt>
      <trkpt lat="43.66897" lon="3.82232">
        <ele>127.42700032</ele>
        <time>2020-08-16T06:46:31.000Z</time>
      </trkpt>
      <trkpt lat="43.66895" lon="3.8223">
        <ele>127.52700032</ele>
        <time>2020-08-16T06:46:32.000Z</time>
      </trkpt>
      <trkpt lat="43.66893" lon="3.82229">
        <ele>127.62700032</ele>
        <time>2020-08-16T06:46:33.000Z</time>
      </trkpt>
      <trkpt lat="43.6689" lon="3.82227">
        <ele>127.72700032</ele>
        <time>2020-08-16T06:46:34.000Z</time>
      </trkpt>
      <trkpt lat="43.66888" lon="3.82226">
        <ele>127.82700032</ele>
        <time>2020-08-16T06:46:35.000Z</time>
      </trkpt>
      <trkpt lat="43.66886" lon="3.82224">
        <ele>127.92700032</ele>
        <time>2020-08-16T06:46:36.000Z</time>
      </trkpt>
      <trkpt lat="43.66884" lon="3.82222">
        <ele>128.02700032</ele>
        <time>2020-08-16T06:46:37.000Z</time>
      </trkpt>
      <trkpt lat="43.66882" lon="3.8222">
        <ele>128.12700032</ele>
        <time>2020-08-16T06:46:38.000Z</time>
      </trkpt>
      <trkpt lat="43.6688" lon="3.82219">
        <ele>128.22700032</ele>
        <time>2020-08-16T06:46:39.000Z</time>
      </trkpt>
      <trkpt lat="43.66878" lon="3.82217">
        <ele>128.32700032</ele>
        <time>2020-08-16T06:46:40.000Z</time>
      </trkpt>
      <trkpt lat="43.66875" lon="3.82216">
        <ele>128.42700032</ele>
        <time>2020-08-16T06:46:41.000Z</time>
      </trkpt>
      <trkpt lat="43.66873" lon="3.82214">
        <ele>128.52700032</ele>
        <time>2020-08-16T06:46:42.000Z</time>
      </trkpt>
      <trkpt lat="43.66871" lon="3.82212">
        <ele>128.62700032</ele>
        <time>2020-08-16T06:46:43.000Z</time>
      </trkpt>
      <trkpt lat="43.66869" lon="3.82211">
        <ele>128.72700032</ele>
        <time>2020-08-16T06:46:44.000Z</time>
      </trkpt>
      <trkpt lat="43.66867" lon="3.82209">
        <ele>128.82700032</ele>
        <time>2020-08-16T06:46:45.000Z</time>
      </trkpt>
      <trkpt lat="43.66865" lon="3.82208">
        <ele>128.92700032</ele>
        <time>2020-08-16T06:46:46.000Z</time>
      </trkpt>
      <trkpt lat="43.66863" lon="3.82206">
        <ele>129</ele>
        <time>2020-08-16T06:46:47.000Z</time>
      </trkpt>
      <trkpt lat="43.66861" lon="3.82205">
        <ele>129</ele>
        <time>2020-08-16T06:46:48.000Z</time>
      </trkpt>
      <trkpt lat="43.66858" lon="3.82204">
        <ele>129</ele>
        <time>2020-08-16T06:46:49.000Z</time>
      </trkpt>
      <trkpt lat="43.66856" lon="3.82203">
        <ele>129</ele>
        <time>2020-08-16T06:46:50.000Z</time>
      </trkpt>
      <trkpt lat="43.66854" lon="3.82201">
        <ele>129</ele>
        <time>2020-08-16T06:46:51.000Z</time>
      </trkpt>
      <trkpt lat="43.66852" lon="3.82199">
        <ele>129</ele>
        <time>2020-08-16T06:46:52.000Z</time>
      </trkpt>
      <trkpt lat="43.6685" lon="3.82197">
        <ele>129</ele>
        <time>2020-08-16T06:46:53.000Z</time>
      </trkpt>
      <trkpt lat="43.66848" lon="3.82195">
        <ele>129</ele>
        <time>2020-08-16T06:46:54.000Z</time>
      </trkpt>
      <trkpt lat="43.66846" lon="3.82192">
        <ele>129</ele>
        <time>2020-08-16T06:46:55.000Z</time>
      </trkpt>
      <trkpt lat="43.66844" lon="3.8219">
        <ele>129</ele>
        <time>2020-08-16T06:46:56.000Z</time>
      </trkpt>
      <trkpt lat="43.66843" lon="3.82187">
        <ele>129.028</ele>
        <time>2020-08-16T06:46:57.000Z</time>
      </trkpt>
      <trkpt lat="43.66841" lon="3.82184">
        <ele>129.128</ele>
        <time>2020-08-16T06:46:58.000Z</time>
      </trkpt>
      <trkpt lat="43.6684" lon="3.82181">
        <ele>129.228</ele>
        <time>2020-08-16T06:46:59.000Z</time>
      </trkpt>
      <trkpt lat="43.66839" lon="3.82179">
        <ele>129.328</ele>
        <time>2020-08-16T06:47:00.000Z</time>
      </trkpt>
      <trkpt lat="43.66838" lon="3.82176">
        <ele>129.428</ele>
        <time>2020-08-16T06:47:01.000Z</time>
      </trkpt>
      <trkpt lat="43.66836" lon="3.82173">
        <ele>129.528</ele>
        <time>2020-08-16T06:47:02.000Z</time>
      </trkpt>
      <trkpt lat="43.66835" lon="3.8217">
        <ele>129.628</ele>
        <time>2020-08-16T06:47:03.000Z</time>
      </trkpt>
      <trkpt lat="43.66834" lon="3.82167">
        <ele>129.728</ele>
        <time>2020-08-16T06:47:04.000Z</time>
      </trkpt>
      <trkpt lat="43.66833" lon="3.82164">
        <ele>129.828</ele>
        <time>2020-08-16T06:47:05.000Z</time>
      </trkpt>
      <trkpt lat="43.66832" lon="3.82161">
        <ele>129.928</ele>
        <time>2020-08-16T06:47:06.000Z</time>
      </trkpt>
      <trkpt lat="43.66831" lon="3.82158">
        <ele>130.02797203691</ele>
        <time>2020-08-16T06:47:07.000Z</time>
      </trkpt>
      <trkpt lat="43.6683" lon="3.82155">
        <ele>130.12787216875</ele>
        <time>2020-08-16T06:47:08.000Z</time>
      </trkpt>
      <trkpt lat="43.66829" lon="3.82152">
        <ele>130.22777230059</ele>
        <time>2020-08-16T06:47:09.000Z</time>
      </trkpt>
      <trkpt lat="43.66828" lon="3.82149">
        <ele>130.32767243242</ele>
        <time>2020-08-16T06:47:10.000Z</time>
      </trkpt>
      <trkpt lat="43.66827" lon="3.82146">
        <ele>130.42757256426</ele>
        <time>2020-08-16T06:47:11.000Z</time>
      </trkpt>
      <trkpt lat="43.66826" lon="3.82143">
        <ele>130.5274726961</ele>
        <time>2020-08-16T06:47:12.000Z</time>
      </trkpt>
      <trkpt lat="43.66824" lon="3.8214">
        <ele>130.62737282793</ele>
        <time>2020-08-16T06:47:13.000Z</time>
      </trkpt>
      <trkpt lat="43.66823" lon="3.82138">
        <ele>130.72727295977</ele>
        <time>2020-08-16T06:47:14.000Z</time>
      </trkpt>
      <trkpt lat="43.66821" lon="3.82135">
        <ele>130.8271730916</ele>
        <time>2020-08-16T06:47:15.000Z</time>
      </trkpt>
      <trkpt lat="43.6682" lon="3.82133">
        <ele>130.92707322344</ele>
        <time>2020-08-16T06:47:16.000Z</time>
      </trkpt>
      <trkpt lat="43.66818" lon="3.8213">
        <ele>131.02621388662</ele>
        <time>2020-08-16T06:47:17.000Z</time>
      </trkpt>
      <trkpt lat="43.66817" lon="3.82128">
        <ele>131.12330120494</ele>
        <time>2020-08-16T06:47:18.000Z</time>
      </trkpt>
      <trkpt lat="43.66815" lon="3.82125">
        <ele>131.22038852325</ele>
        <time>2020-08-16T06:47:19.000Z</time>
      </trkpt>
      <trkpt lat="43.66813" lon="3.82123">
        <ele>131.31747584157</ele>
        <time>2020-08-16T06:47:20.000Z</time>
      </trkpt>
      <trkpt lat="43.66812" lon="3.82121">
        <ele>131.41456315988</ele>
        <time>2020-08-16T06:47:21.000Z</time>
      </trkpt>
      <trkpt lat="43.6681" lon="3.82119">
        <ele>131.5116504782</ele>
        <time>2020-08-16T06:47:22.000Z</time>
      </trkpt>
      <trkpt lat="43.66808" lon="3.82117">
        <ele>131.60873779651</ele>
        <time>2020-08-16T06:47:23.000Z</time>
      </trkpt>
      <trkpt lat="43.66806" lon="3.82115">
        <ele>131.70582511483</ele>
        <time>2020-08-16T06:47:24.000Z</time>
      </trkpt>
      <trkpt lat="43.66805" lon="3.82113">
        <ele>131.80291243314</ele>
        <time>2020-08-16T06:47:25.000Z</time>
      </trkpt>
      <trkpt lat="43.66803" lon="3.82111">
        <ele>131.89999975146</ele>
        <time>2020-08-16T06:47:26.000Z</time>
      </trkpt>
      <trkpt lat="43.66802" lon="3.82109">
        <ele>131.99708706977</ele>
        <time>2020-08-16T06:47:27.000Z</time>
      </trkpt>
      <trkpt lat="43.668" lon="3.82107">
        <ele>132.19999947216</ele>
        <time>2020-08-16T06:47:28.000Z</time>
      </trkpt>
      <trkpt lat="43.66798" lon="3.82105">
        <ele>132.40618517522</ele>
        <time>2020-08-16T06:47:29.000Z</time>
      </trkpt>
      <trkpt lat="43.66797" lon="3.82103">
        <ele>132.61237087827</ele>
        <time>2020-08-16T06:47:30.000Z</time>
      </trkpt>
      <trkpt lat="43.66795" lon="3.82101">
        <ele>132.81855658132</ele>
        <time>2020-08-16T06:47:31.000Z</time>
      </trkpt>
      <trkpt lat="43.66794" lon="3.82099">
        <ele>133.02474228437</ele>
        <time>2020-08-16T06:47:32.000Z</time>
      </trkpt>
      <trkpt lat="43.66792" lon="3.82096">
        <ele>133.23092798742</ele>
        <time>2020-08-16T06:47:33.000Z</time>
      </trkpt>
      <trkpt lat="43.66791" lon="3.82094">
        <ele>133.43711369047</ele>
        <time>2020-08-16T06:47:34.000Z</time>
      </trkpt>
      <trkpt lat="43.6679" lon="3.82091">
        <ele>133.64329939352</ele>
        <time>2020-08-16T06:47:35.000Z</time>
      </trkpt>
      <trkpt lat="43.66789" lon="3.82088">
        <ele>133.84948509657</ele>
        <time>2020-08-16T06:47:36.000Z</time>
      </trkpt>
      <trkpt lat="43.66789" lon="3.82086">
        <ele>134</ele>
        <time>2020-08-16T06:47:37.000Z</time>
      </trkpt>
      <trkpt lat="43.66788" lon="3.82083">
        <ele>134</ele>
        <time>2020-08-16T06:47:38.000Z</time>
      </trkpt>
      <trkpt lat="43.66787" lon="3.82081">
        <ele>134</ele>
        <time>2020-08-16T06:47:39.000Z</time>
      </trkpt>
      <trkpt lat="43.66786" lon="3.82078">
        <ele>134</ele>
        <time>2020-08-16T06:47:40.000Z</time>
      </trkpt>
      <trkpt lat="43.66785" lon="3.82076">
        <ele>134</ele>
        <time>2020-08-16T06:47:41.000Z</time>
      </trkpt>
      <trkpt lat="43.66784" lon="3.82073">
        <ele>134</ele>
        <time>2020-08-16T06:47:42.000Z</time>
      </trkpt>
      <trkpt lat="43.66784" lon="3.8207">
        <ele>134</ele>
        <time>2020-08-16T06:47:43.000Z</time>
      </trkpt>
      <trkpt lat="43.66783" lon="3.82068">
        <ele>134</ele>
        <time>2020-08-16T06:47:44.000Z</time>
      </trkpt>
      <trkpt lat="43.66783" lon="3.82065">
        <ele>134</ele>
        <time>2020-08-16T06:47:45.000Z</time>
      </trkpt>
      <trkpt lat="43.66783" lon="3.82063">
        <ele>134</ele>
        <time>2020-08-16T06:47:46.000Z</time>
      </trkpt>
      <trkpt lat="43.66781" lon="3.82058">
        <ele>134.25425481345</ele>
        <time>2020-08-16T06:47:48.000Z</time>
      </trkpt>
      <trkpt lat="43.66781" lon="3.82054">
        <ele>134.6546550856</ele>
        <time>2020-08-16T06:47:50.000Z</time>
      </trkpt>
      <trkpt lat="43.6678" lon="3.82049">
        <ele>135.05505535774</ele>
        <time>2020-08-16T06:47:52.000Z</time>
      </trkpt>
      <trkpt lat="43.66779" lon="3.82044">
        <ele>135.45545562988</ele>
        <time>2020-08-16T06:47:54.000Z</time>
      </trkpt>
      <trkpt lat="43.66778" lon="3.82042">
        <ele>135.65565576596</ele>
        <time>2020-08-16T06:47:55.000Z</time>
      </trkpt>
      <trkpt lat="43.66778" lon="3.82039">
        <ele>135.85585590203</ele>
        <time>2020-08-16T06:47:56.000Z</time>
      </trkpt>
      <trkpt lat="43.66777" lon="3.82037">
        <ele>136.056</ele>
        <time>2020-08-16T06:47:57.000Z</time>
      </trkpt>
      <trkpt lat="43.66776" lon="3.82035">
        <ele>136.256</ele>
        <time>2020-08-16T06:47:58.000Z</time>
      </trkpt>
      <trkpt lat="43.66775" lon="3.8203">
        <ele>136.656</ele>
        <time>2020-08-16T06:48:00.000Z</time>
      </trkpt>
      <trkpt lat="43.66774" lon="3.82026">
        <ele>137.056</ele>
        <time>2020-08-16T06:48:02.000Z</time>
      </trkpt>
      <trkpt lat="43.66773" lon="3.82023">
        <ele>137.456</ele>
        <time>2020-08-16T06:48:04.000Z</time>
      </trkpt>
      <trkpt lat="43.66772" lon="3.82019">
        <ele>137.856</ele>
        <time>2020-08-16T06:48:06.000Z</time>
      </trkpt>
      <trkpt lat="43.66771" lon="3.82015">
        <ele>138.12439265287</ele>
        <time>2020-08-16T06:48:08.000Z</time>
      </trkpt>
      <trkpt lat="43.6677" lon="3.82011">
        <ele>138.31875617298</ele>
        <time>2020-08-16T06:48:10.000Z</time>
      </trkpt>
      <trkpt lat="43.66768" lon="3.82007">
        <ele>138.5131196931</ele>
        <time>2020-08-16T06:48:12.000Z</time>
      </trkpt>
      <trkpt lat="43.66767" lon="3.82003">
        <ele>138.70748321321</ele>
        <time>2020-08-16T06:48:14.000Z</time>
      </trkpt>
      <trkpt lat="43.66765" lon="3.81998">
        <ele>138.90184673332</ele>
        <time>2020-08-16T06:48:16.000Z</time>
      </trkpt>
      <trkpt lat="43.66764" lon="3.81996">
        <ele>138.99902849338</ele>
        <time>2020-08-16T06:48:17.000Z</time>
      </trkpt>
      <trkpt lat="43.6676" lon="3.81992">
        <ele>139.19880132782</ele>
        <time>2020-08-16T06:48:19.000Z</time>
      </trkpt>
      <trkpt lat="43.66758" lon="3.8199">
        <ele>139.29870133191</ele>
        <time>2020-08-16T06:48:20.000Z</time>
      </trkpt>
      <trkpt lat="43.66756" lon="3.81987">
        <ele>139.39860133601</ele>
        <time>2020-08-16T06:48:21.000Z</time>
      </trkpt>
      <trkpt lat="43.66754" lon="3.81985">
        <ele>139.4985013401</ele>
        <time>2020-08-16T06:48:22.000Z</time>
      </trkpt>
      <trkpt lat="43.66752" lon="3.81983">
        <ele>139.59840134419</ele>
        <time>2020-08-16T06:48:23.000Z</time>
      </trkpt>
      <trkpt lat="43.66749" lon="3.81981">
        <ele>139.69830134828</ele>
        <time>2020-08-16T06:48:24.000Z</time>
      </trkpt>
      <trkpt lat="43.66747" lon="3.81978">
        <ele>139.79820135237</ele>
        <time>2020-08-16T06:48:25.000Z</time>
      </trkpt>
      <trkpt lat="43.66744" lon="3.81976">
        <ele>139.89810135647</ele>
        <time>2020-08-16T06:48:26.000Z</time>
      </trkpt>
      <trkpt lat="43.66741" lon="3.81973">
        <ele>139.99800136056</ele>
        <time>2020-08-16T06:48:27.000Z</time>
      </trkpt>
      <trkpt lat="43.66738" lon="3.8197">
        <ele>140</ele>
        <time>2020-08-16T06:48:28.000Z</time>
      </trkpt>
      <trkpt lat="43.66735" lon="3.81968">
        <ele>140</ele>
        <time>2020-08-16T06:48:29.000Z</time>
      </trkpt>
      <trkpt lat="43.66732" lon="3.81966">
        <ele>140</ele>
        <time>2020-08-16T06:48:30.000Z</time>
      </trkpt>
      <trkpt lat="43.66728" lon="3.81964">
        <ele>140</ele>
        <time>2020-08-16T06:48:31.000Z</time>
      </trkpt>
      <trkpt lat="43.66724" lon="3.81963">
        <ele>140</ele>
        <time>2020-08-16T06:48:32.000Z</time>
      </trkpt>
      <trkpt lat="43.6672" lon="3.81961">
        <ele>140</ele>
        <time>2020-08-16T06:48:33.000Z</time>
      </trkpt>
      <trkpt lat="43.66716" lon="3.8196">
        <ele>140</ele>
        <time>2020-08-16T06:48:34.000Z</time>
      </trkpt>
      <trkpt lat="43.66712" lon="3.81959">
        <ele>140</ele>
        <time>2020-08-16T06:48:35.000Z</time>
      </trkpt>
      <trkpt lat="43.66709" lon="3.81958">
        <ele>140</ele>
        <time>2020-08-16T06:48:36.000Z</time>
      </trkpt>
      <trkpt lat="43.66706" lon="3.81957">
        <ele>140</ele>
        <time>2020-08-16T06:48:37.000Z</time>
      </trkpt>
      <trkpt lat="43.66703" lon="3.81956">
        <ele>140</ele>
        <time>2020-08-16T06:48:38.000Z</time>
      </trkpt>
      <trkpt lat="43.667" lon="3.81955">
        <ele>140</ele>
        <time>2020-08-16T06:48:39.000Z</time>
      </trkpt>
      <trkpt lat="43.66697" lon="3.81954">
        <ele>140</ele>
        <time>2020-08-16T06:48:40.000Z</time>
      </trkpt>
      <trkpt lat="43.66694" lon="3.81953">
        <ele>140</ele>
        <time>2020-08-16T06:48:41.000Z</time>
      </trkpt>
      <trkpt lat="43.6669" lon="3.81951">
        <ele>140</ele>
        <time>2020-08-16T06:48:42.000Z</time>
      </trkpt>
      <trkpt lat="43.66687" lon="3.8195">
        <ele>140</ele>
        <time>2020-08-16T06:48:43.000Z</time>
      </trkpt>
      <trkpt lat="43.66685" lon="3.81948">
        <ele>140</ele>
        <time>2020-08-16T06:48:44.000Z</time>
      </trkpt>
      <trkpt lat="43.66682" lon="3.81945">
        <ele>140</ele>
        <time>2020-08-16T06:48:45.000Z</time>
      </trkpt>
      <trkpt lat="43.66679" lon="3.81943">
        <ele>140</ele>
        <time>2020-08-16T06:48:46.000Z</time>
      </trkpt>
      <trkpt lat="43.66677" lon="3.81941">
        <ele>140.02702733869</ele>
        <time>2020-08-16T06:48:47.000Z</time>
      </trkpt>
      <trkpt lat="43.66674" lon="3.81938">
        <ele>140.12712740673</ele>
        <time>2020-08-16T06:48:48.000Z</time>
      </trkpt>
      <trkpt lat="43.66672" lon="3.81936">
        <ele>140.22722747476</ele>
        <time>2020-08-16T06:48:49.000Z</time>
      </trkpt>
      <trkpt lat="43.66669" lon="3.81934">
        <ele>140.3273275428</ele>
        <time>2020-08-16T06:48:50.000Z</time>
      </trkpt>
      <trkpt lat="43.66667" lon="3.81931">
        <ele>140.42742761083</ele>
        <time>2020-08-16T06:48:51.000Z</time>
      </trkpt>
      <trkpt lat="43.66664" lon="3.81929">
        <ele>140.52752767887</ele>
        <time>2020-08-16T06:48:52.000Z</time>
      </trkpt>
      <trkpt lat="43.66662" lon="3.81927">
        <ele>140.62762774691</ele>
        <time>2020-08-16T06:48:53.000Z</time>
      </trkpt>
      <trkpt lat="43.6666" lon="3.81925">
        <ele>140.72772781494</ele>
        <time>2020-08-16T06:48:54.000Z</time>
      </trkpt>
      <trkpt lat="43.66657" lon="3.81923">
        <ele>140.82782788298</ele>
        <time>2020-08-16T06:48:55.000Z</time>
      </trkpt>
      <trkpt lat="43.66655" lon="3.8192">
        <ele>140.92792795101</ele>
        <time>2020-08-16T06:48:56.000Z</time>
      </trkpt>
      <trkpt lat="43.66652" lon="3.81918">
        <ele>141.02721089282</ele>
        <time>2020-08-16T06:48:57.000Z</time>
      </trkpt>
      <trkpt lat="43.6665" lon="3.81916">
        <ele>141.12439265287</ele>
        <time>2020-08-16T06:48:58.000Z</time>
      </trkpt>
      <trkpt lat="43.66648" lon="3.81914">
        <ele>141.22157441293</ele>
        <time>2020-08-16T06:48:59.000Z</time>
      </trkpt>
      <trkpt lat="43.66646" lon="3.81912">
        <ele>141.31875617298</ele>
        <time>2020-08-16T06:49:00.000Z</time>
      </trkpt>
      <trkpt lat="43.66643" lon="3.8191">
        <ele>141.41593793304</ele>
        <time>2020-08-16T06:49:01.000Z</time>
      </trkpt>
      <trkpt lat="43.66641" lon="3.81908">
        <ele>141.5131196931</ele>
        <time>2020-08-16T06:49:02.000Z</time>
      </trkpt>
      <trkpt lat="43.66639" lon="3.81906">
        <ele>141.61030145315</ele>
        <time>2020-08-16T06:49:03.000Z</time>
      </trkpt>
      <trkpt lat="43.66636" lon="3.81905">
        <ele>141.70748321321</ele>
        <time>2020-08-16T06:49:04.000Z</time>
      </trkpt>
      <trkpt lat="43.66634" lon="3.81904">
        <ele>141.80466497327</ele>
        <time>2020-08-16T06:49:05.000Z</time>
      </trkpt>
      <trkpt lat="43.66631" lon="3.81903">
        <ele>141.90184673332</ele>
        <time>2020-08-16T06:49:06.000Z</time>
      </trkpt>
      <trkpt lat="43.66628" lon="3.81902">
        <ele>141.99902849338</ele>
        <time>2020-08-16T06:49:07.000Z</time>
      </trkpt>
      <trkpt lat="43.66625" lon="3.819">
        <ele>142.10185218107</ele>
        <time>2020-08-16T06:49:08.000Z</time>
      </trkpt>
      <trkpt lat="43.66622" lon="3.81899">
        <ele>142.20473283951</ele>
        <time>2020-08-16T06:49:09.000Z</time>
      </trkpt>
      <trkpt lat="43.66619" lon="3.81897">
        <ele>142.30761349794</ele>
        <time>2020-08-16T06:49:10.000Z</time>
      </trkpt>
      <trkpt lat="43.66617" lon="3.81895">
        <ele>142.41049415638</ele>
        <time>2020-08-16T06:49:11.000Z</time>
      </trkpt>
      <trkpt lat="43.66614" lon="3.81893">
        <ele>142.51337481481</ele>
        <time>2020-08-16T06:49:12.000Z</time>
      </trkpt>
      <trkpt lat="43.66612" lon="3.81891">
        <ele>142.61625547325</ele>
        <time>2020-08-16T06:49:13.000Z</time>
      </trkpt>
      <trkpt lat="43.6661" lon="3.81888">
        <ele>142.71913613169</ele>
        <time>2020-08-16T06:49:14.000Z</time>
      </trkpt>
      <trkpt lat="43.66608" lon="3.81886">
        <ele>142.82201679012</ele>
        <time>2020-08-16T06:49:15.000Z</time>
      </trkpt>
      <trkpt lat="43.66606" lon="3.81884">
        <ele>142.92489744856</ele>
        <time>2020-08-16T06:49:16.000Z</time>
      </trkpt>
      <trkpt lat="43.66603" lon="3.81881">
        <ele>143.05405467738</ele>
        <time>2020-08-16T06:49:17.000Z</time>
      </trkpt>
      <trkpt lat="43.66601" lon="3.81879">
        <ele>143.25425481345</ele>
        <time>2020-08-16T06:49:18.000Z</time>
      </trkpt>
      <trkpt lat="43.66599" lon="3.81877">
        <ele>143.45445494952</ele>
        <time>2020-08-16T06:49:19.000Z</time>
      </trkpt>
      <trkpt lat="43.66597" lon="3.81876">
        <ele>143.6546550856</ele>
        <time>2020-08-16T06:49:20.000Z</time>
      </trkpt>
      <trkpt lat="43.66595" lon="3.81874">
        <ele>143.85485522167</ele>
        <time>2020-08-16T06:49:21.000Z</time>
      </trkpt>
      <trkpt lat="43.66592" lon="3.81872">
        <ele>144.05505535774</ele>
        <time>2020-08-16T06:49:22.000Z</time>
      </trkpt>
      <trkpt lat="43.6659" lon="3.8187">
        <ele>144.25525549381</ele>
        <time>2020-08-16T06:49:23.000Z</time>
      </trkpt>
      <trkpt lat="43.66588" lon="3.81868">
        <ele>144.45545562988</ele>
        <time>2020-08-16T06:49:24.000Z</time>
      </trkpt>
      <trkpt lat="43.66586" lon="3.81866">
        <ele>144.65565576596</ele>
        <time>2020-08-16T06:49:25.000Z</time>
      </trkpt>
      <trkpt lat="43.66583" lon="3.81864">
        <ele>144.85585590203</ele>
        <time>2020-08-16T06:49:26.000Z</time>
      </trkpt>
      <trkpt lat="43.66581" lon="3.81862">
        <ele>145.028</ele>
        <time>2020-08-16T06:49:27.000Z</time>
      </trkpt>
      <trkpt lat="43.66579" lon="3.81861">
        <ele>145.128</ele>
        <time>2020-08-16T06:49:28.000Z</time>
      </trkpt>
      <trkpt lat="43.66576" lon="3.81859">
        <ele>145.228</ele>
        <time>2020-08-16T06:49:29.000Z</time>
      </trkpt>
      <trkpt lat="43.66574" lon="3.81857">
        <ele>145.328</ele>
        <time>2020-08-16T06:49:30.000Z</time>
      </trkpt>
      <trkpt lat="43.66571" lon="3.81856">
        <ele>145.428</ele>
        <time>2020-08-16T06:49:31.000Z</time>
      </trkpt>
      <trkpt lat="43.66569" lon="3.81854">
        <ele>145.528</ele>
        <time>2020-08-16T06:49:32.000Z</time>
      </trkpt>
      <trkpt lat="43.66566" lon="3.81853">
        <ele>145.628</ele>
        <time>2020-08-16T06:49:33.000Z</time>
      </trkpt>
      <trkpt lat="43.66564" lon="3.81852">
        <ele>145.728</ele>
        <time>2020-08-16T06:49:34.000Z</time>
      </trkpt>
      <trkpt lat="43.66561" lon="3.8185">
        <ele>145.828</ele>
        <time>2020-08-16T06:49:35.000Z</time>
      </trkpt>
      <trkpt lat="43.66558" lon="3.81848">
        <ele>145.928</ele>
        <time>2020-08-16T06:49:36.000Z</time>
      </trkpt>
      <trkpt lat="43.66555" lon="3.81847">
        <ele>146</ele>
        <time>2020-08-16T06:49:37.000Z</time>
      </trkpt>
      <trkpt lat="43.66552" lon="3.81845">
        <ele>146</ele>
        <time>2020-08-16T06:49:38.000Z</time>
      </trkpt>
      <trkpt lat="43.6655" lon="3.81843">
        <ele>146</ele>
        <time>2020-08-16T06:49:39.000Z</time>
      </trkpt>
      <trkpt lat="43.66547" lon="3.8184">
        <ele>146</ele>
        <time>2020-08-16T06:49:40.000Z</time>
      </trkpt>
      <trkpt lat="43.66545" lon="3.81837">
        <ele>146</ele>
        <time>2020-08-16T06:49:41.000Z</time>
      </trkpt>
      <trkpt lat="43.66542" lon="3.81833">
        <ele>146</ele>
        <time>2020-08-16T06:49:42.000Z</time>
      </trkpt>
      <trkpt lat="43.6654" lon="3.8183">
        <ele>146</ele>
        <time>2020-08-16T06:49:43.000Z</time>
      </trkpt>
      <trkpt lat="43.66538" lon="3.81827">
        <ele>146</ele>
        <time>2020-08-16T06:49:44.000Z</time>
      </trkpt>
      <trkpt lat="43.66535" lon="3.81824">
        <ele>146</ele>
        <time>2020-08-16T06:49:45.000Z</time>
      </trkpt>
      <trkpt lat="43.66533" lon="3.81821">
        <ele>146</ele>
        <time>2020-08-16T06:49:46.000Z</time>
      </trkpt>
      <trkpt lat="43.6653" lon="3.81818">
        <ele>146.02721089282</ele>
        <time>2020-08-16T06:49:47.000Z</time>
      </trkpt>
      <trkpt lat="43.66528" lon="3.81815">
        <ele>146.12439265287</ele>
        <time>2020-08-16T06:49:48.000Z</time>
      </trkpt>
      <trkpt lat="43.66525" lon="3.81812">
        <ele>146.22157441293</ele>
        <time>2020-08-16T06:49:49.000Z</time>
      </trkpt>
      <trkpt lat="43.66522" lon="3.81809">
        <ele>146.31875617298</ele>
        <time>2020-08-16T06:49:50.000Z</time>
      </trkpt>
      <trkpt lat="43.66519" lon="3.81807">
        <ele>146.41593793304</ele>
        <time>2020-08-16T06:49:51.000Z</time>
      </trkpt>
      <trkpt lat="43.66516" lon="3.81805">
        <ele>146.5131196931</ele>
        <time>2020-08-16T06:49:52.000Z</time>
      </trkpt>
      <trkpt lat="43.66513" lon="3.81804">
        <ele>146.61030145315</ele>
        <time>2020-08-16T06:49:53.000Z</time>
      </trkpt>
      <trkpt lat="43.6651" lon="3.81802">
        <ele>146.70748321321</ele>
        <time>2020-08-16T06:49:54.000Z</time>
      </trkpt>
      <trkpt lat="43.66507" lon="3.818">
        <ele>146.80466497327</ele>
        <time>2020-08-16T06:49:55.000Z</time>
      </trkpt>
      <trkpt lat="43.66504" lon="3.81799">
        <ele>146.90184673332</ele>
        <time>2020-08-16T06:49:56.000Z</time>
      </trkpt>
      <trkpt lat="43.66501" lon="3.81798">
        <ele>146.99902849338</ele>
        <time>2020-08-16T06:49:57.000Z</time>
      </trkpt>
      <trkpt lat="43.66498" lon="3.81796">
        <ele>147</ele>
        <time>2020-08-16T06:49:58.000Z</time>
      </trkpt>
      <trkpt lat="43.66495" lon="3.81794">
        <ele>147</ele>
        <time>2020-08-16T06:49:59.000Z</time>
      </trkpt>
      <trkpt lat="43.66493" lon="3.81791">
        <ele>147</ele>
        <time>2020-08-16T06:50:00.000Z</time>
      </trkpt>
      <trkpt lat="43.6649" lon="3.81789">
        <ele>147</ele>
        <time>2020-08-16T06:50:01.000Z</time>
      </trkpt>
      <trkpt lat="43.66488" lon="3.81786">
        <ele>147</ele>
        <time>2020-08-16T06:50:02.000Z</time>
      </trkpt>
      <trkpt lat="43.66486" lon="3.81783">
        <ele>147</ele>
        <time>2020-08-16T06:50:03.000Z</time>
      </trkpt>
      <trkpt lat="43.66484" lon="3.8178">
        <ele>147</ele>
        <time>2020-08-16T06:50:04.000Z</time>
      </trkpt>
      <trkpt lat="43.66482" lon="3.81777">
        <ele>147</ele>
        <time>2020-08-16T06:50:05.000Z</time>
      </trkpt>
      <trkpt lat="43.6648" lon="3.81773">
        <ele>147</ele>
        <time>2020-08-16T06:50:06.000Z</time>
      </trkpt>
      <trkpt lat="43.66478" lon="3.8177">
        <ele>147</ele>
        <time>2020-08-16T06:50:07.000Z</time>
      </trkpt>
      <trkpt lat="43.66477" lon="3.81766">
        <ele>147</ele>
        <time>2020-08-16T06:50:08.000Z</time>
      </trkpt>
      <trkpt lat="43.66476" lon="3.81762">
        <ele>147</ele>
        <time>2020-08-16T06:50:09.000Z</time>
      </trkpt>
      <trkpt lat="43.66474" lon="3.81758">
        <ele>147</ele>
        <time>2020-08-16T06:50:10.000Z</time>
      </trkpt>
      <trkpt lat="43.66473" lon="3.81753">
        <ele>147</ele>
        <time>2020-08-16T06:50:11.000Z</time>
      </trkpt>
      <trkpt lat="43.66473" lon="3.81749">
        <ele>147</ele>
        <time>2020-08-16T06:50:12.000Z</time>
      </trkpt>
      <trkpt lat="43.66472" lon="3.81744">
        <ele>147</ele>
        <time>2020-08-16T06:50:13.000Z</time>
      </trkpt>
      <trkpt lat="43.66471" lon="3.8174">
        <ele>147</ele>
        <time>2020-08-16T06:50:14.000Z</time>
      </trkpt>
      <trkpt lat="43.6647" lon="3.81736">
        <ele>147</ele>
        <time>2020-08-16T06:50:15.000Z</time>
      </trkpt>
      <trkpt lat="43.66469" lon="3.81732">
        <ele>147</ele>
        <time>2020-08-16T06:50:16.000Z</time>
      </trkpt>
      <trkpt lat="43.66468" lon="3.81729">
        <ele>147.02702733869</ele>
        <time>2020-08-16T06:50:17.000Z</time>
      </trkpt>
      <trkpt lat="43.66466" lon="3.81725">
        <ele>147.12712740673</ele>
        <time>2020-08-16T06:50:18.000Z</time>
      </trkpt>
      <trkpt lat="43.66465" lon="3.81722">
        <ele>147.22722747476</ele>
        <time>2020-08-16T06:50:19.000Z</time>
      </trkpt>
      <trkpt lat="43.66464" lon="3.81718">
        <ele>147.3273275428</ele>
        <time>2020-08-16T06:50:20.000Z</time>
      </trkpt>
      <trkpt lat="43.66463" lon="3.81714">
        <ele>147.42742761083</ele>
        <time>2020-08-16T06:50:21.000Z</time>
      </trkpt>
      <trkpt lat="43.66462" lon="3.8171">
        <ele>147.52752767887</ele>
        <time>2020-08-16T06:50:22.000Z</time>
      </trkpt>
      <trkpt lat="43.66461" lon="3.81706">
        <ele>147.62762774691</ele>
        <time>2020-08-16T06:50:23.000Z</time>
      </trkpt>
      <trkpt lat="43.6646" lon="3.81702">
        <ele>147.72772781494</ele>
        <time>2020-08-16T06:50:24.000Z</time>
      </trkpt>
      <trkpt lat="43.6646" lon="3.81697">
        <ele>147.82782788298</ele>
        <time>2020-08-16T06:50:25.000Z</time>
      </trkpt>
      <trkpt lat="43.66459" lon="3.81693">
        <ele>147.92792795101</ele>
        <time>2020-08-16T06:50:26.000Z</time>
      </trkpt>
      <trkpt lat="43.66459" lon="3.81688">
        <ele>148</ele>
        <time>2020-08-16T06:50:27.000Z</time>
      </trkpt>
      <trkpt lat="43.66459" lon="3.81683">
        <ele>148</ele>
        <time>2020-08-16T06:50:28.000Z</time>
      </trkpt>
      <trkpt lat="43.66459" lon="3.81679">
        <ele>148</ele>
        <time>2020-08-16T06:50:29.000Z</time>
      </trkpt>
      <trkpt lat="43.66459" lon="3.81674">
        <ele>148</ele>
        <time>2020-08-16T06:50:30.000Z</time>
      </trkpt>
      <trkpt lat="43.66459" lon="3.81669">
        <ele>148</ele>
        <time>2020-08-16T06:50:31.000Z</time>
      </trkpt>
      <trkpt lat="43.66459" lon="3.81665">
        <ele>148</ele>
        <time>2020-08-16T06:50:32.000Z</time>
      </trkpt>
      <trkpt lat="43.66459" lon="3.8166">
        <ele>148</ele>
        <time>2020-08-16T06:50:33.000Z</time>
      </trkpt>
      <trkpt lat="43.66458" lon="3.81655">
        <ele>148</ele>
        <time>2020-08-16T06:50:34.000Z</time>
      </trkpt>
      <trkpt lat="43.66457" lon="3.81651">
        <ele>148</ele>
        <time>2020-08-16T06:50:35.000Z</time>
      </trkpt>
      <trkpt lat="43.66455" lon="3.81646">
        <ele>148</ele>
        <time>2020-08-16T06:50:36.000Z</time>
      </trkpt>
      <trkpt lat="43.66454" lon="3.81642">
        <ele>148.02797203691</ele>
        <time>2020-08-16T06:50:37.000Z</time>
      </trkpt>
      <trkpt lat="43.66452" lon="3.81638">
        <ele>148.12787216875</ele>
        <time>2020-08-16T06:50:38.000Z</time>
      </trkpt>
      <trkpt lat="43.66451" lon="3.81634">
        <ele>148.22777230059</ele>
        <time>2020-08-16T06:50:39.000Z</time>
      </trkpt>
      <trkpt lat="43.66449" lon="3.8163">
        <ele>148.32767243242</ele>
        <time>2020-08-16T06:50:40.000Z</time>
      </trkpt>
      <trkpt lat="43.66448" lon="3.81627">
        <ele>148.42757256426</ele>
        <time>2020-08-16T06:50:41.000Z</time>
      </trkpt>
      <trkpt lat="43.66447" lon="3.81623">
        <ele>148.5274726961</ele>
        <time>2020-08-16T06:50:42.000Z</time>
      </trkpt>
      <trkpt lat="43.66445" lon="3.81619">
        <ele>148.62737282793</ele>
        <time>2020-08-16T06:50:43.000Z</time>
      </trkpt>
      <trkpt lat="43.66444" lon="3.81615">
        <ele>148.72727295977</ele>
        <time>2020-08-16T06:50:44.000Z</time>
      </trkpt>
      <trkpt lat="43.66443" lon="3.81611">
        <ele>148.8271730916</ele>
        <time>2020-08-16T06:50:45.000Z</time>
      </trkpt>
      <trkpt lat="43.66441" lon="3.81607">
        <ele>148.92707322344</ele>
        <time>2020-08-16T06:50:46.000Z</time>
      </trkpt>
      <trkpt lat="43.6644" lon="3.81604">
        <ele>149.02702733869</ele>
        <time>2020-08-16T06:50:47.000Z</time>
      </trkpt>
      <trkpt lat="43.66438" lon="3.81601">
        <ele>149.12712740673</ele>
        <time>2020-08-16T06:50:48.000Z</time>
      </trkpt>
      <trkpt lat="43.66436" lon="3.81599">
        <ele>149.22722747476</ele>
        <time>2020-08-16T06:50:49.000Z</time>
      </trkpt>
      <trkpt lat="43.66434" lon="3.81597">
        <ele>149.3273275428</ele>
        <time>2020-08-16T06:50:50.000Z</time>
      </trkpt>
      <trkpt lat="43.66432" lon="3.81596">
        <ele>149.42742761083</ele>
        <time>2020-08-16T06:50:51.000Z</time>
      </trkpt>
      <trkpt lat="43.66429" lon="3.81595">
        <ele>149.52752767887</ele>
        <time>2020-08-16T06:50:52.000Z</time>
      </trkpt>
      <trkpt lat="43.66427" lon="3.81595">
        <ele>149.62762774691</ele>
        <time>2020-08-16T06:50:53.000Z</time>
      </trkpt>
      <trkpt lat="43.66424" lon="3.81595">
        <ele>149.72772781494</ele>
        <time>2020-08-16T06:50:54.000Z</time>
      </trkpt>
      <trkpt lat="43.66421" lon="3.81595">
        <ele>149.82782788298</ele>
        <time>2020-08-16T06:50:55.000Z</time>
      </trkpt>
      <trkpt lat="43.66419" lon="3.81596">
        <ele>149.92792795101</ele>
        <time>2020-08-16T06:50:56.000Z</time>
      </trkpt>
      <trkpt lat="43.66416" lon="3.81596">
        <ele>150.028</ele>
        <time>2020-08-16T06:50:57.000Z</time>
      </trkpt>
      <trkpt lat="43.66413" lon="3.81597">
        <ele>150.128</ele>
        <time>2020-08-16T06:50:58.000Z</time>
      </trkpt>
      <trkpt lat="43.6641" lon="3.81597">
        <ele>150.228</ele>
        <time>2020-08-16T06:50:59.000Z</time>
      </trkpt>
      <trkpt lat="43.66408" lon="3.81598">
        <ele>150.328</ele>
        <time>2020-08-16T06:51:00.000Z</time>
      </trkpt>
      <trkpt lat="43.66405" lon="3.81598">
        <ele>150.428</ele>
        <time>2020-08-16T06:51:01.000Z</time>
      </trkpt>
      <trkpt lat="43.66403" lon="3.81599">
        <ele>150.528</ele>
        <time>2020-08-16T06:51:02.000Z</time>
      </trkpt>
      <trkpt lat="43.664" lon="3.816">
        <ele>150.628</ele>
        <time>2020-08-16T06:51:03.000Z</time>
      </trkpt>
      <trkpt lat="43.66397" lon="3.816">
        <ele>150.728</ele>
        <time>2020-08-16T06:51:04.000Z</time>
      </trkpt>
      <trkpt lat="43.66395" lon="3.81601">
        <ele>150.828</ele>
        <time>2020-08-16T06:51:05.000Z</time>
      </trkpt>
      <trkpt lat="43.66392" lon="3.81601">
        <ele>150.928</ele>
        <time>2020-08-16T06:51:06.000Z</time>
      </trkpt>
      <trkpt lat="43.6639" lon="3.81602">
        <ele>151.028</ele>
        <time>2020-08-16T06:51:07.000Z</time>
      </trkpt>
      <trkpt lat="43.66387" lon="3.81602">
        <ele>151.128</ele>
        <time>2020-08-16T06:51:08.000Z</time>
      </trkpt>
      <trkpt lat="43.66384" lon="3.81601">
        <ele>151.228</ele>
        <time>2020-08-16T06:51:09.000Z</time>
      </trkpt>
      <trkpt lat="43.66382" lon="3.816">
        <ele>151.328</ele>
        <time>2020-08-16T06:51:10.000Z</time>
      </trkpt>
      <trkpt lat="43.6638" lon="3.81599">
        <ele>151.428</ele>
        <time>2020-08-16T06:51:11.000Z</time>
      </trkpt>
      <trkpt lat="43.66378" lon="3.81598">
        <ele>151.528</ele>
        <time>2020-08-16T06:51:12.000Z</time>
      </trkpt>
      <trkpt lat="43.66375" lon="3.81598">
        <ele>151.628</ele>
        <time>2020-08-16T06:51:13.000Z</time>
      </trkpt>
      <trkpt lat="43.66373" lon="3.81597">
        <ele>151.728</ele>
        <time>2020-08-16T06:51:14.000Z</time>
      </trkpt>
      <trkpt lat="43.66371" lon="3.81596">
        <ele>151.828</ele>
        <time>2020-08-16T06:51:15.000Z</time>
      </trkpt>
      <trkpt lat="43.66368" lon="3.81596">
        <ele>151.928</ele>
        <time>2020-08-16T06:51:16.000Z</time>
      </trkpt>
      <trkpt lat="43.66366" lon="3.81595">
        <ele>152.05442178563</ele>
        <time>2020-08-16T06:51:17.000Z</time>
      </trkpt>
      <trkpt lat="43.66363" lon="3.81595">
        <ele>152.24878530575</ele>
        <time>2020-08-16T06:51:18.000Z</time>
      </trkpt>
      <trkpt lat="43.66361" lon="3.81594">
        <ele>152.44314882586</ele>
        <time>2020-08-16T06:51:19.000Z</time>
      </trkpt>
      <trkpt lat="43.66359" lon="3.81594">
        <ele>152.63751234597</ele>
        <time>2020-08-16T06:51:20.000Z</time>
      </trkpt>
      <trkpt lat="43.66356" lon="3.81594">
        <ele>152.83187586608</ele>
        <time>2020-08-16T06:51:21.000Z</time>
      </trkpt>
      <trkpt lat="43.66354" lon="3.81594">
        <ele>153.0262393862</ele>
        <time>2020-08-16T06:51:22.000Z</time>
      </trkpt>
      <trkpt lat="43.66351" lon="3.81594">
        <ele>153.22060290631</ele>
        <time>2020-08-16T06:51:23.000Z</time>
      </trkpt>
      <trkpt lat="43.66349" lon="3.81594">
        <ele>153.41496642642</ele>
        <time>2020-08-16T06:51:24.000Z</time>
      </trkpt>
      <trkpt lat="43.66346" lon="3.81594">
        <ele>153.60932994654</ele>
        <time>2020-08-16T06:51:25.000Z</time>
      </trkpt>
      <trkpt lat="43.66344" lon="3.81594">
        <ele>153.80369346665</ele>
        <time>2020-08-16T06:51:26.000Z</time>
      </trkpt>
      <trkpt lat="43.66342" lon="3.81594">
        <ele>153.99805698676</ele>
        <time>2020-08-16T06:51:27.000Z</time>
      </trkpt>
      <trkpt lat="43.6634" lon="3.81594">
        <ele>154</ele>
        <time>2020-08-16T06:51:28.000Z</time>
      </trkpt>
      <trkpt lat="43.66338" lon="3.81594">
        <ele>154</ele>
        <time>2020-08-16T06:51:29.000Z</time>
      </trkpt>
      <trkpt lat="43.66335" lon="3.81593">
        <ele>154</ele>
        <time>2020-08-16T06:51:30.000Z</time>
      </trkpt>
      <trkpt lat="43.66332" lon="3.81593">
        <ele>154</ele>
        <time>2020-08-16T06:51:31.000Z</time>
      </trkpt>
      <trkpt lat="43.66329" lon="3.81591">
        <ele>154</ele>
        <time>2020-08-16T06:51:32.000Z</time>
      </trkpt>
      <trkpt lat="43.66326" lon="3.81587">
        <ele>154</ele>
        <time>2020-08-16T06:51:33.000Z</time>
      </trkpt>
      <trkpt lat="43.66324" lon="3.81583">
        <ele>154</ele>
        <time>2020-08-16T06:51:34.000Z</time>
      </trkpt>
      <trkpt lat="43.66323" lon="3.81578">
        <ele>154</ele>
        <time>2020-08-16T06:51:35.000Z</time>
      </trkpt>
      <trkpt lat="43.66323" lon="3.81574">
        <ele>154</ele>
        <time>2020-08-16T06:51:36.000Z</time>
      </trkpt>
      <trkpt lat="43.66324" lon="3.81572">
        <ele>154.05431618101</ele>
        <time>2020-08-16T06:51:37.000Z</time>
      </trkpt>
      <trkpt lat="43.66325" lon="3.81569">
        <ele>154.24830254175</ele>
        <time>2020-08-16T06:51:38.000Z</time>
      </trkpt>
      <trkpt lat="43.66326" lon="3.81567">
        <ele>154.44228890249</ele>
        <time>2020-08-16T06:51:39.000Z</time>
      </trkpt>
      <trkpt lat="43.66327" lon="3.81565">
        <ele>154.63627526323</ele>
        <time>2020-08-16T06:51:40.000Z</time>
      </trkpt>
      <trkpt lat="43.66329" lon="3.81562">
        <ele>154.83026162397</ele>
        <time>2020-08-16T06:51:41.000Z</time>
      </trkpt>
      <trkpt lat="43.66331" lon="3.8156">
        <ele>155.02424798471</ele>
        <time>2020-08-16T06:51:42.000Z</time>
      </trkpt>
      <trkpt lat="43.66333" lon="3.81558">
        <ele>155.21823434546</ele>
        <time>2020-08-16T06:51:43.000Z</time>
      </trkpt>
      <trkpt lat="43.66335" lon="3.81555">
        <ele>155.4122207062</ele>
        <time>2020-08-16T06:51:44.000Z</time>
      </trkpt>
      <trkpt lat="43.66337" lon="3.81553">
        <ele>155.60620706694</ele>
        <time>2020-08-16T06:51:45.000Z</time>
      </trkpt>
      <trkpt lat="43.66339" lon="3.81551">
        <ele>155.80019342768</ele>
        <time>2020-08-16T06:51:46.000Z</time>
      </trkpt>
      <trkpt lat="43.66341" lon="3.81549">
        <ele>155.99417978842</ele>
        <time>2020-08-16T06:51:47.000Z</time>
      </trkpt>
      <trkpt lat="43.66344" lon="3.81546">
        <ele>155.899897098</ele>
        <time>2020-08-16T06:51:48.000Z</time>
      </trkpt>
      <trkpt lat="43.66347" lon="3.81545">
        <ele>155.79669788952</ele>
        <time>2020-08-16T06:51:49.000Z</time>
      </trkpt>
      <trkpt lat="43.6635" lon="3.81543">
        <ele>155.69349868103</ele>
        <time>2020-08-16T06:51:50.000Z</time>
      </trkpt>
      <trkpt lat="43.66352" lon="3.81541">
        <ele>155.59029947255</ele>
        <time>2020-08-16T06:51:51.000Z</time>
      </trkpt>
      <trkpt lat="43.66354" lon="3.81539">
        <ele>155.48710026406</ele>
        <time>2020-08-16T06:51:52.000Z</time>
      </trkpt>
      <trkpt lat="43.66356" lon="3.81536">
        <ele>155.38390105557</ele>
        <time>2020-08-16T06:51:53.000Z</time>
      </trkpt>
      <trkpt lat="43.66356" lon="3.81533">
        <ele>155.28070184708</ele>
        <time>2020-08-16T06:51:54.000Z</time>
      </trkpt>
      <trkpt lat="43.66356" lon="3.81529">
        <ele>155.1775026386</ele>
        <time>2020-08-16T06:51:55.000Z</time>
      </trkpt>
      <trkpt lat="43.66355" lon="3.81524">
        <ele>155.07430343011</ele>
        <time>2020-08-16T06:51:56.000Z</time>
      </trkpt>
      <trkpt lat="43.66354" lon="3.8152">
        <ele>155.028</ele>
        <time>2020-08-16T06:51:57.000Z</time>
      </trkpt>
      <trkpt lat="43.66353" lon="3.81515">
        <ele>155.128</ele>
        <time>2020-08-16T06:51:58.000Z</time>
      </trkpt>
      <trkpt lat="43.66353" lon="3.81511">
        <ele>155.228</ele>
        <time>2020-08-16T06:51:59.000Z</time>
      </trkpt>
      <trkpt lat="43.66352" lon="3.81506">
        <ele>155.328</ele>
        <time>2020-08-16T06:52:00.000Z</time>
      </trkpt>
      <trkpt lat="43.66352" lon="3.81501">
        <ele>155.428</ele>
        <time>2020-08-16T06:52:01.000Z</time>
      </trkpt>
      <trkpt lat="43.66351" lon="3.81497">
        <ele>155.528</ele>
        <time>2020-08-16T06:52:02.000Z</time>
      </trkpt>
      <trkpt lat="43.66351" lon="3.81492">
        <ele>155.628</ele>
        <time>2020-08-16T06:52:03.000Z</time>
      </trkpt>
      <trkpt lat="43.6635" lon="3.81488">
        <ele>155.728</ele>
        <time>2020-08-16T06:52:04.000Z</time>
      </trkpt>
      <trkpt lat="43.6635" lon="3.81484">
        <ele>155.828</ele>
        <time>2020-08-16T06:52:05.000Z</time>
      </trkpt>
      <trkpt lat="43.66349" lon="3.8148">
        <ele>155.928</ele>
        <time>2020-08-16T06:52:06.000Z</time>
      </trkpt>
      <trkpt lat="43.66348" lon="3.81476">
        <ele>156</ele>
        <time>2020-08-16T06:52:07.000Z</time>
      </trkpt>
      <trkpt lat="43.66347" lon="3.81472">
        <ele>156</ele>
        <time>2020-08-16T06:52:08.000Z</time>
      </trkpt>
      <trkpt lat="43.66346" lon="3.81468">
        <ele>156</ele>
        <time>2020-08-16T06:52:09.000Z</time>
      </trkpt>
      <trkpt lat="43.66345" lon="3.81464">
        <ele>156</ele>
        <time>2020-08-16T06:52:10.000Z</time>
      </trkpt>
      <trkpt lat="43.66344" lon="3.8146">
        <ele>156</ele>
        <time>2020-08-16T06:52:11.000Z</time>
      </trkpt>
      <trkpt lat="43.66343" lon="3.81456">
        <ele>156</ele>
        <time>2020-08-16T06:52:12.000Z</time>
      </trkpt>
      <trkpt lat="43.66343" lon="3.81452">
        <ele>156</ele>
        <time>2020-08-16T06:52:13.000Z</time>
      </trkpt>
      <trkpt lat="43.66343" lon="3.81448">
        <ele>156</ele>
        <time>2020-08-16T06:52:14.000Z</time>
      </trkpt>
      <trkpt lat="43.66344" lon="3.81443">
        <ele>156</ele>
        <time>2020-08-16T06:52:15.000Z</time>
      </trkpt>
      <trkpt lat="43.66346" lon="3.81439">
        <ele>156</ele>
        <time>2020-08-16T06:52:16.000Z</time>
      </trkpt>
      <trkpt lat="43.66347" lon="3.81436">
        <ele>155.97211155378</ele>
        <time>2020-08-16T06:52:17.000Z</time>
      </trkpt>
      <trkpt lat="43.66349" lon="3.81433">
        <ele>155.87250996016</ele>
        <time>2020-08-16T06:52:18.000Z</time>
      </trkpt>
      <trkpt lat="43.66351" lon="3.8143">
        <ele>155.77290836653</ele>
        <time>2020-08-16T06:52:19.000Z</time>
      </trkpt>
      <trkpt lat="43.66354" lon="3.81427">
        <ele>155.67330677291</ele>
        <time>2020-08-16T06:52:20.000Z</time>
      </trkpt>
      <trkpt lat="43.66357" lon="3.81424">
        <ele>155.57370517928</ele>
        <time>2020-08-16T06:52:21.000Z</time>
      </trkpt>
      <trkpt lat="43.6636" lon="3.81421">
        <ele>155.47410358566</ele>
        <time>2020-08-16T06:52:22.000Z</time>
      </trkpt>
      <trkpt lat="43.66363" lon="3.81417">
        <ele>155.37450199203</ele>
        <time>2020-08-16T06:52:23.000Z</time>
      </trkpt>
      <trkpt lat="43.66366" lon="3.81414">
        <ele>155.27490039841</ele>
        <time>2020-08-16T06:52:24.000Z</time>
      </trkpt>
      <trkpt lat="43.66369" lon="3.8141">
        <ele>155.17529880478</ele>
        <time>2020-08-16T06:52:25.000Z</time>
      </trkpt>
      <trkpt lat="43.66372" lon="3.81406">
        <ele>155.07569721115</ele>
        <time>2020-08-16T06:52:26.000Z</time>
      </trkpt>
      <trkpt lat="43.66375" lon="3.81402">
        <ele>154.97592777562</ele>
        <time>2020-08-16T06:52:27.000Z</time>
      </trkpt>
      <trkpt lat="43.66378" lon="3.81399">
        <ele>154.87562684072</ele>
        <time>2020-08-16T06:52:28.000Z</time>
      </trkpt>
      <trkpt lat="43.66381" lon="3.81395">
        <ele>154.77532590582</ele>
        <time>2020-08-16T06:52:29.000Z</time>
      </trkpt>
      <trkpt lat="43.66385" lon="3.81392">
        <ele>154.67502497092</ele>
        <time>2020-08-16T06:52:30.000Z</time>
      </trkpt>
      <trkpt lat="43.66388" lon="3.81389">
        <ele>154.57472403602</ele>
        <time>2020-08-16T06:52:31.000Z</time>
      </trkpt>
      <trkpt lat="43.66391" lon="3.81386">
        <ele>154.47442310112</ele>
        <time>2020-08-16T06:52:32.000Z</time>
      </trkpt>
      <trkpt lat="43.66395" lon="3.81382">
        <ele>154.37412216622</ele>
        <time>2020-08-16T06:52:33.000Z</time>
      </trkpt>
      <trkpt lat="43.66399" lon="3.81378">
        <ele>154.27382123132</ele>
        <time>2020-08-16T06:52:34.000Z</time>
      </trkpt>
      <trkpt lat="43.66403" lon="3.81375">
        <ele>154.17352029642</ele>
        <time>2020-08-16T06:52:35.000Z</time>
      </trkpt>
      <trkpt lat="43.66407" lon="3.81372">
        <ele>154.07321936151</ele>
        <time>2020-08-16T06:52:36.000Z</time>
      </trkpt>
      <trkpt lat="43.66411" lon="3.81369">
        <ele>153.94599936</ele>
        <time>2020-08-16T06:52:37.000Z</time>
      </trkpt>
      <trkpt lat="43.66416" lon="3.81366">
        <ele>153.74599936</ele>
        <time>2020-08-16T06:52:38.000Z</time>
      </trkpt>
      <trkpt lat="43.6642" lon="3.81364">
        <ele>153.54599936</ele>
        <time>2020-08-16T06:52:39.000Z</time>
      </trkpt>
      <trkpt lat="43.66425" lon="3.81361">
        <ele>153.34599936</ele>
        <time>2020-08-16T06:52:40.000Z</time>
      </trkpt>
      <trkpt lat="43.6643" lon="3.81358">
        <ele>153.14599936</ele>
        <time>2020-08-16T06:52:41.000Z</time>
      </trkpt>
      <trkpt lat="43.66434" lon="3.81355">
        <ele>152.94599936</ele>
        <time>2020-08-16T06:52:42.000Z</time>
      </trkpt>
      <trkpt lat="43.66438" lon="3.81352">
        <ele>152.74599936</ele>
        <time>2020-08-16T06:52:43.000Z</time>
      </trkpt>
      <trkpt lat="43.66443" lon="3.81349">
        <ele>152.54599936</ele>
        <time>2020-08-16T06:52:44.000Z</time>
      </trkpt>
      <trkpt lat="43.66447" lon="3.81345">
        <ele>152.34599936</ele>
        <time>2020-08-16T06:52:45.000Z</time>
      </trkpt>
      <trkpt lat="43.66452" lon="3.81342">
        <ele>152.14599936</ele>
        <time>2020-08-16T06:52:46.000Z</time>
      </trkpt>
      <trkpt lat="43.66457" lon="3.81339">
        <ele>151.94599936</ele>
        <time>2020-08-16T06:52:47.000Z</time>
      </trkpt>
      <trkpt lat="43.66462" lon="3.81337">
        <ele>151.74599936</ele>
        <time>2020-08-16T06:52:48.000Z</time>
      </trkpt>
      <trkpt lat="43.66467" lon="3.81335">
        <ele>151.54599936</ele>
        <time>2020-08-16T06:52:49.000Z</time>
      </trkpt>
      <trkpt lat="43.66473" lon="3.81335">
        <ele>151.34599936</ele>
        <time>2020-08-16T06:52:50.000Z</time>
      </trkpt>
      <trkpt lat="43.66479" lon="3.81335">
        <ele>151.14599936</ele>
        <time>2020-08-16T06:52:51.000Z</time>
      </trkpt>
      <trkpt lat="43.66483" lon="3.81335">
        <ele>150.94599936</ele>
        <time>2020-08-16T06:52:52.000Z</time>
      </trkpt>
      <trkpt lat="43.66488" lon="3.81335">
        <ele>150.74599936</ele>
        <time>2020-08-16T06:52:53.000Z</time>
      </trkpt>
      <trkpt lat="43.66492" lon="3.81334">
        <ele>150.54599936</ele>
        <time>2020-08-16T06:52:54.000Z</time>
      </trkpt>
      <trkpt lat="43.66496" lon="3.81334">
        <ele>150.34599936</ele>
        <time>2020-08-16T06:52:55.000Z</time>
      </trkpt>
      <trkpt lat="43.665" lon="3.81332">
        <ele>150.14599936</ele>
        <time>2020-08-16T06:52:56.000Z</time>
      </trkpt>
      <trkpt lat="43.66504" lon="3.81331">
        <ele>149.94594532262</ele>
        <time>2020-08-16T06:52:57.000Z</time>
      </trkpt>
      <trkpt lat="43.66508" lon="3.81329">
        <ele>149.74574518655</ele>
        <time>2020-08-16T06:52:58.000Z</time>
      </trkpt>
      <trkpt lat="43.66511" lon="3.81327">
        <ele>149.54554505048</ele>
        <time>2020-08-16T06:52:59.000Z</time>
      </trkpt>
      <trkpt lat="43.66515" lon="3.81326">
        <ele>149.3453449144</ele>
        <time>2020-08-16T06:53:00.000Z</time>
      </trkpt>
      <trkpt lat="43.66519" lon="3.81325">
        <ele>149.14514477833</ele>
        <time>2020-08-16T06:53:01.000Z</time>
      </trkpt>
      <trkpt lat="43.66522" lon="3.81324">
        <ele>148.94494464226</ele>
        <time>2020-08-16T06:53:02.000Z</time>
      </trkpt>
      <trkpt lat="43.66524" lon="3.81322">
        <ele>148.54454437012</ele>
        <time>2020-08-16T06:53:04.000Z</time>
      </trkpt>
      <trkpt lat="43.66526" lon="3.81317">
        <ele>148.14414409797</ele>
        <time>2020-08-16T06:53:06.000Z</time>
      </trkpt>
      <trkpt lat="43.66528" lon="3.81314">
        <ele>147.97202796309</ele>
        <time>2020-08-16T06:53:07.000Z</time>
      </trkpt>
      <trkpt lat="43.66529" lon="3.81311">
        <ele>147.87212783125</ele>
        <time>2020-08-16T06:53:08.000Z</time>
      </trkpt>
      <trkpt lat="43.6653" lon="3.81307">
        <ele>147.77222769941</ele>
        <time>2020-08-16T06:53:09.000Z</time>
      </trkpt>
      <trkpt lat="43.66532" lon="3.81304">
        <ele>147.67232756758</ele>
        <time>2020-08-16T06:53:10.000Z</time>
      </trkpt>
      <trkpt lat="43.66534" lon="3.81301">
        <ele>147.57242743574</ele>
        <time>2020-08-16T06:53:11.000Z</time>
      </trkpt>
      <trkpt lat="43.66535" lon="3.81297">
        <ele>147.4725273039</ele>
        <time>2020-08-16T06:53:12.000Z</time>
      </trkpt>
      <trkpt lat="43.66537" lon="3.81294">
        <ele>147.37262717207</ele>
        <time>2020-08-16T06:53:13.000Z</time>
      </trkpt>
      <trkpt lat="43.6654" lon="3.81292">
        <ele>147.27272704023</ele>
        <time>2020-08-16T06:53:14.000Z</time>
      </trkpt>
      <trkpt lat="43.66543" lon="3.81289">
        <ele>147.1728269084</ele>
        <time>2020-08-16T06:53:15.000Z</time>
      </trkpt>
      <trkpt lat="43.66546" lon="3.81287">
        <ele>147.07292677656</ele>
        <time>2020-08-16T06:53:16.000Z</time>
      </trkpt>
      <trkpt lat="43.66549" lon="3.81285">
        <ele>146.97299968</ele>
        <time>2020-08-16T06:53:17.000Z</time>
      </trkpt>
      <trkpt lat="43.66552" lon="3.81283">
        <ele>146.87299968</ele>
        <time>2020-08-16T06:53:18.000Z</time>
      </trkpt>
      <trkpt lat="43.66555" lon="3.8128">
        <ele>146.77299968</ele>
        <time>2020-08-16T06:53:19.000Z</time>
      </trkpt>
      <trkpt lat="43.66559" lon="3.81278">
        <ele>146.67299968</ele>
        <time>2020-08-16T06:53:20.000Z</time>
      </trkpt>
      <trkpt lat="43.66562" lon="3.81276">
        <ele>146.57299968</ele>
        <time>2020-08-16T06:53:21.000Z</time>
      </trkpt>
      <trkpt lat="43.66565" lon="3.81274">
        <ele>146.47299968</ele>
        <time>2020-08-16T06:53:22.000Z</time>
      </trkpt>
      <trkpt lat="43.66568" lon="3.81272">
        <ele>146.37299968</ele>
        <time>2020-08-16T06:53:23.000Z</time>
      </trkpt>
      <trkpt lat="43.6657" lon="3.8127">
        <ele>146.27299968</ele>
        <time>2020-08-16T06:53:24.000Z</time>
      </trkpt>
      <trkpt lat="43.66572" lon="3.81267">
        <ele>146.17299968</ele>
        <time>2020-08-16T06:53:25.000Z</time>
      </trkpt>
      <trkpt lat="43.66573" lon="3.81264">
        <ele>146.07299968</ele>
        <time>2020-08-16T06:53:26.000Z</time>
      </trkpt>
      <trkpt lat="43.66573" lon="3.81261">
        <ele>146</ele>
        <time>2020-08-16T06:53:27.000Z</time>
      </trkpt>
      <trkpt lat="43.66573" lon="3.81258">
        <ele>146</ele>
        <time>2020-08-16T06:53:28.000Z</time>
      </trkpt>
      <trkpt lat="43.66573" lon="3.81255">
        <ele>146</ele>
        <time>2020-08-16T06:53:30.000Z</time>
      </trkpt>
      <trkpt lat="43.66573" lon="3.81252">
        <ele>146</ele>
        <time>2020-08-16T06:53:35.000Z</time>
      </trkpt>
      <trkpt lat="43.66573" lon="3.81252">
        <ele>145.90640894203</ele>
        <time>2020-08-16T06:53:38.000Z</time>
      </trkpt>
      <trkpt lat="43.66571" lon="3.8124">
        <ele>143</ele>
        <time>2020-08-16T06:54:07.000Z</time>
      </trkpt>
      <trkpt lat="43.66572" lon="3.81238">
        <ele>143</ele>
        <time>2020-08-16T06:54:12.000Z</time>
      </trkpt>
      <trkpt lat="43.6658" lon="3.8124">
        <ele>143.109184</ele>
        <time>2020-08-16T06:54:31.000Z</time>
      </trkpt>
      <trkpt lat="43.66583" lon="3.8124">
        <ele>143.21122481633</ele>
        <time>2020-08-16T06:54:32.000Z</time>
      </trkpt>
      <trkpt lat="43.66585" lon="3.8124">
        <ele>143.31326563265</ele>
        <time>2020-08-16T06:54:33.000Z</time>
      </trkpt>
      <trkpt lat="43.66587" lon="3.8124">
        <ele>143.41530644898</ele>
        <time>2020-08-16T06:54:34.000Z</time>
      </trkpt>
      <trkpt lat="43.66589" lon="3.8124">
        <ele>143.51734726531</ele>
        <time>2020-08-16T06:54:35.000Z</time>
      </trkpt>
      <trkpt lat="43.66591" lon="3.81241">
        <ele>143.61938808163</ele>
        <time>2020-08-16T06:54:36.000Z</time>
      </trkpt>
      <trkpt lat="43.66594" lon="3.81241">
        <ele>143.82346971429</ele>
        <time>2020-08-16T06:54:38.000Z</time>
      </trkpt>
      <trkpt lat="43.66598" lon="3.81241">
        <ele>144</ele>
        <time>2020-08-16T06:54:40.000Z</time>
      </trkpt>
      <trkpt lat="43.66601" lon="3.8124">
        <ele>144</ele>
        <time>2020-08-16T06:54:42.000Z</time>
      </trkpt>
      <trkpt lat="43.66604" lon="3.81239">
        <ele>144</ele>
        <time>2020-08-16T06:54:44.000Z</time>
      </trkpt>
      <trkpt lat="43.66607" lon="3.81238">
        <ele>144</ele>
        <time>2020-08-16T06:54:46.000Z</time>
      </trkpt>
      <trkpt lat="43.6661" lon="3.81237">
        <ele>144</ele>
        <time>2020-08-16T06:54:48.000Z</time>
      </trkpt>
      <trkpt lat="43.66613" lon="3.81235">
        <ele>143.97690730924</ele>
        <time>2020-08-16T06:54:50.000Z</time>
      </trkpt>
      <trkpt lat="43.66616" lon="3.81232">
        <ele>143.77610409639</ele>
        <time>2020-08-16T06:54:52.000Z</time>
      </trkpt>
      <trkpt lat="43.66619" lon="3.8123">
        <ele>143.57530088353</ele>
        <time>2020-08-16T06:54:54.000Z</time>
      </trkpt>
      <trkpt lat="43.66622" lon="3.81229">
        <ele>143.37449767068</ele>
        <time>2020-08-16T06:54:56.000Z</time>
      </trkpt>
      <trkpt lat="43.66624" lon="3.81226">
        <ele>143.17369445783</ele>
        <time>2020-08-16T06:54:58.000Z</time>
      </trkpt>
      <trkpt lat="43.66627" lon="3.81226">
        <ele>143</ele>
        <time>2020-08-16T06:55:00.000Z</time>
      </trkpt>
      <trkpt lat="43.6663" lon="3.81226">
        <ele>143</ele>
        <time>2020-08-16T06:55:02.000Z</time>
      </trkpt>
      <trkpt lat="43.66633" lon="3.81225">
        <ele>143</ele>
        <time>2020-08-16T06:55:04.000Z</time>
      </trkpt>
      <trkpt lat="43.66635" lon="3.81225">
        <ele>143</ele>
        <time>2020-08-16T06:55:05.000Z</time>
      </trkpt>
      <trkpt lat="43.66637" lon="3.81225">
        <ele>143</ele>
        <time>2020-08-16T06:55:06.000Z</time>
      </trkpt>
      <trkpt lat="43.66639" lon="3.81224">
        <ele>143</ele>
        <time>2020-08-16T06:55:07.000Z</time>
      </trkpt>
      <trkpt lat="43.66641" lon="3.81224">
        <ele>143</ele>
        <time>2020-08-16T06:55:08.000Z</time>
      </trkpt>
      <trkpt lat="43.66643" lon="3.81224">
        <ele>143</ele>
        <time>2020-08-16T06:55:09.000Z</time>
      </trkpt>
      <trkpt lat="43.66645" lon="3.81225">
        <ele>142.97302667921</ele>
        <time>2020-08-16T06:55:10.000Z</time>
      </trkpt>
      <trkpt lat="43.66646" lon="3.81225">
        <ele>142.87312667512</ele>
        <time>2020-08-16T06:55:11.000Z</time>
      </trkpt>
      <trkpt lat="43.66648" lon="3.81224">
        <ele>142.77322667103</ele>
        <time>2020-08-16T06:55:12.000Z</time>
      </trkpt>
      <trkpt lat="43.6665" lon="3.81224">
        <ele>142.67332666694</ele>
        <time>2020-08-16T06:55:13.000Z</time>
      </trkpt>
      <trkpt lat="43.66652" lon="3.81224">
        <ele>142.57342666285</ele>
        <time>2020-08-16T06:55:14.000Z</time>
      </trkpt>
      <trkpt lat="43.66654" lon="3.81224">
        <ele>142.47352665876</ele>
        <time>2020-08-16T06:55:15.000Z</time>
      </trkpt>
      <trkpt lat="43.66656" lon="3.81223">
        <ele>142.37362665466</ele>
        <time>2020-08-16T06:55:16.000Z</time>
      </trkpt>
      <trkpt lat="43.66658" lon="3.81223">
        <ele>142.27372665057</ele>
        <time>2020-08-16T06:55:17.000Z</time>
      </trkpt>
      <trkpt lat="43.6666" lon="3.81222">
        <ele>142.17382664648</ele>
        <time>2020-08-16T06:55:18.000Z</time>
      </trkpt>
      <trkpt lat="43.66661" lon="3.81221">
        <ele>142.07392664239</ele>
        <time>2020-08-16T06:55:19.000Z</time>
      </trkpt>
      <trkpt lat="43.66663" lon="3.8122">
        <ele>142</ele>
        <time>2020-08-16T06:55:20.000Z</time>
      </trkpt>
      <trkpt lat="43.66665" lon="3.81219">
        <ele>142</ele>
        <time>2020-08-16T06:55:21.000Z</time>
      </trkpt>
      <trkpt lat="43.66667" lon="3.81219">
        <ele>142</ele>
        <time>2020-08-16T06:55:22.000Z</time>
      </trkpt>
      <trkpt lat="43.66669" lon="3.81218">
        <ele>142</ele>
        <time>2020-08-16T06:55:23.000Z</time>
      </trkpt>
      <trkpt lat="43.66671" lon="3.81217">
        <ele>142</ele>
        <time>2020-08-16T06:55:24.000Z</time>
      </trkpt>
      <trkpt lat="43.66674" lon="3.81217">
        <ele>142</ele>
        <time>2020-08-16T06:55:25.000Z</time>
      </trkpt>
      <trkpt lat="43.66676" lon="3.81216">
        <ele>142</ele>
        <time>2020-08-16T06:55:26.000Z</time>
      </trkpt>
      <trkpt lat="43.66679" lon="3.81216">
        <ele>142</ele>
        <time>2020-08-16T06:55:27.000Z</time>
      </trkpt>
      <trkpt lat="43.66682" lon="3.81216">
        <ele>142</ele>
        <time>2020-08-16T06:55:28.000Z</time>
      </trkpt>
      <trkpt lat="43.66685" lon="3.81216">
        <ele>142</ele>
        <time>2020-08-16T06:55:29.000Z</time>
      </trkpt>
      <trkpt lat="43.66688" lon="3.81216">
        <ele>142</ele>
        <time>2020-08-16T06:55:30.000Z</time>
      </trkpt>
      <trkpt lat="43.66691" lon="3.81217">
        <ele>142</ele>
        <time>2020-08-16T06:55:31.000Z</time>
      </trkpt>
      <trkpt lat="43.66695" lon="3.81217">
        <ele>142</ele>
        <time>2020-08-16T06:55:32.000Z</time>
      </trkpt>
      <trkpt lat="43.66698" lon="3.81218">
        <ele>142</ele>
        <time>2020-08-16T06:55:33.000Z</time>
      </trkpt>
      <trkpt lat="43.66702" lon="3.81218">
        <ele>142</ele>
        <time>2020-08-16T06:55:34.000Z</time>
      </trkpt>
      <trkpt lat="43.66706" lon="3.81219">
        <ele>142</ele>
        <time>2020-08-16T06:55:35.000Z</time>
      </trkpt>
      <trkpt lat="43.66709" lon="3.8122">
        <ele>142</ele>
        <time>2020-08-16T06:55:36.000Z</time>
      </trkpt>
      <trkpt lat="43.66713" lon="3.8122">
        <ele>142</ele>
        <time>2020-08-16T06:55:37.000Z</time>
      </trkpt>
      <trkpt lat="43.66716" lon="3.8122">
        <ele>142</ele>
        <time>2020-08-16T06:55:38.000Z</time>
      </trkpt>
      <trkpt lat="43.6672" lon="3.81219">
        <ele>142</ele>
        <time>2020-08-16T06:55:39.000Z</time>
      </trkpt>
      <trkpt lat="43.66722" lon="3.81217">
        <ele>142</ele>
        <time>2020-08-16T06:55:40.000Z</time>
      </trkpt>
      <trkpt lat="43.66725" lon="3.81216">
        <ele>142</ele>
        <time>2020-08-16T06:55:41.000Z</time>
      </trkpt>
      <trkpt lat="43.66727" lon="3.81216">
        <ele>142</ele>
        <time>2020-08-16T06:55:42.000Z</time>
      </trkpt>
      <trkpt lat="43.6673" lon="3.81215">
        <ele>142</ele>
        <time>2020-08-16T06:55:43.000Z</time>
      </trkpt>
      <trkpt lat="43.66732" lon="3.81215">
        <ele>142</ele>
        <time>2020-08-16T06:55:44.000Z</time>
      </trkpt>
      <trkpt lat="43.66735" lon="3.81215">
        <ele>142</ele>
        <time>2020-08-16T06:55:45.000Z</time>
      </trkpt>
      <trkpt lat="43.66738" lon="3.81216">
        <ele>142</ele>
        <time>2020-08-16T06:55:46.000Z</time>
      </trkpt>
      <trkpt lat="43.6674" lon="3.81217">
        <ele>142</ele>
        <time>2020-08-16T06:55:47.000Z</time>
      </trkpt>
      <trkpt lat="43.66743" lon="3.81218">
        <ele>142</ele>
        <time>2020-08-16T06:55:48.000Z</time>
      </trkpt>
      <trkpt lat="43.66746" lon="3.81219">
        <ele>142</ele>
        <time>2020-08-16T06:55:49.000Z</time>
      </trkpt>
      <trkpt lat="43.66749" lon="3.8122">
        <ele>141.97397458961</ele>
        <time>2020-08-16T06:55:50.000Z</time>
      </trkpt>
      <trkpt lat="43.66752" lon="3.81221">
        <ele>141.87387439331</ele>
        <time>2020-08-16T06:55:51.000Z</time>
      </trkpt>
      <trkpt lat="43.66754" lon="3.81221">
        <ele>141.77377419702</ele>
        <time>2020-08-16T06:55:52.000Z</time>
      </trkpt>
      <trkpt lat="43.66756" lon="3.8122">
        <ele>141.67367400073</ele>
        <time>2020-08-16T06:55:53.000Z</time>
      </trkpt>
      <trkpt lat="43.66758" lon="3.81219">
        <ele>141.57357380444</ele>
        <time>2020-08-16T06:55:54.000Z</time>
      </trkpt>
      <trkpt lat="43.6676" lon="3.81216">
        <ele>141.47347360814</ele>
        <time>2020-08-16T06:55:55.000Z</time>
      </trkpt>
      <trkpt lat="43.6676" lon="3.81213">
        <ele>141.37337341185</ele>
        <time>2020-08-16T06:55:56.000Z</time>
      </trkpt>
      <trkpt lat="43.66761" lon="3.8121">
        <ele>141.27327321556</ele>
        <time>2020-08-16T06:55:57.000Z</time>
      </trkpt>
      <trkpt lat="43.66761" lon="3.81206">
        <ele>141.17317301926</ele>
        <time>2020-08-16T06:55:58.000Z</time>
      </trkpt>
      <trkpt lat="43.66762" lon="3.81202">
        <ele>141.07307282297</ele>
        <time>2020-08-16T06:55:59.000Z</time>
      </trkpt>
      <trkpt lat="43.66762" lon="3.81198">
        <ele>141</ele>
        <time>2020-08-16T06:56:00.000Z</time>
      </trkpt>
      <trkpt lat="43.66762" lon="3.81194">
        <ele>141</ele>
        <time>2020-08-16T06:56:01.000Z</time>
      </trkpt>
      <trkpt lat="43.66763" lon="3.8119">
        <ele>141</ele>
        <time>2020-08-16T06:56:02.000Z</time>
      </trkpt>
      <trkpt lat="43.66763" lon="3.81185">
        <ele>141</ele>
        <time>2020-08-16T06:56:03.000Z</time>
      </trkpt>
      <trkpt lat="43.66763" lon="3.8118">
        <ele>141</ele>
        <time>2020-08-16T06:56:04.000Z</time>
      </trkpt>
      <trkpt lat="43.66764" lon="3.81176">
        <ele>141</ele>
        <time>2020-08-16T06:56:05.000Z</time>
      </trkpt>
      <trkpt lat="43.66764" lon="3.81171">
        <ele>141</ele>
        <time>2020-08-16T06:56:06.000Z</time>
      </trkpt>
      <trkpt lat="43.66764" lon="3.81166">
        <ele>141</ele>
        <time>2020-08-16T06:56:07.000Z</time>
      </trkpt>
      <trkpt lat="43.66764" lon="3.81159">
        <ele>141</ele>
        <time>2020-08-16T06:56:08.000Z</time>
      </trkpt>
      <trkpt lat="43.66764" lon="3.81153">
        <ele>141</ele>
        <time>2020-08-16T06:56:09.000Z</time>
      </trkpt>
      <trkpt lat="43.66763" lon="3.81147">
        <ele>141</ele>
        <time>2020-08-16T06:56:10.000Z</time>
      </trkpt>
      <trkpt lat="43.66763" lon="3.81141">
        <ele>141</ele>
        <time>2020-08-16T06:56:11.000Z</time>
      </trkpt>
      <trkpt lat="43.66763" lon="3.81135">
        <ele>141</ele>
        <time>2020-08-16T06:56:12.000Z</time>
      </trkpt>
      <trkpt lat="43.66763" lon="3.8113">
        <ele>141</ele>
        <time>2020-08-16T06:56:13.000Z</time>
      </trkpt>
      <trkpt lat="43.66763" lon="3.81125">
        <ele>141</ele>
        <time>2020-08-16T06:56:14.000Z</time>
      </trkpt>
      <trkpt lat="43.66764" lon="3.8112">
        <ele>141</ele>
        <time>2020-08-16T06:56:15.000Z</time>
      </trkpt>
      <trkpt lat="43.66765" lon="3.81115">
        <ele>141</ele>
        <time>2020-08-16T06:56:16.000Z</time>
      </trkpt>
      <trkpt lat="43.66765" lon="3.81109">
        <ele>141</ele>
        <time>2020-08-16T06:56:17.000Z</time>
      </trkpt>
      <trkpt lat="43.66765" lon="3.81104">
        <ele>141</ele>
        <time>2020-08-16T06:56:18.000Z</time>
      </trkpt>
      <trkpt lat="43.66765" lon="3.81098">
        <ele>141</ele>
        <time>2020-08-16T06:56:19.000Z</time>
      </trkpt>
      <trkpt lat="43.66765" lon="3.81093">
        <ele>140.97468414381</ele>
        <time>2020-08-16T06:56:20.000Z</time>
      </trkpt>
      <trkpt lat="43.66765" lon="3.81088">
        <ele>140.87731306935</ele>
        <time>2020-08-16T06:56:21.000Z</time>
      </trkpt>
      <trkpt lat="43.66765" lon="3.81082">
        <ele>140.77994199488</ele>
        <time>2020-08-16T06:56:22.000Z</time>
      </trkpt>
      <trkpt lat="43.66765" lon="3.81077">
        <ele>140.68257092042</ele>
        <time>2020-08-16T06:56:23.000Z</time>
      </trkpt>
      <trkpt lat="43.66765" lon="3.8107">
        <ele>140.58519984595</ele>
        <time>2020-08-16T06:56:24.000Z</time>
      </trkpt>
      <trkpt lat="43.66765" lon="3.81064">
        <ele>140.48782877149</ele>
        <time>2020-08-16T06:56:25.000Z</time>
      </trkpt>
      <trkpt lat="43.66765" lon="3.81058">
        <ele>140.39045769702</ele>
        <time>2020-08-16T06:56:26.000Z</time>
      </trkpt>
      <trkpt lat="43.66765" lon="3.81052">
        <ele>140.29308662255</ele>
        <time>2020-08-16T06:56:27.000Z</time>
      </trkpt>
      <trkpt lat="43.66765" lon="3.81045">
        <ele>140.19571554809</ele>
        <time>2020-08-16T06:56:28.000Z</time>
      </trkpt>
      <trkpt lat="43.66765" lon="3.81038">
        <ele>140.09834447362</ele>
        <time>2020-08-16T06:56:29.000Z</time>
      </trkpt>
      <trkpt lat="43.66765" lon="3.81032">
        <ele>140.00097339916</ele>
        <time>2020-08-16T06:56:30.000Z</time>
      </trkpt>
      <trkpt lat="43.66765" lon="3.81025">
        <ele>140</ele>
        <time>2020-08-16T06:56:31.000Z</time>
      </trkpt>
      <trkpt lat="43.66765" lon="3.8102">
        <ele>140</ele>
        <time>2020-08-16T06:56:32.000Z</time>
      </trkpt>
      <trkpt lat="43.66765" lon="3.81015">
        <ele>140</ele>
        <time>2020-08-16T06:56:33.000Z</time>
      </trkpt>
      <trkpt lat="43.66763" lon="3.81011">
        <ele>140</ele>
        <time>2020-08-16T06:56:34.000Z</time>
      </trkpt>
      <trkpt lat="43.66761" lon="3.81008">
        <ele>140</ele>
        <time>2020-08-16T06:56:35.000Z</time>
      </trkpt>
      <trkpt lat="43.66759" lon="3.81005">
        <ele>140</ele>
        <time>2020-08-16T06:56:36.000Z</time>
      </trkpt>
      <trkpt lat="43.66758" lon="3.81003">
        <ele>140</ele>
        <time>2020-08-16T06:56:37.000Z</time>
      </trkpt>
      <trkpt lat="43.66755" lon="3.81001">
        <ele>140</ele>
        <time>2020-08-16T06:56:39.000Z</time>
      </trkpt>
      <trkpt lat="43.66752" lon="3.80999">
        <ele>140.12574281141</ele>
        <time>2020-08-16T06:56:41.000Z</time>
      </trkpt>
      <trkpt lat="43.6675" lon="3.80995">
        <ele>140.32376248791</ele>
        <time>2020-08-16T06:56:43.000Z</time>
      </trkpt>
      <trkpt lat="43.66751" lon="3.8099">
        <ele>140.52178216441</ele>
        <time>2020-08-16T06:56:45.000Z</time>
      </trkpt>
      <trkpt lat="43.66752" lon="3.80988">
        <ele>140.62079200267</ele>
        <time>2020-08-16T06:56:46.000Z</time>
      </trkpt>
      <trkpt lat="43.66753" lon="3.80986">
        <ele>140.71980184092</ele>
        <time>2020-08-16T06:56:47.000Z</time>
      </trkpt>
      <trkpt lat="43.66754" lon="3.80983">
        <ele>140.81881167917</ele>
        <time>2020-08-16T06:56:48.000Z</time>
      </trkpt>
      <trkpt lat="43.66755" lon="3.8098">
        <ele>140.91782151742</ele>
        <time>2020-08-16T06:56:49.000Z</time>
      </trkpt>
      <trkpt lat="43.66756" lon="3.80978">
        <ele>141.03434281008</ele>
        <time>2020-08-16T06:56:50.000Z</time>
      </trkpt>
      <trkpt lat="43.66756" lon="3.80975">
        <ele>141.2363631427</ele>
        <time>2020-08-16T06:56:51.000Z</time>
      </trkpt>
      <trkpt lat="43.66757" lon="3.80973">
        <ele>141.43838347532</ele>
        <time>2020-08-16T06:56:52.000Z</time>
      </trkpt>
      <trkpt lat="43.66758" lon="3.8097">
        <ele>141.64040380794</ele>
        <time>2020-08-16T06:56:53.000Z</time>
      </trkpt>
      <trkpt lat="43.66759" lon="3.80968">
        <ele>141.84242414056</ele>
        <time>2020-08-16T06:56:54.000Z</time>
      </trkpt>
      <trkpt lat="43.6676" lon="3.80966">
        <ele>142.04444447318</ele>
        <time>2020-08-16T06:56:55.000Z</time>
      </trkpt>
      <trkpt lat="43.66762" lon="3.80964">
        <ele>142.2464648058</ele>
        <time>2020-08-16T06:56:56.000Z</time>
      </trkpt>
      <trkpt lat="43.66763" lon="3.80962">
        <ele>142.44848513842</ele>
        <time>2020-08-16T06:56:57.000Z</time>
      </trkpt>
      <trkpt lat="43.66764" lon="3.80959">
        <ele>142.65050547103</ele>
        <time>2020-08-16T06:56:58.000Z</time>
      </trkpt>
      <trkpt lat="43.66765" lon="3.80957">
        <ele>142.85252580365</ele>
        <time>2020-08-16T06:56:59.000Z</time>
      </trkpt>
      <trkpt lat="43.66766" lon="3.80955">
        <ele>143.05400064</ele>
        <time>2020-08-16T06:57:00.000Z</time>
      </trkpt>
      <trkpt lat="43.66767" lon="3.80952">
        <ele>143.25400064</ele>
        <time>2020-08-16T06:57:01.000Z</time>
      </trkpt>
      <trkpt lat="43.66768" lon="3.8095">
        <ele>143.45400064</ele>
        <time>2020-08-16T06:57:02.000Z</time>
      </trkpt>
      <trkpt lat="43.66769" lon="3.80947">
        <ele>143.65400064</ele>
        <time>2020-08-16T06:57:03.000Z</time>
      </trkpt>
      <trkpt lat="43.6677" lon="3.80945">
        <ele>143.85400064</ele>
        <time>2020-08-16T06:57:04.000Z</time>
      </trkpt>
      <trkpt lat="43.66771" lon="3.80943">
        <ele>144.05400064</ele>
        <time>2020-08-16T06:57:05.000Z</time>
      </trkpt>
      <trkpt lat="43.66772" lon="3.8094">
        <ele>144.25400064</ele>
        <time>2020-08-16T06:57:06.000Z</time>
      </trkpt>
      <trkpt lat="43.66773" lon="3.80938">
        <ele>144.45400064</ele>
        <time>2020-08-16T06:57:07.000Z</time>
      </trkpt>
      <trkpt lat="43.66774" lon="3.80936">
        <ele>144.65400064</ele>
        <time>2020-08-16T06:57:08.000Z</time>
      </trkpt>
      <trkpt lat="43.66775" lon="3.80934">
        <ele>144.85400064</ele>
        <time>2020-08-16T06:57:09.000Z</time>
      </trkpt>
      <trkpt lat="43.66776" lon="3.80932">
        <ele>145.02950853613</ele>
        <time>2020-08-16T06:57:10.000Z</time>
      </trkpt>
      <trkpt lat="43.66778" lon="3.8093">
        <ele>145.13879811539</ele>
        <time>2020-08-16T06:57:11.000Z</time>
      </trkpt>
      <trkpt lat="43.66779" lon="3.80928">
        <ele>145.24808769466</ele>
        <time>2020-08-16T06:57:12.000Z</time>
      </trkpt>
      <trkpt lat="43.6678" lon="3.80926">
        <ele>145.35737727392</ele>
        <time>2020-08-16T06:57:13.000Z</time>
      </trkpt>
      <trkpt lat="43.66782" lon="3.80923">
        <ele>145.57595643245</ele>
        <time>2020-08-16T06:57:15.000Z</time>
      </trkpt>
      <trkpt lat="43.66782" lon="3.80923">
        <ele>146.00578411364</ele>
        <time>2020-08-16T06:57:20.000Z</time>
      </trkpt>
      <trkpt lat="43.66789" lon="3.80917">
        <ele>147</ele>
        <time>2020-08-16T07:00:25.000Z</time>
      </trkpt>
      <trkpt lat="43.66791" lon="3.80915">
        <ele>147</ele>
        <time>2020-08-16T07:00:26.000Z</time>
      </trkpt>
      <trkpt lat="43.66793" lon="3.80913">
        <ele>147</ele>
        <time>2020-08-16T07:00:27.000Z</time>
      </trkpt>
      <trkpt lat="43.66795" lon="3.80911">
        <ele>147</ele>
        <time>2020-08-16T07:00:28.000Z</time>
      </trkpt>
      <trkpt lat="43.66797" lon="3.80909">
        <ele>147</ele>
        <time>2020-08-16T07:00:29.000Z</time>
      </trkpt>
      <trkpt lat="43.66799" lon="3.80907">
        <ele>147</ele>
        <time>2020-08-16T07:00:30.000Z</time>
      </trkpt>
      <trkpt lat="43.66802" lon="3.80905">
        <ele>147</ele>
        <time>2020-08-16T07:00:31.000Z</time>
      </trkpt>
      <trkpt lat="43.66804" lon="3.80904">
        <ele>147</ele>
        <time>2020-08-16T07:00:32.000Z</time>
      </trkpt>
      <trkpt lat="43.66807" lon="3.80903">
        <ele>147</ele>
        <time>2020-08-16T07:00:33.000Z</time>
      </trkpt>
      <trkpt lat="43.66809" lon="3.80901">
        <ele>147</ele>
        <time>2020-08-16T07:00:34.000Z</time>
      </trkpt>
      <trkpt lat="43.66812" lon="3.809">
        <ele>147</ele>
        <time>2020-08-16T07:00:35.000Z</time>
      </trkpt>
      <trkpt lat="43.66815" lon="3.80898">
        <ele>147</ele>
        <time>2020-08-16T07:00:36.000Z</time>
      </trkpt>
      <trkpt lat="43.66817" lon="3.80897">
        <ele>147</ele>
        <time>2020-08-16T07:00:37.000Z</time>
      </trkpt>
      <trkpt lat="43.6682" lon="3.80895">
        <ele>147</ele>
        <time>2020-08-16T07:00:38.000Z</time>
      </trkpt>
      <trkpt lat="43.66822" lon="3.80893">
        <ele>147</ele>
        <time>2020-08-16T07:00:39.000Z</time>
      </trkpt>
      <trkpt lat="43.66825" lon="3.80891">
        <ele>147</ele>
        <time>2020-08-16T07:00:40.000Z</time>
      </trkpt>
      <trkpt lat="43.66827" lon="3.80888">
        <ele>147</ele>
        <time>2020-08-16T07:00:41.000Z</time>
      </trkpt>
      <trkpt lat="43.66829" lon="3.80886">
        <ele>147</ele>
        <time>2020-08-16T07:00:42.000Z</time>
      </trkpt>
      <trkpt lat="43.66831" lon="3.80883">
        <ele>147</ele>
        <time>2020-08-16T07:00:43.000Z</time>
      </trkpt>
      <trkpt lat="43.66833" lon="3.8088">
        <ele>147</ele>
        <time>2020-08-16T07:00:44.000Z</time>
      </trkpt>
      <trkpt lat="43.66834" lon="3.80876">
        <ele>147</ele>
        <time>2020-08-16T07:00:45.000Z</time>
      </trkpt>
      <trkpt lat="43.66835" lon="3.80873">
        <ele>147</ele>
        <time>2020-08-16T07:00:46.000Z</time>
      </trkpt>
      <trkpt lat="43.66836" lon="3.80869">
        <ele>147</ele>
        <time>2020-08-16T07:00:47.000Z</time>
      </trkpt>
      <trkpt lat="43.66836" lon="3.80866">
        <ele>147</ele>
        <time>2020-08-16T07:00:48.000Z</time>
      </trkpt>
      <trkpt lat="43.66835" lon="3.80863">
        <ele>147</ele>
        <time>2020-08-16T07:00:49.000Z</time>
      </trkpt>
      <trkpt lat="43.66834" lon="3.80859">
        <ele>147</ele>
        <time>2020-08-16T07:00:50.000Z</time>
      </trkpt>
      <trkpt lat="43.66833" lon="3.80856">
        <ele>147</ele>
        <time>2020-08-16T07:00:51.000Z</time>
      </trkpt>
      <trkpt lat="43.66832" lon="3.80853">
        <ele>147</ele>
        <time>2020-08-16T07:00:52.000Z</time>
      </trkpt>
      <trkpt lat="43.66831" lon="3.8085">
        <ele>147</ele>
        <time>2020-08-16T07:00:53.000Z</time>
      </trkpt>
      <trkpt lat="43.66829" lon="3.80846">
        <ele>147</ele>
        <time>2020-08-16T07:00:54.000Z</time>
      </trkpt>
      <trkpt lat="43.66827" lon="3.80843">
        <ele>147</ele>
        <time>2020-08-16T07:00:55.000Z</time>
      </trkpt>
      <trkpt lat="43.66824" lon="3.8084">
        <ele>147</ele>
        <time>2020-08-16T07:00:56.000Z</time>
      </trkpt>
      <trkpt lat="43.66821" lon="3.80836">
        <ele>147</ele>
        <time>2020-08-16T07:00:57.000Z</time>
      </trkpt>
      <trkpt lat="43.66819" lon="3.80833">
        <ele>147</ele>
        <time>2020-08-16T07:00:58.000Z</time>
      </trkpt>
      <trkpt lat="43.66816" lon="3.8083">
        <ele>147</ele>
        <time>2020-08-16T07:00:59.000Z</time>
      </trkpt>
      <trkpt lat="43.66814" lon="3.80827">
        <ele>147</ele>
        <time>2020-08-16T07:01:00.000Z</time>
      </trkpt>
      <trkpt lat="43.66811" lon="3.80823">
        <ele>147</ele>
        <time>2020-08-16T07:01:01.000Z</time>
      </trkpt>
      <trkpt lat="43.66809" lon="3.8082">
        <ele>147</ele>
        <time>2020-08-16T07:01:02.000Z</time>
      </trkpt>
      <trkpt lat="43.66807" lon="3.80817">
        <ele>147</ele>
        <time>2020-08-16T07:01:03.000Z</time>
      </trkpt>
      <trkpt lat="43.66804" lon="3.80814">
        <ele>147.028</ele>
        <time>2020-08-16T07:01:04.000Z</time>
      </trkpt>
      <trkpt lat="43.66802" lon="3.80811">
        <ele>147.128</ele>
        <time>2020-08-16T07:01:05.000Z</time>
      </trkpt>
      <trkpt lat="43.668" lon="3.80808">
        <ele>147.228</ele>
        <time>2020-08-16T07:01:06.000Z</time>
      </trkpt>
      <trkpt lat="43.66797" lon="3.80805">
        <ele>147.328</ele>
        <time>2020-08-16T07:01:07.000Z</time>
      </trkpt>
      <trkpt lat="43.66795" lon="3.80802">
        <ele>147.428</ele>
        <time>2020-08-16T07:01:08.000Z</time>
      </trkpt>
      <trkpt lat="43.66792" lon="3.80799">
        <ele>147.528</ele>
        <time>2020-08-16T07:01:09.000Z</time>
      </trkpt>
      <trkpt lat="43.66789" lon="3.80797">
        <ele>147.628</ele>
        <time>2020-08-16T07:01:10.000Z</time>
      </trkpt>
      <trkpt lat="43.66786" lon="3.80795">
        <ele>147.728</ele>
        <time>2020-08-16T07:01:11.000Z</time>
      </trkpt>
      <trkpt lat="43.66783" lon="3.80792">
        <ele>147.828</ele>
        <time>2020-08-16T07:01:12.000Z</time>
      </trkpt>
      <trkpt lat="43.66781" lon="3.80789">
        <ele>147.928</ele>
        <time>2020-08-16T07:01:13.000Z</time>
      </trkpt>
      <trkpt lat="43.66778" lon="3.80786">
        <ele>148</ele>
        <time>2020-08-16T07:01:14.000Z</time>
      </trkpt>
      <trkpt lat="43.66775" lon="3.80782">
        <ele>148</ele>
        <time>2020-08-16T07:01:15.000Z</time>
      </trkpt>
      <trkpt lat="43.66773" lon="3.80779">
        <ele>148</ele>
        <time>2020-08-16T07:01:16.000Z</time>
      </trkpt>
      <trkpt lat="43.6677" lon="3.80775">
        <ele>148</ele>
        <time>2020-08-16T07:01:17.000Z</time>
      </trkpt>
      <trkpt lat="43.66768" lon="3.80772">
        <ele>148</ele>
        <time>2020-08-16T07:01:18.000Z</time>
      </trkpt>
      <trkpt lat="43.66765" lon="3.80767">
        <ele>148</ele>
        <time>2020-08-16T07:01:19.000Z</time>
      </trkpt>
      <trkpt lat="43.66762" lon="3.80763">
        <ele>148</ele>
        <time>2020-08-16T07:01:20.000Z</time>
      </trkpt>
      <trkpt lat="43.66759" lon="3.8076">
        <ele>148</ele>
        <time>2020-08-16T07:01:21.000Z</time>
      </trkpt>
      <trkpt lat="43.66756" lon="3.80756">
        <ele>148</ele>
        <time>2020-08-16T07:01:22.000Z</time>
      </trkpt>
      <trkpt lat="43.66753" lon="3.80753">
        <ele>148</ele>
        <time>2020-08-16T07:01:23.000Z</time>
      </trkpt>
      <trkpt lat="43.6675" lon="3.8075">
        <ele>148.02797203691</ele>
        <time>2020-08-16T07:01:24.000Z</time>
      </trkpt>
      <trkpt lat="43.66747" lon="3.80747">
        <ele>148.12787216875</ele>
        <time>2020-08-16T07:01:25.000Z</time>
      </trkpt>
      <trkpt lat="43.66745" lon="3.80743">
        <ele>148.22777230059</ele>
        <time>2020-08-16T07:01:26.000Z</time>
      </trkpt>
      <trkpt lat="43.66742" lon="3.8074">
        <ele>148.32767243242</ele>
        <time>2020-08-16T07:01:27.000Z</time>
      </trkpt>
      <trkpt lat="43.66739" lon="3.80736">
        <ele>148.42757256426</ele>
        <time>2020-08-16T07:01:28.000Z</time>
      </trkpt>
      <trkpt lat="43.66737" lon="3.80732">
        <ele>148.5274726961</ele>
        <time>2020-08-16T07:01:29.000Z</time>
      </trkpt>
      <trkpt lat="43.66735" lon="3.80729">
        <ele>148.62737282793</ele>
        <time>2020-08-16T07:01:30.000Z</time>
      </trkpt>
      <trkpt lat="43.66732" lon="3.80725">
        <ele>148.72727295977</ele>
        <time>2020-08-16T07:01:31.000Z</time>
      </trkpt>
      <trkpt lat="43.6673" lon="3.80721">
        <ele>148.8271730916</ele>
        <time>2020-08-16T07:01:32.000Z</time>
      </trkpt>
      <trkpt lat="43.66728" lon="3.80718">
        <ele>148.92707322344</ele>
        <time>2020-08-16T07:01:33.000Z</time>
      </trkpt>
      <trkpt lat="43.66725" lon="3.80715">
        <ele>149</ele>
        <time>2020-08-16T07:01:34.000Z</time>
      </trkpt>
      <trkpt lat="43.66722" lon="3.80712">
        <ele>149</ele>
        <time>2020-08-16T07:01:35.000Z</time>
      </trkpt>
      <trkpt lat="43.6672" lon="3.80709">
        <ele>149</ele>
        <time>2020-08-16T07:01:36.000Z</time>
      </trkpt>
      <trkpt lat="43.66717" lon="3.80705">
        <ele>149</ele>
        <time>2020-08-16T07:01:37.000Z</time>
      </trkpt>
      <trkpt lat="43.66714" lon="3.80702">
        <ele>149</ele>
        <time>2020-08-16T07:01:38.000Z</time>
      </trkpt>
      <trkpt lat="43.66712" lon="3.80698">
        <ele>149</ele>
        <time>2020-08-16T07:01:39.000Z</time>
      </trkpt>
      <trkpt lat="43.66709" lon="3.80694">
        <ele>149</ele>
        <time>2020-08-16T07:01:40.000Z</time>
      </trkpt>
      <trkpt lat="43.66707" lon="3.8069">
        <ele>149</ele>
        <time>2020-08-16T07:01:41.000Z</time>
      </trkpt>
      <trkpt lat="43.66705" lon="3.80686">
        <ele>149</ele>
        <time>2020-08-16T07:01:42.000Z</time>
      </trkpt>
      <trkpt lat="43.66702" lon="3.80682">
        <ele>149</ele>
        <time>2020-08-16T07:01:43.000Z</time>
      </trkpt>
      <trkpt lat="43.667" lon="3.80678">
        <ele>148.9674546951</ele>
        <time>2020-08-16T07:01:44.000Z</time>
      </trkpt>
      <trkpt lat="43.66698" lon="3.80674">
        <ele>148.67159689367</ele>
        <time>2020-08-16T07:01:45.000Z</time>
      </trkpt>
      <trkpt lat="43.66695" lon="3.8067">
        <ele>148.37573909224</ele>
        <time>2020-08-16T07:01:46.000Z</time>
      </trkpt>
      <trkpt lat="43.66693" lon="3.80666">
        <ele>148.0798812908</ele>
        <time>2020-08-16T07:01:47.000Z</time>
      </trkpt>
      <trkpt lat="43.6669" lon="3.80662">
        <ele>147.78402348937</ele>
        <time>2020-08-16T07:01:48.000Z</time>
      </trkpt>
      <trkpt lat="43.66688" lon="3.80657">
        <ele>147.48816568794</ele>
        <time>2020-08-16T07:01:49.000Z</time>
      </trkpt>
      <trkpt lat="43.66685" lon="3.80651">
        <ele>147.19230788651</ele>
        <time>2020-08-16T07:01:50.000Z</time>
      </trkpt>
      <trkpt lat="43.66681" lon="3.80646">
        <ele>146.89645008508</ele>
        <time>2020-08-16T07:01:51.000Z</time>
      </trkpt>
      <trkpt lat="43.66677" lon="3.8064">
        <ele>146.60059228365</ele>
        <time>2020-08-16T07:01:52.000Z</time>
      </trkpt>
      <trkpt lat="43.66673" lon="3.80633">
        <ele>146.30473448222</ele>
        <time>2020-08-16T07:01:53.000Z</time>
      </trkpt>
      <trkpt lat="43.66669" lon="3.80627">
        <ele>146.00887668079</ele>
        <time>2020-08-16T07:01:54.000Z</time>
      </trkpt>
      <trkpt lat="43.66664" lon="3.8062">
        <ele>146</ele>
        <time>2020-08-16T07:01:55.000Z</time>
      </trkpt>
      <trkpt lat="43.66659" lon="3.80614">
        <ele>146</ele>
        <time>2020-08-16T07:01:56.000Z</time>
      </trkpt>
      <trkpt lat="43.66655" lon="3.80608">
        <ele>146</ele>
        <time>2020-08-16T07:01:57.000Z</time>
      </trkpt>
      <trkpt lat="43.6665" lon="3.80603">
        <ele>146</ele>
        <time>2020-08-16T07:01:58.000Z</time>
      </trkpt>
      <trkpt lat="43.66646" lon="3.80597">
        <ele>146</ele>
        <time>2020-08-16T07:01:59.000Z</time>
      </trkpt>
      <trkpt lat="43.66642" lon="3.80593">
        <ele>146</ele>
        <time>2020-08-16T07:02:00.000Z</time>
      </trkpt>
      <trkpt lat="43.66639" lon="3.80588">
        <ele>146</ele>
        <time>2020-08-16T07:02:01.000Z</time>
      </trkpt>
      <trkpt lat="43.66635" lon="3.80584">
        <ele>146</ele>
        <time>2020-08-16T07:02:02.000Z</time>
      </trkpt>
      <trkpt lat="43.66632" lon="3.80579">
        <ele>146</ele>
        <time>2020-08-16T07:02:03.000Z</time>
      </trkpt>
      <trkpt lat="43.66629" lon="3.80575">
        <ele>146.02516879773</ele>
        <time>2020-08-16T07:02:04.000Z</time>
      </trkpt>
      <trkpt lat="43.66626" lon="3.80571">
        <ele>146.12197424882</ele>
        <time>2020-08-16T07:02:05.000Z</time>
      </trkpt>
      <trkpt lat="43.66622" lon="3.80567">
        <ele>146.21877969991</ele>
        <time>2020-08-16T07:02:06.000Z</time>
      </trkpt>
      <trkpt lat="43.66619" lon="3.80563">
        <ele>146.315585151</ele>
        <time>2020-08-16T07:02:07.000Z</time>
      </trkpt>
      <trkpt lat="43.66615" lon="3.80559">
        <ele>146.4123906021</ele>
        <time>2020-08-16T07:02:08.000Z</time>
      </trkpt>
      <trkpt lat="43.66612" lon="3.80555">
        <ele>146.50919605319</ele>
        <time>2020-08-16T07:02:09.000Z</time>
      </trkpt>
      <trkpt lat="43.66608" lon="3.80551">
        <ele>146.60600150428</ele>
        <time>2020-08-16T07:02:10.000Z</time>
      </trkpt>
      <trkpt lat="43.66604" lon="3.80546">
        <ele>146.70280695537</ele>
        <time>2020-08-16T07:02:11.000Z</time>
      </trkpt>
      <trkpt lat="43.66601" lon="3.80542">
        <ele>146.79961240646</ele>
        <time>2020-08-16T07:02:12.000Z</time>
      </trkpt>
      <trkpt lat="43.66597" lon="3.80538">
        <ele>146.89641785755</ele>
        <time>2020-08-16T07:02:13.000Z</time>
      </trkpt>
      <trkpt lat="43.66594" lon="3.80533">
        <ele>146.99322330865</ele>
        <time>2020-08-16T07:02:14.000Z</time>
      </trkpt>
      <trkpt lat="43.66591" lon="3.80529">
        <ele>147.28881907334</ele>
        <time>2020-08-16T07:02:15.000Z</time>
      </trkpt>
      <trkpt lat="43.66588" lon="3.80525">
        <ele>147.5993782853</ele>
        <time>2020-08-16T07:02:16.000Z</time>
      </trkpt>
      <trkpt lat="43.66586" lon="3.80522">
        <ele>147.90993749727</ele>
        <time>2020-08-16T07:02:17.000Z</time>
      </trkpt>
      <trkpt lat="43.66584" lon="3.80518">
        <ele>148.22049670923</ele>
        <time>2020-08-16T07:02:18.000Z</time>
      </trkpt>
      <trkpt lat="43.66581" lon="3.80515">
        <ele>148.5310559212</ele>
        <time>2020-08-16T07:02:19.000Z</time>
      </trkpt>
      <trkpt lat="43.66579" lon="3.80511">
        <ele>148.84161513316</ele>
        <time>2020-08-16T07:02:20.000Z</time>
      </trkpt>
      <trkpt lat="43.66576" lon="3.80508">
        <ele>149.15217434513</ele>
        <time>2020-08-16T07:02:21.000Z</time>
      </trkpt>
      <trkpt lat="43.66574" lon="3.80504">
        <ele>149.46273355709</ele>
        <time>2020-08-16T07:02:22.000Z</time>
      </trkpt>
      <trkpt lat="43.66572" lon="3.80501">
        <ele>149.77329276905</ele>
        <time>2020-08-16T07:02:23.000Z</time>
      </trkpt>
      <trkpt lat="43.6657" lon="3.80498">
        <ele>150.02700032</ele>
        <time>2020-08-16T07:02:24.000Z</time>
      </trkpt>
      <trkpt lat="43.66567" lon="3.80494">
        <ele>150.12700032</ele>
        <time>2020-08-16T07:02:25.000Z</time>
      </trkpt>
      <trkpt lat="43.66565" lon="3.80491">
        <ele>150.22700032</ele>
        <time>2020-08-16T07:02:26.000Z</time>
      </trkpt>
      <trkpt lat="43.66563" lon="3.80488">
        <ele>150.32700032</ele>
        <time>2020-08-16T07:02:27.000Z</time>
      </trkpt>
      <trkpt lat="43.66561" lon="3.80484">
        <ele>150.42700032</ele>
        <time>2020-08-16T07:02:28.000Z</time>
      </trkpt>
      <trkpt lat="43.66559" lon="3.80481">
        <ele>150.52700032</ele>
        <time>2020-08-16T07:02:29.000Z</time>
      </trkpt>
      <trkpt lat="43.66556" lon="3.80478">
        <ele>150.62700032</ele>
        <time>2020-08-16T07:02:30.000Z</time>
      </trkpt>
      <trkpt lat="43.66554" lon="3.80474">
        <ele>150.72700032</ele>
        <time>2020-08-16T07:02:31.000Z</time>
      </trkpt>
      <trkpt lat="43.66552" lon="3.80471">
        <ele>150.82700032</ele>
        <time>2020-08-16T07:02:32.000Z</time>
      </trkpt>
      <trkpt lat="43.66549" lon="3.80467">
        <ele>150.92700032</ele>
        <time>2020-08-16T07:02:33.000Z</time>
      </trkpt>
      <trkpt lat="43.66547" lon="3.80464">
        <ele>151.0262393862</ele>
        <time>2020-08-16T07:02:34.000Z</time>
      </trkpt>
      <trkpt lat="43.66544" lon="3.8046">
        <ele>151.12342114625</ele>
        <time>2020-08-16T07:02:35.000Z</time>
      </trkpt>
      <trkpt lat="43.66542" lon="3.80457">
        <ele>151.22060290631</ele>
        <time>2020-08-16T07:02:36.000Z</time>
      </trkpt>
      <trkpt lat="43.66539" lon="3.80453">
        <ele>151.31778466637</ele>
        <time>2020-08-16T07:02:37.000Z</time>
      </trkpt>
      <trkpt lat="43.66537" lon="3.8045">
        <ele>151.41496642642</ele>
        <time>2020-08-16T07:02:38.000Z</time>
      </trkpt>
      <trkpt lat="43.66535" lon="3.80446">
        <ele>151.51214818648</ele>
        <time>2020-08-16T07:02:39.000Z</time>
      </trkpt>
      <trkpt lat="43.66532" lon="3.80442">
        <ele>151.60932994654</ele>
        <time>2020-08-16T07:02:40.000Z</time>
      </trkpt>
      <trkpt lat="43.6653" lon="3.80439">
        <ele>151.70651170659</ele>
        <time>2020-08-16T07:02:41.000Z</time>
      </trkpt>
      <trkpt lat="43.66527" lon="3.80435">
        <ele>151.80369346665</ele>
        <time>2020-08-16T07:02:42.000Z</time>
      </trkpt>
      <trkpt lat="43.66525" lon="3.80431">
        <ele>151.90087522671</ele>
        <time>2020-08-16T07:02:43.000Z</time>
      </trkpt>
      <trkpt lat="43.66522" lon="3.80428">
        <ele>151.99805698676</ele>
        <time>2020-08-16T07:02:44.000Z</time>
      </trkpt>
      <trkpt lat="43.6652" lon="3.80424">
        <ele>152</ele>
        <time>2020-08-16T07:02:45.000Z</time>
      </trkpt>
      <trkpt lat="43.66517" lon="3.8042">
        <ele>152</ele>
        <time>2020-08-16T07:02:46.000Z</time>
      </trkpt>
      <trkpt lat="43.66514" lon="3.80416">
        <ele>152</ele>
        <time>2020-08-16T07:02:47.000Z</time>
      </trkpt>
      <trkpt lat="43.66511" lon="3.80412">
        <ele>152</ele>
        <time>2020-08-16T07:02:48.000Z</time>
      </trkpt>
      <trkpt lat="43.66508" lon="3.80408">
        <ele>152</ele>
        <time>2020-08-16T07:02:49.000Z</time>
      </trkpt>
      <trkpt lat="43.66505" lon="3.80405">
        <ele>152</ele>
        <time>2020-08-16T07:02:50.000Z</time>
      </trkpt>
      <trkpt lat="43.66501" lon="3.80403">
        <ele>152</ele>
        <time>2020-08-16T07:02:51.000Z</time>
      </trkpt>
      <trkpt lat="43.66497" lon="3.80401">
        <ele>152</ele>
        <time>2020-08-16T07:02:52.000Z</time>
      </trkpt>
      <trkpt lat="43.66493" lon="3.804">
        <ele>152</ele>
        <time>2020-08-16T07:02:53.000Z</time>
      </trkpt>
      <trkpt lat="43.66488" lon="3.80401">
        <ele>152</ele>
        <time>2020-08-16T07:02:54.000Z</time>
      </trkpt>
      <trkpt lat="43.66484" lon="3.80402">
        <ele>152</ele>
        <time>2020-08-16T07:02:55.000Z</time>
      </trkpt>
      <trkpt lat="43.6648" lon="3.80404">
        <ele>152</ele>
        <time>2020-08-16T07:02:56.000Z</time>
      </trkpt>
      <trkpt lat="43.66476" lon="3.80407">
        <ele>152</ele>
        <time>2020-08-16T07:02:57.000Z</time>
      </trkpt>
      <trkpt lat="43.66472" lon="3.8041">
        <ele>152</ele>
        <time>2020-08-16T07:02:58.000Z</time>
      </trkpt>
      <trkpt lat="43.66468" lon="3.80413">
        <ele>152</ele>
        <time>2020-08-16T07:02:59.000Z</time>
      </trkpt>
      <trkpt lat="43.66464" lon="3.80416">
        <ele>152</ele>
        <time>2020-08-16T07:03:00.000Z</time>
      </trkpt>
      <trkpt lat="43.6646" lon="3.8042">
        <ele>152</ele>
        <time>2020-08-16T07:03:01.000Z</time>
      </trkpt>
      <trkpt lat="43.66456" lon="3.80423">
        <ele>152</ele>
        <time>2020-08-16T07:03:02.000Z</time>
      </trkpt>
      <trkpt lat="43.66452" lon="3.80427">
        <ele>152</ele>
        <time>2020-08-16T07:03:03.000Z</time>
      </trkpt>
      <trkpt lat="43.66449" lon="3.8043">
        <ele>152.02700032</ele>
        <time>2020-08-16T07:03:04.000Z</time>
      </trkpt>
      <trkpt lat="43.66445" lon="3.80434">
        <ele>152.12700032</ele>
        <time>2020-08-16T07:03:05.000Z</time>
      </trkpt>
      <trkpt lat="43.66441" lon="3.80438">
        <ele>152.22700032</ele>
        <time>2020-08-16T07:03:06.000Z</time>
      </trkpt>
      <trkpt lat="43.66437" lon="3.80442">
        <ele>152.32700032</ele>
        <time>2020-08-16T07:03:07.000Z</time>
      </trkpt>
      <trkpt lat="43.66434" lon="3.80445">
        <ele>152.42700032</ele>
        <time>2020-08-16T07:03:08.000Z</time>
      </trkpt>
      <trkpt lat="43.6643" lon="3.80449">
        <ele>152.52700032</ele>
        <time>2020-08-16T07:03:09.000Z</time>
      </trkpt>
      <trkpt lat="43.66426" lon="3.80453">
        <ele>152.62700032</ele>
        <time>2020-08-16T07:03:10.000Z</time>
      </trkpt>
      <trkpt lat="43.66422" lon="3.80456">
        <ele>152.72700032</ele>
        <time>2020-08-16T07:03:11.000Z</time>
      </trkpt>
      <trkpt lat="43.66418" lon="3.80459">
        <ele>152.82700032</ele>
        <time>2020-08-16T07:03:12.000Z</time>
      </trkpt>
      <trkpt lat="43.66413" lon="3.80459">
        <ele>152.92700032</ele>
        <time>2020-08-16T07:03:13.000Z</time>
      </trkpt>
      <trkpt lat="43.66408" lon="3.80458">
        <ele>153</ele>
        <time>2020-08-16T07:03:14.000Z</time>
      </trkpt>
      <trkpt lat="43.66403" lon="3.80456">
        <ele>153</ele>
        <time>2020-08-16T07:03:15.000Z</time>
      </trkpt>
      <trkpt lat="43.66398" lon="3.80454">
        <ele>153</ele>
        <time>2020-08-16T07:03:16.000Z</time>
      </trkpt>
      <trkpt lat="43.66394" lon="3.80451">
        <ele>153</ele>
        <time>2020-08-16T07:03:17.000Z</time>
      </trkpt>
      <trkpt lat="43.66389" lon="3.80448">
        <ele>153</ele>
        <time>2020-08-16T07:03:18.000Z</time>
      </trkpt>
      <trkpt lat="43.66385" lon="3.80445">
        <ele>153</ele>
        <time>2020-08-16T07:03:19.000Z</time>
      </trkpt>
      <trkpt lat="43.6638" lon="3.80442">
        <ele>153</ele>
        <time>2020-08-16T07:03:20.000Z</time>
      </trkpt>
      <trkpt lat="43.66376" lon="3.80439">
        <ele>153</ele>
        <time>2020-08-16T07:03:21.000Z</time>
      </trkpt>
      <trkpt lat="43.66372" lon="3.80436">
        <ele>153</ele>
        <time>2020-08-16T07:03:22.000Z</time>
      </trkpt>
      <trkpt lat="43.66368" lon="3.80433">
        <ele>153</ele>
        <time>2020-08-16T07:03:23.000Z</time>
      </trkpt>
      <trkpt lat="43.66364" lon="3.8043">
        <ele>152.97299968</ele>
        <time>2020-08-16T07:03:24.000Z</time>
      </trkpt>
      <trkpt lat="43.6636" lon="3.80427">
        <ele>152.87299968</ele>
        <time>2020-08-16T07:03:25.000Z</time>
      </trkpt>
      <trkpt lat="43.66356" lon="3.80424">
        <ele>152.77299968</ele>
        <time>2020-08-16T07:03:26.000Z</time>
      </trkpt>
      <trkpt lat="43.66352" lon="3.80421">
        <ele>152.67299968</ele>
        <time>2020-08-16T07:03:27.000Z</time>
      </trkpt>
      <trkpt lat="43.66348" lon="3.80418">
        <ele>152.57299968</ele>
        <time>2020-08-16T07:03:28.000Z</time>
      </trkpt>
      <trkpt lat="43.66344" lon="3.80415">
        <ele>152.47299968</ele>
        <time>2020-08-16T07:03:29.000Z</time>
      </trkpt>
      <trkpt lat="43.6634" lon="3.80411">
        <ele>152.37299968</ele>
        <time>2020-08-16T07:03:30.000Z</time>
      </trkpt>
      <trkpt lat="43.66336" lon="3.80408">
        <ele>152.27299968</ele>
        <time>2020-08-16T07:03:31.000Z</time>
      </trkpt>
      <trkpt lat="43.66332" lon="3.80404">
        <ele>152.17299968</ele>
        <time>2020-08-16T07:03:32.000Z</time>
      </trkpt>
      <trkpt lat="43.66328" lon="3.804">
        <ele>152.07299968</ele>
        <time>2020-08-16T07:03:33.000Z</time>
      </trkpt>
      <trkpt lat="43.66324" lon="3.80397">
        <ele>152</ele>
        <time>2020-08-16T07:03:34.000Z</time>
      </trkpt>
      <trkpt lat="43.6632" lon="3.80393">
        <ele>152</ele>
        <time>2020-08-16T07:03:35.000Z</time>
      </trkpt>
      <trkpt lat="43.66315" lon="3.80389">
        <ele>152</ele>
        <time>2020-08-16T07:03:36.000Z</time>
      </trkpt>
      <trkpt lat="43.66311" lon="3.80385">
        <ele>152</ele>
        <time>2020-08-16T07:03:37.000Z</time>
      </trkpt>
      <trkpt lat="43.66306" lon="3.80381">
        <ele>152</ele>
        <time>2020-08-16T07:03:38.000Z</time>
      </trkpt>
      <trkpt lat="43.66302" lon="3.80377">
        <ele>152</ele>
        <time>2020-08-16T07:03:39.000Z</time>
      </trkpt>
      <trkpt lat="43.66298" lon="3.80373">
        <ele>152</ele>
        <time>2020-08-16T07:03:40.000Z</time>
      </trkpt>
      <trkpt lat="43.66294" lon="3.80369">
        <ele>152</ele>
        <time>2020-08-16T07:03:41.000Z</time>
      </trkpt>
      <trkpt lat="43.6629" lon="3.80365">
        <ele>152</ele>
        <time>2020-08-16T07:03:42.000Z</time>
      </trkpt>
      <trkpt lat="43.66286" lon="3.80361">
        <ele>152</ele>
        <time>2020-08-16T07:03:43.000Z</time>
      </trkpt>
      <trkpt lat="43.66282" lon="3.80358">
        <ele>152</ele>
        <time>2020-08-16T07:03:44.000Z</time>
      </trkpt>
      <trkpt lat="43.66277" lon="3.80354">
        <ele>152</ele>
        <time>2020-08-16T07:03:45.000Z</time>
      </trkpt>
      <trkpt lat="43.66273" lon="3.8035">
        <ele>152</ele>
        <time>2020-08-16T07:03:46.000Z</time>
      </trkpt>
      <trkpt lat="43.6627" lon="3.80346">
        <ele>152</ele>
        <time>2020-08-16T07:03:47.000Z</time>
      </trkpt>
      <trkpt lat="43.66266" lon="3.80343">
        <ele>152</ele>
        <time>2020-08-16T07:03:48.000Z</time>
      </trkpt>
      <trkpt lat="43.66262" lon="3.80339">
        <ele>152</ele>
        <time>2020-08-16T07:03:49.000Z</time>
      </trkpt>
      <trkpt lat="43.66258" lon="3.80335">
        <ele>152</ele>
        <time>2020-08-16T07:03:50.000Z</time>
      </trkpt>
      <trkpt lat="43.66254" lon="3.80331">
        <ele>152</ele>
        <time>2020-08-16T07:03:51.000Z</time>
      </trkpt>
      <trkpt lat="43.6625" lon="3.80328">
        <ele>152</ele>
        <time>2020-08-16T07:03:52.000Z</time>
      </trkpt>
      <trkpt lat="43.66245" lon="3.80324">
        <ele>152</ele>
        <time>2020-08-16T07:03:53.000Z</time>
      </trkpt>
      <trkpt lat="43.66241" lon="3.80321">
        <ele>152</ele>
        <time>2020-08-16T07:03:54.000Z</time>
      </trkpt>
      <trkpt lat="43.66237" lon="3.80317">
        <ele>151.89907249464</ele>
        <time>2020-08-16T07:03:55.000Z</time>
      </trkpt>
      <trkpt lat="43.66232" lon="3.80313">
        <ele>151.79608591684</ele>
        <time>2020-08-16T07:03:56.000Z</time>
      </trkpt>
      <trkpt lat="43.66228" lon="3.80309">
        <ele>151.69309933904</ele>
        <time>2020-08-16T07:03:57.000Z</time>
      </trkpt>
      <trkpt lat="43.66223" lon="3.80306">
        <ele>151.59011276124</ele>
        <time>2020-08-16T07:03:58.000Z</time>
      </trkpt>
      <trkpt lat="43.66219" lon="3.80302">
        <ele>151.48712618344</ele>
        <time>2020-08-16T07:03:59.000Z</time>
      </trkpt>
      <trkpt lat="43.66214" lon="3.80298">
        <ele>151.38413960564</ele>
        <time>2020-08-16T07:04:00.000Z</time>
      </trkpt>
      <trkpt lat="43.66209" lon="3.80294">
        <ele>151.28115302784</ele>
        <time>2020-08-16T07:04:01.000Z</time>
      </trkpt>
      <trkpt lat="43.66204" lon="3.8029">
        <ele>151.17816645004</ele>
        <time>2020-08-16T07:04:02.000Z</time>
      </trkpt>
      <trkpt lat="43.66199" lon="3.80286">
        <ele>151.07517987224</ele>
        <time>2020-08-16T07:04:03.000Z</time>
      </trkpt>
      <trkpt lat="43.66194" lon="3.80282">
        <ele>150.97378611338</ele>
        <time>2020-08-16T07:04:04.000Z</time>
      </trkpt>
      <trkpt lat="43.6619" lon="3.80278">
        <ele>150.87669879506</ele>
        <time>2020-08-16T07:04:05.000Z</time>
      </trkpt>
      <trkpt lat="43.66185" lon="3.80275">
        <ele>150.77961147675</ele>
        <time>2020-08-16T07:04:06.000Z</time>
      </trkpt>
      <trkpt lat="43.6618" lon="3.80271">
        <ele>150.68252415843</ele>
        <time>2020-08-16T07:04:07.000Z</time>
      </trkpt>
      <trkpt lat="43.66175" lon="3.80268">
        <ele>150.58543684012</ele>
        <time>2020-08-16T07:04:08.000Z</time>
      </trkpt>
      <trkpt lat="43.66171" lon="3.80264">
        <ele>150.4883495218</ele>
        <time>2020-08-16T07:04:09.000Z</time>
      </trkpt>
      <trkpt lat="43.66167" lon="3.80261">
        <ele>150.39126220349</ele>
        <time>2020-08-16T07:04:10.000Z</time>
      </trkpt>
      <trkpt lat="43.66163" lon="3.80257">
        <ele>150.29417488517</ele>
        <time>2020-08-16T07:04:11.000Z</time>
      </trkpt>
      <trkpt lat="43.66158" lon="3.80254">
        <ele>150.19708756686</ele>
        <time>2020-08-16T07:04:12.000Z</time>
      </trkpt>
      <trkpt lat="43.66154" lon="3.80251">
        <ele>150.10000024854</ele>
        <time>2020-08-16T07:04:13.000Z</time>
      </trkpt>
      <trkpt lat="43.6615" lon="3.80249">
        <ele>150.00291293023</ele>
        <time>2020-08-16T07:04:14.000Z</time>
      </trkpt>
      <trkpt lat="43.66146" lon="3.80246">
        <ele>149.90300032</ele>
        <time>2020-08-16T07:04:15.000Z</time>
      </trkpt>
      <trkpt lat="43.66142" lon="3.80243">
        <ele>149.80300032</ele>
        <time>2020-08-16T07:04:16.000Z</time>
      </trkpt>
      <trkpt lat="43.66138" lon="3.8024">
        <ele>149.70300032</ele>
        <time>2020-08-16T07:04:17.000Z</time>
      </trkpt>
      <trkpt lat="43.66134" lon="3.80237">
        <ele>149.60300032</ele>
        <time>2020-08-16T07:04:18.000Z</time>
      </trkpt>
      <trkpt lat="43.6613" lon="3.80234">
        <ele>149.50300032</ele>
        <time>2020-08-16T07:04:19.000Z</time>
      </trkpt>
      <trkpt lat="43.66126" lon="3.80231">
        <ele>149.40300032</ele>
        <time>2020-08-16T07:04:20.000Z</time>
      </trkpt>
      <trkpt lat="43.66122" lon="3.80227">
        <ele>149.30300032</ele>
        <time>2020-08-16T07:04:21.000Z</time>
      </trkpt>
      <trkpt lat="43.66118" lon="3.80224">
        <ele>149.20300032</ele>
        <time>2020-08-16T07:04:22.000Z</time>
      </trkpt>
      <trkpt lat="43.66113" lon="3.80221">
        <ele>149.10300032</ele>
        <time>2020-08-16T07:04:23.000Z</time>
      </trkpt>
      <trkpt lat="43.66109" lon="3.80219">
        <ele>149.00300032</ele>
        <time>2020-08-16T07:04:24.000Z</time>
      </trkpt>
      <trkpt lat="43.66103" lon="3.80218">
        <ele>148.90000026392</ele>
        <time>2020-08-16T07:04:25.000Z</time>
      </trkpt>
      <trkpt lat="43.66098" lon="3.80218">
        <ele>148.79690741239</ele>
        <time>2020-08-16T07:04:26.000Z</time>
      </trkpt>
      <trkpt lat="43.66092" lon="3.8022">
        <ele>148.69381456087</ele>
        <time>2020-08-16T07:04:27.000Z</time>
      </trkpt>
      <trkpt lat="43.66087" lon="3.80222">
        <ele>148.59072170934</ele>
        <time>2020-08-16T07:04:28.000Z</time>
      </trkpt>
      <trkpt lat="43.66082" lon="3.80226">
        <ele>148.48762885782</ele>
        <time>2020-08-16T07:04:29.000Z</time>
      </trkpt>
      <trkpt lat="43.66076" lon="3.8023">
        <ele>148.38453600629</ele>
        <time>2020-08-16T07:04:30.000Z</time>
      </trkpt>
      <trkpt lat="43.66071" lon="3.80233">
        <ele>148.28144315477</ele>
        <time>2020-08-16T07:04:31.000Z</time>
      </trkpt>
      <trkpt lat="43.66065" lon="3.80236">
        <ele>148.17835030324</ele>
        <time>2020-08-16T07:04:32.000Z</time>
      </trkpt>
      <trkpt lat="43.6606" lon="3.80238">
        <ele>148.07525745172</ele>
        <time>2020-08-16T07:04:33.000Z</time>
      </trkpt>
      <trkpt lat="43.66054" lon="3.8024">
        <ele>148</ele>
        <time>2020-08-16T07:04:34.000Z</time>
      </trkpt>
      <trkpt lat="43.66048" lon="3.8024">
        <ele>148</ele>
        <time>2020-08-16T07:04:35.000Z</time>
      </trkpt>
      <trkpt lat="43.66042" lon="3.80241">
        <ele>148</ele>
        <time>2020-08-16T07:04:36.000Z</time>
      </trkpt>
      <trkpt lat="43.66037" lon="3.80241">
        <ele>148</ele>
        <time>2020-08-16T07:04:37.000Z</time>
      </trkpt>
      <trkpt lat="43.66031" lon="3.80242">
        <ele>148</ele>
        <time>2020-08-16T07:04:38.000Z</time>
      </trkpt>
      <trkpt lat="43.66025" lon="3.80243">
        <ele>148</ele>
        <time>2020-08-16T07:04:39.000Z</time>
      </trkpt>
      <trkpt lat="43.66019" lon="3.80243">
        <ele>148</ele>
        <time>2020-08-16T07:04:40.000Z</time>
      </trkpt>
      <trkpt lat="43.66014" lon="3.80243">
        <ele>148</ele>
        <time>2020-08-16T07:04:41.000Z</time>
      </trkpt>
      <trkpt lat="43.66008" lon="3.80243">
        <ele>148</ele>
        <time>2020-08-16T07:04:42.000Z</time>
      </trkpt>
      <trkpt lat="43.66002" lon="3.80243">
        <ele>148</ele>
        <time>2020-08-16T07:04:43.000Z</time>
      </trkpt>
      <trkpt lat="43.65996" lon="3.80242">
        <ele>147.97345103784</ele>
        <time>2020-08-16T07:04:44.000Z</time>
      </trkpt>
      <trkpt lat="43.6599" lon="3.80241">
        <ele>147.87512271375</ele>
        <time>2020-08-16T07:04:45.000Z</time>
      </trkpt>
      <trkpt lat="43.65984" lon="3.80239">
        <ele>147.77679438965</ele>
        <time>2020-08-16T07:04:46.000Z</time>
      </trkpt>
      <trkpt lat="43.65979" lon="3.80237">
        <ele>147.67846606556</ele>
        <time>2020-08-16T07:04:47.000Z</time>
      </trkpt>
      <trkpt lat="43.65973" lon="3.80235">
        <ele>147.58013774146</ele>
        <time>2020-08-16T07:04:48.000Z</time>
      </trkpt>
      <trkpt lat="43.65968" lon="3.80232">
        <ele>147.48180941737</ele>
        <time>2020-08-16T07:04:49.000Z</time>
      </trkpt>
      <trkpt lat="43.65964" lon="3.80231">
        <ele>147.38348109327</ele>
        <time>2020-08-16T07:04:50.000Z</time>
      </trkpt>
      <trkpt lat="43.6596" lon="3.8023">
        <ele>147.28515276918</ele>
        <time>2020-08-16T07:04:51.000Z</time>
      </trkpt>
      <trkpt lat="43.65957" lon="3.80232">
        <ele>147.18682444508</ele>
        <time>2020-08-16T07:04:52.000Z</time>
      </trkpt>
      <trkpt lat="43.65954" lon="3.80235">
        <ele>147.08849612099</ele>
        <time>2020-08-16T07:04:53.000Z</time>
      </trkpt>
      <trkpt lat="43.65952" lon="3.8024">
        <ele>147</ele>
        <time>2020-08-16T07:04:54.000Z</time>
      </trkpt>
      <trkpt lat="43.6595" lon="3.80245">
        <ele>147</ele>
        <time>2020-08-16T07:04:55.000Z</time>
      </trkpt>
      <trkpt lat="43.6595" lon="3.80251">
        <ele>147</ele>
        <time>2020-08-16T07:04:56.000Z</time>
      </trkpt>
      <trkpt lat="43.6595" lon="3.80257">
        <ele>147</ele>
        <time>2020-08-16T07:04:57.000Z</time>
      </trkpt>
      <trkpt lat="43.65949" lon="3.80263">
        <ele>147</ele>
        <time>2020-08-16T07:04:58.000Z</time>
      </trkpt>
      <trkpt lat="43.65947" lon="3.80269">
        <ele>147</ele>
        <time>2020-08-16T07:04:59.000Z</time>
      </trkpt>
      <trkpt lat="43.65944" lon="3.80273">
        <ele>147</ele>
        <time>2020-08-16T07:05:00.000Z</time>
      </trkpt>
      <trkpt lat="43.6594" lon="3.80276">
        <ele>147</ele>
        <time>2020-08-16T07:05:01.000Z</time>
      </trkpt>
      <trkpt lat="43.65936" lon="3.80277">
        <ele>147</ele>
        <time>2020-08-16T07:05:02.000Z</time>
      </trkpt>
      <trkpt lat="43.65932" lon="3.80277">
        <ele>147</ele>
        <time>2020-08-16T07:05:03.000Z</time>
      </trkpt>
      <trkpt lat="43.65928" lon="3.80277">
        <ele>147</ele>
        <time>2020-08-16T07:05:04.000Z</time>
      </trkpt>
      <trkpt lat="43.65924" lon="3.80278">
        <ele>147</ele>
        <time>2020-08-16T07:05:05.000Z</time>
      </trkpt>
      <trkpt lat="43.6592" lon="3.80277">
        <ele>147</ele>
        <time>2020-08-16T07:05:06.000Z</time>
      </trkpt>
      <trkpt lat="43.65916" lon="3.80277">
        <ele>147</ele>
        <time>2020-08-16T07:05:07.000Z</time>
      </trkpt>
      <trkpt lat="43.65911" lon="3.80275">
        <ele>147</ele>
        <time>2020-08-16T07:05:08.000Z</time>
      </trkpt>
      <trkpt lat="43.65907" lon="3.80272">
        <ele>147</ele>
        <time>2020-08-16T07:05:09.000Z</time>
      </trkpt>
      <trkpt lat="43.65903" lon="3.80269">
        <ele>147</ele>
        <time>2020-08-16T07:05:10.000Z</time>
      </trkpt>
      <trkpt lat="43.659" lon="3.80264">
        <ele>147</ele>
        <time>2020-08-16T07:05:11.000Z</time>
      </trkpt>
      <trkpt lat="43.65896" lon="3.8026">
        <ele>147</ele>
        <time>2020-08-16T07:05:12.000Z</time>
      </trkpt>
      <trkpt lat="43.65894" lon="3.80255">
        <ele>147</ele>
        <time>2020-08-16T07:05:13.000Z</time>
      </trkpt>
      <trkpt lat="43.65891" lon="3.80251">
        <ele>147</ele>
        <time>2020-08-16T07:05:14.000Z</time>
      </trkpt>
      <trkpt lat="43.65888" lon="3.80246">
        <ele>147</ele>
        <time>2020-08-16T07:05:15.000Z</time>
      </trkpt>
      <trkpt lat="43.65885" lon="3.80242">
        <ele>147</ele>
        <time>2020-08-16T07:05:16.000Z</time>
      </trkpt>
      <trkpt lat="43.65882" lon="3.80237">
        <ele>147</ele>
        <time>2020-08-16T07:05:17.000Z</time>
      </trkpt>
      <trkpt lat="43.6588" lon="3.80233">
        <ele>147</ele>
        <time>2020-08-16T07:05:18.000Z</time>
      </trkpt>
      <trkpt lat="43.65877" lon="3.80229">
        <ele>147</ele>
        <time>2020-08-16T07:05:19.000Z</time>
      </trkpt>
      <trkpt lat="43.65874" lon="3.80225">
        <ele>147</ele>
        <time>2020-08-16T07:05:20.000Z</time>
      </trkpt>
      <trkpt lat="43.65871" lon="3.80221">
        <ele>147</ele>
        <time>2020-08-16T07:05:21.000Z</time>
      </trkpt>
      <trkpt lat="43.65867" lon="3.80218">
        <ele>147</ele>
        <time>2020-08-16T07:05:22.000Z</time>
      </trkpt>
      <trkpt lat="43.65864" lon="3.80214">
        <ele>147</ele>
        <time>2020-08-16T07:05:23.000Z</time>
      </trkpt>
      <trkpt lat="43.6586" lon="3.80211">
        <ele>147</ele>
        <time>2020-08-16T07:05:24.000Z</time>
      </trkpt>
      <trkpt lat="43.65856" lon="3.80208">
        <ele>147</ele>
        <time>2020-08-16T07:05:25.000Z</time>
      </trkpt>
      <trkpt lat="43.65852" lon="3.80206">
        <ele>147</ele>
        <time>2020-08-16T07:05:26.000Z</time>
      </trkpt>
      <trkpt lat="43.65848" lon="3.80204">
        <ele>147</ele>
        <time>2020-08-16T07:05:27.000Z</time>
      </trkpt>
      <trkpt lat="43.65844" lon="3.80202">
        <ele>147</ele>
        <time>2020-08-16T07:05:28.000Z</time>
      </trkpt>
      <trkpt lat="43.6584" lon="3.802">
        <ele>147</ele>
        <time>2020-08-16T07:05:29.000Z</time>
      </trkpt>
      <trkpt lat="43.65836" lon="3.80199">
        <ele>147</ele>
        <time>2020-08-16T07:05:30.000Z</time>
      </trkpt>
      <trkpt lat="43.65832" lon="3.80199">
        <ele>147</ele>
        <time>2020-08-16T07:05:31.000Z</time>
      </trkpt>
      <trkpt lat="43.65828" lon="3.80198">
        <ele>147</ele>
        <time>2020-08-16T07:05:32.000Z</time>
      </trkpt>
      <trkpt lat="43.65825" lon="3.80198">
        <ele>147</ele>
        <time>2020-08-16T07:05:33.000Z</time>
      </trkpt>
      <trkpt lat="43.65821" lon="3.80198">
        <ele>147.02794409393</ele>
        <time>2020-08-16T07:05:34.000Z</time>
      </trkpt>
      <trkpt lat="43.65817" lon="3.80198">
        <ele>147.12774442938</ele>
        <time>2020-08-16T07:05:35.000Z</time>
      </trkpt>
      <trkpt lat="43.65813" lon="3.80197">
        <ele>147.22754476484</ele>
        <time>2020-08-16T07:05:36.000Z</time>
      </trkpt>
      <trkpt lat="43.6581" lon="3.80197">
        <ele>147.3273451003</ele>
        <time>2020-08-16T07:05:37.000Z</time>
      </trkpt>
      <trkpt lat="43.65806" lon="3.80197">
        <ele>147.42714543575</ele>
        <time>2020-08-16T07:05:38.000Z</time>
      </trkpt>
      <trkpt lat="43.65803" lon="3.80197">
        <ele>147.52694577121</ele>
        <time>2020-08-16T07:05:39.000Z</time>
      </trkpt>
      <trkpt lat="43.65799" lon="3.80197">
        <ele>147.62674610667</ele>
        <time>2020-08-16T07:05:40.000Z</time>
      </trkpt>
      <trkpt lat="43.65796" lon="3.80196">
        <ele>147.72654644213</ele>
        <time>2020-08-16T07:05:41.000Z</time>
      </trkpt>
      <trkpt lat="43.65792" lon="3.80196">
        <ele>147.82634677758</ele>
        <time>2020-08-16T07:05:42.000Z</time>
      </trkpt>
      <trkpt lat="43.65789" lon="3.80196">
        <ele>147.92614711304</ele>
        <time>2020-08-16T07:05:43.000Z</time>
      </trkpt>
      <trkpt lat="43.65786" lon="3.80195">
        <ele>148.02602541039</ele>
        <time>2020-08-16T07:05:44.000Z</time>
      </trkpt>
      <trkpt lat="43.65782" lon="3.80195">
        <ele>148.12612560669</ele>
        <time>2020-08-16T07:05:45.000Z</time>
      </trkpt>
      <trkpt lat="43.65779" lon="3.80194">
        <ele>148.22622580298</ele>
        <time>2020-08-16T07:05:46.000Z</time>
      </trkpt>
      <trkpt lat="43.65775" lon="3.80194">
        <ele>148.32632599927</ele>
        <time>2020-08-16T07:05:47.000Z</time>
      </trkpt>
      <trkpt lat="43.65772" lon="3.80193">
        <ele>148.42642619556</ele>
        <time>2020-08-16T07:05:48.000Z</time>
      </trkpt>
      <trkpt lat="43.65768" lon="3.80193">
        <ele>148.52652639186</ele>
        <time>2020-08-16T07:05:49.000Z</time>
      </trkpt>
      <trkpt lat="43.65765" lon="3.80192">
        <ele>148.62662658815</ele>
        <time>2020-08-16T07:05:50.000Z</time>
      </trkpt>
      <trkpt lat="43.65761" lon="3.80191">
        <ele>148.72672678444</ele>
        <time>2020-08-16T07:05:51.000Z</time>
      </trkpt>
      <trkpt lat="43.65758" lon="3.80191">
        <ele>148.82682698074</ele>
        <time>2020-08-16T07:05:52.000Z</time>
      </trkpt>
      <trkpt lat="43.65754" lon="3.80191">
        <ele>148.92692717703</ele>
        <time>2020-08-16T07:05:53.000Z</time>
      </trkpt>
      <trkpt lat="43.65751" lon="3.8019">
        <ele>149</ele>
        <time>2020-08-16T07:05:54.000Z</time>
      </trkpt>
      <trkpt lat="43.65747" lon="3.8019">
        <ele>149</ele>
        <time>2020-08-16T07:05:55.000Z</time>
      </trkpt>
      <trkpt lat="43.65744" lon="3.80189">
        <ele>149</ele>
        <time>2020-08-16T07:05:56.000Z</time>
      </trkpt>
      <trkpt lat="43.65741" lon="3.80189">
        <ele>149</ele>
        <time>2020-08-16T07:05:57.000Z</time>
      </trkpt>
      <trkpt lat="43.65737" lon="3.80189">
        <ele>149</ele>
        <time>2020-08-16T07:05:58.000Z</time>
      </trkpt>
      <trkpt lat="43.65734" lon="3.80189">
        <ele>149</ele>
        <time>2020-08-16T07:05:59.000Z</time>
      </trkpt>
      <trkpt lat="43.6573" lon="3.80188">
        <ele>149</ele>
        <time>2020-08-16T07:06:00.000Z</time>
      </trkpt>
      <trkpt lat="43.65726" lon="3.80187">
        <ele>149</ele>
        <time>2020-08-16T07:06:01.000Z</time>
      </trkpt>
      <trkpt lat="43.65723" lon="3.80186">
        <ele>149</ele>
        <time>2020-08-16T07:06:02.000Z</time>
      </trkpt>
      <trkpt lat="43.65719" lon="3.80184">
        <ele>149</ele>
        <time>2020-08-16T07:06:03.000Z</time>
      </trkpt>
      <trkpt lat="43.65715" lon="3.80182">
        <ele>149</ele>
        <time>2020-08-16T07:06:04.000Z</time>
      </trkpt>
      <trkpt lat="43.65711" lon="3.8018">
        <ele>149</ele>
        <time>2020-08-16T07:06:05.000Z</time>
      </trkpt>
      <trkpt lat="43.65707" lon="3.80177">
        <ele>149</ele>
        <time>2020-08-16T07:06:06.000Z</time>
      </trkpt>
      <trkpt lat="43.65703" lon="3.80175">
        <ele>149</ele>
        <time>2020-08-16T07:06:07.000Z</time>
      </trkpt>
      <trkpt lat="43.65699" lon="3.80172">
        <ele>149</ele>
        <time>2020-08-16T07:06:08.000Z</time>
      </trkpt>
      <trkpt lat="43.65695" lon="3.8017">
        <ele>149</ele>
        <time>2020-08-16T07:06:09.000Z</time>
      </trkpt>
      <trkpt lat="43.6569" lon="3.80168">
        <ele>149</ele>
        <time>2020-08-16T07:06:10.000Z</time>
      </trkpt>
      <trkpt lat="43.65686" lon="3.80165">
        <ele>149</ele>
        <time>2020-08-16T07:06:11.000Z</time>
      </trkpt>
      <trkpt lat="43.65681" lon="3.80163">
        <ele>149</ele>
        <time>2020-08-16T07:06:12.000Z</time>
      </trkpt>
      <trkpt lat="43.65677" lon="3.80161">
        <ele>149</ele>
        <time>2020-08-16T07:06:13.000Z</time>
      </trkpt>
      <trkpt lat="43.65672" lon="3.80159">
        <ele>148.97202796309</ele>
        <time>2020-08-16T07:06:14.000Z</time>
      </trkpt>
      <trkpt lat="43.65668" lon="3.80156">
        <ele>148.87212783125</ele>
        <time>2020-08-16T07:06:15.000Z</time>
      </trkpt>
      <trkpt lat="43.65664" lon="3.80154">
        <ele>148.77222769941</ele>
        <time>2020-08-16T07:06:16.000Z</time>
      </trkpt>
      <trkpt lat="43.65659" lon="3.80153">
        <ele>148.67232756758</ele>
        <time>2020-08-16T07:06:17.000Z</time>
      </trkpt>
      <trkpt lat="43.65655" lon="3.80151">
        <ele>148.57242743574</ele>
        <time>2020-08-16T07:06:18.000Z</time>
      </trkpt>
      <trkpt lat="43.65651" lon="3.80149">
        <ele>148.4725273039</ele>
        <time>2020-08-16T07:06:19.000Z</time>
      </trkpt>
      <trkpt lat="43.65646" lon="3.80148">
        <ele>148.37262717207</ele>
        <time>2020-08-16T07:06:20.000Z</time>
      </trkpt>
      <trkpt lat="43.65642" lon="3.80146">
        <ele>148.27272704023</ele>
        <time>2020-08-16T07:06:21.000Z</time>
      </trkpt>
      <trkpt lat="43.65638" lon="3.80144">
        <ele>148.1728269084</ele>
        <time>2020-08-16T07:06:22.000Z</time>
      </trkpt>
      <trkpt lat="43.65635" lon="3.80142">
        <ele>148.07292677656</ele>
        <time>2020-08-16T07:06:23.000Z</time>
      </trkpt>
      <trkpt lat="43.65631" lon="3.80141">
        <ele>148.02626490272</ele>
        <time>2020-08-16T07:06:24.000Z</time>
      </trkpt>
      <trkpt lat="43.65629" lon="3.80141">
        <ele>148.12354116732</ele>
        <time>2020-08-16T07:06:25.000Z</time>
      </trkpt>
      <trkpt lat="43.65626" lon="3.80142">
        <ele>148.22081743191</ele>
        <time>2020-08-16T07:06:26.000Z</time>
      </trkpt>
      <trkpt lat="43.65623" lon="3.80143">
        <ele>148.3180936965</ele>
        <time>2020-08-16T07:06:27.000Z</time>
      </trkpt>
      <trkpt lat="43.6562" lon="3.80144">
        <ele>148.41536996109</ele>
        <time>2020-08-16T07:06:28.000Z</time>
      </trkpt>
      <trkpt lat="43.65616" lon="3.80145">
        <ele>148.51264622568</ele>
        <time>2020-08-16T07:06:29.000Z</time>
      </trkpt>
      <trkpt lat="43.65613" lon="3.80147">
        <ele>148.60992249027</ele>
        <time>2020-08-16T07:06:30.000Z</time>
      </trkpt>
      <trkpt lat="43.6561" lon="3.80149">
        <ele>148.70719875486</ele>
        <time>2020-08-16T07:06:31.000Z</time>
      </trkpt>
      <trkpt lat="43.65607" lon="3.80149">
        <ele>148.80447501945</ele>
        <time>2020-08-16T07:06:32.000Z</time>
      </trkpt>
      <trkpt lat="43.65603" lon="3.80147">
        <ele>148.90175128405</ele>
        <time>2020-08-16T07:06:33.000Z</time>
      </trkpt>
      <trkpt lat="43.656" lon="3.80144">
        <ele>148.99902754864</ele>
        <time>2020-08-16T07:06:34.000Z</time>
      </trkpt>
      <trkpt lat="43.65597" lon="3.80141">
        <ele>149</ele>
        <time>2020-08-16T07:06:35.000Z</time>
      </trkpt>
      <trkpt lat="43.65593" lon="3.80137">
        <ele>149</ele>
        <time>2020-08-16T07:06:36.000Z</time>
      </trkpt>
      <trkpt lat="43.6559" lon="3.80133">
        <ele>149</ele>
        <time>2020-08-16T07:06:37.000Z</time>
      </trkpt>
      <trkpt lat="43.65587" lon="3.80129">
        <ele>149</ele>
        <time>2020-08-16T07:06:38.000Z</time>
      </trkpt>
      <trkpt lat="43.65585" lon="3.80124">
        <ele>149</ele>
        <time>2020-08-16T07:06:39.000Z</time>
      </trkpt>
      <trkpt lat="43.65583" lon="3.80119">
        <ele>149</ele>
        <time>2020-08-16T07:06:40.000Z</time>
      </trkpt>
      <trkpt lat="43.65581" lon="3.80115">
        <ele>149</ele>
        <time>2020-08-16T07:06:41.000Z</time>
      </trkpt>
      <trkpt lat="43.65579" lon="3.80111">
        <ele>149</ele>
        <time>2020-08-16T07:06:42.000Z</time>
      </trkpt>
      <trkpt lat="43.65577" lon="3.80108">
        <ele>149</ele>
        <time>2020-08-16T07:06:43.000Z</time>
      </trkpt>
      <trkpt lat="43.65574" lon="3.80106">
        <ele>149.02507491276</ele>
        <time>2020-08-16T07:06:44.000Z</time>
      </trkpt>
      <trkpt lat="43.65571" lon="3.80104">
        <ele>149.12537584766</ele>
        <time>2020-08-16T07:06:45.000Z</time>
      </trkpt>
      <trkpt lat="43.65569" lon="3.80102">
        <ele>149.22567678256</ele>
        <time>2020-08-16T07:06:46.000Z</time>
      </trkpt>
      <trkpt lat="43.65567" lon="3.80098">
        <ele>149.32597771747</ele>
        <time>2020-08-16T07:06:47.000Z</time>
      </trkpt>
      <trkpt lat="43.65566" lon="3.80094">
        <ele>149.42627865237</ele>
        <time>2020-08-16T07:06:48.000Z</time>
      </trkpt>
      <trkpt lat="43.65564" lon="3.8009">
        <ele>149.52657958727</ele>
        <time>2020-08-16T07:06:49.000Z</time>
      </trkpt>
      <trkpt lat="43.65562" lon="3.80086">
        <ele>149.62688052217</ele>
        <time>2020-08-16T07:06:50.000Z</time>
      </trkpt>
      <trkpt lat="43.65559" lon="3.80083">
        <ele>149.72718145707</ele>
        <time>2020-08-16T07:06:51.000Z</time>
      </trkpt>
      <trkpt lat="43.65556" lon="3.80079">
        <ele>149.82748239197</ele>
        <time>2020-08-16T07:06:52.000Z</time>
      </trkpt>
      <trkpt lat="43.65554" lon="3.80075">
        <ele>149.92778332687</ele>
        <time>2020-08-16T07:06:53.000Z</time>
      </trkpt>
      <trkpt lat="43.65551" lon="3.80071">
        <ele>150.02723735409</ele>
        <time>2020-08-16T07:06:54.000Z</time>
      </trkpt>
      <trkpt lat="43.65549" lon="3.80067">
        <ele>150.12451361868</ele>
        <time>2020-08-16T07:06:55.000Z</time>
      </trkpt>
      <trkpt lat="43.65547" lon="3.80063">
        <ele>150.22178988327</ele>
        <time>2020-08-16T07:06:56.000Z</time>
      </trkpt>
      <trkpt lat="43.65544" lon="3.80059">
        <ele>150.31906614786</ele>
        <time>2020-08-16T07:06:57.000Z</time>
      </trkpt>
      <trkpt lat="43.65542" lon="3.80056">
        <ele>150.41634241245</ele>
        <time>2020-08-16T07:06:58.000Z</time>
      </trkpt>
      <trkpt lat="43.6554" lon="3.80052">
        <ele>150.51361867704</ele>
        <time>2020-08-16T07:06:59.000Z</time>
      </trkpt>
      <trkpt lat="43.65537" lon="3.80048">
        <ele>150.61089494163</ele>
        <time>2020-08-16T07:07:00.000Z</time>
      </trkpt>
      <trkpt lat="43.65535" lon="3.80044">
        <ele>150.70817120623</ele>
        <time>2020-08-16T07:07:01.000Z</time>
      </trkpt>
      <trkpt lat="43.65532" lon="3.8004">
        <ele>150.80544747082</ele>
        <time>2020-08-16T07:07:02.000Z</time>
      </trkpt>
      <trkpt lat="43.6553" lon="3.80036">
        <ele>150.90272373541</ele>
        <time>2020-08-16T07:07:03.000Z</time>
      </trkpt>
      <trkpt lat="43.65527" lon="3.80032">
        <ele>151</ele>
        <time>2020-08-16T07:07:04.000Z</time>
      </trkpt>
      <trkpt lat="43.65524" lon="3.80027">
        <ele>151</ele>
        <time>2020-08-16T07:07:05.000Z</time>
      </trkpt>
      <trkpt lat="43.65522" lon="3.80022">
        <ele>151</ele>
        <time>2020-08-16T07:07:06.000Z</time>
      </trkpt>
      <trkpt lat="43.65519" lon="3.80018">
        <ele>151</ele>
        <time>2020-08-16T07:07:07.000Z</time>
      </trkpt>
      <trkpt lat="43.65516" lon="3.80014">
        <ele>151</ele>
        <time>2020-08-16T07:07:08.000Z</time>
      </trkpt>
      <trkpt lat="43.65513" lon="3.80009">
        <ele>151</ele>
        <time>2020-08-16T07:07:09.000Z</time>
      </trkpt>
      <trkpt lat="43.65511" lon="3.80005">
        <ele>151</ele>
        <time>2020-08-16T07:07:10.000Z</time>
      </trkpt>
      <trkpt lat="43.65508" lon="3.80001">
        <ele>151</ele>
        <time>2020-08-16T07:07:11.000Z</time>
      </trkpt>
      <trkpt lat="43.65506" lon="3.79997">
        <ele>151</ele>
        <time>2020-08-16T07:07:12.000Z</time>
      </trkpt>
      <trkpt lat="43.65503" lon="3.79993">
        <ele>151</ele>
        <time>2020-08-16T07:07:13.000Z</time>
      </trkpt>
      <trkpt lat="43.655" lon="3.79989">
        <ele>151</ele>
        <time>2020-08-16T07:07:14.000Z</time>
      </trkpt>
      <trkpt lat="43.65498" lon="3.79985">
        <ele>151</ele>
        <time>2020-08-16T07:07:15.000Z</time>
      </trkpt>
      <trkpt lat="43.65495" lon="3.79981">
        <ele>151</ele>
        <time>2020-08-16T07:07:16.000Z</time>
      </trkpt>
      <trkpt lat="43.65492" lon="3.79977">
        <ele>151</ele>
        <time>2020-08-16T07:07:17.000Z</time>
      </trkpt>
      <trkpt lat="43.6549" lon="3.79973">
        <ele>151</ele>
        <time>2020-08-16T07:07:18.000Z</time>
      </trkpt>
      <trkpt lat="43.65487" lon="3.79969">
        <ele>151</ele>
        <time>2020-08-16T07:07:19.000Z</time>
      </trkpt>
      <trkpt lat="43.65484" lon="3.79964">
        <ele>151</ele>
        <time>2020-08-16T07:07:20.000Z</time>
      </trkpt>
      <trkpt lat="43.65481" lon="3.7996">
        <ele>151</ele>
        <time>2020-08-16T07:07:21.000Z</time>
      </trkpt>
      <trkpt lat="43.65478" lon="3.79956">
        <ele>151</ele>
        <time>2020-08-16T07:07:22.000Z</time>
      </trkpt>
      <trkpt lat="43.65475" lon="3.79951">
        <ele>151</ele>
        <time>2020-08-16T07:07:23.000Z</time>
      </trkpt>
      <trkpt lat="43.65472" lon="3.79947">
        <ele>151</ele>
        <time>2020-08-16T07:07:24.000Z</time>
      </trkpt>
      <trkpt lat="43.65469" lon="3.79943">
        <ele>151</ele>
        <time>2020-08-16T07:07:25.000Z</time>
      </trkpt>
      <trkpt lat="43.65466" lon="3.79938">
        <ele>151</ele>
        <time>2020-08-16T07:07:26.000Z</time>
      </trkpt>
      <trkpt lat="43.65463" lon="3.79934">
        <ele>151</ele>
        <time>2020-08-16T07:07:27.000Z</time>
      </trkpt>
      <trkpt lat="43.6546" lon="3.7993">
        <ele>151</ele>
        <time>2020-08-16T07:07:28.000Z</time>
      </trkpt>
      <trkpt lat="43.65457" lon="3.79925">
        <ele>151</ele>
        <time>2020-08-16T07:07:29.000Z</time>
      </trkpt>
      <trkpt lat="43.65454" lon="3.79921">
        <ele>151</ele>
        <time>2020-08-16T07:07:30.000Z</time>
      </trkpt>
      <trkpt lat="43.6545" lon="3.79917">
        <ele>151</ele>
        <time>2020-08-16T07:07:31.000Z</time>
      </trkpt>
      <trkpt lat="43.65447" lon="3.79913">
        <ele>151</ele>
        <time>2020-08-16T07:07:32.000Z</time>
      </trkpt>
      <trkpt lat="43.65443" lon="3.79909">
        <ele>151</ele>
        <time>2020-08-16T07:07:33.000Z</time>
      </trkpt>
      <trkpt lat="43.65439" lon="3.79905">
        <ele>151</ele>
        <time>2020-08-16T07:07:34.000Z</time>
      </trkpt>
      <trkpt lat="43.65436" lon="3.79901">
        <ele>151</ele>
        <time>2020-08-16T07:07:35.000Z</time>
      </trkpt>
      <trkpt lat="43.65432" lon="3.79898">
        <ele>151</ele>
        <time>2020-08-16T07:07:36.000Z</time>
      </trkpt>
      <trkpt lat="43.65428" lon="3.79894">
        <ele>151</ele>
        <time>2020-08-16T07:07:37.000Z</time>
      </trkpt>
      <trkpt lat="43.65424" lon="3.79891">
        <ele>151</ele>
        <time>2020-08-16T07:07:38.000Z</time>
      </trkpt>
      <trkpt lat="43.65421" lon="3.79888">
        <ele>151</ele>
        <time>2020-08-16T07:07:39.000Z</time>
      </trkpt>
      <trkpt lat="43.65417" lon="3.79884">
        <ele>151</ele>
        <time>2020-08-16T07:07:40.000Z</time>
      </trkpt>
      <trkpt lat="43.65414" lon="3.79881">
        <ele>151</ele>
        <time>2020-08-16T07:07:41.000Z</time>
      </trkpt>
      <trkpt lat="43.6541" lon="3.79878">
        <ele>151</ele>
        <time>2020-08-16T07:07:42.000Z</time>
      </trkpt>
      <trkpt lat="43.65407" lon="3.79875">
        <ele>151</ele>
        <time>2020-08-16T07:07:43.000Z</time>
      </trkpt>
      <trkpt lat="43.65404" lon="3.79872">
        <ele>151.02797203691</ele>
        <time>2020-08-16T07:07:44.000Z</time>
      </trkpt>
      <trkpt lat="43.654" lon="3.7987">
        <ele>151.12787216875</ele>
        <time>2020-08-16T07:07:45.000Z</time>
      </trkpt>
      <trkpt lat="43.65397" lon="3.79867">
        <ele>151.22777230059</ele>
        <time>2020-08-16T07:07:46.000Z</time>
      </trkpt>
      <trkpt lat="43.65394" lon="3.79864">
        <ele>151.32767243242</ele>
        <time>2020-08-16T07:07:47.000Z</time>
      </trkpt>
      <trkpt lat="43.65391" lon="3.79861">
        <ele>151.42757256426</ele>
        <time>2020-08-16T07:07:48.000Z</time>
      </trkpt>
      <trkpt lat="43.65388" lon="3.79859">
        <ele>151.5274726961</ele>
        <time>2020-08-16T07:07:49.000Z</time>
      </trkpt>
      <trkpt lat="43.65385" lon="3.79856">
        <ele>151.62737282793</ele>
        <time>2020-08-16T07:07:50.000Z</time>
      </trkpt>
      <trkpt lat="43.65382" lon="3.79854">
        <ele>151.72727295977</ele>
        <time>2020-08-16T07:07:51.000Z</time>
      </trkpt>
      <trkpt lat="43.65379" lon="3.79852">
        <ele>151.8271730916</ele>
        <time>2020-08-16T07:07:52.000Z</time>
      </trkpt>
      <trkpt lat="43.65376" lon="3.7985">
        <ele>151.92707322344</ele>
        <time>2020-08-16T07:07:53.000Z</time>
      </trkpt>
      <trkpt lat="43.65374" lon="3.79847">
        <ele>151.97373509728</ele>
        <time>2020-08-16T07:07:54.000Z</time>
      </trkpt>
      <trkpt lat="43.65371" lon="3.79845">
        <ele>151.87645883268</ele>
        <time>2020-08-16T07:07:55.000Z</time>
      </trkpt>
      <trkpt lat="43.65368" lon="3.79842">
        <ele>151.77918256809</ele>
        <time>2020-08-16T07:07:56.000Z</time>
      </trkpt>
      <trkpt lat="43.65366" lon="3.7984">
        <ele>151.6819063035</ele>
        <time>2020-08-16T07:07:57.000Z</time>
      </trkpt>
      <trkpt lat="43.65363" lon="3.79837">
        <ele>151.58463003891</ele>
        <time>2020-08-16T07:07:58.000Z</time>
      </trkpt>
      <trkpt lat="43.6536" lon="3.79835">
        <ele>151.48735377432</ele>
        <time>2020-08-16T07:07:59.000Z</time>
      </trkpt>
      <trkpt lat="43.65357" lon="3.79832">
        <ele>151.39007750973</ele>
        <time>2020-08-16T07:08:00.000Z</time>
      </trkpt>
      <trkpt lat="43.65354" lon="3.79829">
        <ele>151.29280124514</ele>
        <time>2020-08-16T07:08:01.000Z</time>
      </trkpt>
      <trkpt lat="43.65351" lon="3.79826">
        <ele>151.19552498055</ele>
        <time>2020-08-16T07:08:02.000Z</time>
      </trkpt>
      <trkpt lat="43.65348" lon="3.79823">
        <ele>151.09824871595</ele>
        <time>2020-08-16T07:08:03.000Z</time>
      </trkpt>
      <trkpt lat="43.65344" lon="3.7982">
        <ele>151.00097245136</ele>
        <time>2020-08-16T07:08:04.000Z</time>
      </trkpt>
      <trkpt lat="43.65341" lon="3.79817">
        <ele>150.79629563786</ele>
        <time>2020-08-16T07:08:05.000Z</time>
      </trkpt>
      <trkpt lat="43.65337" lon="3.79814">
        <ele>150.59053432099</ele>
        <time>2020-08-16T07:08:06.000Z</time>
      </trkpt>
      <trkpt lat="43.65334" lon="3.79811">
        <ele>150.38477300412</ele>
        <time>2020-08-16T07:08:07.000Z</time>
      </trkpt>
      <trkpt lat="43.6533" lon="3.79808">
        <ele>150.17901168724</ele>
        <time>2020-08-16T07:08:08.000Z</time>
      </trkpt>
      <trkpt lat="43.65327" lon="3.79806">
        <ele>149.97325037037</ele>
        <time>2020-08-16T07:08:09.000Z</time>
      </trkpt>
      <trkpt lat="43.65324" lon="3.79803">
        <ele>149.7674890535</ele>
        <time>2020-08-16T07:08:10.000Z</time>
      </trkpt>
      <trkpt lat="43.65321" lon="3.798">
        <ele>149.56172773663</ele>
        <time>2020-08-16T07:08:11.000Z</time>
      </trkpt>
      <trkpt lat="43.65318" lon="3.79797">
        <ele>149.35596641975</ele>
        <time>2020-08-16T07:08:12.000Z</time>
      </trkpt>
      <trkpt lat="43.65315" lon="3.79795">
        <ele>149.15020510288</ele>
        <time>2020-08-16T07:08:13.000Z</time>
      </trkpt>
      <trkpt lat="43.65312" lon="3.79792">
        <ele>148.91899904</ele>
        <time>2020-08-16T07:08:14.000Z</time>
      </trkpt>
      <trkpt lat="43.65309" lon="3.7979">
        <ele>148.61899904</ele>
        <time>2020-08-16T07:08:15.000Z</time>
      </trkpt>
      <trkpt lat="43.65307" lon="3.79788">
        <ele>148.31899904</ele>
        <time>2020-08-16T07:08:16.000Z</time>
      </trkpt>
      <trkpt lat="43.65304" lon="3.79785">
        <ele>148.01899904</ele>
        <time>2020-08-16T07:08:17.000Z</time>
      </trkpt>
      <trkpt lat="43.65302" lon="3.79782">
        <ele>147.71899904</ele>
        <time>2020-08-16T07:08:18.000Z</time>
      </trkpt>
      <trkpt lat="43.653" lon="3.79778">
        <ele>147.41899904</ele>
        <time>2020-08-16T07:08:19.000Z</time>
      </trkpt>
      <trkpt lat="43.65298" lon="3.79773">
        <ele>147.11899904</ele>
        <time>2020-08-16T07:08:20.000Z</time>
      </trkpt>
      <trkpt lat="43.65294" lon="3.7977">
        <ele>146.81899904</ele>
        <time>2020-08-16T07:08:21.000Z</time>
      </trkpt>
      <trkpt lat="43.65291" lon="3.79768">
        <ele>146.51899904</ele>
        <time>2020-08-16T07:08:22.000Z</time>
      </trkpt>
      <trkpt lat="43.65287" lon="3.79767">
        <ele>146.21899904</ele>
        <time>2020-08-16T07:08:23.000Z</time>
      </trkpt>
      <trkpt lat="43.65284" lon="3.79766">
        <ele>145.91908003765</ele>
        <time>2020-08-16T07:08:24.000Z</time>
      </trkpt>
      <trkpt lat="43.65281" lon="3.79764">
        <ele>145.61938002537</ele>
        <time>2020-08-16T07:08:25.000Z</time>
      </trkpt>
      <trkpt lat="43.65278" lon="3.79762">
        <ele>145.31968001309</ele>
        <time>2020-08-16T07:08:26.000Z</time>
      </trkpt>
      <trkpt lat="43.65276" lon="3.79761">
        <ele>145.01998000082</ele>
        <time>2020-08-16T07:08:27.000Z</time>
      </trkpt>
      <trkpt lat="43.65275" lon="3.7976">
        <ele>144.72027998854</ele>
        <time>2020-08-16T07:08:28.000Z</time>
      </trkpt>
      <trkpt lat="43.65273" lon="3.79758">
        <ele>144.42057997627</ele>
        <time>2020-08-16T07:08:29.000Z</time>
      </trkpt>
      <trkpt lat="43.6527" lon="3.79756">
        <ele>144.12087996399</ele>
        <time>2020-08-16T07:08:30.000Z</time>
      </trkpt>
      <trkpt lat="43.65268" lon="3.79753">
        <ele>143.82117995172</ele>
        <time>2020-08-16T07:08:31.000Z</time>
      </trkpt>
      <trkpt lat="43.65266" lon="3.79748">
        <ele>143.52147993944</ele>
        <time>2020-08-16T07:08:32.000Z</time>
      </trkpt>
      <trkpt lat="43.65265" lon="3.79743">
        <ele>143.22177992716</ele>
        <time>2020-08-16T07:08:33.000Z</time>
      </trkpt>
      <trkpt lat="43.65264" lon="3.79737">
        <ele>142.92192376882</ele>
        <time>2020-08-16T07:08:34.000Z</time>
      </trkpt>
      <trkpt lat="43.65263" lon="3.79731">
        <ele>142.62162317994</ele>
        <time>2020-08-16T07:08:35.000Z</time>
      </trkpt>
      <trkpt lat="43.65262" lon="3.79726">
        <ele>142.32132259106</ele>
        <time>2020-08-16T07:08:36.000Z</time>
      </trkpt>
      <trkpt lat="43.6526" lon="3.79723">
        <ele>142.02102200218</ele>
        <time>2020-08-16T07:08:37.000Z</time>
      </trkpt>
      <trkpt lat="43.65257" lon="3.7972">
        <ele>141.72072141331</ele>
        <time>2020-08-16T07:08:38.000Z</time>
      </trkpt>
      <trkpt lat="43.65254" lon="3.79717">
        <ele>141.42042082443</ele>
        <time>2020-08-16T07:08:39.000Z</time>
      </trkpt>
      <trkpt lat="43.6525" lon="3.79714">
        <ele>141.12012023555</ele>
        <time>2020-08-16T07:08:40.000Z</time>
      </trkpt>
      <trkpt lat="43.65246" lon="3.79711">
        <ele>140.81981964667</ele>
        <time>2020-08-16T07:08:41.000Z</time>
      </trkpt>
      <trkpt lat="43.65243" lon="3.79707">
        <ele>140.5195190578</ele>
        <time>2020-08-16T07:08:42.000Z</time>
      </trkpt>
      <trkpt lat="43.6524" lon="3.79703">
        <ele>140.21921846892</ele>
        <time>2020-08-16T07:08:43.000Z</time>
      </trkpt>
      <trkpt lat="43.65238" lon="3.79699">
        <ele>139.91891798393</ele>
        <time>2020-08-16T07:08:44.000Z</time>
      </trkpt>
      <trkpt lat="43.65234" lon="3.79694">
        <ele>139.61861777982</ele>
        <time>2020-08-16T07:08:45.000Z</time>
      </trkpt>
      <trkpt lat="43.65231" lon="3.79691">
        <ele>139.31831757571</ele>
        <time>2020-08-16T07:08:46.000Z</time>
      </trkpt>
      <trkpt lat="43.65227" lon="3.79687">
        <ele>139.01801737161</ele>
        <time>2020-08-16T07:08:47.000Z</time>
      </trkpt>
      <trkpt lat="43.65223" lon="3.79683">
        <ele>138.7177171675</ele>
        <time>2020-08-16T07:08:48.000Z</time>
      </trkpt>
      <trkpt lat="43.6522" lon="3.7968">
        <ele>138.41741696339</ele>
        <time>2020-08-16T07:08:49.000Z</time>
      </trkpt>
      <trkpt lat="43.65216" lon="3.79676">
        <ele>138.11711675928</ele>
        <time>2020-08-16T07:08:50.000Z</time>
      </trkpt>
      <trkpt lat="43.65214" lon="3.79672">
        <ele>137.81681655517</ele>
        <time>2020-08-16T07:08:51.000Z</time>
      </trkpt>
      <trkpt lat="43.65211" lon="3.79668">
        <ele>137.51651635107</ele>
        <time>2020-08-16T07:08:52.000Z</time>
      </trkpt>
      <trkpt lat="43.6521" lon="3.79663">
        <ele>137.21621614696</ele>
        <time>2020-08-16T07:08:53.000Z</time>
      </trkpt>
      <trkpt lat="43.65208" lon="3.79656">
        <ele>136.91633466135</ele>
        <time>2020-08-16T07:08:54.000Z</time>
      </trkpt>
      <trkpt lat="43.65208" lon="3.79648">
        <ele>136.61752988048</ele>
        <time>2020-08-16T07:08:55.000Z</time>
      </trkpt>
      <trkpt lat="43.65209" lon="3.79641">
        <ele>136.3187250996</ele>
        <time>2020-08-16T07:08:56.000Z</time>
      </trkpt>
      <trkpt lat="43.6521" lon="3.79634">
        <ele>136.01992031873</ele>
        <time>2020-08-16T07:08:57.000Z</time>
      </trkpt>
      <trkpt lat="43.6521" lon="3.79628">
        <ele>135.72111553785</ele>
        <time>2020-08-16T07:08:58.000Z</time>
      </trkpt>
      <trkpt lat="43.6521" lon="3.79622">
        <ele>135.42231075697</ele>
        <time>2020-08-16T07:08:59.000Z</time>
      </trkpt>
      <trkpt lat="43.65209" lon="3.79617">
        <ele>135.1235059761</ele>
        <time>2020-08-16T07:09:00.000Z</time>
      </trkpt>
      <trkpt lat="43.65208" lon="3.79612">
        <ele>134.82470119522</ele>
        <time>2020-08-16T07:09:01.000Z</time>
      </trkpt>
      <trkpt lat="43.65207" lon="3.79607">
        <ele>134.52589641434</ele>
        <time>2020-08-16T07:09:02.000Z</time>
      </trkpt>
      <trkpt lat="43.65206" lon="3.79603">
        <ele>134.22709163347</ele>
        <time>2020-08-16T07:09:03.000Z</time>
      </trkpt>
      <trkpt lat="43.65205" lon="3.796">
        <ele>133.92771084337</ele>
        <time>2020-08-16T07:09:04.000Z</time>
      </trkpt>
      <trkpt lat="43.65203" lon="3.79599">
        <ele>133.6265060241</ele>
        <time>2020-08-16T07:09:05.000Z</time>
      </trkpt>
      <trkpt lat="43.652" lon="3.79598">
        <ele>133.32530120482</ele>
        <time>2020-08-16T07:09:06.000Z</time>
      </trkpt>
      <trkpt lat="43.65197" lon="3.79597">
        <ele>133.02409638554</ele>
        <time>2020-08-16T07:09:07.000Z</time>
      </trkpt>
      <trkpt lat="43.65193" lon="3.79596">
        <ele>132.72289156626</ele>
        <time>2020-08-16T07:09:08.000Z</time>
      </trkpt>
      <trkpt lat="43.6519" lon="3.79594">
        <ele>132.42168674699</ele>
        <time>2020-08-16T07:09:09.000Z</time>
      </trkpt>
      <trkpt lat="43.65186" lon="3.79593">
        <ele>132.12048192771</ele>
        <time>2020-08-16T07:09:10.000Z</time>
      </trkpt>
      <trkpt lat="43.65183" lon="3.79591">
        <ele>131.81927710843</ele>
        <time>2020-08-16T07:09:11.000Z</time>
      </trkpt>
      <trkpt lat="43.6518" lon="3.79589">
        <ele>131.51807228916</ele>
        <time>2020-08-16T07:09:12.000Z</time>
      </trkpt>
      <trkpt lat="43.65176" lon="3.79587">
        <ele>131.21686746988</ele>
        <time>2020-08-16T07:09:13.000Z</time>
      </trkpt>
      <trkpt lat="43.65173" lon="3.79584">
        <ele>130.88811185234</ele>
        <time>2020-08-16T07:09:14.000Z</time>
      </trkpt>
      <trkpt lat="43.6517" lon="3.79582">
        <ele>130.488511325</ele>
        <time>2020-08-16T07:09:15.000Z</time>
      </trkpt>
      <trkpt lat="43.65167" lon="3.79579">
        <ele>130.08891079765</ele>
        <time>2020-08-16T07:09:16.000Z</time>
      </trkpt>
      <trkpt lat="43.65164" lon="3.79576">
        <ele>129.68931027031</ele>
        <time>2020-08-16T07:09:17.000Z</time>
      </trkpt>
      <trkpt lat="43.65161" lon="3.79572">
        <ele>129.28970974296</ele>
        <time>2020-08-16T07:09:18.000Z</time>
      </trkpt>
      <trkpt lat="43.65159" lon="3.79568">
        <ele>128.89010921562</ele>
        <time>2020-08-16T07:09:19.000Z</time>
      </trkpt>
      <trkpt lat="43.65158" lon="3.79564">
        <ele>128.49050868828</ele>
        <time>2020-08-16T07:09:20.000Z</time>
      </trkpt>
      <trkpt lat="43.65156" lon="3.79561">
        <ele>128.09090816093</ele>
        <time>2020-08-16T07:09:21.000Z</time>
      </trkpt>
      <trkpt lat="43.65155" lon="3.79557">
        <ele>127.69130763358</ele>
        <time>2020-08-16T07:09:22.000Z</time>
      </trkpt>
      <trkpt lat="43.65154" lon="3.79554">
        <ele>127.29170710624</ele>
        <time>2020-08-16T07:09:23.000Z</time>
      </trkpt>
      <trkpt lat="43.65153" lon="3.7955">
        <ele>126.89199872</ele>
        <time>2020-08-16T07:09:24.000Z</time>
      </trkpt>
      <trkpt lat="43.65152" lon="3.79547">
        <ele>126.49199872</ele>
        <time>2020-08-16T07:09:25.000Z</time>
      </trkpt>
      <trkpt lat="43.65151" lon="3.79543">
        <ele>126.09199872</ele>
        <time>2020-08-16T07:09:26.000Z</time>
      </trkpt>
      <trkpt lat="43.6515" lon="3.79541">
        <ele>125.69199872</ele>
        <time>2020-08-16T07:09:27.000Z</time>
      </trkpt>
      <trkpt lat="43.65148" lon="3.79539">
        <ele>125.29199872</ele>
        <time>2020-08-16T07:09:28.000Z</time>
      </trkpt>
      <trkpt lat="43.65145" lon="3.79536">
        <ele>124.89199872</ele>
        <time>2020-08-16T07:09:29.000Z</time>
      </trkpt>
      <trkpt lat="43.65141" lon="3.79533">
        <ele>124.49199872</ele>
        <time>2020-08-16T07:09:30.000Z</time>
      </trkpt>
      <trkpt lat="43.65137" lon="3.79531">
        <ele>124.09199872</ele>
        <time>2020-08-16T07:09:31.000Z</time>
      </trkpt>
      <trkpt lat="43.65133" lon="3.79526">
        <ele>123.69199872</ele>
        <time>2020-08-16T07:09:32.000Z</time>
      </trkpt>
      <trkpt lat="43.6513" lon="3.79521">
        <ele>123.29199872</ele>
        <time>2020-08-16T07:09:33.000Z</time>
      </trkpt>
      <trkpt lat="43.65127" lon="3.79517">
        <ele>122.89199872</ele>
        <time>2020-08-16T07:09:34.000Z</time>
      </trkpt>
      <trkpt lat="43.65125" lon="3.79511">
        <ele>122.49199872</ele>
        <time>2020-08-16T07:09:35.000Z</time>
      </trkpt>
      <trkpt lat="43.65124" lon="3.79506">
        <ele>122.09199872</ele>
        <time>2020-08-16T07:09:36.000Z</time>
      </trkpt>
      <trkpt lat="43.65122" lon="3.795">
        <ele>121.69199872</ele>
        <time>2020-08-16T07:09:37.000Z</time>
      </trkpt>
      <trkpt lat="43.65121" lon="3.79495">
        <ele>121.29199872</ele>
        <time>2020-08-16T07:09:38.000Z</time>
      </trkpt>
      <trkpt lat="43.6512" lon="3.79489">
        <ele>120.89199872</ele>
        <time>2020-08-16T07:09:39.000Z</time>
      </trkpt>
      <trkpt lat="43.65118" lon="3.79484">
        <ele>120.49199872</ele>
        <time>2020-08-16T07:09:40.000Z</time>
      </trkpt>
      <trkpt lat="43.65117" lon="3.79478">
        <ele>120.09199872</ele>
        <time>2020-08-16T07:09:41.000Z</time>
      </trkpt>
      <trkpt lat="43.65115" lon="3.79472">
        <ele>119.69199872</ele>
        <time>2020-08-16T07:09:42.000Z</time>
      </trkpt>
      <trkpt lat="43.65113" lon="3.79465">
        <ele>119.29199872</ele>
        <time>2020-08-16T07:09:43.000Z</time>
      </trkpt>
      <trkpt lat="43.65112" lon="3.79457">
        <ele>118.94757222675</ele>
        <time>2020-08-16T07:09:44.000Z</time>
      </trkpt>
      <trkpt lat="43.65109" lon="3.7945">
        <ele>118.75339759012</ele>
        <time>2020-08-16T07:09:45.000Z</time>
      </trkpt>
      <trkpt lat="43.65108" lon="3.79443">
        <ele>118.55922295349</ele>
        <time>2020-08-16T07:09:46.000Z</time>
      </trkpt>
      <trkpt lat="43.65106" lon="3.79435">
        <ele>118.36504831686</ele>
        <time>2020-08-16T07:09:47.000Z</time>
      </trkpt>
      <trkpt lat="43.65104" lon="3.79428">
        <ele>118.17087368023</ele>
        <time>2020-08-16T07:09:48.000Z</time>
      </trkpt>
      <trkpt lat="43.65104" lon="3.79421">
        <ele>117.9766990436</ele>
        <time>2020-08-16T07:09:49.000Z</time>
      </trkpt>
      <trkpt lat="43.65103" lon="3.79413">
        <ele>117.78252440697</ele>
        <time>2020-08-16T07:09:50.000Z</time>
      </trkpt>
      <trkpt lat="43.65104" lon="3.79406">
        <ele>117.58834977035</ele>
        <time>2020-08-16T07:09:51.000Z</time>
      </trkpt>
      <trkpt lat="43.65104" lon="3.79399">
        <ele>117.39417513372</ele>
        <time>2020-08-16T07:09:52.000Z</time>
      </trkpt>
      <trkpt lat="43.65106" lon="3.79393">
        <ele>117.20000049709</ele>
        <time>2020-08-16T07:09:53.000Z</time>
      </trkpt>
      <trkpt lat="43.65107" lon="3.79388">
        <ele>117.00582586046</ele>
        <time>2020-08-16T07:09:54.000Z</time>
      </trkpt>
      <trkpt lat="43.65108" lon="3.79384">
        <ele>116.90000026392</ele>
        <time>2020-08-16T07:09:55.000Z</time>
      </trkpt>
      <trkpt lat="43.65109" lon="3.7938">
        <ele>116.79690741239</ele>
        <time>2020-08-16T07:09:56.000Z</time>
      </trkpt>
      <trkpt lat="43.6511" lon="3.79377">
        <ele>116.69381456087</ele>
        <time>2020-08-16T07:09:57.000Z</time>
      </trkpt>
      <trkpt lat="43.6511" lon="3.79373">
        <ele>116.59072170934</ele>
        <time>2020-08-16T07:09:58.000Z</time>
      </trkpt>
      <trkpt lat="43.6511" lon="3.79369">
        <ele>116.48762885782</ele>
        <time>2020-08-16T07:09:59.000Z</time>
      </trkpt>
      <trkpt lat="43.6511" lon="3.79363">
        <ele>116.38453600629</ele>
        <time>2020-08-16T07:10:00.000Z</time>
      </trkpt>
      <trkpt lat="43.6511" lon="3.79358">
        <ele>116.28144315477</ele>
        <time>2020-08-16T07:10:01.000Z</time>
      </trkpt>
      <trkpt lat="43.65111" lon="3.79353">
        <ele>116.17835030324</ele>
        <time>2020-08-16T07:10:02.000Z</time>
      </trkpt>
      <trkpt lat="43.65113" lon="3.79349">
        <ele>116.07525745172</ele>
        <time>2020-08-16T07:10:03.000Z</time>
      </trkpt>
      <trkpt lat="43.65115" lon="3.79346">
        <ele>115.97373509728</ele>
        <time>2020-08-16T07:10:04.000Z</time>
      </trkpt>
      <trkpt lat="43.65116" lon="3.79344">
        <ele>115.87645883269</ele>
        <time>2020-08-16T07:10:05.000Z</time>
      </trkpt>
      <trkpt lat="43.65117" lon="3.79341">
        <ele>115.77918256809</ele>
        <time>2020-08-16T07:10:06.000Z</time>
      </trkpt>
      <trkpt lat="43.65118" lon="3.79338">
        <ele>115.6819063035</ele>
        <time>2020-08-16T07:10:07.000Z</time>
      </trkpt>
      <trkpt lat="43.65117" lon="3.79335">
        <ele>115.58463003891</ele>
        <time>2020-08-16T07:10:08.000Z</time>
      </trkpt>
      <trkpt lat="43.65115" lon="3.79332">
        <ele>115.48735377432</ele>
        <time>2020-08-16T07:10:09.000Z</time>
      </trkpt>
      <trkpt lat="43.65113" lon="3.79329">
        <ele>115.39007750973</ele>
        <time>2020-08-16T07:10:10.000Z</time>
      </trkpt>
      <trkpt lat="43.65112" lon="3.79326">
        <ele>115.29280124514</ele>
        <time>2020-08-16T07:10:11.000Z</time>
      </trkpt>
      <trkpt lat="43.65111" lon="3.79324">
        <ele>115.19552498055</ele>
        <time>2020-08-16T07:10:12.000Z</time>
      </trkpt>
      <trkpt lat="43.6511" lon="3.79321">
        <ele>115.09824871595</ele>
        <time>2020-08-16T07:10:13.000Z</time>
      </trkpt>
      <trkpt lat="43.65107" lon="3.79317">
        <ele>114.79959449393</ele>
        <time>2020-08-16T07:10:15.000Z</time>
      </trkpt>
      <trkpt lat="43.65105" lon="3.79314">
        <ele>114.59716534413</ele>
        <time>2020-08-16T07:10:16.000Z</time>
      </trkpt>
      <trkpt lat="43.65104" lon="3.7931">
        <ele>114.39473619433</ele>
        <time>2020-08-16T07:10:17.000Z</time>
      </trkpt>
      <trkpt lat="43.65103" lon="3.79307">
        <ele>114.19230704453</ele>
        <time>2020-08-16T07:10:18.000Z</time>
      </trkpt>
      <trkpt lat="43.65102" lon="3.79304">
        <ele>113.98987789474</ele>
        <time>2020-08-16T07:10:19.000Z</time>
      </trkpt>
      <trkpt lat="43.65102" lon="3.79301">
        <ele>113.78744874494</ele>
        <time>2020-08-16T07:10:20.000Z</time>
      </trkpt>
      <trkpt lat="43.65101" lon="3.79298">
        <ele>113.58501959514</ele>
        <time>2020-08-16T07:10:21.000Z</time>
      </trkpt>
      <trkpt lat="43.651" lon="3.79295">
        <ele>113.38259044534</ele>
        <time>2020-08-16T07:10:22.000Z</time>
      </trkpt>
      <trkpt lat="43.65099" lon="3.7929">
        <ele>113.18016129555</ele>
        <time>2020-08-16T07:10:23.000Z</time>
      </trkpt>
      <trkpt lat="43.65098" lon="3.79285">
        <ele>112.96649651996</ele>
        <time>2020-08-16T07:10:24.000Z</time>
      </trkpt>
      <trkpt lat="43.65097" lon="3.79281">
        <ele>112.66192828888</ele>
        <time>2020-08-16T07:10:25.000Z</time>
      </trkpt>
      <trkpt lat="43.65096" lon="3.79276">
        <ele>112.3573600578</ele>
        <time>2020-08-16T07:10:26.000Z</time>
      </trkpt>
      <trkpt lat="43.65096" lon="3.79271">
        <ele>112.05279182672</ele>
        <time>2020-08-16T07:10:27.000Z</time>
      </trkpt>
      <trkpt lat="43.65095" lon="3.79267">
        <ele>111.74822359564</ele>
        <time>2020-08-16T07:10:28.000Z</time>
      </trkpt>
      <trkpt lat="43.65095" lon="3.79263">
        <ele>111.44365536456</ele>
        <time>2020-08-16T07:10:29.000Z</time>
      </trkpt>
      <trkpt lat="43.65095" lon="3.79259">
        <ele>111.13908713348</ele>
        <time>2020-08-16T07:10:30.000Z</time>
      </trkpt>
      <trkpt lat="43.65095" lon="3.79255">
        <ele>110.8345189024</ele>
        <time>2020-08-16T07:10:31.000Z</time>
      </trkpt>
      <trkpt lat="43.65094" lon="3.7925">
        <ele>110.52995067132</ele>
        <time>2020-08-16T07:10:32.000Z</time>
      </trkpt>
      <trkpt lat="43.65093" lon="3.79247">
        <ele>110.22538244024</ele>
        <time>2020-08-16T07:10:33.000Z</time>
      </trkpt>
      <trkpt lat="43.65092" lon="3.79243">
        <ele>109.94794917921</ele>
        <time>2020-08-16T07:10:34.000Z</time>
      </trkpt>
      <trkpt lat="43.65092" lon="3.7924">
        <ele>109.74774878662</ele>
        <time>2020-08-16T07:10:35.000Z</time>
      </trkpt>
      <trkpt lat="43.65092" lon="3.79237">
        <ele>109.54754839404</ele>
        <time>2020-08-16T07:10:36.000Z</time>
      </trkpt>
      <trkpt lat="43.65091" lon="3.79234">
        <ele>109.34734800146</ele>
        <time>2020-08-16T07:10:37.000Z</time>
      </trkpt>
      <trkpt lat="43.65091" lon="3.7923">
        <ele>109.14714760887</ele>
        <time>2020-08-16T07:10:38.000Z</time>
      </trkpt>
      <trkpt lat="43.65091" lon="3.79227">
        <ele>108.94694721629</ele>
        <time>2020-08-16T07:10:39.000Z</time>
      </trkpt>
      <trkpt lat="43.65092" lon="3.79225">
        <ele>108.7467468237</ele>
        <time>2020-08-16T07:10:40.000Z</time>
      </trkpt>
      <trkpt lat="43.65093" lon="3.79223">
        <ele>108.54654643112</ele>
        <time>2020-08-16T07:10:41.000Z</time>
      </trkpt>
      <trkpt lat="43.65093" lon="3.7922">
        <ele>108.34634603853</ele>
        <time>2020-08-16T07:10:42.000Z</time>
      </trkpt>
      <trkpt lat="43.65094" lon="3.79218">
        <ele>108.14614564595</ele>
        <time>2020-08-16T07:10:43.000Z</time>
      </trkpt>
      <trkpt lat="43.65096" lon="3.79216">
        <ele>107.89221436026</ele>
        <time>2020-08-16T07:10:44.000Z</time>
      </trkpt>
      <trkpt lat="43.65096" lon="3.79213">
        <ele>107.49301301843</ele>
        <time>2020-08-16T07:10:45.000Z</time>
      </trkpt>
      <trkpt lat="43.65098" lon="3.7921">
        <ele>107.09381167661</ele>
        <time>2020-08-16T07:10:46.000Z</time>
      </trkpt>
      <trkpt lat="43.651" lon="3.79208">
        <ele>106.69461033478</ele>
        <time>2020-08-16T07:10:47.000Z</time>
      </trkpt>
      <trkpt lat="43.65102" lon="3.79205">
        <ele>106.29540899295</ele>
        <time>2020-08-16T07:10:48.000Z</time>
      </trkpt>
      <trkpt lat="43.65104" lon="3.79201">
        <ele>105.89620765112</ele>
        <time>2020-08-16T07:10:49.000Z</time>
      </trkpt>
      <trkpt lat="43.65106" lon="3.79197">
        <ele>105.4970063093</ele>
        <time>2020-08-16T07:10:50.000Z</time>
      </trkpt>
      <trkpt lat="43.65109" lon="3.79192">
        <ele>105.09780496747</ele>
        <time>2020-08-16T07:10:51.000Z</time>
      </trkpt>
      <trkpt lat="43.65111" lon="3.79185">
        <ele>104.69860362564</ele>
        <time>2020-08-16T07:10:52.000Z</time>
      </trkpt>
      <trkpt lat="43.65114" lon="3.79177">
        <ele>104.29940228381</ele>
        <time>2020-08-16T07:10:53.000Z</time>
      </trkpt>
      <trkpt lat="43.65118" lon="3.7917">
        <ele>103.82465143064</ele>
        <time>2020-08-16T07:10:54.000Z</time>
      </trkpt>
      <trkpt lat="43.65124" lon="3.79163">
        <ele>103.12324817523</ele>
        <time>2020-08-16T07:10:55.000Z</time>
      </trkpt>
      <trkpt lat="43.65129" lon="3.79156">
        <ele>102.42184491982</ele>
        <time>2020-08-16T07:10:56.000Z</time>
      </trkpt>
      <trkpt lat="43.65135" lon="3.79151">
        <ele>101.72044166441</ele>
        <time>2020-08-16T07:10:57.000Z</time>
      </trkpt>
      <trkpt lat="43.6514" lon="3.79146">
        <ele>101.019038409</ele>
        <time>2020-08-16T07:10:58.000Z</time>
      </trkpt>
      <trkpt lat="43.65145" lon="3.79141">
        <ele>100.31763515359</ele>
        <time>2020-08-16T07:10:59.000Z</time>
      </trkpt>
      <trkpt lat="43.65151" lon="3.79136">
        <ele>99.616231898185</ele>
        <time>2020-08-16T07:11:00.000Z</time>
      </trkpt>
      <trkpt lat="43.65157" lon="3.79132">
        <ele>98.914828642776</ele>
        <time>2020-08-16T07:11:01.000Z</time>
      </trkpt>
      <trkpt lat="43.65163" lon="3.79129">
        <ele>98.213425387367</ele>
        <time>2020-08-16T07:11:02.000Z</time>
      </trkpt>
      <trkpt lat="43.6517" lon="3.79126">
        <ele>97.512022131958</ele>
        <time>2020-08-16T07:11:03.000Z</time>
      </trkpt>
      <trkpt lat="43.65177" lon="3.79124">
        <ele>96.814157264906</ele>
        <time>2020-08-16T07:11:04.000Z</time>
      </trkpt>
      <trkpt lat="43.65184" lon="3.79121">
        <ele>96.125858996239</ele>
        <time>2020-08-16T07:11:05.000Z</time>
      </trkpt>
      <trkpt lat="43.6519" lon="3.79118">
        <ele>95.437560727573</ele>
        <time>2020-08-16T07:11:06.000Z</time>
      </trkpt>
      <trkpt lat="43.65197" lon="3.79115">
        <ele>94.749262458907</ele>
        <time>2020-08-16T07:11:07.000Z</time>
      </trkpt>
      <trkpt lat="43.65204" lon="3.79112">
        <ele>94.06096419024</ele>
        <time>2020-08-16T07:11:08.000Z</time>
      </trkpt>
      <trkpt lat="43.65211" lon="3.7911">
        <ele>93.372665921574</ele>
        <time>2020-08-16T07:11:09.000Z</time>
      </trkpt>
      <trkpt lat="43.65218" lon="3.79109">
        <ele>92.684367652908</ele>
        <time>2020-08-16T07:11:10.000Z</time>
      </trkpt>
      <trkpt lat="43.65225" lon="3.79108">
        <ele>91.996069384241</ele>
        <time>2020-08-16T07:11:11.000Z</time>
      </trkpt>
      <trkpt lat="43.65231" lon="3.79107">
        <ele>91.307771115575</ele>
        <time>2020-08-16T07:11:12.000Z</time>
      </trkpt>
      <trkpt lat="43.65237" lon="3.79107">
        <ele>90.619472846909</ele>
        <time>2020-08-16T07:11:13.000Z</time>
      </trkpt>
      <trkpt lat="43.65243" lon="3.79107">
        <ele>89.938966206925</ele>
        <time>2020-08-16T07:11:14.000Z</time>
      </trkpt>
      <trkpt lat="43.65248" lon="3.79109">
        <ele>89.328589212051</ele>
        <time>2020-08-16T07:11:15.000Z</time>
      </trkpt>
      <trkpt lat="43.65253" lon="3.79109">
        <ele>88.718212217176</ele>
        <time>2020-08-16T07:11:16.000Z</time>
      </trkpt>
      <trkpt lat="43.65258" lon="3.79108">
        <ele>88.107835222301</ele>
        <time>2020-08-16T07:11:17.000Z</time>
      </trkpt>
      <trkpt lat="43.65264" lon="3.79107">
        <ele>87.497458227426</ele>
        <time>2020-08-16T07:11:18.000Z</time>
      </trkpt>
      <trkpt lat="43.6527" lon="3.79105">
        <ele>86.887081232551</ele>
        <time>2020-08-16T07:11:19.000Z</time>
      </trkpt>
      <trkpt lat="43.65275" lon="3.79104">
        <ele>86.276704237677</ele>
        <time>2020-08-16T07:11:20.000Z</time>
      </trkpt>
      <trkpt lat="43.6528" lon="3.79102">
        <ele>85.666327242802</ele>
        <time>2020-08-16T07:11:21.000Z</time>
      </trkpt>
      <trkpt lat="43.65286" lon="3.79102">
        <ele>85.055950247927</ele>
        <time>2020-08-16T07:11:22.000Z</time>
      </trkpt>
      <trkpt lat="43.6529" lon="3.79101">
        <ele>84.445573253052</ele>
        <time>2020-08-16T07:11:23.000Z</time>
      </trkpt>
      <trkpt lat="43.65294" lon="3.791">
        <ele>84</ele>
        <time>2020-08-16T07:11:24.000Z</time>
      </trkpt>
      <trkpt lat="43.65298" lon="3.79098">
        <ele>84</ele>
        <time>2020-08-16T07:11:25.000Z</time>
      </trkpt>
      <trkpt lat="43.65301" lon="3.79097">
        <ele>84</ele>
        <time>2020-08-16T07:11:26.000Z</time>
      </trkpt>
      <trkpt lat="43.65304" lon="3.79095">
        <ele>84</ele>
        <time>2020-08-16T07:11:27.000Z</time>
      </trkpt>
      <trkpt lat="43.65307" lon="3.79094">
        <ele>84</ele>
        <time>2020-08-16T07:11:28.000Z</time>
      </trkpt>
      <trkpt lat="43.65311" lon="3.79092">
        <ele>84</ele>
        <time>2020-08-16T07:11:29.000Z</time>
      </trkpt>
      <trkpt lat="43.65315" lon="3.7909">
        <ele>84</ele>
        <time>2020-08-16T07:11:30.000Z</time>
      </trkpt>
      <trkpt lat="43.65319" lon="3.79087">
        <ele>84</ele>
        <time>2020-08-16T07:11:31.000Z</time>
      </trkpt>
      <trkpt lat="43.65323" lon="3.79087">
        <ele>84</ele>
        <time>2020-08-16T07:11:32.000Z</time>
      </trkpt>
      <trkpt lat="43.65328" lon="3.79088">
        <ele>84</ele>
        <time>2020-08-16T07:11:33.000Z</time>
      </trkpt>
      <trkpt lat="43.65333" lon="3.7909">
        <ele>83.923002889734</ele>
        <time>2020-08-16T07:11:34.000Z</time>
      </trkpt>
      <trkpt lat="43.65337" lon="3.79091">
        <ele>83.637831787072</ele>
        <time>2020-08-16T07:11:35.000Z</time>
      </trkpt>
      <trkpt lat="43.65342" lon="3.79093">
        <ele>83.352660684411</ele>
        <time>2020-08-16T07:11:36.000Z</time>
      </trkpt>
      <trkpt lat="43.65347" lon="3.79095">
        <ele>83.067489581749</ele>
        <time>2020-08-16T07:11:37.000Z</time>
      </trkpt>
      <trkpt lat="43.65353" lon="3.79098">
        <ele>82.782318479087</ele>
        <time>2020-08-16T07:11:38.000Z</time>
      </trkpt>
      <trkpt lat="43.65357" lon="3.79101">
        <ele>82.497147376426</ele>
        <time>2020-08-16T07:11:39.000Z</time>
      </trkpt>
      <trkpt lat="43.65362" lon="3.79103">
        <ele>82.211976273764</ele>
        <time>2020-08-16T07:11:40.000Z</time>
      </trkpt>
      <trkpt lat="43.65367" lon="3.79105">
        <ele>81.926805171103</ele>
        <time>2020-08-16T07:11:41.000Z</time>
      </trkpt>
      <trkpt lat="43.65371" lon="3.79106">
        <ele>81.641634068441</ele>
        <time>2020-08-16T07:11:42.000Z</time>
      </trkpt>
      <trkpt lat="43.65376" lon="3.79107">
        <ele>81.356462965779</ele>
        <time>2020-08-16T07:11:43.000Z</time>
      </trkpt>
      <trkpt lat="43.65381" lon="3.79107">
        <ele>81.071291863118</ele>
        <time>2020-08-16T07:11:44.000Z</time>
      </trkpt>
      <trkpt lat="43.65385" lon="3.79108">
        <ele>80.920802223171</ele>
        <time>2020-08-16T07:11:45.000Z</time>
      </trkpt>
      <trkpt lat="43.65389" lon="3.7911">
        <ele>80.815205637945</ele>
        <time>2020-08-16T07:11:46.000Z</time>
      </trkpt>
      <trkpt lat="43.65392" lon="3.79113">
        <ele>80.709609052719</ele>
        <time>2020-08-16T07:11:47.000Z</time>
      </trkpt>
      <trkpt lat="43.65395" lon="3.79115">
        <ele>80.604012467493</ele>
        <time>2020-08-16T07:11:48.000Z</time>
      </trkpt>
      <trkpt lat="43.65398" lon="3.79117">
        <ele>80.498415882267</ele>
        <time>2020-08-16T07:11:49.000Z</time>
      </trkpt>
      <trkpt lat="43.65401" lon="3.79118">
        <ele>80.392819297041</ele>
        <time>2020-08-16T07:11:50.000Z</time>
      </trkpt>
      <trkpt lat="43.65404" lon="3.79119">
        <ele>80.287222711815</ele>
        <time>2020-08-16T07:11:51.000Z</time>
      </trkpt>
      <trkpt lat="43.65407" lon="3.7912">
        <ele>80.181626126589</ele>
        <time>2020-08-16T07:11:52.000Z</time>
      </trkpt>
      <trkpt lat="43.65411" lon="3.79119">
        <ele>80.076029541363</ele>
        <time>2020-08-16T07:11:53.000Z</time>
      </trkpt>
      <trkpt lat="43.65415" lon="3.79119">
        <ele>80</ele>
        <time>2020-08-16T07:11:54.000Z</time>
      </trkpt>
      <trkpt lat="43.65418" lon="3.7912">
        <ele>80</ele>
        <time>2020-08-16T07:11:55.000Z</time>
      </trkpt>
      <trkpt lat="43.65422" lon="3.79122">
        <ele>80</ele>
        <time>2020-08-16T07:11:56.000Z</time>
      </trkpt>
      <trkpt lat="43.65426" lon="3.79123">
        <ele>80</ele>
        <time>2020-08-16T07:11:57.000Z</time>
      </trkpt>
      <trkpt lat="43.6543" lon="3.79124">
        <ele>80</ele>
        <time>2020-08-16T07:11:58.000Z</time>
      </trkpt>
      <trkpt lat="43.65435" lon="3.79125">
        <ele>80</ele>
        <time>2020-08-16T07:11:59.000Z</time>
      </trkpt>
      <trkpt lat="43.65439" lon="3.79125">
        <ele>80</ele>
        <time>2020-08-16T07:12:00.000Z</time>
      </trkpt>
      <trkpt lat="43.65442" lon="3.79125">
        <ele>80</ele>
        <time>2020-08-16T07:12:01.000Z</time>
      </trkpt>
      <trkpt lat="43.65445" lon="3.79125">
        <ele>79.94599936</ele>
        <time>2020-08-16T07:12:04.000Z</time>
      </trkpt>
      <trkpt lat="43.65448" lon="3.79126">
        <ele>79.74599936</ele>
        <time>2020-08-16T07:12:05.000Z</time>
      </trkpt>
      <trkpt lat="43.65451" lon="3.79127">
        <ele>79.54599936</ele>
        <time>2020-08-16T07:12:06.000Z</time>
      </trkpt>
      <trkpt lat="43.65454" lon="3.79127">
        <ele>79.34599936</ele>
        <time>2020-08-16T07:12:07.000Z</time>
      </trkpt>
      <trkpt lat="43.65457" lon="3.79127">
        <ele>79.14599936</ele>
        <time>2020-08-16T07:12:08.000Z</time>
      </trkpt>
      <trkpt lat="43.6546" lon="3.79126">
        <ele>78.94599936</ele>
        <time>2020-08-16T07:12:09.000Z</time>
      </trkpt>
      <trkpt lat="43.65463" lon="3.79126">
        <ele>78.74599936</ele>
        <time>2020-08-16T07:12:10.000Z</time>
      </trkpt>
      <trkpt lat="43.65466" lon="3.79126">
        <ele>78.54599936</ele>
        <time>2020-08-16T07:12:11.000Z</time>
      </trkpt>
      <trkpt lat="43.65469" lon="3.79125">
        <ele>78.34599936</ele>
        <time>2020-08-16T07:12:12.000Z</time>
      </trkpt>
      <trkpt lat="43.65472" lon="3.79126">
        <ele>78.14599936</ele>
        <time>2020-08-16T07:12:13.000Z</time>
      </trkpt>
      <trkpt lat="43.65476" lon="3.79127">
        <ele>77.94599936</ele>
        <time>2020-08-16T07:12:14.000Z</time>
      </trkpt>
      <trkpt lat="43.65479" lon="3.79128">
        <ele>77.74599936</ele>
        <time>2020-08-16T07:12:15.000Z</time>
      </trkpt>
      <trkpt lat="43.65483" lon="3.79128">
        <ele>77.54599936</ele>
        <time>2020-08-16T07:12:16.000Z</time>
      </trkpt>
      <trkpt lat="43.65487" lon="3.79128">
        <ele>77.34599936</ele>
        <time>2020-08-16T07:12:17.000Z</time>
      </trkpt>
      <trkpt lat="43.65491" lon="3.79127">
        <ele>77.14599936</ele>
        <time>2020-08-16T07:12:18.000Z</time>
      </trkpt>
      <trkpt lat="43.65496" lon="3.79126">
        <ele>76.94599936</ele>
        <time>2020-08-16T07:12:19.000Z</time>
      </trkpt>
      <trkpt lat="43.655" lon="3.79124">
        <ele>76.74599936</ele>
        <time>2020-08-16T07:12:20.000Z</time>
      </trkpt>
      <trkpt lat="43.65505" lon="3.79123">
        <ele>76.54599936</ele>
        <time>2020-08-16T07:12:21.000Z</time>
      </trkpt>
      <trkpt lat="43.6551" lon="3.79123">
        <ele>76.34599936</ele>
        <time>2020-08-16T07:12:22.000Z</time>
      </trkpt>
      <trkpt lat="43.65514" lon="3.79125">
        <ele>76.14599936</ele>
        <time>2020-08-16T07:12:23.000Z</time>
      </trkpt>
      <trkpt lat="43.65516" lon="3.79129">
        <ele>76.02700032</ele>
        <time>2020-08-16T07:12:24.000Z</time>
      </trkpt>
      <trkpt lat="43.65518" lon="3.79132">
        <ele>76.12700032</ele>
        <time>2020-08-16T07:12:25.000Z</time>
      </trkpt>
      <trkpt lat="43.65519" lon="3.79134">
        <ele>76.22700032</ele>
        <time>2020-08-16T07:12:26.000Z</time>
      </trkpt>
      <trkpt lat="43.65521" lon="3.79136">
        <ele>76.32700032</ele>
        <time>2020-08-16T07:12:27.000Z</time>
      </trkpt>
      <trkpt lat="43.65522" lon="3.79137">
        <ele>76.42700032</ele>
        <time>2020-08-16T07:12:28.000Z</time>
      </trkpt>
      <trkpt lat="43.65523" lon="3.7914">
        <ele>76.52700032</ele>
        <time>2020-08-16T07:12:29.000Z</time>
      </trkpt>
      <trkpt lat="43.65524" lon="3.79142">
        <ele>77</ele>
        <time>2020-08-16T07:12:35.000Z</time>
      </trkpt>
      <trkpt lat="43.65524" lon="3.79143">
        <ele>77</ele>
        <time>2020-08-16T07:12:36.000Z</time>
      </trkpt>
      <trkpt lat="43.65524" lon="3.79147">
        <ele>77.218590980644</ele>
        <time>2020-08-16T07:12:39.000Z</time>
      </trkpt>
      <trkpt lat="43.65524" lon="3.79149">
        <ele>77.4228810058</ele>
        <time>2020-08-16T07:12:40.000Z</time>
      </trkpt>
      <trkpt lat="43.65525" lon="3.79152">
        <ele>77.831461056111</ele>
        <time>2020-08-16T07:12:42.000Z</time>
      </trkpt>
      <trkpt lat="43.65526" lon="3.79154">
        <ele>78.240041106422</ele>
        <time>2020-08-16T07:12:44.000Z</time>
      </trkpt>
      <trkpt lat="43.65526" lon="3.79154">
        <ele>79</ele>
        <time>2020-08-16T07:12:50.000Z</time>
      </trkpt>
      <trkpt lat="43.65533" lon="3.79158">
        <ele>78.908775679427</ele>
        <time>2020-08-16T07:13:03.000Z</time>
      </trkpt>
      <trkpt lat="43.65536" lon="3.7916">
        <ele>78.793302323657</ele>
        <time>2020-08-16T07:13:04.000Z</time>
      </trkpt>
      <trkpt lat="43.65538" lon="3.79162">
        <ele>78.677828967886</ele>
        <time>2020-08-16T07:13:05.000Z</time>
      </trkpt>
      <trkpt lat="43.6554" lon="3.79164">
        <ele>78.562355612116</ele>
        <time>2020-08-16T07:13:06.000Z</time>
      </trkpt>
      <trkpt lat="43.65541" lon="3.79165">
        <ele>78.034782608696</ele>
        <time>2020-08-16T07:13:12.000Z</time>
      </trkpt>
      <trkpt lat="43.65533" lon="3.7917">
        <ele>79</ele>
        <time>2020-08-16T07:13:35.000Z</time>
      </trkpt>
      <trkpt lat="43.6553" lon="3.7917">
        <ele>79</ele>
        <time>2020-08-16T07:13:37.000Z</time>
      </trkpt>
      <trkpt lat="43.65526" lon="3.7917">
        <ele>79</ele>
        <time>2020-08-16T07:13:39.000Z</time>
      </trkpt>
      <trkpt lat="43.65524" lon="3.7917">
        <ele>79</ele>
        <time>2020-08-16T07:13:40.000Z</time>
      </trkpt>
      <trkpt lat="43.65522" lon="3.7917">
        <ele>79</ele>
        <time>2020-08-16T07:13:41.000Z</time>
      </trkpt>
      <trkpt lat="43.6552" lon="3.79169">
        <ele>79</ele>
        <time>2020-08-16T07:13:42.000Z</time>
      </trkpt>
      <trkpt lat="43.65518" lon="3.79168">
        <ele>79</ele>
        <time>2020-08-16T07:13:43.000Z</time>
      </trkpt>
      <trkpt lat="43.65516" lon="3.79168">
        <ele>79.025568484849</ele>
        <time>2020-08-16T07:13:44.000Z</time>
      </trkpt>
      <trkpt lat="43.65513" lon="3.79167">
        <ele>79.120265454546</ele>
        <time>2020-08-16T07:13:45.000Z</time>
      </trkpt>
      <trkpt lat="43.65511" lon="3.79166">
        <ele>79.214962424242</ele>
        <time>2020-08-16T07:13:46.000Z</time>
      </trkpt>
      <trkpt lat="43.65508" lon="3.79166">
        <ele>79.309659393939</ele>
        <time>2020-08-16T07:13:47.000Z</time>
      </trkpt>
      <trkpt lat="43.65506" lon="3.79165">
        <ele>79.404356363636</ele>
        <time>2020-08-16T07:13:48.000Z</time>
      </trkpt>
      <trkpt lat="43.65503" lon="3.79165">
        <ele>79.499053333333</ele>
        <time>2020-08-16T07:13:49.000Z</time>
      </trkpt>
      <trkpt lat="43.65501" lon="3.79164">
        <ele>79.59375030303</ele>
        <time>2020-08-16T07:13:50.000Z</time>
      </trkpt>
      <trkpt lat="43.65498" lon="3.79163">
        <ele>79.688447272727</ele>
        <time>2020-08-16T07:13:51.000Z</time>
      </trkpt>
      <trkpt lat="43.65496" lon="3.79161">
        <ele>79.783144242424</ele>
        <time>2020-08-16T07:13:52.000Z</time>
      </trkpt>
      <trkpt lat="43.65493" lon="3.79159">
        <ele>79.877841212121</ele>
        <time>2020-08-16T07:13:53.000Z</time>
      </trkpt>
      <trkpt lat="43.6549" lon="3.79159">
        <ele>79.972538181818</ele>
        <time>2020-08-16T07:13:54.000Z</time>
      </trkpt>
      <trkpt lat="43.65484" lon="3.79159">
        <ele>80</ele>
        <time>2020-08-16T07:13:56.000Z</time>
      </trkpt>
      <trkpt lat="43.6548" lon="3.7916">
        <ele>80</ele>
        <time>2020-08-16T07:13:57.000Z</time>
      </trkpt>
      <trkpt lat="43.65476" lon="3.79161">
        <ele>80</ele>
        <time>2020-08-16T07:13:58.000Z</time>
      </trkpt>
      <trkpt lat="43.65472" lon="3.79162">
        <ele>80</ele>
        <time>2020-08-16T07:13:59.000Z</time>
      </trkpt>
      <trkpt lat="43.65467" lon="3.79162">
        <ele>80</ele>
        <time>2020-08-16T07:14:00.000Z</time>
      </trkpt>
      <trkpt lat="43.65462" lon="3.7916">
        <ele>80</ele>
        <time>2020-08-16T07:14:01.000Z</time>
      </trkpt>
      <trkpt lat="43.65456" lon="3.79158">
        <ele>80</ele>
        <time>2020-08-16T07:14:02.000Z</time>
      </trkpt>
      <trkpt lat="43.65451" lon="3.79157">
        <ele>80</ele>
        <time>2020-08-16T07:14:03.000Z</time>
      </trkpt>
      <trkpt lat="43.65446" lon="3.79157">
        <ele>80</ele>
        <time>2020-08-16T07:14:04.000Z</time>
      </trkpt>
      <trkpt lat="43.65441" lon="3.79156">
        <ele>80</ele>
        <time>2020-08-16T07:14:05.000Z</time>
      </trkpt>
      <trkpt lat="43.65437" lon="3.79155">
        <ele>80</ele>
        <time>2020-08-16T07:14:06.000Z</time>
      </trkpt>
      <trkpt lat="43.65433" lon="3.79154">
        <ele>80</ele>
        <time>2020-08-16T07:14:07.000Z</time>
      </trkpt>
      <trkpt lat="43.65429" lon="3.79153">
        <ele>80</ele>
        <time>2020-08-16T07:14:08.000Z</time>
      </trkpt>
      <trkpt lat="43.65426" lon="3.79152">
        <ele>80</ele>
        <time>2020-08-16T07:14:09.000Z</time>
      </trkpt>
      <trkpt lat="43.65423" lon="3.79151">
        <ele>80</ele>
        <time>2020-08-16T07:14:10.000Z</time>
      </trkpt>
      <trkpt lat="43.6542" lon="3.7915">
        <ele>80</ele>
        <time>2020-08-16T07:14:11.000Z</time>
      </trkpt>
      <trkpt lat="43.65418" lon="3.79149">
        <ele>80</ele>
        <time>2020-08-16T07:14:12.000Z</time>
      </trkpt>
      <trkpt lat="43.65418" lon="3.7915">
        <ele>80.96328102444</ele>
        <time>2020-08-16T07:14:18.000Z</time>
      </trkpt>
      <trkpt lat="43.65414" lon="3.79149">
        <ele>80.082983529412</ele>
        <time>2020-08-16T07:14:39.000Z</time>
      </trkpt>
      <trkpt lat="43.65413" lon="3.79149">
        <ele>80.188025546218</ele>
        <time>2020-08-16T07:14:40.000Z</time>
      </trkpt>
      <trkpt lat="43.65409" lon="3.79148">
        <ele>80.398109579832</ele>
        <time>2020-08-16T07:14:42.000Z</time>
      </trkpt>
      <trkpt lat="43.65407" lon="3.79148">
        <ele>80.503151596639</ele>
        <time>2020-08-16T07:14:43.000Z</time>
      </trkpt>
      <trkpt lat="43.65405" lon="3.79147">
        <ele>80.608193613445</ele>
        <time>2020-08-16T07:14:44.000Z</time>
      </trkpt>
      <trkpt lat="43.65402" lon="3.79146">
        <ele>80.713235630252</ele>
        <time>2020-08-16T07:14:45.000Z</time>
      </trkpt>
      <trkpt lat="43.654" lon="3.79145">
        <ele>80.818277647059</ele>
        <time>2020-08-16T07:14:46.000Z</time>
      </trkpt>
      <trkpt lat="43.65397" lon="3.79144">
        <ele>80.923319663865</ele>
        <time>2020-08-16T07:14:47.000Z</time>
      </trkpt>
      <trkpt lat="43.65394" lon="3.79143">
        <ele>81</ele>
        <time>2020-08-16T07:14:48.000Z</time>
      </trkpt>
      <trkpt lat="43.65391" lon="3.79143">
        <ele>81</ele>
        <time>2020-08-16T07:14:49.000Z</time>
      </trkpt>
      <trkpt lat="43.65387" lon="3.79142">
        <ele>81</ele>
        <time>2020-08-16T07:14:50.000Z</time>
      </trkpt>
      <trkpt lat="43.65384" lon="3.79142">
        <ele>81</ele>
        <time>2020-08-16T07:14:51.000Z</time>
      </trkpt>
      <trkpt lat="43.6538" lon="3.79141">
        <ele>81</ele>
        <time>2020-08-16T07:14:52.000Z</time>
      </trkpt>
      <trkpt lat="43.65377" lon="3.79141">
        <ele>81</ele>
        <time>2020-08-16T07:14:53.000Z</time>
      </trkpt>
      <trkpt lat="43.65373" lon="3.79141">
        <ele>81</ele>
        <time>2020-08-16T07:14:54.000Z</time>
      </trkpt>
      <trkpt lat="43.65369" lon="3.79141">
        <ele>81</ele>
        <time>2020-08-16T07:14:55.000Z</time>
      </trkpt>
      <trkpt lat="43.65365" lon="3.7914">
        <ele>81</ele>
        <time>2020-08-16T07:14:56.000Z</time>
      </trkpt>
      <trkpt lat="43.65362" lon="3.7914">
        <ele>81</ele>
        <time>2020-08-16T07:14:57.000Z</time>
      </trkpt>
      <trkpt lat="43.65358" lon="3.79139">
        <ele>81</ele>
        <time>2020-08-16T07:14:58.000Z</time>
      </trkpt>
      <trkpt lat="43.65354" lon="3.79139">
        <ele>81.10195704158</ele>
        <time>2020-08-16T07:14:59.000Z</time>
      </trkpt>
      <trkpt lat="43.6535" lon="3.79139">
        <ele>81.20494361938</ele>
        <time>2020-08-16T07:15:00.000Z</time>
      </trkpt>
      <trkpt lat="43.65347" lon="3.79138">
        <ele>81.307930197181</ele>
        <time>2020-08-16T07:15:01.000Z</time>
      </trkpt>
      <trkpt lat="43.65343" lon="3.79137">
        <ele>81.410916774981</ele>
        <time>2020-08-16T07:15:02.000Z</time>
      </trkpt>
      <trkpt lat="43.65339" lon="3.79137">
        <ele>81.513903352782</ele>
        <time>2020-08-16T07:15:03.000Z</time>
      </trkpt>
      <trkpt lat="43.65336" lon="3.79136">
        <ele>81.616889930582</ele>
        <time>2020-08-16T07:15:04.000Z</time>
      </trkpt>
      <trkpt lat="43.65332" lon="3.79134">
        <ele>81.719876508383</ele>
        <time>2020-08-16T07:15:05.000Z</time>
      </trkpt>
      <trkpt lat="43.65329" lon="3.79131">
        <ele>81.822863086183</ele>
        <time>2020-08-16T07:15:06.000Z</time>
      </trkpt>
      <trkpt lat="43.65327" lon="3.79129">
        <ele>81.925849663984</ele>
        <time>2020-08-16T07:15:07.000Z</time>
      </trkpt>
      <trkpt lat="43.65324" lon="3.79126">
        <ele>81.972055906072</ele>
        <time>2020-08-16T07:15:08.000Z</time>
      </trkpt>
      <trkpt lat="43.65321" lon="3.79122">
        <ele>81.872255570615</ele>
        <time>2020-08-16T07:15:09.000Z</time>
      </trkpt>
      <trkpt lat="43.65318" lon="3.79119">
        <ele>81.772455235158</ele>
        <time>2020-08-16T07:15:10.000Z</time>
      </trkpt>
      <trkpt lat="43.65315" lon="3.79115">
        <ele>81.672654899701</ele>
        <time>2020-08-16T07:15:11.000Z</time>
      </trkpt>
      <trkpt lat="43.65312" lon="3.79112">
        <ele>81.572854564245</ele>
        <time>2020-08-16T07:15:12.000Z</time>
      </trkpt>
      <trkpt lat="43.65307" lon="3.79108">
        <ele>81.473054228788</ele>
        <time>2020-08-16T07:15:13.000Z</time>
      </trkpt>
      <trkpt lat="43.65303" lon="3.79105">
        <ele>81.373253893331</ele>
        <time>2020-08-16T07:15:14.000Z</time>
      </trkpt>
      <trkpt lat="43.65297" lon="3.79103">
        <ele>81.273453557874</ele>
        <time>2020-08-16T07:15:15.000Z</time>
      </trkpt>
      <trkpt lat="43.65292" lon="3.79102">
        <ele>81.173653222417</ele>
        <time>2020-08-16T07:15:16.000Z</time>
      </trkpt>
      <trkpt lat="43.65286" lon="3.79101">
        <ele>81.07385288696</ele>
        <time>2020-08-16T07:15:17.000Z</time>
      </trkpt>
      <trkpt lat="43.6528" lon="3.79103">
        <ele>80.973974589605</ele>
        <time>2020-08-16T07:15:18.000Z</time>
      </trkpt>
      <trkpt lat="43.65274" lon="3.79105">
        <ele>80.873874393313</ele>
        <time>2020-08-16T07:15:19.000Z</time>
      </trkpt>
      <trkpt lat="43.65269" lon="3.79106">
        <ele>80.77377419702</ele>
        <time>2020-08-16T07:15:20.000Z</time>
      </trkpt>
      <trkpt lat="43.65264" lon="3.79107">
        <ele>80.673674000728</ele>
        <time>2020-08-16T07:15:21.000Z</time>
      </trkpt>
      <trkpt lat="43.65261" lon="3.79106">
        <ele>80.573573804435</ele>
        <time>2020-08-16T07:15:22.000Z</time>
      </trkpt>
      <trkpt lat="43.65259" lon="3.79103">
        <ele>80.37337341185</ele>
        <time>2020-08-16T07:15:24.000Z</time>
      </trkpt>
      <trkpt lat="43.65258" lon="3.791">
        <ele>80.273273215558</ele>
        <time>2020-08-16T07:15:25.000Z</time>
      </trkpt>
      <trkpt lat="43.65258" lon="3.79098">
        <ele>80.173173019265</ele>
        <time>2020-08-16T07:15:26.000Z</time>
      </trkpt>
      <trkpt lat="43.65256" lon="3.79095">
        <ele>80.073072822973</ele>
        <time>2020-08-16T07:15:27.000Z</time>
      </trkpt>
      <trkpt lat="43.65253" lon="3.79092">
        <ele>79.94599936</ele>
        <time>2020-08-16T07:15:28.000Z</time>
      </trkpt>
      <trkpt lat="43.6525" lon="3.79089">
        <ele>79.74599936</ele>
        <time>2020-08-16T07:15:29.000Z</time>
      </trkpt>
      <trkpt lat="43.65246" lon="3.79085">
        <ele>79.54599936</ele>
        <time>2020-08-16T07:15:30.000Z</time>
      </trkpt>
      <trkpt lat="43.6524" lon="3.79082">
        <ele>79.34599936</ele>
        <time>2020-08-16T07:15:31.000Z</time>
      </trkpt>
      <trkpt lat="43.65235" lon="3.79079">
        <ele>79.14599936</ele>
        <time>2020-08-16T07:15:32.000Z</time>
      </trkpt>
      <trkpt lat="43.65229" lon="3.79077">
        <ele>78.94599936</ele>
        <time>2020-08-16T07:15:33.000Z</time>
      </trkpt>
      <trkpt lat="43.65223" lon="3.79075">
        <ele>78.74599936</ele>
        <time>2020-08-16T07:15:34.000Z</time>
      </trkpt>
      <trkpt lat="43.65217" lon="3.79072">
        <ele>78.54599936</ele>
        <time>2020-08-16T07:15:35.000Z</time>
      </trkpt>
      <trkpt lat="43.65212" lon="3.7907">
        <ele>78.34599936</ele>
        <time>2020-08-16T07:15:36.000Z</time>
      </trkpt>
      <trkpt lat="43.65208" lon="3.79069">
        <ele>78.14599936</ele>
        <time>2020-08-16T07:15:37.000Z</time>
      </trkpt>
      <trkpt lat="43.65204" lon="3.79068">
        <ele>77.91899904</ele>
        <time>2020-08-16T07:15:38.000Z</time>
      </trkpt>
      <trkpt lat="43.65201" lon="3.79067">
        <ele>77.61899904</ele>
        <time>2020-08-16T07:15:39.000Z</time>
      </trkpt>
      <trkpt lat="43.65198" lon="3.79065">
        <ele>77.31899904</ele>
        <time>2020-08-16T07:15:40.000Z</time>
      </trkpt>
      <trkpt lat="43.65196" lon="3.79062">
        <ele>77.01899904</ele>
        <time>2020-08-16T07:15:41.000Z</time>
      </trkpt>
      <trkpt lat="43.65196" lon="3.79059">
        <ele>76.41899904</ele>
        <time>2020-08-16T07:15:43.000Z</time>
      </trkpt>
      <trkpt lat="43.65195" lon="3.79055">
        <ele>75.81899904</ele>
        <time>2020-08-16T07:15:45.000Z</time>
      </trkpt>
      <trkpt lat="43.65194" lon="3.79052">
        <ele>75.51899904</ele>
        <time>2020-08-16T07:15:46.000Z</time>
      </trkpt>
      <trkpt lat="43.65193" lon="3.7905">
        <ele>75.21899904</ele>
        <time>2020-08-16T07:15:47.000Z</time>
      </trkpt>
      <trkpt lat="43.65191" lon="3.79049">
        <ele>74.921205291829</ele>
        <time>2020-08-16T07:15:48.000Z</time>
      </trkpt>
      <trkpt lat="43.65188" lon="3.7905">
        <ele>74.629376498054</ele>
        <time>2020-08-16T07:15:49.000Z</time>
      </trkpt>
      <trkpt lat="43.65184" lon="3.79051">
        <ele>74.33754770428</ele>
        <time>2020-08-16T07:15:50.000Z</time>
      </trkpt>
      <trkpt lat="43.65181" lon="3.79052">
        <ele>74.045718910506</ele>
        <time>2020-08-16T07:15:51.000Z</time>
      </trkpt>
      <trkpt lat="43.65178" lon="3.79052">
        <ele>73.753890116731</ele>
        <time>2020-08-16T07:15:52.000Z</time>
      </trkpt>
      <trkpt lat="43.65175" lon="3.79052">
        <ele>73.462061322957</ele>
        <time>2020-08-16T07:15:53.000Z</time>
      </trkpt>
      <trkpt lat="43.65172" lon="3.79052">
        <ele>73.170232529183</ele>
        <time>2020-08-16T07:15:54.000Z</time>
      </trkpt>
      <trkpt lat="43.65168" lon="3.79052">
        <ele>72.878403735409</ele>
        <time>2020-08-16T07:15:55.000Z</time>
      </trkpt>
      <trkpt lat="43.65165" lon="3.79052">
        <ele>72.586574941634</ele>
        <time>2020-08-16T07:15:56.000Z</time>
      </trkpt>
      <trkpt lat="43.65162" lon="3.79052">
        <ele>72.29474614786</ele>
        <time>2020-08-16T07:15:57.000Z</time>
      </trkpt>
      <trkpt lat="43.65158" lon="3.79052">
        <ele>72.002917354086</ele>
        <time>2020-08-16T07:15:58.000Z</time>
      </trkpt>
      <trkpt lat="43.65154" lon="3.79052">
        <ele>71.89804295842</ele>
        <time>2020-08-16T07:15:59.000Z</time>
      </trkpt>
      <trkpt lat="43.65151" lon="3.79052">
        <ele>71.79505638062</ele>
        <time>2020-08-16T07:16:00.000Z</time>
      </trkpt>
      <trkpt lat="43.65147" lon="3.79051">
        <ele>71.692069802819</ele>
        <time>2020-08-16T07:16:01.000Z</time>
      </trkpt>
      <trkpt lat="43.65143" lon="3.79051">
        <ele>71.589083225019</ele>
        <time>2020-08-16T07:16:02.000Z</time>
      </trkpt>
      <trkpt lat="43.65139" lon="3.79051">
        <ele>71.486096647218</ele>
        <time>2020-08-16T07:16:03.000Z</time>
      </trkpt>
      <trkpt lat="43.65134" lon="3.79051">
        <ele>71.383110069418</ele>
        <time>2020-08-16T07:16:04.000Z</time>
      </trkpt>
      <trkpt lat="43.6513" lon="3.79052">
        <ele>71.280123491617</ele>
        <time>2020-08-16T07:16:05.000Z</time>
      </trkpt>
      <trkpt lat="43.65126" lon="3.79052">
        <ele>71.177136913817</ele>
        <time>2020-08-16T07:16:06.000Z</time>
      </trkpt>
      <trkpt lat="43.65122" lon="3.79053">
        <ele>71.074150336016</ele>
        <time>2020-08-16T07:16:07.000Z</time>
      </trkpt>
      <trkpt lat="43.65118" lon="3.79056">
        <ele>71</ele>
        <time>2020-08-16T07:16:08.000Z</time>
      </trkpt>
      <trkpt lat="43.65114" lon="3.79058">
        <ele>71</ele>
        <time>2020-08-16T07:16:09.000Z</time>
      </trkpt>
      <trkpt lat="43.6511" lon="3.79061">
        <ele>71</ele>
        <time>2020-08-16T07:16:10.000Z</time>
      </trkpt>
      <trkpt lat="43.65106" lon="3.79064">
        <ele>71</ele>
        <time>2020-08-16T07:16:11.000Z</time>
      </trkpt>
      <trkpt lat="43.65102" lon="3.79067">
        <ele>71</ele>
        <time>2020-08-16T07:16:12.000Z</time>
      </trkpt>
      <trkpt lat="43.65098" lon="3.7907">
        <ele>71</ele>
        <time>2020-08-16T07:16:13.000Z</time>
      </trkpt>
      <trkpt lat="43.65094" lon="3.79073">
        <ele>71</ele>
        <time>2020-08-16T07:16:14.000Z</time>
      </trkpt>
      <trkpt lat="43.65089" lon="3.79077">
        <ele>71</ele>
        <time>2020-08-16T07:16:15.000Z</time>
      </trkpt>
      <trkpt lat="43.65085" lon="3.7908">
        <ele>71</ele>
        <time>2020-08-16T07:16:16.000Z</time>
      </trkpt>
      <trkpt lat="43.6508" lon="3.79082">
        <ele>71</ele>
        <time>2020-08-16T07:16:17.000Z</time>
      </trkpt>
      <trkpt lat="43.65076" lon="3.79083">
        <ele>70.94594532262</ele>
        <time>2020-08-16T07:16:18.000Z</time>
      </trkpt>
      <trkpt lat="43.65071" lon="3.79081">
        <ele>70.745745186548</ele>
        <time>2020-08-16T07:16:19.000Z</time>
      </trkpt>
      <trkpt lat="43.65069" lon="3.79078">
        <ele>70.545545050476</ele>
        <time>2020-08-16T07:16:20.000Z</time>
      </trkpt>
      <trkpt lat="43.65067" lon="3.79074">
        <ele>70.345344914404</ele>
        <time>2020-08-16T07:16:21.000Z</time>
      </trkpt>
      <trkpt lat="43.65067" lon="3.7907">
        <ele>70.145144778332</ele>
        <time>2020-08-16T07:16:22.000Z</time>
      </trkpt>
      <trkpt lat="43.65069" lon="3.79066">
        <ele>69.94494464226</ele>
        <time>2020-08-16T07:16:23.000Z</time>
      </trkpt>
      <trkpt lat="43.65071" lon="3.79061">
        <ele>69.744744506188</ele>
        <time>2020-08-16T07:16:24.000Z</time>
      </trkpt>
      <trkpt lat="43.65075" lon="3.79056">
        <ele>69.544544370116</ele>
        <time>2020-08-16T07:16:25.000Z</time>
      </trkpt>
      <trkpt lat="43.65078" lon="3.79051">
        <ele>69.344344234044</ele>
        <time>2020-08-16T07:16:26.000Z</time>
      </trkpt>
      <trkpt lat="43.65082" lon="3.79046">
        <ele>69.144144097972</ele>
        <time>2020-08-16T07:16:27.000Z</time>
      </trkpt>
      <trkpt lat="43.65085" lon="3.79041">
        <ele>68.972027963086</ele>
        <time>2020-08-16T07:16:28.000Z</time>
      </trkpt>
      <trkpt lat="43.65088" lon="3.79035">
        <ele>68.87212783125</ele>
        <time>2020-08-16T07:16:29.000Z</time>
      </trkpt>
      <trkpt lat="43.65091" lon="3.79029">
        <ele>68.772227699413</ele>
        <time>2020-08-16T07:16:30.000Z</time>
      </trkpt>
      <trkpt lat="43.65092" lon="3.79022">
        <ele>68.672327567577</ele>
        <time>2020-08-16T07:16:31.000Z</time>
      </trkpt>
      <trkpt lat="43.65094" lon="3.79016">
        <ele>68.572427435741</ele>
        <time>2020-08-16T07:16:32.000Z</time>
      </trkpt>
      <trkpt lat="43.65095" lon="3.79009">
        <ele>68.472527303905</ele>
        <time>2020-08-16T07:16:33.000Z</time>
      </trkpt>
      <trkpt lat="43.65095" lon="3.79002">
        <ele>68.372627172069</ele>
        <time>2020-08-16T07:16:34.000Z</time>
      </trkpt>
      <trkpt lat="43.65095" lon="3.78996">
        <ele>68.272727040232</ele>
        <time>2020-08-16T07:16:35.000Z</time>
      </trkpt>
      <trkpt lat="43.65094" lon="3.78989">
        <ele>68.172826908396</ele>
        <time>2020-08-16T07:16:36.000Z</time>
      </trkpt>
      <trkpt lat="43.65093" lon="3.78982">
        <ele>68.07292677656</ele>
        <time>2020-08-16T07:16:37.000Z</time>
      </trkpt>
      <trkpt lat="43.65092" lon="3.78976">
        <ele>67.97299968</ele>
        <time>2020-08-16T07:16:38.000Z</time>
      </trkpt>
      <trkpt lat="43.65091" lon="3.78969">
        <ele>67.87299968</ele>
        <time>2020-08-16T07:16:39.000Z</time>
      </trkpt>
      <trkpt lat="43.65089" lon="3.78963">
        <ele>67.77299968</ele>
        <time>2020-08-16T07:16:40.000Z</time>
      </trkpt>
      <trkpt lat="43.65087" lon="3.78957">
        <ele>67.67299968</ele>
        <time>2020-08-16T07:16:41.000Z</time>
      </trkpt>
      <trkpt lat="43.65085" lon="3.78952">
        <ele>67.57299968</ele>
        <time>2020-08-16T07:16:42.000Z</time>
      </trkpt>
      <trkpt lat="43.65084" lon="3.78946">
        <ele>67.47299968</ele>
        <time>2020-08-16T07:16:43.000Z</time>
      </trkpt>
      <trkpt lat="43.65082" lon="3.7894">
        <ele>67.37299968</ele>
        <time>2020-08-16T07:16:44.000Z</time>
      </trkpt>
      <trkpt lat="43.6508" lon="3.78934">
        <ele>67.27299968</ele>
        <time>2020-08-16T07:16:45.000Z</time>
      </trkpt>
      <trkpt lat="43.65078" lon="3.78928">
        <ele>67.17299968</ele>
        <time>2020-08-16T07:16:46.000Z</time>
      </trkpt>
      <trkpt lat="43.65076" lon="3.78922">
        <ele>67.07299968</ele>
        <time>2020-08-16T07:16:47.000Z</time>
      </trkpt>
      <trkpt lat="43.65074" lon="3.78916">
        <ele>66.94594532262</ele>
        <time>2020-08-16T07:16:48.000Z</time>
      </trkpt>
      <trkpt lat="43.65072" lon="3.78911">
        <ele>66.745745186548</ele>
        <time>2020-08-16T07:16:49.000Z</time>
      </trkpt>
      <trkpt lat="43.6507" lon="3.78905">
        <ele>66.545545050476</ele>
        <time>2020-08-16T07:16:50.000Z</time>
      </trkpt>
      <trkpt lat="43.65069" lon="3.78899">
        <ele>66.345344914404</ele>
        <time>2020-08-16T07:16:51.000Z</time>
      </trkpt>
      <trkpt lat="43.65069" lon="3.78894">
        <ele>66.145144778332</ele>
        <time>2020-08-16T07:16:52.000Z</time>
      </trkpt>
      <trkpt lat="43.65066" lon="3.78891">
        <ele>65.94494464226</ele>
        <time>2020-08-16T07:16:53.000Z</time>
      </trkpt>
      <trkpt lat="43.65063" lon="3.78893">
        <ele>65.744744506188</ele>
        <time>2020-08-16T07:16:54.000Z</time>
      </trkpt>
      <trkpt lat="43.65061" lon="3.78899">
        <ele>65.544544370116</ele>
        <time>2020-08-16T07:16:55.000Z</time>
      </trkpt>
      <trkpt lat="43.65061" lon="3.78906">
        <ele>65.344344234044</ele>
        <time>2020-08-16T07:16:56.000Z</time>
      </trkpt>
      <trkpt lat="43.65061" lon="3.78914">
        <ele>65.144144097972</ele>
        <time>2020-08-16T07:16:57.000Z</time>
      </trkpt>
      <trkpt lat="43.65061" lon="3.78921">
        <ele>64.972055906072</ele>
        <time>2020-08-16T07:16:58.000Z</time>
      </trkpt>
      <trkpt lat="43.65062" lon="3.78926">
        <ele>64.872255570615</ele>
        <time>2020-08-16T07:16:59.000Z</time>
      </trkpt>
      <trkpt lat="43.65063" lon="3.78929">
        <ele>64.772455235158</ele>
        <time>2020-08-16T07:17:00.000Z</time>
      </trkpt>
      <trkpt lat="43.65065" lon="3.7893">
        <ele>64.672654899701</ele>
        <time>2020-08-16T07:17:01.000Z</time>
      </trkpt>
      <trkpt lat="43.65068" lon="3.7893">
        <ele>64.572854564245</ele>
        <time>2020-08-16T07:17:02.000Z</time>
      </trkpt>
      <trkpt lat="43.65071" lon="3.78931">
        <ele>64.473054228788</ele>
        <time>2020-08-16T07:17:03.000Z</time>
      </trkpt>
      <trkpt lat="43.65073" lon="3.78933">
        <ele>64.373253893331</ele>
        <time>2020-08-16T07:17:04.000Z</time>
      </trkpt>
      <trkpt lat="43.65076" lon="3.78933">
        <ele>64.273453557874</ele>
        <time>2020-08-16T07:17:05.000Z</time>
      </trkpt>
      <trkpt lat="43.6508" lon="3.78932">
        <ele>64.173653222417</ele>
        <time>2020-08-16T07:17:06.000Z</time>
      </trkpt>
      <trkpt lat="43.65083" lon="3.78929">
        <ele>64.07385288696</ele>
        <time>2020-08-16T07:17:07.000Z</time>
      </trkpt>
      <trkpt lat="43.65085" lon="3.78925">
        <ele>64.02599936</ele>
        <time>2020-08-16T07:17:08.000Z</time>
      </trkpt>
      <trkpt lat="43.65086" lon="3.78919">
        <ele>64.12599936</ele>
        <time>2020-08-16T07:17:09.000Z</time>
      </trkpt>
      <trkpt lat="43.65088" lon="3.78914">
        <ele>64.22599936</ele>
        <time>2020-08-16T07:17:10.000Z</time>
      </trkpt>
      <trkpt lat="43.6509" lon="3.78909">
        <ele>64.32599936</ele>
        <time>2020-08-16T07:17:11.000Z</time>
      </trkpt>
      <trkpt lat="43.65092" lon="3.78905">
        <ele>64.42599936</ele>
        <time>2020-08-16T07:17:12.000Z</time>
      </trkpt>
      <trkpt lat="43.65095" lon="3.78901">
        <ele>64.52599936</ele>
        <time>2020-08-16T07:17:13.000Z</time>
      </trkpt>
      <trkpt lat="43.65098" lon="3.78898">
        <ele>64.62599936</ele>
        <time>2020-08-16T07:17:14.000Z</time>
      </trkpt>
      <trkpt lat="43.65101" lon="3.78895">
        <ele>64.72599936</ele>
        <time>2020-08-16T07:17:15.000Z</time>
      </trkpt>
      <trkpt lat="43.65103" lon="3.78891">
        <ele>64.82599936</ele>
        <time>2020-08-16T07:17:16.000Z</time>
      </trkpt>
      <trkpt lat="43.65106" lon="3.78888">
        <ele>64.92599936</ele>
        <time>2020-08-16T07:17:17.000Z</time>
      </trkpt>
      <trkpt lat="43.65109" lon="3.78885">
        <ele>65</ele>
        <time>2020-08-16T07:17:18.000Z</time>
      </trkpt>
      <trkpt lat="43.65112" lon="3.78883">
        <ele>65</ele>
        <time>2020-08-16T07:17:19.000Z</time>
      </trkpt>
      <trkpt lat="43.65115" lon="3.7888">
        <ele>65</ele>
        <time>2020-08-16T07:17:20.000Z</time>
      </trkpt>
      <trkpt lat="43.65118" lon="3.78878">
        <ele>65</ele>
        <time>2020-08-16T07:17:21.000Z</time>
      </trkpt>
      <trkpt lat="43.65121" lon="3.78876">
        <ele>65</ele>
        <time>2020-08-16T07:17:22.000Z</time>
      </trkpt>
      <trkpt lat="43.65124" lon="3.78873">
        <ele>65</ele>
        <time>2020-08-16T07:17:23.000Z</time>
      </trkpt>
      <trkpt lat="43.65128" lon="3.78871">
        <ele>65</ele>
        <time>2020-08-16T07:17:24.000Z</time>
      </trkpt>
      <trkpt lat="43.65131" lon="3.78868">
        <ele>65</ele>
        <time>2020-08-16T07:17:25.000Z</time>
      </trkpt>
      <trkpt lat="43.65134" lon="3.78865">
        <ele>65</ele>
        <time>2020-08-16T07:17:26.000Z</time>
      </trkpt>
      <trkpt lat="43.65137" lon="3.78863">
        <ele>65</ele>
        <time>2020-08-16T07:17:27.000Z</time>
      </trkpt>
      <trkpt lat="43.6514" lon="3.78861">
        <ele>65.02702733869</ele>
        <time>2020-08-16T07:17:28.000Z</time>
      </trkpt>
      <trkpt lat="43.65143" lon="3.78859">
        <ele>65.127127406726</ele>
        <time>2020-08-16T07:17:29.000Z</time>
      </trkpt>
      <trkpt lat="43.65144" lon="3.78857">
        <ele>65.227227474762</ele>
        <time>2020-08-16T07:17:30.000Z</time>
      </trkpt>
      <trkpt lat="43.65146" lon="3.78854">
        <ele>65.327327542798</ele>
        <time>2020-08-16T07:17:31.000Z</time>
      </trkpt>
      <trkpt lat="43.65147" lon="3.78851">
        <ele>65.427427610834</ele>
        <time>2020-08-16T07:17:32.000Z</time>
      </trkpt>
      <trkpt lat="43.65148" lon="3.78848">
        <ele>65.52752767887</ele>
        <time>2020-08-16T07:17:33.000Z</time>
      </trkpt>
      <trkpt lat="43.65148" lon="3.78845">
        <ele>65.627627746906</ele>
        <time>2020-08-16T07:17:34.000Z</time>
      </trkpt>
      <trkpt lat="43.65147" lon="3.78843">
        <ele>65.727727814942</ele>
        <time>2020-08-16T07:17:35.000Z</time>
      </trkpt>
      <trkpt lat="43.65147" lon="3.7884">
        <ele>65.827827882978</ele>
        <time>2020-08-16T07:17:36.000Z</time>
      </trkpt>
      <trkpt lat="43.65147" lon="3.78837">
        <ele>65.927927951014</ele>
        <time>2020-08-16T07:17:37.000Z</time>
      </trkpt>
      <trkpt lat="43.65147" lon="3.78834">
        <ele>66.028</ele>
        <time>2020-08-16T07:17:38.000Z</time>
      </trkpt>
      <trkpt lat="43.65147" lon="3.78831">
        <ele>66.128</ele>
        <time>2020-08-16T07:17:39.000Z</time>
      </trkpt>
      <trkpt lat="43.65147" lon="3.78828">
        <ele>66.228</ele>
        <time>2020-08-16T07:17:40.000Z</time>
      </trkpt>
      <trkpt lat="43.65147" lon="3.78825">
        <ele>66.328</ele>
        <time>2020-08-16T07:17:41.000Z</time>
      </trkpt>
      <trkpt lat="43.65147" lon="3.78822">
        <ele>66.428</ele>
        <time>2020-08-16T07:17:42.000Z</time>
      </trkpt>
      <trkpt lat="43.65147" lon="3.78819">
        <ele>66.528</ele>
        <time>2020-08-16T07:17:43.000Z</time>
      </trkpt>
      <trkpt lat="43.65148" lon="3.78815">
        <ele>66.628</ele>
        <time>2020-08-16T07:17:44.000Z</time>
      </trkpt>
      <trkpt lat="43.6515" lon="3.78812">
        <ele>66.728</ele>
        <time>2020-08-16T07:17:45.000Z</time>
      </trkpt>
      <trkpt lat="43.65152" lon="3.7881">
        <ele>66.828</ele>
        <time>2020-08-16T07:17:46.000Z</time>
      </trkpt>
      <trkpt lat="43.65155" lon="3.78808">
        <ele>66.928</ele>
        <time>2020-08-16T07:17:47.000Z</time>
      </trkpt>
      <trkpt lat="43.65158" lon="3.78806">
        <ele>67.028</ele>
        <time>2020-08-16T07:17:48.000Z</time>
      </trkpt>
      <trkpt lat="43.65161" lon="3.78804">
        <ele>67.128</ele>
        <time>2020-08-16T07:17:49.000Z</time>
      </trkpt>
      <trkpt lat="43.65164" lon="3.78802">
        <ele>67.228</ele>
        <time>2020-08-16T07:17:50.000Z</time>
      </trkpt>
      <trkpt lat="43.65167" lon="3.78799">
        <ele>67.328</ele>
        <time>2020-08-16T07:17:51.000Z</time>
      </trkpt>
      <trkpt lat="43.6517" lon="3.78797">
        <ele>67.428</ele>
        <time>2020-08-16T07:17:52.000Z</time>
      </trkpt>
      <trkpt lat="43.65173" lon="3.78795">
        <ele>67.528</ele>
        <time>2020-08-16T07:17:53.000Z</time>
      </trkpt>
      <trkpt lat="43.65177" lon="3.78792">
        <ele>67.628</ele>
        <time>2020-08-16T07:17:54.000Z</time>
      </trkpt>
      <trkpt lat="43.6518" lon="3.7879">
        <ele>67.728</ele>
        <time>2020-08-16T07:17:55.000Z</time>
      </trkpt>
      <trkpt lat="43.65183" lon="3.78788">
        <ele>67.828</ele>
        <time>2020-08-16T07:17:56.000Z</time>
      </trkpt>
      <trkpt lat="43.65186" lon="3.78786">
        <ele>67.928</ele>
        <time>2020-08-16T07:17:57.000Z</time>
      </trkpt>
      <trkpt lat="43.6519" lon="3.78783">
        <ele>68</ele>
        <time>2020-08-16T07:17:58.000Z</time>
      </trkpt>
      <trkpt lat="43.65193" lon="3.78781">
        <ele>68</ele>
        <time>2020-08-16T07:17:59.000Z</time>
      </trkpt>
      <trkpt lat="43.65196" lon="3.78778">
        <ele>68</ele>
        <time>2020-08-16T07:18:00.000Z</time>
      </trkpt>
      <trkpt lat="43.65199" lon="3.78776">
        <ele>68</ele>
        <time>2020-08-16T07:18:01.000Z</time>
      </trkpt>
      <trkpt lat="43.65202" lon="3.78774">
        <ele>68</ele>
        <time>2020-08-16T07:18:02.000Z</time>
      </trkpt>
      <trkpt lat="43.65204" lon="3.78771">
        <ele>68</ele>
        <time>2020-08-16T07:18:03.000Z</time>
      </trkpt>
      <trkpt lat="43.65207" lon="3.78768">
        <ele>68</ele>
        <time>2020-08-16T07:18:04.000Z</time>
      </trkpt>
      <trkpt lat="43.6521" lon="3.78765">
        <ele>68</ele>
        <time>2020-08-16T07:18:05.000Z</time>
      </trkpt>
      <trkpt lat="43.65212" lon="3.78762">
        <ele>68</ele>
        <time>2020-08-16T07:18:06.000Z</time>
      </trkpt>
      <trkpt lat="43.65214" lon="3.78758">
        <ele>68</ele>
        <time>2020-08-16T07:18:07.000Z</time>
      </trkpt>
      <trkpt lat="43.65216" lon="3.78754">
        <ele>68</ele>
        <time>2020-08-16T07:18:08.000Z</time>
      </trkpt>
      <trkpt lat="43.65218" lon="3.7875">
        <ele>68</ele>
        <time>2020-08-16T07:18:09.000Z</time>
      </trkpt>
      <trkpt lat="43.65219" lon="3.78746">
        <ele>68</ele>
        <time>2020-08-16T07:18:10.000Z</time>
      </trkpt>
      <trkpt lat="43.6522" lon="3.78741">
        <ele>68</ele>
        <time>2020-08-16T07:18:11.000Z</time>
      </trkpt>
      <trkpt lat="43.65223" lon="3.78738">
        <ele>68</ele>
        <time>2020-08-16T07:18:12.000Z</time>
      </trkpt>
      <trkpt lat="43.65226" lon="3.78735">
        <ele>68</ele>
        <time>2020-08-16T07:18:13.000Z</time>
      </trkpt>
      <trkpt lat="43.65229" lon="3.78733">
        <ele>68</ele>
        <time>2020-08-16T07:18:14.000Z</time>
      </trkpt>
      <trkpt lat="43.65233" lon="3.78731">
        <ele>68</ele>
        <time>2020-08-16T07:18:15.000Z</time>
      </trkpt>
      <trkpt lat="43.65236" lon="3.78729">
        <ele>68</ele>
        <time>2020-08-16T07:18:16.000Z</time>
      </trkpt>
      <trkpt lat="43.65239" lon="3.78727">
        <ele>68</ele>
        <time>2020-08-16T07:18:17.000Z</time>
      </trkpt>
      <trkpt lat="43.65243" lon="3.78725">
        <ele>68.028</ele>
        <time>2020-08-16T07:18:18.000Z</time>
      </trkpt>
      <trkpt lat="43.65246" lon="3.78723">
        <ele>68.128</ele>
        <time>2020-08-16T07:18:19.000Z</time>
      </trkpt>
      <trkpt lat="43.65249" lon="3.78722">
        <ele>68.228</ele>
        <time>2020-08-16T07:18:20.000Z</time>
      </trkpt>
      <trkpt lat="43.65253" lon="3.7872">
        <ele>68.328</ele>
        <time>2020-08-16T07:18:21.000Z</time>
      </trkpt>
      <trkpt lat="43.65256" lon="3.78719">
        <ele>68.428</ele>
        <time>2020-08-16T07:18:22.000Z</time>
      </trkpt>
      <trkpt lat="43.65259" lon="3.78718">
        <ele>68.528</ele>
        <time>2020-08-16T07:18:23.000Z</time>
      </trkpt>
      <trkpt lat="43.65262" lon="3.78717">
        <ele>68.628</ele>
        <time>2020-08-16T07:18:24.000Z</time>
      </trkpt>
      <trkpt lat="43.65265" lon="3.78716">
        <ele>68.728</ele>
        <time>2020-08-16T07:18:25.000Z</time>
      </trkpt>
      <trkpt lat="43.65269" lon="3.78714">
        <ele>68.828</ele>
        <time>2020-08-16T07:18:26.000Z</time>
      </trkpt>
      <trkpt lat="43.65272" lon="3.78713">
        <ele>68.928</ele>
        <time>2020-08-16T07:18:27.000Z</time>
      </trkpt>
      <trkpt lat="43.65275" lon="3.78712">
        <ele>69</ele>
        <time>2020-08-16T07:18:28.000Z</time>
      </trkpt>
      <trkpt lat="43.65278" lon="3.7871">
        <ele>69</ele>
        <time>2020-08-16T07:18:29.000Z</time>
      </trkpt>
      <trkpt lat="43.65282" lon="3.78709">
        <ele>69</ele>
        <time>2020-08-16T07:18:30.000Z</time>
      </trkpt>
      <trkpt lat="43.65285" lon="3.78707">
        <ele>69</ele>
        <time>2020-08-16T07:18:31.000Z</time>
      </trkpt>
      <trkpt lat="43.65288" lon="3.78705">
        <ele>69</ele>
        <time>2020-08-16T07:18:32.000Z</time>
      </trkpt>
      <trkpt lat="43.65292" lon="3.78703">
        <ele>69</ele>
        <time>2020-08-16T07:18:33.000Z</time>
      </trkpt>
      <trkpt lat="43.65296" lon="3.78701">
        <ele>69</ele>
        <time>2020-08-16T07:18:34.000Z</time>
      </trkpt>
      <trkpt lat="43.65299" lon="3.78699">
        <ele>69</ele>
        <time>2020-08-16T07:18:35.000Z</time>
      </trkpt>
      <trkpt lat="43.65303" lon="3.78697">
        <ele>69</ele>
        <time>2020-08-16T07:18:36.000Z</time>
      </trkpt>
      <trkpt lat="43.65306" lon="3.78695">
        <ele>69</ele>
        <time>2020-08-16T07:18:37.000Z</time>
      </trkpt>
      <trkpt lat="43.6531" lon="3.78693">
        <ele>69</ele>
        <time>2020-08-16T07:18:38.000Z</time>
      </trkpt>
      <trkpt lat="43.65313" lon="3.7869">
        <ele>68.89814781893</ele>
        <time>2020-08-16T07:18:39.000Z</time>
      </trkpt>
      <trkpt lat="43.65316" lon="3.78687">
        <ele>68.795267160494</ele>
        <time>2020-08-16T07:18:40.000Z</time>
      </trkpt>
      <trkpt lat="43.65319" lon="3.78685">
        <ele>68.692386502058</ele>
        <time>2020-08-16T07:18:41.000Z</time>
      </trkpt>
      <trkpt lat="43.65323" lon="3.78682">
        <ele>68.589505843621</ele>
        <time>2020-08-16T07:18:42.000Z</time>
      </trkpt>
      <trkpt lat="43.65326" lon="3.78679">
        <ele>68.486625185185</ele>
        <time>2020-08-16T07:18:43.000Z</time>
      </trkpt>
      <trkpt lat="43.65329" lon="3.78676">
        <ele>68.383744526749</ele>
        <time>2020-08-16T07:18:44.000Z</time>
      </trkpt>
      <trkpt lat="43.65332" lon="3.78673">
        <ele>68.280863868313</ele>
        <time>2020-08-16T07:18:45.000Z</time>
      </trkpt>
      <trkpt lat="43.65336" lon="3.7867">
        <ele>68.177983209877</ele>
        <time>2020-08-16T07:18:46.000Z</time>
      </trkpt>
      <trkpt lat="43.65339" lon="3.78667">
        <ele>68.07510255144</ele>
        <time>2020-08-16T07:18:47.000Z</time>
      </trkpt>
      <trkpt lat="43.65342" lon="3.78665">
        <ele>67.973709531074</ele>
        <time>2020-08-16T07:18:48.000Z</time>
      </trkpt>
      <trkpt lat="43.65346" lon="3.78662">
        <ele>67.876338577967</ele>
        <time>2020-08-16T07:18:49.000Z</time>
      </trkpt>
      <trkpt lat="43.65349" lon="3.78659">
        <ele>67.778967624859</ele>
        <time>2020-08-16T07:18:50.000Z</time>
      </trkpt>
      <trkpt lat="43.65353" lon="3.78655">
        <ele>67.681596671752</ele>
        <time>2020-08-16T07:18:51.000Z</time>
      </trkpt>
      <trkpt lat="43.65357" lon="3.78652">
        <ele>67.584225718644</ele>
        <time>2020-08-16T07:18:52.000Z</time>
      </trkpt>
      <trkpt lat="43.65362" lon="3.78649">
        <ele>67.486854765537</ele>
        <time>2020-08-16T07:18:53.000Z</time>
      </trkpt>
      <trkpt lat="43.65367" lon="3.78646">
        <ele>67.38948381243</ele>
        <time>2020-08-16T07:18:54.000Z</time>
      </trkpt>
      <trkpt lat="43.65373" lon="3.78643">
        <ele>67.292112859322</ele>
        <time>2020-08-16T07:18:55.000Z</time>
      </trkpt>
      <trkpt lat="43.65378" lon="3.7864">
        <ele>67.194741906215</ele>
        <time>2020-08-16T07:18:56.000Z</time>
      </trkpt>
      <trkpt lat="43.65384" lon="3.78637">
        <ele>67.097370953107</ele>
        <time>2020-08-16T07:18:57.000Z</time>
      </trkpt>
      <trkpt lat="43.6539" lon="3.78633">
        <ele>67</ele>
        <time>2020-08-16T07:18:58.000Z</time>
      </trkpt>
      <trkpt lat="43.65397" lon="3.78629">
        <ele>66.897225043281</ele>
        <time>2020-08-16T07:18:59.000Z</time>
      </trkpt>
      <trkpt lat="43.65403" lon="3.78627">
        <ele>66.794450086561</ele>
        <time>2020-08-16T07:19:00.000Z</time>
      </trkpt>
      <trkpt lat="43.6541" lon="3.78624">
        <ele>66.691675129842</ele>
        <time>2020-08-16T07:19:01.000Z</time>
      </trkpt>
      <trkpt lat="43.65416" lon="3.78621">
        <ele>66.588900173122</ele>
        <time>2020-08-16T07:19:02.000Z</time>
      </trkpt>
      <trkpt lat="43.65421" lon="3.78618">
        <ele>66.486125216403</ele>
        <time>2020-08-16T07:19:03.000Z</time>
      </trkpt>
      <trkpt lat="43.65426" lon="3.78613">
        <ele>66.383350259683</ele>
        <time>2020-08-16T07:19:04.000Z</time>
      </trkpt>
      <trkpt lat="43.65429" lon="3.78608">
        <ele>66.280575302964</ele>
        <time>2020-08-16T07:19:05.000Z</time>
      </trkpt>
      <trkpt lat="43.65432" lon="3.78602">
        <ele>66.177800346245</ele>
        <time>2020-08-16T07:19:06.000Z</time>
      </trkpt>
      <trkpt lat="43.65434" lon="3.78596">
        <ele>66.075025389525</ele>
        <time>2020-08-16T07:19:07.000Z</time>
      </trkpt>
      <trkpt lat="43.65435" lon="3.78589">
        <ele>66</ele>
        <time>2020-08-16T07:19:08.000Z</time>
      </trkpt>
      <trkpt lat="43.65435" lon="3.78583">
        <ele>66</ele>
        <time>2020-08-16T07:19:09.000Z</time>
      </trkpt>
      <trkpt lat="43.65435" lon="3.78578">
        <ele>66</ele>
        <time>2020-08-16T07:19:10.000Z</time>
      </trkpt>
      <trkpt lat="43.65435" lon="3.78573">
        <ele>66</ele>
        <time>2020-08-16T07:19:11.000Z</time>
      </trkpt>
      <trkpt lat="43.65435" lon="3.78569">
        <ele>66</ele>
        <time>2020-08-16T07:19:12.000Z</time>
      </trkpt>
      <trkpt lat="43.65434" lon="3.78564">
        <ele>66</ele>
        <time>2020-08-16T07:19:13.000Z</time>
      </trkpt>
      <trkpt lat="43.65433" lon="3.7856">
        <ele>66</ele>
        <time>2020-08-16T07:19:14.000Z</time>
      </trkpt>
      <trkpt lat="43.65431" lon="3.78556">
        <ele>66</ele>
        <time>2020-08-16T07:19:15.000Z</time>
      </trkpt>
      <trkpt lat="43.6543" lon="3.78552">
        <ele>66</ele>
        <time>2020-08-16T07:19:16.000Z</time>
      </trkpt>
      <trkpt lat="43.65429" lon="3.78548">
        <ele>66</ele>
        <time>2020-08-16T07:19:17.000Z</time>
      </trkpt>
      <trkpt lat="43.65429" lon="3.78543">
        <ele>66</ele>
        <time>2020-08-16T07:19:18.000Z</time>
      </trkpt>
      <trkpt lat="43.65428" lon="3.78539">
        <ele>66</ele>
        <time>2020-08-16T07:19:19.000Z</time>
      </trkpt>
      <trkpt lat="43.65427" lon="3.78534">
        <ele>66</ele>
        <time>2020-08-16T07:19:20.000Z</time>
      </trkpt>
      <trkpt lat="43.65427" lon="3.78529">
        <ele>66</ele>
        <time>2020-08-16T07:19:21.000Z</time>
      </trkpt>
      <trkpt lat="43.65427" lon="3.78525">
        <ele>66</ele>
        <time>2020-08-16T07:19:22.000Z</time>
      </trkpt>
      <trkpt lat="43.65427" lon="3.7852">
        <ele>66</ele>
        <time>2020-08-16T07:19:23.000Z</time>
      </trkpt>
      <trkpt lat="43.65427" lon="3.78515">
        <ele>66</ele>
        <time>2020-08-16T07:19:24.000Z</time>
      </trkpt>
      <trkpt lat="43.65428" lon="3.7851">
        <ele>66</ele>
        <time>2020-08-16T07:19:25.000Z</time>
      </trkpt>
      <trkpt lat="43.6543" lon="3.78505">
        <ele>66</ele>
        <time>2020-08-16T07:19:26.000Z</time>
      </trkpt>
      <trkpt lat="43.65431" lon="3.78501">
        <ele>66</ele>
        <time>2020-08-16T07:19:27.000Z</time>
      </trkpt>
      <trkpt lat="43.65433" lon="3.78496">
        <ele>66.023092690763</ele>
        <time>2020-08-16T07:19:28.000Z</time>
      </trkpt>
      <trkpt lat="43.65434" lon="3.78492">
        <ele>66.123494297189</ele>
        <time>2020-08-16T07:19:29.000Z</time>
      </trkpt>
      <trkpt lat="43.65436" lon="3.78487">
        <ele>66.223895903615</ele>
        <time>2020-08-16T07:19:30.000Z</time>
      </trkpt>
      <trkpt lat="43.65438" lon="3.78483">
        <ele>66.32429751004</ele>
        <time>2020-08-16T07:19:31.000Z</time>
      </trkpt>
      <trkpt lat="43.65439" lon="3.78479">
        <ele>66.424699116466</ele>
        <time>2020-08-16T07:19:32.000Z</time>
      </trkpt>
      <trkpt lat="43.65441" lon="3.78475">
        <ele>66.525100722892</ele>
        <time>2020-08-16T07:19:33.000Z</time>
      </trkpt>
      <trkpt lat="43.65443" lon="3.7847">
        <ele>66.625502329317</ele>
        <time>2020-08-16T07:19:34.000Z</time>
      </trkpt>
      <trkpt lat="43.65445" lon="3.78466">
        <ele>66.725903935743</ele>
        <time>2020-08-16T07:19:35.000Z</time>
      </trkpt>
      <trkpt lat="43.65447" lon="3.78462">
        <ele>66.826305542169</ele>
        <time>2020-08-16T07:19:36.000Z</time>
      </trkpt>
      <trkpt lat="43.65449" lon="3.78458">
        <ele>66.926707148594</ele>
        <time>2020-08-16T07:19:37.000Z</time>
      </trkpt>
      <trkpt lat="43.6545" lon="3.78454">
        <ele>67.05400064</ele>
        <time>2020-08-16T07:19:38.000Z</time>
      </trkpt>
      <trkpt lat="43.65452" lon="3.7845">
        <ele>67.25400064</ele>
        <time>2020-08-16T07:19:39.000Z</time>
      </trkpt>
      <trkpt lat="43.65454" lon="3.78446">
        <ele>67.45400064</ele>
        <time>2020-08-16T07:19:40.000Z</time>
      </trkpt>
      <trkpt lat="43.65455" lon="3.78442">
        <ele>67.65400064</ele>
        <time>2020-08-16T07:19:41.000Z</time>
      </trkpt>
      <trkpt lat="43.65457" lon="3.78438">
        <ele>67.85400064</ele>
        <time>2020-08-16T07:19:42.000Z</time>
      </trkpt>
      <trkpt lat="43.65459" lon="3.78433">
        <ele>68.05400064</ele>
        <time>2020-08-16T07:19:43.000Z</time>
      </trkpt>
      <trkpt lat="43.65461" lon="3.78429">
        <ele>68.25400064</ele>
        <time>2020-08-16T07:19:44.000Z</time>
      </trkpt>
      <trkpt lat="43.65463" lon="3.78425">
        <ele>68.45400064</ele>
        <time>2020-08-16T07:19:45.000Z</time>
      </trkpt>
      <trkpt lat="43.65465" lon="3.78422">
        <ele>68.65400064</ele>
        <time>2020-08-16T07:19:46.000Z</time>
      </trkpt>
      <trkpt lat="43.65467" lon="3.78418">
        <ele>68.85400064</ele>
        <time>2020-08-16T07:19:47.000Z</time>
      </trkpt>
      <trkpt lat="43.65469" lon="3.78415">
        <ele>69.05400064</ele>
        <time>2020-08-16T07:19:48.000Z</time>
      </trkpt>
      <trkpt lat="43.65471" lon="3.78412">
        <ele>69.25400064</ele>
        <time>2020-08-16T07:19:49.000Z</time>
      </trkpt>
      <trkpt lat="43.65473" lon="3.78409">
        <ele>69.45400064</ele>
        <time>2020-08-16T07:19:50.000Z</time>
      </trkpt>
      <trkpt lat="43.65475" lon="3.78406">
        <ele>69.65400064</ele>
        <time>2020-08-16T07:19:51.000Z</time>
      </trkpt>
      <trkpt lat="43.65477" lon="3.78403">
        <ele>69.85400064</ele>
        <time>2020-08-16T07:19:52.000Z</time>
      </trkpt>
      <trkpt lat="43.65479" lon="3.78399">
        <ele>70.05400064</ele>
        <time>2020-08-16T07:19:53.000Z</time>
      </trkpt>
      <trkpt lat="43.65481" lon="3.78396">
        <ele>70.25400064</ele>
        <time>2020-08-16T07:19:54.000Z</time>
      </trkpt>
      <trkpt lat="43.65483" lon="3.78393">
        <ele>70.45400064</ele>
        <time>2020-08-16T07:19:55.000Z</time>
      </trkpt>
      <trkpt lat="43.65484" lon="3.78391">
        <ele>70.65400064</ele>
        <time>2020-08-16T07:19:56.000Z</time>
      </trkpt>
      <trkpt lat="43.65486" lon="3.78388">
        <ele>70.85400064</ele>
        <time>2020-08-16T07:19:57.000Z</time>
      </trkpt>
      <trkpt lat="43.65488" lon="3.78385">
        <ele>71.05400064</ele>
        <time>2020-08-16T07:19:58.000Z</time>
      </trkpt>
      <trkpt lat="43.6549" lon="3.78383">
        <ele>71.25400064</ele>
        <time>2020-08-16T07:19:59.000Z</time>
      </trkpt>
      <trkpt lat="43.65491" lon="3.7838">
        <ele>71.45400064</ele>
        <time>2020-08-16T07:20:00.000Z</time>
      </trkpt>
      <trkpt lat="43.65493" lon="3.78377">
        <ele>71.65400064</ele>
        <time>2020-08-16T07:20:01.000Z</time>
      </trkpt>
      <trkpt lat="43.65494" lon="3.78375">
        <ele>71.85400064</ele>
        <time>2020-08-16T07:20:02.000Z</time>
      </trkpt>
      <trkpt lat="43.65496" lon="3.78372">
        <ele>72.05400064</ele>
        <time>2020-08-16T07:20:03.000Z</time>
      </trkpt>
      <trkpt lat="43.65498" lon="3.7837">
        <ele>72.25400064</ele>
        <time>2020-08-16T07:20:04.000Z</time>
      </trkpt>
      <trkpt lat="43.65499" lon="3.78368">
        <ele>72.45400064</ele>
        <time>2020-08-16T07:20:05.000Z</time>
      </trkpt>
      <trkpt lat="43.65501" lon="3.78366">
        <ele>72.65400064</ele>
        <time>2020-08-16T07:20:06.000Z</time>
      </trkpt>
      <trkpt lat="43.65503" lon="3.78364">
        <ele>72.85400064</ele>
        <time>2020-08-16T07:20:07.000Z</time>
      </trkpt>
      <trkpt lat="43.65504" lon="3.78361">
        <ele>73.026264902724</ele>
        <time>2020-08-16T07:20:08.000Z</time>
      </trkpt>
      <trkpt lat="43.65506" lon="3.78359">
        <ele>73.123541167315</ele>
        <time>2020-08-16T07:20:09.000Z</time>
      </trkpt>
      <trkpt lat="43.65508" lon="3.78357">
        <ele>73.220817431907</ele>
        <time>2020-08-16T07:20:10.000Z</time>
      </trkpt>
      <trkpt lat="43.6551" lon="3.78355">
        <ele>73.318093696498</ele>
        <time>2020-08-16T07:20:11.000Z</time>
      </trkpt>
      <trkpt lat="43.65512" lon="3.78353">
        <ele>73.415369961089</ele>
        <time>2020-08-16T07:20:12.000Z</time>
      </trkpt>
      <trkpt lat="43.65514" lon="3.78352">
        <ele>73.512646225681</ele>
        <time>2020-08-16T07:20:13.000Z</time>
      </trkpt>
      <trkpt lat="43.65517" lon="3.7835">
        <ele>73.609922490272</ele>
        <time>2020-08-16T07:20:14.000Z</time>
      </trkpt>
      <trkpt lat="43.65519" lon="3.78349">
        <ele>73.707198754864</ele>
        <time>2020-08-16T07:20:15.000Z</time>
      </trkpt>
      <trkpt lat="43.65521" lon="3.78348">
        <ele>73.804475019455</ele>
        <time>2020-08-16T07:20:16.000Z</time>
      </trkpt>
      <trkpt lat="43.65523" lon="3.78347">
        <ele>73.901751284047</ele>
        <time>2020-08-16T07:20:17.000Z</time>
      </trkpt>
      <trkpt lat="43.65525" lon="3.78347">
        <ele>73.999027548638</ele>
        <time>2020-08-16T07:20:18.000Z</time>
      </trkpt>
      <trkpt lat="43.65527" lon="3.78345">
        <ele>74.204732839506</ele>
        <time>2020-08-16T07:20:20.000Z</time>
      </trkpt>
      <trkpt lat="43.6553" lon="3.78342">
        <ele>74.410494156379</ele>
        <time>2020-08-16T07:20:22.000Z</time>
      </trkpt>
      <trkpt lat="43.65531" lon="3.7834">
        <ele>74.513374814815</ele>
        <time>2020-08-16T07:20:23.000Z</time>
      </trkpt>
      <trkpt lat="43.65532" lon="3.78337">
        <ele>74.616255473251</ele>
        <time>2020-08-16T07:20:24.000Z</time>
      </trkpt>
      <trkpt lat="43.65533" lon="3.78334">
        <ele>74.719136131687</ele>
        <time>2020-08-16T07:20:25.000Z</time>
      </trkpt>
      <trkpt lat="43.65534" lon="3.7833">
        <ele>74.822016790123</ele>
        <time>2020-08-16T07:20:26.000Z</time>
      </trkpt>
      <trkpt lat="43.65536" lon="3.78327">
        <ele>74.92489744856</ele>
        <time>2020-08-16T07:20:27.000Z</time>
      </trkpt>
      <trkpt lat="43.65538" lon="3.78324">
        <ele>75.05400064</ele>
        <time>2020-08-16T07:20:28.000Z</time>
      </trkpt>
      <trkpt lat="43.6554" lon="3.78321">
        <ele>75.25400064</ele>
        <time>2020-08-16T07:20:29.000Z</time>
      </trkpt>
      <trkpt lat="43.65542" lon="3.78318">
        <ele>75.45400064</ele>
        <time>2020-08-16T07:20:30.000Z</time>
      </trkpt>
      <trkpt lat="43.65544" lon="3.78315">
        <ele>75.65400064</ele>
        <time>2020-08-16T07:20:31.000Z</time>
      </trkpt>
      <trkpt lat="43.65546" lon="3.78312">
        <ele>75.85400064</ele>
        <time>2020-08-16T07:20:32.000Z</time>
      </trkpt>
      <trkpt lat="43.65548" lon="3.78309">
        <ele>76.05400064</ele>
        <time>2020-08-16T07:20:33.000Z</time>
      </trkpt>
      <trkpt lat="43.65549" lon="3.78305">
        <ele>76.25400064</ele>
        <time>2020-08-16T07:20:34.000Z</time>
      </trkpt>
      <trkpt lat="43.65551" lon="3.78302">
        <ele>76.45400064</ele>
        <time>2020-08-16T07:20:35.000Z</time>
      </trkpt>
      <trkpt lat="43.65553" lon="3.78299">
        <ele>76.65400064</ele>
        <time>2020-08-16T07:20:36.000Z</time>
      </trkpt>
      <trkpt lat="43.65555" lon="3.78295">
        <ele>76.85400064</ele>
        <time>2020-08-16T07:20:37.000Z</time>
      </trkpt>
      <trkpt lat="43.65556" lon="3.78292">
        <ele>77.02700032</ele>
        <time>2020-08-16T07:20:38.000Z</time>
      </trkpt>
      <trkpt lat="43.65558" lon="3.78288">
        <ele>77.12700032</ele>
        <time>2020-08-16T07:20:39.000Z</time>
      </trkpt>
      <trkpt lat="43.6556" lon="3.78285">
        <ele>77.22700032</ele>
        <time>2020-08-16T07:20:40.000Z</time>
      </trkpt>
      <trkpt lat="43.65561" lon="3.78281">
        <ele>77.32700032</ele>
        <time>2020-08-16T07:20:41.000Z</time>
      </trkpt>
      <trkpt lat="43.65562" lon="3.78277">
        <ele>77.42700032</ele>
        <time>2020-08-16T07:20:42.000Z</time>
      </trkpt>
      <trkpt lat="43.65563" lon="3.78274">
        <ele>77.52700032</ele>
        <time>2020-08-16T07:20:43.000Z</time>
      </trkpt>
      <trkpt lat="43.65564" lon="3.78271">
        <ele>77.62700032</ele>
        <time>2020-08-16T07:20:44.000Z</time>
      </trkpt>
      <trkpt lat="43.65565" lon="3.78267">
        <ele>77.72700032</ele>
        <time>2020-08-16T07:20:45.000Z</time>
      </trkpt>
      <trkpt lat="43.65566" lon="3.78264">
        <ele>77.82700032</ele>
        <time>2020-08-16T07:20:46.000Z</time>
      </trkpt>
      <trkpt lat="43.65566" lon="3.7826">
        <ele>77.92700032</ele>
        <time>2020-08-16T07:20:47.000Z</time>
      </trkpt>
      <trkpt lat="43.65567" lon="3.78257">
        <ele>78</ele>
        <time>2020-08-16T07:20:48.000Z</time>
      </trkpt>
      <trkpt lat="43.65567" lon="3.78253">
        <ele>78</ele>
        <time>2020-08-16T07:20:49.000Z</time>
      </trkpt>
      <trkpt lat="43.65567" lon="3.7825">
        <ele>78</ele>
        <time>2020-08-16T07:20:50.000Z</time>
      </trkpt>
      <trkpt lat="43.65567" lon="3.78247">
        <ele>78</ele>
        <time>2020-08-16T07:20:51.000Z</time>
      </trkpt>
      <trkpt lat="43.65567" lon="3.78244">
        <ele>78</ele>
        <time>2020-08-16T07:20:52.000Z</time>
      </trkpt>
      <trkpt lat="43.65567" lon="3.7824">
        <ele>78</ele>
        <time>2020-08-16T07:20:53.000Z</time>
      </trkpt>
      <trkpt lat="43.65566" lon="3.78237">
        <ele>78</ele>
        <time>2020-08-16T07:20:54.000Z</time>
      </trkpt>
      <trkpt lat="43.65566" lon="3.78233">
        <ele>78</ele>
        <time>2020-08-16T07:20:55.000Z</time>
      </trkpt>
      <trkpt lat="43.65566" lon="3.78229">
        <ele>78</ele>
        <time>2020-08-16T07:20:56.000Z</time>
      </trkpt>
      <trkpt lat="43.65567" lon="3.78226">
        <ele>78</ele>
        <time>2020-08-16T07:20:57.000Z</time>
      </trkpt>
      <trkpt lat="43.65566" lon="3.78222">
        <ele>78.05400064</ele>
        <time>2020-08-16T07:20:58.000Z</time>
      </trkpt>
      <trkpt lat="43.65567" lon="3.78219">
        <ele>78.25400064</ele>
        <time>2020-08-16T07:20:59.000Z</time>
      </trkpt>
      <trkpt lat="43.65567" lon="3.78215">
        <ele>78.45400064</ele>
        <time>2020-08-16T07:21:00.000Z</time>
      </trkpt>
      <trkpt lat="43.65567" lon="3.78212">
        <ele>78.65400064</ele>
        <time>2020-08-16T07:21:01.000Z</time>
      </trkpt>
      <trkpt lat="43.65567" lon="3.78208">
        <ele>78.85400064</ele>
        <time>2020-08-16T07:21:02.000Z</time>
      </trkpt>
      <trkpt lat="43.65567" lon="3.78205">
        <ele>79.05400064</ele>
        <time>2020-08-16T07:21:03.000Z</time>
      </trkpt>
      <trkpt lat="43.65567" lon="3.78201">
        <ele>79.25400064</ele>
        <time>2020-08-16T07:21:04.000Z</time>
      </trkpt>
      <trkpt lat="43.65566" lon="3.78197">
        <ele>79.45400064</ele>
        <time>2020-08-16T07:21:05.000Z</time>
      </trkpt>
      <trkpt lat="43.65566" lon="3.78193">
        <ele>79.65400064</ele>
        <time>2020-08-16T07:21:06.000Z</time>
      </trkpt>
      <trkpt lat="43.65566" lon="3.78189">
        <ele>79.85400064</ele>
        <time>2020-08-16T07:21:07.000Z</time>
      </trkpt>
      <trkpt lat="43.65565" lon="3.78186">
        <ele>80.026213886624</ele>
        <time>2020-08-16T07:21:08.000Z</time>
      </trkpt>
      <trkpt lat="43.65564" lon="3.78182">
        <ele>80.123301204939</ele>
        <time>2020-08-16T07:21:09.000Z</time>
      </trkpt>
      <trkpt lat="43.65562" lon="3.78178">
        <ele>80.220388523254</ele>
        <time>2020-08-16T07:21:10.000Z</time>
      </trkpt>
      <trkpt lat="43.6556" lon="3.78173">
        <ele>80.317475841568</ele>
        <time>2020-08-16T07:21:11.000Z</time>
      </trkpt>
      <trkpt lat="43.65558" lon="3.78169">
        <ele>80.414563159883</ele>
        <time>2020-08-16T07:21:12.000Z</time>
      </trkpt>
      <trkpt lat="43.65557" lon="3.78165">
        <ele>80.511650478198</ele>
        <time>2020-08-16T07:21:13.000Z</time>
      </trkpt>
      <trkpt lat="43.65555" lon="3.78162">
        <ele>80.608737796512</ele>
        <time>2020-08-16T07:21:14.000Z</time>
      </trkpt>
      <trkpt lat="43.65553" lon="3.78158">
        <ele>80.705825114827</ele>
        <time>2020-08-16T07:21:15.000Z</time>
      </trkpt>
      <trkpt lat="43.65551" lon="3.78155">
        <ele>80.802912433142</ele>
        <time>2020-08-16T07:21:16.000Z</time>
      </trkpt>
      <trkpt lat="43.6555" lon="3.78152">
        <ele>80.899999751457</ele>
        <time>2020-08-16T07:21:17.000Z</time>
      </trkpt>
      <trkpt lat="43.65548" lon="3.78149">
        <ele>80.997087069771</ele>
        <time>2020-08-16T07:21:18.000Z</time>
      </trkpt>
      <trkpt lat="43.65547" lon="3.78146">
        <ele>81.099999736082</ele>
        <time>2020-08-16T07:21:19.000Z</time>
      </trkpt>
      <trkpt lat="43.65545" lon="3.78143">
        <ele>81.203092587608</ele>
        <time>2020-08-16T07:21:20.000Z</time>
      </trkpt>
      <trkpt lat="43.65543" lon="3.7814">
        <ele>81.306185439133</ele>
        <time>2020-08-16T07:21:21.000Z</time>
      </trkpt>
      <trkpt lat="43.65542" lon="3.78137">
        <ele>81.409278290658</ele>
        <time>2020-08-16T07:21:22.000Z</time>
      </trkpt>
      <trkpt lat="43.65541" lon="3.78134">
        <ele>81.512371142183</ele>
        <time>2020-08-16T07:21:23.000Z</time>
      </trkpt>
      <trkpt lat="43.6554" lon="3.78131">
        <ele>81.615463993708</ele>
        <time>2020-08-16T07:21:24.000Z</time>
      </trkpt>
      <trkpt lat="43.65539" lon="3.78128">
        <ele>81.718556845233</ele>
        <time>2020-08-16T07:21:25.000Z</time>
      </trkpt>
      <trkpt lat="43.65538" lon="3.78125">
        <ele>81.821649696759</ele>
        <time>2020-08-16T07:21:26.000Z</time>
      </trkpt>
      <trkpt lat="43.65538" lon="3.78121">
        <ele>81.924742548284</ele>
        <time>2020-08-16T07:21:27.000Z</time>
      </trkpt>
      <trkpt lat="43.65537" lon="3.78117">
        <ele>81.97299968</ele>
        <time>2020-08-16T07:21:28.000Z</time>
      </trkpt>
      <trkpt lat="43.65536" lon="3.78114">
        <ele>81.87299968</ele>
        <time>2020-08-16T07:21:29.000Z</time>
      </trkpt>
      <trkpt lat="43.65535" lon="3.7811">
        <ele>81.77299968</ele>
        <time>2020-08-16T07:21:30.000Z</time>
      </trkpt>
      <trkpt lat="43.65534" lon="3.78105">
        <ele>81.67299968</ele>
        <time>2020-08-16T07:21:31.000Z</time>
      </trkpt>
      <trkpt lat="43.65533" lon="3.78099">
        <ele>81.57299968</ele>
        <time>2020-08-16T07:21:32.000Z</time>
      </trkpt>
      <trkpt lat="43.65533" lon="3.78093">
        <ele>81.47299968</ele>
        <time>2020-08-16T07:21:33.000Z</time>
      </trkpt>
      <trkpt lat="43.65534" lon="3.78086">
        <ele>81.37299968</ele>
        <time>2020-08-16T07:21:34.000Z</time>
      </trkpt>
      <trkpt lat="43.65535" lon="3.78079">
        <ele>81.27299968</ele>
        <time>2020-08-16T07:21:35.000Z</time>
      </trkpt>
      <trkpt lat="43.65535" lon="3.78072">
        <ele>81.17299968</ele>
        <time>2020-08-16T07:21:36.000Z</time>
      </trkpt>
      <trkpt lat="43.65535" lon="3.78065">
        <ele>81.07299968</ele>
        <time>2020-08-16T07:21:37.000Z</time>
      </trkpt>
      <trkpt lat="43.65535" lon="3.78057">
        <ele>80.94599936</ele>
        <time>2020-08-16T07:21:38.000Z</time>
      </trkpt>
      <trkpt lat="43.65534" lon="3.7805">
        <ele>80.74599936</ele>
        <time>2020-08-16T07:21:39.000Z</time>
      </trkpt>
      <trkpt lat="43.65533" lon="3.78043">
        <ele>80.54599936</ele>
        <time>2020-08-16T07:21:40.000Z</time>
      </trkpt>
      <trkpt lat="43.65532" lon="3.78037">
        <ele>80.34599936</ele>
        <time>2020-08-16T07:21:41.000Z</time>
      </trkpt>
      <trkpt lat="43.65531" lon="3.7803">
        <ele>80.14599936</ele>
        <time>2020-08-16T07:21:42.000Z</time>
      </trkpt>
      <trkpt lat="43.65529" lon="3.78024">
        <ele>79.94599936</ele>
        <time>2020-08-16T07:21:43.000Z</time>
      </trkpt>
      <trkpt lat="43.65527" lon="3.78018">
        <ele>79.74599936</ele>
        <time>2020-08-16T07:21:44.000Z</time>
      </trkpt>
      <trkpt lat="43.65524" lon="3.78012">
        <ele>79.54599936</ele>
        <time>2020-08-16T07:21:45.000Z</time>
      </trkpt>
      <trkpt lat="43.65522" lon="3.78007">
        <ele>79.34599936</ele>
        <time>2020-08-16T07:21:46.000Z</time>
      </trkpt>
      <trkpt lat="43.6552" lon="3.78001">
        <ele>79.14599936</ele>
        <time>2020-08-16T07:21:47.000Z</time>
      </trkpt>
      <trkpt lat="43.65519" lon="3.77996">
        <ele>78.94599936</ele>
        <time>2020-08-16T07:21:48.000Z</time>
      </trkpt>
      <trkpt lat="43.65517" lon="3.7799">
        <ele>78.74599936</ele>
        <time>2020-08-16T07:21:49.000Z</time>
      </trkpt>
      <trkpt lat="43.65515" lon="3.77984">
        <ele>78.54599936</ele>
        <time>2020-08-16T07:21:50.000Z</time>
      </trkpt>
      <trkpt lat="43.65512" lon="3.77978">
        <ele>78.34599936</ele>
        <time>2020-08-16T07:21:51.000Z</time>
      </trkpt>
      <trkpt lat="43.65509" lon="3.77974">
        <ele>78.14599936</ele>
        <time>2020-08-16T07:21:52.000Z</time>
      </trkpt>
      <trkpt lat="43.65505" lon="3.77972">
        <ele>77.94599936</ele>
        <time>2020-08-16T07:21:53.000Z</time>
      </trkpt>
      <trkpt lat="43.655" lon="3.77972">
        <ele>77.74599936</ele>
        <time>2020-08-16T07:21:54.000Z</time>
      </trkpt>
      <trkpt lat="43.65496" lon="3.77971">
        <ele>77.54599936</ele>
        <time>2020-08-16T07:21:55.000Z</time>
      </trkpt>
      <trkpt lat="43.65492" lon="3.77968">
        <ele>77.34599936</ele>
        <time>2020-08-16T07:21:56.000Z</time>
      </trkpt>
      <trkpt lat="43.65489" lon="3.77963">
        <ele>77.14599936</ele>
        <time>2020-08-16T07:21:57.000Z</time>
      </trkpt>
      <trkpt lat="43.65487" lon="3.77958">
        <ele>77</ele>
        <time>2020-08-16T07:21:58.000Z</time>
      </trkpt>
      <trkpt lat="43.65485" lon="3.77952">
        <ele>77</ele>
        <time>2020-08-16T07:21:59.000Z</time>
      </trkpt>
      <trkpt lat="43.65483" lon="3.77946">
        <ele>77</ele>
        <time>2020-08-16T07:22:00.000Z</time>
      </trkpt>
      <trkpt lat="43.65482" lon="3.7794">
        <ele>77</ele>
        <time>2020-08-16T07:22:01.000Z</time>
      </trkpt>
      <trkpt lat="43.65482" lon="3.77934">
        <ele>77</ele>
        <time>2020-08-16T07:22:02.000Z</time>
      </trkpt>
      <trkpt lat="43.65482" lon="3.77929">
        <ele>77</ele>
        <time>2020-08-16T07:22:03.000Z</time>
      </trkpt>
      <trkpt lat="43.65482" lon="3.77925">
        <ele>77</ele>
        <time>2020-08-16T07:22:04.000Z</time>
      </trkpt>
      <trkpt lat="43.65482" lon="3.77921">
        <ele>77</ele>
        <time>2020-08-16T07:22:05.000Z</time>
      </trkpt>
      <trkpt lat="43.65483" lon="3.77917">
        <ele>77</ele>
        <time>2020-08-16T07:22:06.000Z</time>
      </trkpt>
      <trkpt lat="43.65484" lon="3.77913">
        <ele>77</ele>
        <time>2020-08-16T07:22:07.000Z</time>
      </trkpt>
      <trkpt lat="43.65485" lon="3.7791">
        <ele>77</ele>
        <time>2020-08-16T07:22:08.000Z</time>
      </trkpt>
      <trkpt lat="43.65486" lon="3.77906">
        <ele>77.20533867411</ele>
        <time>2020-08-16T07:22:09.000Z</time>
      </trkpt>
      <trkpt lat="43.65487" lon="3.77903">
        <ele>77.41067734822</ele>
        <time>2020-08-16T07:22:10.000Z</time>
      </trkpt>
      <trkpt lat="43.65489" lon="3.779">
        <ele>77.61601602233</ele>
        <time>2020-08-16T07:22:11.000Z</time>
      </trkpt>
      <trkpt lat="43.6549" lon="3.77896">
        <ele>77.82135469644</ele>
        <time>2020-08-16T07:22:12.000Z</time>
      </trkpt>
      <trkpt lat="43.65491" lon="3.77893">
        <ele>78.026693370551</ele>
        <time>2020-08-16T07:22:13.000Z</time>
      </trkpt>
      <trkpt lat="43.65492" lon="3.77889">
        <ele>78.232032044661</ele>
        <time>2020-08-16T07:22:14.000Z</time>
      </trkpt>
      <trkpt lat="43.65493" lon="3.77886">
        <ele>78.437370718771</ele>
        <time>2020-08-16T07:22:15.000Z</time>
      </trkpt>
      <trkpt lat="43.65494" lon="3.77882">
        <ele>78.642709392881</ele>
        <time>2020-08-16T07:22:16.000Z</time>
      </trkpt>
      <trkpt lat="43.65495" lon="3.77878">
        <ele>78.848048066991</ele>
        <time>2020-08-16T07:22:17.000Z</time>
      </trkpt>
      <trkpt lat="43.65495" lon="3.77874">
        <ele>79.026025410395</ele>
        <time>2020-08-16T07:22:18.000Z</time>
      </trkpt>
      <trkpt lat="43.65496" lon="3.77871">
        <ele>79.126125606687</ele>
        <time>2020-08-16T07:22:19.000Z</time>
      </trkpt>
      <trkpt lat="43.65496" lon="3.77867">
        <ele>79.22622580298</ele>
        <time>2020-08-16T07:22:20.000Z</time>
      </trkpt>
      <trkpt lat="43.65497" lon="3.77863">
        <ele>79.326325999272</ele>
        <time>2020-08-16T07:22:21.000Z</time>
      </trkpt>
      <trkpt lat="43.65498" lon="3.7786">
        <ele>79.426426195565</ele>
        <time>2020-08-16T07:22:22.000Z</time>
      </trkpt>
      <trkpt lat="43.65499" lon="3.77856">
        <ele>79.526526391857</ele>
        <time>2020-08-16T07:22:23.000Z</time>
      </trkpt>
      <trkpt lat="43.655" lon="3.77852">
        <ele>79.62662658815</ele>
        <time>2020-08-16T07:22:24.000Z</time>
      </trkpt>
      <trkpt lat="43.65501" lon="3.77849">
        <ele>79.726726784442</ele>
        <time>2020-08-16T07:22:25.000Z</time>
      </trkpt>
      <trkpt lat="43.65502" lon="3.77846">
        <ele>79.826826980735</ele>
        <time>2020-08-16T07:22:26.000Z</time>
      </trkpt>
      <trkpt lat="43.65503" lon="3.77842">
        <ele>79.926927177027</ele>
        <time>2020-08-16T07:22:27.000Z</time>
      </trkpt>
      <trkpt lat="43.65503" lon="3.77839">
        <ele>80</ele>
        <time>2020-08-16T07:22:28.000Z</time>
      </trkpt>
      <trkpt lat="43.65504" lon="3.77835">
        <ele>80</ele>
        <time>2020-08-16T07:22:29.000Z</time>
      </trkpt>
      <trkpt lat="43.65505" lon="3.77832">
        <ele>80</ele>
        <time>2020-08-16T07:22:30.000Z</time>
      </trkpt>
      <trkpt lat="43.65506" lon="3.77828">
        <ele>80</ele>
        <time>2020-08-16T07:22:31.000Z</time>
      </trkpt>
      <trkpt lat="43.65507" lon="3.77825">
        <ele>80</ele>
        <time>2020-08-16T07:22:32.000Z</time>
      </trkpt>
      <trkpt lat="43.65508" lon="3.77821">
        <ele>80</ele>
        <time>2020-08-16T07:22:33.000Z</time>
      </trkpt>
      <trkpt lat="43.65509" lon="3.77817">
        <ele>80</ele>
        <time>2020-08-16T07:22:34.000Z</time>
      </trkpt>
      <trkpt lat="43.65509" lon="3.77813">
        <ele>80</ele>
        <time>2020-08-16T07:22:35.000Z</time>
      </trkpt>
      <trkpt lat="43.6551" lon="3.77808">
        <ele>80</ele>
        <time>2020-08-16T07:22:36.000Z</time>
      </trkpt>
      <trkpt lat="43.65509" lon="3.77803">
        <ele>80</ele>
        <time>2020-08-16T07:22:37.000Z</time>
      </trkpt>
      <trkpt lat="43.65509" lon="3.77797">
        <ele>79.973026679215</ele>
        <time>2020-08-16T07:22:38.000Z</time>
      </trkpt>
      <trkpt lat="43.65509" lon="3.77792">
        <ele>79.873126675123</ele>
        <time>2020-08-16T07:22:39.000Z</time>
      </trkpt>
      <trkpt lat="43.65509" lon="3.77786">
        <ele>79.773226671031</ele>
        <time>2020-08-16T07:22:40.000Z</time>
      </trkpt>
      <trkpt lat="43.65509" lon="3.7778">
        <ele>79.67332666694</ele>
        <time>2020-08-16T07:22:41.000Z</time>
      </trkpt>
      <trkpt lat="43.65509" lon="3.77774">
        <ele>79.573426662848</ele>
        <time>2020-08-16T07:22:42.000Z</time>
      </trkpt>
      <trkpt lat="43.65508" lon="3.77768">
        <ele>79.473526658756</ele>
        <time>2020-08-16T07:22:43.000Z</time>
      </trkpt>
      <trkpt lat="43.65508" lon="3.77762">
        <ele>79.373626654664</ele>
        <time>2020-08-16T07:22:44.000Z</time>
      </trkpt>
      <trkpt lat="43.65508" lon="3.77757">
        <ele>79.273726650572</ele>
        <time>2020-08-16T07:22:45.000Z</time>
      </trkpt>
      <trkpt lat="43.65507" lon="3.77753">
        <ele>79.17382664648</ele>
        <time>2020-08-16T07:22:46.000Z</time>
      </trkpt>
      <trkpt lat="43.65507" lon="3.77748">
        <ele>79.073926642388</ele>
        <time>2020-08-16T07:22:47.000Z</time>
      </trkpt>
      <trkpt lat="43.65507" lon="3.77745">
        <ele>78.973974589605</ele>
        <time>2020-08-16T07:22:48.000Z</time>
      </trkpt>
      <trkpt lat="43.65508" lon="3.77741">
        <ele>78.873874393313</ele>
        <time>2020-08-16T07:22:49.000Z</time>
      </trkpt>
      <trkpt lat="43.65507" lon="3.77738">
        <ele>78.77377419702</ele>
        <time>2020-08-16T07:22:50.000Z</time>
      </trkpt>
      <trkpt lat="43.65507" lon="3.77735">
        <ele>78.673674000728</ele>
        <time>2020-08-16T07:22:51.000Z</time>
      </trkpt>
      <trkpt lat="43.65506" lon="3.77733">
        <ele>78.573573804435</ele>
        <time>2020-08-16T07:22:52.000Z</time>
      </trkpt>
      <trkpt lat="43.65505" lon="3.7773">
        <ele>78.473473608143</ele>
        <time>2020-08-16T07:22:53.000Z</time>
      </trkpt>
      <trkpt lat="43.65504" lon="3.77726">
        <ele>78.37337341185</ele>
        <time>2020-08-16T07:22:54.000Z</time>
      </trkpt>
      <trkpt lat="43.65503" lon="3.77721">
        <ele>78.273273215558</ele>
        <time>2020-08-16T07:22:55.000Z</time>
      </trkpt>
      <trkpt lat="43.65502" lon="3.77717">
        <ele>78.173173019265</ele>
        <time>2020-08-16T07:22:56.000Z</time>
      </trkpt>
      <trkpt lat="43.65502" lon="3.77712">
        <ele>78.073072822973</ele>
        <time>2020-08-16T07:22:57.000Z</time>
      </trkpt>
      <trkpt lat="43.65501" lon="3.77708">
        <ele>78</ele>
        <time>2020-08-16T07:22:58.000Z</time>
      </trkpt>
      <trkpt lat="43.655" lon="3.77704">
        <ele>78</ele>
        <time>2020-08-16T07:22:59.000Z</time>
      </trkpt>
      <trkpt lat="43.65499" lon="3.77701">
        <ele>78</ele>
        <time>2020-08-16T07:23:00.000Z</time>
      </trkpt>
      <trkpt lat="43.65499" lon="3.77698">
        <ele>78</ele>
        <time>2020-08-16T07:23:01.000Z</time>
      </trkpt>
      <trkpt lat="43.65497" lon="3.77696">
        <ele>78</ele>
        <time>2020-08-16T07:23:02.000Z</time>
      </trkpt>
      <trkpt lat="43.65496" lon="3.77693">
        <ele>78</ele>
        <time>2020-08-16T07:23:03.000Z</time>
      </trkpt>
      <trkpt lat="43.65494" lon="3.77691">
        <ele>78</ele>
        <time>2020-08-16T07:23:04.000Z</time>
      </trkpt>
      <trkpt lat="43.65493" lon="3.77688">
        <ele>78</ele>
        <time>2020-08-16T07:23:05.000Z</time>
      </trkpt>
      <trkpt lat="43.65492" lon="3.77685">
        <ele>78</ele>
        <time>2020-08-16T07:23:06.000Z</time>
      </trkpt>
      <trkpt lat="43.65492" lon="3.77681">
        <ele>78</ele>
        <time>2020-08-16T07:23:07.000Z</time>
      </trkpt>
      <trkpt lat="43.65492" lon="3.77677">
        <ele>78.05400064</ele>
        <time>2020-08-16T07:23:08.000Z</time>
      </trkpt>
      <trkpt lat="43.65493" lon="3.77672">
        <ele>78.25400064</ele>
        <time>2020-08-16T07:23:09.000Z</time>
      </trkpt>
      <trkpt lat="43.65493" lon="3.77668">
        <ele>78.45400064</ele>
        <time>2020-08-16T07:23:10.000Z</time>
      </trkpt>
      <trkpt lat="43.65493" lon="3.77664">
        <ele>78.65400064</ele>
        <time>2020-08-16T07:23:11.000Z</time>
      </trkpt>
      <trkpt lat="43.65494" lon="3.7766">
        <ele>78.85400064</ele>
        <time>2020-08-16T07:23:12.000Z</time>
      </trkpt>
      <trkpt lat="43.65494" lon="3.77655">
        <ele>79.05400064</ele>
        <time>2020-08-16T07:23:13.000Z</time>
      </trkpt>
      <trkpt lat="43.65494" lon="3.77651">
        <ele>79.25400064</ele>
        <time>2020-08-16T07:23:14.000Z</time>
      </trkpt>
      <trkpt lat="43.65494" lon="3.77648">
        <ele>79.45400064</ele>
        <time>2020-08-16T07:23:15.000Z</time>
      </trkpt>
      <trkpt lat="43.65493" lon="3.77644">
        <ele>79.65400064</ele>
        <time>2020-08-16T07:23:16.000Z</time>
      </trkpt>
      <trkpt lat="43.65492" lon="3.77641">
        <ele>79.85400064</ele>
        <time>2020-08-16T07:23:17.000Z</time>
      </trkpt>
      <trkpt lat="43.65492" lon="3.77638">
        <ele>80.02702733869</ele>
        <time>2020-08-16T07:23:18.000Z</time>
      </trkpt>
      <trkpt lat="43.65491" lon="3.77634">
        <ele>80.127127406726</ele>
        <time>2020-08-16T07:23:19.000Z</time>
      </trkpt>
      <trkpt lat="43.65491" lon="3.77631">
        <ele>80.227227474762</ele>
        <time>2020-08-16T07:23:20.000Z</time>
      </trkpt>
      <trkpt lat="43.65492" lon="3.77628">
        <ele>80.327327542798</ele>
        <time>2020-08-16T07:23:21.000Z</time>
      </trkpt>
      <trkpt lat="43.65492" lon="3.77625">
        <ele>80.427427610834</ele>
        <time>2020-08-16T07:23:22.000Z</time>
      </trkpt>
      <trkpt lat="43.65493" lon="3.77621">
        <ele>80.52752767887</ele>
        <time>2020-08-16T07:23:23.000Z</time>
      </trkpt>
      <trkpt lat="43.65494" lon="3.77618">
        <ele>80.627627746906</ele>
        <time>2020-08-16T07:23:24.000Z</time>
      </trkpt>
      <trkpt lat="43.65494" lon="3.77614">
        <ele>80.727727814942</ele>
        <time>2020-08-16T07:23:25.000Z</time>
      </trkpt>
      <trkpt lat="43.65495" lon="3.77611">
        <ele>80.827827882978</ele>
        <time>2020-08-16T07:23:26.000Z</time>
      </trkpt>
      <trkpt lat="43.65495" lon="3.77607">
        <ele>80.927927951014</ele>
        <time>2020-08-16T07:23:27.000Z</time>
      </trkpt>
      <trkpt lat="43.65496" lon="3.77603">
        <ele>81.027972036914</ele>
        <time>2020-08-16T07:23:28.000Z</time>
      </trkpt>
      <trkpt lat="43.65496" lon="3.77599">
        <ele>81.12787216875</ele>
        <time>2020-08-16T07:23:29.000Z</time>
      </trkpt>
      <trkpt lat="43.65496" lon="3.77594">
        <ele>81.227772300587</ele>
        <time>2020-08-16T07:23:30.000Z</time>
      </trkpt>
      <trkpt lat="43.65497" lon="3.7759">
        <ele>81.327672432423</ele>
        <time>2020-08-16T07:23:31.000Z</time>
      </trkpt>
      <trkpt lat="43.65497" lon="3.77586">
        <ele>81.427572564259</ele>
        <time>2020-08-16T07:23:32.000Z</time>
      </trkpt>
      <trkpt lat="43.65497" lon="3.77582">
        <ele>81.527472696095</ele>
        <time>2020-08-16T07:23:33.000Z</time>
      </trkpt>
      <trkpt lat="43.65497" lon="3.77578">
        <ele>81.627372827931</ele>
        <time>2020-08-16T07:23:34.000Z</time>
      </trkpt>
      <trkpt lat="43.65498" lon="3.77574">
        <ele>81.727272959768</ele>
        <time>2020-08-16T07:23:35.000Z</time>
      </trkpt>
      <trkpt lat="43.65498" lon="3.77569">
        <ele>81.827173091604</ele>
        <time>2020-08-16T07:23:36.000Z</time>
      </trkpt>
      <trkpt lat="43.65498" lon="3.77565">
        <ele>81.92707322344</ele>
        <time>2020-08-16T07:23:37.000Z</time>
      </trkpt>
      <trkpt lat="43.65498" lon="3.77561">
        <ele>82.053892819869</ele>
        <time>2020-08-16T07:23:38.000Z</time>
      </trkpt>
      <trkpt lat="43.65499" lon="3.77557">
        <ele>82.253493490783</ele>
        <time>2020-08-16T07:23:39.000Z</time>
      </trkpt>
      <trkpt lat="43.655" lon="3.77553">
        <ele>82.453094161696</ele>
        <time>2020-08-16T07:23:40.000Z</time>
      </trkpt>
      <trkpt lat="43.65501" lon="3.77549">
        <ele>82.65269483261</ele>
        <time>2020-08-16T07:23:41.000Z</time>
      </trkpt>
      <trkpt lat="43.65502" lon="3.77546">
        <ele>82.852295503524</ele>
        <time>2020-08-16T07:23:42.000Z</time>
      </trkpt>
      <trkpt lat="43.65503" lon="3.77542">
        <ele>83.051896174438</ele>
        <time>2020-08-16T07:23:43.000Z</time>
      </trkpt>
      <trkpt lat="43.65504" lon="3.77538">
        <ele>83.251496845351</ele>
        <time>2020-08-16T07:23:44.000Z</time>
      </trkpt>
      <trkpt lat="43.65505" lon="3.77534">
        <ele>83.451097516265</ele>
        <time>2020-08-16T07:23:45.000Z</time>
      </trkpt>
      <trkpt lat="43.65506" lon="3.77529">
        <ele>83.650698187179</ele>
        <time>2020-08-16T07:23:46.000Z</time>
      </trkpt>
      <trkpt lat="43.65507" lon="3.77525">
        <ele>83.850298858093</ele>
        <time>2020-08-16T07:23:47.000Z</time>
      </trkpt>
      <trkpt lat="43.65508" lon="3.77521">
        <ele>84.025024696689</ele>
        <time>2020-08-16T07:23:48.000Z</time>
      </trkpt>
      <trkpt lat="43.65509" lon="3.77517">
        <ele>84.125124764725</ele>
        <time>2020-08-16T07:23:49.000Z</time>
      </trkpt>
      <trkpt lat="43.65509" lon="3.77512">
        <ele>84.225224832761</ele>
        <time>2020-08-16T07:23:50.000Z</time>
      </trkpt>
      <trkpt lat="43.6551" lon="3.77508">
        <ele>84.325324900797</ele>
        <time>2020-08-16T07:23:51.000Z</time>
      </trkpt>
      <trkpt lat="43.65511" lon="3.77504">
        <ele>84.425424968833</ele>
        <time>2020-08-16T07:23:52.000Z</time>
      </trkpt>
      <trkpt lat="43.65511" lon="3.775">
        <ele>84.525525036869</ele>
        <time>2020-08-16T07:23:53.000Z</time>
      </trkpt>
      <trkpt lat="43.65512" lon="3.77496">
        <ele>84.625625104905</ele>
        <time>2020-08-16T07:23:54.000Z</time>
      </trkpt>
      <trkpt lat="43.65513" lon="3.77491">
        <ele>84.725725172941</ele>
        <time>2020-08-16T07:23:55.000Z</time>
      </trkpt>
      <trkpt lat="43.65515" lon="3.77486">
        <ele>84.825825240977</ele>
        <time>2020-08-16T07:23:56.000Z</time>
      </trkpt>
      <trkpt lat="43.65516" lon="3.77481">
        <ele>84.925925309013</ele>
        <time>2020-08-16T07:23:57.000Z</time>
      </trkpt>
      <trkpt lat="43.65518" lon="3.77476">
        <ele>85</ele>
        <time>2020-08-16T07:23:58.000Z</time>
      </trkpt>
      <trkpt lat="43.65519" lon="3.77471">
        <ele>85</ele>
        <time>2020-08-16T07:23:59.000Z</time>
      </trkpt>
      <trkpt lat="43.65521" lon="3.77466">
        <ele>85</ele>
        <time>2020-08-16T07:24:00.000Z</time>
      </trkpt>
      <trkpt lat="43.65522" lon="3.77461">
        <ele>85</ele>
        <time>2020-08-16T07:24:01.000Z</time>
      </trkpt>
      <trkpt lat="43.65524" lon="3.77456">
        <ele>85</ele>
        <time>2020-08-16T07:24:02.000Z</time>
      </trkpt>
      <trkpt lat="43.65526" lon="3.77451">
        <ele>85</ele>
        <time>2020-08-16T07:24:03.000Z</time>
      </trkpt>
      <trkpt lat="43.65528" lon="3.77446">
        <ele>85</ele>
        <time>2020-08-16T07:24:04.000Z</time>
      </trkpt>
      <trkpt lat="43.6553" lon="3.77441">
        <ele>85</ele>
        <time>2020-08-16T07:24:05.000Z</time>
      </trkpt>
      <trkpt lat="43.65532" lon="3.77437">
        <ele>85</ele>
        <time>2020-08-16T07:24:06.000Z</time>
      </trkpt>
      <trkpt lat="43.65534" lon="3.77433">
        <ele>85</ele>
        <time>2020-08-16T07:24:07.000Z</time>
      </trkpt>
      <trkpt lat="43.65536" lon="3.77429">
        <ele>85.02700032</ele>
        <time>2020-08-16T07:24:08.000Z</time>
      </trkpt>
      <trkpt lat="43.65538" lon="3.77425">
        <ele>85.12700032</ele>
        <time>2020-08-16T07:24:09.000Z</time>
      </trkpt>
      <trkpt lat="43.6554" lon="3.77422">
        <ele>85.22700032</ele>
        <time>2020-08-16T07:24:10.000Z</time>
      </trkpt>
      <trkpt lat="43.65541" lon="3.77418">
        <ele>85.32700032</ele>
        <time>2020-08-16T07:24:11.000Z</time>
      </trkpt>
      <trkpt lat="43.65544" lon="3.77415">
        <ele>85.42700032</ele>
        <time>2020-08-16T07:24:12.000Z</time>
      </trkpt>
      <trkpt lat="43.65546" lon="3.77411">
        <ele>85.52700032</ele>
        <time>2020-08-16T07:24:13.000Z</time>
      </trkpt>
      <trkpt lat="43.65548" lon="3.77408">
        <ele>85.62700032</ele>
        <time>2020-08-16T07:24:14.000Z</time>
      </trkpt>
      <trkpt lat="43.6555" lon="3.77404">
        <ele>85.72700032</ele>
        <time>2020-08-16T07:24:15.000Z</time>
      </trkpt>
      <trkpt lat="43.65553" lon="3.77401">
        <ele>85.82700032</ele>
        <time>2020-08-16T07:24:16.000Z</time>
      </trkpt>
      <trkpt lat="43.65555" lon="3.77397">
        <ele>85.92700032</ele>
        <time>2020-08-16T07:24:17.000Z</time>
      </trkpt>
      <trkpt lat="43.65557" lon="3.77394">
        <ele>86.026264902724</ele>
        <time>2020-08-16T07:24:18.000Z</time>
      </trkpt>
      <trkpt lat="43.65559" lon="3.7739">
        <ele>86.123541167315</ele>
        <time>2020-08-16T07:24:19.000Z</time>
      </trkpt>
      <trkpt lat="43.65561" lon="3.77387">
        <ele>86.220817431907</ele>
        <time>2020-08-16T07:24:20.000Z</time>
      </trkpt>
      <trkpt lat="43.65563" lon="3.77383">
        <ele>86.318093696498</ele>
        <time>2020-08-16T07:24:21.000Z</time>
      </trkpt>
      <trkpt lat="43.65565" lon="3.77379">
        <ele>86.415369961089</ele>
        <time>2020-08-16T07:24:22.000Z</time>
      </trkpt>
      <trkpt lat="43.65567" lon="3.77376">
        <ele>86.512646225681</ele>
        <time>2020-08-16T07:24:23.000Z</time>
      </trkpt>
      <trkpt lat="43.65569" lon="3.77372">
        <ele>86.609922490272</ele>
        <time>2020-08-16T07:24:24.000Z</time>
      </trkpt>
      <trkpt lat="43.65571" lon="3.77369">
        <ele>86.707198754864</ele>
        <time>2020-08-16T07:24:25.000Z</time>
      </trkpt>
      <trkpt lat="43.65572" lon="3.77366">
        <ele>86.804475019455</ele>
        <time>2020-08-16T07:24:26.000Z</time>
      </trkpt>
      <trkpt lat="43.65574" lon="3.77362">
        <ele>86.901751284047</ele>
        <time>2020-08-16T07:24:27.000Z</time>
      </trkpt>
      <trkpt lat="43.65575" lon="3.77358">
        <ele>86.999027548638</ele>
        <time>2020-08-16T07:24:28.000Z</time>
      </trkpt>
      <trkpt lat="43.65577" lon="3.77354">
        <ele>87.20370436214</ele>
        <time>2020-08-16T07:24:29.000Z</time>
      </trkpt>
      <trkpt lat="43.65578" lon="3.7735">
        <ele>87.409465679012</ele>
        <time>2020-08-16T07:24:30.000Z</time>
      </trkpt>
      <trkpt lat="43.65579" lon="3.77346">
        <ele>87.615226995885</ele>
        <time>2020-08-16T07:24:31.000Z</time>
      </trkpt>
      <trkpt lat="43.6558" lon="3.77342">
        <ele>87.820988312757</ele>
        <time>2020-08-16T07:24:32.000Z</time>
      </trkpt>
      <trkpt lat="43.65581" lon="3.77337">
        <ele>88.02674962963</ele>
        <time>2020-08-16T07:24:33.000Z</time>
      </trkpt>
      <trkpt lat="43.65582" lon="3.77333">
        <ele>88.232510946502</ele>
        <time>2020-08-16T07:24:34.000Z</time>
      </trkpt>
      <trkpt lat="43.65583" lon="3.7733">
        <ele>88.438272263375</ele>
        <time>2020-08-16T07:24:35.000Z</time>
      </trkpt>
      <trkpt lat="43.65583" lon="3.77326">
        <ele>88.644033580247</ele>
        <time>2020-08-16T07:24:36.000Z</time>
      </trkpt>
      <trkpt lat="43.65583" lon="3.77322">
        <ele>88.849794897119</ele>
        <time>2020-08-16T07:24:37.000Z</time>
      </trkpt>
      <trkpt lat="43.65583" lon="3.77319">
        <ele>89</ele>
        <time>2020-08-16T07:24:38.000Z</time>
      </trkpt>
      <trkpt lat="43.65583" lon="3.77315">
        <ele>89</ele>
        <time>2020-08-16T07:24:39.000Z</time>
      </trkpt>
      <trkpt lat="43.65583" lon="3.77312">
        <ele>89</ele>
        <time>2020-08-16T07:24:40.000Z</time>
      </trkpt>
      <trkpt lat="43.65582" lon="3.77308">
        <ele>89</ele>
        <time>2020-08-16T07:24:41.000Z</time>
      </trkpt>
      <trkpt lat="43.65581" lon="3.77304">
        <ele>89</ele>
        <time>2020-08-16T07:24:42.000Z</time>
      </trkpt>
      <trkpt lat="43.65579" lon="3.773">
        <ele>89</ele>
        <time>2020-08-16T07:24:43.000Z</time>
      </trkpt>
      <trkpt lat="43.65579" lon="3.77295">
        <ele>89</ele>
        <time>2020-08-16T07:24:44.000Z</time>
      </trkpt>
      <trkpt lat="43.65579" lon="3.7729">
        <ele>89</ele>
        <time>2020-08-16T07:24:45.000Z</time>
      </trkpt>
      <trkpt lat="43.65579" lon="3.77285">
        <ele>89</ele>
        <time>2020-08-16T07:24:46.000Z</time>
      </trkpt>
      <trkpt lat="43.6558" lon="3.77281">
        <ele>89</ele>
        <time>2020-08-16T07:24:47.000Z</time>
      </trkpt>
      <trkpt lat="43.65581" lon="3.77276">
        <ele>89</ele>
        <time>2020-08-16T07:24:48.000Z</time>
      </trkpt>
      <trkpt lat="43.65581" lon="3.77271">
        <ele>89</ele>
        <time>2020-08-16T07:24:49.000Z</time>
      </trkpt>
      <trkpt lat="43.65581" lon="3.77266">
        <ele>89</ele>
        <time>2020-08-16T07:24:50.000Z</time>
      </trkpt>
      <trkpt lat="43.65582" lon="3.77262">
        <ele>89</ele>
        <time>2020-08-16T07:24:51.000Z</time>
      </trkpt>
      <trkpt lat="43.65582" lon="3.77257">
        <ele>89</ele>
        <time>2020-08-16T07:24:52.000Z</time>
      </trkpt>
      <trkpt lat="43.65581" lon="3.77252">
        <ele>89</ele>
        <time>2020-08-16T07:24:53.000Z</time>
      </trkpt>
      <trkpt lat="43.6558" lon="3.77248">
        <ele>89</ele>
        <time>2020-08-16T07:24:54.000Z</time>
      </trkpt>
      <trkpt lat="43.65579" lon="3.77243">
        <ele>89</ele>
        <time>2020-08-16T07:24:55.000Z</time>
      </trkpt>
      <trkpt lat="43.65578" lon="3.77239">
        <ele>89</ele>
        <time>2020-08-16T07:24:56.000Z</time>
      </trkpt>
      <trkpt lat="43.65578" lon="3.77235">
        <ele>89</ele>
        <time>2020-08-16T07:24:57.000Z</time>
      </trkpt>
      <trkpt lat="43.65577" lon="3.7723">
        <ele>89</ele>
        <time>2020-08-16T07:24:58.000Z</time>
      </trkpt>
      <trkpt lat="43.65577" lon="3.77226">
        <ele>89.09847686448</ele>
        <time>2020-08-16T07:24:59.000Z</time>
      </trkpt>
      <trkpt lat="43.65576" lon="3.77222">
        <ele>89.199999740101</ele>
        <time>2020-08-16T07:25:00.000Z</time>
      </trkpt>
      <trkpt lat="43.65576" lon="3.77218">
        <ele>89.301522615723</ele>
        <time>2020-08-16T07:25:01.000Z</time>
      </trkpt>
      <trkpt lat="43.65576" lon="3.77213">
        <ele>89.403045491345</ele>
        <time>2020-08-16T07:25:02.000Z</time>
      </trkpt>
      <trkpt lat="43.65577" lon="3.77209">
        <ele>89.504568366966</ele>
        <time>2020-08-16T07:25:03.000Z</time>
      </trkpt>
      <trkpt lat="43.65577" lon="3.77205">
        <ele>89.606091242588</ele>
        <time>2020-08-16T07:25:04.000Z</time>
      </trkpt>
      <trkpt lat="43.65577" lon="3.772">
        <ele>89.70761411821</ele>
        <time>2020-08-16T07:25:05.000Z</time>
      </trkpt>
      <trkpt lat="43.65577" lon="3.77196">
        <ele>89.809136993831</ele>
        <time>2020-08-16T07:25:06.000Z</time>
      </trkpt>
      <trkpt lat="43.65577" lon="3.77192">
        <ele>89.910659869453</ele>
        <time>2020-08-16T07:25:07.000Z</time>
      </trkpt>
      <trkpt lat="43.65578" lon="3.77188">
        <ele>90.012182745075</ele>
        <time>2020-08-16T07:25:08.000Z</time>
      </trkpt>
      <trkpt lat="43.65578" lon="3.77184">
        <ele>90.113705620696</ele>
        <time>2020-08-16T07:25:09.000Z</time>
      </trkpt>
      <trkpt lat="43.65578" lon="3.7718">
        <ele>90.215228496318</ele>
        <time>2020-08-16T07:25:10.000Z</time>
      </trkpt>
      <trkpt lat="43.65578" lon="3.77177">
        <ele>90.31675137194</ele>
        <time>2020-08-16T07:25:11.000Z</time>
      </trkpt>
      <trkpt lat="43.65579" lon="3.77173">
        <ele>90.418274247561</ele>
        <time>2020-08-16T07:25:12.000Z</time>
      </trkpt>
      <trkpt lat="43.65579" lon="3.7717">
        <ele>90.519797123183</ele>
        <time>2020-08-16T07:25:13.000Z</time>
      </trkpt>
      <trkpt lat="43.65579" lon="3.77168">
        <ele>90.621319998804</ele>
        <time>2020-08-16T07:25:14.000Z</time>
      </trkpt>
      <trkpt lat="43.65579" lon="3.77165">
        <ele>90.722842874426</ele>
        <time>2020-08-16T07:25:15.000Z</time>
      </trkpt>
      <trkpt lat="43.6558" lon="3.77162">
        <ele>90.824365750048</ele>
        <time>2020-08-16T07:25:16.000Z</time>
      </trkpt>
      <trkpt lat="43.6558" lon="3.7716">
        <ele>90.925888625669</ele>
        <time>2020-08-16T07:25:17.000Z</time>
      </trkpt>
      <trkpt lat="43.6558" lon="3.77157">
        <ele>91.02700032</ele>
        <time>2020-08-16T07:25:18.000Z</time>
      </trkpt>
      <trkpt lat="43.6558" lon="3.77154">
        <ele>91.12700032</ele>
        <time>2020-08-16T07:25:19.000Z</time>
      </trkpt>
      <trkpt lat="43.6558" lon="3.77151">
        <ele>91.22700032</ele>
        <time>2020-08-16T07:25:20.000Z</time>
      </trkpt>
      <trkpt lat="43.6558" lon="3.77148">
        <ele>91.32700032</ele>
        <time>2020-08-16T07:25:21.000Z</time>
      </trkpt>
      <trkpt lat="43.6558" lon="3.77145">
        <ele>91.42700032</ele>
        <time>2020-08-16T07:25:22.000Z</time>
      </trkpt>
      <trkpt lat="43.65581" lon="3.77142">
        <ele>91.52700032</ele>
        <time>2020-08-16T07:25:23.000Z</time>
      </trkpt>
      <trkpt lat="43.65581" lon="3.77139">
        <ele>91.62700032</ele>
        <time>2020-08-16T07:25:24.000Z</time>
      </trkpt>
      <trkpt lat="43.65581" lon="3.77136">
        <ele>91.72700032</ele>
        <time>2020-08-16T07:25:25.000Z</time>
      </trkpt>
      <trkpt lat="43.65581" lon="3.77133">
        <ele>91.82700032</ele>
        <time>2020-08-16T07:25:26.000Z</time>
      </trkpt>
      <trkpt lat="43.65581" lon="3.7713">
        <ele>91.92700032</ele>
        <time>2020-08-16T07:25:27.000Z</time>
      </trkpt>
      <trkpt lat="43.65581" lon="3.77126">
        <ele>92.026919552728</ele>
        <time>2020-08-16T07:25:28.000Z</time>
      </trkpt>
      <trkpt lat="43.65581" lon="3.77123">
        <ele>92.126620418227</ele>
        <time>2020-08-16T07:25:29.000Z</time>
      </trkpt>
      <trkpt lat="43.65581" lon="3.77119">
        <ele>92.226321283726</ele>
        <time>2020-08-16T07:25:30.000Z</time>
      </trkpt>
      <trkpt lat="43.65581" lon="3.77115">
        <ele>92.326022149225</ele>
        <time>2020-08-16T07:25:31.000Z</time>
      </trkpt>
      <trkpt lat="43.65581" lon="3.77112">
        <ele>92.425723014724</ele>
        <time>2020-08-16T07:25:32.000Z</time>
      </trkpt>
      <trkpt lat="43.65581" lon="3.77108">
        <ele>92.525423880224</ele>
        <time>2020-08-16T07:25:33.000Z</time>
      </trkpt>
      <trkpt lat="43.65581" lon="3.77105">
        <ele>92.625124745723</ele>
        <time>2020-08-16T07:25:34.000Z</time>
      </trkpt>
      <trkpt lat="43.65581" lon="3.77102">
        <ele>92.724825611222</ele>
        <time>2020-08-16T07:25:35.000Z</time>
      </trkpt>
      <trkpt lat="43.65582" lon="3.77098">
        <ele>92.824526476721</ele>
        <time>2020-08-16T07:25:36.000Z</time>
      </trkpt>
      <trkpt lat="43.65582" lon="3.77095">
        <ele>92.924227342221</ele>
        <time>2020-08-16T07:25:37.000Z</time>
      </trkpt>
      <trkpt lat="43.65582" lon="3.77091">
        <ele>93.024072224376</ele>
        <time>2020-08-16T07:25:38.000Z</time>
      </trkpt>
      <trkpt lat="43.65583" lon="3.77088">
        <ele>93.124373159277</ele>
        <time>2020-08-16T07:25:39.000Z</time>
      </trkpt>
      <trkpt lat="43.65583" lon="3.77084">
        <ele>93.224674094178</ele>
        <time>2020-08-16T07:25:40.000Z</time>
      </trkpt>
      <trkpt lat="43.65583" lon="3.77081">
        <ele>93.324975029079</ele>
        <time>2020-08-16T07:25:41.000Z</time>
      </trkpt>
      <trkpt lat="43.65584" lon="3.77078">
        <ele>93.42527596398</ele>
        <time>2020-08-16T07:25:42.000Z</time>
      </trkpt>
      <trkpt lat="43.65584" lon="3.77074">
        <ele>93.525576898881</ele>
        <time>2020-08-16T07:25:43.000Z</time>
      </trkpt>
      <trkpt lat="43.65585" lon="3.77071">
        <ele>93.625877833782</ele>
        <time>2020-08-16T07:25:44.000Z</time>
      </trkpt>
      <trkpt lat="43.65585" lon="3.77067">
        <ele>93.726178768683</ele>
        <time>2020-08-16T07:25:45.000Z</time>
      </trkpt>
      <trkpt lat="43.65586" lon="3.77064">
        <ele>93.826479703584</ele>
        <time>2020-08-16T07:25:46.000Z</time>
      </trkpt>
      <trkpt lat="43.65586" lon="3.7706">
        <ele>93.926780638485</ele>
        <time>2020-08-16T07:25:47.000Z</time>
      </trkpt>
      <trkpt lat="43.65587" lon="3.77057">
        <ele>94.02700032</ele>
        <time>2020-08-16T07:25:48.000Z</time>
      </trkpt>
      <trkpt lat="43.65587" lon="3.77054">
        <ele>94.12700032</ele>
        <time>2020-08-16T07:25:49.000Z</time>
      </trkpt>
      <trkpt lat="43.65588" lon="3.7705">
        <ele>94.22700032</ele>
        <time>2020-08-16T07:25:50.000Z</time>
      </trkpt>
      <trkpt lat="43.65588" lon="3.77047">
        <ele>94.32700032</ele>
        <time>2020-08-16T07:25:51.000Z</time>
      </trkpt>
      <trkpt lat="43.65588" lon="3.77043">
        <ele>94.42700032</ele>
        <time>2020-08-16T07:25:52.000Z</time>
      </trkpt>
      <trkpt lat="43.65589" lon="3.7704">
        <ele>94.52700032</ele>
        <time>2020-08-16T07:25:53.000Z</time>
      </trkpt>
      <trkpt lat="43.65589" lon="3.77036">
        <ele>94.62700032</ele>
        <time>2020-08-16T07:25:54.000Z</time>
      </trkpt>
      <trkpt lat="43.6559" lon="3.77032">
        <ele>94.72700032</ele>
        <time>2020-08-16T07:25:55.000Z</time>
      </trkpt>
      <trkpt lat="43.6559" lon="3.77028">
        <ele>94.82700032</ele>
        <time>2020-08-16T07:25:56.000Z</time>
      </trkpt>
      <trkpt lat="43.65591" lon="3.77025">
        <ele>94.92700032</ele>
        <time>2020-08-16T07:25:57.000Z</time>
      </trkpt>
      <trkpt lat="43.65591" lon="3.77021">
        <ele>95.02700032</ele>
        <time>2020-08-16T07:25:58.000Z</time>
      </trkpt>
      <trkpt lat="43.65592" lon="3.77017">
        <ele>95.12700032</ele>
        <time>2020-08-16T07:25:59.000Z</time>
      </trkpt>
      <trkpt lat="43.65592" lon="3.77013">
        <ele>95.22700032</ele>
        <time>2020-08-16T07:26:00.000Z</time>
      </trkpt>
      <trkpt lat="43.65593" lon="3.77009">
        <ele>95.32700032</ele>
        <time>2020-08-16T07:26:01.000Z</time>
      </trkpt>
      <trkpt lat="43.65593" lon="3.77005">
        <ele>95.42700032</ele>
        <time>2020-08-16T07:26:02.000Z</time>
      </trkpt>
      <trkpt lat="43.65594" lon="3.77001">
        <ele>95.52700032</ele>
        <time>2020-08-16T07:26:03.000Z</time>
      </trkpt>
      <trkpt lat="43.65594" lon="3.76998">
        <ele>95.62700032</ele>
        <time>2020-08-16T07:26:04.000Z</time>
      </trkpt>
      <trkpt lat="43.65594" lon="3.76994">
        <ele>95.72700032</ele>
        <time>2020-08-16T07:26:05.000Z</time>
      </trkpt>
      <trkpt lat="43.65594" lon="3.7699">
        <ele>95.82700032</ele>
        <time>2020-08-16T07:26:06.000Z</time>
      </trkpt>
      <trkpt lat="43.65595" lon="3.76986">
        <ele>95.92700032</ele>
        <time>2020-08-16T07:26:07.000Z</time>
      </trkpt>
      <trkpt lat="43.65595" lon="3.76982">
        <ele>96</ele>
        <time>2020-08-16T07:26:08.000Z</time>
      </trkpt>
      <trkpt lat="43.65595" lon="3.76979">
        <ele>96</ele>
        <time>2020-08-16T07:26:09.000Z</time>
      </trkpt>
      <trkpt lat="43.65595" lon="3.76975">
        <ele>96</ele>
        <time>2020-08-16T07:26:10.000Z</time>
      </trkpt>
      <trkpt lat="43.65595" lon="3.76972">
        <ele>96</ele>
        <time>2020-08-16T07:26:11.000Z</time>
      </trkpt>
      <trkpt lat="43.65595" lon="3.76969">
        <ele>96</ele>
        <time>2020-08-16T07:26:12.000Z</time>
      </trkpt>
      <trkpt lat="43.65595" lon="3.76966">
        <ele>96</ele>
        <time>2020-08-16T07:26:13.000Z</time>
      </trkpt>
      <trkpt lat="43.65595" lon="3.76963">
        <ele>96</ele>
        <time>2020-08-16T07:26:14.000Z</time>
      </trkpt>
      <trkpt lat="43.65595" lon="3.7696">
        <ele>96</ele>
        <time>2020-08-16T07:26:15.000Z</time>
      </trkpt>
      <trkpt lat="43.65596" lon="3.76957">
        <ele>96</ele>
        <time>2020-08-16T07:26:16.000Z</time>
      </trkpt>
      <trkpt lat="43.65596" lon="3.76954">
        <ele>96</ele>
        <time>2020-08-16T07:26:17.000Z</time>
      </trkpt>
      <trkpt lat="43.65596" lon="3.7695">
        <ele>96.02700032</ele>
        <time>2020-08-16T07:26:18.000Z</time>
      </trkpt>
      <trkpt lat="43.65596" lon="3.76947">
        <ele>96.12700032</ele>
        <time>2020-08-16T07:26:19.000Z</time>
      </trkpt>
      <trkpt lat="43.65597" lon="3.76944">
        <ele>96.22700032</ele>
        <time>2020-08-16T07:26:20.000Z</time>
      </trkpt>
      <trkpt lat="43.65597" lon="3.76941">
        <ele>96.32700032</ele>
        <time>2020-08-16T07:26:21.000Z</time>
      </trkpt>
      <trkpt lat="43.65597" lon="3.76938">
        <ele>96.42700032</ele>
        <time>2020-08-16T07:26:22.000Z</time>
      </trkpt>
      <trkpt lat="43.65598" lon="3.76935">
        <ele>96.62700032</ele>
        <time>2020-08-16T07:26:24.000Z</time>
      </trkpt>
      <trkpt lat="43.65597" lon="3.76933">
        <ele>96.92700032</ele>
        <time>2020-08-16T07:26:27.000Z</time>
      </trkpt>
      <trkpt lat="43.65595" lon="3.76935">
        <ele>97.123421146253</ele>
        <time>2020-08-16T07:26:29.000Z</time>
      </trkpt>
      <trkpt lat="43.65592" lon="3.76936">
        <ele>97.317784666367</ele>
        <time>2020-08-16T07:26:31.000Z</time>
      </trkpt>
      <trkpt lat="43.6559" lon="3.76935">
        <ele>97.414966426423</ele>
        <time>2020-08-16T07:26:32.000Z</time>
      </trkpt>
      <trkpt lat="43.65587" lon="3.76935">
        <ele>97.512148186479</ele>
        <time>2020-08-16T07:26:33.000Z</time>
      </trkpt>
      <trkpt lat="43.65585" lon="3.76934">
        <ele>97.609329946536</ele>
        <time>2020-08-16T07:26:34.000Z</time>
      </trkpt>
      <trkpt lat="43.65582" lon="3.76935">
        <ele>97.706511706593</ele>
        <time>2020-08-16T07:26:35.000Z</time>
      </trkpt>
      <trkpt lat="43.65579" lon="3.76935">
        <ele>97.803693466649</ele>
        <time>2020-08-16T07:26:36.000Z</time>
      </trkpt>
      <trkpt lat="43.65577" lon="3.76936">
        <ele>97.900875226706</ele>
        <time>2020-08-16T07:26:37.000Z</time>
      </trkpt>
      <trkpt lat="43.65574" lon="3.76938">
        <ele>97.998056986762</ele>
        <time>2020-08-16T07:26:38.000Z</time>
      </trkpt>
      <trkpt lat="43.65571" lon="3.76939">
        <ele>98</ele>
        <time>2020-08-16T07:26:39.000Z</time>
      </trkpt>
      <trkpt lat="43.65569" lon="3.76941">
        <ele>98</ele>
        <time>2020-08-16T07:26:40.000Z</time>
      </trkpt>
      <trkpt lat="43.65566" lon="3.76942">
        <ele>98</ele>
        <time>2020-08-16T07:26:41.000Z</time>
      </trkpt>
      <trkpt lat="43.65563" lon="3.76943">
        <ele>98</ele>
        <time>2020-08-16T07:26:42.000Z</time>
      </trkpt>
      <trkpt lat="43.6556" lon="3.76945">
        <ele>98</ele>
        <time>2020-08-16T07:26:43.000Z</time>
      </trkpt>
      <trkpt lat="43.65557" lon="3.76946">
        <ele>98</ele>
        <time>2020-08-16T07:26:44.000Z</time>
      </trkpt>
      <trkpt lat="43.65554" lon="3.76947">
        <ele>98</ele>
        <time>2020-08-16T07:26:45.000Z</time>
      </trkpt>
      <trkpt lat="43.65551" lon="3.76947">
        <ele>98</ele>
        <time>2020-08-16T07:26:46.000Z</time>
      </trkpt>
      <trkpt lat="43.65548" lon="3.76947">
        <ele>98</ele>
        <time>2020-08-16T07:26:47.000Z</time>
      </trkpt>
      <trkpt lat="43.65545" lon="3.76947">
        <ele>98</ele>
        <time>2020-08-16T07:26:48.000Z</time>
      </trkpt>
      <trkpt lat="43.65542" lon="3.76946">
        <ele>98</ele>
        <time>2020-08-16T07:26:49.000Z</time>
      </trkpt>
      <trkpt lat="43.65539" lon="3.76945">
        <ele>98</ele>
        <time>2020-08-16T07:26:50.000Z</time>
      </trkpt>
      <trkpt lat="43.65537" lon="3.76944">
        <ele>98</ele>
        <time>2020-08-16T07:26:51.000Z</time>
      </trkpt>
      <trkpt lat="43.65534" lon="3.76942">
        <ele>98</ele>
        <time>2020-08-16T07:26:52.000Z</time>
      </trkpt>
      <trkpt lat="43.65531" lon="3.76941">
        <ele>98</ele>
        <time>2020-08-16T07:26:53.000Z</time>
      </trkpt>
      <trkpt lat="43.65529" lon="3.76939">
        <ele>98</ele>
        <time>2020-08-16T07:26:54.000Z</time>
      </trkpt>
      <trkpt lat="43.65526" lon="3.76937">
        <ele>98</ele>
        <time>2020-08-16T07:26:55.000Z</time>
      </trkpt>
      <trkpt lat="43.65524" lon="3.76935">
        <ele>98</ele>
        <time>2020-08-16T07:26:56.000Z</time>
      </trkpt>
      <trkpt lat="43.65521" lon="3.76933">
        <ele>98</ele>
        <time>2020-08-16T07:26:57.000Z</time>
      </trkpt>
      <trkpt lat="43.65519" lon="3.76932">
        <ele>98.002033938914</ele>
        <time>2020-08-16T07:26:58.000Z</time>
      </trkpt>
      <trkpt lat="43.65516" lon="3.7693">
        <ele>98.10376343806</ele>
        <time>2020-08-16T07:26:59.000Z</time>
      </trkpt>
      <trkpt lat="43.65513" lon="3.76929">
        <ele>98.205492937206</ele>
        <time>2020-08-16T07:27:00.000Z</time>
      </trkpt>
      <trkpt lat="43.65511" lon="3.76928">
        <ele>98.307222436351</ele>
        <time>2020-08-16T07:27:01.000Z</time>
      </trkpt>
      <trkpt lat="43.65508" lon="3.76927">
        <ele>98.408951935497</ele>
        <time>2020-08-16T07:27:02.000Z</time>
      </trkpt>
      <trkpt lat="43.65506" lon="3.76926">
        <ele>98.510681434643</ele>
        <time>2020-08-16T07:27:03.000Z</time>
      </trkpt>
      <trkpt lat="43.65503" lon="3.76925">
        <ele>98.612410933789</ele>
        <time>2020-08-16T07:27:04.000Z</time>
      </trkpt>
      <trkpt lat="43.65501" lon="3.76924">
        <ele>98.714140432935</ele>
        <time>2020-08-16T07:27:05.000Z</time>
      </trkpt>
      <trkpt lat="43.65498" lon="3.76923">
        <ele>98.815869932081</ele>
        <time>2020-08-16T07:27:06.000Z</time>
      </trkpt>
      <trkpt lat="43.65496" lon="3.76923">
        <ele>98.917599431226</ele>
        <time>2020-08-16T07:27:07.000Z</time>
      </trkpt>
      <trkpt lat="43.65493" lon="3.76923">
        <ele>99.01913424132</ele>
        <time>2020-08-16T07:27:08.000Z</time>
      </trkpt>
      <trkpt lat="43.65491" lon="3.76923">
        <ele>99.119839078504</ele>
        <time>2020-08-16T07:27:09.000Z</time>
      </trkpt>
      <trkpt lat="43.65488" lon="3.76922">
        <ele>99.220543915688</ele>
        <time>2020-08-16T07:27:10.000Z</time>
      </trkpt>
      <trkpt lat="43.65485" lon="3.76922">
        <ele>99.321248752871</ele>
        <time>2020-08-16T07:27:11.000Z</time>
      </trkpt>
      <trkpt lat="43.65483" lon="3.76922">
        <ele>99.421953590055</ele>
        <time>2020-08-16T07:27:12.000Z</time>
      </trkpt>
      <trkpt lat="43.6548" lon="3.76921">
        <ele>99.522658427239</ele>
        <time>2020-08-16T07:27:13.000Z</time>
      </trkpt>
      <trkpt lat="43.65478" lon="3.7692">
        <ele>99.623363264422</ele>
        <time>2020-08-16T07:27:14.000Z</time>
      </trkpt>
      <trkpt lat="43.65475" lon="3.76919">
        <ele>99.724068101606</ele>
        <time>2020-08-16T07:27:15.000Z</time>
      </trkpt>
      <trkpt lat="43.65473" lon="3.76917">
        <ele>99.824772938789</ele>
        <time>2020-08-16T07:27:16.000Z</time>
      </trkpt>
      <trkpt lat="43.65471" lon="3.76914">
        <ele>99.925477775973</ele>
        <time>2020-08-16T07:27:17.000Z</time>
      </trkpt>
      <trkpt lat="43.65469" lon="3.76911">
        <ele>100</ele>
        <time>2020-08-16T07:27:18.000Z</time>
      </trkpt>
      <trkpt lat="43.65467" lon="3.76907">
        <ele>100</ele>
        <time>2020-08-16T07:27:19.000Z</time>
      </trkpt>
      <trkpt lat="43.65466" lon="3.76904">
        <ele>100</ele>
        <time>2020-08-16T07:27:20.000Z</time>
      </trkpt>
      <trkpt lat="43.65466" lon="3.769">
        <ele>100</ele>
        <time>2020-08-16T07:27:21.000Z</time>
      </trkpt>
      <trkpt lat="43.65466" lon="3.76895">
        <ele>100</ele>
        <time>2020-08-16T07:27:22.000Z</time>
      </trkpt>
      <trkpt lat="43.65466" lon="3.76891">
        <ele>100</ele>
        <time>2020-08-16T07:27:23.000Z</time>
      </trkpt>
      <trkpt lat="43.65467" lon="3.76886">
        <ele>100</ele>
        <time>2020-08-16T07:27:24.000Z</time>
      </trkpt>
      <trkpt lat="43.65467" lon="3.76882">
        <ele>100</ele>
        <time>2020-08-16T07:27:25.000Z</time>
      </trkpt>
      <trkpt lat="43.65466" lon="3.76878">
        <ele>100</ele>
        <time>2020-08-16T07:27:26.000Z</time>
      </trkpt>
      <trkpt lat="43.65465" lon="3.76875">
        <ele>100</ele>
        <time>2020-08-16T07:27:27.000Z</time>
      </trkpt>
      <trkpt lat="43.65464" lon="3.76873">
        <ele>100.02626490272</ele>
        <time>2020-08-16T07:27:28.000Z</time>
      </trkpt>
      <trkpt lat="43.65462" lon="3.76871">
        <ele>100.12354116731</ele>
        <time>2020-08-16T07:27:29.000Z</time>
      </trkpt>
      <trkpt lat="43.6546" lon="3.76869">
        <ele>100.22081743191</ele>
        <time>2020-08-16T07:27:30.000Z</time>
      </trkpt>
      <trkpt lat="43.65458" lon="3.76867">
        <ele>100.3180936965</ele>
        <time>2020-08-16T07:27:31.000Z</time>
      </trkpt>
      <trkpt lat="43.65456" lon="3.76864">
        <ele>100.41536996109</ele>
        <time>2020-08-16T07:27:32.000Z</time>
      </trkpt>
      <trkpt lat="43.65454" lon="3.76862">
        <ele>100.51264622568</ele>
        <time>2020-08-16T07:27:33.000Z</time>
      </trkpt>
      <trkpt lat="43.65452" lon="3.7686">
        <ele>100.60992249027</ele>
        <time>2020-08-16T07:27:34.000Z</time>
      </trkpt>
      <trkpt lat="43.6545" lon="3.76859">
        <ele>100.70719875486</ele>
        <time>2020-08-16T07:27:35.000Z</time>
      </trkpt>
      <trkpt lat="43.65448" lon="3.76857">
        <ele>100.80447501945</ele>
        <time>2020-08-16T07:27:36.000Z</time>
      </trkpt>
      <trkpt lat="43.65445" lon="3.76856">
        <ele>100.90175128405</ele>
        <time>2020-08-16T07:27:37.000Z</time>
      </trkpt>
      <trkpt lat="43.65443" lon="3.76855">
        <ele>100.99902754864</ele>
        <time>2020-08-16T07:27:38.000Z</time>
      </trkpt>
      <trkpt lat="43.65441" lon="3.76853">
        <ele>101.10185218107</ele>
        <time>2020-08-16T07:27:39.000Z</time>
      </trkpt>
      <trkpt lat="43.65439" lon="3.76852">
        <ele>101.20473283951</ele>
        <time>2020-08-16T07:27:40.000Z</time>
      </trkpt>
      <trkpt lat="43.65437" lon="3.76851">
        <ele>101.30761349794</ele>
        <time>2020-08-16T07:27:41.000Z</time>
      </trkpt>
      <trkpt lat="43.65434" lon="3.7685">
        <ele>101.41049415638</ele>
        <time>2020-08-16T07:27:42.000Z</time>
      </trkpt>
      <trkpt lat="43.65432" lon="3.76849">
        <ele>101.51337481481</ele>
        <time>2020-08-16T07:27:43.000Z</time>
      </trkpt>
      <trkpt lat="43.6543" lon="3.76848">
        <ele>101.61625547325</ele>
        <time>2020-08-16T07:27:44.000Z</time>
      </trkpt>
      <trkpt lat="43.65428" lon="3.76847">
        <ele>101.71913613169</ele>
        <time>2020-08-16T07:27:45.000Z</time>
      </trkpt>
      <trkpt lat="43.65426" lon="3.76845">
        <ele>101.82201679012</ele>
        <time>2020-08-16T07:27:46.000Z</time>
      </trkpt>
      <trkpt lat="43.65424" lon="3.76844">
        <ele>101.92489744856</ele>
        <time>2020-08-16T07:27:47.000Z</time>
      </trkpt>
      <trkpt lat="43.65422" lon="3.76842">
        <ele>102.05400064</ele>
        <time>2020-08-16T07:27:48.000Z</time>
      </trkpt>
      <trkpt lat="43.65421" lon="3.7684">
        <ele>102.25400064</ele>
        <time>2020-08-16T07:27:49.000Z</time>
      </trkpt>
      <trkpt lat="43.6542" lon="3.76837">
        <ele>102.45400064</ele>
        <time>2020-08-16T07:27:50.000Z</time>
      </trkpt>
      <trkpt lat="43.65419" lon="3.76835">
        <ele>102.65400064</ele>
        <time>2020-08-16T07:27:51.000Z</time>
      </trkpt>
      <trkpt lat="43.65419" lon="3.76832">
        <ele>102.85400064</ele>
        <time>2020-08-16T07:27:52.000Z</time>
      </trkpt>
      <trkpt lat="43.65418" lon="3.7683">
        <ele>103.05400064</ele>
        <time>2020-08-16T07:27:53.000Z</time>
      </trkpt>
      <trkpt lat="43.65418" lon="3.76827">
        <ele>103.25400064</ele>
        <time>2020-08-16T07:27:54.000Z</time>
      </trkpt>
      <trkpt lat="43.65417" lon="3.76824">
        <ele>103.45400064</ele>
        <time>2020-08-16T07:27:55.000Z</time>
      </trkpt>
      <trkpt lat="43.65416" lon="3.76821">
        <ele>103.65400064</ele>
        <time>2020-08-16T07:27:56.000Z</time>
      </trkpt>
      <trkpt lat="43.65416" lon="3.76819">
        <ele>103.85400064</ele>
        <time>2020-08-16T07:27:57.000Z</time>
      </trkpt>
      <trkpt lat="43.65415" lon="3.76816">
        <ele>104.02700032</ele>
        <time>2020-08-16T07:27:58.000Z</time>
      </trkpt>
      <trkpt lat="43.65414" lon="3.76814">
        <ele>104.12700032</ele>
        <time>2020-08-16T07:27:59.000Z</time>
      </trkpt>
      <trkpt lat="43.65413" lon="3.76811">
        <ele>104.22700032</ele>
        <time>2020-08-16T07:28:00.000Z</time>
      </trkpt>
      <trkpt lat="43.65412" lon="3.76809">
        <ele>104.32700032</ele>
        <time>2020-08-16T07:28:01.000Z</time>
      </trkpt>
      <trkpt lat="43.65413" lon="3.76805">
        <ele>104.52700032</ele>
        <time>2020-08-16T07:28:03.000Z</time>
      </trkpt>
      <trkpt lat="43.65416" lon="3.76802">
        <ele>104.72700032</ele>
        <time>2020-08-16T07:28:05.000Z</time>
      </trkpt>
      <trkpt lat="43.65417" lon="3.76801">
        <ele>104.82700032</ele>
        <time>2020-08-16T07:28:06.000Z</time>
      </trkpt>
      <trkpt lat="43.65419" lon="3.768">
        <ele>104.92700032</ele>
        <time>2020-08-16T07:28:07.000Z</time>
      </trkpt>
      <trkpt lat="43.65421" lon="3.76799">
        <ele>105.02700032</ele>
        <time>2020-08-16T07:28:08.000Z</time>
      </trkpt>
      <trkpt lat="43.65422" lon="3.76797">
        <ele>105.12700032</ele>
        <time>2020-08-16T07:28:09.000Z</time>
      </trkpt>
      <trkpt lat="43.65424" lon="3.76795">
        <ele>105.22700032</ele>
        <time>2020-08-16T07:28:10.000Z</time>
      </trkpt>
      <trkpt lat="43.65425" lon="3.76793">
        <ele>105.32700032</ele>
        <time>2020-08-16T07:28:11.000Z</time>
      </trkpt>
      <trkpt lat="43.65426" lon="3.76791">
        <ele>105.42700032</ele>
        <time>2020-08-16T07:28:12.000Z</time>
      </trkpt>
      <trkpt lat="43.65428" lon="3.76788">
        <ele>105.52700032</ele>
        <time>2020-08-16T07:28:13.000Z</time>
      </trkpt>
      <trkpt lat="43.65429" lon="3.76786">
        <ele>105.62700032</ele>
        <time>2020-08-16T07:28:14.000Z</time>
      </trkpt>
      <trkpt lat="43.6543" lon="3.76782">
        <ele>105.72700032</ele>
        <time>2020-08-16T07:28:15.000Z</time>
      </trkpt>
      <trkpt lat="43.65432" lon="3.76779">
        <ele>105.82700032</ele>
        <time>2020-08-16T07:28:16.000Z</time>
      </trkpt>
      <trkpt lat="43.65433" lon="3.76775">
        <ele>105.92700032</ele>
        <time>2020-08-16T07:28:17.000Z</time>
      </trkpt>
      <trkpt lat="43.65434" lon="3.76772">
        <ele>106.0268659986</ele>
        <time>2020-08-16T07:28:18.000Z</time>
      </trkpt>
      <trkpt lat="43.65436" lon="3.76767">
        <ele>106.12636851785</ele>
        <time>2020-08-16T07:28:19.000Z</time>
      </trkpt>
      <trkpt lat="43.65437" lon="3.76763">
        <ele>106.22587103709</ele>
        <time>2020-08-16T07:28:20.000Z</time>
      </trkpt>
      <trkpt lat="43.65439" lon="3.76758">
        <ele>106.32537355634</ele>
        <time>2020-08-16T07:28:21.000Z</time>
      </trkpt>
      <trkpt lat="43.6544" lon="3.76754">
        <ele>106.42487607558</ele>
        <time>2020-08-16T07:28:22.000Z</time>
      </trkpt>
      <trkpt lat="43.65442" lon="3.7675">
        <ele>106.52437859483</ele>
        <time>2020-08-16T07:28:23.000Z</time>
      </trkpt>
      <trkpt lat="43.65443" lon="3.76746">
        <ele>106.62388111407</ele>
        <time>2020-08-16T07:28:24.000Z</time>
      </trkpt>
      <trkpt lat="43.65445" lon="3.76742">
        <ele>106.72338363332</ele>
        <time>2020-08-16T07:28:25.000Z</time>
      </trkpt>
      <trkpt lat="43.65447" lon="3.76739">
        <ele>106.82288615256</ele>
        <time>2020-08-16T07:28:26.000Z</time>
      </trkpt>
      <trkpt lat="43.65448" lon="3.76735">
        <ele>106.9223886718</ele>
        <time>2020-08-16T07:28:27.000Z</time>
      </trkpt>
      <trkpt lat="43.6545" lon="3.76732">
        <ele>107.02211118887</ele>
        <time>2020-08-16T07:28:28.000Z</time>
      </trkpt>
      <trkpt lat="43.65451" lon="3.76729">
        <ele>107.12261366911</ele>
        <time>2020-08-16T07:28:29.000Z</time>
      </trkpt>
      <trkpt lat="43.65452" lon="3.76726">
        <ele>107.22311614935</ele>
        <time>2020-08-16T07:28:30.000Z</time>
      </trkpt>
      <trkpt lat="43.65452" lon="3.76723">
        <ele>107.32361862959</ele>
        <time>2020-08-16T07:28:31.000Z</time>
      </trkpt>
      <trkpt lat="43.65452" lon="3.76719">
        <ele>107.52462359007</ele>
        <time>2020-08-16T07:28:33.000Z</time>
      </trkpt>
      <trkpt lat="43.65452" lon="3.76715">
        <ele>107.72562855055</ele>
        <time>2020-08-16T07:28:35.000Z</time>
      </trkpt>
      <trkpt lat="43.65452" lon="3.76711">
        <ele>107.92663351103</ele>
        <time>2020-08-16T07:28:37.000Z</time>
      </trkpt>
      <trkpt lat="43.65452" lon="3.76707">
        <ele>108.25400064</ele>
        <time>2020-08-16T07:28:39.000Z</time>
      </trkpt>
      <trkpt lat="43.65453" lon="3.76703">
        <ele>108.65400064</ele>
        <time>2020-08-16T07:28:41.000Z</time>
      </trkpt>
      <trkpt lat="43.65454" lon="3.76699">
        <ele>109.05400064</ele>
        <time>2020-08-16T07:28:43.000Z</time>
      </trkpt>
      <trkpt lat="43.65454" lon="3.76696">
        <ele>109.45400064</ele>
        <time>2020-08-16T07:28:45.000Z</time>
      </trkpt>
      <trkpt lat="43.65455" lon="3.76692">
        <ele>109.85400064</ele>
        <time>2020-08-16T07:28:47.000Z</time>
      </trkpt>
      <trkpt lat="43.65455" lon="3.76688">
        <ele>110.24902023529</ele>
        <time>2020-08-16T07:28:49.000Z</time>
      </trkpt>
      <trkpt lat="43.65456" lon="3.76684">
        <ele>110.64117709804</ele>
        <time>2020-08-16T07:28:51.000Z</time>
      </trkpt>
      <trkpt lat="43.65456" lon="3.7668">
        <ele>111.03333396078</ele>
        <time>2020-08-16T07:28:53.000Z</time>
      </trkpt>
      <trkpt lat="43.65457" lon="3.76676">
        <ele>111.42549082353</ele>
        <time>2020-08-16T07:28:55.000Z</time>
      </trkpt>
      <trkpt lat="43.65458" lon="3.76672">
        <ele>111.81764768627</ele>
        <time>2020-08-16T07:28:57.000Z</time>
      </trkpt>
      <trkpt lat="43.65459" lon="3.76668">
        <ele>112.218368</ele>
        <time>2020-08-16T07:28:59.000Z</time>
      </trkpt>
      <trkpt lat="43.65461" lon="3.76664">
        <ele>112.62653126531</ele>
        <time>2020-08-16T07:29:01.000Z</time>
      </trkpt>
      <trkpt lat="43.65462" lon="3.7666">
        <ele>113.03469453061</ele>
        <time>2020-08-16T07:29:03.000Z</time>
      </trkpt>
      <trkpt lat="43.65463" lon="3.76658">
        <ele>113.23877616327</ele>
        <time>2020-08-16T07:29:04.000Z</time>
      </trkpt>
      <trkpt lat="43.65465" lon="3.76656">
        <ele>113.44285779592</ele>
        <time>2020-08-16T07:29:05.000Z</time>
      </trkpt>
      <trkpt lat="43.65466" lon="3.76653">
        <ele>113.64693942857</ele>
        <time>2020-08-16T07:29:06.000Z</time>
      </trkpt>
      <trkpt lat="43.65467" lon="3.76651">
        <ele>113.85102106122</ele>
        <time>2020-08-16T07:29:07.000Z</time>
      </trkpt>
      <trkpt lat="43.65468" lon="3.76648">
        <ele>114.02700032</ele>
        <time>2020-08-16T07:29:08.000Z</time>
      </trkpt>
      <trkpt lat="43.6547" lon="3.76644">
        <ele>114.12700032</ele>
        <time>2020-08-16T07:29:09.000Z</time>
      </trkpt>
      <trkpt lat="43.6547" lon="3.7664">
        <ele>114.22700032</ele>
        <time>2020-08-16T07:29:10.000Z</time>
      </trkpt>
      <trkpt lat="43.6547" lon="3.76637">
        <ele>114.32700032</ele>
        <time>2020-08-16T07:29:11.000Z</time>
      </trkpt>
      <trkpt lat="43.65468" lon="3.76635">
        <ele>114.42700032</ele>
        <time>2020-08-16T07:29:12.000Z</time>
      </trkpt>
      <trkpt lat="43.65467" lon="3.76633">
        <ele>114.52700032</ele>
        <time>2020-08-16T07:29:13.000Z</time>
      </trkpt>
      <trkpt lat="43.65465" lon="3.7663">
        <ele>114.62700032</ele>
        <time>2020-08-16T07:29:14.000Z</time>
      </trkpt>
      <trkpt lat="43.65464" lon="3.76628">
        <ele>114.72700032</ele>
        <time>2020-08-16T07:29:15.000Z</time>
      </trkpt>
      <trkpt lat="43.65464" lon="3.76625">
        <ele>114.82700032</ele>
        <time>2020-08-16T07:29:16.000Z</time>
      </trkpt>
      <trkpt lat="43.65465" lon="3.76623">
        <ele>114.92700032</ele>
        <time>2020-08-16T07:29:17.000Z</time>
      </trkpt>
      <trkpt lat="43.65467" lon="3.7662">
        <ele>115</ele>
        <time>2020-08-16T07:29:18.000Z</time>
      </trkpt>
      <trkpt lat="43.65469" lon="3.76618">
        <ele>115</ele>
        <time>2020-08-16T07:29:19.000Z</time>
      </trkpt>
      <trkpt lat="43.65471" lon="3.76616">
        <ele>115</ele>
        <time>2020-08-16T07:29:20.000Z</time>
      </trkpt>
      <trkpt lat="43.65473" lon="3.76615">
        <ele>115</ele>
        <time>2020-08-16T07:29:21.000Z</time>
      </trkpt>
      <trkpt lat="43.65473" lon="3.76614">
        <ele>115</ele>
        <time>2020-08-16T07:29:27.000Z</time>
      </trkpt>
      <trkpt lat="43.65477" lon="3.76604">
        <ele>115.1090727369</ele>
        <time>2020-08-16T07:30:18.000Z</time>
      </trkpt>
      <trkpt lat="43.65478" lon="3.76601">
        <ele>115.21100956934</ele>
        <time>2020-08-16T07:30:19.000Z</time>
      </trkpt>
      <trkpt lat="43.65479" lon="3.76597">
        <ele>115.31294640178</ele>
        <time>2020-08-16T07:30:20.000Z</time>
      </trkpt>
      <trkpt lat="43.65479" lon="3.76593">
        <ele>115.41488323421</ele>
        <time>2020-08-16T07:30:21.000Z</time>
      </trkpt>
      <trkpt lat="43.6548" lon="3.76589">
        <ele>115.51682006665</ele>
        <time>2020-08-16T07:30:22.000Z</time>
      </trkpt>
      <trkpt lat="43.65481" lon="3.76586">
        <ele>115.61875689908</ele>
        <time>2020-08-16T07:30:23.000Z</time>
      </trkpt>
      <trkpt lat="43.65482" lon="3.76583">
        <ele>115.72069373152</ele>
        <time>2020-08-16T07:30:24.000Z</time>
      </trkpt>
      <trkpt lat="43.65482" lon="3.7658">
        <ele>115.82263056396</ele>
        <time>2020-08-16T07:30:25.000Z</time>
      </trkpt>
      <trkpt lat="43.65483" lon="3.76577">
        <ele>115.92456739639</ele>
        <time>2020-08-16T07:30:26.000Z</time>
      </trkpt>
      <trkpt lat="43.65484" lon="3.76574">
        <ele>116.02531707098</ele>
        <time>2020-08-16T07:30:27.000Z</time>
      </trkpt>
      <trkpt lat="43.65485" lon="3.76571">
        <ele>116.12268802409</ele>
        <time>2020-08-16T07:30:28.000Z</time>
      </trkpt>
      <trkpt lat="43.65486" lon="3.76569">
        <ele>116.2200589772</ele>
        <time>2020-08-16T07:30:29.000Z</time>
      </trkpt>
      <trkpt lat="43.65487" lon="3.76566">
        <ele>116.3174299303</ele>
        <time>2020-08-16T07:30:30.000Z</time>
      </trkpt>
      <trkpt lat="43.65488" lon="3.76563">
        <ele>116.41480088341</ele>
        <time>2020-08-16T07:30:31.000Z</time>
      </trkpt>
      <trkpt lat="43.65488" lon="3.7656">
        <ele>116.51217183652</ele>
        <time>2020-08-16T07:30:32.000Z</time>
      </trkpt>
      <trkpt lat="43.65489" lon="3.76557">
        <ele>116.60954278963</ele>
        <time>2020-08-16T07:30:33.000Z</time>
      </trkpt>
      <trkpt lat="43.65489" lon="3.76554">
        <ele>116.70691374273</ele>
        <time>2020-08-16T07:30:34.000Z</time>
      </trkpt>
      <trkpt lat="43.6549" lon="3.76551">
        <ele>116.80428469584</ele>
        <time>2020-08-16T07:30:35.000Z</time>
      </trkpt>
      <trkpt lat="43.65491" lon="3.76548">
        <ele>116.90165564895</ele>
        <time>2020-08-16T07:30:36.000Z</time>
      </trkpt>
      <trkpt lat="43.65492" lon="3.76545">
        <ele>116.99902660206</ele>
        <time>2020-08-16T07:30:37.000Z</time>
      </trkpt>
      <trkpt lat="43.65494" lon="3.76542">
        <ele>117</ele>
        <time>2020-08-16T07:30:38.000Z</time>
      </trkpt>
      <trkpt lat="43.65495" lon="3.76538">
        <ele>117</ele>
        <time>2020-08-16T07:30:39.000Z</time>
      </trkpt>
      <trkpt lat="43.65496" lon="3.76535">
        <ele>117</ele>
        <time>2020-08-16T07:30:40.000Z</time>
      </trkpt>
      <trkpt lat="43.65498" lon="3.76532">
        <ele>117</ele>
        <time>2020-08-16T07:30:41.000Z</time>
      </trkpt>
      <trkpt lat="43.65499" lon="3.76529">
        <ele>117</ele>
        <time>2020-08-16T07:30:42.000Z</time>
      </trkpt>
      <trkpt lat="43.655" lon="3.76525">
        <ele>117</ele>
        <time>2020-08-16T07:30:43.000Z</time>
      </trkpt>
      <trkpt lat="43.65501" lon="3.76523">
        <ele>117</ele>
        <time>2020-08-16T07:30:44.000Z</time>
      </trkpt>
      <trkpt lat="43.65502" lon="3.7652">
        <ele>117</ele>
        <time>2020-08-16T07:30:45.000Z</time>
      </trkpt>
      <trkpt lat="43.65503" lon="3.76518">
        <ele>117</ele>
        <time>2020-08-16T07:30:46.000Z</time>
      </trkpt>
      <trkpt lat="43.65503" lon="3.76515">
        <ele>117</ele>
        <time>2020-08-16T07:30:47.000Z</time>
      </trkpt>
      <trkpt lat="43.65504" lon="3.76512">
        <ele>117</ele>
        <time>2020-08-16T07:30:48.000Z</time>
      </trkpt>
      <trkpt lat="43.65505" lon="3.76509">
        <ele>117</ele>
        <time>2020-08-16T07:30:49.000Z</time>
      </trkpt>
      <trkpt lat="43.65506" lon="3.76507">
        <ele>117</ele>
        <time>2020-08-16T07:30:50.000Z</time>
      </trkpt>
      <trkpt lat="43.65505" lon="3.76504">
        <ele>117</ele>
        <time>2020-08-16T07:30:52.000Z</time>
      </trkpt>
      <trkpt lat="43.65503" lon="3.76505">
        <ele>117</ele>
        <time>2020-08-16T07:30:55.000Z</time>
      </trkpt>
      <trkpt lat="43.65502" lon="3.76507">
        <ele>117.128</ele>
        <time>2020-08-16T07:30:58.000Z</time>
      </trkpt>
      <trkpt lat="43.655" lon="3.7651">
        <ele>117.328</ele>
        <time>2020-08-16T07:31:00.000Z</time>
      </trkpt>
      <trkpt lat="43.65497" lon="3.76513">
        <ele>117.528</ele>
        <time>2020-08-16T07:31:02.000Z</time>
      </trkpt>
      <trkpt lat="43.65495" lon="3.76515">
        <ele>117.728</ele>
        <time>2020-08-16T07:31:04.000Z</time>
      </trkpt>
      <trkpt lat="43.65493" lon="3.76519">
        <ele>117.928</ele>
        <time>2020-08-16T07:31:06.000Z</time>
      </trkpt>
      <trkpt lat="43.65493" lon="3.7652">
        <ele>118.16265060241</ele>
        <time>2020-08-16T07:31:13.000Z</time>
      </trkpt>
      <trkpt lat="43.65486" lon="3.76528">
        <ele>120.24921228207</ele>
        <time>2020-08-16T07:31:26.000Z</time>
      </trkpt>
      <trkpt lat="43.65485" lon="3.76529">
        <ele>120.56466958917</ele>
        <time>2020-08-16T07:31:27.000Z</time>
      </trkpt>
      <trkpt lat="43.65483" lon="3.7653">
        <ele>120.88012689628</ele>
        <time>2020-08-16T07:31:28.000Z</time>
      </trkpt>
      <trkpt lat="43.6548" lon="3.76532">
        <ele>121.51104151048</ele>
        <time>2020-08-16T07:31:30.000Z</time>
      </trkpt>
      <trkpt lat="43.65478" lon="3.76535">
        <ele>122.14195612468</ele>
        <time>2020-08-16T07:31:32.000Z</time>
      </trkpt>
      <trkpt lat="43.65475" lon="3.76537">
        <ele>122.77287073889</ele>
        <time>2020-08-16T07:31:34.000Z</time>
      </trkpt>
      <trkpt lat="43.65472" lon="3.76539">
        <ele>123.12787216875</ele>
        <time>2020-08-16T07:31:36.000Z</time>
      </trkpt>
      <trkpt lat="43.65469" lon="3.76539">
        <ele>123.32767243242</ele>
        <time>2020-08-16T07:31:38.000Z</time>
      </trkpt>
      <trkpt lat="43.65466" lon="3.76538">
        <ele>123.5274726961</ele>
        <time>2020-08-16T07:31:40.000Z</time>
      </trkpt>
      <trkpt lat="43.65463" lon="3.76536">
        <ele>123.72727295977</ele>
        <time>2020-08-16T07:31:42.000Z</time>
      </trkpt>
      <trkpt lat="43.65461" lon="3.76535">
        <ele>123.92707322344</ele>
        <time>2020-08-16T07:31:44.000Z</time>
      </trkpt>
      <trkpt lat="43.65458" lon="3.76534">
        <ele>124.27194910702</ele>
        <time>2020-08-16T07:31:46.000Z</time>
      </trkpt>
      <trkpt lat="43.65455" lon="3.76533">
        <ele>124.70021433818</ele>
        <time>2020-08-16T07:31:48.000Z</time>
      </trkpt>
      <trkpt lat="43.65452" lon="3.76534">
        <ele>125.12847956935</ele>
        <time>2020-08-16T07:31:50.000Z</time>
      </trkpt>
      <trkpt lat="43.65452" lon="3.76535">
        <ele>126.01818181818</ele>
        <time>2020-08-16T07:31:55.000Z</time>
      </trkpt>
      <trkpt lat="43.65457" lon="3.76535">
        <ele>128.109184</ele>
        <time>2020-08-16T07:33:32.000Z</time>
      </trkpt>
      <trkpt lat="43.65455" lon="3.76536">
        <ele>128.41530644898</ele>
        <time>2020-08-16T07:33:35.000Z</time>
      </trkpt>
      <trkpt lat="43.65453" lon="3.76536">
        <ele>128.72142889796</ele>
        <time>2020-08-16T07:33:38.000Z</time>
      </trkpt>
      <trkpt lat="43.6545" lon="3.76536">
        <ele>128.92551053061</ele>
        <time>2020-08-16T07:33:40.000Z</time>
      </trkpt>
      <trkpt lat="43.65448" lon="3.76537">
        <ele>129.12354116732</ele>
        <time>2020-08-16T07:33:42.000Z</time>
      </trkpt>
      <trkpt lat="43.65446" lon="3.76538">
        <ele>129.41536996109</ele>
        <time>2020-08-16T07:33:45.000Z</time>
      </trkpt>
      <trkpt lat="43.65444" lon="3.7654">
        <ele>129.60992249027</ele>
        <time>2020-08-16T07:33:47.000Z</time>
      </trkpt>
      <trkpt lat="43.65441" lon="3.76541">
        <ele>129.80447501945</ele>
        <time>2020-08-16T07:33:49.000Z</time>
      </trkpt>
      <trkpt lat="43.65439" lon="3.76543">
        <ele>129.99902754864</ele>
        <time>2020-08-16T07:33:51.000Z</time>
      </trkpt>
      <trkpt lat="43.65438" lon="3.76544">
        <ele>130</ele>
        <time>2020-08-16T07:33:53.000Z</time>
      </trkpt>
      <trkpt lat="43.65436" lon="3.76546">
        <ele>130</ele>
        <time>2020-08-16T07:33:55.000Z</time>
      </trkpt>
      <trkpt lat="43.65434" lon="3.76547">
        <ele>130</ele>
        <time>2020-08-16T07:33:57.000Z</time>
      </trkpt>
      <trkpt lat="43.65433" lon="3.76546">
        <ele>130.0015715213</ele>
        <time>2020-08-16T07:34:03.000Z</time>
      </trkpt>
      <trkpt lat="43.6543" lon="3.76548">
        <ele>132</ele>
        <time>2020-08-16T07:53:34.000Z</time>
      </trkpt>
      <trkpt lat="43.6543" lon="3.76548">
        <ele>132</ele>
        <time>2020-08-16T07:53:37.000Z</time>
      </trkpt>
      <trkpt lat="43.65426" lon="3.76549">
        <ele>132</ele>
        <time>2020-08-16T08:08:08.000Z</time>
      </trkpt>
      <trkpt lat="43.65426" lon="3.76549">
        <ele>132</ele>
        <time>2020-08-16T08:08:09.000Z</time>
      </trkpt>
      <trkpt lat="43.65426" lon="3.76549">
        <ele>132</ele>
        <time>2020-08-16T08:08:15.000Z</time>
      </trkpt>
      <trkpt lat="43.65427" lon="3.76547">
        <ele>132.1670248106</ele>
        <time>2020-08-16T08:08:22.000Z</time>
      </trkpt>
      <trkpt lat="43.65427" lon="3.76548">
        <ele>132.98072598862</ele>
        <time>2020-08-16T08:08:27.000Z</time>
      </trkpt>
      <trkpt lat="43.65431" lon="3.76548">
        <ele>130</ele>
        <time>2020-08-16T08:11:12.000Z</time>
      </trkpt>
      <trkpt lat="43.65431" lon="3.76548">
        <ele>130.00529077209</ele>
        <time>2020-08-16T08:11:15.000Z</time>
      </trkpt>
      <trkpt lat="43.65427" lon="3.76528">
        <ele>131.91798042718</ele>
        <time>2020-08-16T08:15:02.000Z</time>
      </trkpt>
      <trkpt lat="43.65428" lon="3.76524">
        <ele>131.70767555578</ele>
        <time>2020-08-16T08:15:04.000Z</time>
      </trkpt>
      <trkpt lat="43.65428" lon="3.7652">
        <ele>131.49737068438</ele>
        <time>2020-08-16T08:15:06.000Z</time>
      </trkpt>
      <trkpt lat="43.65428" lon="3.76519">
        <ele>130</ele>
        <time>2020-08-16T08:15:13.000Z</time>
      </trkpt>
      <trkpt lat="43.65422" lon="3.76517">
        <ele>130</ele>
        <time>2020-08-16T08:15:28.000Z</time>
      </trkpt>
      <trkpt lat="43.6542" lon="3.76518">
        <ele>130</ele>
        <time>2020-08-16T08:15:31.000Z</time>
      </trkpt>
      <trkpt lat="43.65418" lon="3.76518">
        <ele>130</ele>
        <time>2020-08-16T08:15:34.000Z</time>
      </trkpt>
      <trkpt lat="43.65416" lon="3.76518">
        <ele>130</ele>
        <time>2020-08-16T08:15:38.000Z</time>
      </trkpt>
      <trkpt lat="43.65413" lon="3.76519">
        <ele>130</ele>
        <time>2020-08-16T08:15:41.000Z</time>
      </trkpt>
      <trkpt lat="43.65412" lon="3.76521">
        <ele>130</ele>
        <time>2020-08-16T08:15:43.000Z</time>
      </trkpt>
      <trkpt lat="43.65411" lon="3.76523">
        <ele>129.9414114464</ele>
        <time>2020-08-16T08:15:51.000Z</time>
      </trkpt>
      <trkpt lat="43.6541" lon="3.76528">
        <ele>125</ele>
        <time>2020-08-16T08:17:06.000Z</time>
      </trkpt>
      <trkpt lat="43.65409" lon="3.76529">
        <ele>125</ele>
        <time>2020-08-16T08:17:07.000Z</time>
      </trkpt>
      <trkpt lat="43.65407" lon="3.76532">
        <ele>125</ele>
        <time>2020-08-16T08:17:09.000Z</time>
      </trkpt>
      <trkpt lat="43.65406" lon="3.76534">
        <ele>125</ele>
        <time>2020-08-16T08:17:12.000Z</time>
      </trkpt>
      <trkpt lat="43.65404" lon="3.76537">
        <ele>124.94573643411</ele>
        <time>2020-08-16T08:17:15.000Z</time>
      </trkpt>
      <trkpt lat="43.65404" lon="3.76537">
        <ele>123.88736808421</ele>
        <time>2020-08-16T08:17:21.000Z</time>
      </trkpt>
      <trkpt lat="43.65399" lon="3.76541">
        <ele>122</ele>
        <time>2020-08-16T08:17:40.000Z</time>
      </trkpt>
      <trkpt lat="43.65397" lon="3.76543">
        <ele>122</ele>
        <time>2020-08-16T08:17:42.000Z</time>
      </trkpt>
      <trkpt lat="43.65395" lon="3.76545">
        <ele>122</ele>
        <time>2020-08-16T08:17:44.000Z</time>
      </trkpt>
      <trkpt lat="43.65393" lon="3.76547">
        <ele>122</ele>
        <time>2020-08-16T08:17:46.000Z</time>
      </trkpt>
      <trkpt lat="43.65391" lon="3.76549">
        <ele>122</ele>
        <time>2020-08-16T08:17:48.000Z</time>
      </trkpt>
      <trkpt lat="43.65389" lon="3.76551">
        <ele>122</ele>
        <time>2020-08-16T08:17:50.000Z</time>
      </trkpt>
      <trkpt lat="43.65387" lon="3.76553">
        <ele>122</ele>
        <time>2020-08-16T08:17:52.000Z</time>
      </trkpt>
      <trkpt lat="43.65385" lon="3.76554">
        <ele>122</ele>
        <time>2020-08-16T08:17:55.000Z</time>
      </trkpt>
      <trkpt lat="43.65385" lon="3.76555">
        <ele>122.00422053625</ele>
        <time>2020-08-16T08:18:01.000Z</time>
      </trkpt>
      <trkpt lat="43.65388" lon="3.76563">
        <ele>123</ele>
        <time>2020-08-16T08:19:22.000Z</time>
      </trkpt>
      <trkpt lat="43.65389" lon="3.76564">
        <ele>123</ele>
        <time>2020-08-16T08:19:23.000Z</time>
      </trkpt>
      <trkpt lat="43.65392" lon="3.76567">
        <ele>123</ele>
        <time>2020-08-16T08:19:25.000Z</time>
      </trkpt>
      <trkpt lat="43.65394" lon="3.7657">
        <ele>123</ele>
        <time>2020-08-16T08:19:27.000Z</time>
      </trkpt>
      <trkpt lat="43.65397" lon="3.76572">
        <ele>123</ele>
        <time>2020-08-16T08:19:29.000Z</time>
      </trkpt>
      <trkpt lat="43.65399" lon="3.76574">
        <ele>123</ele>
        <time>2020-08-16T08:19:30.000Z</time>
      </trkpt>
      <trkpt lat="43.654" lon="3.76575">
        <ele>123.02626490272</ele>
        <time>2020-08-16T08:19:31.000Z</time>
      </trkpt>
      <trkpt lat="43.65402" lon="3.76576">
        <ele>123.12354116731</ele>
        <time>2020-08-16T08:19:32.000Z</time>
      </trkpt>
      <trkpt lat="43.65404" lon="3.76578">
        <ele>123.22081743191</ele>
        <time>2020-08-16T08:19:33.000Z</time>
      </trkpt>
      <trkpt lat="43.65405" lon="3.76579">
        <ele>123.3180936965</ele>
        <time>2020-08-16T08:19:34.000Z</time>
      </trkpt>
      <trkpt lat="43.65407" lon="3.76581">
        <ele>123.41536996109</ele>
        <time>2020-08-16T08:19:35.000Z</time>
      </trkpt>
      <trkpt lat="43.65408" lon="3.76582">
        <ele>123.51264622568</ele>
        <time>2020-08-16T08:19:36.000Z</time>
      </trkpt>
      <trkpt lat="43.65411" lon="3.76585">
        <ele>123.70719875486</ele>
        <time>2020-08-16T08:19:38.000Z</time>
      </trkpt>
      <trkpt lat="43.65413" lon="3.76586">
        <ele>123.80447501945</ele>
        <time>2020-08-16T08:19:39.000Z</time>
      </trkpt>
      <trkpt lat="43.65415" lon="3.76587">
        <ele>123.90175128405</ele>
        <time>2020-08-16T08:19:40.000Z</time>
      </trkpt>
      <trkpt lat="43.65416" lon="3.76589">
        <ele>123.99902754864</ele>
        <time>2020-08-16T08:19:41.000Z</time>
      </trkpt>
      <trkpt lat="43.65418" lon="3.7659">
        <ele>124</ele>
        <time>2020-08-16T08:19:42.000Z</time>
      </trkpt>
      <trkpt lat="43.65421" lon="3.76592">
        <ele>124</ele>
        <time>2020-08-16T08:19:44.000Z</time>
      </trkpt>
      <trkpt lat="43.65422" lon="3.76592">
        <ele>124</ele>
        <time>2020-08-16T08:19:51.000Z</time>
      </trkpt>
      <trkpt lat="43.65429" lon="3.76595">
        <ele>123.95718956498</ele>
        <time>2020-08-16T08:19:56.000Z</time>
      </trkpt>
      <trkpt lat="43.65432" lon="3.76596">
        <ele>123.84742011946</ele>
        <time>2020-08-16T08:19:57.000Z</time>
      </trkpt>
      <trkpt lat="43.65434" lon="3.76598">
        <ele>123.73765067393</ele>
        <time>2020-08-16T08:19:58.000Z</time>
      </trkpt>
      <trkpt lat="43.65436" lon="3.76599">
        <ele>123.62788122841</ele>
        <time>2020-08-16T08:19:59.000Z</time>
      </trkpt>
      <trkpt lat="43.65438" lon="3.766">
        <ele>123.51811178288</ele>
        <time>2020-08-16T08:20:00.000Z</time>
      </trkpt>
      <trkpt lat="43.6544" lon="3.76602">
        <ele>123.40834233735</ele>
        <time>2020-08-16T08:20:01.000Z</time>
      </trkpt>
      <trkpt lat="43.65442" lon="3.76604">
        <ele>123.29857289183</ele>
        <time>2020-08-16T08:20:02.000Z</time>
      </trkpt>
      <trkpt lat="43.65444" lon="3.76606">
        <ele>123.1888034463</ele>
        <time>2020-08-16T08:20:03.000Z</time>
      </trkpt>
      <trkpt lat="43.65446" lon="3.76608">
        <ele>123.07903400078</ele>
        <time>2020-08-16T08:20:04.000Z</time>
      </trkpt>
      <trkpt lat="43.65449" lon="3.7661">
        <ele>122.94557821437</ele>
        <time>2020-08-16T08:20:05.000Z</time>
      </trkpt>
      <trkpt lat="43.65451" lon="3.76613">
        <ele>122.75121469425</ele>
        <time>2020-08-16T08:20:06.000Z</time>
      </trkpt>
      <trkpt lat="43.65455" lon="3.76616">
        <ele>122.55685117414</ele>
        <time>2020-08-16T08:20:07.000Z</time>
      </trkpt>
      <trkpt lat="43.65458" lon="3.76619">
        <ele>122.36248765403</ele>
        <time>2020-08-16T08:20:08.000Z</time>
      </trkpt>
      <trkpt lat="43.65461" lon="3.76622">
        <ele>122.16812413392</ele>
        <time>2020-08-16T08:20:09.000Z</time>
      </trkpt>
      <trkpt lat="43.65465" lon="3.76626">
        <ele>121.9737606138</ele>
        <time>2020-08-16T08:20:10.000Z</time>
      </trkpt>
      <trkpt lat="43.65469" lon="3.7663">
        <ele>121.77939709369</ele>
        <time>2020-08-16T08:20:11.000Z</time>
      </trkpt>
      <trkpt lat="43.65472" lon="3.76634">
        <ele>121.58503357358</ele>
        <time>2020-08-16T08:20:12.000Z</time>
      </trkpt>
      <trkpt lat="43.65476" lon="3.76638">
        <ele>121.39067005346</ele>
        <time>2020-08-16T08:20:13.000Z</time>
      </trkpt>
      <trkpt lat="43.65479" lon="3.76643">
        <ele>121.19630653335</ele>
        <time>2020-08-16T08:20:14.000Z</time>
      </trkpt>
      <trkpt lat="43.65481" lon="3.76648">
        <ele>121.00194301324</ele>
        <time>2020-08-16T08:20:15.000Z</time>
      </trkpt>
      <trkpt lat="43.65483" lon="3.76654">
        <ele>120.69444345679</ele>
        <time>2020-08-16T08:20:16.000Z</time>
      </trkpt>
      <trkpt lat="43.65485" lon="3.76661">
        <ele>120.38580148148</ele>
        <time>2020-08-16T08:20:17.000Z</time>
      </trkpt>
      <trkpt lat="43.65487" lon="3.76668">
        <ele>120.07715950617</ele>
        <time>2020-08-16T08:20:18.000Z</time>
      </trkpt>
      <trkpt lat="43.65489" lon="3.76675">
        <ele>119.76851753086</ele>
        <time>2020-08-16T08:20:19.000Z</time>
      </trkpt>
      <trkpt lat="43.65491" lon="3.76682">
        <ele>119.45987555556</ele>
        <time>2020-08-16T08:20:20.000Z</time>
      </trkpt>
      <trkpt lat="43.65494" lon="3.76689">
        <ele>119.15123358025</ele>
        <time>2020-08-16T08:20:21.000Z</time>
      </trkpt>
      <trkpt lat="43.65496" lon="3.76694">
        <ele>118.84259160494</ele>
        <time>2020-08-16T08:20:22.000Z</time>
      </trkpt>
      <trkpt lat="43.65499" lon="3.76699">
        <ele>118.53394962963</ele>
        <time>2020-08-16T08:20:23.000Z</time>
      </trkpt>
      <trkpt lat="43.65501" lon="3.76704">
        <ele>118.22530765432</ele>
        <time>2020-08-16T08:20:24.000Z</time>
      </trkpt>
      <trkpt lat="43.65503" lon="3.76709">
        <ele>117.89432366696</ele>
        <time>2020-08-16T08:20:25.000Z</time>
      </trkpt>
      <trkpt lat="43.65504" lon="3.76714">
        <ele>117.50293447957</ele>
        <time>2020-08-16T08:20:26.000Z</time>
      </trkpt>
      <trkpt lat="43.65505" lon="3.76719">
        <ele>117.11154529218</ele>
        <time>2020-08-16T08:20:27.000Z</time>
      </trkpt>
      <trkpt lat="43.65506" lon="3.76725">
        <ele>116.72015610479</ele>
        <time>2020-08-16T08:20:28.000Z</time>
      </trkpt>
      <trkpt lat="43.65506" lon="3.76731">
        <ele>116.32876691741</ele>
        <time>2020-08-16T08:20:29.000Z</time>
      </trkpt>
      <trkpt lat="43.65505" lon="3.76737">
        <ele>115.93737773002</ele>
        <time>2020-08-16T08:20:30.000Z</time>
      </trkpt>
      <trkpt lat="43.65503" lon="3.76744">
        <ele>115.54598854263</ele>
        <time>2020-08-16T08:20:31.000Z</time>
      </trkpt>
      <trkpt lat="43.65501" lon="3.76751">
        <ele>115.15459935524</ele>
        <time>2020-08-16T08:20:32.000Z</time>
      </trkpt>
      <trkpt lat="43.65499" lon="3.76757">
        <ele>114.76321016785</ele>
        <time>2020-08-16T08:20:33.000Z</time>
      </trkpt>
      <trkpt lat="43.65498" lon="3.76763">
        <ele>114.37182098046</ele>
        <time>2020-08-16T08:20:34.000Z</time>
      </trkpt>
      <trkpt lat="43.65498" lon="3.76768">
        <ele>113.98402656514</ele>
        <time>2020-08-16T08:20:35.000Z</time>
      </trkpt>
      <trkpt lat="43.65498" lon="3.7677">
        <ele>113.66453742061</ele>
        <time>2020-08-16T08:20:36.000Z</time>
      </trkpt>
      <trkpt lat="43.65499" lon="3.76769">
        <ele>111.9700028463</ele>
        <time>2020-08-16T08:20:42.000Z</time>
      </trkpt>
      <trkpt lat="43.655" lon="3.76786">
        <ele>109.8406548795</ele>
        <time>2020-08-16T08:21:13.000Z</time>
      </trkpt>
      <trkpt lat="43.65499" lon="3.76789">
        <ele>109.63636458724</ele>
        <time>2020-08-16T08:21:14.000Z</time>
      </trkpt>
      <trkpt lat="43.65499" lon="3.76793">
        <ele>109.43207429499</ele>
        <time>2020-08-16T08:21:15.000Z</time>
      </trkpt>
      <trkpt lat="43.65498" lon="3.76796">
        <ele>109.22778400273</ele>
        <time>2020-08-16T08:21:16.000Z</time>
      </trkpt>
      <trkpt lat="43.65497" lon="3.768">
        <ele>109.02349371047</ele>
        <time>2020-08-16T08:21:17.000Z</time>
      </trkpt>
      <trkpt lat="43.65496" lon="3.76804">
        <ele>108.81920341822</ele>
        <time>2020-08-16T08:21:18.000Z</time>
      </trkpt>
      <trkpt lat="43.65495" lon="3.76807">
        <ele>108.61491312596</ele>
        <time>2020-08-16T08:21:19.000Z</time>
      </trkpt>
      <trkpt lat="43.65494" lon="3.76811">
        <ele>108.41062283371</ele>
        <time>2020-08-16T08:21:20.000Z</time>
      </trkpt>
      <trkpt lat="43.65493" lon="3.76815">
        <ele>108.20633254145</ele>
        <time>2020-08-16T08:21:21.000Z</time>
      </trkpt>
      <trkpt lat="43.65492" lon="3.76819">
        <ele>108.00204224919</ele>
        <time>2020-08-16T08:21:22.000Z</time>
      </trkpt>
      <trkpt lat="43.65491" lon="3.76823">
        <ele>107.80199936</ele>
        <time>2020-08-16T08:21:23.000Z</time>
      </trkpt>
      <trkpt lat="43.65489" lon="3.76827">
        <ele>107.60199936</ele>
        <time>2020-08-16T08:21:24.000Z</time>
      </trkpt>
      <trkpt lat="43.65488" lon="3.7683">
        <ele>107.40199936</ele>
        <time>2020-08-16T08:21:25.000Z</time>
      </trkpt>
      <trkpt lat="43.65488" lon="3.76834">
        <ele>107.20199936</ele>
        <time>2020-08-16T08:21:26.000Z</time>
      </trkpt>
      <trkpt lat="43.65487" lon="3.76836">
        <ele>107.00199936</ele>
        <time>2020-08-16T08:21:27.000Z</time>
      </trkpt>
      <trkpt lat="43.65486" lon="3.76839">
        <ele>106.80199936</ele>
        <time>2020-08-16T08:21:28.000Z</time>
      </trkpt>
      <trkpt lat="43.65484" lon="3.76843">
        <ele>106.40199936</ele>
        <time>2020-08-16T08:21:30.000Z</time>
      </trkpt>
      <trkpt lat="43.65483" lon="3.76846">
        <ele>106.20199936</ele>
        <time>2020-08-16T08:21:31.000Z</time>
      </trkpt>
      <trkpt lat="43.65483" lon="3.76848">
        <ele>106.00199936</ele>
        <time>2020-08-16T08:21:32.000Z</time>
      </trkpt>
      <trkpt lat="43.65482" lon="3.76851">
        <ele>105.89804295842</ele>
        <time>2020-08-16T08:21:33.000Z</time>
      </trkpt>
      <trkpt lat="43.6548" lon="3.76854">
        <ele>105.79505638062</ele>
        <time>2020-08-16T08:21:34.000Z</time>
      </trkpt>
      <trkpt lat="43.65479" lon="3.76856">
        <ele>105.69206980282</ele>
        <time>2020-08-16T08:21:35.000Z</time>
      </trkpt>
      <trkpt lat="43.65478" lon="3.76859">
        <ele>105.58908322502</ele>
        <time>2020-08-16T08:21:36.000Z</time>
      </trkpt>
      <trkpt lat="43.65477" lon="3.76862">
        <ele>105.48609664722</ele>
        <time>2020-08-16T08:21:37.000Z</time>
      </trkpt>
      <trkpt lat="43.65475" lon="3.76865">
        <ele>105.38311006942</ele>
        <time>2020-08-16T08:21:38.000Z</time>
      </trkpt>
      <trkpt lat="43.65474" lon="3.76868">
        <ele>105.28012349162</ele>
        <time>2020-08-16T08:21:39.000Z</time>
      </trkpt>
      <trkpt lat="43.65473" lon="3.76871">
        <ele>105.17713691382</ele>
        <time>2020-08-16T08:21:40.000Z</time>
      </trkpt>
      <trkpt lat="43.65472" lon="3.76874">
        <ele>105.07415033602</ele>
        <time>2020-08-16T08:21:41.000Z</time>
      </trkpt>
      <trkpt lat="43.6547" lon="3.76877">
        <ele>104.97202796309</ele>
        <time>2020-08-16T08:21:42.000Z</time>
      </trkpt>
      <trkpt lat="43.65469" lon="3.7688">
        <ele>104.87212783125</ele>
        <time>2020-08-16T08:21:43.000Z</time>
      </trkpt>
      <trkpt lat="43.65468" lon="3.76883">
        <ele>104.77222769941</ele>
        <time>2020-08-16T08:21:44.000Z</time>
      </trkpt>
      <trkpt lat="43.65468" lon="3.76887">
        <ele>104.67232756758</ele>
        <time>2020-08-16T08:21:45.000Z</time>
      </trkpt>
      <trkpt lat="43.65467" lon="3.76891">
        <ele>104.57242743574</ele>
        <time>2020-08-16T08:21:46.000Z</time>
      </trkpt>
      <trkpt lat="43.65467" lon="3.76894">
        <ele>104.4725273039</ele>
        <time>2020-08-16T08:21:47.000Z</time>
      </trkpt>
      <trkpt lat="43.65467" lon="3.76897">
        <ele>104.37262717207</ele>
        <time>2020-08-16T08:21:48.000Z</time>
      </trkpt>
      <trkpt lat="43.65467" lon="3.76901">
        <ele>104.27272704023</ele>
        <time>2020-08-16T08:21:49.000Z</time>
      </trkpt>
      <trkpt lat="43.65467" lon="3.76904">
        <ele>104.1728269084</ele>
        <time>2020-08-16T08:21:50.000Z</time>
      </trkpt>
      <trkpt lat="43.65468" lon="3.76907">
        <ele>104.07292677656</ele>
        <time>2020-08-16T08:21:51.000Z</time>
      </trkpt>
      <trkpt lat="43.65469" lon="3.7691">
        <ele>104</ele>
        <time>2020-08-16T08:21:52.000Z</time>
      </trkpt>
      <trkpt lat="43.6547" lon="3.76913">
        <ele>104</ele>
        <time>2020-08-16T08:21:53.000Z</time>
      </trkpt>
      <trkpt lat="43.65471" lon="3.76916">
        <ele>104</ele>
        <time>2020-08-16T08:21:54.000Z</time>
      </trkpt>
      <trkpt lat="43.65473" lon="3.76918">
        <ele>104</ele>
        <time>2020-08-16T08:21:55.000Z</time>
      </trkpt>
      <trkpt lat="43.65475" lon="3.7692">
        <ele>104</ele>
        <time>2020-08-16T08:21:56.000Z</time>
      </trkpt>
      <trkpt lat="43.65477" lon="3.76922">
        <ele>104</ele>
        <time>2020-08-16T08:21:57.000Z</time>
      </trkpt>
      <trkpt lat="43.65479" lon="3.76923">
        <ele>104</ele>
        <time>2020-08-16T08:21:58.000Z</time>
      </trkpt>
      <trkpt lat="43.65481" lon="3.76924">
        <ele>104</ele>
        <time>2020-08-16T08:21:59.000Z</time>
      </trkpt>
      <trkpt lat="43.65484" lon="3.76925">
        <ele>104</ele>
        <time>2020-08-16T08:22:00.000Z</time>
      </trkpt>
      <trkpt lat="43.65486" lon="3.76925">
        <ele>104</ele>
        <time>2020-08-16T08:22:01.000Z</time>
      </trkpt>
      <trkpt lat="43.65489" lon="3.76926">
        <ele>103.944</ele>
        <time>2020-08-16T08:22:02.000Z</time>
      </trkpt>
      <trkpt lat="43.65492" lon="3.76926">
        <ele>103.744</ele>
        <time>2020-08-16T08:22:03.000Z</time>
      </trkpt>
      <trkpt lat="43.65495" lon="3.76927">
        <ele>103.544</ele>
        <time>2020-08-16T08:22:04.000Z</time>
      </trkpt>
      <trkpt lat="43.65497" lon="3.76928">
        <ele>103.344</ele>
        <time>2020-08-16T08:22:05.000Z</time>
      </trkpt>
      <trkpt lat="43.65499" lon="3.76929">
        <ele>103.144</ele>
        <time>2020-08-16T08:22:06.000Z</time>
      </trkpt>
      <trkpt lat="43.65501" lon="3.7693">
        <ele>102.944</ele>
        <time>2020-08-16T08:22:07.000Z</time>
      </trkpt>
      <trkpt lat="43.65504" lon="3.76932">
        <ele>102.744</ele>
        <time>2020-08-16T08:22:08.000Z</time>
      </trkpt>
      <trkpt lat="43.65507" lon="3.76933">
        <ele>102.544</ele>
        <time>2020-08-16T08:22:09.000Z</time>
      </trkpt>
      <trkpt lat="43.6551" lon="3.76934">
        <ele>102.344</ele>
        <time>2020-08-16T08:22:10.000Z</time>
      </trkpt>
      <trkpt lat="43.65513" lon="3.76935">
        <ele>102.144</ele>
        <time>2020-08-16T08:22:11.000Z</time>
      </trkpt>
      <trkpt lat="43.65516" lon="3.76936">
        <ele>101.97202796309</ele>
        <time>2020-08-16T08:22:12.000Z</time>
      </trkpt>
      <trkpt lat="43.65519" lon="3.76937">
        <ele>101.87212783125</ele>
        <time>2020-08-16T08:22:13.000Z</time>
      </trkpt>
      <trkpt lat="43.65522" lon="3.76938">
        <ele>101.77222769941</ele>
        <time>2020-08-16T08:22:14.000Z</time>
      </trkpt>
      <trkpt lat="43.65524" lon="3.76939">
        <ele>101.67232756758</ele>
        <time>2020-08-16T08:22:15.000Z</time>
      </trkpt>
      <trkpt lat="43.65527" lon="3.7694">
        <ele>101.57242743574</ele>
        <time>2020-08-16T08:22:16.000Z</time>
      </trkpt>
      <trkpt lat="43.6553" lon="3.76941">
        <ele>101.4725273039</ele>
        <time>2020-08-16T08:22:17.000Z</time>
      </trkpt>
      <trkpt lat="43.65533" lon="3.76943">
        <ele>101.37262717207</ele>
        <time>2020-08-16T08:22:18.000Z</time>
      </trkpt>
      <trkpt lat="43.65536" lon="3.76944">
        <ele>101.27272704023</ele>
        <time>2020-08-16T08:22:19.000Z</time>
      </trkpt>
      <trkpt lat="43.65539" lon="3.76945">
        <ele>101.1728269084</ele>
        <time>2020-08-16T08:22:20.000Z</time>
      </trkpt>
      <trkpt lat="43.65542" lon="3.76945">
        <ele>101.07292677656</ele>
        <time>2020-08-16T08:22:21.000Z</time>
      </trkpt>
      <trkpt lat="43.65545" lon="3.76946">
        <ele>100.97297266131</ele>
        <time>2020-08-16T08:22:22.000Z</time>
      </trkpt>
      <trkpt lat="43.65547" lon="3.76946">
        <ele>100.87287259327</ele>
        <time>2020-08-16T08:22:23.000Z</time>
      </trkpt>
      <trkpt lat="43.6555" lon="3.76946">
        <ele>100.77277252524</ele>
        <time>2020-08-16T08:22:24.000Z</time>
      </trkpt>
      <trkpt lat="43.65552" lon="3.76946">
        <ele>100.6726724572</ele>
        <time>2020-08-16T08:22:25.000Z</time>
      </trkpt>
      <trkpt lat="43.65555" lon="3.76946">
        <ele>100.57257238917</ele>
        <time>2020-08-16T08:22:26.000Z</time>
      </trkpt>
      <trkpt lat="43.65558" lon="3.76946">
        <ele>100.47247232113</ele>
        <time>2020-08-16T08:22:27.000Z</time>
      </trkpt>
      <trkpt lat="43.6556" lon="3.76946">
        <ele>100.37237225309</ele>
        <time>2020-08-16T08:22:28.000Z</time>
      </trkpt>
      <trkpt lat="43.65563" lon="3.76944">
        <ele>100.27227218506</ele>
        <time>2020-08-16T08:22:29.000Z</time>
      </trkpt>
      <trkpt lat="43.65566" lon="3.76943">
        <ele>100.17217211702</ele>
        <time>2020-08-16T08:22:30.000Z</time>
      </trkpt>
      <trkpt lat="43.65569" lon="3.76942">
        <ele>100.07207204899</ele>
        <time>2020-08-16T08:22:31.000Z</time>
      </trkpt>
      <trkpt lat="43.65572" lon="3.76941">
        <ele>100</ele>
        <time>2020-08-16T08:22:32.000Z</time>
      </trkpt>
      <trkpt lat="43.65574" lon="3.7694">
        <ele>100</ele>
        <time>2020-08-16T08:22:33.000Z</time>
      </trkpt>
      <trkpt lat="43.65577" lon="3.76938">
        <ele>100</ele>
        <time>2020-08-16T08:22:34.000Z</time>
      </trkpt>
      <trkpt lat="43.6558" lon="3.76937">
        <ele>100</ele>
        <time>2020-08-16T08:22:35.000Z</time>
      </trkpt>
      <trkpt lat="43.65582" lon="3.76935">
        <ele>100</ele>
        <time>2020-08-16T08:22:36.000Z</time>
      </trkpt>
      <trkpt lat="43.65586" lon="3.76935">
        <ele>100</ele>
        <time>2020-08-16T08:22:37.000Z</time>
      </trkpt>
      <trkpt lat="43.65589" lon="3.76935">
        <ele>100</ele>
        <time>2020-08-16T08:22:38.000Z</time>
      </trkpt>
      <trkpt lat="43.65591" lon="3.76935">
        <ele>100</ele>
        <time>2020-08-16T08:22:39.000Z</time>
      </trkpt>
      <trkpt lat="43.65594" lon="3.76935">
        <ele>100</ele>
        <time>2020-08-16T08:22:40.000Z</time>
      </trkpt>
      <trkpt lat="43.65596" lon="3.76936">
        <ele>100</ele>
        <time>2020-08-16T08:22:41.000Z</time>
      </trkpt>
      <trkpt lat="43.65598" lon="3.76937">
        <ele>99.97299968</ele>
        <time>2020-08-16T08:22:42.000Z</time>
      </trkpt>
      <trkpt lat="43.65599" lon="3.76939">
        <ele>99.87299968</ele>
        <time>2020-08-16T08:22:43.000Z</time>
      </trkpt>
      <trkpt lat="43.65601" lon="3.76941">
        <ele>99.77299968</ele>
        <time>2020-08-16T08:22:44.000Z</time>
      </trkpt>
      <trkpt lat="43.65602" lon="3.76945">
        <ele>99.67299968</ele>
        <time>2020-08-16T08:22:45.000Z</time>
      </trkpt>
      <trkpt lat="43.65601" lon="3.76948">
        <ele>99.57299968</ele>
        <time>2020-08-16T08:22:46.000Z</time>
      </trkpt>
      <trkpt lat="43.65601" lon="3.76951">
        <ele>99.47299968</ele>
        <time>2020-08-16T08:22:47.000Z</time>
      </trkpt>
      <trkpt lat="43.656" lon="3.76954">
        <ele>99.37299968</ele>
        <time>2020-08-16T08:22:48.000Z</time>
      </trkpt>
      <trkpt lat="43.656" lon="3.76957">
        <ele>99.27299968</ele>
        <time>2020-08-16T08:22:49.000Z</time>
      </trkpt>
      <trkpt lat="43.65599" lon="3.7696">
        <ele>99.17299968</ele>
        <time>2020-08-16T08:22:50.000Z</time>
      </trkpt>
      <trkpt lat="43.65599" lon="3.76963">
        <ele>99.07299968</ele>
        <time>2020-08-16T08:22:51.000Z</time>
      </trkpt>
      <trkpt lat="43.65598" lon="3.76966">
        <ele>98.97299968</ele>
        <time>2020-08-16T08:22:52.000Z</time>
      </trkpt>
      <trkpt lat="43.65598" lon="3.76969">
        <ele>98.87299968</ele>
        <time>2020-08-16T08:22:53.000Z</time>
      </trkpt>
      <trkpt lat="43.65598" lon="3.76972">
        <ele>98.77299968</ele>
        <time>2020-08-16T08:22:54.000Z</time>
      </trkpt>
      <trkpt lat="43.65598" lon="3.76976">
        <ele>98.67299968</ele>
        <time>2020-08-16T08:22:55.000Z</time>
      </trkpt>
      <trkpt lat="43.65598" lon="3.7698">
        <ele>98.57299968</ele>
        <time>2020-08-16T08:22:56.000Z</time>
      </trkpt>
      <trkpt lat="43.65598" lon="3.76984">
        <ele>98.47299968</ele>
        <time>2020-08-16T08:22:57.000Z</time>
      </trkpt>
      <trkpt lat="43.65598" lon="3.76988">
        <ele>98.37299968</ele>
        <time>2020-08-16T08:22:58.000Z</time>
      </trkpt>
      <trkpt lat="43.65598" lon="3.76991">
        <ele>98.27299968</ele>
        <time>2020-08-16T08:22:59.000Z</time>
      </trkpt>
      <trkpt lat="43.65598" lon="3.76995">
        <ele>98.17299968</ele>
        <time>2020-08-16T08:23:00.000Z</time>
      </trkpt>
      <trkpt lat="43.65598" lon="3.76999">
        <ele>98.07299968</ele>
        <time>2020-08-16T08:23:01.000Z</time>
      </trkpt>
      <trkpt lat="43.65597" lon="3.77002">
        <ele>98</ele>
        <time>2020-08-16T08:23:02.000Z</time>
      </trkpt>
      <trkpt lat="43.65597" lon="3.77006">
        <ele>98</ele>
        <time>2020-08-16T08:23:03.000Z</time>
      </trkpt>
      <trkpt lat="43.65597" lon="3.7701">
        <ele>98</ele>
        <time>2020-08-16T08:23:04.000Z</time>
      </trkpt>
      <trkpt lat="43.65596" lon="3.77013">
        <ele>98</ele>
        <time>2020-08-16T08:23:05.000Z</time>
      </trkpt>
      <trkpt lat="43.65596" lon="3.77017">
        <ele>98</ele>
        <time>2020-08-16T08:23:06.000Z</time>
      </trkpt>
      <trkpt lat="43.65595" lon="3.7702">
        <ele>98</ele>
        <time>2020-08-16T08:23:07.000Z</time>
      </trkpt>
      <trkpt lat="43.65595" lon="3.77024">
        <ele>98</ele>
        <time>2020-08-16T08:23:08.000Z</time>
      </trkpt>
      <trkpt lat="43.65594" lon="3.77028">
        <ele>98</ele>
        <time>2020-08-16T08:23:09.000Z</time>
      </trkpt>
      <trkpt lat="43.65594" lon="3.77032">
        <ele>98</ele>
        <time>2020-08-16T08:23:10.000Z</time>
      </trkpt>
      <trkpt lat="43.65593" lon="3.77035">
        <ele>98</ele>
        <time>2020-08-16T08:23:11.000Z</time>
      </trkpt>
      <trkpt lat="43.65593" lon="3.77039">
        <ele>97.972027963086</ele>
        <time>2020-08-16T08:23:12.000Z</time>
      </trkpt>
      <trkpt lat="43.65592" lon="3.77043">
        <ele>97.87212783125</ele>
        <time>2020-08-16T08:23:13.000Z</time>
      </trkpt>
      <trkpt lat="43.65592" lon="3.77046">
        <ele>97.772227699413</ele>
        <time>2020-08-16T08:23:14.000Z</time>
      </trkpt>
      <trkpt lat="43.65591" lon="3.7705">
        <ele>97.672327567577</ele>
        <time>2020-08-16T08:23:15.000Z</time>
      </trkpt>
      <trkpt lat="43.65591" lon="3.77054">
        <ele>97.572427435741</ele>
        <time>2020-08-16T08:23:16.000Z</time>
      </trkpt>
      <trkpt lat="43.6559" lon="3.77057">
        <ele>97.472527303905</ele>
        <time>2020-08-16T08:23:17.000Z</time>
      </trkpt>
      <trkpt lat="43.6559" lon="3.77061">
        <ele>97.372627172069</ele>
        <time>2020-08-16T08:23:18.000Z</time>
      </trkpt>
      <trkpt lat="43.65589" lon="3.77065">
        <ele>97.272727040232</ele>
        <time>2020-08-16T08:23:19.000Z</time>
      </trkpt>
      <trkpt lat="43.65589" lon="3.77068">
        <ele>97.172826908396</ele>
        <time>2020-08-16T08:23:20.000Z</time>
      </trkpt>
      <trkpt lat="43.65588" lon="3.77072">
        <ele>97.07292677656</ele>
        <time>2020-08-16T08:23:21.000Z</time>
      </trkpt>
      <trkpt lat="43.65587" lon="3.77076">
        <ele>96.94599936</ele>
        <time>2020-08-16T08:23:22.000Z</time>
      </trkpt>
      <trkpt lat="43.65587" lon="3.7708">
        <ele>96.74599936</ele>
        <time>2020-08-16T08:23:23.000Z</time>
      </trkpt>
      <trkpt lat="43.65586" lon="3.77084">
        <ele>96.54599936</ele>
        <time>2020-08-16T08:23:24.000Z</time>
      </trkpt>
      <trkpt lat="43.65586" lon="3.77089">
        <ele>96.34599936</ele>
        <time>2020-08-16T08:23:25.000Z</time>
      </trkpt>
      <trkpt lat="43.65585" lon="3.77093">
        <ele>96.14599936</ele>
        <time>2020-08-16T08:23:26.000Z</time>
      </trkpt>
      <trkpt lat="43.65585" lon="3.77097">
        <ele>95.94599936</ele>
        <time>2020-08-16T08:23:27.000Z</time>
      </trkpt>
      <trkpt lat="43.65584" lon="3.77102">
        <ele>95.74599936</ele>
        <time>2020-08-16T08:23:28.000Z</time>
      </trkpt>
      <trkpt lat="43.65584" lon="3.77106">
        <ele>95.54599936</ele>
        <time>2020-08-16T08:23:29.000Z</time>
      </trkpt>
      <trkpt lat="43.65584" lon="3.77109">
        <ele>95.34599936</ele>
        <time>2020-08-16T08:23:30.000Z</time>
      </trkpt>
      <trkpt lat="43.65584" lon="3.77113">
        <ele>95.14599936</ele>
        <time>2020-08-16T08:23:31.000Z</time>
      </trkpt>
      <trkpt lat="43.65583" lon="3.77117">
        <ele>94.97299968</ele>
        <time>2020-08-16T08:23:32.000Z</time>
      </trkpt>
      <trkpt lat="43.65583" lon="3.7712">
        <ele>94.87299968</ele>
        <time>2020-08-16T08:23:33.000Z</time>
      </trkpt>
      <trkpt lat="43.65583" lon="3.77124">
        <ele>94.77299968</ele>
        <time>2020-08-16T08:23:34.000Z</time>
      </trkpt>
      <trkpt lat="43.65583" lon="3.77127">
        <ele>94.67299968</ele>
        <time>2020-08-16T08:23:35.000Z</time>
      </trkpt>
      <trkpt lat="43.65583" lon="3.7713">
        <ele>94.57299968</ele>
        <time>2020-08-16T08:23:36.000Z</time>
      </trkpt>
      <trkpt lat="43.65583" lon="3.77133">
        <ele>94.47299968</ele>
        <time>2020-08-16T08:23:37.000Z</time>
      </trkpt>
      <trkpt lat="43.65583" lon="3.77136">
        <ele>94.37299968</ele>
        <time>2020-08-16T08:23:38.000Z</time>
      </trkpt>
      <trkpt lat="43.65583" lon="3.7714">
        <ele>94.27299968</ele>
        <time>2020-08-16T08:23:39.000Z</time>
      </trkpt>
      <trkpt lat="43.65583" lon="3.77144">
        <ele>94.17299968</ele>
        <time>2020-08-16T08:23:40.000Z</time>
      </trkpt>
      <trkpt lat="43.65583" lon="3.77149">
        <ele>94.07299968</ele>
        <time>2020-08-16T08:23:41.000Z</time>
      </trkpt>
      <trkpt lat="43.65583" lon="3.77154">
        <ele>94</ele>
        <time>2020-08-16T08:23:42.000Z</time>
      </trkpt>
      <trkpt lat="43.65582" lon="3.77159">
        <ele>94</ele>
        <time>2020-08-16T08:23:43.000Z</time>
      </trkpt>
      <trkpt lat="43.65582" lon="3.77164">
        <ele>94</ele>
        <time>2020-08-16T08:23:44.000Z</time>
      </trkpt>
      <trkpt lat="43.65582" lon="3.77169">
        <ele>94</ele>
        <time>2020-08-16T08:23:45.000Z</time>
      </trkpt>
      <trkpt lat="43.65582" lon="3.77174">
        <ele>94</ele>
        <time>2020-08-16T08:23:46.000Z</time>
      </trkpt>
      <trkpt lat="43.65581" lon="3.7718">
        <ele>94</ele>
        <time>2020-08-16T08:23:47.000Z</time>
      </trkpt>
      <trkpt lat="43.65581" lon="3.77185">
        <ele>94</ele>
        <time>2020-08-16T08:23:48.000Z</time>
      </trkpt>
      <trkpt lat="43.6558" lon="3.77191">
        <ele>94</ele>
        <time>2020-08-16T08:23:49.000Z</time>
      </trkpt>
      <trkpt lat="43.6558" lon="3.77196">
        <ele>94</ele>
        <time>2020-08-16T08:23:50.000Z</time>
      </trkpt>
      <trkpt lat="43.6558" lon="3.77202">
        <ele>94</ele>
        <time>2020-08-16T08:23:51.000Z</time>
      </trkpt>
      <trkpt lat="43.65579" lon="3.77208">
        <ele>93.947419062148</ele>
        <time>2020-08-16T08:23:52.000Z</time>
      </trkpt>
      <trkpt lat="43.65579" lon="3.77214">
        <ele>93.752677155933</ele>
        <time>2020-08-16T08:23:53.000Z</time>
      </trkpt>
      <trkpt lat="43.65579" lon="3.7722">
        <ele>93.557935249718</ele>
        <time>2020-08-16T08:23:54.000Z</time>
      </trkpt>
      <trkpt lat="43.65579" lon="3.77225">
        <ele>93.363193343503</ele>
        <time>2020-08-16T08:23:55.000Z</time>
      </trkpt>
      <trkpt lat="43.6558" lon="3.77231">
        <ele>93.168451437289</ele>
        <time>2020-08-16T08:23:56.000Z</time>
      </trkpt>
      <trkpt lat="43.6558" lon="3.77236">
        <ele>92.973709531074</ele>
        <time>2020-08-16T08:23:57.000Z</time>
      </trkpt>
      <trkpt lat="43.65581" lon="3.77241">
        <ele>92.778967624859</ele>
        <time>2020-08-16T08:23:58.000Z</time>
      </trkpt>
      <trkpt lat="43.65581" lon="3.77246">
        <ele>92.584225718644</ele>
        <time>2020-08-16T08:23:59.000Z</time>
      </trkpt>
      <trkpt lat="43.65582" lon="3.77252">
        <ele>92.38948381243</ele>
        <time>2020-08-16T08:24:00.000Z</time>
      </trkpt>
      <trkpt lat="43.65584" lon="3.77257">
        <ele>92.194741906215</ele>
        <time>2020-08-16T08:24:01.000Z</time>
      </trkpt>
      <trkpt lat="43.65584" lon="3.77263">
        <ele>92</ele>
        <time>2020-08-16T08:24:02.000Z</time>
      </trkpt>
      <trkpt lat="43.65584" lon="3.7727">
        <ele>91.897330662945</ele>
        <time>2020-08-16T08:24:03.000Z</time>
      </trkpt>
      <trkpt lat="43.65584" lon="3.77276">
        <ele>91.79466132589</ele>
        <time>2020-08-16T08:24:04.000Z</time>
      </trkpt>
      <trkpt lat="43.65583" lon="3.77281">
        <ele>91.691991988835</ele>
        <time>2020-08-16T08:24:05.000Z</time>
      </trkpt>
      <trkpt lat="43.65583" lon="3.77287">
        <ele>91.58932265178</ele>
        <time>2020-08-16T08:24:06.000Z</time>
      </trkpt>
      <trkpt lat="43.65582" lon="3.77292">
        <ele>91.486653314725</ele>
        <time>2020-08-16T08:24:07.000Z</time>
      </trkpt>
      <trkpt lat="43.65582" lon="3.77298">
        <ele>91.38398397767</ele>
        <time>2020-08-16T08:24:08.000Z</time>
      </trkpt>
      <trkpt lat="43.65582" lon="3.77303">
        <ele>91.281314640615</ele>
        <time>2020-08-16T08:24:09.000Z</time>
      </trkpt>
      <trkpt lat="43.65583" lon="3.77308">
        <ele>91.17864530356</ele>
        <time>2020-08-16T08:24:10.000Z</time>
      </trkpt>
      <trkpt lat="43.65584" lon="3.77312">
        <ele>91.075975966505</ele>
        <time>2020-08-16T08:24:11.000Z</time>
      </trkpt>
      <trkpt lat="43.65585" lon="3.77317">
        <ele>90.94794917921</ele>
        <time>2020-08-16T08:24:12.000Z</time>
      </trkpt>
      <trkpt lat="43.65586" lon="3.77321">
        <ele>90.747748786625</ele>
        <time>2020-08-16T08:24:13.000Z</time>
      </trkpt>
      <trkpt lat="43.65586" lon="3.77326">
        <ele>90.547548394041</ele>
        <time>2020-08-16T08:24:14.000Z</time>
      </trkpt>
      <trkpt lat="43.65586" lon="3.77331">
        <ele>90.347348001456</ele>
        <time>2020-08-16T08:24:15.000Z</time>
      </trkpt>
      <trkpt lat="43.65585" lon="3.77337">
        <ele>90.147147608871</ele>
        <time>2020-08-16T08:24:16.000Z</time>
      </trkpt>
      <trkpt lat="43.65585" lon="3.77342">
        <ele>89.946947216286</ele>
        <time>2020-08-16T08:24:17.000Z</time>
      </trkpt>
      <trkpt lat="43.65583" lon="3.77348">
        <ele>89.746746823701</ele>
        <time>2020-08-16T08:24:18.000Z</time>
      </trkpt>
      <trkpt lat="43.65582" lon="3.77353">
        <ele>89.546546431116</ele>
        <time>2020-08-16T08:24:19.000Z</time>
      </trkpt>
      <trkpt lat="43.6558" lon="3.77359">
        <ele>89.346346038531</ele>
        <time>2020-08-16T08:24:20.000Z</time>
      </trkpt>
      <trkpt lat="43.65578" lon="3.77364">
        <ele>89.146145645946</ele>
        <time>2020-08-16T08:24:21.000Z</time>
      </trkpt>
      <trkpt lat="43.65576" lon="3.7737">
        <ele>88.97297266131</ele>
        <time>2020-08-16T08:24:22.000Z</time>
      </trkpt>
      <trkpt lat="43.65574" lon="3.77375">
        <ele>88.872872593274</ele>
        <time>2020-08-16T08:24:23.000Z</time>
      </trkpt>
      <trkpt lat="43.65571" lon="3.7738">
        <ele>88.772772525238</ele>
        <time>2020-08-16T08:24:24.000Z</time>
      </trkpt>
      <trkpt lat="43.65569" lon="3.77385">
        <ele>88.672672457202</ele>
        <time>2020-08-16T08:24:25.000Z</time>
      </trkpt>
      <trkpt lat="43.65566" lon="3.7739">
        <ele>88.572572389166</ele>
        <time>2020-08-16T08:24:26.000Z</time>
      </trkpt>
      <trkpt lat="43.65563" lon="3.77395">
        <ele>88.47247232113</ele>
        <time>2020-08-16T08:24:27.000Z</time>
      </trkpt>
      <trkpt lat="43.6556" lon="3.77401">
        <ele>88.372372253094</ele>
        <time>2020-08-16T08:24:28.000Z</time>
      </trkpt>
      <trkpt lat="43.65556" lon="3.77406">
        <ele>88.272272185058</ele>
        <time>2020-08-16T08:24:29.000Z</time>
      </trkpt>
      <trkpt lat="43.65553" lon="3.77411">
        <ele>88.172172117022</ele>
        <time>2020-08-16T08:24:30.000Z</time>
      </trkpt>
      <trkpt lat="43.6555" lon="3.77416">
        <ele>88.072072048986</ele>
        <time>2020-08-16T08:24:31.000Z</time>
      </trkpt>
      <trkpt lat="43.65547" lon="3.77421">
        <ele>87.972789107184</ele>
        <time>2020-08-16T08:24:32.000Z</time>
      </trkpt>
      <trkpt lat="43.65543" lon="3.77426">
        <ele>87.875607347128</ele>
        <time>2020-08-16T08:24:33.000Z</time>
      </trkpt>
      <trkpt lat="43.6554" lon="3.77431">
        <ele>87.778425587071</ele>
        <time>2020-08-16T08:24:34.000Z</time>
      </trkpt>
      <trkpt lat="43.65537" lon="3.77437">
        <ele>87.681243827015</ele>
        <time>2020-08-16T08:24:35.000Z</time>
      </trkpt>
      <trkpt lat="43.65534" lon="3.77442">
        <ele>87.584062066958</ele>
        <time>2020-08-16T08:24:36.000Z</time>
      </trkpt>
      <trkpt lat="43.65531" lon="3.77448">
        <ele>87.486880306902</ele>
        <time>2020-08-16T08:24:37.000Z</time>
      </trkpt>
      <trkpt lat="43.65529" lon="3.77455">
        <ele>87.389698546845</ele>
        <time>2020-08-16T08:24:38.000Z</time>
      </trkpt>
      <trkpt lat="43.65526" lon="3.77462">
        <ele>87.292516786788</ele>
        <time>2020-08-16T08:24:39.000Z</time>
      </trkpt>
      <trkpt lat="43.65524" lon="3.77469">
        <ele>87.195335026732</ele>
        <time>2020-08-16T08:24:40.000Z</time>
      </trkpt>
      <trkpt lat="43.65522" lon="3.77475">
        <ele>87.098153266675</ele>
        <time>2020-08-16T08:24:41.000Z</time>
      </trkpt>
      <trkpt lat="43.6552" lon="3.77481">
        <ele>87.000971506619</ele>
        <time>2020-08-16T08:24:42.000Z</time>
      </trkpt>
      <trkpt lat="43.65518" lon="3.77487">
        <ele>86.89814781893</ele>
        <time>2020-08-16T08:24:43.000Z</time>
      </trkpt>
      <trkpt lat="43.65517" lon="3.77492">
        <ele>86.795267160494</ele>
        <time>2020-08-16T08:24:44.000Z</time>
      </trkpt>
      <trkpt lat="43.65515" lon="3.77497">
        <ele>86.692386502058</ele>
        <time>2020-08-16T08:24:45.000Z</time>
      </trkpt>
      <trkpt lat="43.65514" lon="3.77502">
        <ele>86.589505843621</ele>
        <time>2020-08-16T08:24:46.000Z</time>
      </trkpt>
      <trkpt lat="43.65513" lon="3.77506">
        <ele>86.486625185185</ele>
        <time>2020-08-16T08:24:47.000Z</time>
      </trkpt>
      <trkpt lat="43.65511" lon="3.7751">
        <ele>86.383744526749</ele>
        <time>2020-08-16T08:24:48.000Z</time>
      </trkpt>
      <trkpt lat="43.6551" lon="3.77513">
        <ele>86.280863868313</ele>
        <time>2020-08-16T08:24:49.000Z</time>
      </trkpt>
      <trkpt lat="43.6551" lon="3.77515">
        <ele>86.177983209877</ele>
        <time>2020-08-16T08:24:50.000Z</time>
      </trkpt>
      <trkpt lat="43.65509" lon="3.77517">
        <ele>86.07510255144</ele>
        <time>2020-08-16T08:24:51.000Z</time>
      </trkpt>
      <trkpt lat="43.65508" lon="3.7752">
        <ele>85.97299968</ele>
        <time>2020-08-16T08:24:52.000Z</time>
      </trkpt>
      <trkpt lat="43.65508" lon="3.77523">
        <ele>85.87299968</ele>
        <time>2020-08-16T08:24:53.000Z</time>
      </trkpt>
      <trkpt lat="43.65509" lon="3.77527">
        <ele>85.77299968</ele>
        <time>2020-08-16T08:24:54.000Z</time>
      </trkpt>
      <trkpt lat="43.65509" lon="3.7753">
        <ele>85.67299968</ele>
        <time>2020-08-16T08:24:55.000Z</time>
      </trkpt>
      <trkpt lat="43.65509" lon="3.77535">
        <ele>85.57299968</ele>
        <time>2020-08-16T08:24:56.000Z</time>
      </trkpt>
      <trkpt lat="43.65508" lon="3.77539">
        <ele>85.47299968</ele>
        <time>2020-08-16T08:24:57.000Z</time>
      </trkpt>
      <trkpt lat="43.65506" lon="3.77543">
        <ele>85.37299968</ele>
        <time>2020-08-16T08:24:58.000Z</time>
      </trkpt>
      <trkpt lat="43.65505" lon="3.77547">
        <ele>85.27299968</ele>
        <time>2020-08-16T08:24:59.000Z</time>
      </trkpt>
      <trkpt lat="43.65504" lon="3.77551">
        <ele>85.17299968</ele>
        <time>2020-08-16T08:25:00.000Z</time>
      </trkpt>
      <trkpt lat="43.65503" lon="3.77555">
        <ele>85.07299968</ele>
        <time>2020-08-16T08:25:01.000Z</time>
      </trkpt>
      <trkpt lat="43.65502" lon="3.77559">
        <ele>84.97299968</ele>
        <time>2020-08-16T08:25:02.000Z</time>
      </trkpt>
      <trkpt lat="43.65501" lon="3.77563">
        <ele>84.87299968</ele>
        <time>2020-08-16T08:25:03.000Z</time>
      </trkpt>
      <trkpt lat="43.655" lon="3.77568">
        <ele>84.77299968</ele>
        <time>2020-08-16T08:25:04.000Z</time>
      </trkpt>
      <trkpt lat="43.655" lon="3.77573">
        <ele>84.67299968</ele>
        <time>2020-08-16T08:25:05.000Z</time>
      </trkpt>
      <trkpt lat="43.655" lon="3.77578">
        <ele>84.57299968</ele>
        <time>2020-08-16T08:25:06.000Z</time>
      </trkpt>
      <trkpt lat="43.655" lon="3.77583">
        <ele>84.47299968</ele>
        <time>2020-08-16T08:25:07.000Z</time>
      </trkpt>
      <trkpt lat="43.65499" lon="3.77588">
        <ele>84.37299968</ele>
        <time>2020-08-16T08:25:08.000Z</time>
      </trkpt>
      <trkpt lat="43.65499" lon="3.77592">
        <ele>84.27299968</ele>
        <time>2020-08-16T08:25:09.000Z</time>
      </trkpt>
      <trkpt lat="43.65498" lon="3.77596">
        <ele>84.17299968</ele>
        <time>2020-08-16T08:25:10.000Z</time>
      </trkpt>
      <trkpt lat="43.65498" lon="3.776">
        <ele>84.07299968</ele>
        <time>2020-08-16T08:25:11.000Z</time>
      </trkpt>
      <trkpt lat="43.65498" lon="3.77605">
        <ele>83.97299968</ele>
        <time>2020-08-16T08:25:12.000Z</time>
      </trkpt>
      <trkpt lat="43.65497" lon="3.7761">
        <ele>83.87299968</ele>
        <time>2020-08-16T08:25:13.000Z</time>
      </trkpt>
      <trkpt lat="43.65497" lon="3.77615">
        <ele>83.77299968</ele>
        <time>2020-08-16T08:25:14.000Z</time>
      </trkpt>
      <trkpt lat="43.65496" lon="3.7762">
        <ele>83.67299968</ele>
        <time>2020-08-16T08:25:15.000Z</time>
      </trkpt>
      <trkpt lat="43.65495" lon="3.77625">
        <ele>83.57299968</ele>
        <time>2020-08-16T08:25:16.000Z</time>
      </trkpt>
      <trkpt lat="43.65495" lon="3.77629">
        <ele>83.47299968</ele>
        <time>2020-08-16T08:25:17.000Z</time>
      </trkpt>
      <trkpt lat="43.65494" lon="3.77634">
        <ele>83.37299968</ele>
        <time>2020-08-16T08:25:18.000Z</time>
      </trkpt>
      <trkpt lat="43.65493" lon="3.77638">
        <ele>83.27299968</ele>
        <time>2020-08-16T08:25:19.000Z</time>
      </trkpt>
      <trkpt lat="43.65493" lon="3.77642">
        <ele>83.17299968</ele>
        <time>2020-08-16T08:25:20.000Z</time>
      </trkpt>
      <trkpt lat="43.65493" lon="3.77645">
        <ele>83.07299968</ele>
        <time>2020-08-16T08:25:21.000Z</time>
      </trkpt>
      <trkpt lat="43.65494" lon="3.77649">
        <ele>82.94599936</ele>
        <time>2020-08-16T08:25:22.000Z</time>
      </trkpt>
      <trkpt lat="43.65495" lon="3.77653">
        <ele>82.74599936</ele>
        <time>2020-08-16T08:25:23.000Z</time>
      </trkpt>
      <trkpt lat="43.65496" lon="3.77658">
        <ele>82.54599936</ele>
        <time>2020-08-16T08:25:24.000Z</time>
      </trkpt>
      <trkpt lat="43.65496" lon="3.77664">
        <ele>82.34599936</ele>
        <time>2020-08-16T08:25:25.000Z</time>
      </trkpt>
      <trkpt lat="43.65496" lon="3.77669">
        <ele>82.14599936</ele>
        <time>2020-08-16T08:25:26.000Z</time>
      </trkpt>
      <trkpt lat="43.65496" lon="3.77674">
        <ele>81.94599936</ele>
        <time>2020-08-16T08:25:27.000Z</time>
      </trkpt>
      <trkpt lat="43.65495" lon="3.77679">
        <ele>81.74599936</ele>
        <time>2020-08-16T08:25:28.000Z</time>
      </trkpt>
      <trkpt lat="43.65495" lon="3.77684">
        <ele>81.54599936</ele>
        <time>2020-08-16T08:25:29.000Z</time>
      </trkpt>
      <trkpt lat="43.65495" lon="3.77689">
        <ele>81.34599936</ele>
        <time>2020-08-16T08:25:30.000Z</time>
      </trkpt>
      <trkpt lat="43.65495" lon="3.77693">
        <ele>81.14599936</ele>
        <time>2020-08-16T08:25:31.000Z</time>
      </trkpt>
      <trkpt lat="43.65495" lon="3.77696">
        <ele>80.97299968</ele>
        <time>2020-08-16T08:25:32.000Z</time>
      </trkpt>
      <trkpt lat="43.65498" lon="3.777">
        <ele>80.77299968</ele>
        <time>2020-08-16T08:25:34.000Z</time>
      </trkpt>
      <trkpt lat="43.655" lon="3.77702">
        <ele>80.67299968</ele>
        <time>2020-08-16T08:25:35.000Z</time>
      </trkpt>
      <trkpt lat="43.65502" lon="3.77705">
        <ele>80.57299968</ele>
        <time>2020-08-16T08:25:36.000Z</time>
      </trkpt>
      <trkpt lat="43.65504" lon="3.77708">
        <ele>80.47299968</ele>
        <time>2020-08-16T08:25:37.000Z</time>
      </trkpt>
      <trkpt lat="43.65505" lon="3.77711">
        <ele>80.37299968</ele>
        <time>2020-08-16T08:25:38.000Z</time>
      </trkpt>
      <trkpt lat="43.65506" lon="3.77715">
        <ele>80.27299968</ele>
        <time>2020-08-16T08:25:39.000Z</time>
      </trkpt>
      <trkpt lat="43.65506" lon="3.77719">
        <ele>80.17299968</ele>
        <time>2020-08-16T08:25:40.000Z</time>
      </trkpt>
      <trkpt lat="43.65507" lon="3.77723">
        <ele>80.07299968</ele>
        <time>2020-08-16T08:25:41.000Z</time>
      </trkpt>
      <trkpt lat="43.65507" lon="3.77727">
        <ele>79.97299968</ele>
        <time>2020-08-16T08:25:42.000Z</time>
      </trkpt>
      <trkpt lat="43.65507" lon="3.77731">
        <ele>79.87299968</ele>
        <time>2020-08-16T08:25:43.000Z</time>
      </trkpt>
      <trkpt lat="43.65506" lon="3.77734">
        <ele>79.77299968</ele>
        <time>2020-08-16T08:25:44.000Z</time>
      </trkpt>
      <trkpt lat="43.65506" lon="3.77738">
        <ele>79.67299968</ele>
        <time>2020-08-16T08:25:45.000Z</time>
      </trkpt>
      <trkpt lat="43.65506" lon="3.77741">
        <ele>79.57299968</ele>
        <time>2020-08-16T08:25:46.000Z</time>
      </trkpt>
      <trkpt lat="43.65506" lon="3.77744">
        <ele>79.47299968</ele>
        <time>2020-08-16T08:25:47.000Z</time>
      </trkpt>
      <trkpt lat="43.65507" lon="3.77747">
        <ele>79.37299968</ele>
        <time>2020-08-16T08:25:48.000Z</time>
      </trkpt>
      <trkpt lat="43.65508" lon="3.7775">
        <ele>79.27299968</ele>
        <time>2020-08-16T08:25:49.000Z</time>
      </trkpt>
      <trkpt lat="43.65509" lon="3.77753">
        <ele>79.17299968</ele>
        <time>2020-08-16T08:25:50.000Z</time>
      </trkpt>
      <trkpt lat="43.6551" lon="3.77755">
        <ele>79.07299968</ele>
        <time>2020-08-16T08:25:51.000Z</time>
      </trkpt>
      <trkpt lat="43.6551" lon="3.77758">
        <ele>78.97299968</ele>
        <time>2020-08-16T08:25:52.000Z</time>
      </trkpt>
      <trkpt lat="43.65511" lon="3.7776">
        <ele>78.87299968</ele>
        <time>2020-08-16T08:25:53.000Z</time>
      </trkpt>
      <trkpt lat="43.65512" lon="3.77763">
        <ele>78.77299968</ele>
        <time>2020-08-16T08:25:54.000Z</time>
      </trkpt>
      <trkpt lat="43.65513" lon="3.77766">
        <ele>78.67299968</ele>
        <time>2020-08-16T08:25:55.000Z</time>
      </trkpt>
      <trkpt lat="43.65513" lon="3.77769">
        <ele>78.57299968</ele>
        <time>2020-08-16T08:25:56.000Z</time>
      </trkpt>
      <trkpt lat="43.65513" lon="3.77773">
        <ele>78.47299968</ele>
        <time>2020-08-16T08:25:57.000Z</time>
      </trkpt>
      <trkpt lat="43.65513" lon="3.77776">
        <ele>78.37299968</ele>
        <time>2020-08-16T08:25:58.000Z</time>
      </trkpt>
      <trkpt lat="43.65513" lon="3.77779">
        <ele>78.27299968</ele>
        <time>2020-08-16T08:25:59.000Z</time>
      </trkpt>
      <trkpt lat="43.65513" lon="3.77783">
        <ele>78.17299968</ele>
        <time>2020-08-16T08:26:00.000Z</time>
      </trkpt>
      <trkpt lat="43.65513" lon="3.77786">
        <ele>78.07299968</ele>
        <time>2020-08-16T08:26:01.000Z</time>
      </trkpt>
      <trkpt lat="43.65513" lon="3.77789">
        <ele>78</ele>
        <time>2020-08-16T08:26:02.000Z</time>
      </trkpt>
      <trkpt lat="43.65513" lon="3.77793">
        <ele>78</ele>
        <time>2020-08-16T08:26:03.000Z</time>
      </trkpt>
      <trkpt lat="43.65512" lon="3.77796">
        <ele>78</ele>
        <time>2020-08-16T08:26:04.000Z</time>
      </trkpt>
      <trkpt lat="43.65512" lon="3.77799">
        <ele>78</ele>
        <time>2020-08-16T08:26:05.000Z</time>
      </trkpt>
      <trkpt lat="43.65513" lon="3.77802">
        <ele>78</ele>
        <time>2020-08-16T08:26:06.000Z</time>
      </trkpt>
      <trkpt lat="43.65513" lon="3.77806">
        <ele>78</ele>
        <time>2020-08-16T08:26:07.000Z</time>
      </trkpt>
      <trkpt lat="43.65513" lon="3.77809">
        <ele>78</ele>
        <time>2020-08-16T08:26:08.000Z</time>
      </trkpt>
      <trkpt lat="43.65513" lon="3.77813">
        <ele>78</ele>
        <time>2020-08-16T08:26:09.000Z</time>
      </trkpt>
      <trkpt lat="43.65513" lon="3.77817">
        <ele>78</ele>
        <time>2020-08-16T08:26:10.000Z</time>
      </trkpt>
      <trkpt lat="43.65513" lon="3.7782">
        <ele>78</ele>
        <time>2020-08-16T08:26:11.000Z</time>
      </trkpt>
      <trkpt lat="43.65512" lon="3.77824">
        <ele>78</ele>
        <time>2020-08-16T08:26:12.000Z</time>
      </trkpt>
      <trkpt lat="43.65512" lon="3.77827">
        <ele>78</ele>
        <time>2020-08-16T08:26:13.000Z</time>
      </trkpt>
      <trkpt lat="43.6551" lon="3.77831">
        <ele>78</ele>
        <time>2020-08-16T08:26:14.000Z</time>
      </trkpt>
      <trkpt lat="43.65509" lon="3.77834">
        <ele>78</ele>
        <time>2020-08-16T08:26:15.000Z</time>
      </trkpt>
      <trkpt lat="43.65508" lon="3.77838">
        <ele>78</ele>
        <time>2020-08-16T08:26:16.000Z</time>
      </trkpt>
      <trkpt lat="43.65507" lon="3.77843">
        <ele>78</ele>
        <time>2020-08-16T08:26:17.000Z</time>
      </trkpt>
      <trkpt lat="43.65505" lon="3.77847">
        <ele>78</ele>
        <time>2020-08-16T08:26:18.000Z</time>
      </trkpt>
      <trkpt lat="43.65504" lon="3.77851">
        <ele>78</ele>
        <time>2020-08-16T08:26:19.000Z</time>
      </trkpt>
      <trkpt lat="43.65503" lon="3.77856">
        <ele>78</ele>
        <time>2020-08-16T08:26:20.000Z</time>
      </trkpt>
      <trkpt lat="43.65501" lon="3.77861">
        <ele>78</ele>
        <time>2020-08-16T08:26:21.000Z</time>
      </trkpt>
      <trkpt lat="43.655" lon="3.77866">
        <ele>77.995905832845</ele>
        <time>2020-08-16T08:26:22.000Z</time>
      </trkpt>
      <trkpt lat="43.65499" lon="3.77872">
        <ele>77.893551653978</ele>
        <time>2020-08-16T08:26:23.000Z</time>
      </trkpt>
      <trkpt lat="43.65498" lon="3.77877">
        <ele>77.791197475111</ele>
        <time>2020-08-16T08:26:24.000Z</time>
      </trkpt>
      <trkpt lat="43.65497" lon="3.77882">
        <ele>77.688843296243</ele>
        <time>2020-08-16T08:26:25.000Z</time>
      </trkpt>
      <trkpt lat="43.65496" lon="3.77888">
        <ele>77.586489117376</ele>
        <time>2020-08-16T08:26:26.000Z</time>
      </trkpt>
      <trkpt lat="43.65496" lon="3.77893">
        <ele>77.484134938509</ele>
        <time>2020-08-16T08:26:27.000Z</time>
      </trkpt>
      <trkpt lat="43.65494" lon="3.77899">
        <ele>77.381780759642</ele>
        <time>2020-08-16T08:26:28.000Z</time>
      </trkpt>
      <trkpt lat="43.65492" lon="3.77904">
        <ele>77.279426580774</ele>
        <time>2020-08-16T08:26:29.000Z</time>
      </trkpt>
      <trkpt lat="43.65491" lon="3.77909">
        <ele>77.177072401907</ele>
        <time>2020-08-16T08:26:30.000Z</time>
      </trkpt>
      <trkpt lat="43.65489" lon="3.77915">
        <ele>77.07471822304</ele>
        <time>2020-08-16T08:26:31.000Z</time>
      </trkpt>
      <trkpt lat="43.65488" lon="3.7792">
        <ele>76.94599936</ele>
        <time>2020-08-16T08:26:32.000Z</time>
      </trkpt>
      <trkpt lat="43.65487" lon="3.77926">
        <ele>76.74599936</ele>
        <time>2020-08-16T08:26:33.000Z</time>
      </trkpt>
      <trkpt lat="43.65486" lon="3.77932">
        <ele>76.54599936</ele>
        <time>2020-08-16T08:26:34.000Z</time>
      </trkpt>
      <trkpt lat="43.65486" lon="3.77938">
        <ele>76.34599936</ele>
        <time>2020-08-16T08:26:35.000Z</time>
      </trkpt>
      <trkpt lat="43.65486" lon="3.77944">
        <ele>76.14599936</ele>
        <time>2020-08-16T08:26:36.000Z</time>
      </trkpt>
      <trkpt lat="43.65487" lon="3.7795">
        <ele>75.94599936</ele>
        <time>2020-08-16T08:26:37.000Z</time>
      </trkpt>
      <trkpt lat="43.65488" lon="3.77956">
        <ele>75.74599936</ele>
        <time>2020-08-16T08:26:38.000Z</time>
      </trkpt>
      <trkpt lat="43.6549" lon="3.77962">
        <ele>75.54599936</ele>
        <time>2020-08-16T08:26:39.000Z</time>
      </trkpt>
      <trkpt lat="43.65492" lon="3.77966">
        <ele>75.34599936</ele>
        <time>2020-08-16T08:26:40.000Z</time>
      </trkpt>
      <trkpt lat="43.65494" lon="3.7797">
        <ele>75.14599936</ele>
        <time>2020-08-16T08:26:41.000Z</time>
      </trkpt>
      <trkpt lat="43.65496" lon="3.77972">
        <ele>75</ele>
        <time>2020-08-16T08:26:42.000Z</time>
      </trkpt>
      <trkpt lat="43.65497" lon="3.77975">
        <ele>75</ele>
        <time>2020-08-16T08:26:43.000Z</time>
      </trkpt>
      <trkpt lat="43.655" lon="3.77977">
        <ele>75</ele>
        <time>2020-08-16T08:26:45.000Z</time>
      </trkpt>
      <trkpt lat="43.65503" lon="3.77977">
        <ele>75</ele>
        <time>2020-08-16T08:26:46.000Z</time>
      </trkpt>
      <trkpt lat="43.65505" lon="3.77978">
        <ele>75</ele>
        <time>2020-08-16T08:26:47.000Z</time>
      </trkpt>
      <trkpt lat="43.65508" lon="3.77978">
        <ele>75</ele>
        <time>2020-08-16T08:26:48.000Z</time>
      </trkpt>
      <trkpt lat="43.6551" lon="3.77979">
        <ele>75</ele>
        <time>2020-08-16T08:26:49.000Z</time>
      </trkpt>
      <trkpt lat="43.65512" lon="3.7798">
        <ele>75</ele>
        <time>2020-08-16T08:26:50.000Z</time>
      </trkpt>
      <trkpt lat="43.65514" lon="3.77981">
        <ele>75</ele>
        <time>2020-08-16T08:26:51.000Z</time>
      </trkpt>
      <trkpt lat="43.65516" lon="3.77982">
        <ele>75</ele>
        <time>2020-08-16T08:26:52.000Z</time>
      </trkpt>
      <trkpt lat="43.65518" lon="3.77985">
        <ele>75</ele>
        <time>2020-08-16T08:26:53.000Z</time>
      </trkpt>
      <trkpt lat="43.65519" lon="3.77988">
        <ele>75</ele>
        <time>2020-08-16T08:26:54.000Z</time>
      </trkpt>
      <trkpt lat="43.6552" lon="3.77991">
        <ele>75</ele>
        <time>2020-08-16T08:26:55.000Z</time>
      </trkpt>
      <trkpt lat="43.65522" lon="3.77994">
        <ele>75</ele>
        <time>2020-08-16T08:26:56.000Z</time>
      </trkpt>
      <trkpt lat="43.65523" lon="3.77997">
        <ele>75</ele>
        <time>2020-08-16T08:26:57.000Z</time>
      </trkpt>
      <trkpt lat="43.65524" lon="3.78">
        <ele>75</ele>
        <time>2020-08-16T08:26:58.000Z</time>
      </trkpt>
      <trkpt lat="43.65524" lon="3.78002">
        <ele>75</ele>
        <time>2020-08-16T08:26:59.000Z</time>
      </trkpt>
      <trkpt lat="43.65525" lon="3.78005">
        <ele>75</ele>
        <time>2020-08-16T08:27:00.000Z</time>
      </trkpt>
      <trkpt lat="43.65525" lon="3.78007">
        <ele>75</ele>
        <time>2020-08-16T08:27:01.000Z</time>
      </trkpt>
      <trkpt lat="43.65526" lon="3.7801">
        <ele>75.02700032</ele>
        <time>2020-08-16T08:27:02.000Z</time>
      </trkpt>
      <trkpt lat="43.65527" lon="3.78013">
        <ele>75.12700032</ele>
        <time>2020-08-16T08:27:03.000Z</time>
      </trkpt>
      <trkpt lat="43.65528" lon="3.78016">
        <ele>75.22700032</ele>
        <time>2020-08-16T08:27:04.000Z</time>
      </trkpt>
      <trkpt lat="43.6553" lon="3.78019">
        <ele>75.32700032</ele>
        <time>2020-08-16T08:27:05.000Z</time>
      </trkpt>
      <trkpt lat="43.65531" lon="3.78023">
        <ele>75.42700032</ele>
        <time>2020-08-16T08:27:06.000Z</time>
      </trkpt>
      <trkpt lat="43.65533" lon="3.78027">
        <ele>75.52700032</ele>
        <time>2020-08-16T08:27:07.000Z</time>
      </trkpt>
      <trkpt lat="43.65533" lon="3.78031">
        <ele>75.62700032</ele>
        <time>2020-08-16T08:27:08.000Z</time>
      </trkpt>
      <trkpt lat="43.65534" lon="3.78035">
        <ele>75.72700032</ele>
        <time>2020-08-16T08:27:09.000Z</time>
      </trkpt>
      <trkpt lat="43.65535" lon="3.78039">
        <ele>75.82700032</ele>
        <time>2020-08-16T08:27:10.000Z</time>
      </trkpt>
      <trkpt lat="43.65536" lon="3.78043">
        <ele>75.92700032</ele>
        <time>2020-08-16T08:27:11.000Z</time>
      </trkpt>
      <trkpt lat="43.65536" lon="3.78047">
        <ele>76</ele>
        <time>2020-08-16T08:27:12.000Z</time>
      </trkpt>
      <trkpt lat="43.65537" lon="3.7805">
        <ele>76</ele>
        <time>2020-08-16T08:27:13.000Z</time>
      </trkpt>
      <trkpt lat="43.65537" lon="3.78054">
        <ele>76</ele>
        <time>2020-08-16T08:27:14.000Z</time>
      </trkpt>
      <trkpt lat="43.65538" lon="3.78058">
        <ele>76</ele>
        <time>2020-08-16T08:27:15.000Z</time>
      </trkpt>
      <trkpt lat="43.65538" lon="3.78062">
        <ele>76</ele>
        <time>2020-08-16T08:27:16.000Z</time>
      </trkpt>
      <trkpt lat="43.65538" lon="3.78066">
        <ele>76</ele>
        <time>2020-08-16T08:27:17.000Z</time>
      </trkpt>
      <trkpt lat="43.65538" lon="3.78069">
        <ele>76</ele>
        <time>2020-08-16T08:27:18.000Z</time>
      </trkpt>
      <trkpt lat="43.65538" lon="3.78073">
        <ele>76</ele>
        <time>2020-08-16T08:27:19.000Z</time>
      </trkpt>
      <trkpt lat="43.65538" lon="3.78076">
        <ele>76</ele>
        <time>2020-08-16T08:27:20.000Z</time>
      </trkpt>
      <trkpt lat="43.65537" lon="3.7808">
        <ele>76</ele>
        <time>2020-08-16T08:27:21.000Z</time>
      </trkpt>
      <trkpt lat="43.65537" lon="3.78083">
        <ele>76.02700032</ele>
        <time>2020-08-16T08:27:22.000Z</time>
      </trkpt>
      <trkpt lat="43.65537" lon="3.78086">
        <ele>76.12700032</ele>
        <time>2020-08-16T08:27:23.000Z</time>
      </trkpt>
      <trkpt lat="43.65537" lon="3.78089">
        <ele>76.22700032</ele>
        <time>2020-08-16T08:27:24.000Z</time>
      </trkpt>
      <trkpt lat="43.65537" lon="3.78092">
        <ele>76.32700032</ele>
        <time>2020-08-16T08:27:25.000Z</time>
      </trkpt>
      <trkpt lat="43.65536" lon="3.78095">
        <ele>76.42700032</ele>
        <time>2020-08-16T08:27:26.000Z</time>
      </trkpt>
      <trkpt lat="43.65536" lon="3.78098">
        <ele>76.52700032</ele>
        <time>2020-08-16T08:27:27.000Z</time>
      </trkpt>
      <trkpt lat="43.65536" lon="3.78101">
        <ele>76.62700032</ele>
        <time>2020-08-16T08:27:28.000Z</time>
      </trkpt>
      <trkpt lat="43.65537" lon="3.78104">
        <ele>76.72700032</ele>
        <time>2020-08-16T08:27:29.000Z</time>
      </trkpt>
      <trkpt lat="43.65537" lon="3.78107">
        <ele>76.82700032</ele>
        <time>2020-08-16T08:27:30.000Z</time>
      </trkpt>
      <trkpt lat="43.65537" lon="3.7811">
        <ele>76.92700032</ele>
        <time>2020-08-16T08:27:31.000Z</time>
      </trkpt>
      <trkpt lat="43.65538" lon="3.78113">
        <ele>77.026973320785</ele>
        <time>2020-08-16T08:27:32.000Z</time>
      </trkpt>
      <trkpt lat="43.65538" lon="3.78116">
        <ele>77.126873324877</ele>
        <time>2020-08-16T08:27:33.000Z</time>
      </trkpt>
      <trkpt lat="43.65538" lon="3.78119">
        <ele>77.226773328969</ele>
        <time>2020-08-16T08:27:34.000Z</time>
      </trkpt>
      <trkpt lat="43.65538" lon="3.78122">
        <ele>77.32667333306</ele>
        <time>2020-08-16T08:27:35.000Z</time>
      </trkpt>
      <trkpt lat="43.65539" lon="3.78125">
        <ele>77.426573337152</ele>
        <time>2020-08-16T08:27:36.000Z</time>
      </trkpt>
      <trkpt lat="43.65539" lon="3.78127">
        <ele>77.526473341244</ele>
        <time>2020-08-16T08:27:37.000Z</time>
      </trkpt>
      <trkpt lat="43.6554" lon="3.7813">
        <ele>77.626373345336</ele>
        <time>2020-08-16T08:27:38.000Z</time>
      </trkpt>
      <trkpt lat="43.6554" lon="3.78132">
        <ele>77.726273349428</ele>
        <time>2020-08-16T08:27:39.000Z</time>
      </trkpt>
      <trkpt lat="43.65541" lon="3.78135">
        <ele>77.82617335352</ele>
        <time>2020-08-16T08:27:40.000Z</time>
      </trkpt>
      <trkpt lat="43.65542" lon="3.78138">
        <ele>77.926073357612</ele>
        <time>2020-08-16T08:27:41.000Z</time>
      </trkpt>
      <trkpt lat="43.65543" lon="3.78141">
        <ele>78</ele>
        <time>2020-08-16T08:27:42.000Z</time>
      </trkpt>
      <trkpt lat="43.65545" lon="3.78145">
        <ele>78</ele>
        <time>2020-08-16T08:27:43.000Z</time>
      </trkpt>
      <trkpt lat="43.65547" lon="3.78149">
        <ele>78</ele>
        <time>2020-08-16T08:27:44.000Z</time>
      </trkpt>
      <trkpt lat="43.65549" lon="3.78153">
        <ele>78</ele>
        <time>2020-08-16T08:27:45.000Z</time>
      </trkpt>
      <trkpt lat="43.65552" lon="3.78157">
        <ele>78</ele>
        <time>2020-08-16T08:27:46.000Z</time>
      </trkpt>
      <trkpt lat="43.65554" lon="3.78161">
        <ele>78</ele>
        <time>2020-08-16T08:27:47.000Z</time>
      </trkpt>
      <trkpt lat="43.65557" lon="3.78166">
        <ele>78</ele>
        <time>2020-08-16T08:27:48.000Z</time>
      </trkpt>
      <trkpt lat="43.65559" lon="3.7817">
        <ele>78</ele>
        <time>2020-08-16T08:27:49.000Z</time>
      </trkpt>
      <trkpt lat="43.65561" lon="3.78175">
        <ele>78</ele>
        <time>2020-08-16T08:27:50.000Z</time>
      </trkpt>
      <trkpt lat="43.65563" lon="3.7818">
        <ele>78</ele>
        <time>2020-08-16T08:27:51.000Z</time>
      </trkpt>
      <trkpt lat="43.65564" lon="3.78184">
        <ele>78</ele>
        <time>2020-08-16T08:27:52.000Z</time>
      </trkpt>
      <trkpt lat="43.65566" lon="3.78189">
        <ele>78</ele>
        <time>2020-08-16T08:27:53.000Z</time>
      </trkpt>
      <trkpt lat="43.65566" lon="3.78194">
        <ele>78</ele>
        <time>2020-08-16T08:27:54.000Z</time>
      </trkpt>
      <trkpt lat="43.65567" lon="3.78198">
        <ele>78</ele>
        <time>2020-08-16T08:27:55.000Z</time>
      </trkpt>
      <trkpt lat="43.65568" lon="3.78203">
        <ele>78</ele>
        <time>2020-08-16T08:27:56.000Z</time>
      </trkpt>
      <trkpt lat="43.65568" lon="3.78208">
        <ele>78</ele>
        <time>2020-08-16T08:27:57.000Z</time>
      </trkpt>
      <trkpt lat="43.65568" lon="3.78213">
        <ele>78</ele>
        <time>2020-08-16T08:27:58.000Z</time>
      </trkpt>
      <trkpt lat="43.65569" lon="3.78217">
        <ele>78</ele>
        <time>2020-08-16T08:27:59.000Z</time>
      </trkpt>
      <trkpt lat="43.65569" lon="3.78222">
        <ele>78</ele>
        <time>2020-08-16T08:28:00.000Z</time>
      </trkpt>
      <trkpt lat="43.65569" lon="3.78226">
        <ele>78</ele>
        <time>2020-08-16T08:28:01.000Z</time>
      </trkpt>
      <trkpt lat="43.65569" lon="3.78232">
        <ele>77.97299968</ele>
        <time>2020-08-16T08:28:02.000Z</time>
      </trkpt>
      <trkpt lat="43.65569" lon="3.78237">
        <ele>77.87299968</ele>
        <time>2020-08-16T08:28:03.000Z</time>
      </trkpt>
      <trkpt lat="43.65569" lon="3.78242">
        <ele>77.77299968</ele>
        <time>2020-08-16T08:28:04.000Z</time>
      </trkpt>
      <trkpt lat="43.65569" lon="3.78248">
        <ele>77.67299968</ele>
        <time>2020-08-16T08:28:05.000Z</time>
      </trkpt>
      <trkpt lat="43.65569" lon="3.78254">
        <ele>77.57299968</ele>
        <time>2020-08-16T08:28:06.000Z</time>
      </trkpt>
      <trkpt lat="43.65569" lon="3.7826">
        <ele>77.47299968</ele>
        <time>2020-08-16T08:28:07.000Z</time>
      </trkpt>
      <trkpt lat="43.65568" lon="3.78266">
        <ele>77.37299968</ele>
        <time>2020-08-16T08:28:08.000Z</time>
      </trkpt>
      <trkpt lat="43.65567" lon="3.78272">
        <ele>77.27299968</ele>
        <time>2020-08-16T08:28:09.000Z</time>
      </trkpt>
      <trkpt lat="43.65565" lon="3.78278">
        <ele>77.17299968</ele>
        <time>2020-08-16T08:28:10.000Z</time>
      </trkpt>
      <trkpt lat="43.65563" lon="3.78284">
        <ele>77.07299968</ele>
        <time>2020-08-16T08:28:11.000Z</time>
      </trkpt>
      <trkpt lat="43.65561" lon="3.7829">
        <ele>77</ele>
        <time>2020-08-16T08:28:12.000Z</time>
      </trkpt>
      <trkpt lat="43.65559" lon="3.78296">
        <ele>77</ele>
        <time>2020-08-16T08:28:13.000Z</time>
      </trkpt>
      <trkpt lat="43.65556" lon="3.78301">
        <ele>77</ele>
        <time>2020-08-16T08:28:14.000Z</time>
      </trkpt>
      <trkpt lat="43.65553" lon="3.78306">
        <ele>77</ele>
        <time>2020-08-16T08:28:15.000Z</time>
      </trkpt>
      <trkpt lat="43.6555" lon="3.78311">
        <ele>77</ele>
        <time>2020-08-16T08:28:16.000Z</time>
      </trkpt>
      <trkpt lat="43.65547" lon="3.78317">
        <ele>77</ele>
        <time>2020-08-16T08:28:17.000Z</time>
      </trkpt>
      <trkpt lat="43.65545" lon="3.78322">
        <ele>77</ele>
        <time>2020-08-16T08:28:18.000Z</time>
      </trkpt>
      <trkpt lat="43.65542" lon="3.78326">
        <ele>77</ele>
        <time>2020-08-16T08:28:19.000Z</time>
      </trkpt>
      <trkpt lat="43.65539" lon="3.78331">
        <ele>77</ele>
        <time>2020-08-16T08:28:20.000Z</time>
      </trkpt>
      <trkpt lat="43.65536" lon="3.78335">
        <ele>77</ele>
        <time>2020-08-16T08:28:21.000Z</time>
      </trkpt>
      <trkpt lat="43.65534" lon="3.78339">
        <ele>76.97299968</ele>
        <time>2020-08-16T08:28:22.000Z</time>
      </trkpt>
      <trkpt lat="43.65533" lon="3.78344">
        <ele>76.87299968</ele>
        <time>2020-08-16T08:28:23.000Z</time>
      </trkpt>
      <trkpt lat="43.65532" lon="3.78347">
        <ele>76.77299968</ele>
        <time>2020-08-16T08:28:24.000Z</time>
      </trkpt>
      <trkpt lat="43.6553" lon="3.7835">
        <ele>76.67299968</ele>
        <time>2020-08-16T08:28:25.000Z</time>
      </trkpt>
      <trkpt lat="43.65528" lon="3.78351">
        <ele>76.57299968</ele>
        <time>2020-08-16T08:28:26.000Z</time>
      </trkpt>
      <trkpt lat="43.65526" lon="3.78353">
        <ele>76.47299968</ele>
        <time>2020-08-16T08:28:27.000Z</time>
      </trkpt>
      <trkpt lat="43.65523" lon="3.78354">
        <ele>76.37299968</ele>
        <time>2020-08-16T08:28:28.000Z</time>
      </trkpt>
      <trkpt lat="43.6552" lon="3.78356">
        <ele>76.27299968</ele>
        <time>2020-08-16T08:28:29.000Z</time>
      </trkpt>
      <trkpt lat="43.65516" lon="3.78358">
        <ele>76.17299968</ele>
        <time>2020-08-16T08:28:30.000Z</time>
      </trkpt>
      <trkpt lat="43.65513" lon="3.78361">
        <ele>76.07299968</ele>
        <time>2020-08-16T08:28:31.000Z</time>
      </trkpt>
      <trkpt lat="43.65509" lon="3.78364">
        <ele>75.97299968</ele>
        <time>2020-08-16T08:28:32.000Z</time>
      </trkpt>
      <trkpt lat="43.65505" lon="3.78368">
        <ele>75.87299968</ele>
        <time>2020-08-16T08:28:33.000Z</time>
      </trkpt>
      <trkpt lat="43.65502" lon="3.78373">
        <ele>75.77299968</ele>
        <time>2020-08-16T08:28:34.000Z</time>
      </trkpt>
      <trkpt lat="43.65499" lon="3.78377">
        <ele>75.67299968</ele>
        <time>2020-08-16T08:28:35.000Z</time>
      </trkpt>
      <trkpt lat="43.65496" lon="3.78382">
        <ele>75.57299968</ele>
        <time>2020-08-16T08:28:36.000Z</time>
      </trkpt>
      <trkpt lat="43.65492" lon="3.78387">
        <ele>75.47299968</ele>
        <time>2020-08-16T08:28:37.000Z</time>
      </trkpt>
      <trkpt lat="43.65489" lon="3.78393">
        <ele>75.37299968</ele>
        <time>2020-08-16T08:28:38.000Z</time>
      </trkpt>
      <trkpt lat="43.65485" lon="3.78398">
        <ele>75.27299968</ele>
        <time>2020-08-16T08:28:39.000Z</time>
      </trkpt>
      <trkpt lat="43.65482" lon="3.78404">
        <ele>75.17299968</ele>
        <time>2020-08-16T08:28:40.000Z</time>
      </trkpt>
      <trkpt lat="43.65478" lon="3.7841">
        <ele>75.07299968</ele>
        <time>2020-08-16T08:28:41.000Z</time>
      </trkpt>
      <trkpt lat="43.65474" lon="3.78417">
        <ele>74.947572226751</ele>
        <time>2020-08-16T08:28:42.000Z</time>
      </trkpt>
      <trkpt lat="43.6547" lon="3.78423">
        <ele>74.753397590122</ele>
        <time>2020-08-16T08:28:43.000Z</time>
      </trkpt>
      <trkpt lat="43.65465" lon="3.78429">
        <ele>74.559222953492</ele>
        <time>2020-08-16T08:28:44.000Z</time>
      </trkpt>
      <trkpt lat="43.65462" lon="3.78436">
        <ele>74.365048316863</ele>
        <time>2020-08-16T08:28:45.000Z</time>
      </trkpt>
      <trkpt lat="43.65458" lon="3.78443">
        <ele>74.170873680234</ele>
        <time>2020-08-16T08:28:46.000Z</time>
      </trkpt>
      <trkpt lat="43.65455" lon="3.7845">
        <ele>73.976699043604</ele>
        <time>2020-08-16T08:28:47.000Z</time>
      </trkpt>
      <trkpt lat="43.65452" lon="3.78456">
        <ele>73.782524406975</ele>
        <time>2020-08-16T08:28:48.000Z</time>
      </trkpt>
      <trkpt lat="43.65449" lon="3.78463">
        <ele>73.588349770346</ele>
        <time>2020-08-16T08:28:49.000Z</time>
      </trkpt>
      <trkpt lat="43.65446" lon="3.78471">
        <ele>73.394175133716</ele>
        <time>2020-08-16T08:28:50.000Z</time>
      </trkpt>
      <trkpt lat="43.65442" lon="3.78478">
        <ele>73.200000497087</ele>
        <time>2020-08-16T08:28:51.000Z</time>
      </trkpt>
      <trkpt lat="43.65439" lon="3.78485">
        <ele>73.005825860458</ele>
        <time>2020-08-16T08:28:52.000Z</time>
      </trkpt>
      <trkpt lat="43.65437" lon="3.78493">
        <ele>72.800000527835</ele>
        <time>2020-08-16T08:28:53.000Z</time>
      </trkpt>
      <trkpt lat="43.65434" lon="3.785">
        <ele>72.593814824785</ele>
        <time>2020-08-16T08:28:54.000Z</time>
      </trkpt>
      <trkpt lat="43.65432" lon="3.78508">
        <ele>72.387629121735</ele>
        <time>2020-08-16T08:28:55.000Z</time>
      </trkpt>
      <trkpt lat="43.65429" lon="3.78515">
        <ele>72.181443418684</ele>
        <time>2020-08-16T08:28:56.000Z</time>
      </trkpt>
      <trkpt lat="43.65428" lon="3.78522">
        <ele>71.975257715634</ele>
        <time>2020-08-16T08:28:57.000Z</time>
      </trkpt>
      <trkpt lat="43.65427" lon="3.7853">
        <ele>71.769072012584</ele>
        <time>2020-08-16T08:28:58.000Z</time>
      </trkpt>
      <trkpt lat="43.65427" lon="3.78538">
        <ele>71.562886309533</ele>
        <time>2020-08-16T08:28:59.000Z</time>
      </trkpt>
      <trkpt lat="43.65428" lon="3.78546">
        <ele>71.356700606483</ele>
        <time>2020-08-16T08:29:00.000Z</time>
      </trkpt>
      <trkpt lat="43.65429" lon="3.78553">
        <ele>71.150514903432</ele>
        <time>2020-08-16T08:29:01.000Z</time>
      </trkpt>
      <trkpt lat="43.6543" lon="3.78561">
        <ele>70.94599936</ele>
        <time>2020-08-16T08:29:02.000Z</time>
      </trkpt>
      <trkpt lat="43.65432" lon="3.78568">
        <ele>70.74599936</ele>
        <time>2020-08-16T08:29:03.000Z</time>
      </trkpt>
      <trkpt lat="43.65433" lon="3.78576">
        <ele>70.54599936</ele>
        <time>2020-08-16T08:29:04.000Z</time>
      </trkpt>
      <trkpt lat="43.65435" lon="3.78584">
        <ele>70.34599936</ele>
        <time>2020-08-16T08:29:05.000Z</time>
      </trkpt>
      <trkpt lat="43.65435" lon="3.78593">
        <ele>70.14599936</ele>
        <time>2020-08-16T08:29:06.000Z</time>
      </trkpt>
      <trkpt lat="43.65434" lon="3.78602">
        <ele>69.94599936</ele>
        <time>2020-08-16T08:29:07.000Z</time>
      </trkpt>
      <trkpt lat="43.65432" lon="3.78611">
        <ele>69.74599936</ele>
        <time>2020-08-16T08:29:08.000Z</time>
      </trkpt>
      <trkpt lat="43.65429" lon="3.78619">
        <ele>69.54599936</ele>
        <time>2020-08-16T08:29:09.000Z</time>
      </trkpt>
      <trkpt lat="43.65423" lon="3.78625">
        <ele>69.34599936</ele>
        <time>2020-08-16T08:29:10.000Z</time>
      </trkpt>
      <trkpt lat="43.65418" lon="3.78629">
        <ele>69.14599936</ele>
        <time>2020-08-16T08:29:11.000Z</time>
      </trkpt>
      <trkpt lat="43.65412" lon="3.78633">
        <ele>68.97299968</ele>
        <time>2020-08-16T08:29:12.000Z</time>
      </trkpt>
      <trkpt lat="43.65407" lon="3.78636">
        <ele>68.87299968</ele>
        <time>2020-08-16T08:29:13.000Z</time>
      </trkpt>
      <trkpt lat="43.65401" lon="3.78638">
        <ele>68.77299968</ele>
        <time>2020-08-16T08:29:14.000Z</time>
      </trkpt>
      <trkpt lat="43.65396" lon="3.78641">
        <ele>68.67299968</ele>
        <time>2020-08-16T08:29:15.000Z</time>
      </trkpt>
      <trkpt lat="43.65391" lon="3.78643">
        <ele>68.57299968</ele>
        <time>2020-08-16T08:29:16.000Z</time>
      </trkpt>
      <trkpt lat="43.65387" lon="3.78645">
        <ele>68.47299968</ele>
        <time>2020-08-16T08:29:17.000Z</time>
      </trkpt>
      <trkpt lat="43.65384" lon="3.78646">
        <ele>68.37299968</ele>
        <time>2020-08-16T08:29:18.000Z</time>
      </trkpt>
      <trkpt lat="43.6538" lon="3.78648">
        <ele>68.27299968</ele>
        <time>2020-08-16T08:29:19.000Z</time>
      </trkpt>
      <trkpt lat="43.65377" lon="3.7865">
        <ele>68.17299968</ele>
        <time>2020-08-16T08:29:20.000Z</time>
      </trkpt>
      <trkpt lat="43.65374" lon="3.78651">
        <ele>68.07299968</ele>
        <time>2020-08-16T08:29:21.000Z</time>
      </trkpt>
      <trkpt lat="43.65371" lon="3.78652">
        <ele>68.02700032</ele>
        <time>2020-08-16T08:29:22.000Z</time>
      </trkpt>
      <trkpt lat="43.65368" lon="3.78653">
        <ele>68.12700032</ele>
        <time>2020-08-16T08:29:23.000Z</time>
      </trkpt>
      <trkpt lat="43.65365" lon="3.78655">
        <ele>68.22700032</ele>
        <time>2020-08-16T08:29:24.000Z</time>
      </trkpt>
      <trkpt lat="43.65363" lon="3.78656">
        <ele>68.32700032</ele>
        <time>2020-08-16T08:29:25.000Z</time>
      </trkpt>
      <trkpt lat="43.6536" lon="3.78657">
        <ele>68.42700032</ele>
        <time>2020-08-16T08:29:26.000Z</time>
      </trkpt>
      <trkpt lat="43.65358" lon="3.78659">
        <ele>68.52700032</ele>
        <time>2020-08-16T08:29:27.000Z</time>
      </trkpt>
      <trkpt lat="43.65355" lon="3.7866">
        <ele>68.62700032</ele>
        <time>2020-08-16T08:29:28.000Z</time>
      </trkpt>
      <trkpt lat="43.65353" lon="3.78662">
        <ele>68.72700032</ele>
        <time>2020-08-16T08:29:29.000Z</time>
      </trkpt>
      <trkpt lat="43.65351" lon="3.78663">
        <ele>68.82700032</ele>
        <time>2020-08-16T08:29:30.000Z</time>
      </trkpt>
      <trkpt lat="43.65349" lon="3.78665">
        <ele>68.92700032</ele>
        <time>2020-08-16T08:29:31.000Z</time>
      </trkpt>
      <trkpt lat="43.65346" lon="3.78666">
        <ele>69</ele>
        <time>2020-08-16T08:29:32.000Z</time>
      </trkpt>
      <trkpt lat="43.65344" lon="3.78668">
        <ele>69</ele>
        <time>2020-08-16T08:29:33.000Z</time>
      </trkpt>
      <trkpt lat="43.65342" lon="3.7867">
        <ele>69</ele>
        <time>2020-08-16T08:29:34.000Z</time>
      </trkpt>
      <trkpt lat="43.6534" lon="3.78671">
        <ele>69</ele>
        <time>2020-08-16T08:29:35.000Z</time>
      </trkpt>
      <trkpt lat="43.65338" lon="3.78673">
        <ele>69</ele>
        <time>2020-08-16T08:29:36.000Z</time>
      </trkpt>
      <trkpt lat="43.65336" lon="3.78675">
        <ele>69</ele>
        <time>2020-08-16T08:29:37.000Z</time>
      </trkpt>
      <trkpt lat="43.65334" lon="3.78677">
        <ele>69</ele>
        <time>2020-08-16T08:29:38.000Z</time>
      </trkpt>
      <trkpt lat="43.65332" lon="3.78678">
        <ele>69</ele>
        <time>2020-08-16T08:29:39.000Z</time>
      </trkpt>
      <trkpt lat="43.6533" lon="3.7868">
        <ele>69</ele>
        <time>2020-08-16T08:29:40.000Z</time>
      </trkpt>
      <trkpt lat="43.65328" lon="3.78682">
        <ele>69</ele>
        <time>2020-08-16T08:29:41.000Z</time>
      </trkpt>
      <trkpt lat="43.65326" lon="3.78685">
        <ele>69</ele>
        <time>2020-08-16T08:29:42.000Z</time>
      </trkpt>
      <trkpt lat="43.65323" lon="3.78687">
        <ele>69</ele>
        <time>2020-08-16T08:29:43.000Z</time>
      </trkpt>
      <trkpt lat="43.65321" lon="3.78689">
        <ele>69</ele>
        <time>2020-08-16T08:29:44.000Z</time>
      </trkpt>
      <trkpt lat="43.65319" lon="3.78691">
        <ele>69</ele>
        <time>2020-08-16T08:29:45.000Z</time>
      </trkpt>
      <trkpt lat="43.65316" lon="3.78694">
        <ele>69</ele>
        <time>2020-08-16T08:29:46.000Z</time>
      </trkpt>
      <trkpt lat="43.65314" lon="3.78696">
        <ele>69</ele>
        <time>2020-08-16T08:29:47.000Z</time>
      </trkpt>
      <trkpt lat="43.65311" lon="3.78698">
        <ele>69</ele>
        <time>2020-08-16T08:29:48.000Z</time>
      </trkpt>
      <trkpt lat="43.65308" lon="3.787">
        <ele>69</ele>
        <time>2020-08-16T08:29:49.000Z</time>
      </trkpt>
      <trkpt lat="43.65306" lon="3.78701">
        <ele>69</ele>
        <time>2020-08-16T08:29:50.000Z</time>
      </trkpt>
      <trkpt lat="43.65303" lon="3.78703">
        <ele>69</ele>
        <time>2020-08-16T08:29:51.000Z</time>
      </trkpt>
      <trkpt lat="43.653" lon="3.78705">
        <ele>69</ele>
        <time>2020-08-16T08:29:52.000Z</time>
      </trkpt>
      <trkpt lat="43.65296" lon="3.78707">
        <ele>69</ele>
        <time>2020-08-16T08:29:53.000Z</time>
      </trkpt>
      <trkpt lat="43.65293" lon="3.78709">
        <ele>69</ele>
        <time>2020-08-16T08:29:54.000Z</time>
      </trkpt>
      <trkpt lat="43.6529" lon="3.7871">
        <ele>69</ele>
        <time>2020-08-16T08:29:55.000Z</time>
      </trkpt>
      <trkpt lat="43.65287" lon="3.78712">
        <ele>69</ele>
        <time>2020-08-16T08:29:56.000Z</time>
      </trkpt>
      <trkpt lat="43.65284" lon="3.78713">
        <ele>69</ele>
        <time>2020-08-16T08:29:57.000Z</time>
      </trkpt>
      <trkpt lat="43.65281" lon="3.78715">
        <ele>69</ele>
        <time>2020-08-16T08:29:58.000Z</time>
      </trkpt>
      <trkpt lat="43.65278" lon="3.78716">
        <ele>69</ele>
        <time>2020-08-16T08:29:59.000Z</time>
      </trkpt>
      <trkpt lat="43.65275" lon="3.78718">
        <ele>69</ele>
        <time>2020-08-16T08:30:00.000Z</time>
      </trkpt>
      <trkpt lat="43.65272" lon="3.78719">
        <ele>69</ele>
        <time>2020-08-16T08:30:01.000Z</time>
      </trkpt>
      <trkpt lat="43.65268" lon="3.78721">
        <ele>69</ele>
        <time>2020-08-16T08:30:02.000Z</time>
      </trkpt>
      <trkpt lat="43.65265" lon="3.78722">
        <ele>69</ele>
        <time>2020-08-16T08:30:03.000Z</time>
      </trkpt>
      <trkpt lat="43.65262" lon="3.78724">
        <ele>69</ele>
        <time>2020-08-16T08:30:04.000Z</time>
      </trkpt>
      <trkpt lat="43.65258" lon="3.78725">
        <ele>69</ele>
        <time>2020-08-16T08:30:05.000Z</time>
      </trkpt>
      <trkpt lat="43.65255" lon="3.78726">
        <ele>69</ele>
        <time>2020-08-16T08:30:06.000Z</time>
      </trkpt>
      <trkpt lat="43.65252" lon="3.78728">
        <ele>69</ele>
        <time>2020-08-16T08:30:07.000Z</time>
      </trkpt>
      <trkpt lat="43.65248" lon="3.78729">
        <ele>69</ele>
        <time>2020-08-16T08:30:08.000Z</time>
      </trkpt>
      <trkpt lat="43.65244" lon="3.78731">
        <ele>69</ele>
        <time>2020-08-16T08:30:09.000Z</time>
      </trkpt>
      <trkpt lat="43.65241" lon="3.78732">
        <ele>69</ele>
        <time>2020-08-16T08:30:10.000Z</time>
      </trkpt>
      <trkpt lat="43.65237" lon="3.78734">
        <ele>69</ele>
        <time>2020-08-16T08:30:11.000Z</time>
      </trkpt>
      <trkpt lat="43.65233" lon="3.78736">
        <ele>68.973786113376</ele>
        <time>2020-08-16T08:30:12.000Z</time>
      </trkpt>
      <trkpt lat="43.65229" lon="3.78738">
        <ele>68.876698795061</ele>
        <time>2020-08-16T08:30:13.000Z</time>
      </trkpt>
      <trkpt lat="43.65226" lon="3.7874">
        <ele>68.779611476746</ele>
        <time>2020-08-16T08:30:14.000Z</time>
      </trkpt>
      <trkpt lat="43.65223" lon="3.78743">
        <ele>68.682524158432</ele>
        <time>2020-08-16T08:30:15.000Z</time>
      </trkpt>
      <trkpt lat="43.65221" lon="3.78745">
        <ele>68.585436840117</ele>
        <time>2020-08-16T08:30:16.000Z</time>
      </trkpt>
      <trkpt lat="43.65218" lon="3.78748">
        <ele>68.488349521802</ele>
        <time>2020-08-16T08:30:17.000Z</time>
      </trkpt>
      <trkpt lat="43.65216" lon="3.78751">
        <ele>68.391262203488</ele>
        <time>2020-08-16T08:30:18.000Z</time>
      </trkpt>
      <trkpt lat="43.65214" lon="3.78755">
        <ele>68.294174885173</ele>
        <time>2020-08-16T08:30:19.000Z</time>
      </trkpt>
      <trkpt lat="43.65212" lon="3.78759">
        <ele>68.197087566858</ele>
        <time>2020-08-16T08:30:20.000Z</time>
      </trkpt>
      <trkpt lat="43.6521" lon="3.78763">
        <ele>68.100000248543</ele>
        <time>2020-08-16T08:30:21.000Z</time>
      </trkpt>
      <trkpt lat="43.65207" lon="3.78767">
        <ele>68.002912930229</ele>
        <time>2020-08-16T08:30:22.000Z</time>
      </trkpt>
      <trkpt lat="43.65204" lon="3.78771">
        <ele>68</ele>
        <time>2020-08-16T08:30:23.000Z</time>
      </trkpt>
      <trkpt lat="43.65201" lon="3.78775">
        <ele>68</ele>
        <time>2020-08-16T08:30:24.000Z</time>
      </trkpt>
      <trkpt lat="43.65198" lon="3.78778">
        <ele>68</ele>
        <time>2020-08-16T08:30:25.000Z</time>
      </trkpt>
      <trkpt lat="43.65195" lon="3.78781">
        <ele>68</ele>
        <time>2020-08-16T08:30:26.000Z</time>
      </trkpt>
      <trkpt lat="43.65192" lon="3.78784">
        <ele>68</ele>
        <time>2020-08-16T08:30:27.000Z</time>
      </trkpt>
      <trkpt lat="43.65188" lon="3.78786">
        <ele>68</ele>
        <time>2020-08-16T08:30:28.000Z</time>
      </trkpt>
      <trkpt lat="43.65185" lon="3.78788">
        <ele>68</ele>
        <time>2020-08-16T08:30:29.000Z</time>
      </trkpt>
      <trkpt lat="43.65181" lon="3.7879">
        <ele>68</ele>
        <time>2020-08-16T08:30:30.000Z</time>
      </trkpt>
      <trkpt lat="43.65178" lon="3.78793">
        <ele>68</ele>
        <time>2020-08-16T08:30:31.000Z</time>
      </trkpt>
      <trkpt lat="43.65175" lon="3.78795">
        <ele>67.979859006601</ele>
        <time>2020-08-16T08:30:32.000Z</time>
      </trkpt>
      <trkpt lat="43.65171" lon="3.78798">
        <ele>67.879154039607</ele>
        <time>2020-08-16T08:30:33.000Z</time>
      </trkpt>
      <trkpt lat="43.65168" lon="3.788">
        <ele>67.778449072612</ele>
        <time>2020-08-16T08:30:34.000Z</time>
      </trkpt>
      <trkpt lat="43.65165" lon="3.78802">
        <ele>67.677744105617</ele>
        <time>2020-08-16T08:30:35.000Z</time>
      </trkpt>
      <trkpt lat="43.65161" lon="3.78804">
        <ele>67.577039138623</ele>
        <time>2020-08-16T08:30:36.000Z</time>
      </trkpt>
      <trkpt lat="43.65158" lon="3.78807">
        <ele>67.476334171628</ele>
        <time>2020-08-16T08:30:37.000Z</time>
      </trkpt>
      <trkpt lat="43.65154" lon="3.78809">
        <ele>67.375629204634</ele>
        <time>2020-08-16T08:30:38.000Z</time>
      </trkpt>
      <trkpt lat="43.65151" lon="3.78812">
        <ele>67.274924237639</ele>
        <time>2020-08-16T08:30:39.000Z</time>
      </trkpt>
      <trkpt lat="43.65148" lon="3.78814">
        <ele>67.174219270645</ele>
        <time>2020-08-16T08:30:40.000Z</time>
      </trkpt>
      <trkpt lat="43.65145" lon="3.78816">
        <ele>67.07351430365</ele>
        <time>2020-08-16T08:30:41.000Z</time>
      </trkpt>
      <trkpt lat="43.65141" lon="3.78818">
        <ele>67</ele>
        <time>2020-08-16T08:30:42.000Z</time>
      </trkpt>
      <trkpt lat="43.65138" lon="3.7882">
        <ele>67</ele>
        <time>2020-08-16T08:30:43.000Z</time>
      </trkpt>
      <trkpt lat="43.65135" lon="3.78823">
        <ele>67</ele>
        <time>2020-08-16T08:30:44.000Z</time>
      </trkpt>
      <trkpt lat="43.65131" lon="3.78825">
        <ele>67</ele>
        <time>2020-08-16T08:30:45.000Z</time>
      </trkpt>
      <trkpt lat="43.65128" lon="3.78828">
        <ele>67</ele>
        <time>2020-08-16T08:30:46.000Z</time>
      </trkpt>
      <trkpt lat="43.65124" lon="3.7883">
        <ele>67</ele>
        <time>2020-08-16T08:30:47.000Z</time>
      </trkpt>
      <trkpt lat="43.65121" lon="3.78833">
        <ele>67</ele>
        <time>2020-08-16T08:30:48.000Z</time>
      </trkpt>
      <trkpt lat="43.65118" lon="3.78835">
        <ele>67</ele>
        <time>2020-08-16T08:30:49.000Z</time>
      </trkpt>
      <trkpt lat="43.65114" lon="3.78838">
        <ele>67</ele>
        <time>2020-08-16T08:30:50.000Z</time>
      </trkpt>
      <trkpt lat="43.65111" lon="3.7884">
        <ele>67</ele>
        <time>2020-08-16T08:30:51.000Z</time>
      </trkpt>
      <trkpt lat="43.65107" lon="3.78843">
        <ele>67</ele>
        <time>2020-08-16T08:30:52.000Z</time>
      </trkpt>
      <trkpt lat="43.65104" lon="3.78845">
        <ele>67</ele>
        <time>2020-08-16T08:30:53.000Z</time>
      </trkpt>
      <trkpt lat="43.65101" lon="3.78848">
        <ele>67</ele>
        <time>2020-08-16T08:30:54.000Z</time>
      </trkpt>
      <trkpt lat="43.65098" lon="3.7885">
        <ele>67</ele>
        <time>2020-08-16T08:30:55.000Z</time>
      </trkpt>
      <trkpt lat="43.65095" lon="3.78853">
        <ele>67</ele>
        <time>2020-08-16T08:30:56.000Z</time>
      </trkpt>
      <trkpt lat="43.65091" lon="3.78856">
        <ele>67</ele>
        <time>2020-08-16T08:30:57.000Z</time>
      </trkpt>
      <trkpt lat="43.65088" lon="3.78859">
        <ele>67</ele>
        <time>2020-08-16T08:30:58.000Z</time>
      </trkpt>
      <trkpt lat="43.65086" lon="3.78862">
        <ele>67</ele>
        <time>2020-08-16T08:30:59.000Z</time>
      </trkpt>
      <trkpt lat="43.65083" lon="3.78865">
        <ele>67</ele>
        <time>2020-08-16T08:31:00.000Z</time>
      </trkpt>
      <trkpt lat="43.65081" lon="3.78869">
        <ele>67</ele>
        <time>2020-08-16T08:31:01.000Z</time>
      </trkpt>
      <trkpt lat="43.65078" lon="3.78873">
        <ele>67</ele>
        <time>2020-08-16T08:31:02.000Z</time>
      </trkpt>
      <trkpt lat="43.65076" lon="3.78877">
        <ele>66.89814781893</ele>
        <time>2020-08-16T08:31:03.000Z</time>
      </trkpt>
      <trkpt lat="43.65074" lon="3.78881">
        <ele>66.795267160494</ele>
        <time>2020-08-16T08:31:04.000Z</time>
      </trkpt>
      <trkpt lat="43.65072" lon="3.78885">
        <ele>66.692386502058</ele>
        <time>2020-08-16T08:31:05.000Z</time>
      </trkpt>
      <trkpt lat="43.6507" lon="3.78889">
        <ele>66.589505843621</ele>
        <time>2020-08-16T08:31:06.000Z</time>
      </trkpt>
      <trkpt lat="43.65068" lon="3.78894">
        <ele>66.486625185185</ele>
        <time>2020-08-16T08:31:07.000Z</time>
      </trkpt>
      <trkpt lat="43.65067" lon="3.78898">
        <ele>66.383744526749</ele>
        <time>2020-08-16T08:31:08.000Z</time>
      </trkpt>
      <trkpt lat="43.65065" lon="3.78904">
        <ele>66.280863868313</ele>
        <time>2020-08-16T08:31:09.000Z</time>
      </trkpt>
      <trkpt lat="43.65063" lon="3.7891">
        <ele>66.177983209877</ele>
        <time>2020-08-16T08:31:10.000Z</time>
      </trkpt>
      <trkpt lat="43.6506" lon="3.78916">
        <ele>66.07510255144</ele>
        <time>2020-08-16T08:31:11.000Z</time>
      </trkpt>
      <trkpt lat="43.65056" lon="3.78921">
        <ele>66.02700032</ele>
        <time>2020-08-16T08:31:12.000Z</time>
      </trkpt>
      <trkpt lat="43.65052" lon="3.78923">
        <ele>66.12700032</ele>
        <time>2020-08-16T08:31:13.000Z</time>
      </trkpt>
      <trkpt lat="43.65049" lon="3.78925">
        <ele>66.22700032</ele>
        <time>2020-08-16T08:31:14.000Z</time>
      </trkpt>
      <trkpt lat="43.65046" lon="3.78927">
        <ele>66.32700032</ele>
        <time>2020-08-16T08:31:15.000Z</time>
      </trkpt>
      <trkpt lat="43.65043" lon="3.78927">
        <ele>66.42700032</ele>
        <time>2020-08-16T08:31:16.000Z</time>
      </trkpt>
      <trkpt lat="43.65041" lon="3.78926">
        <ele>66.52700032</ele>
        <time>2020-08-16T08:31:17.000Z</time>
      </trkpt>
      <trkpt lat="43.65039" lon="3.78926">
        <ele>66.72700032</ele>
        <time>2020-08-16T08:31:19.000Z</time>
      </trkpt>
      <trkpt lat="43.65039" lon="3.78929">
        <ele>66.92700032</ele>
        <time>2020-08-16T08:31:21.000Z</time>
      </trkpt>
      <trkpt lat="43.65038" lon="3.78932">
        <ele>67</ele>
        <time>2020-08-16T08:31:22.000Z</time>
      </trkpt>
      <trkpt lat="43.65037" lon="3.78935">
        <ele>67</ele>
        <time>2020-08-16T08:31:23.000Z</time>
      </trkpt>
      <trkpt lat="43.65036" lon="3.78939">
        <ele>67</ele>
        <time>2020-08-16T08:31:24.000Z</time>
      </trkpt>
      <trkpt lat="43.65033" lon="3.78943">
        <ele>67</ele>
        <time>2020-08-16T08:31:25.000Z</time>
      </trkpt>
      <trkpt lat="43.65031" lon="3.78946">
        <ele>67</ele>
        <time>2020-08-16T08:31:26.000Z</time>
      </trkpt>
      <trkpt lat="43.65028" lon="3.78949">
        <ele>67</ele>
        <time>2020-08-16T08:31:27.000Z</time>
      </trkpt>
      <trkpt lat="43.65025" lon="3.78951">
        <ele>67</ele>
        <time>2020-08-16T08:31:28.000Z</time>
      </trkpt>
      <trkpt lat="43.65022" lon="3.78953">
        <ele>67</ele>
        <time>2020-08-16T08:31:29.000Z</time>
      </trkpt>
      <trkpt lat="43.6502" lon="3.78955">
        <ele>67</ele>
        <time>2020-08-16T08:31:30.000Z</time>
      </trkpt>
      <trkpt lat="43.65017" lon="3.78957">
        <ele>67</ele>
        <time>2020-08-16T08:31:31.000Z</time>
      </trkpt>
      <trkpt lat="43.65014" lon="3.78959">
        <ele>66.97299968</ele>
        <time>2020-08-16T08:31:32.000Z</time>
      </trkpt>
      <trkpt lat="43.65012" lon="3.78961">
        <ele>66.87299968</ele>
        <time>2020-08-16T08:31:33.000Z</time>
      </trkpt>
      <trkpt lat="43.65009" lon="3.78963">
        <ele>66.77299968</ele>
        <time>2020-08-16T08:31:34.000Z</time>
      </trkpt>
      <trkpt lat="43.65006" lon="3.78965">
        <ele>66.67299968</ele>
        <time>2020-08-16T08:31:35.000Z</time>
      </trkpt>
      <trkpt lat="43.65004" lon="3.78967">
        <ele>66.57299968</ele>
        <time>2020-08-16T08:31:36.000Z</time>
      </trkpt>
      <trkpt lat="43.65001" lon="3.78969">
        <ele>66.47299968</ele>
        <time>2020-08-16T08:31:37.000Z</time>
      </trkpt>
      <trkpt lat="43.64999" lon="3.78972">
        <ele>66.37299968</ele>
        <time>2020-08-16T08:31:38.000Z</time>
      </trkpt>
      <trkpt lat="43.64996" lon="3.78974">
        <ele>66.27299968</ele>
        <time>2020-08-16T08:31:39.000Z</time>
      </trkpt>
      <trkpt lat="43.64993" lon="3.78976">
        <ele>66.17299968</ele>
        <time>2020-08-16T08:31:40.000Z</time>
      </trkpt>
      <trkpt lat="43.6499" lon="3.78978">
        <ele>66.07299968</ele>
        <time>2020-08-16T08:31:41.000Z</time>
      </trkpt>
      <trkpt lat="43.64987" lon="3.78981">
        <ele>66</ele>
        <time>2020-08-16T08:31:42.000Z</time>
      </trkpt>
      <trkpt lat="43.64984" lon="3.78983">
        <ele>66</ele>
        <time>2020-08-16T08:31:43.000Z</time>
      </trkpt>
      <trkpt lat="43.64981" lon="3.78985">
        <ele>66</ele>
        <time>2020-08-16T08:31:44.000Z</time>
      </trkpt>
      <trkpt lat="43.64978" lon="3.78987">
        <ele>66</ele>
        <time>2020-08-16T08:31:45.000Z</time>
      </trkpt>
      <trkpt lat="43.64975" lon="3.78989">
        <ele>66</ele>
        <time>2020-08-16T08:31:46.000Z</time>
      </trkpt>
      <trkpt lat="43.64971" lon="3.78992">
        <ele>66</ele>
        <time>2020-08-16T08:31:47.000Z</time>
      </trkpt>
      <trkpt lat="43.64968" lon="3.78994">
        <ele>66</ele>
        <time>2020-08-16T08:31:48.000Z</time>
      </trkpt>
      <trkpt lat="43.64965" lon="3.78996">
        <ele>66</ele>
        <time>2020-08-16T08:31:49.000Z</time>
      </trkpt>
      <trkpt lat="43.64962" lon="3.78999">
        <ele>66</ele>
        <time>2020-08-16T08:31:50.000Z</time>
      </trkpt>
      <trkpt lat="43.64959" lon="3.79001">
        <ele>66</ele>
        <time>2020-08-16T08:31:51.000Z</time>
      </trkpt>
      <trkpt lat="43.64956" lon="3.79003">
        <ele>66</ele>
        <time>2020-08-16T08:31:52.000Z</time>
      </trkpt>
      <trkpt lat="43.64952" lon="3.79005">
        <ele>66</ele>
        <time>2020-08-16T08:31:53.000Z</time>
      </trkpt>
      <trkpt lat="43.64949" lon="3.79007">
        <ele>66</ele>
        <time>2020-08-16T08:31:54.000Z</time>
      </trkpt>
      <trkpt lat="43.64946" lon="3.7901">
        <ele>66</ele>
        <time>2020-08-16T08:31:55.000Z</time>
      </trkpt>
      <trkpt lat="43.64944" lon="3.79012">
        <ele>66</ele>
        <time>2020-08-16T08:31:56.000Z</time>
      </trkpt>
      <trkpt lat="43.64941" lon="3.79014">
        <ele>66</ele>
        <time>2020-08-16T08:31:57.000Z</time>
      </trkpt>
      <trkpt lat="43.64938" lon="3.79017">
        <ele>66</ele>
        <time>2020-08-16T08:31:58.000Z</time>
      </trkpt>
      <trkpt lat="43.64935" lon="3.79019">
        <ele>66</ele>
        <time>2020-08-16T08:31:59.000Z</time>
      </trkpt>
      <trkpt lat="43.64933" lon="3.79022">
        <ele>66</ele>
        <time>2020-08-16T08:32:00.000Z</time>
      </trkpt>
      <trkpt lat="43.6493" lon="3.79024">
        <ele>66</ele>
        <time>2020-08-16T08:32:01.000Z</time>
      </trkpt>
      <trkpt lat="43.64928" lon="3.79027">
        <ele>66</ele>
        <time>2020-08-16T08:32:02.000Z</time>
      </trkpt>
      <trkpt lat="43.64925" lon="3.79029">
        <ele>66</ele>
        <time>2020-08-16T08:32:03.000Z</time>
      </trkpt>
      <trkpt lat="43.64922" lon="3.79031">
        <ele>66</ele>
        <time>2020-08-16T08:32:04.000Z</time>
      </trkpt>
      <trkpt lat="43.6492" lon="3.79033">
        <ele>66</ele>
        <time>2020-08-16T08:32:05.000Z</time>
      </trkpt>
      <trkpt lat="43.64917" lon="3.79035">
        <ele>66</ele>
        <time>2020-08-16T08:32:06.000Z</time>
      </trkpt>
      <trkpt lat="43.64914" lon="3.79036">
        <ele>66</ele>
        <time>2020-08-16T08:32:07.000Z</time>
      </trkpt>
      <trkpt lat="43.64912" lon="3.79038">
        <ele>66</ele>
        <time>2020-08-16T08:32:08.000Z</time>
      </trkpt>
      <trkpt lat="43.64909" lon="3.79039">
        <ele>66</ele>
        <time>2020-08-16T08:32:09.000Z</time>
      </trkpt>
      <trkpt lat="43.64907" lon="3.7904">
        <ele>66</ele>
        <time>2020-08-16T08:32:10.000Z</time>
      </trkpt>
      <trkpt lat="43.64904" lon="3.79041">
        <ele>66</ele>
        <time>2020-08-16T08:32:11.000Z</time>
      </trkpt>
      <trkpt lat="43.64902" lon="3.79043">
        <ele>66</ele>
        <time>2020-08-16T08:32:12.000Z</time>
      </trkpt>
      <trkpt lat="43.649" lon="3.79044">
        <ele>66</ele>
        <time>2020-08-16T08:32:13.000Z</time>
      </trkpt>
      <trkpt lat="43.64898" lon="3.79045">
        <ele>66</ele>
        <time>2020-08-16T08:32:14.000Z</time>
      </trkpt>
      <trkpt lat="43.64895" lon="3.79047">
        <ele>66</ele>
        <time>2020-08-16T08:32:15.000Z</time>
      </trkpt>
      <trkpt lat="43.64893" lon="3.79049">
        <ele>66</ele>
        <time>2020-08-16T08:32:16.000Z</time>
      </trkpt>
      <trkpt lat="43.6489" lon="3.79052">
        <ele>66</ele>
        <time>2020-08-16T08:32:17.000Z</time>
      </trkpt>
      <trkpt lat="43.64888" lon="3.79054">
        <ele>66</ele>
        <time>2020-08-16T08:32:18.000Z</time>
      </trkpt>
      <trkpt lat="43.64885" lon="3.79057">
        <ele>66</ele>
        <time>2020-08-16T08:32:19.000Z</time>
      </trkpt>
      <trkpt lat="43.64882" lon="3.79059">
        <ele>66</ele>
        <time>2020-08-16T08:32:20.000Z</time>
      </trkpt>
      <trkpt lat="43.6488" lon="3.79062">
        <ele>66</ele>
        <time>2020-08-16T08:32:21.000Z</time>
      </trkpt>
      <trkpt lat="43.64877" lon="3.79064">
        <ele>66</ele>
        <time>2020-08-16T08:32:22.000Z</time>
      </trkpt>
      <trkpt lat="43.64874" lon="3.79067">
        <ele>66</ele>
        <time>2020-08-16T08:32:23.000Z</time>
      </trkpt>
      <trkpt lat="43.64872" lon="3.79069">
        <ele>66</ele>
        <time>2020-08-16T08:32:24.000Z</time>
      </trkpt>
      <trkpt lat="43.64869" lon="3.79072">
        <ele>66</ele>
        <time>2020-08-16T08:32:25.000Z</time>
      </trkpt>
      <trkpt lat="43.64867" lon="3.79074">
        <ele>66</ele>
        <time>2020-08-16T08:32:26.000Z</time>
      </trkpt>
      <trkpt lat="43.64864" lon="3.79077">
        <ele>66</ele>
        <time>2020-08-16T08:32:27.000Z</time>
      </trkpt>
      <trkpt lat="43.64862" lon="3.79079">
        <ele>66</ele>
        <time>2020-08-16T08:32:28.000Z</time>
      </trkpt>
      <trkpt lat="43.6486" lon="3.79081">
        <ele>66</ele>
        <time>2020-08-16T08:32:29.000Z</time>
      </trkpt>
      <trkpt lat="43.64858" lon="3.79083">
        <ele>66</ele>
        <time>2020-08-16T08:32:30.000Z</time>
      </trkpt>
      <trkpt lat="43.64856" lon="3.79085">
        <ele>66</ele>
        <time>2020-08-16T08:32:31.000Z</time>
      </trkpt>
      <trkpt lat="43.64853" lon="3.79087">
        <ele>66</ele>
        <time>2020-08-16T08:32:32.000Z</time>
      </trkpt>
      <trkpt lat="43.64851" lon="3.79089">
        <ele>66</ele>
        <time>2020-08-16T08:32:33.000Z</time>
      </trkpt>
      <trkpt lat="43.64848" lon="3.79091">
        <ele>66</ele>
        <time>2020-08-16T08:32:34.000Z</time>
      </trkpt>
      <trkpt lat="43.64846" lon="3.79093">
        <ele>66</ele>
        <time>2020-08-16T08:32:35.000Z</time>
      </trkpt>
      <trkpt lat="43.64843" lon="3.79096">
        <ele>66</ele>
        <time>2020-08-16T08:32:36.000Z</time>
      </trkpt>
      <trkpt lat="43.6484" lon="3.79098">
        <ele>66</ele>
        <time>2020-08-16T08:32:37.000Z</time>
      </trkpt>
      <trkpt lat="43.64838" lon="3.79102">
        <ele>66</ele>
        <time>2020-08-16T08:32:38.000Z</time>
      </trkpt>
      <trkpt lat="43.64835" lon="3.79105">
        <ele>66</ele>
        <time>2020-08-16T08:32:39.000Z</time>
      </trkpt>
      <trkpt lat="43.64833" lon="3.79109">
        <ele>66</ele>
        <time>2020-08-16T08:32:40.000Z</time>
      </trkpt>
      <trkpt lat="43.6483" lon="3.79112">
        <ele>66</ele>
        <time>2020-08-16T08:32:41.000Z</time>
      </trkpt>
      <trkpt lat="43.64828" lon="3.79116">
        <ele>66</ele>
        <time>2020-08-16T08:32:42.000Z</time>
      </trkpt>
      <trkpt lat="43.64826" lon="3.79119">
        <ele>66</ele>
        <time>2020-08-16T08:32:43.000Z</time>
      </trkpt>
      <trkpt lat="43.64824" lon="3.79122">
        <ele>66</ele>
        <time>2020-08-16T08:32:44.000Z</time>
      </trkpt>
      <trkpt lat="43.64822" lon="3.79125">
        <ele>66</ele>
        <time>2020-08-16T08:32:45.000Z</time>
      </trkpt>
      <trkpt lat="43.64819" lon="3.79128">
        <ele>66</ele>
        <time>2020-08-16T08:32:46.000Z</time>
      </trkpt>
      <trkpt lat="43.64817" lon="3.7913">
        <ele>66</ele>
        <time>2020-08-16T08:32:47.000Z</time>
      </trkpt>
      <trkpt lat="43.64815" lon="3.79133">
        <ele>66</ele>
        <time>2020-08-16T08:32:48.000Z</time>
      </trkpt>
      <trkpt lat="43.64812" lon="3.79136">
        <ele>66</ele>
        <time>2020-08-16T08:32:49.000Z</time>
      </trkpt>
      <trkpt lat="43.6481" lon="3.79139">
        <ele>66</ele>
        <time>2020-08-16T08:32:50.000Z</time>
      </trkpt>
      <trkpt lat="43.64807" lon="3.79143">
        <ele>66</ele>
        <time>2020-08-16T08:32:51.000Z</time>
      </trkpt>
      <trkpt lat="43.64804" lon="3.79146">
        <ele>66</ele>
        <time>2020-08-16T08:32:52.000Z</time>
      </trkpt>
      <trkpt lat="43.64802" lon="3.79149">
        <ele>66</ele>
        <time>2020-08-16T08:32:53.000Z</time>
      </trkpt>
      <trkpt lat="43.64799" lon="3.79151">
        <ele>66</ele>
        <time>2020-08-16T08:32:54.000Z</time>
      </trkpt>
      <trkpt lat="43.64797" lon="3.79154">
        <ele>66</ele>
        <time>2020-08-16T08:32:55.000Z</time>
      </trkpt>
      <trkpt lat="43.64794" lon="3.79157">
        <ele>66</ele>
        <time>2020-08-16T08:32:56.000Z</time>
      </trkpt>
      <trkpt lat="43.64791" lon="3.79159">
        <ele>66</ele>
        <time>2020-08-16T08:32:57.000Z</time>
      </trkpt>
      <trkpt lat="43.64788" lon="3.79162">
        <ele>66</ele>
        <time>2020-08-16T08:32:58.000Z</time>
      </trkpt>
      <trkpt lat="43.64785" lon="3.79164">
        <ele>66</ele>
        <time>2020-08-16T08:32:59.000Z</time>
      </trkpt>
      <trkpt lat="43.64782" lon="3.79166">
        <ele>66</ele>
        <time>2020-08-16T08:33:00.000Z</time>
      </trkpt>
      <trkpt lat="43.6478" lon="3.79168">
        <ele>66</ele>
        <time>2020-08-16T08:33:01.000Z</time>
      </trkpt>
      <trkpt lat="43.64777" lon="3.7917">
        <ele>66</ele>
        <time>2020-08-16T08:33:02.000Z</time>
      </trkpt>
      <trkpt lat="43.64774" lon="3.79171">
        <ele>66</ele>
        <time>2020-08-16T08:33:03.000Z</time>
      </trkpt>
      <trkpt lat="43.64771" lon="3.79173">
        <ele>66</ele>
        <time>2020-08-16T08:33:04.000Z</time>
      </trkpt>
      <trkpt lat="43.64768" lon="3.79174">
        <ele>66</ele>
        <time>2020-08-16T08:33:05.000Z</time>
      </trkpt>
      <trkpt lat="43.64766" lon="3.79177">
        <ele>66</ele>
        <time>2020-08-16T08:33:06.000Z</time>
      </trkpt>
      <trkpt lat="43.64763" lon="3.79179">
        <ele>66</ele>
        <time>2020-08-16T08:33:07.000Z</time>
      </trkpt>
      <trkpt lat="43.64761" lon="3.79181">
        <ele>66</ele>
        <time>2020-08-16T08:33:08.000Z</time>
      </trkpt>
      <trkpt lat="43.64758" lon="3.79183">
        <ele>66</ele>
        <time>2020-08-16T08:33:09.000Z</time>
      </trkpt>
      <trkpt lat="43.64756" lon="3.79185">
        <ele>66</ele>
        <time>2020-08-16T08:33:10.000Z</time>
      </trkpt>
      <trkpt lat="43.64753" lon="3.79188">
        <ele>66</ele>
        <time>2020-08-16T08:33:11.000Z</time>
      </trkpt>
      <trkpt lat="43.64751" lon="3.7919">
        <ele>66</ele>
        <time>2020-08-16T08:33:12.000Z</time>
      </trkpt>
      <trkpt lat="43.64749" lon="3.79193">
        <ele>66</ele>
        <time>2020-08-16T08:33:13.000Z</time>
      </trkpt>
      <trkpt lat="43.64747" lon="3.79197">
        <ele>66</ele>
        <time>2020-08-16T08:33:14.000Z</time>
      </trkpt>
      <trkpt lat="43.64745" lon="3.79202">
        <ele>66</ele>
        <time>2020-08-16T08:33:15.000Z</time>
      </trkpt>
      <trkpt lat="43.64742" lon="3.79206">
        <ele>66</ele>
        <time>2020-08-16T08:33:16.000Z</time>
      </trkpt>
      <trkpt lat="43.64739" lon="3.7921">
        <ele>66</ele>
        <time>2020-08-16T08:33:17.000Z</time>
      </trkpt>
      <trkpt lat="43.64736" lon="3.79214">
        <ele>66</ele>
        <time>2020-08-16T08:33:18.000Z</time>
      </trkpt>
      <trkpt lat="43.64733" lon="3.79218">
        <ele>66</ele>
        <time>2020-08-16T08:33:19.000Z</time>
      </trkpt>
      <trkpt lat="43.64731" lon="3.79222">
        <ele>66</ele>
        <time>2020-08-16T08:33:20.000Z</time>
      </trkpt>
      <trkpt lat="43.64728" lon="3.79226">
        <ele>66</ele>
        <time>2020-08-16T08:33:21.000Z</time>
      </trkpt>
      <trkpt lat="43.64725" lon="3.79229">
        <ele>66</ele>
        <time>2020-08-16T08:33:22.000Z</time>
      </trkpt>
      <trkpt lat="43.64722" lon="3.79233">
        <ele>66.099999736082</ele>
        <time>2020-08-16T08:33:23.000Z</time>
      </trkpt>
      <trkpt lat="43.64719" lon="3.79237">
        <ele>66.203092587608</ele>
        <time>2020-08-16T08:33:24.000Z</time>
      </trkpt>
      <trkpt lat="43.64717" lon="3.79241">
        <ele>66.306185439133</ele>
        <time>2020-08-16T08:33:25.000Z</time>
      </trkpt>
      <trkpt lat="43.64714" lon="3.79245">
        <ele>66.409278290658</ele>
        <time>2020-08-16T08:33:26.000Z</time>
      </trkpt>
      <trkpt lat="43.64711" lon="3.79249">
        <ele>66.512371142183</ele>
        <time>2020-08-16T08:33:27.000Z</time>
      </trkpt>
      <trkpt lat="43.64709" lon="3.79253">
        <ele>66.615463993708</ele>
        <time>2020-08-16T08:33:28.000Z</time>
      </trkpt>
      <trkpt lat="43.64707" lon="3.79257">
        <ele>66.718556845233</ele>
        <time>2020-08-16T08:33:29.000Z</time>
      </trkpt>
      <trkpt lat="43.64705" lon="3.79263">
        <ele>66.821649696759</ele>
        <time>2020-08-16T08:33:30.000Z</time>
      </trkpt>
      <trkpt lat="43.64703" lon="3.79268">
        <ele>66.924742548284</ele>
        <time>2020-08-16T08:33:31.000Z</time>
      </trkpt>
      <trkpt lat="43.64702" lon="3.79273">
        <ele>66.97299968</ele>
        <time>2020-08-16T08:33:32.000Z</time>
      </trkpt>
      <trkpt lat="43.64699" lon="3.79278">
        <ele>66.87299968</ele>
        <time>2020-08-16T08:33:33.000Z</time>
      </trkpt>
      <trkpt lat="43.64696" lon="3.79281">
        <ele>66.77299968</ele>
        <time>2020-08-16T08:33:34.000Z</time>
      </trkpt>
      <trkpt lat="43.64692" lon="3.79284">
        <ele>66.67299968</ele>
        <time>2020-08-16T08:33:35.000Z</time>
      </trkpt>
      <trkpt lat="43.64688" lon="3.79286">
        <ele>66.57299968</ele>
        <time>2020-08-16T08:33:36.000Z</time>
      </trkpt>
      <trkpt lat="43.6468" lon="3.79288">
        <ele>66.37299968</ele>
        <time>2020-08-16T08:33:38.000Z</time>
      </trkpt>
      <trkpt lat="43.64677" lon="3.79288">
        <ele>66.27299968</ele>
        <time>2020-08-16T08:33:39.000Z</time>
      </trkpt>
      <trkpt lat="43.64674" lon="3.79288">
        <ele>66.17299968</ele>
        <time>2020-08-16T08:33:40.000Z</time>
      </trkpt>
      <trkpt lat="43.64672" lon="3.79288">
        <ele>66.07299968</ele>
        <time>2020-08-16T08:33:41.000Z</time>
      </trkpt>
      <trkpt lat="43.64669" lon="3.79289">
        <ele>66</ele>
        <time>2020-08-16T08:33:42.000Z</time>
      </trkpt>
      <trkpt lat="43.64668" lon="3.79291">
        <ele>66</ele>
        <time>2020-08-16T08:33:43.000Z</time>
      </trkpt>
      <trkpt lat="43.64666" lon="3.79293">
        <ele>66</ele>
        <time>2020-08-16T08:33:44.000Z</time>
      </trkpt>
      <trkpt lat="43.64664" lon="3.79296">
        <ele>66</ele>
        <time>2020-08-16T08:33:45.000Z</time>
      </trkpt>
      <trkpt lat="43.64663" lon="3.79299">
        <ele>66</ele>
        <time>2020-08-16T08:33:46.000Z</time>
      </trkpt>
      <trkpt lat="43.64662" lon="3.79304">
        <ele>66</ele>
        <time>2020-08-16T08:33:47.000Z</time>
      </trkpt>
      <trkpt lat="43.64661" lon="3.79307">
        <ele>66</ele>
        <time>2020-08-16T08:33:48.000Z</time>
      </trkpt>
      <trkpt lat="43.6466" lon="3.79311">
        <ele>66</ele>
        <time>2020-08-16T08:33:49.000Z</time>
      </trkpt>
      <trkpt lat="43.64659" lon="3.79315">
        <ele>66</ele>
        <time>2020-08-16T08:33:50.000Z</time>
      </trkpt>
      <trkpt lat="43.64658" lon="3.7932">
        <ele>66</ele>
        <time>2020-08-16T08:33:51.000Z</time>
      </trkpt>
      <trkpt lat="43.64657" lon="3.79324">
        <ele>65.973709531074</ele>
        <time>2020-08-16T08:33:52.000Z</time>
      </trkpt>
      <trkpt lat="43.64655" lon="3.79329">
        <ele>65.876338577967</ele>
        <time>2020-08-16T08:33:53.000Z</time>
      </trkpt>
      <trkpt lat="43.64654" lon="3.79333">
        <ele>65.778967624859</ele>
        <time>2020-08-16T08:33:54.000Z</time>
      </trkpt>
      <trkpt lat="43.64654" lon="3.79338">
        <ele>65.681596671752</ele>
        <time>2020-08-16T08:33:55.000Z</time>
      </trkpt>
      <trkpt lat="43.64653" lon="3.79343">
        <ele>65.584225718644</ele>
        <time>2020-08-16T08:33:56.000Z</time>
      </trkpt>
      <trkpt lat="43.64652" lon="3.79348">
        <ele>65.486854765537</ele>
        <time>2020-08-16T08:33:57.000Z</time>
      </trkpt>
      <trkpt lat="43.6465" lon="3.79353">
        <ele>65.38948381243</ele>
        <time>2020-08-16T08:33:58.000Z</time>
      </trkpt>
      <trkpt lat="43.64648" lon="3.79358">
        <ele>65.292112859322</ele>
        <time>2020-08-16T08:33:59.000Z</time>
      </trkpt>
      <trkpt lat="43.64647" lon="3.79362">
        <ele>65.194741906215</ele>
        <time>2020-08-16T08:34:00.000Z</time>
      </trkpt>
      <trkpt lat="43.64645" lon="3.79366">
        <ele>65.097370953107</ele>
        <time>2020-08-16T08:34:01.000Z</time>
      </trkpt>
      <trkpt lat="43.64643" lon="3.7937">
        <ele>65</ele>
        <time>2020-08-16T08:34:02.000Z</time>
      </trkpt>
      <trkpt lat="43.64641" lon="3.79375">
        <ele>65</ele>
        <time>2020-08-16T08:34:03.000Z</time>
      </trkpt>
      <trkpt lat="43.6464" lon="3.79381">
        <ele>65</ele>
        <time>2020-08-16T08:34:04.000Z</time>
      </trkpt>
      <trkpt lat="43.64638" lon="3.79387">
        <ele>65</ele>
        <time>2020-08-16T08:34:05.000Z</time>
      </trkpt>
      <trkpt lat="43.64635" lon="3.79391">
        <ele>65</ele>
        <time>2020-08-16T08:34:06.000Z</time>
      </trkpt>
      <trkpt lat="43.64632" lon="3.79395">
        <ele>65</ele>
        <time>2020-08-16T08:34:07.000Z</time>
      </trkpt>
      <trkpt lat="43.64629" lon="3.79399">
        <ele>65</ele>
        <time>2020-08-16T08:34:08.000Z</time>
      </trkpt>
      <trkpt lat="43.64626" lon="3.79403">
        <ele>65</ele>
        <time>2020-08-16T08:34:09.000Z</time>
      </trkpt>
      <trkpt lat="43.64624" lon="3.79407">
        <ele>65</ele>
        <time>2020-08-16T08:34:10.000Z</time>
      </trkpt>
      <trkpt lat="43.64621" lon="3.79411">
        <ele>65</ele>
        <time>2020-08-16T08:34:11.000Z</time>
      </trkpt>
      <trkpt lat="43.64618" lon="3.79414">
        <ele>65</ele>
        <time>2020-08-16T08:34:12.000Z</time>
      </trkpt>
      <trkpt lat="43.64615" lon="3.79418">
        <ele>65</ele>
        <time>2020-08-16T08:34:13.000Z</time>
      </trkpt>
      <trkpt lat="43.64613" lon="3.79421">
        <ele>65</ele>
        <time>2020-08-16T08:34:14.000Z</time>
      </trkpt>
      <trkpt lat="43.6461" lon="3.79424">
        <ele>65</ele>
        <time>2020-08-16T08:34:15.000Z</time>
      </trkpt>
      <trkpt lat="43.64608" lon="3.79427">
        <ele>65</ele>
        <time>2020-08-16T08:34:16.000Z</time>
      </trkpt>
      <trkpt lat="43.64606" lon="3.7943">
        <ele>65</ele>
        <time>2020-08-16T08:34:17.000Z</time>
      </trkpt>
      <trkpt lat="43.64604" lon="3.79434">
        <ele>65</ele>
        <time>2020-08-16T08:34:18.000Z</time>
      </trkpt>
      <trkpt lat="43.64602" lon="3.79437">
        <ele>65</ele>
        <time>2020-08-16T08:34:19.000Z</time>
      </trkpt>
      <trkpt lat="43.646" lon="3.7944">
        <ele>65</ele>
        <time>2020-08-16T08:34:20.000Z</time>
      </trkpt>
      <trkpt lat="43.64599" lon="3.79444">
        <ele>65</ele>
        <time>2020-08-16T08:34:21.000Z</time>
      </trkpt>
      <trkpt lat="43.64598" lon="3.79447">
        <ele>64.94599936</ele>
        <time>2020-08-16T08:34:22.000Z</time>
      </trkpt>
      <trkpt lat="43.64596" lon="3.79449">
        <ele>64.74599936</ele>
        <time>2020-08-16T08:34:23.000Z</time>
      </trkpt>
      <trkpt lat="43.64594" lon="3.79452">
        <ele>64.54599936</ele>
        <time>2020-08-16T08:34:24.000Z</time>
      </trkpt>
      <trkpt lat="43.64593" lon="3.79453">
        <ele>64.34599936</ele>
        <time>2020-08-16T08:34:25.000Z</time>
      </trkpt>
      <trkpt lat="43.64592" lon="3.79455">
        <ele>64.14599936</ele>
        <time>2020-08-16T08:34:26.000Z</time>
      </trkpt>
      <trkpt lat="43.64593" lon="3.7946">
        <ele>63.74599936</ele>
        <time>2020-08-16T08:34:28.000Z</time>
      </trkpt>
      <trkpt lat="43.64594" lon="3.79463">
        <ele>63.54599936</ele>
        <time>2020-08-16T08:34:29.000Z</time>
      </trkpt>
      <trkpt lat="43.64596" lon="3.79466">
        <ele>63.34599936</ele>
        <time>2020-08-16T08:34:30.000Z</time>
      </trkpt>
      <trkpt lat="43.64597" lon="3.79468">
        <ele>63.14599936</ele>
        <time>2020-08-16T08:34:31.000Z</time>
      </trkpt>
      <trkpt lat="43.64599" lon="3.79471">
        <ele>62.97299968</ele>
        <time>2020-08-16T08:34:32.000Z</time>
      </trkpt>
      <trkpt lat="43.64601" lon="3.79474">
        <ele>62.87299968</ele>
        <time>2020-08-16T08:34:33.000Z</time>
      </trkpt>
      <trkpt lat="43.64601" lon="3.79477">
        <ele>62.77299968</ele>
        <time>2020-08-16T08:34:34.000Z</time>
      </trkpt>
      <trkpt lat="43.64601" lon="3.79481">
        <ele>62.67299968</ele>
        <time>2020-08-16T08:34:35.000Z</time>
      </trkpt>
      <trkpt lat="43.64599" lon="3.79484">
        <ele>62.57299968</ele>
        <time>2020-08-16T08:34:36.000Z</time>
      </trkpt>
      <trkpt lat="43.64598" lon="3.79487">
        <ele>62.47299968</ele>
        <time>2020-08-16T08:34:37.000Z</time>
      </trkpt>
      <trkpt lat="43.64596" lon="3.7949">
        <ele>62.37299968</ele>
        <time>2020-08-16T08:34:38.000Z</time>
      </trkpt>
      <trkpt lat="43.64594" lon="3.79493">
        <ele>62.27299968</ele>
        <time>2020-08-16T08:34:39.000Z</time>
      </trkpt>
      <trkpt lat="43.64592" lon="3.79496">
        <ele>62.17299968</ele>
        <time>2020-08-16T08:34:40.000Z</time>
      </trkpt>
      <trkpt lat="43.6459" lon="3.795">
        <ele>62.07299968</ele>
        <time>2020-08-16T08:34:41.000Z</time>
      </trkpt>
      <trkpt lat="43.64589" lon="3.79504">
        <ele>61.94599936</ele>
        <time>2020-08-16T08:34:42.000Z</time>
      </trkpt>
      <trkpt lat="43.64587" lon="3.79508">
        <ele>61.74599936</ele>
        <time>2020-08-16T08:34:43.000Z</time>
      </trkpt>
      <trkpt lat="43.64586" lon="3.79512">
        <ele>61.54599936</ele>
        <time>2020-08-16T08:34:44.000Z</time>
      </trkpt>
      <trkpt lat="43.64584" lon="3.79516">
        <ele>61.34599936</ele>
        <time>2020-08-16T08:34:45.000Z</time>
      </trkpt>
      <trkpt lat="43.64583" lon="3.79519">
        <ele>61.14599936</ele>
        <time>2020-08-16T08:34:46.000Z</time>
      </trkpt>
      <trkpt lat="43.64581" lon="3.79523">
        <ele>60.94599936</ele>
        <time>2020-08-16T08:34:47.000Z</time>
      </trkpt>
      <trkpt lat="43.6458" lon="3.79526">
        <ele>60.74599936</ele>
        <time>2020-08-16T08:34:48.000Z</time>
      </trkpt>
      <trkpt lat="43.64578" lon="3.7953">
        <ele>60.54599936</ele>
        <time>2020-08-16T08:34:49.000Z</time>
      </trkpt>
      <trkpt lat="43.64577" lon="3.79534">
        <ele>60.34599936</ele>
        <time>2020-08-16T08:34:50.000Z</time>
      </trkpt>
      <trkpt lat="43.64575" lon="3.79537">
        <ele>60.14599936</ele>
        <time>2020-08-16T08:34:51.000Z</time>
      </trkpt>
      <trkpt lat="43.64574" lon="3.79541">
        <ele>59.97297266131</ele>
        <time>2020-08-16T08:34:52.000Z</time>
      </trkpt>
      <trkpt lat="43.64573" lon="3.79545">
        <ele>59.872872593274</ele>
        <time>2020-08-16T08:34:53.000Z</time>
      </trkpt>
      <trkpt lat="43.64572" lon="3.79549">
        <ele>59.772772525238</ele>
        <time>2020-08-16T08:34:54.000Z</time>
      </trkpt>
      <trkpt lat="43.64571" lon="3.79553">
        <ele>59.672672457202</ele>
        <time>2020-08-16T08:34:55.000Z</time>
      </trkpt>
      <trkpt lat="43.6457" lon="3.79557">
        <ele>59.572572389166</ele>
        <time>2020-08-16T08:34:56.000Z</time>
      </trkpt>
      <trkpt lat="43.64569" lon="3.79561">
        <ele>59.47247232113</ele>
        <time>2020-08-16T08:34:57.000Z</time>
      </trkpt>
      <trkpt lat="43.64568" lon="3.79565">
        <ele>59.372372253094</ele>
        <time>2020-08-16T08:34:58.000Z</time>
      </trkpt>
      <trkpt lat="43.64567" lon="3.79569">
        <ele>59.272272185058</ele>
        <time>2020-08-16T08:34:59.000Z</time>
      </trkpt>
      <trkpt lat="43.64565" lon="3.79573">
        <ele>59.172172117022</ele>
        <time>2020-08-16T08:35:00.000Z</time>
      </trkpt>
      <trkpt lat="43.64564" lon="3.79578">
        <ele>59.072072048986</ele>
        <time>2020-08-16T08:35:01.000Z</time>
      </trkpt>
      <trkpt lat="43.64562" lon="3.79582">
        <ele>59</ele>
        <time>2020-08-16T08:35:02.000Z</time>
      </trkpt>
      <trkpt lat="43.6456" lon="3.79586">
        <ele>59</ele>
        <time>2020-08-16T08:35:03.000Z</time>
      </trkpt>
      <trkpt lat="43.64559" lon="3.79591">
        <ele>59</ele>
        <time>2020-08-16T08:35:04.000Z</time>
      </trkpt>
      <trkpt lat="43.64557" lon="3.79595">
        <ele>59</ele>
        <time>2020-08-16T08:35:05.000Z</time>
      </trkpt>
      <trkpt lat="43.64555" lon="3.79599">
        <ele>59</ele>
        <time>2020-08-16T08:35:06.000Z</time>
      </trkpt>
      <trkpt lat="43.64553" lon="3.79603">
        <ele>59</ele>
        <time>2020-08-16T08:35:07.000Z</time>
      </trkpt>
      <trkpt lat="43.64552" lon="3.79607">
        <ele>59</ele>
        <time>2020-08-16T08:35:08.000Z</time>
      </trkpt>
      <trkpt lat="43.6455" lon="3.79612">
        <ele>59</ele>
        <time>2020-08-16T08:35:09.000Z</time>
      </trkpt>
      <trkpt lat="43.64549" lon="3.79616">
        <ele>59</ele>
        <time>2020-08-16T08:35:10.000Z</time>
      </trkpt>
      <trkpt lat="43.64548" lon="3.7962">
        <ele>59</ele>
        <time>2020-08-16T08:35:11.000Z</time>
      </trkpt>
      <trkpt lat="43.64546" lon="3.79624">
        <ele>58.97299968</ele>
        <time>2020-08-16T08:35:12.000Z</time>
      </trkpt>
      <trkpt lat="43.64545" lon="3.79628">
        <ele>58.87299968</ele>
        <time>2020-08-16T08:35:13.000Z</time>
      </trkpt>
      <trkpt lat="43.64543" lon="3.79632">
        <ele>58.77299968</ele>
        <time>2020-08-16T08:35:14.000Z</time>
      </trkpt>
      <trkpt lat="43.64541" lon="3.79636">
        <ele>58.67299968</ele>
        <time>2020-08-16T08:35:15.000Z</time>
      </trkpt>
      <trkpt lat="43.6454" lon="3.79639">
        <ele>58.57299968</ele>
        <time>2020-08-16T08:35:16.000Z</time>
      </trkpt>
      <trkpt lat="43.64538" lon="3.79643">
        <ele>58.47299968</ele>
        <time>2020-08-16T08:35:17.000Z</time>
      </trkpt>
      <trkpt lat="43.64536" lon="3.79647">
        <ele>58.37299968</ele>
        <time>2020-08-16T08:35:18.000Z</time>
      </trkpt>
      <trkpt lat="43.64534" lon="3.79651">
        <ele>58.27299968</ele>
        <time>2020-08-16T08:35:19.000Z</time>
      </trkpt>
      <trkpt lat="43.64533" lon="3.79655">
        <ele>58.17299968</ele>
        <time>2020-08-16T08:35:20.000Z</time>
      </trkpt>
      <trkpt lat="43.64531" lon="3.79659">
        <ele>58.07299968</ele>
        <time>2020-08-16T08:35:21.000Z</time>
      </trkpt>
      <trkpt lat="43.64529" lon="3.79662">
        <ele>57.97299968</ele>
        <time>2020-08-16T08:35:22.000Z</time>
      </trkpt>
      <trkpt lat="43.64527" lon="3.79666">
        <ele>57.87299968</ele>
        <time>2020-08-16T08:35:23.000Z</time>
      </trkpt>
      <trkpt lat="43.64526" lon="3.79671">
        <ele>57.77299968</ele>
        <time>2020-08-16T08:35:24.000Z</time>
      </trkpt>
      <trkpt lat="43.64525" lon="3.79675">
        <ele>57.67299968</ele>
        <time>2020-08-16T08:35:25.000Z</time>
      </trkpt>
      <trkpt lat="43.64523" lon="3.7968">
        <ele>57.57299968</ele>
        <time>2020-08-16T08:35:26.000Z</time>
      </trkpt>
      <trkpt lat="43.64522" lon="3.79684">
        <ele>57.47299968</ele>
        <time>2020-08-16T08:35:27.000Z</time>
      </trkpt>
      <trkpt lat="43.64521" lon="3.79688">
        <ele>57.37299968</ele>
        <time>2020-08-16T08:35:28.000Z</time>
      </trkpt>
      <trkpt lat="43.64519" lon="3.79692">
        <ele>57.27299968</ele>
        <time>2020-08-16T08:35:29.000Z</time>
      </trkpt>
      <trkpt lat="43.64517" lon="3.79696">
        <ele>57.17299968</ele>
        <time>2020-08-16T08:35:30.000Z</time>
      </trkpt>
      <trkpt lat="43.64516" lon="3.797">
        <ele>57.07299968</ele>
        <time>2020-08-16T08:35:31.000Z</time>
      </trkpt>
      <trkpt lat="43.64514" lon="3.79704">
        <ele>57</ele>
        <time>2020-08-16T08:35:32.000Z</time>
      </trkpt>
      <trkpt lat="43.64512" lon="3.79708">
        <ele>57</ele>
        <time>2020-08-16T08:35:33.000Z</time>
      </trkpt>
      <trkpt lat="43.6451" lon="3.79712">
        <ele>57</ele>
        <time>2020-08-16T08:35:34.000Z</time>
      </trkpt>
      <trkpt lat="43.64508" lon="3.79716">
        <ele>57</ele>
        <time>2020-08-16T08:35:35.000Z</time>
      </trkpt>
      <trkpt lat="43.64507" lon="3.79721">
        <ele>57</ele>
        <time>2020-08-16T08:35:36.000Z</time>
      </trkpt>
      <trkpt lat="43.64506" lon="3.79725">
        <ele>57</ele>
        <time>2020-08-16T08:35:37.000Z</time>
      </trkpt>
      <trkpt lat="43.64504" lon="3.79729">
        <ele>57</ele>
        <time>2020-08-16T08:35:38.000Z</time>
      </trkpt>
      <trkpt lat="43.64503" lon="3.79733">
        <ele>57</ele>
        <time>2020-08-16T08:35:39.000Z</time>
      </trkpt>
      <trkpt lat="43.64501" lon="3.79737">
        <ele>57</ele>
        <time>2020-08-16T08:35:40.000Z</time>
      </trkpt>
      <trkpt lat="43.64499" lon="3.7974">
        <ele>57</ele>
        <time>2020-08-16T08:35:41.000Z</time>
      </trkpt>
      <trkpt lat="43.64497" lon="3.79744">
        <ele>57.02700032</ele>
        <time>2020-08-16T08:35:42.000Z</time>
      </trkpt>
      <trkpt lat="43.64495" lon="3.79747">
        <ele>57.12700032</ele>
        <time>2020-08-16T08:35:43.000Z</time>
      </trkpt>
      <trkpt lat="43.64493" lon="3.7975">
        <ele>57.22700032</ele>
        <time>2020-08-16T08:35:44.000Z</time>
      </trkpt>
      <trkpt lat="43.64491" lon="3.79753">
        <ele>57.32700032</ele>
        <time>2020-08-16T08:35:45.000Z</time>
      </trkpt>
      <trkpt lat="43.64489" lon="3.79756">
        <ele>57.42700032</ele>
        <time>2020-08-16T08:35:46.000Z</time>
      </trkpt>
      <trkpt lat="43.64487" lon="3.79758">
        <ele>57.52700032</ele>
        <time>2020-08-16T08:35:47.000Z</time>
      </trkpt>
      <trkpt lat="43.64484" lon="3.79761">
        <ele>57.62700032</ele>
        <time>2020-08-16T08:35:48.000Z</time>
      </trkpt>
      <trkpt lat="43.64481" lon="3.79763">
        <ele>57.72700032</ele>
        <time>2020-08-16T08:35:49.000Z</time>
      </trkpt>
      <trkpt lat="43.64478" lon="3.79765">
        <ele>57.82700032</ele>
        <time>2020-08-16T08:35:50.000Z</time>
      </trkpt>
      <trkpt lat="43.64475" lon="3.79767">
        <ele>57.92700032</ele>
        <time>2020-08-16T08:35:51.000Z</time>
      </trkpt>
      <trkpt lat="43.64472" lon="3.79769">
        <ele>58</ele>
        <time>2020-08-16T08:35:52.000Z</time>
      </trkpt>
      <trkpt lat="43.64469" lon="3.79771">
        <ele>58</ele>
        <time>2020-08-16T08:35:53.000Z</time>
      </trkpt>
      <trkpt lat="43.64467" lon="3.79773">
        <ele>58</ele>
        <time>2020-08-16T08:35:54.000Z</time>
      </trkpt>
      <trkpt lat="43.64465" lon="3.79775">
        <ele>58</ele>
        <time>2020-08-16T08:35:55.000Z</time>
      </trkpt>
      <trkpt lat="43.64463" lon="3.79778">
        <ele>58</ele>
        <time>2020-08-16T08:35:56.000Z</time>
      </trkpt>
      <trkpt lat="43.64462" lon="3.79781">
        <ele>58</ele>
        <time>2020-08-16T08:35:57.000Z</time>
      </trkpt>
      <trkpt lat="43.64461" lon="3.79785">
        <ele>58</ele>
        <time>2020-08-16T08:35:58.000Z</time>
      </trkpt>
      <trkpt lat="43.6446" lon="3.79789">
        <ele>58</ele>
        <time>2020-08-16T08:35:59.000Z</time>
      </trkpt>
      <trkpt lat="43.64459" lon="3.79793">
        <ele>58</ele>
        <time>2020-08-16T08:36:00.000Z</time>
      </trkpt>
      <trkpt lat="43.64458" lon="3.79797">
        <ele>58</ele>
        <time>2020-08-16T08:36:01.000Z</time>
      </trkpt>
      <trkpt lat="43.64457" lon="3.79801">
        <ele>58</ele>
        <time>2020-08-16T08:36:02.000Z</time>
      </trkpt>
      <trkpt lat="43.64456" lon="3.79806">
        <ele>58</ele>
        <time>2020-08-16T08:36:03.000Z</time>
      </trkpt>
      <trkpt lat="43.64455" lon="3.7981">
        <ele>58</ele>
        <time>2020-08-16T08:36:04.000Z</time>
      </trkpt>
      <trkpt lat="43.64455" lon="3.79815">
        <ele>58</ele>
        <time>2020-08-16T08:36:05.000Z</time>
      </trkpt>
      <trkpt lat="43.64454" lon="3.79819">
        <ele>58</ele>
        <time>2020-08-16T08:36:06.000Z</time>
      </trkpt>
      <trkpt lat="43.64453" lon="3.79823">
        <ele>58</ele>
        <time>2020-08-16T08:36:07.000Z</time>
      </trkpt>
      <trkpt lat="43.64451" lon="3.79828">
        <ele>58</ele>
        <time>2020-08-16T08:36:08.000Z</time>
      </trkpt>
      <trkpt lat="43.64449" lon="3.79831">
        <ele>58</ele>
        <time>2020-08-16T08:36:09.000Z</time>
      </trkpt>
      <trkpt lat="43.64447" lon="3.79835">
        <ele>58</ele>
        <time>2020-08-16T08:36:10.000Z</time>
      </trkpt>
      <trkpt lat="43.64445" lon="3.79838">
        <ele>58</ele>
        <time>2020-08-16T08:36:11.000Z</time>
      </trkpt>
      <trkpt lat="43.64443" lon="3.79842">
        <ele>58</ele>
        <time>2020-08-16T08:36:12.000Z</time>
      </trkpt>
      <trkpt lat="43.64441" lon="3.79846">
        <ele>58</ele>
        <time>2020-08-16T08:36:13.000Z</time>
      </trkpt>
      <trkpt lat="43.6444" lon="3.79851">
        <ele>58</ele>
        <time>2020-08-16T08:36:14.000Z</time>
      </trkpt>
      <trkpt lat="43.6444" lon="3.79856">
        <ele>58</ele>
        <time>2020-08-16T08:36:15.000Z</time>
      </trkpt>
      <trkpt lat="43.64441" lon="3.7986">
        <ele>58</ele>
        <time>2020-08-16T08:36:16.000Z</time>
      </trkpt>
      <trkpt lat="43.64443" lon="3.79864">
        <ele>58</ele>
        <time>2020-08-16T08:36:17.000Z</time>
      </trkpt>
      <trkpt lat="43.64445" lon="3.79868">
        <ele>58</ele>
        <time>2020-08-16T08:36:18.000Z</time>
      </trkpt>
      <trkpt lat="43.64447" lon="3.79871">
        <ele>58</ele>
        <time>2020-08-16T08:36:19.000Z</time>
      </trkpt>
      <trkpt lat="43.6445" lon="3.79875">
        <ele>58</ele>
        <time>2020-08-16T08:36:20.000Z</time>
      </trkpt>
      <trkpt lat="43.64452" lon="3.79878">
        <ele>58</ele>
        <time>2020-08-16T08:36:21.000Z</time>
      </trkpt>
      <trkpt lat="43.64455" lon="3.79881">
        <ele>58</ele>
        <time>2020-08-16T08:36:22.000Z</time>
      </trkpt>
      <trkpt lat="43.64457" lon="3.79884">
        <ele>58</ele>
        <time>2020-08-16T08:36:23.000Z</time>
      </trkpt>
      <trkpt lat="43.6446" lon="3.79887">
        <ele>58</ele>
        <time>2020-08-16T08:36:24.000Z</time>
      </trkpt>
      <trkpt lat="43.64462" lon="3.7989">
        <ele>58</ele>
        <time>2020-08-16T08:36:25.000Z</time>
      </trkpt>
      <trkpt lat="43.64465" lon="3.79892">
        <ele>58</ele>
        <time>2020-08-16T08:36:26.000Z</time>
      </trkpt>
      <trkpt lat="43.64468" lon="3.79895">
        <ele>58</ele>
        <time>2020-08-16T08:36:27.000Z</time>
      </trkpt>
      <trkpt lat="43.6447" lon="3.79898">
        <ele>58</ele>
        <time>2020-08-16T08:36:28.000Z</time>
      </trkpt>
      <trkpt lat="43.64473" lon="3.799">
        <ele>58</ele>
        <time>2020-08-16T08:36:29.000Z</time>
      </trkpt>
      <trkpt lat="43.64475" lon="3.79903">
        <ele>58</ele>
        <time>2020-08-16T08:36:30.000Z</time>
      </trkpt>
      <trkpt lat="43.64478" lon="3.79906">
        <ele>58</ele>
        <time>2020-08-16T08:36:31.000Z</time>
      </trkpt>
      <trkpt lat="43.6448" lon="3.79909">
        <ele>58</ele>
        <time>2020-08-16T08:36:32.000Z</time>
      </trkpt>
      <trkpt lat="43.64483" lon="3.79912">
        <ele>58</ele>
        <time>2020-08-16T08:36:33.000Z</time>
      </trkpt>
      <trkpt lat="43.64485" lon="3.79914">
        <ele>58</ele>
        <time>2020-08-16T08:36:34.000Z</time>
      </trkpt>
      <trkpt lat="43.64488" lon="3.79917">
        <ele>58</ele>
        <time>2020-08-16T08:36:35.000Z</time>
      </trkpt>
      <trkpt lat="43.6449" lon="3.7992">
        <ele>58</ele>
        <time>2020-08-16T08:36:36.000Z</time>
      </trkpt>
      <trkpt lat="43.64493" lon="3.79923">
        <ele>58</ele>
        <time>2020-08-16T08:36:37.000Z</time>
      </trkpt>
      <trkpt lat="43.64495" lon="3.79926">
        <ele>58</ele>
        <time>2020-08-16T08:36:38.000Z</time>
      </trkpt>
      <trkpt lat="43.64498" lon="3.79928">
        <ele>58</ele>
        <time>2020-08-16T08:36:39.000Z</time>
      </trkpt>
      <trkpt lat="43.645" lon="3.79931">
        <ele>58</ele>
        <time>2020-08-16T08:36:40.000Z</time>
      </trkpt>
      <trkpt lat="43.64503" lon="3.79933">
        <ele>58</ele>
        <time>2020-08-16T08:36:41.000Z</time>
      </trkpt>
      <trkpt lat="43.64505" lon="3.79936">
        <ele>58.02641908326</ele>
        <time>2020-08-16T08:36:42.000Z</time>
      </trkpt>
      <trkpt lat="43.64507" lon="3.79938">
        <ele>58.124266380107</ele>
        <time>2020-08-16T08:36:43.000Z</time>
      </trkpt>
      <trkpt lat="43.6451" lon="3.79941">
        <ele>58.222113676954</ele>
        <time>2020-08-16T08:36:44.000Z</time>
      </trkpt>
      <trkpt lat="43.64512" lon="3.79943">
        <ele>58.319960973801</ele>
        <time>2020-08-16T08:36:45.000Z</time>
      </trkpt>
      <trkpt lat="43.64515" lon="3.79946">
        <ele>58.417808270648</ele>
        <time>2020-08-16T08:36:46.000Z</time>
      </trkpt>
      <trkpt lat="43.64517" lon="3.79949">
        <ele>58.515655567496</ele>
        <time>2020-08-16T08:36:47.000Z</time>
      </trkpt>
      <trkpt lat="43.6452" lon="3.79952">
        <ele>58.613502864343</ele>
        <time>2020-08-16T08:36:48.000Z</time>
      </trkpt>
      <trkpt lat="43.64523" lon="3.79955">
        <ele>58.71135016119</ele>
        <time>2020-08-16T08:36:49.000Z</time>
      </trkpt>
      <trkpt lat="43.64525" lon="3.79957">
        <ele>58.809197458037</ele>
        <time>2020-08-16T08:36:50.000Z</time>
      </trkpt>
      <trkpt lat="43.64528" lon="3.7996">
        <ele>58.907044754884</ele>
        <time>2020-08-16T08:36:51.000Z</time>
      </trkpt>
      <trkpt lat="43.6453" lon="3.79963">
        <ele>59.005112150585</ele>
        <time>2020-08-16T08:36:52.000Z</time>
      </trkpt>
      <trkpt lat="43.64533" lon="3.79965">
        <ele>59.107361706249</ele>
        <time>2020-08-16T08:36:53.000Z</time>
      </trkpt>
      <trkpt lat="43.64535" lon="3.79968">
        <ele>59.209611261913</ele>
        <time>2020-08-16T08:36:54.000Z</time>
      </trkpt>
      <trkpt lat="43.64538" lon="3.79971">
        <ele>59.311860817578</ele>
        <time>2020-08-16T08:36:55.000Z</time>
      </trkpt>
      <trkpt lat="43.6454" lon="3.79974">
        <ele>59.414110373242</ele>
        <time>2020-08-16T08:36:56.000Z</time>
      </trkpt>
      <trkpt lat="43.64543" lon="3.79977">
        <ele>59.516359928906</ele>
        <time>2020-08-16T08:36:57.000Z</time>
      </trkpt>
      <trkpt lat="43.64545" lon="3.79979">
        <ele>59.618609484571</ele>
        <time>2020-08-16T08:36:58.000Z</time>
      </trkpt>
      <trkpt lat="43.64548" lon="3.79982">
        <ele>59.720859040235</ele>
        <time>2020-08-16T08:36:59.000Z</time>
      </trkpt>
      <trkpt lat="43.6455" lon="3.79985">
        <ele>59.823108595899</ele>
        <time>2020-08-16T08:37:00.000Z</time>
      </trkpt>
      <trkpt lat="43.64553" lon="3.79988">
        <ele>59.925358151564</ele>
        <time>2020-08-16T08:37:01.000Z</time>
      </trkpt>
      <trkpt lat="43.64555" lon="3.7999">
        <ele>60</ele>
        <time>2020-08-16T08:37:02.000Z</time>
      </trkpt>
      <trkpt lat="43.64557" lon="3.79993">
        <ele>60</ele>
        <time>2020-08-16T08:37:03.000Z</time>
      </trkpt>
      <trkpt lat="43.6456" lon="3.79996">
        <ele>60</ele>
        <time>2020-08-16T08:37:04.000Z</time>
      </trkpt>
      <trkpt lat="43.64562" lon="3.79998">
        <ele>60</ele>
        <time>2020-08-16T08:37:05.000Z</time>
      </trkpt>
      <trkpt lat="43.64563" lon="3.80002">
        <ele>60</ele>
        <time>2020-08-16T08:37:06.000Z</time>
      </trkpt>
      <trkpt lat="43.64565" lon="3.80006">
        <ele>60</ele>
        <time>2020-08-16T08:37:07.000Z</time>
      </trkpt>
      <trkpt lat="43.64565" lon="3.8001">
        <ele>60</ele>
        <time>2020-08-16T08:37:08.000Z</time>
      </trkpt>
      <trkpt lat="43.64564" lon="3.80014">
        <ele>60</ele>
        <time>2020-08-16T08:37:09.000Z</time>
      </trkpt>
      <trkpt lat="43.64562" lon="3.80018">
        <ele>60</ele>
        <time>2020-08-16T08:37:10.000Z</time>
      </trkpt>
      <trkpt lat="43.64561" lon="3.80021">
        <ele>60</ele>
        <time>2020-08-16T08:37:11.000Z</time>
      </trkpt>
      <trkpt lat="43.64559" lon="3.80025">
        <ele>60</ele>
        <time>2020-08-16T08:37:12.000Z</time>
      </trkpt>
      <trkpt lat="43.64557" lon="3.80029">
        <ele>60.100927505359</ele>
        <time>2020-08-16T08:37:13.000Z</time>
      </trkpt>
      <trkpt lat="43.64555" lon="3.80033">
        <ele>60.203914083159</ele>
        <time>2020-08-16T08:37:14.000Z</time>
      </trkpt>
      <trkpt lat="43.64553" lon="3.80037">
        <ele>60.30690066096</ele>
        <time>2020-08-16T08:37:15.000Z</time>
      </trkpt>
      <trkpt lat="43.64552" lon="3.8004">
        <ele>60.40988723876</ele>
        <time>2020-08-16T08:37:16.000Z</time>
      </trkpt>
      <trkpt lat="43.6455" lon="3.80044">
        <ele>60.512873816561</ele>
        <time>2020-08-16T08:37:17.000Z</time>
      </trkpt>
      <trkpt lat="43.64548" lon="3.80047">
        <ele>60.615860394361</ele>
        <time>2020-08-16T08:37:18.000Z</time>
      </trkpt>
      <trkpt lat="43.64547" lon="3.80051">
        <ele>60.718846972162</ele>
        <time>2020-08-16T08:37:19.000Z</time>
      </trkpt>
      <trkpt lat="43.64545" lon="3.80055">
        <ele>60.821833549962</ele>
        <time>2020-08-16T08:37:20.000Z</time>
      </trkpt>
      <trkpt lat="43.64543" lon="3.80059">
        <ele>60.924820127763</ele>
        <time>2020-08-16T08:37:21.000Z</time>
      </trkpt>
      <trkpt lat="43.64542" lon="3.80063">
        <ele>61</ele>
        <time>2020-08-16T08:37:22.000Z</time>
      </trkpt>
      <trkpt lat="43.64541" lon="3.80067">
        <ele>61</ele>
        <time>2020-08-16T08:37:23.000Z</time>
      </trkpt>
      <trkpt lat="43.64539" lon="3.8007">
        <ele>61</ele>
        <time>2020-08-16T08:37:24.000Z</time>
      </trkpt>
      <trkpt lat="43.64538" lon="3.80074">
        <ele>61</ele>
        <time>2020-08-16T08:37:25.000Z</time>
      </trkpt>
      <trkpt lat="43.64536" lon="3.80077">
        <ele>61</ele>
        <time>2020-08-16T08:37:26.000Z</time>
      </trkpt>
      <trkpt lat="43.64534" lon="3.80079">
        <ele>61</ele>
        <time>2020-08-16T08:37:27.000Z</time>
      </trkpt>
      <trkpt lat="43.64532" lon="3.80082">
        <ele>61</ele>
        <time>2020-08-16T08:37:28.000Z</time>
      </trkpt>
      <trkpt lat="43.6453" lon="3.80085">
        <ele>61</ele>
        <time>2020-08-16T08:37:29.000Z</time>
      </trkpt>
      <trkpt lat="43.64528" lon="3.80089">
        <ele>61</ele>
        <time>2020-08-16T08:37:30.000Z</time>
      </trkpt>
      <trkpt lat="43.64526" lon="3.80093">
        <ele>61</ele>
        <time>2020-08-16T08:37:31.000Z</time>
      </trkpt>
      <trkpt lat="43.64525" lon="3.80098">
        <ele>61</ele>
        <time>2020-08-16T08:37:32.000Z</time>
      </trkpt>
      <trkpt lat="43.64523" lon="3.80104">
        <ele>61</ele>
        <time>2020-08-16T08:37:33.000Z</time>
      </trkpt>
      <trkpt lat="43.64522" lon="3.8011">
        <ele>61</ele>
        <time>2020-08-16T08:37:34.000Z</time>
      </trkpt>
      <trkpt lat="43.64522" lon="3.80116">
        <ele>61</ele>
        <time>2020-08-16T08:37:35.000Z</time>
      </trkpt>
      <trkpt lat="43.64522" lon="3.80122">
        <ele>61</ele>
        <time>2020-08-16T08:37:36.000Z</time>
      </trkpt>
      <trkpt lat="43.64522" lon="3.80128">
        <ele>61</ele>
        <time>2020-08-16T08:37:37.000Z</time>
      </trkpt>
      <trkpt lat="43.64523" lon="3.80133">
        <ele>61</ele>
        <time>2020-08-16T08:37:38.000Z</time>
      </trkpt>
      <trkpt lat="43.64525" lon="3.80138">
        <ele>61</ele>
        <time>2020-08-16T08:37:39.000Z</time>
      </trkpt>
      <trkpt lat="43.64527" lon="3.80142">
        <ele>61</ele>
        <time>2020-08-16T08:37:40.000Z</time>
      </trkpt>
      <trkpt lat="43.6453" lon="3.80146">
        <ele>61</ele>
        <time>2020-08-16T08:37:41.000Z</time>
      </trkpt>
      <trkpt lat="43.64534" lon="3.8015">
        <ele>61</ele>
        <time>2020-08-16T08:37:42.000Z</time>
      </trkpt>
      <trkpt lat="43.64537" lon="3.80153">
        <ele>61</ele>
        <time>2020-08-16T08:37:43.000Z</time>
      </trkpt>
      <trkpt lat="43.64539" lon="3.80157">
        <ele>61</ele>
        <time>2020-08-16T08:37:44.000Z</time>
      </trkpt>
      <trkpt lat="43.64542" lon="3.80161">
        <ele>61</ele>
        <time>2020-08-16T08:37:45.000Z</time>
      </trkpt>
      <trkpt lat="43.64545" lon="3.80164">
        <ele>61</ele>
        <time>2020-08-16T08:37:46.000Z</time>
      </trkpt>
      <trkpt lat="43.64548" lon="3.80167">
        <ele>61</ele>
        <time>2020-08-16T08:37:47.000Z</time>
      </trkpt>
      <trkpt lat="43.64551" lon="3.8017">
        <ele>61</ele>
        <time>2020-08-16T08:37:48.000Z</time>
      </trkpt>
      <trkpt lat="43.64554" lon="3.80173">
        <ele>61</ele>
        <time>2020-08-16T08:37:49.000Z</time>
      </trkpt>
      <trkpt lat="43.64557" lon="3.80176">
        <ele>61</ele>
        <time>2020-08-16T08:37:50.000Z</time>
      </trkpt>
      <trkpt lat="43.6456" lon="3.80178">
        <ele>61</ele>
        <time>2020-08-16T08:37:51.000Z</time>
      </trkpt>
      <trkpt lat="43.64563" lon="3.80181">
        <ele>61</ele>
        <time>2020-08-16T08:37:52.000Z</time>
      </trkpt>
      <trkpt lat="43.64566" lon="3.80183">
        <ele>61</ele>
        <time>2020-08-16T08:37:53.000Z</time>
      </trkpt>
      <trkpt lat="43.64569" lon="3.80186">
        <ele>61</ele>
        <time>2020-08-16T08:37:54.000Z</time>
      </trkpt>
      <trkpt lat="43.64571" lon="3.80189">
        <ele>61</ele>
        <time>2020-08-16T08:37:55.000Z</time>
      </trkpt>
      <trkpt lat="43.64573" lon="3.80193">
        <ele>61</ele>
        <time>2020-08-16T08:37:56.000Z</time>
      </trkpt>
      <trkpt lat="43.64575" lon="3.80197">
        <ele>61</ele>
        <time>2020-08-16T08:37:57.000Z</time>
      </trkpt>
      <trkpt lat="43.64575" lon="3.80202">
        <ele>61</ele>
        <time>2020-08-16T08:37:58.000Z</time>
      </trkpt>
      <trkpt lat="43.64576" lon="3.80207">
        <ele>61</ele>
        <time>2020-08-16T08:37:59.000Z</time>
      </trkpt>
      <trkpt lat="43.64577" lon="3.80211">
        <ele>61</ele>
        <time>2020-08-16T08:38:00.000Z</time>
      </trkpt>
      <trkpt lat="43.6458" lon="3.80215">
        <ele>61</ele>
        <time>2020-08-16T08:38:01.000Z</time>
      </trkpt>
      <trkpt lat="43.64582" lon="3.80219">
        <ele>61.026239386197</ele>
        <time>2020-08-16T08:38:02.000Z</time>
      </trkpt>
      <trkpt lat="43.64586" lon="3.80222">
        <ele>61.123421146253</ele>
        <time>2020-08-16T08:38:03.000Z</time>
      </trkpt>
      <trkpt lat="43.64589" lon="3.80224">
        <ele>61.22060290631</ele>
        <time>2020-08-16T08:38:04.000Z</time>
      </trkpt>
      <trkpt lat="43.64592" lon="3.80227">
        <ele>61.317784666366</ele>
        <time>2020-08-16T08:38:05.000Z</time>
      </trkpt>
      <trkpt lat="43.64596" lon="3.80229">
        <ele>61.414966426423</ele>
        <time>2020-08-16T08:38:06.000Z</time>
      </trkpt>
      <trkpt lat="43.64599" lon="3.80231">
        <ele>61.51214818648</ele>
        <time>2020-08-16T08:38:07.000Z</time>
      </trkpt>
      <trkpt lat="43.64602" lon="3.80233">
        <ele>61.609329946536</ele>
        <time>2020-08-16T08:38:08.000Z</time>
      </trkpt>
      <trkpt lat="43.64604" lon="3.80235">
        <ele>61.706511706593</ele>
        <time>2020-08-16T08:38:09.000Z</time>
      </trkpt>
      <trkpt lat="43.64607" lon="3.80238">
        <ele>61.803693466649</ele>
        <time>2020-08-16T08:38:10.000Z</time>
      </trkpt>
      <trkpt lat="43.64609" lon="3.8024">
        <ele>61.900875226706</ele>
        <time>2020-08-16T08:38:11.000Z</time>
      </trkpt>
      <trkpt lat="43.6461" lon="3.80244">
        <ele>61.998056986762</ele>
        <time>2020-08-16T08:38:12.000Z</time>
      </trkpt>
      <trkpt lat="43.6461" lon="3.80247">
        <ele>62</ele>
        <time>2020-08-16T08:38:13.000Z</time>
      </trkpt>
      <trkpt lat="43.64609" lon="3.8025">
        <ele>62</ele>
        <time>2020-08-16T08:38:14.000Z</time>
      </trkpt>
      <trkpt lat="43.64607" lon="3.80253">
        <ele>62</ele>
        <time>2020-08-16T08:38:15.000Z</time>
      </trkpt>
      <trkpt lat="43.64604" lon="3.80256">
        <ele>62</ele>
        <time>2020-08-16T08:38:16.000Z</time>
      </trkpt>
      <trkpt lat="43.64602" lon="3.80259">
        <ele>62</ele>
        <time>2020-08-16T08:38:17.000Z</time>
      </trkpt>
      <trkpt lat="43.64599" lon="3.80263">
        <ele>62</ele>
        <time>2020-08-16T08:38:18.000Z</time>
      </trkpt>
      <trkpt lat="43.64596" lon="3.80266">
        <ele>62</ele>
        <time>2020-08-16T08:38:19.000Z</time>
      </trkpt>
      <trkpt lat="43.64593" lon="3.80269">
        <ele>62</ele>
        <time>2020-08-16T08:38:20.000Z</time>
      </trkpt>
      <trkpt lat="43.6459" lon="3.80272">
        <ele>62</ele>
        <time>2020-08-16T08:38:21.000Z</time>
      </trkpt>
      <trkpt lat="43.64588" lon="3.80276">
        <ele>62</ele>
        <time>2020-08-16T08:38:22.000Z</time>
      </trkpt>
      <trkpt lat="43.64585" lon="3.8028">
        <ele>62</ele>
        <time>2020-08-16T08:38:23.000Z</time>
      </trkpt>
      <trkpt lat="43.64583" lon="3.80284">
        <ele>62</ele>
        <time>2020-08-16T08:38:24.000Z</time>
      </trkpt>
      <trkpt lat="43.64582" lon="3.80288">
        <ele>62</ele>
        <time>2020-08-16T08:38:25.000Z</time>
      </trkpt>
      <trkpt lat="43.64582" lon="3.80292">
        <ele>62</ele>
        <time>2020-08-16T08:38:26.000Z</time>
      </trkpt>
      <trkpt lat="43.64584" lon="3.80296">
        <ele>62</ele>
        <time>2020-08-16T08:38:27.000Z</time>
      </trkpt>
      <trkpt lat="43.64586" lon="3.803">
        <ele>62</ele>
        <time>2020-08-16T08:38:28.000Z</time>
      </trkpt>
      <trkpt lat="43.64588" lon="3.80303">
        <ele>62</ele>
        <time>2020-08-16T08:38:29.000Z</time>
      </trkpt>
      <trkpt lat="43.64591" lon="3.80307">
        <ele>62</ele>
        <time>2020-08-16T08:38:30.000Z</time>
      </trkpt>
      <trkpt lat="43.64593" lon="3.8031">
        <ele>62</ele>
        <time>2020-08-16T08:38:31.000Z</time>
      </trkpt>
      <trkpt lat="43.64596" lon="3.80313">
        <ele>62</ele>
        <time>2020-08-16T08:38:32.000Z</time>
      </trkpt>
      <trkpt lat="43.64599" lon="3.80315">
        <ele>62</ele>
        <time>2020-08-16T08:38:33.000Z</time>
      </trkpt>
      <trkpt lat="43.64602" lon="3.80315">
        <ele>62</ele>
        <time>2020-08-16T08:38:34.000Z</time>
      </trkpt>
      <trkpt lat="43.64606" lon="3.80315">
        <ele>62</ele>
        <time>2020-08-16T08:38:35.000Z</time>
      </trkpt>
      <trkpt lat="43.64609" lon="3.80314">
        <ele>62</ele>
        <time>2020-08-16T08:38:36.000Z</time>
      </trkpt>
      <trkpt lat="43.64612" lon="3.80311">
        <ele>62</ele>
        <time>2020-08-16T08:38:37.000Z</time>
      </trkpt>
      <trkpt lat="43.64615" lon="3.80308">
        <ele>62</ele>
        <time>2020-08-16T08:38:38.000Z</time>
      </trkpt>
      <trkpt lat="43.64618" lon="3.80305">
        <ele>62</ele>
        <time>2020-08-16T08:38:39.000Z</time>
      </trkpt>
      <trkpt lat="43.64621" lon="3.80302">
        <ele>62</ele>
        <time>2020-08-16T08:38:40.000Z</time>
      </trkpt>
      <trkpt lat="43.64624" lon="3.80299">
        <ele>62</ele>
        <time>2020-08-16T08:38:41.000Z</time>
      </trkpt>
      <trkpt lat="43.64626" lon="3.80296">
        <ele>62</ele>
        <time>2020-08-16T08:38:42.000Z</time>
      </trkpt>
      <trkpt lat="43.64629" lon="3.80293">
        <ele>62</ele>
        <time>2020-08-16T08:38:43.000Z</time>
      </trkpt>
      <trkpt lat="43.64632" lon="3.80291">
        <ele>62</ele>
        <time>2020-08-16T08:38:44.000Z</time>
      </trkpt>
      <trkpt lat="43.64635" lon="3.80289">
        <ele>62</ele>
        <time>2020-08-16T08:38:45.000Z</time>
      </trkpt>
      <trkpt lat="43.64638" lon="3.80286">
        <ele>62</ele>
        <time>2020-08-16T08:38:46.000Z</time>
      </trkpt>
      <trkpt lat="43.64641" lon="3.80285">
        <ele>62</ele>
        <time>2020-08-16T08:38:47.000Z</time>
      </trkpt>
      <trkpt lat="43.64644" lon="3.80283">
        <ele>62</ele>
        <time>2020-08-16T08:38:48.000Z</time>
      </trkpt>
      <trkpt lat="43.64648" lon="3.80281">
        <ele>62</ele>
        <time>2020-08-16T08:38:49.000Z</time>
      </trkpt>
      <trkpt lat="43.64651" lon="3.8028">
        <ele>62</ele>
        <time>2020-08-16T08:38:50.000Z</time>
      </trkpt>
      <trkpt lat="43.64654" lon="3.80278">
        <ele>62</ele>
        <time>2020-08-16T08:38:51.000Z</time>
      </trkpt>
      <trkpt lat="43.64657" lon="3.80277">
        <ele>62.02700032</ele>
        <time>2020-08-16T08:38:52.000Z</time>
      </trkpt>
      <trkpt lat="43.6466" lon="3.80275">
        <ele>62.12700032</ele>
        <time>2020-08-16T08:38:53.000Z</time>
      </trkpt>
      <trkpt lat="43.64663" lon="3.80274">
        <ele>62.22700032</ele>
        <time>2020-08-16T08:38:54.000Z</time>
      </trkpt>
      <trkpt lat="43.64666" lon="3.80273">
        <ele>62.32700032</ele>
        <time>2020-08-16T08:38:55.000Z</time>
      </trkpt>
      <trkpt lat="43.64669" lon="3.80272">
        <ele>62.42700032</ele>
        <time>2020-08-16T08:38:56.000Z</time>
      </trkpt>
      <trkpt lat="43.64672" lon="3.80272">
        <ele>62.52700032</ele>
        <time>2020-08-16T08:38:57.000Z</time>
      </trkpt>
      <trkpt lat="43.64674" lon="3.80275">
        <ele>62.62700032</ele>
        <time>2020-08-16T08:38:58.000Z</time>
      </trkpt>
      <trkpt lat="43.64675" lon="3.80278">
        <ele>62.72700032</ele>
        <time>2020-08-16T08:38:59.000Z</time>
      </trkpt>
      <trkpt lat="43.64676" lon="3.80282">
        <ele>62.82700032</ele>
        <time>2020-08-16T08:39:00.000Z</time>
      </trkpt>
      <trkpt lat="43.64675" lon="3.80286">
        <ele>62.92700032</ele>
        <time>2020-08-16T08:39:01.000Z</time>
      </trkpt>
      <trkpt lat="43.64675" lon="3.8029">
        <ele>63.02700032</ele>
        <time>2020-08-16T08:39:02.000Z</time>
      </trkpt>
      <trkpt lat="43.64674" lon="3.80294">
        <ele>63.12700032</ele>
        <time>2020-08-16T08:39:03.000Z</time>
      </trkpt>
      <trkpt lat="43.64674" lon="3.80299">
        <ele>63.22700032</ele>
        <time>2020-08-16T08:39:04.000Z</time>
      </trkpt>
      <trkpt lat="43.64673" lon="3.80304">
        <ele>63.32700032</ele>
        <time>2020-08-16T08:39:05.000Z</time>
      </trkpt>
      <trkpt lat="43.64673" lon="3.80309">
        <ele>63.42700032</ele>
        <time>2020-08-16T08:39:06.000Z</time>
      </trkpt>
      <trkpt lat="43.64673" lon="3.80313">
        <ele>63.52700032</ele>
        <time>2020-08-16T08:39:07.000Z</time>
      </trkpt>
      <trkpt lat="43.64672" lon="3.80318">
        <ele>63.62700032</ele>
        <time>2020-08-16T08:39:08.000Z</time>
      </trkpt>
      <trkpt lat="43.64672" lon="3.80323">
        <ele>63.72700032</ele>
        <time>2020-08-16T08:39:09.000Z</time>
      </trkpt>
      <trkpt lat="43.64672" lon="3.80328">
        <ele>63.82700032</ele>
        <time>2020-08-16T08:39:10.000Z</time>
      </trkpt>
      <trkpt lat="43.64671" lon="3.80333">
        <ele>63.92700032</ele>
        <time>2020-08-16T08:39:11.000Z</time>
      </trkpt>
      <trkpt lat="43.64671" lon="3.80338">
        <ele>64</ele>
        <time>2020-08-16T08:39:12.000Z</time>
      </trkpt>
      <trkpt lat="43.6467" lon="3.80343">
        <ele>64</ele>
        <time>2020-08-16T08:39:13.000Z</time>
      </trkpt>
      <trkpt lat="43.6467" lon="3.80348">
        <ele>64</ele>
        <time>2020-08-16T08:39:14.000Z</time>
      </trkpt>
      <trkpt lat="43.6467" lon="3.80353">
        <ele>64</ele>
        <time>2020-08-16T08:39:15.000Z</time>
      </trkpt>
      <trkpt lat="43.64669" lon="3.80357">
        <ele>64</ele>
        <time>2020-08-16T08:39:16.000Z</time>
      </trkpt>
      <trkpt lat="43.64669" lon="3.80362">
        <ele>64</ele>
        <time>2020-08-16T08:39:17.000Z</time>
      </trkpt>
      <trkpt lat="43.64669" lon="3.80367">
        <ele>64</ele>
        <time>2020-08-16T08:39:18.000Z</time>
      </trkpt>
      <trkpt lat="43.64669" lon="3.80372">
        <ele>64</ele>
        <time>2020-08-16T08:39:19.000Z</time>
      </trkpt>
      <trkpt lat="43.64669" lon="3.80376">
        <ele>64</ele>
        <time>2020-08-16T08:39:20.000Z</time>
      </trkpt>
      <trkpt lat="43.64668" lon="3.80381">
        <ele>64</ele>
        <time>2020-08-16T08:39:21.000Z</time>
      </trkpt>
      <trkpt lat="43.64668" lon="3.80386">
        <ele>63.97299968</ele>
        <time>2020-08-16T08:39:22.000Z</time>
      </trkpt>
      <trkpt lat="43.64667" lon="3.80391">
        <ele>63.87299968</ele>
        <time>2020-08-16T08:39:23.000Z</time>
      </trkpt>
      <trkpt lat="43.64667" lon="3.80395">
        <ele>63.77299968</ele>
        <time>2020-08-16T08:39:24.000Z</time>
      </trkpt>
      <trkpt lat="43.64666" lon="3.804">
        <ele>63.67299968</ele>
        <time>2020-08-16T08:39:25.000Z</time>
      </trkpt>
      <trkpt lat="43.64666" lon="3.80405">
        <ele>63.57299968</ele>
        <time>2020-08-16T08:39:26.000Z</time>
      </trkpt>
      <trkpt lat="43.64665" lon="3.8041">
        <ele>63.47299968</ele>
        <time>2020-08-16T08:39:27.000Z</time>
      </trkpt>
      <trkpt lat="43.64665" lon="3.80415">
        <ele>63.37299968</ele>
        <time>2020-08-16T08:39:28.000Z</time>
      </trkpt>
      <trkpt lat="43.64665" lon="3.8042">
        <ele>63.27299968</ele>
        <time>2020-08-16T08:39:29.000Z</time>
      </trkpt>
      <trkpt lat="43.64665" lon="3.80425">
        <ele>63.17299968</ele>
        <time>2020-08-16T08:39:30.000Z</time>
      </trkpt>
      <trkpt lat="43.64664" lon="3.8043">
        <ele>63.07299968</ele>
        <time>2020-08-16T08:39:31.000Z</time>
      </trkpt>
      <trkpt lat="43.64664" lon="3.80435">
        <ele>63</ele>
        <time>2020-08-16T08:39:32.000Z</time>
      </trkpt>
      <trkpt lat="43.64665" lon="3.8044">
        <ele>63</ele>
        <time>2020-08-16T08:39:33.000Z</time>
      </trkpt>
      <trkpt lat="43.64666" lon="3.80444">
        <ele>63</ele>
        <time>2020-08-16T08:39:34.000Z</time>
      </trkpt>
      <trkpt lat="43.64666" lon="3.80449">
        <ele>63</ele>
        <time>2020-08-16T08:39:35.000Z</time>
      </trkpt>
      <trkpt lat="43.64667" lon="3.80453">
        <ele>63</ele>
        <time>2020-08-16T08:39:36.000Z</time>
      </trkpt>
      <trkpt lat="43.64667" lon="3.80458">
        <ele>63</ele>
        <time>2020-08-16T08:39:37.000Z</time>
      </trkpt>
      <trkpt lat="43.64668" lon="3.80463">
        <ele>63</ele>
        <time>2020-08-16T08:39:38.000Z</time>
      </trkpt>
      <trkpt lat="43.64668" lon="3.80467">
        <ele>63</ele>
        <time>2020-08-16T08:39:39.000Z</time>
      </trkpt>
      <trkpt lat="43.64669" lon="3.80472">
        <ele>63</ele>
        <time>2020-08-16T08:39:40.000Z</time>
      </trkpt>
      <trkpt lat="43.64669" lon="3.80477">
        <ele>63</ele>
        <time>2020-08-16T08:39:41.000Z</time>
      </trkpt>
      <trkpt lat="43.6467" lon="3.80482">
        <ele>62.97299968</ele>
        <time>2020-08-16T08:39:42.000Z</time>
      </trkpt>
      <trkpt lat="43.6467" lon="3.80487">
        <ele>62.87299968</ele>
        <time>2020-08-16T08:39:43.000Z</time>
      </trkpt>
      <trkpt lat="43.64671" lon="3.80492">
        <ele>62.77299968</ele>
        <time>2020-08-16T08:39:44.000Z</time>
      </trkpt>
      <trkpt lat="43.64672" lon="3.80497">
        <ele>62.67299968</ele>
        <time>2020-08-16T08:39:45.000Z</time>
      </trkpt>
      <trkpt lat="43.64673" lon="3.80502">
        <ele>62.57299968</ele>
        <time>2020-08-16T08:39:46.000Z</time>
      </trkpt>
      <trkpt lat="43.64673" lon="3.80507">
        <ele>62.47299968</ele>
        <time>2020-08-16T08:39:47.000Z</time>
      </trkpt>
      <trkpt lat="43.64674" lon="3.80512">
        <ele>62.37299968</ele>
        <time>2020-08-16T08:39:48.000Z</time>
      </trkpt>
      <trkpt lat="43.64674" lon="3.80517">
        <ele>62.27299968</ele>
        <time>2020-08-16T08:39:49.000Z</time>
      </trkpt>
      <trkpt lat="43.64675" lon="3.80522">
        <ele>62.17299968</ele>
        <time>2020-08-16T08:39:50.000Z</time>
      </trkpt>
      <trkpt lat="43.64675" lon="3.80527">
        <ele>62.07299968</ele>
        <time>2020-08-16T08:39:51.000Z</time>
      </trkpt>
      <trkpt lat="43.64675" lon="3.80531">
        <ele>62</ele>
        <time>2020-08-16T08:39:52.000Z</time>
      </trkpt>
      <trkpt lat="43.64676" lon="3.80536">
        <ele>62</ele>
        <time>2020-08-16T08:39:53.000Z</time>
      </trkpt>
      <trkpt lat="43.64676" lon="3.80541">
        <ele>62</ele>
        <time>2020-08-16T08:39:54.000Z</time>
      </trkpt>
      <trkpt lat="43.64677" lon="3.80546">
        <ele>62</ele>
        <time>2020-08-16T08:39:55.000Z</time>
      </trkpt>
      <trkpt lat="43.64677" lon="3.80551">
        <ele>62</ele>
        <time>2020-08-16T08:39:56.000Z</time>
      </trkpt>
      <trkpt lat="43.64677" lon="3.80556">
        <ele>62</ele>
        <time>2020-08-16T08:39:57.000Z</time>
      </trkpt>
      <trkpt lat="43.64677" lon="3.80561">
        <ele>62</ele>
        <time>2020-08-16T08:39:58.000Z</time>
      </trkpt>
      <trkpt lat="43.64678" lon="3.80565">
        <ele>62</ele>
        <time>2020-08-16T08:39:59.000Z</time>
      </trkpt>
      <trkpt lat="43.64678" lon="3.8057">
        <ele>62</ele>
        <time>2020-08-16T08:40:00.000Z</time>
      </trkpt>
      <trkpt lat="43.64678" lon="3.80575">
        <ele>62</ele>
        <time>2020-08-16T08:40:01.000Z</time>
      </trkpt>
      <trkpt lat="43.64679" lon="3.8058">
        <ele>62</ele>
        <time>2020-08-16T08:40:02.000Z</time>
      </trkpt>
      <trkpt lat="43.64679" lon="3.80584">
        <ele>62</ele>
        <time>2020-08-16T08:40:03.000Z</time>
      </trkpt>
      <trkpt lat="43.64679" lon="3.80589">
        <ele>62</ele>
        <time>2020-08-16T08:40:04.000Z</time>
      </trkpt>
      <trkpt lat="43.6468" lon="3.80593">
        <ele>62</ele>
        <time>2020-08-16T08:40:05.000Z</time>
      </trkpt>
      <trkpt lat="43.6468" lon="3.80598">
        <ele>62</ele>
        <time>2020-08-16T08:40:06.000Z</time>
      </trkpt>
      <trkpt lat="43.64681" lon="3.80603">
        <ele>62</ele>
        <time>2020-08-16T08:40:07.000Z</time>
      </trkpt>
      <trkpt lat="43.64681" lon="3.80607">
        <ele>62</ele>
        <time>2020-08-16T08:40:08.000Z</time>
      </trkpt>
      <trkpt lat="43.64682" lon="3.80612">
        <ele>62</ele>
        <time>2020-08-16T08:40:09.000Z</time>
      </trkpt>
      <trkpt lat="43.64682" lon="3.80617">
        <ele>62</ele>
        <time>2020-08-16T08:40:10.000Z</time>
      </trkpt>
      <trkpt lat="43.64681" lon="3.80622">
        <ele>62</ele>
        <time>2020-08-16T08:40:11.000Z</time>
      </trkpt>
      <trkpt lat="43.64681" lon="3.80627">
        <ele>62.026946409934</ele>
        <time>2020-08-16T08:40:12.000Z</time>
      </trkpt>
      <trkpt lat="43.64681" lon="3.80632">
        <ele>62.126746745391</ele>
        <time>2020-08-16T08:40:13.000Z</time>
      </trkpt>
      <trkpt lat="43.6468" lon="3.80636">
        <ele>62.226547080848</ele>
        <time>2020-08-16T08:40:14.000Z</time>
      </trkpt>
      <trkpt lat="43.6468" lon="3.80641">
        <ele>62.326347416305</ele>
        <time>2020-08-16T08:40:15.000Z</time>
      </trkpt>
      <trkpt lat="43.6468" lon="3.80646">
        <ele>62.426147751762</ele>
        <time>2020-08-16T08:40:16.000Z</time>
      </trkpt>
      <trkpt lat="43.64679" lon="3.80651">
        <ele>62.525948087219</ele>
        <time>2020-08-16T08:40:17.000Z</time>
      </trkpt>
      <trkpt lat="43.64679" lon="3.80655">
        <ele>62.625748422676</ele>
        <time>2020-08-16T08:40:18.000Z</time>
      </trkpt>
      <trkpt lat="43.64679" lon="3.8066">
        <ele>62.725548758132</ele>
        <time>2020-08-16T08:40:19.000Z</time>
      </trkpt>
      <trkpt lat="43.64679" lon="3.80665">
        <ele>62.825349093589</ele>
        <time>2020-08-16T08:40:20.000Z</time>
      </trkpt>
      <trkpt lat="43.64678" lon="3.8067">
        <ele>62.925149429046</ele>
        <time>2020-08-16T08:40:21.000Z</time>
      </trkpt>
      <trkpt lat="43.64678" lon="3.80674">
        <ele>63</ele>
        <time>2020-08-16T08:40:22.000Z</time>
      </trkpt>
      <trkpt lat="43.64678" lon="3.80679">
        <ele>63</ele>
        <time>2020-08-16T08:40:23.000Z</time>
      </trkpt>
      <trkpt lat="43.64678" lon="3.80684">
        <ele>63</ele>
        <time>2020-08-16T08:40:24.000Z</time>
      </trkpt>
      <trkpt lat="43.64677" lon="3.80689">
        <ele>63</ele>
        <time>2020-08-16T08:40:25.000Z</time>
      </trkpt>
      <trkpt lat="43.64677" lon="3.80693">
        <ele>63</ele>
        <time>2020-08-16T08:40:26.000Z</time>
      </trkpt>
      <trkpt lat="43.64677" lon="3.80698">
        <ele>63</ele>
        <time>2020-08-16T08:40:27.000Z</time>
      </trkpt>
      <trkpt lat="43.64675" lon="3.80703">
        <ele>63</ele>
        <time>2020-08-16T08:40:28.000Z</time>
      </trkpt>
      <trkpt lat="43.64674" lon="3.80708">
        <ele>63</ele>
        <time>2020-08-16T08:40:29.000Z</time>
      </trkpt>
      <trkpt lat="43.64673" lon="3.80712">
        <ele>63</ele>
        <time>2020-08-16T08:40:30.000Z</time>
      </trkpt>
      <trkpt lat="43.64671" lon="3.80717">
        <ele>63</ele>
        <time>2020-08-16T08:40:31.000Z</time>
      </trkpt>
      <trkpt lat="43.6467" lon="3.80722">
        <ele>63</ele>
        <time>2020-08-16T08:40:32.000Z</time>
      </trkpt>
      <trkpt lat="43.6467" lon="3.80726">
        <ele>63.10185218107</ele>
        <time>2020-08-16T08:40:33.000Z</time>
      </trkpt>
      <trkpt lat="43.64669" lon="3.80731">
        <ele>63.204732839506</ele>
        <time>2020-08-16T08:40:34.000Z</time>
      </trkpt>
      <trkpt lat="43.64669" lon="3.80736">
        <ele>63.307613497942</ele>
        <time>2020-08-16T08:40:35.000Z</time>
      </trkpt>
      <trkpt lat="43.64668" lon="3.80742">
        <ele>63.410494156379</ele>
        <time>2020-08-16T08:40:36.000Z</time>
      </trkpt>
      <trkpt lat="43.64668" lon="3.80747">
        <ele>63.513374814815</ele>
        <time>2020-08-16T08:40:37.000Z</time>
      </trkpt>
      <trkpt lat="43.64667" lon="3.80752">
        <ele>63.616255473251</ele>
        <time>2020-08-16T08:40:38.000Z</time>
      </trkpt>
      <trkpt lat="43.64666" lon="3.80757">
        <ele>63.719136131687</ele>
        <time>2020-08-16T08:40:39.000Z</time>
      </trkpt>
      <trkpt lat="43.64664" lon="3.80761">
        <ele>63.822016790123</ele>
        <time>2020-08-16T08:40:40.000Z</time>
      </trkpt>
      <trkpt lat="43.64663" lon="3.80765">
        <ele>63.92489744856</ele>
        <time>2020-08-16T08:40:41.000Z</time>
      </trkpt>
      <trkpt lat="43.64661" lon="3.8077">
        <ele>64</ele>
        <time>2020-08-16T08:40:42.000Z</time>
      </trkpt>
      <trkpt lat="43.6466" lon="3.80774">
        <ele>64</ele>
        <time>2020-08-16T08:40:43.000Z</time>
      </trkpt>
      <trkpt lat="43.64659" lon="3.80779">
        <ele>64</ele>
        <time>2020-08-16T08:40:44.000Z</time>
      </trkpt>
      <trkpt lat="43.64657" lon="3.80783">
        <ele>64</ele>
        <time>2020-08-16T08:40:45.000Z</time>
      </trkpt>
      <trkpt lat="43.64656" lon="3.80788">
        <ele>64</ele>
        <time>2020-08-16T08:40:46.000Z</time>
      </trkpt>
      <trkpt lat="43.64654" lon="3.80792">
        <ele>64</ele>
        <time>2020-08-16T08:40:47.000Z</time>
      </trkpt>
      <trkpt lat="43.64652" lon="3.80796">
        <ele>64</ele>
        <time>2020-08-16T08:40:48.000Z</time>
      </trkpt>
      <trkpt lat="43.6465" lon="3.808">
        <ele>64</ele>
        <time>2020-08-16T08:40:49.000Z</time>
      </trkpt>
      <trkpt lat="43.64648" lon="3.80805">
        <ele>64</ele>
        <time>2020-08-16T08:40:50.000Z</time>
      </trkpt>
      <trkpt lat="43.64646" lon="3.80809">
        <ele>64</ele>
        <time>2020-08-16T08:40:51.000Z</time>
      </trkpt>
      <trkpt lat="43.64645" lon="3.80814">
        <ele>64</ele>
        <time>2020-08-16T08:40:52.000Z</time>
      </trkpt>
      <trkpt lat="43.64644" lon="3.80818">
        <ele>64</ele>
        <time>2020-08-16T08:40:53.000Z</time>
      </trkpt>
      <trkpt lat="43.64642" lon="3.80823">
        <ele>64</ele>
        <time>2020-08-16T08:40:54.000Z</time>
      </trkpt>
      <trkpt lat="43.64641" lon="3.80829">
        <ele>64</ele>
        <time>2020-08-16T08:40:55.000Z</time>
      </trkpt>
      <trkpt lat="43.6464" lon="3.80834">
        <ele>64</ele>
        <time>2020-08-16T08:40:56.000Z</time>
      </trkpt>
      <trkpt lat="43.64638" lon="3.80839">
        <ele>64</ele>
        <time>2020-08-16T08:40:57.000Z</time>
      </trkpt>
      <trkpt lat="43.64637" lon="3.80844">
        <ele>64</ele>
        <time>2020-08-16T08:40:58.000Z</time>
      </trkpt>
      <trkpt lat="43.64636" lon="3.80849">
        <ele>64</ele>
        <time>2020-08-16T08:40:59.000Z</time>
      </trkpt>
      <trkpt lat="43.64635" lon="3.80854">
        <ele>64</ele>
        <time>2020-08-16T08:41:00.000Z</time>
      </trkpt>
      <trkpt lat="43.64634" lon="3.80859">
        <ele>64</ele>
        <time>2020-08-16T08:41:01.000Z</time>
      </trkpt>
      <trkpt lat="43.64633" lon="3.80864">
        <ele>64.025049795623</ele>
        <time>2020-08-16T08:41:02.000Z</time>
      </trkpt>
      <trkpt lat="43.64631" lon="3.80869">
        <ele>64.125250260681</ele>
        <time>2020-08-16T08:41:03.000Z</time>
      </trkpt>
      <trkpt lat="43.6463" lon="3.80874">
        <ele>64.22545072574</ele>
        <time>2020-08-16T08:41:04.000Z</time>
      </trkpt>
      <trkpt lat="43.64629" lon="3.80879">
        <ele>64.325651190798</ele>
        <time>2020-08-16T08:41:05.000Z</time>
      </trkpt>
      <trkpt lat="43.64628" lon="3.80883">
        <ele>64.425851655857</ele>
        <time>2020-08-16T08:41:06.000Z</time>
      </trkpt>
      <trkpt lat="43.64627" lon="3.80888">
        <ele>64.526052120915</ele>
        <time>2020-08-16T08:41:07.000Z</time>
      </trkpt>
      <trkpt lat="43.64626" lon="3.80893">
        <ele>64.626252585974</ele>
        <time>2020-08-16T08:41:08.000Z</time>
      </trkpt>
      <trkpt lat="43.64625" lon="3.80898">
        <ele>64.726453051032</ele>
        <time>2020-08-16T08:41:09.000Z</time>
      </trkpt>
      <trkpt lat="43.64623" lon="3.80902">
        <ele>64.82665351609</ele>
        <time>2020-08-16T08:41:10.000Z</time>
      </trkpt>
      <trkpt lat="43.64622" lon="3.80906">
        <ele>64.926853981149</ele>
        <time>2020-08-16T08:41:11.000Z</time>
      </trkpt>
      <trkpt lat="43.64621" lon="3.80911">
        <ele>65.02700032</ele>
        <time>2020-08-16T08:41:12.000Z</time>
      </trkpt>
      <trkpt lat="43.6462" lon="3.80915">
        <ele>65.12700032</ele>
        <time>2020-08-16T08:41:13.000Z</time>
      </trkpt>
      <trkpt lat="43.64619" lon="3.80919">
        <ele>65.22700032</ele>
        <time>2020-08-16T08:41:14.000Z</time>
      </trkpt>
      <trkpt lat="43.64618" lon="3.80923">
        <ele>65.32700032</ele>
        <time>2020-08-16T08:41:15.000Z</time>
      </trkpt>
      <trkpt lat="43.64617" lon="3.80927">
        <ele>65.42700032</ele>
        <time>2020-08-16T08:41:16.000Z</time>
      </trkpt>
      <trkpt lat="43.64616" lon="3.80931">
        <ele>65.52700032</ele>
        <time>2020-08-16T08:41:17.000Z</time>
      </trkpt>
      <trkpt lat="43.64615" lon="3.80935">
        <ele>65.62700032</ele>
        <time>2020-08-16T08:41:18.000Z</time>
      </trkpt>
      <trkpt lat="43.64615" lon="3.80939">
        <ele>65.72700032</ele>
        <time>2020-08-16T08:41:19.000Z</time>
      </trkpt>
      <trkpt lat="43.64614" lon="3.80944">
        <ele>65.82700032</ele>
        <time>2020-08-16T08:41:20.000Z</time>
      </trkpt>
      <trkpt lat="43.64614" lon="3.80949">
        <ele>65.92700032</ele>
        <time>2020-08-16T08:41:21.000Z</time>
      </trkpt>
      <trkpt lat="43.64613" lon="3.80954">
        <ele>66</ele>
        <time>2020-08-16T08:41:22.000Z</time>
      </trkpt>
      <trkpt lat="43.64612" lon="3.80959">
        <ele>66</ele>
        <time>2020-08-16T08:41:23.000Z</time>
      </trkpt>
      <trkpt lat="43.6461" lon="3.80964">
        <ele>66</ele>
        <time>2020-08-16T08:41:24.000Z</time>
      </trkpt>
      <trkpt lat="43.64609" lon="3.80969">
        <ele>66</ele>
        <time>2020-08-16T08:41:25.000Z</time>
      </trkpt>
      <trkpt lat="43.64607" lon="3.80975">
        <ele>66</ele>
        <time>2020-08-16T08:41:26.000Z</time>
      </trkpt>
      <trkpt lat="43.64606" lon="3.8098">
        <ele>66</ele>
        <time>2020-08-16T08:41:27.000Z</time>
      </trkpt>
      <trkpt lat="43.64605" lon="3.80985">
        <ele>66</ele>
        <time>2020-08-16T08:41:28.000Z</time>
      </trkpt>
      <trkpt lat="43.64604" lon="3.8099">
        <ele>66</ele>
        <time>2020-08-16T08:41:29.000Z</time>
      </trkpt>
      <trkpt lat="43.64603" lon="3.80994">
        <ele>66</ele>
        <time>2020-08-16T08:41:30.000Z</time>
      </trkpt>
      <trkpt lat="43.64601" lon="3.80999">
        <ele>66</ele>
        <time>2020-08-16T08:41:31.000Z</time>
      </trkpt>
      <trkpt lat="43.646" lon="3.81003">
        <ele>66</ele>
        <time>2020-08-16T08:41:32.000Z</time>
      </trkpt>
      <trkpt lat="43.64599" lon="3.81007">
        <ele>66</ele>
        <time>2020-08-16T08:41:33.000Z</time>
      </trkpt>
      <trkpt lat="43.64597" lon="3.81011">
        <ele>66</ele>
        <time>2020-08-16T08:41:34.000Z</time>
      </trkpt>
      <trkpt lat="43.64596" lon="3.81015">
        <ele>66</ele>
        <time>2020-08-16T08:41:35.000Z</time>
      </trkpt>
      <trkpt lat="43.64594" lon="3.81018">
        <ele>66</ele>
        <time>2020-08-16T08:41:36.000Z</time>
      </trkpt>
      <trkpt lat="43.64593" lon="3.81021">
        <ele>66</ele>
        <time>2020-08-16T08:41:37.000Z</time>
      </trkpt>
      <trkpt lat="43.64591" lon="3.81025">
        <ele>66</ele>
        <time>2020-08-16T08:41:38.000Z</time>
      </trkpt>
      <trkpt lat="43.64589" lon="3.81029">
        <ele>66</ele>
        <time>2020-08-16T08:41:39.000Z</time>
      </trkpt>
      <trkpt lat="43.64587" lon="3.81033">
        <ele>66</ele>
        <time>2020-08-16T08:41:40.000Z</time>
      </trkpt>
      <trkpt lat="43.64586" lon="3.81037">
        <ele>66</ele>
        <time>2020-08-16T08:41:41.000Z</time>
      </trkpt>
      <trkpt lat="43.64586" lon="3.8104">
        <ele>66</ele>
        <time>2020-08-16T08:41:42.000Z</time>
      </trkpt>
      <trkpt lat="43.64588" lon="3.81044">
        <ele>66</ele>
        <time>2020-08-16T08:41:43.000Z</time>
      </trkpt>
      <trkpt lat="43.6459" lon="3.81048">
        <ele>66</ele>
        <time>2020-08-16T08:41:44.000Z</time>
      </trkpt>
      <trkpt lat="43.64591" lon="3.81052">
        <ele>66</ele>
        <time>2020-08-16T08:41:45.000Z</time>
      </trkpt>
      <trkpt lat="43.64593" lon="3.81056">
        <ele>66</ele>
        <time>2020-08-16T08:41:46.000Z</time>
      </trkpt>
      <trkpt lat="43.64594" lon="3.8106">
        <ele>66</ele>
        <time>2020-08-16T08:41:47.000Z</time>
      </trkpt>
      <trkpt lat="43.64595" lon="3.81065">
        <ele>66</ele>
        <time>2020-08-16T08:41:48.000Z</time>
      </trkpt>
      <trkpt lat="43.64596" lon="3.8107">
        <ele>66</ele>
        <time>2020-08-16T08:41:49.000Z</time>
      </trkpt>
      <trkpt lat="43.64596" lon="3.81075">
        <ele>66</ele>
        <time>2020-08-16T08:41:50.000Z</time>
      </trkpt>
      <trkpt lat="43.64596" lon="3.8108">
        <ele>66</ele>
        <time>2020-08-16T08:41:51.000Z</time>
      </trkpt>
      <trkpt lat="43.64596" lon="3.81085">
        <ele>66</ele>
        <time>2020-08-16T08:41:52.000Z</time>
      </trkpt>
      <trkpt lat="43.64595" lon="3.8109">
        <ele>66</ele>
        <time>2020-08-16T08:41:53.000Z</time>
      </trkpt>
      <trkpt lat="43.64595" lon="3.81095">
        <ele>66</ele>
        <time>2020-08-16T08:41:54.000Z</time>
      </trkpt>
      <trkpt lat="43.64595" lon="3.811">
        <ele>66</ele>
        <time>2020-08-16T08:41:55.000Z</time>
      </trkpt>
      <trkpt lat="43.64594" lon="3.81104">
        <ele>66</ele>
        <time>2020-08-16T08:41:56.000Z</time>
      </trkpt>
      <trkpt lat="43.64594" lon="3.81109">
        <ele>66</ele>
        <time>2020-08-16T08:41:57.000Z</time>
      </trkpt>
      <trkpt lat="43.64593" lon="3.81114">
        <ele>66</ele>
        <time>2020-08-16T08:41:58.000Z</time>
      </trkpt>
      <trkpt lat="43.64593" lon="3.81118">
        <ele>66</ele>
        <time>2020-08-16T08:41:59.000Z</time>
      </trkpt>
      <trkpt lat="43.64592" lon="3.81123">
        <ele>66</ele>
        <time>2020-08-16T08:42:00.000Z</time>
      </trkpt>
      <trkpt lat="43.64592" lon="3.81128">
        <ele>66</ele>
        <time>2020-08-16T08:42:01.000Z</time>
      </trkpt>
      <trkpt lat="43.64591" lon="3.81132">
        <ele>66.02700032</ele>
        <time>2020-08-16T08:42:02.000Z</time>
      </trkpt>
      <trkpt lat="43.64591" lon="3.81137">
        <ele>66.12700032</ele>
        <time>2020-08-16T08:42:03.000Z</time>
      </trkpt>
      <trkpt lat="43.64591" lon="3.81142">
        <ele>66.22700032</ele>
        <time>2020-08-16T08:42:04.000Z</time>
      </trkpt>
      <trkpt lat="43.6459" lon="3.81147">
        <ele>66.32700032</ele>
        <time>2020-08-16T08:42:05.000Z</time>
      </trkpt>
      <trkpt lat="43.6459" lon="3.81152">
        <ele>66.42700032</ele>
        <time>2020-08-16T08:42:06.000Z</time>
      </trkpt>
      <trkpt lat="43.64588" lon="3.81157">
        <ele>66.52700032</ele>
        <time>2020-08-16T08:42:07.000Z</time>
      </trkpt>
      <trkpt lat="43.64587" lon="3.81161">
        <ele>66.62700032</ele>
        <time>2020-08-16T08:42:08.000Z</time>
      </trkpt>
      <trkpt lat="43.64586" lon="3.81165">
        <ele>66.72700032</ele>
        <time>2020-08-16T08:42:09.000Z</time>
      </trkpt>
      <trkpt lat="43.64584" lon="3.81169">
        <ele>66.82700032</ele>
        <time>2020-08-16T08:42:10.000Z</time>
      </trkpt>
      <trkpt lat="43.64582" lon="3.81173">
        <ele>66.92700032</ele>
        <time>2020-08-16T08:42:11.000Z</time>
      </trkpt>
      <trkpt lat="43.64581" lon="3.81177">
        <ele>67</ele>
        <time>2020-08-16T08:42:12.000Z</time>
      </trkpt>
      <trkpt lat="43.6458" lon="3.81181">
        <ele>67</ele>
        <time>2020-08-16T08:42:13.000Z</time>
      </trkpt>
      <trkpt lat="43.6458" lon="3.81186">
        <ele>67</ele>
        <time>2020-08-16T08:42:14.000Z</time>
      </trkpt>
      <trkpt lat="43.64581" lon="3.8119">
        <ele>67</ele>
        <time>2020-08-16T08:42:15.000Z</time>
      </trkpt>
      <trkpt lat="43.64583" lon="3.81194">
        <ele>67</ele>
        <time>2020-08-16T08:42:16.000Z</time>
      </trkpt>
      <trkpt lat="43.64585" lon="3.81197">
        <ele>67</ele>
        <time>2020-08-16T08:42:17.000Z</time>
      </trkpt>
      <trkpt lat="43.64586" lon="3.812">
        <ele>67</ele>
        <time>2020-08-16T08:42:18.000Z</time>
      </trkpt>
      <trkpt lat="43.64588" lon="3.81204">
        <ele>67</ele>
        <time>2020-08-16T08:42:19.000Z</time>
      </trkpt>
      <trkpt lat="43.64589" lon="3.81208">
        <ele>67</ele>
        <time>2020-08-16T08:42:20.000Z</time>
      </trkpt>
      <trkpt lat="43.64589" lon="3.81213">
        <ele>67</ele>
        <time>2020-08-16T08:42:21.000Z</time>
      </trkpt>
      <trkpt lat="43.64589" lon="3.81217">
        <ele>67.02700032</ele>
        <time>2020-08-16T08:42:22.000Z</time>
      </trkpt>
      <trkpt lat="43.64589" lon="3.81222">
        <ele>67.12700032</ele>
        <time>2020-08-16T08:42:23.000Z</time>
      </trkpt>
      <trkpt lat="43.64589" lon="3.81226">
        <ele>67.22700032</ele>
        <time>2020-08-16T08:42:24.000Z</time>
      </trkpt>
      <trkpt lat="43.64589" lon="3.81231">
        <ele>67.32700032</ele>
        <time>2020-08-16T08:42:25.000Z</time>
      </trkpt>
      <trkpt lat="43.64589" lon="3.81235">
        <ele>67.42700032</ele>
        <time>2020-08-16T08:42:26.000Z</time>
      </trkpt>
      <trkpt lat="43.64589" lon="3.8124">
        <ele>67.52700032</ele>
        <time>2020-08-16T08:42:27.000Z</time>
      </trkpt>
      <trkpt lat="43.64589" lon="3.81244">
        <ele>67.62700032</ele>
        <time>2020-08-16T08:42:28.000Z</time>
      </trkpt>
      <trkpt lat="43.64589" lon="3.81249">
        <ele>67.72700032</ele>
        <time>2020-08-16T08:42:29.000Z</time>
      </trkpt>
      <trkpt lat="43.64589" lon="3.81253">
        <ele>67.82700032</ele>
        <time>2020-08-16T08:42:30.000Z</time>
      </trkpt>
      <trkpt lat="43.6459" lon="3.81258">
        <ele>67.92700032</ele>
        <time>2020-08-16T08:42:31.000Z</time>
      </trkpt>
      <trkpt lat="43.6459" lon="3.81262">
        <ele>68.026919552728</ele>
        <time>2020-08-16T08:42:32.000Z</time>
      </trkpt>
      <trkpt lat="43.6459" lon="3.81267">
        <ele>68.126620418227</ele>
        <time>2020-08-16T08:42:33.000Z</time>
      </trkpt>
      <trkpt lat="43.6459" lon="3.81271">
        <ele>68.226321283726</ele>
        <time>2020-08-16T08:42:34.000Z</time>
      </trkpt>
      <trkpt lat="43.6459" lon="3.81276">
        <ele>68.326022149225</ele>
        <time>2020-08-16T08:42:35.000Z</time>
      </trkpt>
      <trkpt lat="43.6459" lon="3.8128">
        <ele>68.425723014724</ele>
        <time>2020-08-16T08:42:36.000Z</time>
      </trkpt>
      <trkpt lat="43.6459" lon="3.81285">
        <ele>68.525423880224</ele>
        <time>2020-08-16T08:42:37.000Z</time>
      </trkpt>
      <trkpt lat="43.6459" lon="3.81289">
        <ele>68.625124745723</ele>
        <time>2020-08-16T08:42:38.000Z</time>
      </trkpt>
      <trkpt lat="43.6459" lon="3.81293">
        <ele>68.724825611222</ele>
        <time>2020-08-16T08:42:39.000Z</time>
      </trkpt>
      <trkpt lat="43.6459" lon="3.81298">
        <ele>68.824526476721</ele>
        <time>2020-08-16T08:42:40.000Z</time>
      </trkpt>
      <trkpt lat="43.6459" lon="3.81302">
        <ele>68.924227342221</ele>
        <time>2020-08-16T08:42:41.000Z</time>
      </trkpt>
      <trkpt lat="43.6459" lon="3.81307">
        <ele>69.024072224376</ele>
        <time>2020-08-16T08:42:42.000Z</time>
      </trkpt>
      <trkpt lat="43.64591" lon="3.81311">
        <ele>69.124373159277</ele>
        <time>2020-08-16T08:42:43.000Z</time>
      </trkpt>
      <trkpt lat="43.64591" lon="3.81316">
        <ele>69.224674094178</ele>
        <time>2020-08-16T08:42:44.000Z</time>
      </trkpt>
      <trkpt lat="43.64591" lon="3.8132">
        <ele>69.324975029079</ele>
        <time>2020-08-16T08:42:45.000Z</time>
      </trkpt>
      <trkpt lat="43.64591" lon="3.81325">
        <ele>69.42527596398</ele>
        <time>2020-08-16T08:42:46.000Z</time>
      </trkpt>
      <trkpt lat="43.64591" lon="3.81329">
        <ele>69.525576898881</ele>
        <time>2020-08-16T08:42:47.000Z</time>
      </trkpt>
      <trkpt lat="43.64591" lon="3.81334">
        <ele>69.625877833782</ele>
        <time>2020-08-16T08:42:48.000Z</time>
      </trkpt>
      <trkpt lat="43.64591" lon="3.81338">
        <ele>69.726178768683</ele>
        <time>2020-08-16T08:42:49.000Z</time>
      </trkpt>
      <trkpt lat="43.64591" lon="3.81342">
        <ele>69.826479703584</ele>
        <time>2020-08-16T08:42:50.000Z</time>
      </trkpt>
      <trkpt lat="43.64592" lon="3.81347">
        <ele>69.926780638485</ele>
        <time>2020-08-16T08:42:51.000Z</time>
      </trkpt>
      <trkpt lat="43.64592" lon="3.81351">
        <ele>70.05400064</ele>
        <time>2020-08-16T08:42:52.000Z</time>
      </trkpt>
      <trkpt lat="43.64592" lon="3.81355">
        <ele>70.25400064</ele>
        <time>2020-08-16T08:42:53.000Z</time>
      </trkpt>
      <trkpt lat="43.64592" lon="3.8136">
        <ele>70.45400064</ele>
        <time>2020-08-16T08:42:54.000Z</time>
      </trkpt>
      <trkpt lat="43.64592" lon="3.81364">
        <ele>70.65400064</ele>
        <time>2020-08-16T08:42:55.000Z</time>
      </trkpt>
      <trkpt lat="43.64592" lon="3.81368">
        <ele>70.85400064</ele>
        <time>2020-08-16T08:42:56.000Z</time>
      </trkpt>
      <trkpt lat="43.64593" lon="3.81373">
        <ele>71.05400064</ele>
        <time>2020-08-16T08:42:57.000Z</time>
      </trkpt>
      <trkpt lat="43.64593" lon="3.81377">
        <ele>71.25400064</ele>
        <time>2020-08-16T08:42:58.000Z</time>
      </trkpt>
      <trkpt lat="43.64593" lon="3.81382">
        <ele>71.45400064</ele>
        <time>2020-08-16T08:42:59.000Z</time>
      </trkpt>
      <trkpt lat="43.64593" lon="3.81386">
        <ele>71.65400064</ele>
        <time>2020-08-16T08:43:00.000Z</time>
      </trkpt>
      <trkpt lat="43.64593" lon="3.81391">
        <ele>71.85400064</ele>
        <time>2020-08-16T08:43:01.000Z</time>
      </trkpt>
      <trkpt lat="43.64593" lon="3.81395">
        <ele>72.02700032</ele>
        <time>2020-08-16T08:43:02.000Z</time>
      </trkpt>
      <trkpt lat="43.64593" lon="3.814">
        <ele>72.12700032</ele>
        <time>2020-08-16T08:43:03.000Z</time>
      </trkpt>
      <trkpt lat="43.64593" lon="3.81404">
        <ele>72.22700032</ele>
        <time>2020-08-16T08:43:04.000Z</time>
      </trkpt>
      <trkpt lat="43.64594" lon="3.81408">
        <ele>72.32700032</ele>
        <time>2020-08-16T08:43:05.000Z</time>
      </trkpt>
      <trkpt lat="43.64594" lon="3.81413">
        <ele>72.42700032</ele>
        <time>2020-08-16T08:43:06.000Z</time>
      </trkpt>
      <trkpt lat="43.64594" lon="3.81417">
        <ele>72.52700032</ele>
        <time>2020-08-16T08:43:07.000Z</time>
      </trkpt>
      <trkpt lat="43.64594" lon="3.81421">
        <ele>72.62700032</ele>
        <time>2020-08-16T08:43:08.000Z</time>
      </trkpt>
      <trkpt lat="43.64594" lon="3.81425">
        <ele>72.72700032</ele>
        <time>2020-08-16T08:43:09.000Z</time>
      </trkpt>
      <trkpt lat="43.64594" lon="3.8143">
        <ele>72.82700032</ele>
        <time>2020-08-16T08:43:10.000Z</time>
      </trkpt>
      <trkpt lat="43.64594" lon="3.81434">
        <ele>72.92700032</ele>
        <time>2020-08-16T08:43:11.000Z</time>
      </trkpt>
      <trkpt lat="43.64594" lon="3.81438">
        <ele>73.05400064</ele>
        <time>2020-08-16T08:43:12.000Z</time>
      </trkpt>
      <trkpt lat="43.64594" lon="3.81442">
        <ele>73.25400064</ele>
        <time>2020-08-16T08:43:13.000Z</time>
      </trkpt>
      <trkpt lat="43.64594" lon="3.81447">
        <ele>73.45400064</ele>
        <time>2020-08-16T08:43:14.000Z</time>
      </trkpt>
      <trkpt lat="43.64594" lon="3.81451">
        <ele>73.65400064</ele>
        <time>2020-08-16T08:43:15.000Z</time>
      </trkpt>
      <trkpt lat="43.64594" lon="3.81455">
        <ele>73.85400064</ele>
        <time>2020-08-16T08:43:16.000Z</time>
      </trkpt>
      <trkpt lat="43.64594" lon="3.81459">
        <ele>74.05400064</ele>
        <time>2020-08-16T08:43:17.000Z</time>
      </trkpt>
      <trkpt lat="43.64594" lon="3.81463">
        <ele>74.25400064</ele>
        <time>2020-08-16T08:43:18.000Z</time>
      </trkpt>
      <trkpt lat="43.64593" lon="3.81468">
        <ele>74.45400064</ele>
        <time>2020-08-16T08:43:19.000Z</time>
      </trkpt>
      <trkpt lat="43.64593" lon="3.81472">
        <ele>74.65400064</ele>
        <time>2020-08-16T08:43:20.000Z</time>
      </trkpt>
      <trkpt lat="43.64592" lon="3.81476">
        <ele>74.85400064</ele>
        <time>2020-08-16T08:43:21.000Z</time>
      </trkpt>
      <trkpt lat="43.6459" lon="3.81479">
        <ele>75.02700032</ele>
        <time>2020-08-16T08:43:22.000Z</time>
      </trkpt>
      <trkpt lat="43.64589" lon="3.81483">
        <ele>75.12700032</ele>
        <time>2020-08-16T08:43:23.000Z</time>
      </trkpt>
      <trkpt lat="43.64587" lon="3.81486">
        <ele>75.22700032</ele>
        <time>2020-08-16T08:43:24.000Z</time>
      </trkpt>
      <trkpt lat="43.64586" lon="3.81489">
        <ele>75.32700032</ele>
        <time>2020-08-16T08:43:25.000Z</time>
      </trkpt>
      <trkpt lat="43.64584" lon="3.81493">
        <ele>75.42700032</ele>
        <time>2020-08-16T08:43:26.000Z</time>
      </trkpt>
      <trkpt lat="43.64583" lon="3.81497">
        <ele>75.52700032</ele>
        <time>2020-08-16T08:43:27.000Z</time>
      </trkpt>
      <trkpt lat="43.64582" lon="3.81501">
        <ele>75.62700032</ele>
        <time>2020-08-16T08:43:28.000Z</time>
      </trkpt>
      <trkpt lat="43.64582" lon="3.81505">
        <ele>75.72700032</ele>
        <time>2020-08-16T08:43:29.000Z</time>
      </trkpt>
      <trkpt lat="43.64581" lon="3.8151">
        <ele>75.82700032</ele>
        <time>2020-08-16T08:43:30.000Z</time>
      </trkpt>
      <trkpt lat="43.64582" lon="3.81514">
        <ele>75.92700032</ele>
        <time>2020-08-16T08:43:31.000Z</time>
      </trkpt>
      <trkpt lat="43.64583" lon="3.81517">
        <ele>76</ele>
        <time>2020-08-16T08:43:32.000Z</time>
      </trkpt>
      <trkpt lat="43.64585" lon="3.81521">
        <ele>76</ele>
        <time>2020-08-16T08:43:33.000Z</time>
      </trkpt>
      <trkpt lat="43.64588" lon="3.81524">
        <ele>76</ele>
        <time>2020-08-16T08:43:34.000Z</time>
      </trkpt>
      <trkpt lat="43.6459" lon="3.81527">
        <ele>76</ele>
        <time>2020-08-16T08:43:35.000Z</time>
      </trkpt>
      <trkpt lat="43.64593" lon="3.8153">
        <ele>76</ele>
        <time>2020-08-16T08:43:36.000Z</time>
      </trkpt>
      <trkpt lat="43.64594" lon="3.81534">
        <ele>76</ele>
        <time>2020-08-16T08:43:37.000Z</time>
      </trkpt>
      <trkpt lat="43.64595" lon="3.81538">
        <ele>76</ele>
        <time>2020-08-16T08:43:38.000Z</time>
      </trkpt>
      <trkpt lat="43.64596" lon="3.81543">
        <ele>76</ele>
        <time>2020-08-16T08:43:39.000Z</time>
      </trkpt>
      <trkpt lat="43.64597" lon="3.81547">
        <ele>76</ele>
        <time>2020-08-16T08:43:40.000Z</time>
      </trkpt>
      <trkpt lat="43.64597" lon="3.81551">
        <ele>76</ele>
        <time>2020-08-16T08:43:41.000Z</time>
      </trkpt>
      <trkpt lat="43.64598" lon="3.81556">
        <ele>76</ele>
        <time>2020-08-16T08:43:42.000Z</time>
      </trkpt>
      <trkpt lat="43.64598" lon="3.8156">
        <ele>76.10185218107</ele>
        <time>2020-08-16T08:43:43.000Z</time>
      </trkpt>
      <trkpt lat="43.64598" lon="3.81564">
        <ele>76.204732839506</ele>
        <time>2020-08-16T08:43:44.000Z</time>
      </trkpt>
      <trkpt lat="43.64598" lon="3.81568">
        <ele>76.307613497942</ele>
        <time>2020-08-16T08:43:45.000Z</time>
      </trkpt>
      <trkpt lat="43.64598" lon="3.81572">
        <ele>76.410494156379</ele>
        <time>2020-08-16T08:43:46.000Z</time>
      </trkpt>
      <trkpt lat="43.64598" lon="3.81577">
        <ele>76.513374814815</ele>
        <time>2020-08-16T08:43:47.000Z</time>
      </trkpt>
      <trkpt lat="43.64598" lon="3.81581">
        <ele>76.616255473251</ele>
        <time>2020-08-16T08:43:48.000Z</time>
      </trkpt>
      <trkpt lat="43.64599" lon="3.81585">
        <ele>76.719136131687</ele>
        <time>2020-08-16T08:43:49.000Z</time>
      </trkpt>
      <trkpt lat="43.64599" lon="3.81589">
        <ele>76.822016790123</ele>
        <time>2020-08-16T08:43:50.000Z</time>
      </trkpt>
      <trkpt lat="43.64599" lon="3.81594">
        <ele>76.92489744856</ele>
        <time>2020-08-16T08:43:51.000Z</time>
      </trkpt>
      <trkpt lat="43.64599" lon="3.81598">
        <ele>77.02700032</ele>
        <time>2020-08-16T08:43:52.000Z</time>
      </trkpt>
      <trkpt lat="43.64599" lon="3.81602">
        <ele>77.12700032</ele>
        <time>2020-08-16T08:43:53.000Z</time>
      </trkpt>
      <trkpt lat="43.64599" lon="3.81606">
        <ele>77.22700032</ele>
        <time>2020-08-16T08:43:54.000Z</time>
      </trkpt>
      <trkpt lat="43.64599" lon="3.81611">
        <ele>77.32700032</ele>
        <time>2020-08-16T08:43:55.000Z</time>
      </trkpt>
      <trkpt lat="43.64599" lon="3.81615">
        <ele>77.42700032</ele>
        <time>2020-08-16T08:43:56.000Z</time>
      </trkpt>
      <trkpt lat="43.64599" lon="3.81619">
        <ele>77.52700032</ele>
        <time>2020-08-16T08:43:57.000Z</time>
      </trkpt>
      <trkpt lat="43.646" lon="3.81623">
        <ele>77.62700032</ele>
        <time>2020-08-16T08:43:58.000Z</time>
      </trkpt>
      <trkpt lat="43.646" lon="3.81628">
        <ele>77.72700032</ele>
        <time>2020-08-16T08:43:59.000Z</time>
      </trkpt>
      <trkpt lat="43.646" lon="3.81632">
        <ele>77.82700032</ele>
        <time>2020-08-16T08:44:00.000Z</time>
      </trkpt>
      <trkpt lat="43.646" lon="3.81636">
        <ele>77.92700032</ele>
        <time>2020-08-16T08:44:01.000Z</time>
      </trkpt>
      <trkpt lat="43.646" lon="3.81641">
        <ele>78.02700032</ele>
        <time>2020-08-16T08:44:02.000Z</time>
      </trkpt>
      <trkpt lat="43.646" lon="3.81645">
        <ele>78.12700032</ele>
        <time>2020-08-16T08:44:03.000Z</time>
      </trkpt>
      <trkpt lat="43.646" lon="3.81649">
        <ele>78.22700032</ele>
        <time>2020-08-16T08:44:04.000Z</time>
      </trkpt>
      <trkpt lat="43.646" lon="3.81653">
        <ele>78.32700032</ele>
        <time>2020-08-16T08:44:05.000Z</time>
      </trkpt>
      <trkpt lat="43.646" lon="3.81657">
        <ele>78.42700032</ele>
        <time>2020-08-16T08:44:06.000Z</time>
      </trkpt>
      <trkpt lat="43.64601" lon="3.81662">
        <ele>78.52700032</ele>
        <time>2020-08-16T08:44:07.000Z</time>
      </trkpt>
      <trkpt lat="43.64601" lon="3.81666">
        <ele>78.62700032</ele>
        <time>2020-08-16T08:44:08.000Z</time>
      </trkpt>
      <trkpt lat="43.64601" lon="3.8167">
        <ele>78.72700032</ele>
        <time>2020-08-16T08:44:09.000Z</time>
      </trkpt>
      <trkpt lat="43.64601" lon="3.81674">
        <ele>78.82700032</ele>
        <time>2020-08-16T08:44:10.000Z</time>
      </trkpt>
      <trkpt lat="43.64601" lon="3.81678">
        <ele>78.92700032</ele>
        <time>2020-08-16T08:44:11.000Z</time>
      </trkpt>
      <trkpt lat="43.64601" lon="3.81682">
        <ele>79.052427773249</ele>
        <time>2020-08-16T08:44:12.000Z</time>
      </trkpt>
      <trkpt lat="43.64601" lon="3.81686">
        <ele>79.246602409878</ele>
        <time>2020-08-16T08:44:13.000Z</time>
      </trkpt>
      <trkpt lat="43.64601" lon="3.8169">
        <ele>79.440777046508</ele>
        <time>2020-08-16T08:44:14.000Z</time>
      </trkpt>
      <trkpt lat="43.64602" lon="3.81694">
        <ele>79.634951683137</ele>
        <time>2020-08-16T08:44:15.000Z</time>
      </trkpt>
      <trkpt lat="43.64602" lon="3.81698">
        <ele>79.829126319766</ele>
        <time>2020-08-16T08:44:16.000Z</time>
      </trkpt>
      <trkpt lat="43.64602" lon="3.81702">
        <ele>80.023300956396</ele>
        <time>2020-08-16T08:44:17.000Z</time>
      </trkpt>
      <trkpt lat="43.64602" lon="3.81706">
        <ele>80.217475593025</ele>
        <time>2020-08-16T08:44:18.000Z</time>
      </trkpt>
      <trkpt lat="43.64602" lon="3.8171">
        <ele>80.411650229654</ele>
        <time>2020-08-16T08:44:19.000Z</time>
      </trkpt>
      <trkpt lat="43.64602" lon="3.81714">
        <ele>80.605824866284</ele>
        <time>2020-08-16T08:44:20.000Z</time>
      </trkpt>
      <trkpt lat="43.64603" lon="3.81718">
        <ele>80.799999502913</ele>
        <time>2020-08-16T08:44:21.000Z</time>
      </trkpt>
      <trkpt lat="43.64603" lon="3.81722">
        <ele>80.994174139542</ele>
        <time>2020-08-16T08:44:22.000Z</time>
      </trkpt>
      <trkpt lat="43.64603" lon="3.81725">
        <ele>81.187983875969</ele>
        <time>2020-08-16T08:44:23.000Z</time>
      </trkpt>
      <trkpt lat="43.64603" lon="3.81729">
        <ele>81.381782325581</ele>
        <time>2020-08-16T08:44:24.000Z</time>
      </trkpt>
      <trkpt lat="43.64603" lon="3.81733">
        <ele>81.575580775194</ele>
        <time>2020-08-16T08:44:25.000Z</time>
      </trkpt>
      <trkpt lat="43.64603" lon="3.81737">
        <ele>81.769379224806</ele>
        <time>2020-08-16T08:44:26.000Z</time>
      </trkpt>
      <trkpt lat="43.64604" lon="3.81741">
        <ele>81.963177674419</ele>
        <time>2020-08-16T08:44:27.000Z</time>
      </trkpt>
      <trkpt lat="43.64604" lon="3.81744">
        <ele>82.156976124031</ele>
        <time>2020-08-16T08:44:28.000Z</time>
      </trkpt>
      <trkpt lat="43.64604" lon="3.81748">
        <ele>82.350774573643</ele>
        <time>2020-08-16T08:44:29.000Z</time>
      </trkpt>
      <trkpt lat="43.64604" lon="3.81752">
        <ele>82.544573023256</ele>
        <time>2020-08-16T08:44:30.000Z</time>
      </trkpt>
      <trkpt lat="43.64604" lon="3.81755">
        <ele>82.738371472868</ele>
        <time>2020-08-16T08:44:31.000Z</time>
      </trkpt>
      <trkpt lat="43.64604" lon="3.81758">
        <ele>82.932169922481</ele>
        <time>2020-08-16T08:44:32.000Z</time>
      </trkpt>
      <trkpt lat="43.64604" lon="3.81762">
        <ele>83.069296081396</ele>
        <time>2020-08-16T08:44:33.000Z</time>
      </trkpt>
      <trkpt lat="43.64604" lon="3.81765">
        <ele>83.175905962239</ele>
        <time>2020-08-16T08:44:34.000Z</time>
      </trkpt>
      <trkpt lat="43.64605" lon="3.81769">
        <ele>83.282515843081</ele>
        <time>2020-08-16T08:44:35.000Z</time>
      </trkpt>
      <trkpt lat="43.64605" lon="3.81772">
        <ele>83.389125723924</ele>
        <time>2020-08-16T08:44:36.000Z</time>
      </trkpt>
      <trkpt lat="43.64605" lon="3.81776">
        <ele>83.495735604766</ele>
        <time>2020-08-16T08:44:37.000Z</time>
      </trkpt>
      <trkpt lat="43.64605" lon="3.81779">
        <ele>83.602345485609</ele>
        <time>2020-08-16T08:44:38.000Z</time>
      </trkpt>
      <trkpt lat="43.64605" lon="3.81783">
        <ele>83.708955366451</ele>
        <time>2020-08-16T08:44:39.000Z</time>
      </trkpt>
      <trkpt lat="43.64605" lon="3.81787">
        <ele>83.815565247294</ele>
        <time>2020-08-16T08:44:40.000Z</time>
      </trkpt>
      <trkpt lat="43.64605" lon="3.81791">
        <ele>83.922175128137</ele>
        <time>2020-08-16T08:44:41.000Z</time>
      </trkpt>
      <trkpt lat="43.64605" lon="3.81795">
        <ele>84.02700032</ele>
        <time>2020-08-16T08:44:42.000Z</time>
      </trkpt>
      <trkpt lat="43.64605" lon="3.81799">
        <ele>84.12700032</ele>
        <time>2020-08-16T08:44:43.000Z</time>
      </trkpt>
      <trkpt lat="43.64606" lon="3.81803">
        <ele>84.22700032</ele>
        <time>2020-08-16T08:44:44.000Z</time>
      </trkpt>
      <trkpt lat="43.64606" lon="3.81807">
        <ele>84.32700032</ele>
        <time>2020-08-16T08:44:45.000Z</time>
      </trkpt>
      <trkpt lat="43.64606" lon="3.81812">
        <ele>84.42700032</ele>
        <time>2020-08-16T08:44:46.000Z</time>
      </trkpt>
      <trkpt lat="43.64606" lon="3.81816">
        <ele>84.52700032</ele>
        <time>2020-08-16T08:44:47.000Z</time>
      </trkpt>
      <trkpt lat="43.64606" lon="3.8182">
        <ele>84.62700032</ele>
        <time>2020-08-16T08:44:48.000Z</time>
      </trkpt>
      <trkpt lat="43.64606" lon="3.81825">
        <ele>84.72700032</ele>
        <time>2020-08-16T08:44:49.000Z</time>
      </trkpt>
      <trkpt lat="43.64606" lon="3.8183">
        <ele>84.82700032</ele>
        <time>2020-08-16T08:44:50.000Z</time>
      </trkpt>
      <trkpt lat="43.64607" lon="3.81834">
        <ele>84.92700032</ele>
        <time>2020-08-16T08:44:51.000Z</time>
      </trkpt>
      <trkpt lat="43.64607" lon="3.81839">
        <ele>85.02700032</ele>
        <time>2020-08-16T08:44:52.000Z</time>
      </trkpt>
      <trkpt lat="43.64607" lon="3.81844">
        <ele>85.12700032</ele>
        <time>2020-08-16T08:44:53.000Z</time>
      </trkpt>
      <trkpt lat="43.64607" lon="3.81848">
        <ele>85.22700032</ele>
        <time>2020-08-16T08:44:54.000Z</time>
      </trkpt>
      <trkpt lat="43.64608" lon="3.81853">
        <ele>85.32700032</ele>
        <time>2020-08-16T08:44:55.000Z</time>
      </trkpt>
      <trkpt lat="43.64608" lon="3.81858">
        <ele>85.42700032</ele>
        <time>2020-08-16T08:44:56.000Z</time>
      </trkpt>
      <trkpt lat="43.64608" lon="3.81863">
        <ele>85.52700032</ele>
        <time>2020-08-16T08:44:57.000Z</time>
      </trkpt>
      <trkpt lat="43.64608" lon="3.81868">
        <ele>85.62700032</ele>
        <time>2020-08-16T08:44:58.000Z</time>
      </trkpt>
      <trkpt lat="43.64608" lon="3.81873">
        <ele>85.72700032</ele>
        <time>2020-08-16T08:44:59.000Z</time>
      </trkpt>
      <trkpt lat="43.64608" lon="3.81878">
        <ele>85.82700032</ele>
        <time>2020-08-16T08:45:00.000Z</time>
      </trkpt>
      <trkpt lat="43.64608" lon="3.81883">
        <ele>85.92700032</ele>
        <time>2020-08-16T08:45:01.000Z</time>
      </trkpt>
      <trkpt lat="43.64608" lon="3.81888">
        <ele>86.026812623059</ele>
        <time>2020-08-16T08:45:02.000Z</time>
      </trkpt>
      <trkpt lat="43.64608" lon="3.81892">
        <ele>86.12611745744</ele>
        <time>2020-08-16T08:45:03.000Z</time>
      </trkpt>
      <trkpt lat="43.64607" lon="3.81896">
        <ele>86.225422291822</ele>
        <time>2020-08-16T08:45:04.000Z</time>
      </trkpt>
      <trkpt lat="43.64608" lon="3.81901">
        <ele>86.324727126204</ele>
        <time>2020-08-16T08:45:05.000Z</time>
      </trkpt>
      <trkpt lat="43.64608" lon="3.81905">
        <ele>86.424031960586</ele>
        <time>2020-08-16T08:45:06.000Z</time>
      </trkpt>
      <trkpt lat="43.64608" lon="3.81909">
        <ele>86.523336794967</ele>
        <time>2020-08-16T08:45:07.000Z</time>
      </trkpt>
      <trkpt lat="43.64608" lon="3.81913">
        <ele>86.622641629349</ele>
        <time>2020-08-16T08:45:08.000Z</time>
      </trkpt>
      <trkpt lat="43.64608" lon="3.81917">
        <ele>86.721946463731</ele>
        <time>2020-08-16T08:45:09.000Z</time>
      </trkpt>
      <trkpt lat="43.64608" lon="3.81921">
        <ele>86.821251298113</ele>
        <time>2020-08-16T08:45:10.000Z</time>
      </trkpt>
      <trkpt lat="43.64609" lon="3.81925">
        <ele>86.920556132495</ele>
        <time>2020-08-16T08:45:11.000Z</time>
      </trkpt>
      <trkpt lat="43.64609" lon="3.81929">
        <ele>87.040281986798</ele>
        <time>2020-08-16T08:45:12.000Z</time>
      </trkpt>
      <trkpt lat="43.64609" lon="3.81933">
        <ele>87.241691920787</ele>
        <time>2020-08-16T08:45:13.000Z</time>
      </trkpt>
      <trkpt lat="43.64609" lon="3.81937">
        <ele>87.443101854776</ele>
        <time>2020-08-16T08:45:14.000Z</time>
      </trkpt>
      <trkpt lat="43.64609" lon="3.81942">
        <ele>87.644511788765</ele>
        <time>2020-08-16T08:45:15.000Z</time>
      </trkpt>
      <trkpt lat="43.64609" lon="3.81946">
        <ele>87.845921722754</ele>
        <time>2020-08-16T08:45:16.000Z</time>
      </trkpt>
      <trkpt lat="43.64609" lon="3.8195">
        <ele>88.047331656743</ele>
        <time>2020-08-16T08:45:17.000Z</time>
      </trkpt>
      <trkpt lat="43.64609" lon="3.81954">
        <ele>88.248741590732</ele>
        <time>2020-08-16T08:45:18.000Z</time>
      </trkpt>
      <trkpt lat="43.6461" lon="3.81959">
        <ele>88.450151524722</ele>
        <time>2020-08-16T08:45:19.000Z</time>
      </trkpt>
      <trkpt lat="43.6461" lon="3.81963">
        <ele>88.651561458711</ele>
        <time>2020-08-16T08:45:20.000Z</time>
      </trkpt>
      <trkpt lat="43.6461" lon="3.81967">
        <ele>88.8529713927</ele>
        <time>2020-08-16T08:45:21.000Z</time>
      </trkpt>
      <trkpt lat="43.6461" lon="3.81972">
        <ele>89</ele>
        <time>2020-08-16T08:45:22.000Z</time>
      </trkpt>
      <trkpt lat="43.6461" lon="3.81976">
        <ele>89</ele>
        <time>2020-08-16T08:45:23.000Z</time>
      </trkpt>
      <trkpt lat="43.6461" lon="3.8198">
        <ele>89</ele>
        <time>2020-08-16T08:45:24.000Z</time>
      </trkpt>
      <trkpt lat="43.64609" lon="3.81985">
        <ele>89</ele>
        <time>2020-08-16T08:45:25.000Z</time>
      </trkpt>
      <trkpt lat="43.64609" lon="3.81989">
        <ele>89</ele>
        <time>2020-08-16T08:45:26.000Z</time>
      </trkpt>
      <trkpt lat="43.6461" lon="3.81993">
        <ele>89</ele>
        <time>2020-08-16T08:45:27.000Z</time>
      </trkpt>
      <trkpt lat="43.6461" lon="3.81997">
        <ele>89</ele>
        <time>2020-08-16T08:45:28.000Z</time>
      </trkpt>
      <trkpt lat="43.64609" lon="3.82002">
        <ele>89</ele>
        <time>2020-08-16T08:45:29.000Z</time>
      </trkpt>
      <trkpt lat="43.64609" lon="3.82006">
        <ele>89</ele>
        <time>2020-08-16T08:45:30.000Z</time>
      </trkpt>
      <trkpt lat="43.64609" lon="3.8201">
        <ele>89</ele>
        <time>2020-08-16T08:45:31.000Z</time>
      </trkpt>
      <trkpt lat="43.64609" lon="3.82015">
        <ele>89.05400064</ele>
        <time>2020-08-16T08:45:32.000Z</time>
      </trkpt>
      <trkpt lat="43.64608" lon="3.82019">
        <ele>89.25400064</ele>
        <time>2020-08-16T08:45:33.000Z</time>
      </trkpt>
      <trkpt lat="43.64608" lon="3.82023">
        <ele>89.45400064</ele>
        <time>2020-08-16T08:45:34.000Z</time>
      </trkpt>
      <trkpt lat="43.64607" lon="3.82027">
        <ele>89.65400064</ele>
        <time>2020-08-16T08:45:35.000Z</time>
      </trkpt>
      <trkpt lat="43.64607" lon="3.82031">
        <ele>89.85400064</ele>
        <time>2020-08-16T08:45:36.000Z</time>
      </trkpt>
      <trkpt lat="43.64606" lon="3.82035">
        <ele>90.05400064</ele>
        <time>2020-08-16T08:45:37.000Z</time>
      </trkpt>
      <trkpt lat="43.64606" lon="3.82039">
        <ele>90.25400064</ele>
        <time>2020-08-16T08:45:38.000Z</time>
      </trkpt>
      <trkpt lat="43.64605" lon="3.82043">
        <ele>90.45400064</ele>
        <time>2020-08-16T08:45:39.000Z</time>
      </trkpt>
      <trkpt lat="43.64605" lon="3.82047">
        <ele>90.65400064</ele>
        <time>2020-08-16T08:45:40.000Z</time>
      </trkpt>
      <trkpt lat="43.64604" lon="3.82051">
        <ele>90.85400064</ele>
        <time>2020-08-16T08:45:41.000Z</time>
      </trkpt>
      <trkpt lat="43.64604" lon="3.82055">
        <ele>91.02700032</ele>
        <time>2020-08-16T08:45:42.000Z</time>
      </trkpt>
      <trkpt lat="43.64603" lon="3.82059">
        <ele>91.12700032</ele>
        <time>2020-08-16T08:45:43.000Z</time>
      </trkpt>
      <trkpt lat="43.64602" lon="3.82063">
        <ele>91.22700032</ele>
        <time>2020-08-16T08:45:44.000Z</time>
      </trkpt>
      <trkpt lat="43.64601" lon="3.82067">
        <ele>91.32700032</ele>
        <time>2020-08-16T08:45:45.000Z</time>
      </trkpt>
      <trkpt lat="43.646" lon="3.82071">
        <ele>91.42700032</ele>
        <time>2020-08-16T08:45:46.000Z</time>
      </trkpt>
      <trkpt lat="43.646" lon="3.82075">
        <ele>91.52700032</ele>
        <time>2020-08-16T08:45:47.000Z</time>
      </trkpt>
      <trkpt lat="43.64599" lon="3.82079">
        <ele>91.62700032</ele>
        <time>2020-08-16T08:45:48.000Z</time>
      </trkpt>
      <trkpt lat="43.64598" lon="3.82083">
        <ele>91.72700032</ele>
        <time>2020-08-16T08:45:49.000Z</time>
      </trkpt>
      <trkpt lat="43.64597" lon="3.82087">
        <ele>91.82700032</ele>
        <time>2020-08-16T08:45:50.000Z</time>
      </trkpt>
      <trkpt lat="43.64596" lon="3.82091">
        <ele>91.92700032</ele>
        <time>2020-08-16T08:45:51.000Z</time>
      </trkpt>
      <trkpt lat="43.64595" lon="3.82095">
        <ele>92.052529805448</ele>
        <time>2020-08-16T08:45:52.000Z</time>
      </trkpt>
      <trkpt lat="43.64594" lon="3.82098">
        <ele>92.24708233463</ele>
        <time>2020-08-16T08:45:53.000Z</time>
      </trkpt>
      <trkpt lat="43.64593" lon="3.82102">
        <ele>92.441634863813</ele>
        <time>2020-08-16T08:45:54.000Z</time>
      </trkpt>
      <trkpt lat="43.64591" lon="3.82105">
        <ele>92.636187392996</ele>
        <time>2020-08-16T08:45:55.000Z</time>
      </trkpt>
      <trkpt lat="43.6459" lon="3.82109">
        <ele>92.830739922179</ele>
        <time>2020-08-16T08:45:56.000Z</time>
      </trkpt>
      <trkpt lat="43.64589" lon="3.82113">
        <ele>93.025292451362</ele>
        <time>2020-08-16T08:45:57.000Z</time>
      </trkpt>
      <trkpt lat="43.64588" lon="3.82117">
        <ele>93.219844980545</ele>
        <time>2020-08-16T08:45:58.000Z</time>
      </trkpt>
      <trkpt lat="43.64587" lon="3.82121">
        <ele>93.414397509728</ele>
        <time>2020-08-16T08:45:59.000Z</time>
      </trkpt>
      <trkpt lat="43.64586" lon="3.82124">
        <ele>93.608950038911</ele>
        <time>2020-08-16T08:46:00.000Z</time>
      </trkpt>
      <trkpt lat="43.64584" lon="3.82128">
        <ele>93.803502568093</ele>
        <time>2020-08-16T08:46:01.000Z</time>
      </trkpt>
      <trkpt lat="43.64583" lon="3.82132">
        <ele>93.998055097276</ele>
        <time>2020-08-16T08:46:02.000Z</time>
      </trkpt>
      <trkpt lat="43.64581" lon="3.82135">
        <ele>94.095744931067</ele>
        <time>2020-08-16T08:46:03.000Z</time>
      </trkpt>
      <trkpt lat="43.6458" lon="3.82139">
        <ele>94.192456670046</ele>
        <time>2020-08-16T08:46:04.000Z</time>
      </trkpt>
      <trkpt lat="43.64578" lon="3.82143">
        <ele>94.289168409025</ele>
        <time>2020-08-16T08:46:05.000Z</time>
      </trkpt>
      <trkpt lat="43.64577" lon="3.82146">
        <ele>94.385880148005</ele>
        <time>2020-08-16T08:46:06.000Z</time>
      </trkpt>
      <trkpt lat="43.64575" lon="3.8215">
        <ele>94.482591886984</ele>
        <time>2020-08-16T08:46:07.000Z</time>
      </trkpt>
      <trkpt lat="43.64573" lon="3.82153">
        <ele>94.579303625963</ele>
        <time>2020-08-16T08:46:08.000Z</time>
      </trkpt>
      <trkpt lat="43.64572" lon="3.82156">
        <ele>94.676015364942</ele>
        <time>2020-08-16T08:46:09.000Z</time>
      </trkpt>
      <trkpt lat="43.6457" lon="3.8216">
        <ele>94.772727103921</ele>
        <time>2020-08-16T08:46:10.000Z</time>
      </trkpt>
      <trkpt lat="43.64568" lon="3.82163">
        <ele>94.8694388429</ele>
        <time>2020-08-16T08:46:11.000Z</time>
      </trkpt>
      <trkpt lat="43.64566" lon="3.82167">
        <ele>94.96615058188</ele>
        <time>2020-08-16T08:46:12.000Z</time>
      </trkpt>
      <trkpt lat="43.64565" lon="3.8217">
        <ele>95.069296081396</ele>
        <time>2020-08-16T08:46:13.000Z</time>
      </trkpt>
      <trkpt lat="43.64563" lon="3.82174">
        <ele>95.175905962239</ele>
        <time>2020-08-16T08:46:14.000Z</time>
      </trkpt>
      <trkpt lat="43.64561" lon="3.82177">
        <ele>95.282515843081</ele>
        <time>2020-08-16T08:46:15.000Z</time>
      </trkpt>
      <trkpt lat="43.64559" lon="3.8218">
        <ele>95.389125723924</ele>
        <time>2020-08-16T08:46:16.000Z</time>
      </trkpt>
      <trkpt lat="43.64557" lon="3.82184">
        <ele>95.495735604766</ele>
        <time>2020-08-16T08:46:17.000Z</time>
      </trkpt>
      <trkpt lat="43.64555" lon="3.82187">
        <ele>95.602345485609</ele>
        <time>2020-08-16T08:46:18.000Z</time>
      </trkpt>
      <trkpt lat="43.64553" lon="3.8219">
        <ele>95.708955366451</ele>
        <time>2020-08-16T08:46:19.000Z</time>
      </trkpt>
      <trkpt lat="43.64551" lon="3.82193">
        <ele>95.815565247294</ele>
        <time>2020-08-16T08:46:20.000Z</time>
      </trkpt>
      <trkpt lat="43.64549" lon="3.82196">
        <ele>95.922175128137</ele>
        <time>2020-08-16T08:46:21.000Z</time>
      </trkpt>
      <trkpt lat="43.64547" lon="3.822">
        <ele>96.05400064</ele>
        <time>2020-08-16T08:46:22.000Z</time>
      </trkpt>
      <trkpt lat="43.64545" lon="3.82203">
        <ele>96.25400064</ele>
        <time>2020-08-16T08:46:23.000Z</time>
      </trkpt>
      <trkpt lat="43.64543" lon="3.82205">
        <ele>96.45400064</ele>
        <time>2020-08-16T08:46:24.000Z</time>
      </trkpt>
      <trkpt lat="43.6454" lon="3.82208">
        <ele>96.65400064</ele>
        <time>2020-08-16T08:46:25.000Z</time>
      </trkpt>
      <trkpt lat="43.64538" lon="3.82211">
        <ele>96.85400064</ele>
        <time>2020-08-16T08:46:26.000Z</time>
      </trkpt>
      <trkpt lat="43.64536" lon="3.82214">
        <ele>97.05400064</ele>
        <time>2020-08-16T08:46:27.000Z</time>
      </trkpt>
      <trkpt lat="43.64533" lon="3.82216">
        <ele>97.25400064</ele>
        <time>2020-08-16T08:46:28.000Z</time>
      </trkpt>
      <trkpt lat="43.64531" lon="3.82219">
        <ele>97.45400064</ele>
        <time>2020-08-16T08:46:29.000Z</time>
      </trkpt>
      <trkpt lat="43.64529" lon="3.82222">
        <ele>97.65400064</ele>
        <time>2020-08-16T08:46:30.000Z</time>
      </trkpt>
      <trkpt lat="43.64526" lon="3.82224">
        <ele>97.85400064</ele>
        <time>2020-08-16T08:46:31.000Z</time>
      </trkpt>
      <trkpt lat="43.64524" lon="3.82227">
        <ele>98.02700032</ele>
        <time>2020-08-16T08:46:32.000Z</time>
      </trkpt>
      <trkpt lat="43.64522" lon="3.82229">
        <ele>98.12700032</ele>
        <time>2020-08-16T08:46:33.000Z</time>
      </trkpt>
      <trkpt lat="43.64519" lon="3.82232">
        <ele>98.22700032</ele>
        <time>2020-08-16T08:46:34.000Z</time>
      </trkpt>
      <trkpt lat="43.64517" lon="3.82234">
        <ele>98.32700032</ele>
        <time>2020-08-16T08:46:35.000Z</time>
      </trkpt>
      <trkpt lat="43.64514" lon="3.82237">
        <ele>98.42700032</ele>
        <time>2020-08-16T08:46:36.000Z</time>
      </trkpt>
      <trkpt lat="43.64511" lon="3.82239">
        <ele>98.52700032</ele>
        <time>2020-08-16T08:46:37.000Z</time>
      </trkpt>
      <trkpt lat="43.64509" lon="3.82242">
        <ele>98.62700032</ele>
        <time>2020-08-16T08:46:38.000Z</time>
      </trkpt>
      <trkpt lat="43.64506" lon="3.82244">
        <ele>98.72700032</ele>
        <time>2020-08-16T08:46:39.000Z</time>
      </trkpt>
      <trkpt lat="43.64504" lon="3.82246">
        <ele>98.82700032</ele>
        <time>2020-08-16T08:46:40.000Z</time>
      </trkpt>
      <trkpt lat="43.64501" lon="3.82248">
        <ele>98.92700032</ele>
        <time>2020-08-16T08:46:41.000Z</time>
      </trkpt>
      <trkpt lat="43.64499" lon="3.82251">
        <ele>99.026264902724</ele>
        <time>2020-08-16T08:46:42.000Z</time>
      </trkpt>
      <trkpt lat="43.64496" lon="3.82253">
        <ele>99.123541167315</ele>
        <time>2020-08-16T08:46:43.000Z</time>
      </trkpt>
      <trkpt lat="43.64493" lon="3.82256">
        <ele>99.220817431907</ele>
        <time>2020-08-16T08:46:44.000Z</time>
      </trkpt>
      <trkpt lat="43.6449" lon="3.82258">
        <ele>99.318093696498</ele>
        <time>2020-08-16T08:46:45.000Z</time>
      </trkpt>
      <trkpt lat="43.64488" lon="3.8226">
        <ele>99.415369961089</ele>
        <time>2020-08-16T08:46:46.000Z</time>
      </trkpt>
      <trkpt lat="43.64485" lon="3.82263">
        <ele>99.512646225681</ele>
        <time>2020-08-16T08:46:47.000Z</time>
      </trkpt>
      <trkpt lat="43.64482" lon="3.82265">
        <ele>99.609922490272</ele>
        <time>2020-08-16T08:46:48.000Z</time>
      </trkpt>
      <trkpt lat="43.64479" lon="3.82267">
        <ele>99.707198754864</ele>
        <time>2020-08-16T08:46:49.000Z</time>
      </trkpt>
      <trkpt lat="43.64476" lon="3.82269">
        <ele>99.804475019455</ele>
        <time>2020-08-16T08:46:50.000Z</time>
      </trkpt>
      <trkpt lat="43.64473" lon="3.82271">
        <ele>99.901751284047</ele>
        <time>2020-08-16T08:46:51.000Z</time>
      </trkpt>
      <trkpt lat="43.6447" lon="3.82273">
        <ele>99.999027548638</ele>
        <time>2020-08-16T08:46:52.000Z</time>
      </trkpt>
      <trkpt lat="43.64467" lon="3.82275">
        <ele>100</ele>
        <time>2020-08-16T08:46:53.000Z</time>
      </trkpt>
      <trkpt lat="43.64464" lon="3.82277">
        <ele>100</ele>
        <time>2020-08-16T08:46:54.000Z</time>
      </trkpt>
      <trkpt lat="43.64461" lon="3.82277">
        <ele>100</ele>
        <time>2020-08-16T08:46:55.000Z</time>
      </trkpt>
      <trkpt lat="43.64457" lon="3.82277">
        <ele>100</ele>
        <time>2020-08-16T08:46:56.000Z</time>
      </trkpt>
      <trkpt lat="43.64454" lon="3.82276">
        <ele>100</ele>
        <time>2020-08-16T08:46:57.000Z</time>
      </trkpt>
      <trkpt lat="43.64451" lon="3.82274">
        <ele>100</ele>
        <time>2020-08-16T08:46:58.000Z</time>
      </trkpt>
      <trkpt lat="43.64448" lon="3.82271">
        <ele>100</ele>
        <time>2020-08-16T08:46:59.000Z</time>
      </trkpt>
      <trkpt lat="43.64446" lon="3.82268">
        <ele>100</ele>
        <time>2020-08-16T08:47:00.000Z</time>
      </trkpt>
      <trkpt lat="43.64443" lon="3.82265">
        <ele>100</ele>
        <time>2020-08-16T08:47:01.000Z</time>
      </trkpt>
      <trkpt lat="43.6444" lon="3.82263">
        <ele>100</ele>
        <time>2020-08-16T08:47:02.000Z</time>
      </trkpt>
      <trkpt lat="43.64437" lon="3.8226">
        <ele>100</ele>
        <time>2020-08-16T08:47:03.000Z</time>
      </trkpt>
      <trkpt lat="43.64434" lon="3.82257">
        <ele>100</ele>
        <time>2020-08-16T08:47:04.000Z</time>
      </trkpt>
      <trkpt lat="43.64431" lon="3.82254">
        <ele>100</ele>
        <time>2020-08-16T08:47:05.000Z</time>
      </trkpt>
      <trkpt lat="43.64428" lon="3.82251">
        <ele>100</ele>
        <time>2020-08-16T08:47:06.000Z</time>
      </trkpt>
      <trkpt lat="43.64426" lon="3.82247">
        <ele>100</ele>
        <time>2020-08-16T08:47:07.000Z</time>
      </trkpt>
      <trkpt lat="43.64424" lon="3.82243">
        <ele>100</ele>
        <time>2020-08-16T08:47:08.000Z</time>
      </trkpt>
      <trkpt lat="43.64423" lon="3.82239">
        <ele>100</ele>
        <time>2020-08-16T08:47:09.000Z</time>
      </trkpt>
      <trkpt lat="43.6442" lon="3.82237">
        <ele>100</ele>
        <time>2020-08-16T08:47:10.000Z</time>
      </trkpt>
      <trkpt lat="43.64418" lon="3.82236">
        <ele>100</ele>
        <time>2020-08-16T08:47:11.000Z</time>
      </trkpt>
      <trkpt lat="43.64415" lon="3.82238">
        <ele>100</ele>
        <time>2020-08-16T08:47:12.000Z</time>
      </trkpt>
      <trkpt lat="43.64413" lon="3.8224">
        <ele>100</ele>
        <time>2020-08-16T08:47:13.000Z</time>
      </trkpt>
      <trkpt lat="43.64411" lon="3.82243">
        <ele>100</ele>
        <time>2020-08-16T08:47:14.000Z</time>
      </trkpt>
      <trkpt lat="43.64409" lon="3.82247">
        <ele>100</ele>
        <time>2020-08-16T08:47:15.000Z</time>
      </trkpt>
      <trkpt lat="43.64406" lon="3.82249">
        <ele>100</ele>
        <time>2020-08-16T08:47:16.000Z</time>
      </trkpt>
      <trkpt lat="43.64403" lon="3.82252">
        <ele>100</ele>
        <time>2020-08-16T08:47:17.000Z</time>
      </trkpt>
      <trkpt lat="43.644" lon="3.82253">
        <ele>100</ele>
        <time>2020-08-16T08:47:18.000Z</time>
      </trkpt>
      <trkpt lat="43.64397" lon="3.82255">
        <ele>100</ele>
        <time>2020-08-16T08:47:19.000Z</time>
      </trkpt>
      <trkpt lat="43.64393" lon="3.82257">
        <ele>100</ele>
        <time>2020-08-16T08:47:20.000Z</time>
      </trkpt>
      <trkpt lat="43.64389" lon="3.82259">
        <ele>100</ele>
        <time>2020-08-16T08:47:21.000Z</time>
      </trkpt>
      <trkpt lat="43.64386" lon="3.8226">
        <ele>100</ele>
        <time>2020-08-16T08:47:22.000Z</time>
      </trkpt>
      <trkpt lat="43.64382" lon="3.82261">
        <ele>100</ele>
        <time>2020-08-16T08:47:23.000Z</time>
      </trkpt>
      <trkpt lat="43.64379" lon="3.8226">
        <ele>100</ele>
        <time>2020-08-16T08:47:24.000Z</time>
      </trkpt>
      <trkpt lat="43.64377" lon="3.8226">
        <ele>100</ele>
        <time>2020-08-16T08:47:26.000Z</time>
      </trkpt>
      <trkpt lat="43.64375" lon="3.8226">
        <ele>100</ele>
        <time>2020-08-16T08:47:28.000Z</time>
      </trkpt>
      <trkpt lat="43.64372" lon="3.82262">
        <ele>100</ele>
        <time>2020-08-16T08:47:30.000Z</time>
      </trkpt>
      <trkpt lat="43.6437" lon="3.82264">
        <ele>100</ele>
        <time>2020-08-16T08:47:31.000Z</time>
      </trkpt>
      <trkpt lat="43.64369" lon="3.82268">
        <ele>100</ele>
        <time>2020-08-16T08:47:32.000Z</time>
      </trkpt>
      <trkpt lat="43.64367" lon="3.82271">
        <ele>100</ele>
        <time>2020-08-16T08:47:33.000Z</time>
      </trkpt>
      <trkpt lat="43.64366" lon="3.82275">
        <ele>100</ele>
        <time>2020-08-16T08:47:34.000Z</time>
      </trkpt>
      <trkpt lat="43.64365" lon="3.82279">
        <ele>100</ele>
        <time>2020-08-16T08:47:35.000Z</time>
      </trkpt>
      <trkpt lat="43.64366" lon="3.82283">
        <ele>100</ele>
        <time>2020-08-16T08:47:36.000Z</time>
      </trkpt>
      <trkpt lat="43.64366" lon="3.82288">
        <ele>100</ele>
        <time>2020-08-16T08:47:37.000Z</time>
      </trkpt>
      <trkpt lat="43.64366" lon="3.82293">
        <ele>100</ele>
        <time>2020-08-16T08:47:38.000Z</time>
      </trkpt>
      <trkpt lat="43.64366" lon="3.82299">
        <ele>100</ele>
        <time>2020-08-16T08:47:39.000Z</time>
      </trkpt>
      <trkpt lat="43.64365" lon="3.82304">
        <ele>100</ele>
        <time>2020-08-16T08:47:40.000Z</time>
      </trkpt>
      <trkpt lat="43.64364" lon="3.82309">
        <ele>100</ele>
        <time>2020-08-16T08:47:41.000Z</time>
      </trkpt>
      <trkpt lat="43.64364" lon="3.82315">
        <ele>100</ele>
        <time>2020-08-16T08:47:42.000Z</time>
      </trkpt>
      <trkpt lat="43.64364" lon="3.82321">
        <ele>100</ele>
        <time>2020-08-16T08:47:43.000Z</time>
      </trkpt>
      <trkpt lat="43.64363" lon="3.82326">
        <ele>100</ele>
        <time>2020-08-16T08:47:44.000Z</time>
      </trkpt>
      <trkpt lat="43.64362" lon="3.82332">
        <ele>100</ele>
        <time>2020-08-16T08:47:45.000Z</time>
      </trkpt>
      <trkpt lat="43.6436" lon="3.82337">
        <ele>100</ele>
        <time>2020-08-16T08:47:46.000Z</time>
      </trkpt>
      <trkpt lat="43.64358" lon="3.82342">
        <ele>100</ele>
        <time>2020-08-16T08:47:47.000Z</time>
      </trkpt>
      <trkpt lat="43.64355" lon="3.82346">
        <ele>100</ele>
        <time>2020-08-16T08:47:48.000Z</time>
      </trkpt>
      <trkpt lat="43.64352" lon="3.8235">
        <ele>100</ele>
        <time>2020-08-16T08:47:49.000Z</time>
      </trkpt>
      <trkpt lat="43.64349" lon="3.82354">
        <ele>100</ele>
        <time>2020-08-16T08:47:50.000Z</time>
      </trkpt>
      <trkpt lat="43.64345" lon="3.82357">
        <ele>100</ele>
        <time>2020-08-16T08:47:51.000Z</time>
      </trkpt>
      <trkpt lat="43.64342" lon="3.8236">
        <ele>99.97299968</ele>
        <time>2020-08-16T08:47:52.000Z</time>
      </trkpt>
      <trkpt lat="43.64338" lon="3.82364">
        <ele>99.87299968</ele>
        <time>2020-08-16T08:47:53.000Z</time>
      </trkpt>
      <trkpt lat="43.64335" lon="3.82367">
        <ele>99.77299968</ele>
        <time>2020-08-16T08:47:54.000Z</time>
      </trkpt>
      <trkpt lat="43.64332" lon="3.8237">
        <ele>99.67299968</ele>
        <time>2020-08-16T08:47:55.000Z</time>
      </trkpt>
      <trkpt lat="43.64329" lon="3.82373">
        <ele>99.57299968</ele>
        <time>2020-08-16T08:47:56.000Z</time>
      </trkpt>
      <trkpt lat="43.64326" lon="3.82376">
        <ele>99.47299968</ele>
        <time>2020-08-16T08:47:57.000Z</time>
      </trkpt>
      <trkpt lat="43.64323" lon="3.8238">
        <ele>99.37299968</ele>
        <time>2020-08-16T08:47:58.000Z</time>
      </trkpt>
      <trkpt lat="43.6432" lon="3.82383">
        <ele>99.27299968</ele>
        <time>2020-08-16T08:47:59.000Z</time>
      </trkpt>
      <trkpt lat="43.64317" lon="3.82387">
        <ele>99.17299968</ele>
        <time>2020-08-16T08:48:00.000Z</time>
      </trkpt>
      <trkpt lat="43.64313" lon="3.8239">
        <ele>99.07299968</ele>
        <time>2020-08-16T08:48:01.000Z</time>
      </trkpt>
      <trkpt lat="43.64309" lon="3.82394">
        <ele>98.97299968</ele>
        <time>2020-08-16T08:48:02.000Z</time>
      </trkpt>
      <trkpt lat="43.64306" lon="3.82398">
        <ele>98.87299968</ele>
        <time>2020-08-16T08:48:03.000Z</time>
      </trkpt>
      <trkpt lat="43.64302" lon="3.82402">
        <ele>98.77299968</ele>
        <time>2020-08-16T08:48:04.000Z</time>
      </trkpt>
      <trkpt lat="43.64298" lon="3.82407">
        <ele>98.67299968</ele>
        <time>2020-08-16T08:48:05.000Z</time>
      </trkpt>
      <trkpt lat="43.64295" lon="3.82411">
        <ele>98.57299968</ele>
        <time>2020-08-16T08:48:06.000Z</time>
      </trkpt>
      <trkpt lat="43.64291" lon="3.82416">
        <ele>98.47299968</ele>
        <time>2020-08-16T08:48:07.000Z</time>
      </trkpt>
      <trkpt lat="43.64288" lon="3.82421">
        <ele>98.37299968</ele>
        <time>2020-08-16T08:48:08.000Z</time>
      </trkpt>
      <trkpt lat="43.64285" lon="3.82427">
        <ele>98.27299968</ele>
        <time>2020-08-16T08:48:09.000Z</time>
      </trkpt>
      <trkpt lat="43.64283" lon="3.82432">
        <ele>98.17299968</ele>
        <time>2020-08-16T08:48:10.000Z</time>
      </trkpt>
      <trkpt lat="43.6428" lon="3.82438">
        <ele>98.07299968</ele>
        <time>2020-08-16T08:48:11.000Z</time>
      </trkpt>
      <trkpt lat="43.64277" lon="3.82444">
        <ele>97.97299968</ele>
        <time>2020-08-16T08:48:12.000Z</time>
      </trkpt>
      <trkpt lat="43.64275" lon="3.82451">
        <ele>97.87299968</ele>
        <time>2020-08-16T08:48:13.000Z</time>
      </trkpt>
      <trkpt lat="43.64272" lon="3.82457">
        <ele>97.77299968</ele>
        <time>2020-08-16T08:48:14.000Z</time>
      </trkpt>
      <trkpt lat="43.64269" lon="3.82463">
        <ele>97.67299968</ele>
        <time>2020-08-16T08:48:15.000Z</time>
      </trkpt>
      <trkpt lat="43.64267" lon="3.82469">
        <ele>97.57299968</ele>
        <time>2020-08-16T08:48:16.000Z</time>
      </trkpt>
      <trkpt lat="43.64264" lon="3.82475">
        <ele>97.47299968</ele>
        <time>2020-08-16T08:48:17.000Z</time>
      </trkpt>
      <trkpt lat="43.64262" lon="3.82481">
        <ele>97.37299968</ele>
        <time>2020-08-16T08:48:18.000Z</time>
      </trkpt>
      <trkpt lat="43.64259" lon="3.82487">
        <ele>97.27299968</ele>
        <time>2020-08-16T08:48:19.000Z</time>
      </trkpt>
      <trkpt lat="43.64256" lon="3.82493">
        <ele>97.17299968</ele>
        <time>2020-08-16T08:48:20.000Z</time>
      </trkpt>
      <trkpt lat="43.64254" lon="3.825">
        <ele>97.07299968</ele>
        <time>2020-08-16T08:48:21.000Z</time>
      </trkpt>
      <trkpt lat="43.64251" lon="3.82506">
        <ele>96.97299968</ele>
        <time>2020-08-16T08:48:22.000Z</time>
      </trkpt>
      <trkpt lat="43.64249" lon="3.82512">
        <ele>96.87299968</ele>
        <time>2020-08-16T08:48:23.000Z</time>
      </trkpt>
      <trkpt lat="43.64246" lon="3.82518">
        <ele>96.77299968</ele>
        <time>2020-08-16T08:48:24.000Z</time>
      </trkpt>
      <trkpt lat="43.64244" lon="3.82524">
        <ele>96.67299968</ele>
        <time>2020-08-16T08:48:25.000Z</time>
      </trkpt>
      <trkpt lat="43.64241" lon="3.8253">
        <ele>96.57299968</ele>
        <time>2020-08-16T08:48:26.000Z</time>
      </trkpt>
      <trkpt lat="43.64239" lon="3.82536">
        <ele>96.47299968</ele>
        <time>2020-08-16T08:48:27.000Z</time>
      </trkpt>
      <trkpt lat="43.64236" lon="3.82541">
        <ele>96.37299968</ele>
        <time>2020-08-16T08:48:28.000Z</time>
      </trkpt>
      <trkpt lat="43.64233" lon="3.82547">
        <ele>96.27299968</ele>
        <time>2020-08-16T08:48:29.000Z</time>
      </trkpt>
      <trkpt lat="43.64231" lon="3.82553">
        <ele>96.17299968</ele>
        <time>2020-08-16T08:48:30.000Z</time>
      </trkpt>
      <trkpt lat="43.64228" lon="3.82559">
        <ele>96.07299968</ele>
        <time>2020-08-16T08:48:31.000Z</time>
      </trkpt>
      <trkpt lat="43.64226" lon="3.82565">
        <ele>95.94599936</ele>
        <time>2020-08-16T08:48:32.000Z</time>
      </trkpt>
      <trkpt lat="43.64223" lon="3.8257">
        <ele>95.74599936</ele>
        <time>2020-08-16T08:48:33.000Z</time>
      </trkpt>
      <trkpt lat="43.6422" lon="3.82576">
        <ele>95.54599936</ele>
        <time>2020-08-16T08:48:34.000Z</time>
      </trkpt>
      <trkpt lat="43.64216" lon="3.82582">
        <ele>95.34599936</ele>
        <time>2020-08-16T08:48:35.000Z</time>
      </trkpt>
      <trkpt lat="43.64213" lon="3.82587">
        <ele>95.14599936</ele>
        <time>2020-08-16T08:48:36.000Z</time>
      </trkpt>
      <trkpt lat="43.6421" lon="3.82593">
        <ele>94.94599936</ele>
        <time>2020-08-16T08:48:37.000Z</time>
      </trkpt>
      <trkpt lat="43.64206" lon="3.82599">
        <ele>94.74599936</ele>
        <time>2020-08-16T08:48:38.000Z</time>
      </trkpt>
      <trkpt lat="43.64203" lon="3.82604">
        <ele>94.54599936</ele>
        <time>2020-08-16T08:48:39.000Z</time>
      </trkpt>
      <trkpt lat="43.64199" lon="3.8261">
        <ele>94.34599936</ele>
        <time>2020-08-16T08:48:40.000Z</time>
      </trkpt>
      <trkpt lat="43.64196" lon="3.82615">
        <ele>94.14599936</ele>
        <time>2020-08-16T08:48:41.000Z</time>
      </trkpt>
      <trkpt lat="43.64192" lon="3.82621">
        <ele>94</ele>
        <time>2020-08-16T08:48:42.000Z</time>
      </trkpt>
      <trkpt lat="43.64188" lon="3.82626">
        <ele>94</ele>
        <time>2020-08-16T08:48:43.000Z</time>
      </trkpt>
      <trkpt lat="43.64184" lon="3.82631">
        <ele>94</ele>
        <time>2020-08-16T08:48:44.000Z</time>
      </trkpt>
      <trkpt lat="43.6418" lon="3.82636">
        <ele>94</ele>
        <time>2020-08-16T08:48:45.000Z</time>
      </trkpt>
      <trkpt lat="43.64176" lon="3.82642">
        <ele>94</ele>
        <time>2020-08-16T08:48:46.000Z</time>
      </trkpt>
      <trkpt lat="43.64171" lon="3.82647">
        <ele>94</ele>
        <time>2020-08-16T08:48:47.000Z</time>
      </trkpt>
      <trkpt lat="43.64166" lon="3.82653">
        <ele>94</ele>
        <time>2020-08-16T08:48:48.000Z</time>
      </trkpt>
      <trkpt lat="43.64162" lon="3.82658">
        <ele>94</ele>
        <time>2020-08-16T08:48:49.000Z</time>
      </trkpt>
      <trkpt lat="43.64157" lon="3.82664">
        <ele>94</ele>
        <time>2020-08-16T08:48:50.000Z</time>
      </trkpt>
      <trkpt lat="43.64151" lon="3.82669">
        <ele>94</ele>
        <time>2020-08-16T08:48:51.000Z</time>
      </trkpt>
      <trkpt lat="43.64146" lon="3.82675">
        <ele>93.946374753883</ele>
        <time>2020-08-16T08:48:52.000Z</time>
      </trkpt>
      <trkpt lat="43.64141" lon="3.8268">
        <ele>93.747765085119</ele>
        <time>2020-08-16T08:48:53.000Z</time>
      </trkpt>
      <trkpt lat="43.64136" lon="3.82687">
        <ele>93.549155416356</ele>
        <time>2020-08-16T08:48:54.000Z</time>
      </trkpt>
      <trkpt lat="43.64131" lon="3.82692">
        <ele>93.350545747592</ele>
        <time>2020-08-16T08:48:55.000Z</time>
      </trkpt>
      <trkpt lat="43.64126" lon="3.82698">
        <ele>93.151936078829</ele>
        <time>2020-08-16T08:48:56.000Z</time>
      </trkpt>
      <trkpt lat="43.6412" lon="3.82704">
        <ele>92.953326410065</ele>
        <time>2020-08-16T08:48:57.000Z</time>
      </trkpt>
      <trkpt lat="43.64114" lon="3.82709">
        <ele>92.754716741301</ele>
        <time>2020-08-16T08:48:58.000Z</time>
      </trkpt>
      <trkpt lat="43.64109" lon="3.82715">
        <ele>92.556107072538</ele>
        <time>2020-08-16T08:48:59.000Z</time>
      </trkpt>
      <trkpt lat="43.64103" lon="3.8272">
        <ele>92.357497403774</ele>
        <time>2020-08-16T08:49:00.000Z</time>
      </trkpt>
      <trkpt lat="43.64097" lon="3.82726">
        <ele>92.158887735011</ele>
        <time>2020-08-16T08:49:01.000Z</time>
      </trkpt>
      <trkpt lat="43.64091" lon="3.82731">
        <ele>91.959718013202</ele>
        <time>2020-08-16T08:49:02.000Z</time>
      </trkpt>
      <trkpt lat="43.64085" lon="3.82737">
        <ele>91.758308079213</ele>
        <time>2020-08-16T08:49:03.000Z</time>
      </trkpt>
      <trkpt lat="43.64079" lon="3.82742">
        <ele>91.556898145224</ele>
        <time>2020-08-16T08:49:04.000Z</time>
      </trkpt>
      <trkpt lat="43.64073" lon="3.82747">
        <ele>91.355488211235</ele>
        <time>2020-08-16T08:49:05.000Z</time>
      </trkpt>
      <trkpt lat="43.64067" lon="3.82753">
        <ele>91.154078277246</ele>
        <time>2020-08-16T08:49:06.000Z</time>
      </trkpt>
      <trkpt lat="43.64061" lon="3.82758">
        <ele>90.952668343257</ele>
        <time>2020-08-16T08:49:07.000Z</time>
      </trkpt>
      <trkpt lat="43.64055" lon="3.82764">
        <ele>90.751258409268</ele>
        <time>2020-08-16T08:49:08.000Z</time>
      </trkpt>
      <trkpt lat="43.64049" lon="3.82769">
        <ele>90.549848475278</ele>
        <time>2020-08-16T08:49:09.000Z</time>
      </trkpt>
      <trkpt lat="43.64042" lon="3.82774">
        <ele>90.348438541289</ele>
        <time>2020-08-16T08:49:10.000Z</time>
      </trkpt>
      <trkpt lat="43.64036" lon="3.82779">
        <ele>90.1470286073</ele>
        <time>2020-08-16T08:49:11.000Z</time>
      </trkpt>
      <trkpt lat="43.64029" lon="3.82783">
        <ele>89.97299968</ele>
        <time>2020-08-16T08:49:12.000Z</time>
      </trkpt>
      <trkpt lat="43.64023" lon="3.82787">
        <ele>89.87299968</ele>
        <time>2020-08-16T08:49:13.000Z</time>
      </trkpt>
      <trkpt lat="43.64016" lon="3.82791">
        <ele>89.77299968</ele>
        <time>2020-08-16T08:49:14.000Z</time>
      </trkpt>
      <trkpt lat="43.64009" lon="3.82795">
        <ele>89.67299968</ele>
        <time>2020-08-16T08:49:15.000Z</time>
      </trkpt>
      <trkpt lat="43.64002" lon="3.82798">
        <ele>89.57299968</ele>
        <time>2020-08-16T08:49:16.000Z</time>
      </trkpt>
      <trkpt lat="43.63995" lon="3.82799">
        <ele>89.47299968</ele>
        <time>2020-08-16T08:49:17.000Z</time>
      </trkpt>
      <trkpt lat="43.63989" lon="3.828">
        <ele>89.37299968</ele>
        <time>2020-08-16T08:49:18.000Z</time>
      </trkpt>
      <trkpt lat="43.63984" lon="3.82801">
        <ele>89.27299968</ele>
        <time>2020-08-16T08:49:19.000Z</time>
      </trkpt>
      <trkpt lat="43.63979" lon="3.82802">
        <ele>89.17299968</ele>
        <time>2020-08-16T08:49:20.000Z</time>
      </trkpt>
      <trkpt lat="43.63975" lon="3.82803">
        <ele>89.07299968</ele>
        <time>2020-08-16T08:49:21.000Z</time>
      </trkpt>
      <trkpt lat="43.63972" lon="3.82805">
        <ele>89</ele>
        <time>2020-08-16T08:49:22.000Z</time>
      </trkpt>
      <trkpt lat="43.63969" lon="3.82807">
        <ele>89</ele>
        <time>2020-08-16T08:49:23.000Z</time>
      </trkpt>
      <trkpt lat="43.63967" lon="3.82809">
        <ele>89</ele>
        <time>2020-08-16T08:49:24.000Z</time>
      </trkpt>
      <trkpt lat="43.63965" lon="3.82811">
        <ele>89</ele>
        <time>2020-08-16T08:49:25.000Z</time>
      </trkpt>
      <trkpt lat="43.63963" lon="3.82813">
        <ele>89</ele>
        <time>2020-08-16T08:49:26.000Z</time>
      </trkpt>
      <trkpt lat="43.63961" lon="3.82815">
        <ele>89</ele>
        <time>2020-08-16T08:49:27.000Z</time>
      </trkpt>
      <trkpt lat="43.63959" lon="3.82817">
        <ele>89</ele>
        <time>2020-08-16T08:49:28.000Z</time>
      </trkpt>
      <trkpt lat="43.63957" lon="3.82817">
        <ele>89</ele>
        <time>2020-08-16T08:49:31.000Z</time>
      </trkpt>
      <trkpt lat="43.63955" lon="3.82817">
        <ele>88.546719393539</ele>
        <time>2020-08-16T08:49:34.000Z</time>
      </trkpt>
      <trkpt lat="43.63952" lon="3.82818">
        <ele>88.149104826468</ele>
        <time>2020-08-16T08:49:36.000Z</time>
      </trkpt>
      <trkpt lat="43.6395" lon="3.82819">
        <ele>87.950297542933</ele>
        <time>2020-08-16T08:49:37.000Z</time>
      </trkpt>
      <trkpt lat="43.63947" lon="3.82819">
        <ele>87.751490259397</ele>
        <time>2020-08-16T08:49:38.000Z</time>
      </trkpt>
      <trkpt lat="43.63944" lon="3.82819">
        <ele>87.552682975862</ele>
        <time>2020-08-16T08:49:39.000Z</time>
      </trkpt>
      <trkpt lat="43.6394" lon="3.82819">
        <ele>87.353875692326</ele>
        <time>2020-08-16T08:49:40.000Z</time>
      </trkpt>
      <trkpt lat="43.63938" lon="3.8282">
        <ele>87.155068408791</ele>
        <time>2020-08-16T08:49:41.000Z</time>
      </trkpt>
      <trkpt lat="43.63935" lon="3.82822">
        <ele>86.955777622263</ele>
        <time>2020-08-16T08:49:42.000Z</time>
      </trkpt>
      <trkpt lat="43.63933" lon="3.82824">
        <ele>86.754772661782</ele>
        <time>2020-08-16T08:49:43.000Z</time>
      </trkpt>
      <trkpt lat="43.6393" lon="3.82826">
        <ele>86.553767701301</ele>
        <time>2020-08-16T08:49:44.000Z</time>
      </trkpt>
      <trkpt lat="43.63929" lon="3.82827">
        <ele>86.35276274082</ele>
        <time>2020-08-16T08:49:45.000Z</time>
      </trkpt>
      <trkpt lat="43.63927" lon="3.82827">
        <ele>86.151757780339</ele>
        <time>2020-08-16T08:49:46.000Z</time>
      </trkpt>
      <trkpt lat="43.63925" lon="3.82826">
        <ele>85.950752819858</ele>
        <time>2020-08-16T08:49:47.000Z</time>
      </trkpt>
      <trkpt lat="43.63924" lon="3.82823">
        <ele>85.749747859378</ele>
        <time>2020-08-16T08:49:48.000Z</time>
      </trkpt>
      <trkpt lat="43.63923" lon="3.82819">
        <ele>85.347737938416</ele>
        <time>2020-08-16T08:49:50.000Z</time>
      </trkpt>
      <trkpt lat="43.63922" lon="3.82815">
        <ele>85</ele>
        <time>2020-08-16T08:49:52.000Z</time>
      </trkpt>
      <trkpt lat="43.6392" lon="3.82811">
        <ele>85</ele>
        <time>2020-08-16T08:49:54.000Z</time>
      </trkpt>
      <trkpt lat="43.63919" lon="3.82807">
        <ele>85</ele>
        <time>2020-08-16T08:49:58.000Z</time>
      </trkpt>
      <trkpt lat="43.63917" lon="3.82805">
        <ele>85</ele>
        <time>2020-08-16T08:50:00.000Z</time>
      </trkpt>
      <trkpt lat="43.63914" lon="3.82805">
        <ele>85</ele>
        <time>2020-08-16T08:50:02.000Z</time>
      </trkpt>
      <trkpt lat="43.63912" lon="3.82806">
        <ele>84.900099868164</ele>
        <time>2020-08-16T08:50:03.000Z</time>
      </trkpt>
      <trkpt lat="43.63909" lon="3.82806">
        <ele>84.800199736328</ele>
        <time>2020-08-16T08:50:04.000Z</time>
      </trkpt>
      <trkpt lat="43.63907" lon="3.82807">
        <ele>84.700299604491</ele>
        <time>2020-08-16T08:50:05.000Z</time>
      </trkpt>
      <trkpt lat="43.63905" lon="3.82808">
        <ele>84.600399472655</ele>
        <time>2020-08-16T08:50:06.000Z</time>
      </trkpt>
      <trkpt lat="43.63903" lon="3.82808">
        <ele>84.500499340819</ele>
        <time>2020-08-16T08:50:07.000Z</time>
      </trkpt>
      <trkpt lat="43.63901" lon="3.82807">
        <ele>84.400599208983</ele>
        <time>2020-08-16T08:50:08.000Z</time>
      </trkpt>
      <trkpt lat="43.63898" lon="3.82804">
        <ele>84.20079894531</ele>
        <time>2020-08-16T08:50:10.000Z</time>
      </trkpt>
      <trkpt lat="43.63895" lon="3.82803">
        <ele>84.000998681638</ele>
        <time>2020-08-16T08:50:12.000Z</time>
      </trkpt>
      <trkpt lat="43.63894" lon="3.82802">
        <ele>83.89804295842</ele>
        <time>2020-08-16T08:50:13.000Z</time>
      </trkpt>
      <trkpt lat="43.63892" lon="3.828">
        <ele>83.79505638062</ele>
        <time>2020-08-16T08:50:14.000Z</time>
      </trkpt>
      <trkpt lat="43.63891" lon="3.82797">
        <ele>83.692069802819</ele>
        <time>2020-08-16T08:50:15.000Z</time>
      </trkpt>
      <trkpt lat="43.6389" lon="3.82793">
        <ele>83.589083225019</ele>
        <time>2020-08-16T08:50:16.000Z</time>
      </trkpt>
      <trkpt lat="43.63888" lon="3.82789">
        <ele>83.486096647218</ele>
        <time>2020-08-16T08:50:17.000Z</time>
      </trkpt>
      <trkpt lat="43.63887" lon="3.82785">
        <ele>83.383110069418</ele>
        <time>2020-08-16T08:50:18.000Z</time>
      </trkpt>
      <trkpt lat="43.63885" lon="3.82781">
        <ele>83.280123491617</ele>
        <time>2020-08-16T08:50:19.000Z</time>
      </trkpt>
      <trkpt lat="43.63883" lon="3.82777">
        <ele>83.177136913817</ele>
        <time>2020-08-16T08:50:20.000Z</time>
      </trkpt>
      <trkpt lat="43.6388" lon="3.82774">
        <ele>83.074150336016</ele>
        <time>2020-08-16T08:50:21.000Z</time>
      </trkpt>
      <trkpt lat="43.63878" lon="3.82771">
        <ele>82.972</ele>
        <time>2020-08-16T08:50:22.000Z</time>
      </trkpt>
      <trkpt lat="43.63875" lon="3.82768">
        <ele>82.872</ele>
        <time>2020-08-16T08:50:23.000Z</time>
      </trkpt>
      <trkpt lat="43.63872" lon="3.82765">
        <ele>82.772</ele>
        <time>2020-08-16T08:50:24.000Z</time>
      </trkpt>
      <trkpt lat="43.63869" lon="3.82765">
        <ele>82.672</ele>
        <time>2020-08-16T08:50:25.000Z</time>
      </trkpt>
      <trkpt lat="43.63865" lon="3.82765">
        <ele>82.572</ele>
        <time>2020-08-16T08:50:26.000Z</time>
      </trkpt>
      <trkpt lat="43.63862" lon="3.82767">
        <ele>82.472</ele>
        <time>2020-08-16T08:50:27.000Z</time>
      </trkpt>
      <trkpt lat="43.63858" lon="3.8277">
        <ele>82.372</ele>
        <time>2020-08-16T08:50:28.000Z</time>
      </trkpt>
      <trkpt lat="43.63854" lon="3.82772">
        <ele>82.272</ele>
        <time>2020-08-16T08:50:29.000Z</time>
      </trkpt>
      <trkpt lat="43.63851" lon="3.82775">
        <ele>82.172</ele>
        <time>2020-08-16T08:50:30.000Z</time>
      </trkpt>
      <trkpt lat="43.63847" lon="3.82778">
        <ele>82.072</ele>
        <time>2020-08-16T08:50:31.000Z</time>
      </trkpt>
      <trkpt lat="43.63843" lon="3.82781">
        <ele>82</ele>
        <time>2020-08-16T08:50:32.000Z</time>
      </trkpt>
      <trkpt lat="43.63839" lon="3.82784">
        <ele>82</ele>
        <time>2020-08-16T08:50:33.000Z</time>
      </trkpt>
      <trkpt lat="43.63835" lon="3.82787">
        <ele>82</ele>
        <time>2020-08-16T08:50:34.000Z</time>
      </trkpt>
      <trkpt lat="43.63831" lon="3.8279">
        <ele>82</ele>
        <time>2020-08-16T08:50:35.000Z</time>
      </trkpt>
      <trkpt lat="43.63827" lon="3.82793">
        <ele>82</ele>
        <time>2020-08-16T08:50:36.000Z</time>
      </trkpt>
      <trkpt lat="43.63823" lon="3.82796">
        <ele>82</ele>
        <time>2020-08-16T08:50:37.000Z</time>
      </trkpt>
      <trkpt lat="43.63819" lon="3.82798">
        <ele>82</ele>
        <time>2020-08-16T08:50:38.000Z</time>
      </trkpt>
      <trkpt lat="43.63814" lon="3.82801">
        <ele>82</ele>
        <time>2020-08-16T08:50:39.000Z</time>
      </trkpt>
      <trkpt lat="43.6381" lon="3.82803">
        <ele>82</ele>
        <time>2020-08-16T08:50:40.000Z</time>
      </trkpt>
      <trkpt lat="43.63806" lon="3.82804">
        <ele>82</ele>
        <time>2020-08-16T08:50:41.000Z</time>
      </trkpt>
      <trkpt lat="43.63804" lon="3.82805">
        <ele>81.97299968</ele>
        <time>2020-08-16T08:50:42.000Z</time>
      </trkpt>
      <trkpt lat="43.63801" lon="3.82806">
        <ele>81.87299968</ele>
        <time>2020-08-16T08:50:43.000Z</time>
      </trkpt>
      <trkpt lat="43.638" lon="3.82808">
        <ele>81.77299968</ele>
        <time>2020-08-16T08:50:44.000Z</time>
      </trkpt>
      <trkpt lat="43.63799" lon="3.82811">
        <ele>81.67299968</ele>
        <time>2020-08-16T08:50:45.000Z</time>
      </trkpt>
      <trkpt lat="43.63797" lon="3.82813">
        <ele>81.57299968</ele>
        <time>2020-08-16T08:50:46.000Z</time>
      </trkpt>
      <trkpt lat="43.63795" lon="3.82815">
        <ele>81.47299968</ele>
        <time>2020-08-16T08:50:47.000Z</time>
      </trkpt>
      <trkpt lat="43.63793" lon="3.82816">
        <ele>81.37299968</ele>
        <time>2020-08-16T08:50:48.000Z</time>
      </trkpt>
      <trkpt lat="43.63791" lon="3.82816">
        <ele>81.27299968</ele>
        <time>2020-08-16T08:50:49.000Z</time>
      </trkpt>
      <trkpt lat="43.63788" lon="3.82816">
        <ele>81.17299968</ele>
        <time>2020-08-16T08:50:50.000Z</time>
      </trkpt>
      <trkpt lat="43.63786" lon="3.82816">
        <ele>81.07299968</ele>
        <time>2020-08-16T08:50:51.000Z</time>
      </trkpt>
      <trkpt lat="43.63784" lon="3.82815">
        <ele>81</ele>
        <time>2020-08-16T08:50:52.000Z</time>
      </trkpt>
      <trkpt lat="43.63782" lon="3.82815">
        <ele>81</ele>
        <time>2020-08-16T08:50:53.000Z</time>
      </trkpt>
      <trkpt lat="43.63779" lon="3.82815">
        <ele>81</ele>
        <time>2020-08-16T08:50:54.000Z</time>
      </trkpt>
      <trkpt lat="43.63776" lon="3.82815">
        <ele>81</ele>
        <time>2020-08-16T08:50:55.000Z</time>
      </trkpt>
      <trkpt lat="43.63773" lon="3.82814">
        <ele>81</ele>
        <time>2020-08-16T08:50:56.000Z</time>
      </trkpt>
      <trkpt lat="43.6377" lon="3.82814">
        <ele>81</ele>
        <time>2020-08-16T08:50:57.000Z</time>
      </trkpt>
      <trkpt lat="43.63766" lon="3.82813">
        <ele>81</ele>
        <time>2020-08-16T08:50:58.000Z</time>
      </trkpt>
      <trkpt lat="43.63763" lon="3.8281">
        <ele>81</ele>
        <time>2020-08-16T08:50:59.000Z</time>
      </trkpt>
      <trkpt lat="43.63761" lon="3.82806">
        <ele>81</ele>
        <time>2020-08-16T08:51:00.000Z</time>
      </trkpt>
      <trkpt lat="43.63759" lon="3.82802">
        <ele>81</ele>
        <time>2020-08-16T08:51:01.000Z</time>
      </trkpt>
      <trkpt lat="43.63757" lon="3.82798">
        <ele>81</ele>
        <time>2020-08-16T08:51:02.000Z</time>
      </trkpt>
      <trkpt lat="43.63755" lon="3.82794">
        <ele>81</ele>
        <time>2020-08-16T08:51:03.000Z</time>
      </trkpt>
      <trkpt lat="43.63754" lon="3.8279">
        <ele>81</ele>
        <time>2020-08-16T08:51:04.000Z</time>
      </trkpt>
      <trkpt lat="43.63752" lon="3.82786">
        <ele>81</ele>
        <time>2020-08-16T08:51:05.000Z</time>
      </trkpt>
      <trkpt lat="43.63751" lon="3.82783">
        <ele>81</ele>
        <time>2020-08-16T08:51:06.000Z</time>
      </trkpt>
      <trkpt lat="43.63749" lon="3.82779">
        <ele>81</ele>
        <time>2020-08-16T08:51:07.000Z</time>
      </trkpt>
      <trkpt lat="43.63748" lon="3.82776">
        <ele>81</ele>
        <time>2020-08-16T08:51:08.000Z</time>
      </trkpt>
      <trkpt lat="43.63747" lon="3.82773">
        <ele>81</ele>
        <time>2020-08-16T08:51:09.000Z</time>
      </trkpt>
      <trkpt lat="43.63745" lon="3.82769">
        <ele>81</ele>
        <time>2020-08-16T08:51:10.000Z</time>
      </trkpt>
      <trkpt lat="43.63744" lon="3.82766">
        <ele>81</ele>
        <time>2020-08-16T08:51:11.000Z</time>
      </trkpt>
      <trkpt lat="43.63743" lon="3.82763">
        <ele>80.97299968</ele>
        <time>2020-08-16T08:51:12.000Z</time>
      </trkpt>
      <trkpt lat="43.63741" lon="3.82761">
        <ele>80.87299968</ele>
        <time>2020-08-16T08:51:13.000Z</time>
      </trkpt>
      <trkpt lat="43.63738" lon="3.82758">
        <ele>80.77299968</ele>
        <time>2020-08-16T08:51:14.000Z</time>
      </trkpt>
      <trkpt lat="43.63735" lon="3.82757">
        <ele>80.67299968</ele>
        <time>2020-08-16T08:51:15.000Z</time>
      </trkpt>
      <trkpt lat="43.63732" lon="3.82756">
        <ele>80.57299968</ele>
        <time>2020-08-16T08:51:16.000Z</time>
      </trkpt>
      <trkpt lat="43.63728" lon="3.82756">
        <ele>80.47299968</ele>
        <time>2020-08-16T08:51:17.000Z</time>
      </trkpt>
      <trkpt lat="43.63724" lon="3.82757">
        <ele>80.37299968</ele>
        <time>2020-08-16T08:51:18.000Z</time>
      </trkpt>
      <trkpt lat="43.6372" lon="3.82758">
        <ele>80.27299968</ele>
        <time>2020-08-16T08:51:19.000Z</time>
      </trkpt>
      <trkpt lat="43.63716" lon="3.82758">
        <ele>80.17299968</ele>
        <time>2020-08-16T08:51:20.000Z</time>
      </trkpt>
      <trkpt lat="43.63712" lon="3.82759">
        <ele>80.07299968</ele>
        <time>2020-08-16T08:51:21.000Z</time>
      </trkpt>
      <trkpt lat="43.63707" lon="3.8276">
        <ele>80</ele>
        <time>2020-08-16T08:51:22.000Z</time>
      </trkpt>
      <trkpt lat="43.63703" lon="3.82762">
        <ele>80</ele>
        <time>2020-08-16T08:51:23.000Z</time>
      </trkpt>
      <trkpt lat="43.63698" lon="3.82763">
        <ele>80</ele>
        <time>2020-08-16T08:51:24.000Z</time>
      </trkpt>
      <trkpt lat="43.63693" lon="3.82764">
        <ele>80</ele>
        <time>2020-08-16T08:51:25.000Z</time>
      </trkpt>
      <trkpt lat="43.63689" lon="3.82766">
        <ele>80</ele>
        <time>2020-08-16T08:51:26.000Z</time>
      </trkpt>
      <trkpt lat="43.63684" lon="3.82767">
        <ele>80</ele>
        <time>2020-08-16T08:51:27.000Z</time>
      </trkpt>
      <trkpt lat="43.6368" lon="3.82768">
        <ele>80</ele>
        <time>2020-08-16T08:51:28.000Z</time>
      </trkpt>
      <trkpt lat="43.63675" lon="3.82769">
        <ele>80</ele>
        <time>2020-08-16T08:51:29.000Z</time>
      </trkpt>
      <trkpt lat="43.63671" lon="3.8277">
        <ele>80</ele>
        <time>2020-08-16T08:51:30.000Z</time>
      </trkpt>
      <trkpt lat="43.63666" lon="3.82771">
        <ele>80</ele>
        <time>2020-08-16T08:51:31.000Z</time>
      </trkpt>
      <trkpt lat="43.63661" lon="3.82772">
        <ele>80</ele>
        <time>2020-08-16T08:51:32.000Z</time>
      </trkpt>
      <trkpt lat="43.63657" lon="3.82773">
        <ele>80</ele>
        <time>2020-08-16T08:51:33.000Z</time>
      </trkpt>
      <trkpt lat="43.63652" lon="3.82774">
        <ele>80</ele>
        <time>2020-08-16T08:51:34.000Z</time>
      </trkpt>
      <trkpt lat="43.63648" lon="3.82775">
        <ele>80</ele>
        <time>2020-08-16T08:51:35.000Z</time>
      </trkpt>
      <trkpt lat="43.63644" lon="3.82775">
        <ele>80</ele>
        <time>2020-08-16T08:51:36.000Z</time>
      </trkpt>
      <trkpt lat="43.6364" lon="3.82776">
        <ele>80</ele>
        <time>2020-08-16T08:51:37.000Z</time>
      </trkpt>
      <trkpt lat="43.63635" lon="3.82777">
        <ele>80</ele>
        <time>2020-08-16T08:51:38.000Z</time>
      </trkpt>
      <trkpt lat="43.63631" lon="3.82778">
        <ele>80</ele>
        <time>2020-08-16T08:51:39.000Z</time>
      </trkpt>
      <trkpt lat="43.63627" lon="3.82779">
        <ele>80</ele>
        <time>2020-08-16T08:51:40.000Z</time>
      </trkpt>
      <trkpt lat="43.63622" lon="3.8278">
        <ele>80</ele>
        <time>2020-08-16T08:51:41.000Z</time>
      </trkpt>
      <trkpt lat="43.63618" lon="3.82781">
        <ele>80.027972036914</ele>
        <time>2020-08-16T08:51:42.000Z</time>
      </trkpt>
      <trkpt lat="43.63614" lon="3.82782">
        <ele>80.12787216875</ele>
        <time>2020-08-16T08:51:43.000Z</time>
      </trkpt>
      <trkpt lat="43.6361" lon="3.82783">
        <ele>80.227772300587</ele>
        <time>2020-08-16T08:51:44.000Z</time>
      </trkpt>
      <trkpt lat="43.63606" lon="3.82784">
        <ele>80.327672432423</ele>
        <time>2020-08-16T08:51:45.000Z</time>
      </trkpt>
      <trkpt lat="43.63602" lon="3.82785">
        <ele>80.427572564259</ele>
        <time>2020-08-16T08:51:46.000Z</time>
      </trkpt>
      <trkpt lat="43.63599" lon="3.82786">
        <ele>80.527472696095</ele>
        <time>2020-08-16T08:51:47.000Z</time>
      </trkpt>
      <trkpt lat="43.63595" lon="3.82787">
        <ele>80.627372827931</ele>
        <time>2020-08-16T08:51:48.000Z</time>
      </trkpt>
      <trkpt lat="43.63592" lon="3.82788">
        <ele>80.727272959768</ele>
        <time>2020-08-16T08:51:49.000Z</time>
      </trkpt>
      <trkpt lat="43.63589" lon="3.82789">
        <ele>80.827173091604</ele>
        <time>2020-08-16T08:51:50.000Z</time>
      </trkpt>
      <trkpt lat="43.63585" lon="3.82789">
        <ele>80.92707322344</ele>
        <time>2020-08-16T08:51:51.000Z</time>
      </trkpt>
      <trkpt lat="43.63582" lon="3.8279">
        <ele>81.02700032</ele>
        <time>2020-08-16T08:51:52.000Z</time>
      </trkpt>
      <trkpt lat="43.63579" lon="3.82791">
        <ele>81.12700032</ele>
        <time>2020-08-16T08:51:53.000Z</time>
      </trkpt>
      <trkpt lat="43.63576" lon="3.82792">
        <ele>81.22700032</ele>
        <time>2020-08-16T08:51:54.000Z</time>
      </trkpt>
      <trkpt lat="43.63572" lon="3.82792">
        <ele>81.32700032</ele>
        <time>2020-08-16T08:51:55.000Z</time>
      </trkpt>
      <trkpt lat="43.63569" lon="3.82794">
        <ele>81.42700032</ele>
        <time>2020-08-16T08:51:56.000Z</time>
      </trkpt>
      <trkpt lat="43.63566" lon="3.82795">
        <ele>81.52700032</ele>
        <time>2020-08-16T08:51:57.000Z</time>
      </trkpt>
      <trkpt lat="43.63563" lon="3.82796">
        <ele>81.62700032</ele>
        <time>2020-08-16T08:51:58.000Z</time>
      </trkpt>
      <trkpt lat="43.63559" lon="3.82797">
        <ele>81.72700032</ele>
        <time>2020-08-16T08:51:59.000Z</time>
      </trkpt>
      <trkpt lat="43.63556" lon="3.82798">
        <ele>81.82700032</ele>
        <time>2020-08-16T08:52:00.000Z</time>
      </trkpt>
      <trkpt lat="43.63552" lon="3.82799">
        <ele>81.92700032</ele>
        <time>2020-08-16T08:52:01.000Z</time>
      </trkpt>
      <trkpt lat="43.63549" lon="3.828">
        <ele>82.02703004007</ele>
        <time>2020-08-16T08:52:02.000Z</time>
      </trkpt>
      <trkpt lat="43.63546" lon="3.82802">
        <ele>82.127140113097</ele>
        <time>2020-08-16T08:52:03.000Z</time>
      </trkpt>
      <trkpt lat="43.63542" lon="3.82803">
        <ele>82.227250186125</ele>
        <time>2020-08-16T08:52:04.000Z</time>
      </trkpt>
      <trkpt lat="43.63539" lon="3.82805">
        <ele>82.327360259152</ele>
        <time>2020-08-16T08:52:05.000Z</time>
      </trkpt>
      <trkpt lat="43.63535" lon="3.82807">
        <ele>82.42747033218</ele>
        <time>2020-08-16T08:52:06.000Z</time>
      </trkpt>
      <trkpt lat="43.63532" lon="3.82809">
        <ele>82.527580405207</ele>
        <time>2020-08-16T08:52:07.000Z</time>
      </trkpt>
      <trkpt lat="43.63529" lon="3.82811">
        <ele>82.627690478235</ele>
        <time>2020-08-16T08:52:08.000Z</time>
      </trkpt>
      <trkpt lat="43.63525" lon="3.82813">
        <ele>82.727800551262</ele>
        <time>2020-08-16T08:52:09.000Z</time>
      </trkpt>
      <trkpt lat="43.63522" lon="3.82816">
        <ele>82.82791062429</ele>
        <time>2020-08-16T08:52:10.000Z</time>
      </trkpt>
      <trkpt lat="43.63519" lon="3.82818">
        <ele>82.928020697317</ele>
        <time>2020-08-16T08:52:11.000Z</time>
      </trkpt>
      <trkpt lat="43.63516" lon="3.82821">
        <ele>83.02809984</ele>
        <time>2020-08-16T08:52:12.000Z</time>
      </trkpt>
      <trkpt lat="43.63512" lon="3.82823">
        <ele>83.12809984</ele>
        <time>2020-08-16T08:52:13.000Z</time>
      </trkpt>
      <trkpt lat="43.63509" lon="3.82826">
        <ele>83.22809984</ele>
        <time>2020-08-16T08:52:14.000Z</time>
      </trkpt>
      <trkpt lat="43.63506" lon="3.82829">
        <ele>83.32809984</ele>
        <time>2020-08-16T08:52:15.000Z</time>
      </trkpt>
      <trkpt lat="43.63503" lon="3.82832">
        <ele>83.42809984</ele>
        <time>2020-08-16T08:52:16.000Z</time>
      </trkpt>
      <trkpt lat="43.635" lon="3.82835">
        <ele>83.52809984</ele>
        <time>2020-08-16T08:52:17.000Z</time>
      </trkpt>
      <trkpt lat="43.63496" lon="3.82838">
        <ele>83.62809984</ele>
        <time>2020-08-16T08:52:18.000Z</time>
      </trkpt>
      <trkpt lat="43.63493" lon="3.82842">
        <ele>83.72809984</ele>
        <time>2020-08-16T08:52:19.000Z</time>
      </trkpt>
      <trkpt lat="43.6349" lon="3.82845">
        <ele>83.82809984</ele>
        <time>2020-08-16T08:52:20.000Z</time>
      </trkpt>
      <trkpt lat="43.63487" lon="3.82849">
        <ele>83.92809984</ele>
        <time>2020-08-16T08:52:21.000Z</time>
      </trkpt>
      <trkpt lat="43.63484" lon="3.82852">
        <ele>84.02809984</ele>
        <time>2020-08-16T08:52:22.000Z</time>
      </trkpt>
      <trkpt lat="43.63481" lon="3.82855">
        <ele>84.12809984</ele>
        <time>2020-08-16T08:52:23.000Z</time>
      </trkpt>
      <trkpt lat="43.63478" lon="3.82859">
        <ele>84.22809984</ele>
        <time>2020-08-16T08:52:24.000Z</time>
      </trkpt>
      <trkpt lat="43.63475" lon="3.82862">
        <ele>84.32809984</ele>
        <time>2020-08-16T08:52:25.000Z</time>
      </trkpt>
      <trkpt lat="43.63472" lon="3.82866">
        <ele>84.42809984</ele>
        <time>2020-08-16T08:52:26.000Z</time>
      </trkpt>
      <trkpt lat="43.63469" lon="3.8287">
        <ele>84.52809984</ele>
        <time>2020-08-16T08:52:27.000Z</time>
      </trkpt>
      <trkpt lat="43.63466" lon="3.82873">
        <ele>84.62809984</ele>
        <time>2020-08-16T08:52:28.000Z</time>
      </trkpt>
      <trkpt lat="43.63463" lon="3.82876">
        <ele>84.72809984</ele>
        <time>2020-08-16T08:52:29.000Z</time>
      </trkpt>
      <trkpt lat="43.6346" lon="3.82879">
        <ele>84.82809984</ele>
        <time>2020-08-16T08:52:30.000Z</time>
      </trkpt>
      <trkpt lat="43.63457" lon="3.82882">
        <ele>84.92809984</ele>
        <time>2020-08-16T08:52:31.000Z</time>
      </trkpt>
      <trkpt lat="43.63454" lon="3.82886">
        <ele>85.027252289438</ele>
        <time>2020-08-16T08:52:32.000Z</time>
      </trkpt>
      <trkpt lat="43.63451" lon="3.82889">
        <ele>85.124236078094</ele>
        <time>2020-08-16T08:52:33.000Z</time>
      </trkpt>
      <trkpt lat="43.63448" lon="3.82893">
        <ele>85.221219866749</ele>
        <time>2020-08-16T08:52:34.000Z</time>
      </trkpt>
      <trkpt lat="43.63445" lon="3.82897">
        <ele>85.318203655404</ele>
        <time>2020-08-16T08:52:35.000Z</time>
      </trkpt>
      <trkpt lat="43.63442" lon="3.82901">
        <ele>85.41518744406</ele>
        <time>2020-08-16T08:52:36.000Z</time>
      </trkpt>
      <trkpt lat="43.6344" lon="3.82905">
        <ele>85.512171232715</ele>
        <time>2020-08-16T08:52:37.000Z</time>
      </trkpt>
      <trkpt lat="43.63437" lon="3.82909">
        <ele>85.609155021371</ele>
        <time>2020-08-16T08:52:38.000Z</time>
      </trkpt>
      <trkpt lat="43.63434" lon="3.82913">
        <ele>85.706138810026</ele>
        <time>2020-08-16T08:52:39.000Z</time>
      </trkpt>
      <trkpt lat="43.63431" lon="3.82917">
        <ele>85.803122598681</ele>
        <time>2020-08-16T08:52:40.000Z</time>
      </trkpt>
      <trkpt lat="43.63428" lon="3.8292">
        <ele>85.900106387337</ele>
        <time>2020-08-16T08:52:41.000Z</time>
      </trkpt>
      <trkpt lat="43.63426" lon="3.82924">
        <ele>85.997090175992</ele>
        <time>2020-08-16T08:52:42.000Z</time>
      </trkpt>
      <trkpt lat="43.63423" lon="3.82928">
        <ele>86</ele>
        <time>2020-08-16T08:52:43.000Z</time>
      </trkpt>
      <trkpt lat="43.6342" lon="3.82931">
        <ele>86</ele>
        <time>2020-08-16T08:52:44.000Z</time>
      </trkpt>
      <trkpt lat="43.63418" lon="3.82935">
        <ele>86</ele>
        <time>2020-08-16T08:52:45.000Z</time>
      </trkpt>
      <trkpt lat="43.63415" lon="3.82938">
        <ele>86</ele>
        <time>2020-08-16T08:52:46.000Z</time>
      </trkpt>
      <trkpt lat="43.63412" lon="3.82942">
        <ele>86</ele>
        <time>2020-08-16T08:52:47.000Z</time>
      </trkpt>
      <trkpt lat="43.6341" lon="3.82945">
        <ele>86</ele>
        <time>2020-08-16T08:52:48.000Z</time>
      </trkpt>
      <trkpt lat="43.63407" lon="3.82949">
        <ele>86</ele>
        <time>2020-08-16T08:52:49.000Z</time>
      </trkpt>
      <trkpt lat="43.63404" lon="3.82952">
        <ele>86</ele>
        <time>2020-08-16T08:52:50.000Z</time>
      </trkpt>
      <trkpt lat="43.63401" lon="3.82955">
        <ele>86</ele>
        <time>2020-08-16T08:52:51.000Z</time>
      </trkpt>
      <trkpt lat="43.63399" lon="3.82959">
        <ele>86</ele>
        <time>2020-08-16T08:52:52.000Z</time>
      </trkpt>
      <trkpt lat="43.63396" lon="3.82962">
        <ele>86</ele>
        <time>2020-08-16T08:52:53.000Z</time>
      </trkpt>
      <trkpt lat="43.63393" lon="3.82966">
        <ele>86</ele>
        <time>2020-08-16T08:52:54.000Z</time>
      </trkpt>
      <trkpt lat="43.6339" lon="3.8297">
        <ele>86</ele>
        <time>2020-08-16T08:52:55.000Z</time>
      </trkpt>
      <trkpt lat="43.63387" lon="3.82974">
        <ele>86</ele>
        <time>2020-08-16T08:52:56.000Z</time>
      </trkpt>
      <trkpt lat="43.63383" lon="3.82978">
        <ele>86</ele>
        <time>2020-08-16T08:52:57.000Z</time>
      </trkpt>
      <trkpt lat="43.6338" lon="3.82982">
        <ele>86</ele>
        <time>2020-08-16T08:52:58.000Z</time>
      </trkpt>
      <trkpt lat="43.63376" lon="3.82986">
        <ele>86</ele>
        <time>2020-08-16T08:52:59.000Z</time>
      </trkpt>
      <trkpt lat="43.63372" lon="3.82989">
        <ele>86</ele>
        <time>2020-08-16T08:53:00.000Z</time>
      </trkpt>
      <trkpt lat="43.63369" lon="3.82993">
        <ele>86</ele>
        <time>2020-08-16T08:53:01.000Z</time>
      </trkpt>
      <trkpt lat="43.63365" lon="3.82996">
        <ele>86</ele>
        <time>2020-08-16T08:53:02.000Z</time>
      </trkpt>
      <trkpt lat="43.63361" lon="3.83">
        <ele>86</ele>
        <time>2020-08-16T08:53:03.000Z</time>
      </trkpt>
      <trkpt lat="43.63358" lon="3.83003">
        <ele>86</ele>
        <time>2020-08-16T08:53:04.000Z</time>
      </trkpt>
      <trkpt lat="43.63354" lon="3.83006">
        <ele>86</ele>
        <time>2020-08-16T08:53:05.000Z</time>
      </trkpt>
      <trkpt lat="43.6335" lon="3.8301">
        <ele>86</ele>
        <time>2020-08-16T08:53:06.000Z</time>
      </trkpt>
      <trkpt lat="43.63347" lon="3.83014">
        <ele>86</ele>
        <time>2020-08-16T08:53:07.000Z</time>
      </trkpt>
      <trkpt lat="43.63343" lon="3.83017">
        <ele>86</ele>
        <time>2020-08-16T08:53:08.000Z</time>
      </trkpt>
      <trkpt lat="43.6334" lon="3.83021">
        <ele>86</ele>
        <time>2020-08-16T08:53:09.000Z</time>
      </trkpt>
      <trkpt lat="43.63335" lon="3.83024">
        <ele>86</ele>
        <time>2020-08-16T08:53:10.000Z</time>
      </trkpt>
      <trkpt lat="43.63331" lon="3.83027">
        <ele>86</ele>
        <time>2020-08-16T08:53:11.000Z</time>
      </trkpt>
      <trkpt lat="43.63327" lon="3.8303">
        <ele>86</ele>
        <time>2020-08-16T08:53:12.000Z</time>
      </trkpt>
      <trkpt lat="43.63323" lon="3.83033">
        <ele>86</ele>
        <time>2020-08-16T08:53:13.000Z</time>
      </trkpt>
      <trkpt lat="43.63319" lon="3.83036">
        <ele>86</ele>
        <time>2020-08-16T08:53:14.000Z</time>
      </trkpt>
      <trkpt lat="43.63315" lon="3.83039">
        <ele>86</ele>
        <time>2020-08-16T08:53:15.000Z</time>
      </trkpt>
      <trkpt lat="43.63311" lon="3.83042">
        <ele>86</ele>
        <time>2020-08-16T08:53:16.000Z</time>
      </trkpt>
      <trkpt lat="43.63307" lon="3.83046">
        <ele>86</ele>
        <time>2020-08-16T08:53:17.000Z</time>
      </trkpt>
      <trkpt lat="43.63302" lon="3.83049">
        <ele>86</ele>
        <time>2020-08-16T08:53:18.000Z</time>
      </trkpt>
      <trkpt lat="43.63298" lon="3.83052">
        <ele>86</ele>
        <time>2020-08-16T08:53:19.000Z</time>
      </trkpt>
      <trkpt lat="43.63293" lon="3.83055">
        <ele>86</ele>
        <time>2020-08-16T08:53:20.000Z</time>
      </trkpt>
      <trkpt lat="43.63289" lon="3.83058">
        <ele>86</ele>
        <time>2020-08-16T08:53:21.000Z</time>
      </trkpt>
      <trkpt lat="43.63284" lon="3.83061">
        <ele>85.97299968</ele>
        <time>2020-08-16T08:53:22.000Z</time>
      </trkpt>
      <trkpt lat="43.63279" lon="3.83064">
        <ele>85.87299968</ele>
        <time>2020-08-16T08:53:23.000Z</time>
      </trkpt>
      <trkpt lat="43.63275" lon="3.83067">
        <ele>85.77299968</ele>
        <time>2020-08-16T08:53:24.000Z</time>
      </trkpt>
      <trkpt lat="43.6327" lon="3.83069">
        <ele>85.67299968</ele>
        <time>2020-08-16T08:53:25.000Z</time>
      </trkpt>
      <trkpt lat="43.63265" lon="3.83072">
        <ele>85.57299968</ele>
        <time>2020-08-16T08:53:26.000Z</time>
      </trkpt>
      <trkpt lat="43.63261" lon="3.83075">
        <ele>85.47299968</ele>
        <time>2020-08-16T08:53:27.000Z</time>
      </trkpt>
      <trkpt lat="43.63256" lon="3.83077">
        <ele>85.37299968</ele>
        <time>2020-08-16T08:53:28.000Z</time>
      </trkpt>
      <trkpt lat="43.63252" lon="3.83078">
        <ele>85.27299968</ele>
        <time>2020-08-16T08:53:29.000Z</time>
      </trkpt>
      <trkpt lat="43.63247" lon="3.8308">
        <ele>85.17299968</ele>
        <time>2020-08-16T08:53:30.000Z</time>
      </trkpt>
      <trkpt lat="43.63243" lon="3.83081">
        <ele>85.07299968</ele>
        <time>2020-08-16T08:53:31.000Z</time>
      </trkpt>
      <trkpt lat="43.63239" lon="3.83083">
        <ele>84.97299968</ele>
        <time>2020-08-16T08:53:32.000Z</time>
      </trkpt>
      <trkpt lat="43.63234" lon="3.83085">
        <ele>84.87299968</ele>
        <time>2020-08-16T08:53:33.000Z</time>
      </trkpt>
      <trkpt lat="43.63229" lon="3.83087">
        <ele>84.77299968</ele>
        <time>2020-08-16T08:53:34.000Z</time>
      </trkpt>
      <trkpt lat="43.63225" lon="3.8309">
        <ele>84.67299968</ele>
        <time>2020-08-16T08:53:35.000Z</time>
      </trkpt>
      <trkpt lat="43.6322" lon="3.83092">
        <ele>84.57299968</ele>
        <time>2020-08-16T08:53:36.000Z</time>
      </trkpt>
      <trkpt lat="43.63215" lon="3.83094">
        <ele>84.47299968</ele>
        <time>2020-08-16T08:53:37.000Z</time>
      </trkpt>
      <trkpt lat="43.63211" lon="3.83096">
        <ele>84.37299968</ele>
        <time>2020-08-16T08:53:38.000Z</time>
      </trkpt>
      <trkpt lat="43.63206" lon="3.83098">
        <ele>84.27299968</ele>
        <time>2020-08-16T08:53:39.000Z</time>
      </trkpt>
      <trkpt lat="43.63202" lon="3.831">
        <ele>84.17299968</ele>
        <time>2020-08-16T08:53:40.000Z</time>
      </trkpt>
      <trkpt lat="43.63197" lon="3.83101">
        <ele>84.07299968</ele>
        <time>2020-08-16T08:53:41.000Z</time>
      </trkpt>
      <trkpt lat="43.63192" lon="3.83103">
        <ele>84</ele>
        <time>2020-08-16T08:53:42.000Z</time>
      </trkpt>
      <trkpt lat="43.63188" lon="3.83105">
        <ele>84</ele>
        <time>2020-08-16T08:53:43.000Z</time>
      </trkpt>
      <trkpt lat="43.63183" lon="3.83106">
        <ele>84</ele>
        <time>2020-08-16T08:53:44.000Z</time>
      </trkpt>
      <trkpt lat="43.63179" lon="3.83108">
        <ele>84</ele>
        <time>2020-08-16T08:53:45.000Z</time>
      </trkpt>
      <trkpt lat="43.63174" lon="3.8311">
        <ele>84</ele>
        <time>2020-08-16T08:53:46.000Z</time>
      </trkpt>
      <trkpt lat="43.6317" lon="3.83111">
        <ele>84</ele>
        <time>2020-08-16T08:53:47.000Z</time>
      </trkpt>
      <trkpt lat="43.63166" lon="3.83112">
        <ele>84</ele>
        <time>2020-08-16T08:53:48.000Z</time>
      </trkpt>
      <trkpt lat="43.63162" lon="3.83114">
        <ele>84</ele>
        <time>2020-08-16T08:53:49.000Z</time>
      </trkpt>
      <trkpt lat="43.63157" lon="3.83115">
        <ele>84</ele>
        <time>2020-08-16T08:53:50.000Z</time>
      </trkpt>
      <trkpt lat="43.63153" lon="3.83117">
        <ele>84</ele>
        <time>2020-08-16T08:53:51.000Z</time>
      </trkpt>
      <trkpt lat="43.63149" lon="3.83118">
        <ele>84</ele>
        <time>2020-08-16T08:53:52.000Z</time>
      </trkpt>
      <trkpt lat="43.63144" lon="3.83119">
        <ele>84</ele>
        <time>2020-08-16T08:53:53.000Z</time>
      </trkpt>
      <trkpt lat="43.6314" lon="3.8312">
        <ele>84</ele>
        <time>2020-08-16T08:53:54.000Z</time>
      </trkpt>
      <trkpt lat="43.63136" lon="3.83121">
        <ele>84</ele>
        <time>2020-08-16T08:53:55.000Z</time>
      </trkpt>
      <trkpt lat="43.63132" lon="3.83123">
        <ele>84</ele>
        <time>2020-08-16T08:53:56.000Z</time>
      </trkpt>
      <trkpt lat="43.63128" lon="3.83124">
        <ele>84</ele>
        <time>2020-08-16T08:53:57.000Z</time>
      </trkpt>
      <trkpt lat="43.63124" lon="3.83125">
        <ele>84</ele>
        <time>2020-08-16T08:53:58.000Z</time>
      </trkpt>
      <trkpt lat="43.63119" lon="3.83126">
        <ele>84</ele>
        <time>2020-08-16T08:53:59.000Z</time>
      </trkpt>
      <trkpt lat="43.63115" lon="3.83127">
        <ele>84</ele>
        <time>2020-08-16T08:54:00.000Z</time>
      </trkpt>
      <trkpt lat="43.63111" lon="3.83127">
        <ele>84</ele>
        <time>2020-08-16T08:54:01.000Z</time>
      </trkpt>
      <trkpt lat="43.63107" lon="3.83128">
        <ele>84</ele>
        <time>2020-08-16T08:54:02.000Z</time>
      </trkpt>
      <trkpt lat="43.63102" lon="3.83128">
        <ele>84</ele>
        <time>2020-08-16T08:54:03.000Z</time>
      </trkpt>
      <trkpt lat="43.63098" lon="3.83128">
        <ele>84</ele>
        <time>2020-08-16T08:54:04.000Z</time>
      </trkpt>
      <trkpt lat="43.63093" lon="3.83128">
        <ele>84</ele>
        <time>2020-08-16T08:54:05.000Z</time>
      </trkpt>
      <trkpt lat="43.63089" lon="3.83127">
        <ele>84</ele>
        <time>2020-08-16T08:54:06.000Z</time>
      </trkpt>
      <trkpt lat="43.63084" lon="3.83127">
        <ele>84</ele>
        <time>2020-08-16T08:54:07.000Z</time>
      </trkpt>
      <trkpt lat="43.6308" lon="3.83126">
        <ele>84</ele>
        <time>2020-08-16T08:54:08.000Z</time>
      </trkpt>
      <trkpt lat="43.63076" lon="3.83124">
        <ele>84</ele>
        <time>2020-08-16T08:54:09.000Z</time>
      </trkpt>
      <trkpt lat="43.63072" lon="3.83122">
        <ele>84</ele>
        <time>2020-08-16T08:54:10.000Z</time>
      </trkpt>
      <trkpt lat="43.63067" lon="3.8312">
        <ele>84</ele>
        <time>2020-08-16T08:54:11.000Z</time>
      </trkpt>
      <trkpt lat="43.63063" lon="3.83118">
        <ele>84</ele>
        <time>2020-08-16T08:54:12.000Z</time>
      </trkpt>
      <trkpt lat="43.63059" lon="3.83116">
        <ele>84</ele>
        <time>2020-08-16T08:54:13.000Z</time>
      </trkpt>
      <trkpt lat="43.63055" lon="3.83115">
        <ele>84</ele>
        <time>2020-08-16T08:54:14.000Z</time>
      </trkpt>
      <trkpt lat="43.63051" lon="3.83113">
        <ele>84</ele>
        <time>2020-08-16T08:54:15.000Z</time>
      </trkpt>
      <trkpt lat="43.63047" lon="3.83112">
        <ele>84</ele>
        <time>2020-08-16T08:54:16.000Z</time>
      </trkpt>
      <trkpt lat="43.63043" lon="3.83111">
        <ele>84</ele>
        <time>2020-08-16T08:54:17.000Z</time>
      </trkpt>
      <trkpt lat="43.63039" lon="3.8311">
        <ele>84</ele>
        <time>2020-08-16T08:54:18.000Z</time>
      </trkpt>
      <trkpt lat="43.63035" lon="3.8311">
        <ele>84</ele>
        <time>2020-08-16T08:54:19.000Z</time>
      </trkpt>
      <trkpt lat="43.63031" lon="3.83109">
        <ele>84</ele>
        <time>2020-08-16T08:54:20.000Z</time>
      </trkpt>
      <trkpt lat="43.63027" lon="3.83109">
        <ele>84</ele>
        <time>2020-08-16T08:54:21.000Z</time>
      </trkpt>
      <trkpt lat="43.63024" lon="3.83109">
        <ele>84</ele>
        <time>2020-08-16T08:54:22.000Z</time>
      </trkpt>
      <trkpt lat="43.6302" lon="3.83109">
        <ele>84</ele>
        <time>2020-08-16T08:54:23.000Z</time>
      </trkpt>
      <trkpt lat="43.63017" lon="3.8311">
        <ele>84</ele>
        <time>2020-08-16T08:54:24.000Z</time>
      </trkpt>
      <trkpt lat="43.63015" lon="3.83112">
        <ele>84</ele>
        <time>2020-08-16T08:54:25.000Z</time>
      </trkpt>
      <trkpt lat="43.63013" lon="3.83116">
        <ele>84</ele>
        <time>2020-08-16T08:54:26.000Z</time>
      </trkpt>
      <trkpt lat="43.6301" lon="3.8312">
        <ele>84</ele>
        <time>2020-08-16T08:54:27.000Z</time>
      </trkpt>
      <trkpt lat="43.63007" lon="3.83122">
        <ele>84</ele>
        <time>2020-08-16T08:54:28.000Z</time>
      </trkpt>
      <trkpt lat="43.63003" lon="3.83124">
        <ele>84</ele>
        <time>2020-08-16T08:54:29.000Z</time>
      </trkpt>
      <trkpt lat="43.62999" lon="3.83126">
        <ele>84</ele>
        <time>2020-08-16T08:54:30.000Z</time>
      </trkpt>
      <trkpt lat="43.62995" lon="3.83127">
        <ele>84</ele>
        <time>2020-08-16T08:54:31.000Z</time>
      </trkpt>
      <trkpt lat="43.6299" lon="3.83127">
        <ele>84</ele>
        <time>2020-08-16T08:54:32.000Z</time>
      </trkpt>
      <trkpt lat="43.62986" lon="3.83126">
        <ele>84</ele>
        <time>2020-08-16T08:54:33.000Z</time>
      </trkpt>
      <trkpt lat="43.62982" lon="3.83125">
        <ele>84</ele>
        <time>2020-08-16T08:54:34.000Z</time>
      </trkpt>
      <trkpt lat="43.62978" lon="3.83123">
        <ele>84</ele>
        <time>2020-08-16T08:54:35.000Z</time>
      </trkpt>
      <trkpt lat="43.62974" lon="3.83122">
        <ele>84</ele>
        <time>2020-08-16T08:54:36.000Z</time>
      </trkpt>
      <trkpt lat="43.6297" lon="3.8312">
        <ele>84</ele>
        <time>2020-08-16T08:54:37.000Z</time>
      </trkpt>
      <trkpt lat="43.62966" lon="3.83119">
        <ele>84</ele>
        <time>2020-08-16T08:54:38.000Z</time>
      </trkpt>
      <trkpt lat="43.62962" lon="3.83118">
        <ele>84</ele>
        <time>2020-08-16T08:54:39.000Z</time>
      </trkpt>
      <trkpt lat="43.62958" lon="3.83116">
        <ele>84</ele>
        <time>2020-08-16T08:54:40.000Z</time>
      </trkpt>
      <trkpt lat="43.62954" lon="3.83115">
        <ele>84</ele>
        <time>2020-08-16T08:54:41.000Z</time>
      </trkpt>
      <trkpt lat="43.6295" lon="3.83114">
        <ele>84.024098801229</ele>
        <time>2020-08-16T08:54:42.000Z</time>
      </trkpt>
      <trkpt lat="43.62946" lon="3.83112">
        <ele>84.124510473018</ele>
        <time>2020-08-16T08:54:43.000Z</time>
      </trkpt>
      <trkpt lat="43.62942" lon="3.83111">
        <ele>84.224922144806</ele>
        <time>2020-08-16T08:54:44.000Z</time>
      </trkpt>
      <trkpt lat="43.62938" lon="3.8311">
        <ele>84.325333816595</ele>
        <time>2020-08-16T08:54:45.000Z</time>
      </trkpt>
      <trkpt lat="43.62934" lon="3.83108">
        <ele>84.425745488383</ele>
        <time>2020-08-16T08:54:46.000Z</time>
      </trkpt>
      <trkpt lat="43.62929" lon="3.83107">
        <ele>84.526157160172</ele>
        <time>2020-08-16T08:54:47.000Z</time>
      </trkpt>
      <trkpt lat="43.62925" lon="3.83105">
        <ele>84.62656883196</ele>
        <time>2020-08-16T08:54:48.000Z</time>
      </trkpt>
      <trkpt lat="43.62921" lon="3.83104">
        <ele>84.726980503749</ele>
        <time>2020-08-16T08:54:49.000Z</time>
      </trkpt>
      <trkpt lat="43.62916" lon="3.83103">
        <ele>84.827392175537</ele>
        <time>2020-08-16T08:54:50.000Z</time>
      </trkpt>
      <trkpt lat="43.62912" lon="3.83102">
        <ele>84.927803847325</ele>
        <time>2020-08-16T08:54:51.000Z</time>
      </trkpt>
      <trkpt lat="43.62907" lon="3.83101">
        <ele>85</ele>
        <time>2020-08-16T08:54:52.000Z</time>
      </trkpt>
      <trkpt lat="43.62903" lon="3.83101">
        <ele>85</ele>
        <time>2020-08-16T08:54:53.000Z</time>
      </trkpt>
      <trkpt lat="43.62899" lon="3.831">
        <ele>85</ele>
        <time>2020-08-16T08:54:54.000Z</time>
      </trkpt>
      <trkpt lat="43.62894" lon="3.83099">
        <ele>85</ele>
        <time>2020-08-16T08:54:55.000Z</time>
      </trkpt>
      <trkpt lat="43.6289" lon="3.83099">
        <ele>85</ele>
        <time>2020-08-16T08:54:56.000Z</time>
      </trkpt>
      <trkpt lat="43.62886" lon="3.83098">
        <ele>85</ele>
        <time>2020-08-16T08:54:57.000Z</time>
      </trkpt>
      <trkpt lat="43.62882" lon="3.83097">
        <ele>85</ele>
        <time>2020-08-16T08:54:58.000Z</time>
      </trkpt>
      <trkpt lat="43.62877" lon="3.83097">
        <ele>85</ele>
        <time>2020-08-16T08:54:59.000Z</time>
      </trkpt>
      <trkpt lat="43.62873" lon="3.83097">
        <ele>85</ele>
        <time>2020-08-16T08:55:00.000Z</time>
      </trkpt>
      <trkpt lat="43.62869" lon="3.83096">
        <ele>85</ele>
        <time>2020-08-16T08:55:01.000Z</time>
      </trkpt>
      <trkpt lat="43.62865" lon="3.83096">
        <ele>85.027278770821</ele>
        <time>2020-08-16T08:55:02.000Z</time>
      </trkpt>
      <trkpt lat="43.62861" lon="3.83097">
        <ele>85.124356799811</ele>
        <time>2020-08-16T08:55:03.000Z</time>
      </trkpt>
      <trkpt lat="43.62856" lon="3.83097">
        <ele>85.221434828801</ele>
        <time>2020-08-16T08:55:04.000Z</time>
      </trkpt>
      <trkpt lat="43.62852" lon="3.83097">
        <ele>85.318512857791</ele>
        <time>2020-08-16T08:55:05.000Z</time>
      </trkpt>
      <trkpt lat="43.62848" lon="3.83098">
        <ele>85.415590886781</ele>
        <time>2020-08-16T08:55:06.000Z</time>
      </trkpt>
      <trkpt lat="43.62844" lon="3.83098">
        <ele>85.51266891577</ele>
        <time>2020-08-16T08:55:07.000Z</time>
      </trkpt>
      <trkpt lat="43.6284" lon="3.83099">
        <ele>85.60974694476</ele>
        <time>2020-08-16T08:55:08.000Z</time>
      </trkpt>
      <trkpt lat="43.62836" lon="3.831">
        <ele>85.70682497375</ele>
        <time>2020-08-16T08:55:09.000Z</time>
      </trkpt>
      <trkpt lat="43.62832" lon="3.83101">
        <ele>85.80390300274</ele>
        <time>2020-08-16T08:55:10.000Z</time>
      </trkpt>
      <trkpt lat="43.62828" lon="3.83101">
        <ele>85.90098103173</ele>
        <time>2020-08-16T08:55:11.000Z</time>
      </trkpt>
      <trkpt lat="43.62824" lon="3.83101">
        <ele>85.99805906072</ele>
        <time>2020-08-16T08:55:12.000Z</time>
      </trkpt>
      <trkpt lat="43.62821" lon="3.83101">
        <ele>86.100927505359</ele>
        <time>2020-08-16T08:55:13.000Z</time>
      </trkpt>
      <trkpt lat="43.62817" lon="3.83101">
        <ele>86.203914083159</ele>
        <time>2020-08-16T08:55:14.000Z</time>
      </trkpt>
      <trkpt lat="43.62813" lon="3.83102">
        <ele>86.30690066096</ele>
        <time>2020-08-16T08:55:15.000Z</time>
      </trkpt>
      <trkpt lat="43.62809" lon="3.83102">
        <ele>86.40988723876</ele>
        <time>2020-08-16T08:55:16.000Z</time>
      </trkpt>
      <trkpt lat="43.62805" lon="3.83103">
        <ele>86.512873816561</ele>
        <time>2020-08-16T08:55:17.000Z</time>
      </trkpt>
      <trkpt lat="43.62801" lon="3.83104">
        <ele>86.615860394361</ele>
        <time>2020-08-16T08:55:18.000Z</time>
      </trkpt>
      <trkpt lat="43.62796" lon="3.83106">
        <ele>86.718846972162</ele>
        <time>2020-08-16T08:55:19.000Z</time>
      </trkpt>
      <trkpt lat="43.62792" lon="3.83107">
        <ele>86.821833549962</ele>
        <time>2020-08-16T08:55:20.000Z</time>
      </trkpt>
      <trkpt lat="43.62788" lon="3.83108">
        <ele>86.924820127763</ele>
        <time>2020-08-16T08:55:21.000Z</time>
      </trkpt>
      <trkpt lat="43.62784" lon="3.83109">
        <ele>87</ele>
        <time>2020-08-16T08:55:22.000Z</time>
      </trkpt>
      <trkpt lat="43.62779" lon="3.8311">
        <ele>87</ele>
        <time>2020-08-16T08:55:23.000Z</time>
      </trkpt>
      <trkpt lat="43.62775" lon="3.8311">
        <ele>87</ele>
        <time>2020-08-16T08:55:24.000Z</time>
      </trkpt>
      <trkpt lat="43.62771" lon="3.8311">
        <ele>87</ele>
        <time>2020-08-16T08:55:25.000Z</time>
      </trkpt>
      <trkpt lat="43.62767" lon="3.8311">
        <ele>87</ele>
        <time>2020-08-16T08:55:26.000Z</time>
      </trkpt>
      <trkpt lat="43.62763" lon="3.83111">
        <ele>87</ele>
        <time>2020-08-16T08:55:27.000Z</time>
      </trkpt>
      <trkpt lat="43.62759" lon="3.83112">
        <ele>87</ele>
        <time>2020-08-16T08:55:28.000Z</time>
      </trkpt>
      <trkpt lat="43.62755" lon="3.83113">
        <ele>87</ele>
        <time>2020-08-16T08:55:29.000Z</time>
      </trkpt>
      <trkpt lat="43.62751" lon="3.83115">
        <ele>87</ele>
        <time>2020-08-16T08:55:30.000Z</time>
      </trkpt>
      <trkpt lat="43.62746" lon="3.83117">
        <ele>87</ele>
        <time>2020-08-16T08:55:31.000Z</time>
      </trkpt>
      <trkpt lat="43.62742" lon="3.8312">
        <ele>87</ele>
        <time>2020-08-16T08:55:32.000Z</time>
      </trkpt>
      <trkpt lat="43.62738" lon="3.83122">
        <ele>87</ele>
        <time>2020-08-16T08:55:33.000Z</time>
      </trkpt>
      <trkpt lat="43.62734" lon="3.83126">
        <ele>87</ele>
        <time>2020-08-16T08:55:34.000Z</time>
      </trkpt>
      <trkpt lat="43.62729" lon="3.83129">
        <ele>87</ele>
        <time>2020-08-16T08:55:35.000Z</time>
      </trkpt>
      <trkpt lat="43.62725" lon="3.83131">
        <ele>87</ele>
        <time>2020-08-16T08:55:36.000Z</time>
      </trkpt>
      <trkpt lat="43.62721" lon="3.83134">
        <ele>87</ele>
        <time>2020-08-16T08:55:37.000Z</time>
      </trkpt>
      <trkpt lat="43.62716" lon="3.83136">
        <ele>87</ele>
        <time>2020-08-16T08:55:38.000Z</time>
      </trkpt>
      <trkpt lat="43.62712" lon="3.83138">
        <ele>87</ele>
        <time>2020-08-16T08:55:39.000Z</time>
      </trkpt>
      <trkpt lat="43.62707" lon="3.8314">
        <ele>87</ele>
        <time>2020-08-16T08:55:40.000Z</time>
      </trkpt>
      <trkpt lat="43.62702" lon="3.83143">
        <ele>87</ele>
        <time>2020-08-16T08:55:41.000Z</time>
      </trkpt>
      <trkpt lat="43.62698" lon="3.83146">
        <ele>86.944055926172</ele>
        <time>2020-08-16T08:55:42.000Z</time>
      </trkpt>
      <trkpt lat="43.62693" lon="3.83149">
        <ele>86.744255662499</ele>
        <time>2020-08-16T08:55:43.000Z</time>
      </trkpt>
      <trkpt lat="43.62688" lon="3.83151">
        <ele>86.544455398827</ele>
        <time>2020-08-16T08:55:44.000Z</time>
      </trkpt>
      <trkpt lat="43.62682" lon="3.83155">
        <ele>86.344655135154</ele>
        <time>2020-08-16T08:55:45.000Z</time>
      </trkpt>
      <trkpt lat="43.62677" lon="3.83159">
        <ele>86.144854871482</ele>
        <time>2020-08-16T08:55:46.000Z</time>
      </trkpt>
      <trkpt lat="43.62672" lon="3.83164">
        <ele>85.94505460781</ele>
        <time>2020-08-16T08:55:47.000Z</time>
      </trkpt>
      <trkpt lat="43.62667" lon="3.83168">
        <ele>85.745254344137</ele>
        <time>2020-08-16T08:55:48.000Z</time>
      </trkpt>
      <trkpt lat="43.62661" lon="3.83172">
        <ele>85.545454080465</ele>
        <time>2020-08-16T08:55:49.000Z</time>
      </trkpt>
      <trkpt lat="43.62656" lon="3.83176">
        <ele>85.345653816792</ele>
        <time>2020-08-16T08:55:50.000Z</time>
      </trkpt>
      <trkpt lat="43.6265" lon="3.8318">
        <ele>85.14585355312</ele>
        <time>2020-08-16T08:55:51.000Z</time>
      </trkpt>
      <trkpt lat="43.62644" lon="3.83184">
        <ele>84.94599936</ele>
        <time>2020-08-16T08:55:52.000Z</time>
      </trkpt>
      <trkpt lat="43.62639" lon="3.83188">
        <ele>84.74599936</ele>
        <time>2020-08-16T08:55:53.000Z</time>
      </trkpt>
      <trkpt lat="43.62633" lon="3.83193">
        <ele>84.54599936</ele>
        <time>2020-08-16T08:55:54.000Z</time>
      </trkpt>
      <trkpt lat="43.62627" lon="3.83197">
        <ele>84.34599936</ele>
        <time>2020-08-16T08:55:55.000Z</time>
      </trkpt>
      <trkpt lat="43.62621" lon="3.83201">
        <ele>84.14599936</ele>
        <time>2020-08-16T08:55:56.000Z</time>
      </trkpt>
      <trkpt lat="43.62615" lon="3.83206">
        <ele>83.94599936</ele>
        <time>2020-08-16T08:55:57.000Z</time>
      </trkpt>
      <trkpt lat="43.62609" lon="3.8321">
        <ele>83.74599936</ele>
        <time>2020-08-16T08:55:58.000Z</time>
      </trkpt>
      <trkpt lat="43.62603" lon="3.83215">
        <ele>83.54599936</ele>
        <time>2020-08-16T08:55:59.000Z</time>
      </trkpt>
      <trkpt lat="43.62597" lon="3.83219">
        <ele>83.34599936</ele>
        <time>2020-08-16T08:56:00.000Z</time>
      </trkpt>
      <trkpt lat="43.62591" lon="3.83224">
        <ele>83.14599936</ele>
        <time>2020-08-16T08:56:01.000Z</time>
      </trkpt>
      <trkpt lat="43.62585" lon="3.83228">
        <ele>82.94599936</ele>
        <time>2020-08-16T08:56:02.000Z</time>
      </trkpt>
      <trkpt lat="43.62578" lon="3.83232">
        <ele>82.74599936</ele>
        <time>2020-08-16T08:56:03.000Z</time>
      </trkpt>
      <trkpt lat="43.62572" lon="3.83235">
        <ele>82.54599936</ele>
        <time>2020-08-16T08:56:04.000Z</time>
      </trkpt>
      <trkpt lat="43.62565" lon="3.83238">
        <ele>82.34599936</ele>
        <time>2020-08-16T08:56:05.000Z</time>
      </trkpt>
      <trkpt lat="43.6256" lon="3.83242">
        <ele>82.14599936</ele>
        <time>2020-08-16T08:56:06.000Z</time>
      </trkpt>
      <trkpt lat="43.62556" lon="3.83249">
        <ele>81.94599936</ele>
        <time>2020-08-16T08:56:07.000Z</time>
      </trkpt>
      <trkpt lat="43.62553" lon="3.83256">
        <ele>81.74599936</ele>
        <time>2020-08-16T08:56:08.000Z</time>
      </trkpt>
      <trkpt lat="43.62549" lon="3.83264">
        <ele>81.54599936</ele>
        <time>2020-08-16T08:56:09.000Z</time>
      </trkpt>
      <trkpt lat="43.62546" lon="3.83271">
        <ele>81.34599936</ele>
        <time>2020-08-16T08:56:10.000Z</time>
      </trkpt>
      <trkpt lat="43.62543" lon="3.83278">
        <ele>81.14599936</ele>
        <time>2020-08-16T08:56:11.000Z</time>
      </trkpt>
      <trkpt lat="43.6254" lon="3.83285">
        <ele>80.94910399973</ele>
        <time>2020-08-16T08:56:12.000Z</time>
      </trkpt>
      <trkpt lat="43.62538" lon="3.83293">
        <ele>80.760602529117</ele>
        <time>2020-08-16T08:56:13.000Z</time>
      </trkpt>
      <trkpt lat="43.62535" lon="3.833">
        <ele>80.572101058504</ele>
        <time>2020-08-16T08:56:14.000Z</time>
      </trkpt>
      <trkpt lat="43.62533" lon="3.83308">
        <ele>80.383599587891</ele>
        <time>2020-08-16T08:56:15.000Z</time>
      </trkpt>
      <trkpt lat="43.62531" lon="3.83315">
        <ele>80.195098117277</ele>
        <time>2020-08-16T08:56:16.000Z</time>
      </trkpt>
      <trkpt lat="43.62528" lon="3.83323">
        <ele>80.006596646664</ele>
        <time>2020-08-16T08:56:17.000Z</time>
      </trkpt>
      <trkpt lat="43.62526" lon="3.8333">
        <ele>79.818095176051</ele>
        <time>2020-08-16T08:56:18.000Z</time>
      </trkpt>
      <trkpt lat="43.62524" lon="3.83338">
        <ele>79.629593705438</ele>
        <time>2020-08-16T08:56:19.000Z</time>
      </trkpt>
      <trkpt lat="43.62522" lon="3.83345">
        <ele>79.441092234825</ele>
        <time>2020-08-16T08:56:20.000Z</time>
      </trkpt>
      <trkpt lat="43.62519" lon="3.83352">
        <ele>79.252590764212</ele>
        <time>2020-08-16T08:56:21.000Z</time>
      </trkpt>
      <trkpt lat="43.62517" lon="3.83359">
        <ele>79.064089293599</ele>
        <time>2020-08-16T08:56:22.000Z</time>
      </trkpt>
      <trkpt lat="43.62515" lon="3.83366">
        <ele>78.929786648801</ele>
        <time>2020-08-16T08:56:23.000Z</time>
      </trkpt>
      <trkpt lat="43.62513" lon="3.83373">
        <ele>78.823403814939</ele>
        <time>2020-08-16T08:56:24.000Z</time>
      </trkpt>
      <trkpt lat="43.62511" lon="3.83379">
        <ele>78.717020981078</ele>
        <time>2020-08-16T08:56:25.000Z</time>
      </trkpt>
      <trkpt lat="43.62509" lon="3.83386">
        <ele>78.610638147216</ele>
        <time>2020-08-16T08:56:26.000Z</time>
      </trkpt>
      <trkpt lat="43.62507" lon="3.83393">
        <ele>78.504255313355</ele>
        <time>2020-08-16T08:56:27.000Z</time>
      </trkpt>
      <trkpt lat="43.62505" lon="3.834">
        <ele>78.397872479493</ele>
        <time>2020-08-16T08:56:28.000Z</time>
      </trkpt>
      <trkpt lat="43.62503" lon="3.83406">
        <ele>78.291489645631</ele>
        <time>2020-08-16T08:56:29.000Z</time>
      </trkpt>
      <trkpt lat="43.62502" lon="3.83413">
        <ele>78.185106811769</ele>
        <time>2020-08-16T08:56:30.000Z</time>
      </trkpt>
      <trkpt lat="43.625" lon="3.8342">
        <ele>78.078723977908</ele>
        <time>2020-08-16T08:56:31.000Z</time>
      </trkpt>
      <trkpt lat="43.62496" lon="3.83425">
        <ele>77.973974589605</ele>
        <time>2020-08-16T08:56:32.000Z</time>
      </trkpt>
      <trkpt lat="43.62492" lon="3.8343">
        <ele>77.873874393313</ele>
        <time>2020-08-16T08:56:33.000Z</time>
      </trkpt>
      <trkpt lat="43.62488" lon="3.83433">
        <ele>77.77377419702</ele>
        <time>2020-08-16T08:56:34.000Z</time>
      </trkpt>
      <trkpt lat="43.62484" lon="3.83434">
        <ele>77.673674000728</ele>
        <time>2020-08-16T08:56:35.000Z</time>
      </trkpt>
      <trkpt lat="43.6248" lon="3.83433">
        <ele>77.573573804435</ele>
        <time>2020-08-16T08:56:36.000Z</time>
      </trkpt>
      <trkpt lat="43.62476" lon="3.83432">
        <ele>77.473473608143</ele>
        <time>2020-08-16T08:56:37.000Z</time>
      </trkpt>
      <trkpt lat="43.62472" lon="3.8343">
        <ele>77.37337341185</ele>
        <time>2020-08-16T08:56:38.000Z</time>
      </trkpt>
      <trkpt lat="43.62469" lon="3.83428">
        <ele>77.273273215558</ele>
        <time>2020-08-16T08:56:39.000Z</time>
      </trkpt>
      <trkpt lat="43.62465" lon="3.83426">
        <ele>77.173173019265</ele>
        <time>2020-08-16T08:56:40.000Z</time>
      </trkpt>
      <trkpt lat="43.62462" lon="3.83424">
        <ele>77.073072822973</ele>
        <time>2020-08-16T08:56:41.000Z</time>
      </trkpt>
      <trkpt lat="43.62459" lon="3.83421">
        <ele>77.02700032</ele>
        <time>2020-08-16T08:56:42.000Z</time>
      </trkpt>
      <trkpt lat="43.62456" lon="3.83419">
        <ele>77.12700032</ele>
        <time>2020-08-16T08:56:43.000Z</time>
      </trkpt>
      <trkpt lat="43.62453" lon="3.83418">
        <ele>77.22700032</ele>
        <time>2020-08-16T08:56:44.000Z</time>
      </trkpt>
      <trkpt lat="43.62449" lon="3.83418">
        <ele>77.32700032</ele>
        <time>2020-08-16T08:56:45.000Z</time>
      </trkpt>
      <trkpt lat="43.62447" lon="3.83419">
        <ele>77.42700032</ele>
        <time>2020-08-16T08:56:46.000Z</time>
      </trkpt>
      <trkpt lat="43.62444" lon="3.83422">
        <ele>77.52700032</ele>
        <time>2020-08-16T08:56:47.000Z</time>
      </trkpt>
      <trkpt lat="43.62441" lon="3.83425">
        <ele>77.62700032</ele>
        <time>2020-08-16T08:56:48.000Z</time>
      </trkpt>
      <trkpt lat="43.62438" lon="3.83428">
        <ele>77.72700032</ele>
        <time>2020-08-16T08:56:49.000Z</time>
      </trkpt>
      <trkpt lat="43.62435" lon="3.83431">
        <ele>77.82700032</ele>
        <time>2020-08-16T08:56:50.000Z</time>
      </trkpt>
      <trkpt lat="43.62433" lon="3.83434">
        <ele>77.92700032</ele>
        <time>2020-08-16T08:56:51.000Z</time>
      </trkpt>
      <trkpt lat="43.6243" lon="3.83438">
        <ele>78</ele>
        <time>2020-08-16T08:56:52.000Z</time>
      </trkpt>
      <trkpt lat="43.62428" lon="3.83442">
        <ele>78</ele>
        <time>2020-08-16T08:56:53.000Z</time>
      </trkpt>
      <trkpt lat="43.62426" lon="3.83446">
        <ele>78</ele>
        <time>2020-08-16T08:56:54.000Z</time>
      </trkpt>
      <trkpt lat="43.62423" lon="3.83449">
        <ele>78</ele>
        <time>2020-08-16T08:56:55.000Z</time>
      </trkpt>
      <trkpt lat="43.62421" lon="3.83453">
        <ele>78</ele>
        <time>2020-08-16T08:56:56.000Z</time>
      </trkpt>
      <trkpt lat="43.62419" lon="3.83457">
        <ele>78</ele>
        <time>2020-08-16T08:56:57.000Z</time>
      </trkpt>
      <trkpt lat="43.62416" lon="3.83459">
        <ele>78</ele>
        <time>2020-08-16T08:56:58.000Z</time>
      </trkpt>
      <trkpt lat="43.62412" lon="3.8346">
        <ele>78</ele>
        <time>2020-08-16T08:56:59.000Z</time>
      </trkpt>
      <trkpt lat="43.62408" lon="3.83459">
        <ele>78</ele>
        <time>2020-08-16T08:57:00.000Z</time>
      </trkpt>
      <trkpt lat="43.62405" lon="3.83457">
        <ele>78</ele>
        <time>2020-08-16T08:57:01.000Z</time>
      </trkpt>
      <trkpt lat="43.62401" lon="3.83455">
        <ele>78</ele>
        <time>2020-08-16T08:57:02.000Z</time>
      </trkpt>
      <trkpt lat="43.62397" lon="3.83453">
        <ele>78</ele>
        <time>2020-08-16T08:57:03.000Z</time>
      </trkpt>
      <trkpt lat="43.62393" lon="3.83451">
        <ele>78</ele>
        <time>2020-08-16T08:57:04.000Z</time>
      </trkpt>
      <trkpt lat="43.62389" lon="3.8345">
        <ele>78</ele>
        <time>2020-08-16T08:57:05.000Z</time>
      </trkpt>
      <trkpt lat="43.62385" lon="3.83449">
        <ele>78</ele>
        <time>2020-08-16T08:57:06.000Z</time>
      </trkpt>
      <trkpt lat="43.6238" lon="3.83447">
        <ele>78</ele>
        <time>2020-08-16T08:57:07.000Z</time>
      </trkpt>
      <trkpt lat="43.62376" lon="3.83445">
        <ele>78</ele>
        <time>2020-08-16T08:57:08.000Z</time>
      </trkpt>
      <trkpt lat="43.62372" lon="3.83444">
        <ele>78</ele>
        <time>2020-08-16T08:57:09.000Z</time>
      </trkpt>
      <trkpt lat="43.62367" lon="3.83442">
        <ele>78</ele>
        <time>2020-08-16T08:57:10.000Z</time>
      </trkpt>
      <trkpt lat="43.62363" lon="3.83441">
        <ele>78</ele>
        <time>2020-08-16T08:57:11.000Z</time>
      </trkpt>
      <trkpt lat="43.62358" lon="3.83441">
        <ele>78</ele>
        <time>2020-08-16T08:57:12.000Z</time>
      </trkpt>
      <trkpt lat="43.62354" lon="3.8344">
        <ele>78</ele>
        <time>2020-08-16T08:57:13.000Z</time>
      </trkpt>
      <trkpt lat="43.6235" lon="3.83441">
        <ele>78</ele>
        <time>2020-08-16T08:57:14.000Z</time>
      </trkpt>
      <trkpt lat="43.62346" lon="3.83441">
        <ele>78</ele>
        <time>2020-08-16T08:57:15.000Z</time>
      </trkpt>
      <trkpt lat="43.62342" lon="3.83442">
        <ele>78</ele>
        <time>2020-08-16T08:57:16.000Z</time>
      </trkpt>
      <trkpt lat="43.62338" lon="3.83443">
        <ele>78</ele>
        <time>2020-08-16T08:57:17.000Z</time>
      </trkpt>
      <trkpt lat="43.62334" lon="3.83445">
        <ele>78</ele>
        <time>2020-08-16T08:57:18.000Z</time>
      </trkpt>
      <trkpt lat="43.6233" lon="3.83446">
        <ele>78</ele>
        <time>2020-08-16T08:57:19.000Z</time>
      </trkpt>
      <trkpt lat="43.62327" lon="3.83449">
        <ele>78</ele>
        <time>2020-08-16T08:57:20.000Z</time>
      </trkpt>
      <trkpt lat="43.62323" lon="3.83451">
        <ele>78</ele>
        <time>2020-08-16T08:57:21.000Z</time>
      </trkpt>
      <trkpt lat="43.6232" lon="3.83454">
        <ele>78</ele>
        <time>2020-08-16T08:57:22.000Z</time>
      </trkpt>
      <trkpt lat="43.62316" lon="3.83456">
        <ele>78</ele>
        <time>2020-08-16T08:57:23.000Z</time>
      </trkpt>
      <trkpt lat="43.62313" lon="3.83459">
        <ele>78</ele>
        <time>2020-08-16T08:57:24.000Z</time>
      </trkpt>
      <trkpt lat="43.6231" lon="3.83462">
        <ele>78</ele>
        <time>2020-08-16T08:57:25.000Z</time>
      </trkpt>
      <trkpt lat="43.62307" lon="3.83465">
        <ele>78</ele>
        <time>2020-08-16T08:57:26.000Z</time>
      </trkpt>
      <trkpt lat="43.62304" lon="3.83469">
        <ele>78</ele>
        <time>2020-08-16T08:57:27.000Z</time>
      </trkpt>
      <trkpt lat="43.62302" lon="3.83473">
        <ele>78</ele>
        <time>2020-08-16T08:57:28.000Z</time>
      </trkpt>
      <trkpt lat="43.62299" lon="3.83477">
        <ele>78</ele>
        <time>2020-08-16T08:57:29.000Z</time>
      </trkpt>
      <trkpt lat="43.62297" lon="3.83481">
        <ele>78</ele>
        <time>2020-08-16T08:57:30.000Z</time>
      </trkpt>
      <trkpt lat="43.62294" lon="3.83485">
        <ele>78</ele>
        <time>2020-08-16T08:57:31.000Z</time>
      </trkpt>
      <trkpt lat="43.62292" lon="3.83489">
        <ele>78.027972036914</ele>
        <time>2020-08-16T08:57:32.000Z</time>
      </trkpt>
      <trkpt lat="43.6229" lon="3.83493">
        <ele>78.12787216875</ele>
        <time>2020-08-16T08:57:33.000Z</time>
      </trkpt>
      <trkpt lat="43.62288" lon="3.83498">
        <ele>78.227772300587</ele>
        <time>2020-08-16T08:57:34.000Z</time>
      </trkpt>
      <trkpt lat="43.62287" lon="3.83503">
        <ele>78.327672432423</ele>
        <time>2020-08-16T08:57:35.000Z</time>
      </trkpt>
      <trkpt lat="43.62286" lon="3.83507">
        <ele>78.427572564259</ele>
        <time>2020-08-16T08:57:36.000Z</time>
      </trkpt>
      <trkpt lat="43.62284" lon="3.83512">
        <ele>78.527472696095</ele>
        <time>2020-08-16T08:57:37.000Z</time>
      </trkpt>
      <trkpt lat="43.62281" lon="3.83516">
        <ele>78.627372827931</ele>
        <time>2020-08-16T08:57:38.000Z</time>
      </trkpt>
      <trkpt lat="43.62279" lon="3.8352">
        <ele>78.727272959768</ele>
        <time>2020-08-16T08:57:39.000Z</time>
      </trkpt>
      <trkpt lat="43.62276" lon="3.83523">
        <ele>78.827173091604</ele>
        <time>2020-08-16T08:57:40.000Z</time>
      </trkpt>
      <trkpt lat="43.62273" lon="3.83527">
        <ele>78.92707322344</ele>
        <time>2020-08-16T08:57:41.000Z</time>
      </trkpt>
      <trkpt lat="43.6227" lon="3.8353">
        <ele>79</ele>
        <time>2020-08-16T08:57:42.000Z</time>
      </trkpt>
      <trkpt lat="43.62268" lon="3.83533">
        <ele>79</ele>
        <time>2020-08-16T08:57:43.000Z</time>
      </trkpt>
      <trkpt lat="43.62265" lon="3.83536">
        <ele>79</ele>
        <time>2020-08-16T08:57:44.000Z</time>
      </trkpt>
      <trkpt lat="43.62264" lon="3.83538">
        <ele>79</ele>
        <time>2020-08-16T08:57:45.000Z</time>
      </trkpt>
      <trkpt lat="43.62263" lon="3.83538">
        <ele>79</ele>
        <time>2020-08-16T08:57:52.000Z</time>
      </trkpt>
      <trkpt lat="43.62257" lon="3.83547">
        <ele>79</ele>
        <time>2020-08-16T08:59:35.000Z</time>
      </trkpt>
      <trkpt lat="43.62255" lon="3.83551">
        <ele>79</ele>
        <time>2020-08-16T08:59:36.000Z</time>
      </trkpt>
      <trkpt lat="43.62254" lon="3.83554">
        <ele>79</ele>
        <time>2020-08-16T08:59:37.000Z</time>
      </trkpt>
      <trkpt lat="43.62252" lon="3.83558">
        <ele>79</ele>
        <time>2020-08-16T08:59:38.000Z</time>
      </trkpt>
      <trkpt lat="43.6225" lon="3.83562">
        <ele>79</ele>
        <time>2020-08-16T08:59:39.000Z</time>
      </trkpt>
      <trkpt lat="43.62248" lon="3.83566">
        <ele>79</ele>
        <time>2020-08-16T08:59:40.000Z</time>
      </trkpt>
      <trkpt lat="43.62246" lon="3.8357">
        <ele>79</ele>
        <time>2020-08-16T08:59:41.000Z</time>
      </trkpt>
      <trkpt lat="43.62244" lon="3.83573">
        <ele>79</ele>
        <time>2020-08-16T08:59:42.000Z</time>
      </trkpt>
      <trkpt lat="43.62242" lon="3.83577">
        <ele>79</ele>
        <time>2020-08-16T08:59:43.000Z</time>
      </trkpt>
      <trkpt lat="43.6224" lon="3.8358">
        <ele>79.027210892816</ele>
        <time>2020-08-16T08:59:44.000Z</time>
      </trkpt>
      <trkpt lat="43.62237" lon="3.83584">
        <ele>79.124392652872</ele>
        <time>2020-08-16T08:59:45.000Z</time>
      </trkpt>
      <trkpt lat="43.62235" lon="3.83587">
        <ele>79.221574412929</ele>
        <time>2020-08-16T08:59:46.000Z</time>
      </trkpt>
      <trkpt lat="43.62233" lon="3.83591">
        <ele>79.318756172985</ele>
        <time>2020-08-16T08:59:47.000Z</time>
      </trkpt>
      <trkpt lat="43.6223" lon="3.83594">
        <ele>79.415937933042</ele>
        <time>2020-08-16T08:59:48.000Z</time>
      </trkpt>
      <trkpt lat="43.62227" lon="3.83597">
        <ele>79.513119693098</ele>
        <time>2020-08-16T08:59:49.000Z</time>
      </trkpt>
      <trkpt lat="43.62224" lon="3.836">
        <ele>79.610301453155</ele>
        <time>2020-08-16T08:59:50.000Z</time>
      </trkpt>
      <trkpt lat="43.62221" lon="3.83602">
        <ele>79.707483213212</ele>
        <time>2020-08-16T08:59:51.000Z</time>
      </trkpt>
      <trkpt lat="43.62218" lon="3.83604">
        <ele>79.804664973268</ele>
        <time>2020-08-16T08:59:52.000Z</time>
      </trkpt>
      <trkpt lat="43.62215" lon="3.83606">
        <ele>79.901846733325</ele>
        <time>2020-08-16T08:59:53.000Z</time>
      </trkpt>
      <trkpt lat="43.62212" lon="3.83608">
        <ele>79.999028493381</ele>
        <time>2020-08-16T08:59:54.000Z</time>
      </trkpt>
      <trkpt lat="43.62209" lon="3.83611">
        <ele>80</ele>
        <time>2020-08-16T08:59:55.000Z</time>
      </trkpt>
      <trkpt lat="43.62206" lon="3.83613">
        <ele>80</ele>
        <time>2020-08-16T08:59:56.000Z</time>
      </trkpt>
      <trkpt lat="43.62203" lon="3.83615">
        <ele>80</ele>
        <time>2020-08-16T08:59:57.000Z</time>
      </trkpt>
      <trkpt lat="43.622" lon="3.83617">
        <ele>80</ele>
        <time>2020-08-16T08:59:58.000Z</time>
      </trkpt>
      <trkpt lat="43.62197" lon="3.83619">
        <ele>80</ele>
        <time>2020-08-16T08:59:59.000Z</time>
      </trkpt>
      <trkpt lat="43.62194" lon="3.83622">
        <ele>80</ele>
        <time>2020-08-16T09:00:00.000Z</time>
      </trkpt>
      <trkpt lat="43.62191" lon="3.83624">
        <ele>80</ele>
        <time>2020-08-16T09:00:01.000Z</time>
      </trkpt>
      <trkpt lat="43.62188" lon="3.83626">
        <ele>80</ele>
        <time>2020-08-16T09:00:02.000Z</time>
      </trkpt>
      <trkpt lat="43.62185" lon="3.83629">
        <ele>80</ele>
        <time>2020-08-16T09:00:03.000Z</time>
      </trkpt>
      <trkpt lat="43.62182" lon="3.83631">
        <ele>80</ele>
        <time>2020-08-16T09:00:04.000Z</time>
      </trkpt>
      <trkpt lat="43.62179" lon="3.83633">
        <ele>80</ele>
        <time>2020-08-16T09:00:05.000Z</time>
      </trkpt>
      <trkpt lat="43.62176" lon="3.83636">
        <ele>80</ele>
        <time>2020-08-16T09:00:06.000Z</time>
      </trkpt>
      <trkpt lat="43.62173" lon="3.83638">
        <ele>80</ele>
        <time>2020-08-16T09:00:07.000Z</time>
      </trkpt>
      <trkpt lat="43.6217" lon="3.8364">
        <ele>80</ele>
        <time>2020-08-16T09:00:08.000Z</time>
      </trkpt>
      <trkpt lat="43.62167" lon="3.83642">
        <ele>80</ele>
        <time>2020-08-16T09:00:09.000Z</time>
      </trkpt>
      <trkpt lat="43.62164" lon="3.83644">
        <ele>80</ele>
        <time>2020-08-16T09:00:10.000Z</time>
      </trkpt>
      <trkpt lat="43.62161" lon="3.83647">
        <ele>80</ele>
        <time>2020-08-16T09:00:11.000Z</time>
      </trkpt>
      <trkpt lat="43.62158" lon="3.83649">
        <ele>80</ele>
        <time>2020-08-16T09:00:12.000Z</time>
      </trkpt>
      <trkpt lat="43.62154" lon="3.83651">
        <ele>80</ele>
        <time>2020-08-16T09:00:13.000Z</time>
      </trkpt>
      <trkpt lat="43.62151" lon="3.83653">
        <ele>80.027972036914</ele>
        <time>2020-08-16T09:00:14.000Z</time>
      </trkpt>
      <trkpt lat="43.62148" lon="3.83655">
        <ele>80.12787216875</ele>
        <time>2020-08-16T09:00:15.000Z</time>
      </trkpt>
      <trkpt lat="43.62145" lon="3.83657">
        <ele>80.227772300587</ele>
        <time>2020-08-16T09:00:16.000Z</time>
      </trkpt>
      <trkpt lat="43.62142" lon="3.83659">
        <ele>80.327672432423</ele>
        <time>2020-08-16T09:00:17.000Z</time>
      </trkpt>
      <trkpt lat="43.62139" lon="3.83662">
        <ele>80.427572564259</ele>
        <time>2020-08-16T09:00:18.000Z</time>
      </trkpt>
      <trkpt lat="43.62136" lon="3.83664">
        <ele>80.527472696095</ele>
        <time>2020-08-16T09:00:19.000Z</time>
      </trkpt>
      <trkpt lat="43.62132" lon="3.83666">
        <ele>80.627372827931</ele>
        <time>2020-08-16T09:00:20.000Z</time>
      </trkpt>
      <trkpt lat="43.62129" lon="3.83668">
        <ele>80.727272959768</ele>
        <time>2020-08-16T09:00:21.000Z</time>
      </trkpt>
      <trkpt lat="43.62126" lon="3.8367">
        <ele>80.827173091604</ele>
        <time>2020-08-16T09:00:22.000Z</time>
      </trkpt>
      <trkpt lat="43.62123" lon="3.83672">
        <ele>80.92707322344</ele>
        <time>2020-08-16T09:00:23.000Z</time>
      </trkpt>
      <trkpt lat="43.6212" lon="3.83674">
        <ele>81</ele>
        <time>2020-08-16T09:00:24.000Z</time>
      </trkpt>
      <trkpt lat="43.62117" lon="3.83676">
        <ele>81</ele>
        <time>2020-08-16T09:00:25.000Z</time>
      </trkpt>
      <trkpt lat="43.62114" lon="3.83679">
        <ele>81</ele>
        <time>2020-08-16T09:00:26.000Z</time>
      </trkpt>
      <trkpt lat="43.62111" lon="3.83681">
        <ele>81</ele>
        <time>2020-08-16T09:00:27.000Z</time>
      </trkpt>
      <trkpt lat="43.62108" lon="3.83684">
        <ele>81</ele>
        <time>2020-08-16T09:00:28.000Z</time>
      </trkpt>
      <trkpt lat="43.62105" lon="3.83686">
        <ele>81</ele>
        <time>2020-08-16T09:00:29.000Z</time>
      </trkpt>
      <trkpt lat="43.62102" lon="3.83689">
        <ele>81</ele>
        <time>2020-08-16T09:00:30.000Z</time>
      </trkpt>
      <trkpt lat="43.62099" lon="3.83691">
        <ele>81</ele>
        <time>2020-08-16T09:00:31.000Z</time>
      </trkpt>
      <trkpt lat="43.62096" lon="3.83694">
        <ele>81</ele>
        <time>2020-08-16T09:00:32.000Z</time>
      </trkpt>
      <trkpt lat="43.62093" lon="3.83697">
        <ele>81</ele>
        <time>2020-08-16T09:00:33.000Z</time>
      </trkpt>
      <trkpt lat="43.6209" lon="3.83699">
        <ele>80.97297266131</ele>
        <time>2020-08-16T09:00:34.000Z</time>
      </trkpt>
      <trkpt lat="43.62087" lon="3.83702">
        <ele>80.872872593274</ele>
        <time>2020-08-16T09:00:35.000Z</time>
      </trkpt>
      <trkpt lat="43.62084" lon="3.83705">
        <ele>80.772772525238</ele>
        <time>2020-08-16T09:00:36.000Z</time>
      </trkpt>
      <trkpt lat="43.62081" lon="3.83708">
        <ele>80.672672457202</ele>
        <time>2020-08-16T09:00:37.000Z</time>
      </trkpt>
      <trkpt lat="43.62078" lon="3.83711">
        <ele>80.572572389166</ele>
        <time>2020-08-16T09:00:38.000Z</time>
      </trkpt>
      <trkpt lat="43.62075" lon="3.83713">
        <ele>80.47247232113</ele>
        <time>2020-08-16T09:00:39.000Z</time>
      </trkpt>
      <trkpt lat="43.62072" lon="3.83716">
        <ele>80.372372253094</ele>
        <time>2020-08-16T09:00:40.000Z</time>
      </trkpt>
      <trkpt lat="43.62069" lon="3.83719">
        <ele>80.272272185058</ele>
        <time>2020-08-16T09:00:41.000Z</time>
      </trkpt>
      <trkpt lat="43.62066" lon="3.83721">
        <ele>80.172172117022</ele>
        <time>2020-08-16T09:00:42.000Z</time>
      </trkpt>
      <trkpt lat="43.62063" lon="3.83724">
        <ele>80.072072048986</ele>
        <time>2020-08-16T09:00:43.000Z</time>
      </trkpt>
      <trkpt lat="43.6206" lon="3.83727">
        <ele>80.027972036914</ele>
        <time>2020-08-16T09:00:44.000Z</time>
      </trkpt>
      <trkpt lat="43.62056" lon="3.83729">
        <ele>80.12787216875</ele>
        <time>2020-08-16T09:00:45.000Z</time>
      </trkpt>
      <trkpt lat="43.62053" lon="3.83732">
        <ele>80.227772300587</ele>
        <time>2020-08-16T09:00:46.000Z</time>
      </trkpt>
      <trkpt lat="43.6205" lon="3.83735">
        <ele>80.327672432423</ele>
        <time>2020-08-16T09:00:47.000Z</time>
      </trkpt>
      <trkpt lat="43.62047" lon="3.83738">
        <ele>80.427572564259</ele>
        <time>2020-08-16T09:00:48.000Z</time>
      </trkpt>
      <trkpt lat="43.62043" lon="3.8374">
        <ele>80.527472696095</ele>
        <time>2020-08-16T09:00:49.000Z</time>
      </trkpt>
      <trkpt lat="43.6204" lon="3.83743">
        <ele>80.627372827931</ele>
        <time>2020-08-16T09:00:50.000Z</time>
      </trkpt>
      <trkpt lat="43.62037" lon="3.83746">
        <ele>80.727272959768</ele>
        <time>2020-08-16T09:00:51.000Z</time>
      </trkpt>
      <trkpt lat="43.62034" lon="3.83748">
        <ele>80.827173091604</ele>
        <time>2020-08-16T09:00:52.000Z</time>
      </trkpt>
      <trkpt lat="43.62031" lon="3.83751">
        <ele>80.92707322344</ele>
        <time>2020-08-16T09:00:53.000Z</time>
      </trkpt>
      <trkpt lat="43.62028" lon="3.83753">
        <ele>81</ele>
        <time>2020-08-16T09:00:54.000Z</time>
      </trkpt>
      <trkpt lat="43.62026" lon="3.83756">
        <ele>81</ele>
        <time>2020-08-16T09:00:55.000Z</time>
      </trkpt>
      <trkpt lat="43.62023" lon="3.83759">
        <ele>81</ele>
        <time>2020-08-16T09:00:56.000Z</time>
      </trkpt>
      <trkpt lat="43.6202" lon="3.83761">
        <ele>81</ele>
        <time>2020-08-16T09:00:57.000Z</time>
      </trkpt>
      <trkpt lat="43.62018" lon="3.83763">
        <ele>81</ele>
        <time>2020-08-16T09:00:58.000Z</time>
      </trkpt>
      <trkpt lat="43.62015" lon="3.83766">
        <ele>81</ele>
        <time>2020-08-16T09:00:59.000Z</time>
      </trkpt>
      <trkpt lat="43.62012" lon="3.83768">
        <ele>81</ele>
        <time>2020-08-16T09:01:00.000Z</time>
      </trkpt>
      <trkpt lat="43.6201" lon="3.83771">
        <ele>81</ele>
        <time>2020-08-16T09:01:01.000Z</time>
      </trkpt>
      <trkpt lat="43.62007" lon="3.83773">
        <ele>81</ele>
        <time>2020-08-16T09:01:02.000Z</time>
      </trkpt>
      <trkpt lat="43.62004" lon="3.83776">
        <ele>81</ele>
        <time>2020-08-16T09:01:03.000Z</time>
      </trkpt>
      <trkpt lat="43.62002" lon="3.83779">
        <ele>81</ele>
        <time>2020-08-16T09:01:04.000Z</time>
      </trkpt>
      <trkpt lat="43.61999" lon="3.83781">
        <ele>81</ele>
        <time>2020-08-16T09:01:05.000Z</time>
      </trkpt>
      <trkpt lat="43.61997" lon="3.83784">
        <ele>81</ele>
        <time>2020-08-16T09:01:06.000Z</time>
      </trkpt>
      <trkpt lat="43.61994" lon="3.83787">
        <ele>81</ele>
        <time>2020-08-16T09:01:07.000Z</time>
      </trkpt>
      <trkpt lat="43.61992" lon="3.8379">
        <ele>81</ele>
        <time>2020-08-16T09:01:08.000Z</time>
      </trkpt>
      <trkpt lat="43.61989" lon="3.83793">
        <ele>81</ele>
        <time>2020-08-16T09:01:09.000Z</time>
      </trkpt>
      <trkpt lat="43.61987" lon="3.83796">
        <ele>81</ele>
        <time>2020-08-16T09:01:10.000Z</time>
      </trkpt>
      <trkpt lat="43.61985" lon="3.83799">
        <ele>81</ele>
        <time>2020-08-16T09:01:11.000Z</time>
      </trkpt>
      <trkpt lat="43.61982" lon="3.83802">
        <ele>81</ele>
        <time>2020-08-16T09:01:12.000Z</time>
      </trkpt>
      <trkpt lat="43.61979" lon="3.83804">
        <ele>81</ele>
        <time>2020-08-16T09:01:13.000Z</time>
      </trkpt>
      <trkpt lat="43.61976" lon="3.83807">
        <ele>81</ele>
        <time>2020-08-16T09:01:14.000Z</time>
      </trkpt>
      <trkpt lat="43.61973" lon="3.8381">
        <ele>81</ele>
        <time>2020-08-16T09:01:15.000Z</time>
      </trkpt>
      <trkpt lat="43.6197" lon="3.83812">
        <ele>81</ele>
        <time>2020-08-16T09:01:16.000Z</time>
      </trkpt>
      <trkpt lat="43.61967" lon="3.83815">
        <ele>81</ele>
        <time>2020-08-16T09:01:17.000Z</time>
      </trkpt>
      <trkpt lat="43.61963" lon="3.83817">
        <ele>81</ele>
        <time>2020-08-16T09:01:18.000Z</time>
      </trkpt>
      <trkpt lat="43.6196" lon="3.83819">
        <ele>81</ele>
        <time>2020-08-16T09:01:19.000Z</time>
      </trkpt>
      <trkpt lat="43.61957" lon="3.83821">
        <ele>81</ele>
        <time>2020-08-16T09:01:20.000Z</time>
      </trkpt>
      <trkpt lat="43.61954" lon="3.83823">
        <ele>81</ele>
        <time>2020-08-16T09:01:21.000Z</time>
      </trkpt>
      <trkpt lat="43.6195" lon="3.83825">
        <ele>81</ele>
        <time>2020-08-16T09:01:22.000Z</time>
      </trkpt>
      <trkpt lat="43.61947" lon="3.83827">
        <ele>81</ele>
        <time>2020-08-16T09:01:23.000Z</time>
      </trkpt>
      <trkpt lat="43.61944" lon="3.83829">
        <ele>81</ele>
        <time>2020-08-16T09:01:24.000Z</time>
      </trkpt>
      <trkpt lat="43.61941" lon="3.83831">
        <ele>81</ele>
        <time>2020-08-16T09:01:25.000Z</time>
      </trkpt>
      <trkpt lat="43.61938" lon="3.83833">
        <ele>81</ele>
        <time>2020-08-16T09:01:26.000Z</time>
      </trkpt>
      <trkpt lat="43.61935" lon="3.83835">
        <ele>81</ele>
        <time>2020-08-16T09:01:27.000Z</time>
      </trkpt>
      <trkpt lat="43.61931" lon="3.83837">
        <ele>81</ele>
        <time>2020-08-16T09:01:28.000Z</time>
      </trkpt>
      <trkpt lat="43.61928" lon="3.83839">
        <ele>81</ele>
        <time>2020-08-16T09:01:29.000Z</time>
      </trkpt>
      <trkpt lat="43.61925" lon="3.83842">
        <ele>81</ele>
        <time>2020-08-16T09:01:30.000Z</time>
      </trkpt>
      <trkpt lat="43.61922" lon="3.83844">
        <ele>81</ele>
        <time>2020-08-16T09:01:31.000Z</time>
      </trkpt>
      <trkpt lat="43.61919" lon="3.83847">
        <ele>81</ele>
        <time>2020-08-16T09:01:32.000Z</time>
      </trkpt>
      <trkpt lat="43.61916" lon="3.83849">
        <ele>81</ele>
        <time>2020-08-16T09:01:33.000Z</time>
      </trkpt>
      <trkpt lat="43.61913" lon="3.83852">
        <ele>81</ele>
        <time>2020-08-16T09:01:34.000Z</time>
      </trkpt>
      <trkpt lat="43.6191" lon="3.83854">
        <ele>81</ele>
        <time>2020-08-16T09:01:35.000Z</time>
      </trkpt>
      <trkpt lat="43.61907" lon="3.83857">
        <ele>81</ele>
        <time>2020-08-16T09:01:36.000Z</time>
      </trkpt>
      <trkpt lat="43.61904" lon="3.83859">
        <ele>81</ele>
        <time>2020-08-16T09:01:37.000Z</time>
      </trkpt>
      <trkpt lat="43.61902" lon="3.83862">
        <ele>81</ele>
        <time>2020-08-16T09:01:38.000Z</time>
      </trkpt>
      <trkpt lat="43.61899" lon="3.83864">
        <ele>81</ele>
        <time>2020-08-16T09:01:39.000Z</time>
      </trkpt>
      <trkpt lat="43.61896" lon="3.83867">
        <ele>81</ele>
        <time>2020-08-16T09:01:40.000Z</time>
      </trkpt>
      <trkpt lat="43.61893" lon="3.83869">
        <ele>81</ele>
        <time>2020-08-16T09:01:41.000Z</time>
      </trkpt>
      <trkpt lat="43.6189" lon="3.83871">
        <ele>81</ele>
        <time>2020-08-16T09:01:42.000Z</time>
      </trkpt>
      <trkpt lat="43.61886" lon="3.83874">
        <ele>81</ele>
        <time>2020-08-16T09:01:43.000Z</time>
      </trkpt>
      <trkpt lat="43.61883" lon="3.83876">
        <ele>81.028</ele>
        <time>2020-08-16T09:01:44.000Z</time>
      </trkpt>
      <trkpt lat="43.6188" lon="3.83879">
        <ele>81.128</ele>
        <time>2020-08-16T09:01:45.000Z</time>
      </trkpt>
      <trkpt lat="43.61877" lon="3.83881">
        <ele>81.228</ele>
        <time>2020-08-16T09:01:46.000Z</time>
      </trkpt>
      <trkpt lat="43.61874" lon="3.83884">
        <ele>81.328</ele>
        <time>2020-08-16T09:01:47.000Z</time>
      </trkpt>
      <trkpt lat="43.61871" lon="3.83886">
        <ele>81.428</ele>
        <time>2020-08-16T09:01:48.000Z</time>
      </trkpt>
      <trkpt lat="43.61868" lon="3.83888">
        <ele>81.528</ele>
        <time>2020-08-16T09:01:49.000Z</time>
      </trkpt>
      <trkpt lat="43.61864" lon="3.8389">
        <ele>81.628</ele>
        <time>2020-08-16T09:01:50.000Z</time>
      </trkpt>
      <trkpt lat="43.61861" lon="3.83892">
        <ele>81.728</ele>
        <time>2020-08-16T09:01:51.000Z</time>
      </trkpt>
      <trkpt lat="43.61859" lon="3.83895">
        <ele>81.828</ele>
        <time>2020-08-16T09:01:52.000Z</time>
      </trkpt>
      <trkpt lat="43.61856" lon="3.83899">
        <ele>81.928</ele>
        <time>2020-08-16T09:01:53.000Z</time>
      </trkpt>
      <trkpt lat="43.61853" lon="3.83902">
        <ele>82</ele>
        <time>2020-08-16T09:01:54.000Z</time>
      </trkpt>
      <trkpt lat="43.6185" lon="3.83905">
        <ele>82</ele>
        <time>2020-08-16T09:01:55.000Z</time>
      </trkpt>
      <trkpt lat="43.61847" lon="3.83907">
        <ele>82</ele>
        <time>2020-08-16T09:01:56.000Z</time>
      </trkpt>
      <trkpt lat="43.61844" lon="3.83909">
        <ele>82</ele>
        <time>2020-08-16T09:01:57.000Z</time>
      </trkpt>
      <trkpt lat="43.6184" lon="3.8391">
        <ele>82</ele>
        <time>2020-08-16T09:01:58.000Z</time>
      </trkpt>
      <trkpt lat="43.61837" lon="3.83912">
        <ele>82</ele>
        <time>2020-08-16T09:01:59.000Z</time>
      </trkpt>
      <trkpt lat="43.61834" lon="3.83915">
        <ele>82</ele>
        <time>2020-08-16T09:02:00.000Z</time>
      </trkpt>
      <trkpt lat="43.61831" lon="3.83918">
        <ele>82</ele>
        <time>2020-08-16T09:02:01.000Z</time>
      </trkpt>
      <trkpt lat="43.61829" lon="3.83921">
        <ele>82</ele>
        <time>2020-08-16T09:02:02.000Z</time>
      </trkpt>
      <trkpt lat="43.61826" lon="3.83924">
        <ele>82</ele>
        <time>2020-08-16T09:02:03.000Z</time>
      </trkpt>
      <trkpt lat="43.61823" lon="3.83926">
        <ele>82</ele>
        <time>2020-08-16T09:02:04.000Z</time>
      </trkpt>
      <trkpt lat="43.6182" lon="3.83929">
        <ele>82</ele>
        <time>2020-08-16T09:02:05.000Z</time>
      </trkpt>
      <trkpt lat="43.61817" lon="3.83932">
        <ele>82</ele>
        <time>2020-08-16T09:02:06.000Z</time>
      </trkpt>
      <trkpt lat="43.61814" lon="3.83934">
        <ele>82</ele>
        <time>2020-08-16T09:02:07.000Z</time>
      </trkpt>
      <trkpt lat="43.6181" lon="3.83937">
        <ele>82</ele>
        <time>2020-08-16T09:02:08.000Z</time>
      </trkpt>
      <trkpt lat="43.61807" lon="3.83939">
        <ele>82</ele>
        <time>2020-08-16T09:02:09.000Z</time>
      </trkpt>
      <trkpt lat="43.61804" lon="3.83942">
        <ele>82</ele>
        <time>2020-08-16T09:02:10.000Z</time>
      </trkpt>
      <trkpt lat="43.61801" lon="3.83945">
        <ele>82</ele>
        <time>2020-08-16T09:02:11.000Z</time>
      </trkpt>
      <trkpt lat="43.61798" lon="3.83948">
        <ele>82</ele>
        <time>2020-08-16T09:02:12.000Z</time>
      </trkpt>
      <trkpt lat="43.61795" lon="3.8395">
        <ele>82</ele>
        <time>2020-08-16T09:02:13.000Z</time>
      </trkpt>
      <trkpt lat="43.61792" lon="3.83953">
        <ele>82.02657511811</ele>
        <time>2020-08-16T09:02:14.000Z</time>
      </trkpt>
      <trkpt lat="43.6179" lon="3.83956">
        <ele>82.125000314961</ele>
        <time>2020-08-16T09:02:15.000Z</time>
      </trkpt>
      <trkpt lat="43.61787" lon="3.83959">
        <ele>82.223425511811</ele>
        <time>2020-08-16T09:02:16.000Z</time>
      </trkpt>
      <trkpt lat="43.61784" lon="3.83962">
        <ele>82.321850708661</ele>
        <time>2020-08-16T09:02:17.000Z</time>
      </trkpt>
      <trkpt lat="43.61781" lon="3.83964">
        <ele>82.420275905512</ele>
        <time>2020-08-16T09:02:18.000Z</time>
      </trkpt>
      <trkpt lat="43.61777" lon="3.83967">
        <ele>82.518701102362</ele>
        <time>2020-08-16T09:02:19.000Z</time>
      </trkpt>
      <trkpt lat="43.61774" lon="3.83969">
        <ele>82.617126299213</ele>
        <time>2020-08-16T09:02:20.000Z</time>
      </trkpt>
      <trkpt lat="43.61771" lon="3.83972">
        <ele>82.715551496063</ele>
        <time>2020-08-16T09:02:21.000Z</time>
      </trkpt>
      <trkpt lat="43.61768" lon="3.83974">
        <ele>82.813976692913</ele>
        <time>2020-08-16T09:02:22.000Z</time>
      </trkpt>
      <trkpt lat="43.61765" lon="3.83976">
        <ele>82.912401889764</ele>
        <time>2020-08-16T09:02:23.000Z</time>
      </trkpt>
      <trkpt lat="43.61762" lon="3.83978">
        <ele>83</ele>
        <time>2020-08-16T09:02:24.000Z</time>
      </trkpt>
      <trkpt lat="43.61759" lon="3.83981">
        <ele>83</ele>
        <time>2020-08-16T09:02:25.000Z</time>
      </trkpt>
      <trkpt lat="43.61756" lon="3.83983">
        <ele>83</ele>
        <time>2020-08-16T09:02:26.000Z</time>
      </trkpt>
      <trkpt lat="43.61753" lon="3.83985">
        <ele>83</ele>
        <time>2020-08-16T09:02:27.000Z</time>
      </trkpt>
      <trkpt lat="43.6175" lon="3.83987">
        <ele>83</ele>
        <time>2020-08-16T09:02:28.000Z</time>
      </trkpt>
      <trkpt lat="43.61747" lon="3.8399">
        <ele>83</ele>
        <time>2020-08-16T09:02:29.000Z</time>
      </trkpt>
      <trkpt lat="43.61744" lon="3.83992">
        <ele>83</ele>
        <time>2020-08-16T09:02:30.000Z</time>
      </trkpt>
      <trkpt lat="43.61741" lon="3.83994">
        <ele>83</ele>
        <time>2020-08-16T09:02:31.000Z</time>
      </trkpt>
      <trkpt lat="43.61738" lon="3.83996">
        <ele>83</ele>
        <time>2020-08-16T09:02:32.000Z</time>
      </trkpt>
      <trkpt lat="43.61735" lon="3.83999">
        <ele>83</ele>
        <time>2020-08-16T09:02:33.000Z</time>
      </trkpt>
      <trkpt lat="43.61731" lon="3.84001">
        <ele>83</ele>
        <time>2020-08-16T09:02:34.000Z</time>
      </trkpt>
      <trkpt lat="43.61728" lon="3.84003">
        <ele>83</ele>
        <time>2020-08-16T09:02:35.000Z</time>
      </trkpt>
      <trkpt lat="43.61726" lon="3.84006">
        <ele>83</ele>
        <time>2020-08-16T09:02:36.000Z</time>
      </trkpt>
      <trkpt lat="43.61723" lon="3.84008">
        <ele>83</ele>
        <time>2020-08-16T09:02:37.000Z</time>
      </trkpt>
      <trkpt lat="43.6172" lon="3.8401">
        <ele>83</ele>
        <time>2020-08-16T09:02:38.000Z</time>
      </trkpt>
      <trkpt lat="43.61717" lon="3.84013">
        <ele>83</ele>
        <time>2020-08-16T09:02:39.000Z</time>
      </trkpt>
      <trkpt lat="43.61714" lon="3.84015">
        <ele>83</ele>
        <time>2020-08-16T09:02:40.000Z</time>
      </trkpt>
      <trkpt lat="43.61711" lon="3.84017">
        <ele>83</ele>
        <time>2020-08-16T09:02:41.000Z</time>
      </trkpt>
      <trkpt lat="43.61709" lon="3.84019">
        <ele>83</ele>
        <time>2020-08-16T09:02:42.000Z</time>
      </trkpt>
      <trkpt lat="43.61706" lon="3.84021">
        <ele>83</ele>
        <time>2020-08-16T09:02:43.000Z</time>
      </trkpt>
      <trkpt lat="43.61703" lon="3.84024">
        <ele>83.02700032</ele>
        <time>2020-08-16T09:02:44.000Z</time>
      </trkpt>
      <trkpt lat="43.617" lon="3.84027">
        <ele>83.12700032</ele>
        <time>2020-08-16T09:02:45.000Z</time>
      </trkpt>
      <trkpt lat="43.61697" lon="3.84029">
        <ele>83.22700032</ele>
        <time>2020-08-16T09:02:46.000Z</time>
      </trkpt>
      <trkpt lat="43.61694" lon="3.84032">
        <ele>83.32700032</ele>
        <time>2020-08-16T09:02:47.000Z</time>
      </trkpt>
      <trkpt lat="43.61692" lon="3.84034">
        <ele>83.42700032</ele>
        <time>2020-08-16T09:02:48.000Z</time>
      </trkpt>
      <trkpt lat="43.61689" lon="3.84037">
        <ele>83.52700032</ele>
        <time>2020-08-16T09:02:49.000Z</time>
      </trkpt>
      <trkpt lat="43.61687" lon="3.8404">
        <ele>83.62700032</ele>
        <time>2020-08-16T09:02:50.000Z</time>
      </trkpt>
      <trkpt lat="43.61684" lon="3.84042">
        <ele>83.72700032</ele>
        <time>2020-08-16T09:02:51.000Z</time>
      </trkpt>
      <trkpt lat="43.61681" lon="3.84045">
        <ele>83.82700032</ele>
        <time>2020-08-16T09:02:52.000Z</time>
      </trkpt>
      <trkpt lat="43.61679" lon="3.84047">
        <ele>83.92700032</ele>
        <time>2020-08-16T09:02:53.000Z</time>
      </trkpt>
      <trkpt lat="43.61676" lon="3.8405">
        <ele>84.026264902724</ele>
        <time>2020-08-16T09:02:54.000Z</time>
      </trkpt>
      <trkpt lat="43.61674" lon="3.84053">
        <ele>84.123541167315</ele>
        <time>2020-08-16T09:02:55.000Z</time>
      </trkpt>
      <trkpt lat="43.61672" lon="3.84055">
        <ele>84.220817431907</ele>
        <time>2020-08-16T09:02:56.000Z</time>
      </trkpt>
      <trkpt lat="43.61669" lon="3.84058">
        <ele>84.318093696498</ele>
        <time>2020-08-16T09:02:57.000Z</time>
      </trkpt>
      <trkpt lat="43.61666" lon="3.8406">
        <ele>84.415369961089</ele>
        <time>2020-08-16T09:02:58.000Z</time>
      </trkpt>
      <trkpt lat="43.61664" lon="3.84063">
        <ele>84.512646225681</ele>
        <time>2020-08-16T09:02:59.000Z</time>
      </trkpt>
      <trkpt lat="43.61661" lon="3.84066">
        <ele>84.609922490272</ele>
        <time>2020-08-16T09:03:00.000Z</time>
      </trkpt>
      <trkpt lat="43.61659" lon="3.84068">
        <ele>84.707198754864</ele>
        <time>2020-08-16T09:03:01.000Z</time>
      </trkpt>
      <trkpt lat="43.61657" lon="3.84071">
        <ele>84.804475019455</ele>
        <time>2020-08-16T09:03:02.000Z</time>
      </trkpt>
      <trkpt lat="43.61654" lon="3.84074">
        <ele>84.901751284047</ele>
        <time>2020-08-16T09:03:03.000Z</time>
      </trkpt>
      <trkpt lat="43.61652" lon="3.84077">
        <ele>84.999027548638</ele>
        <time>2020-08-16T09:03:04.000Z</time>
      </trkpt>
      <trkpt lat="43.61649" lon="3.8408">
        <ele>84.90080134618</ele>
        <time>2020-08-16T09:03:05.000Z</time>
      </trkpt>
      <trkpt lat="43.61647" lon="3.84083">
        <ele>84.800601009635</ele>
        <time>2020-08-16T09:03:06.000Z</time>
      </trkpt>
      <trkpt lat="43.61644" lon="3.84086">
        <ele>84.70040067309</ele>
        <time>2020-08-16T09:03:07.000Z</time>
      </trkpt>
      <trkpt lat="43.61642" lon="3.8409">
        <ele>84.600200336545</ele>
        <time>2020-08-16T09:03:08.000Z</time>
      </trkpt>
      <trkpt lat="43.6164" lon="3.84093">
        <ele>84.5</ele>
        <time>2020-08-16T09:03:09.000Z</time>
      </trkpt>
      <trkpt lat="43.61637" lon="3.84096">
        <ele>84.399799663455</ele>
        <time>2020-08-16T09:03:10.000Z</time>
      </trkpt>
      <trkpt lat="43.61635" lon="3.84099">
        <ele>84.29959932691</ele>
        <time>2020-08-16T09:03:11.000Z</time>
      </trkpt>
      <trkpt lat="43.61633" lon="3.84102">
        <ele>84.199398990365</ele>
        <time>2020-08-16T09:03:12.000Z</time>
      </trkpt>
      <trkpt lat="43.61632" lon="3.84105">
        <ele>84.09919865382</ele>
        <time>2020-08-16T09:03:13.000Z</time>
      </trkpt>
      <trkpt lat="43.61632" lon="3.84109">
        <ele>84</ele>
        <time>2020-08-16T09:03:14.000Z</time>
      </trkpt>
      <trkpt lat="43.61633" lon="3.84112">
        <ele>84</ele>
        <time>2020-08-16T09:03:15.000Z</time>
      </trkpt>
      <trkpt lat="43.61633" lon="3.84117">
        <ele>84</ele>
        <time>2020-08-16T09:03:16.000Z</time>
      </trkpt>
      <trkpt lat="43.61632" lon="3.84121">
        <ele>84</ele>
        <time>2020-08-16T09:03:17.000Z</time>
      </trkpt>
      <trkpt lat="43.61631" lon="3.84124">
        <ele>84</ele>
        <time>2020-08-16T09:03:18.000Z</time>
      </trkpt>
      <trkpt lat="43.61628" lon="3.84128">
        <ele>84</ele>
        <time>2020-08-16T09:03:19.000Z</time>
      </trkpt>
      <trkpt lat="43.61625" lon="3.84131">
        <ele>84</ele>
        <time>2020-08-16T09:03:20.000Z</time>
      </trkpt>
      <trkpt lat="43.61622" lon="3.84132">
        <ele>84</ele>
        <time>2020-08-16T09:03:21.000Z</time>
      </trkpt>
      <trkpt lat="43.61619" lon="3.84133">
        <ele>84</ele>
        <time>2020-08-16T09:03:22.000Z</time>
      </trkpt>
      <trkpt lat="43.61617" lon="3.84135">
        <ele>84</ele>
        <time>2020-08-16T09:03:23.000Z</time>
      </trkpt>
      <trkpt lat="43.61614" lon="3.84138">
        <ele>84</ele>
        <time>2020-08-16T09:03:24.000Z</time>
      </trkpt>
      <trkpt lat="43.61612" lon="3.84142">
        <ele>84</ele>
        <time>2020-08-16T09:03:25.000Z</time>
      </trkpt>
      <trkpt lat="43.6161" lon="3.84146">
        <ele>84</ele>
        <time>2020-08-16T09:03:26.000Z</time>
      </trkpt>
      <trkpt lat="43.61608" lon="3.8415">
        <ele>84</ele>
        <time>2020-08-16T09:03:27.000Z</time>
      </trkpt>
      <trkpt lat="43.61607" lon="3.84154">
        <ele>84</ele>
        <time>2020-08-16T09:03:28.000Z</time>
      </trkpt>
      <trkpt lat="43.61604" lon="3.84158">
        <ele>84</ele>
        <time>2020-08-16T09:03:29.000Z</time>
      </trkpt>
      <trkpt lat="43.61602" lon="3.84162">
        <ele>84</ele>
        <time>2020-08-16T09:03:30.000Z</time>
      </trkpt>
      <trkpt lat="43.616" lon="3.84165">
        <ele>84</ele>
        <time>2020-08-16T09:03:31.000Z</time>
      </trkpt>
      <trkpt lat="43.61598" lon="3.84168">
        <ele>84</ele>
        <time>2020-08-16T09:03:32.000Z</time>
      </trkpt>
      <trkpt lat="43.61596" lon="3.84171">
        <ele>84</ele>
        <time>2020-08-16T09:03:33.000Z</time>
      </trkpt>
      <trkpt lat="43.61594" lon="3.84174">
        <ele>84.026548962156</ele>
        <time>2020-08-16T09:03:34.000Z</time>
      </trkpt>
      <trkpt lat="43.61592" lon="3.84177">
        <ele>84.124877286252</ele>
        <time>2020-08-16T09:03:35.000Z</time>
      </trkpt>
      <trkpt lat="43.6159" lon="3.84179">
        <ele>84.223205610347</ele>
        <time>2020-08-16T09:03:36.000Z</time>
      </trkpt>
      <trkpt lat="43.61588" lon="3.84182">
        <ele>84.321533934442</ele>
        <time>2020-08-16T09:03:37.000Z</time>
      </trkpt>
      <trkpt lat="43.61587" lon="3.84185">
        <ele>84.419862258537</ele>
        <time>2020-08-16T09:03:38.000Z</time>
      </trkpt>
      <trkpt lat="43.61585" lon="3.84188">
        <ele>84.518190582632</ele>
        <time>2020-08-16T09:03:39.000Z</time>
      </trkpt>
      <trkpt lat="43.61583" lon="3.84191">
        <ele>84.616518906728</ele>
        <time>2020-08-16T09:03:40.000Z</time>
      </trkpt>
      <trkpt lat="43.61581" lon="3.84194">
        <ele>84.714847230823</ele>
        <time>2020-08-16T09:03:41.000Z</time>
      </trkpt>
      <trkpt lat="43.6158" lon="3.84197">
        <ele>84.813175554918</ele>
        <time>2020-08-16T09:03:42.000Z</time>
      </trkpt>
      <trkpt lat="43.61578" lon="3.842">
        <ele>84.911503879013</ele>
        <time>2020-08-16T09:03:43.000Z</time>
      </trkpt>
      <trkpt lat="43.61576" lon="3.84203">
        <ele>84.989817345706</ele>
        <time>2020-08-16T09:03:44.000Z</time>
      </trkpt>
      <trkpt lat="43.61575" lon="3.84206">
        <ele>84.887984285448</ele>
        <time>2020-08-16T09:03:45.000Z</time>
      </trkpt>
      <trkpt lat="43.61573" lon="3.84209">
        <ele>84.78615122519</ele>
        <time>2020-08-16T09:03:46.000Z</time>
      </trkpt>
      <trkpt lat="43.61571" lon="3.84212">
        <ele>84.684318164932</ele>
        <time>2020-08-16T09:03:47.000Z</time>
      </trkpt>
      <trkpt lat="43.61569" lon="3.84216">
        <ele>84.582485104675</ele>
        <time>2020-08-16T09:03:48.000Z</time>
      </trkpt>
      <trkpt lat="43.61566" lon="3.8422">
        <ele>84.480652044417</ele>
        <time>2020-08-16T09:03:49.000Z</time>
      </trkpt>
      <trkpt lat="43.61564" lon="3.84223">
        <ele>84.378818984159</ele>
        <time>2020-08-16T09:03:50.000Z</time>
      </trkpt>
      <trkpt lat="43.61561" lon="3.84227">
        <ele>84.276985923901</ele>
        <time>2020-08-16T09:03:51.000Z</time>
      </trkpt>
      <trkpt lat="43.61559" lon="3.84231">
        <ele>84.175152863643</ele>
        <time>2020-08-16T09:03:52.000Z</time>
      </trkpt>
      <trkpt lat="43.61556" lon="3.84235">
        <ele>84.073319803386</ele>
        <time>2020-08-16T09:03:53.000Z</time>
      </trkpt>
      <trkpt lat="43.61554" lon="3.84239">
        <ele>84</ele>
        <time>2020-08-16T09:03:54.000Z</time>
      </trkpt>
      <trkpt lat="43.61551" lon="3.84243">
        <ele>84</ele>
        <time>2020-08-16T09:03:55.000Z</time>
      </trkpt>
      <trkpt lat="43.61548" lon="3.84248">
        <ele>84</ele>
        <time>2020-08-16T09:03:56.000Z</time>
      </trkpt>
      <trkpt lat="43.61545" lon="3.84252">
        <ele>84</ele>
        <time>2020-08-16T09:03:57.000Z</time>
      </trkpt>
      <trkpt lat="43.61542" lon="3.84257">
        <ele>84</ele>
        <time>2020-08-16T09:03:58.000Z</time>
      </trkpt>
      <trkpt lat="43.61539" lon="3.84262">
        <ele>84</ele>
        <time>2020-08-16T09:03:59.000Z</time>
      </trkpt>
      <trkpt lat="43.61536" lon="3.84267">
        <ele>84</ele>
        <time>2020-08-16T09:04:00.000Z</time>
      </trkpt>
      <trkpt lat="43.61532" lon="3.84271">
        <ele>84</ele>
        <time>2020-08-16T09:04:01.000Z</time>
      </trkpt>
      <trkpt lat="43.61528" lon="3.84275">
        <ele>84</ele>
        <time>2020-08-16T09:04:02.000Z</time>
      </trkpt>
      <trkpt lat="43.61524" lon="3.84279">
        <ele>84</ele>
        <time>2020-08-16T09:04:03.000Z</time>
      </trkpt>
      <trkpt lat="43.6152" lon="3.84284">
        <ele>83.97299968</ele>
        <time>2020-08-16T09:04:04.000Z</time>
      </trkpt>
      <trkpt lat="43.61518" lon="3.84288">
        <ele>83.87299968</ele>
        <time>2020-08-16T09:04:05.000Z</time>
      </trkpt>
      <trkpt lat="43.61515" lon="3.84292">
        <ele>83.77299968</ele>
        <time>2020-08-16T09:04:06.000Z</time>
      </trkpt>
      <trkpt lat="43.61513" lon="3.84294">
        <ele>83.67299968</ele>
        <time>2020-08-16T09:04:07.000Z</time>
      </trkpt>
      <trkpt lat="43.61511" lon="3.84296">
        <ele>83.57299968</ele>
        <time>2020-08-16T09:04:08.000Z</time>
      </trkpt>
      <trkpt lat="43.6151" lon="3.84298">
        <ele>83.47299968</ele>
        <time>2020-08-16T09:04:09.000Z</time>
      </trkpt>
      <trkpt lat="43.61507" lon="3.84302">
        <ele>83.27299968</ele>
        <time>2020-08-16T09:04:11.000Z</time>
      </trkpt>
      <trkpt lat="43.61506" lon="3.84304">
        <ele>83.17299968</ele>
        <time>2020-08-16T09:04:12.000Z</time>
      </trkpt>
      <trkpt lat="43.61505" lon="3.84306">
        <ele>83.07299968</ele>
        <time>2020-08-16T09:04:13.000Z</time>
      </trkpt>
      <trkpt lat="43.61503" lon="3.84308">
        <ele>82.97297266131</ele>
        <time>2020-08-16T09:04:14.000Z</time>
      </trkpt>
      <trkpt lat="43.61501" lon="3.8431">
        <ele>82.872872593274</ele>
        <time>2020-08-16T09:04:15.000Z</time>
      </trkpt>
      <trkpt lat="43.61499" lon="3.84313">
        <ele>82.772772525238</ele>
        <time>2020-08-16T09:04:16.000Z</time>
      </trkpt>
      <trkpt lat="43.61497" lon="3.84315">
        <ele>82.672672457202</ele>
        <time>2020-08-16T09:04:17.000Z</time>
      </trkpt>
      <trkpt lat="43.61494" lon="3.84318">
        <ele>82.572572389166</ele>
        <time>2020-08-16T09:04:18.000Z</time>
      </trkpt>
      <trkpt lat="43.6149" lon="3.8432">
        <ele>82.47247232113</ele>
        <time>2020-08-16T09:04:19.000Z</time>
      </trkpt>
      <trkpt lat="43.61487" lon="3.84323">
        <ele>82.372372253094</ele>
        <time>2020-08-16T09:04:20.000Z</time>
      </trkpt>
      <trkpt lat="43.61483" lon="3.84327">
        <ele>82.272272185058</ele>
        <time>2020-08-16T09:04:21.000Z</time>
      </trkpt>
      <trkpt lat="43.61479" lon="3.8433">
        <ele>82.172172117022</ele>
        <time>2020-08-16T09:04:22.000Z</time>
      </trkpt>
      <trkpt lat="43.61475" lon="3.84332">
        <ele>82.072072048986</ele>
        <time>2020-08-16T09:04:23.000Z</time>
      </trkpt>
      <trkpt lat="43.61471" lon="3.84335">
        <ele>82</ele>
        <time>2020-08-16T09:04:24.000Z</time>
      </trkpt>
      <trkpt lat="43.61467" lon="3.84338">
        <ele>82</ele>
        <time>2020-08-16T09:04:25.000Z</time>
      </trkpt>
      <trkpt lat="43.61462" lon="3.84341">
        <ele>82</ele>
        <time>2020-08-16T09:04:26.000Z</time>
      </trkpt>
      <trkpt lat="43.61458" lon="3.84344">
        <ele>82</ele>
        <time>2020-08-16T09:04:27.000Z</time>
      </trkpt>
      <trkpt lat="43.61453" lon="3.84347">
        <ele>82</ele>
        <time>2020-08-16T09:04:28.000Z</time>
      </trkpt>
      <trkpt lat="43.61448" lon="3.8435">
        <ele>82</ele>
        <time>2020-08-16T09:04:29.000Z</time>
      </trkpt>
      <trkpt lat="43.61443" lon="3.84354">
        <ele>82</ele>
        <time>2020-08-16T09:04:30.000Z</time>
      </trkpt>
      <trkpt lat="43.61439" lon="3.84357">
        <ele>82</ele>
        <time>2020-08-16T09:04:31.000Z</time>
      </trkpt>
      <trkpt lat="43.61434" lon="3.84361">
        <ele>82</ele>
        <time>2020-08-16T09:04:32.000Z</time>
      </trkpt>
      <trkpt lat="43.61429" lon="3.84365">
        <ele>82</ele>
        <time>2020-08-16T09:04:33.000Z</time>
      </trkpt>
      <trkpt lat="43.61424" lon="3.84368">
        <ele>81.97299968</ele>
        <time>2020-08-16T09:04:34.000Z</time>
      </trkpt>
      <trkpt lat="43.61419" lon="3.84371">
        <ele>81.87299968</ele>
        <time>2020-08-16T09:04:35.000Z</time>
      </trkpt>
      <trkpt lat="43.61414" lon="3.84374">
        <ele>81.77299968</ele>
        <time>2020-08-16T09:04:36.000Z</time>
      </trkpt>
      <trkpt lat="43.61409" lon="3.84377">
        <ele>81.67299968</ele>
        <time>2020-08-16T09:04:37.000Z</time>
      </trkpt>
      <trkpt lat="43.61404" lon="3.84381">
        <ele>81.57299968</ele>
        <time>2020-08-16T09:04:38.000Z</time>
      </trkpt>
      <trkpt lat="43.61399" lon="3.84384">
        <ele>81.47299968</ele>
        <time>2020-08-16T09:04:39.000Z</time>
      </trkpt>
      <trkpt lat="43.61394" lon="3.84388">
        <ele>81.37299968</ele>
        <time>2020-08-16T09:04:40.000Z</time>
      </trkpt>
      <trkpt lat="43.61389" lon="3.84391">
        <ele>81.27299968</ele>
        <time>2020-08-16T09:04:41.000Z</time>
      </trkpt>
      <trkpt lat="43.61384" lon="3.84395">
        <ele>81.17299968</ele>
        <time>2020-08-16T09:04:42.000Z</time>
      </trkpt>
      <trkpt lat="43.61379" lon="3.84398">
        <ele>81.07299968</ele>
        <time>2020-08-16T09:04:43.000Z</time>
      </trkpt>
      <trkpt lat="43.61374" lon="3.84402">
        <ele>80.94605335843</ele>
        <time>2020-08-16T09:04:44.000Z</time>
      </trkpt>
      <trkpt lat="43.61369" lon="3.84405">
        <ele>80.746253350247</ele>
        <time>2020-08-16T09:04:45.000Z</time>
      </trkpt>
      <trkpt lat="43.61365" lon="3.84408">
        <ele>80.546453342063</ele>
        <time>2020-08-16T09:04:46.000Z</time>
      </trkpt>
      <trkpt lat="43.6136" lon="3.84411">
        <ele>80.346653333879</ele>
        <time>2020-08-16T09:04:47.000Z</time>
      </trkpt>
      <trkpt lat="43.61355" lon="3.84415">
        <ele>80.146853325695</ele>
        <time>2020-08-16T09:04:48.000Z</time>
      </trkpt>
      <trkpt lat="43.61351" lon="3.84418">
        <ele>79.947053317511</ele>
        <time>2020-08-16T09:04:49.000Z</time>
      </trkpt>
      <trkpt lat="43.61346" lon="3.84421">
        <ele>79.747253309328</ele>
        <time>2020-08-16T09:04:50.000Z</time>
      </trkpt>
      <trkpt lat="43.61342" lon="3.84423">
        <ele>79.547453301144</ele>
        <time>2020-08-16T09:04:51.000Z</time>
      </trkpt>
      <trkpt lat="43.61338" lon="3.84426">
        <ele>79.34765329296</ele>
        <time>2020-08-16T09:04:52.000Z</time>
      </trkpt>
      <trkpt lat="43.61333" lon="3.84428">
        <ele>79.147853284776</ele>
        <time>2020-08-16T09:04:53.000Z</time>
      </trkpt>
      <trkpt lat="43.61329" lon="3.8443">
        <ele>78.973974589605</ele>
        <time>2020-08-16T09:04:54.000Z</time>
      </trkpt>
      <trkpt lat="43.61325" lon="3.84432">
        <ele>78.873874393313</ele>
        <time>2020-08-16T09:04:55.000Z</time>
      </trkpt>
      <trkpt lat="43.61321" lon="3.84435">
        <ele>78.77377419702</ele>
        <time>2020-08-16T09:04:56.000Z</time>
      </trkpt>
      <trkpt lat="43.61317" lon="3.84438">
        <ele>78.673674000728</ele>
        <time>2020-08-16T09:04:57.000Z</time>
      </trkpt>
      <trkpt lat="43.61314" lon="3.84442">
        <ele>78.573573804435</ele>
        <time>2020-08-16T09:04:58.000Z</time>
      </trkpt>
      <trkpt lat="43.61311" lon="3.84446">
        <ele>78.473473608143</ele>
        <time>2020-08-16T09:04:59.000Z</time>
      </trkpt>
      <trkpt lat="43.61308" lon="3.8445">
        <ele>78.37337341185</ele>
        <time>2020-08-16T09:05:00.000Z</time>
      </trkpt>
      <trkpt lat="43.61304" lon="3.84453">
        <ele>78.273273215558</ele>
        <time>2020-08-16T09:05:01.000Z</time>
      </trkpt>
      <trkpt lat="43.61301" lon="3.84457">
        <ele>78.173173019265</ele>
        <time>2020-08-16T09:05:02.000Z</time>
      </trkpt>
      <trkpt lat="43.61297" lon="3.8446">
        <ele>78.073072822973</ele>
        <time>2020-08-16T09:05:03.000Z</time>
      </trkpt>
      <trkpt lat="43.61294" lon="3.84463">
        <ele>77.947470194552</ele>
        <time>2020-08-16T09:05:04.000Z</time>
      </trkpt>
      <trkpt lat="43.6129" lon="3.84467">
        <ele>77.75291766537</ele>
        <time>2020-08-16T09:05:05.000Z</time>
      </trkpt>
      <trkpt lat="43.61286" lon="3.8447">
        <ele>77.558365136187</ele>
        <time>2020-08-16T09:05:06.000Z</time>
      </trkpt>
      <trkpt lat="43.61283" lon="3.84473">
        <ele>77.363812607004</ele>
        <time>2020-08-16T09:05:07.000Z</time>
      </trkpt>
      <trkpt lat="43.61279" lon="3.84477">
        <ele>77.169260077821</ele>
        <time>2020-08-16T09:05:08.000Z</time>
      </trkpt>
      <trkpt lat="43.61276" lon="3.84481">
        <ele>76.974707548638</ele>
        <time>2020-08-16T09:05:09.000Z</time>
      </trkpt>
      <trkpt lat="43.61272" lon="3.84485">
        <ele>76.780155019455</ele>
        <time>2020-08-16T09:05:10.000Z</time>
      </trkpt>
      <trkpt lat="43.61269" lon="3.84489">
        <ele>76.585602490272</ele>
        <time>2020-08-16T09:05:11.000Z</time>
      </trkpt>
      <trkpt lat="43.61265" lon="3.84492">
        <ele>76.391049961089</ele>
        <time>2020-08-16T09:05:12.000Z</time>
      </trkpt>
      <trkpt lat="43.61261" lon="3.84495">
        <ele>76.196497431907</ele>
        <time>2020-08-16T09:05:13.000Z</time>
      </trkpt>
      <trkpt lat="43.61258" lon="3.84499">
        <ele>76.001944902724</ele>
        <time>2020-08-16T09:05:14.000Z</time>
      </trkpt>
      <trkpt lat="43.61255" lon="3.84503">
        <ele>75.89814781893</ele>
        <time>2020-08-16T09:05:15.000Z</time>
      </trkpt>
      <trkpt lat="43.61253" lon="3.84508">
        <ele>75.795267160494</ele>
        <time>2020-08-16T09:05:16.000Z</time>
      </trkpt>
      <trkpt lat="43.61252" lon="3.84512">
        <ele>75.692386502058</ele>
        <time>2020-08-16T09:05:17.000Z</time>
      </trkpt>
      <trkpt lat="43.61251" lon="3.84517">
        <ele>75.589505843621</ele>
        <time>2020-08-16T09:05:18.000Z</time>
      </trkpt>
      <trkpt lat="43.61249" lon="3.84521">
        <ele>75.486625185185</ele>
        <time>2020-08-16T09:05:19.000Z</time>
      </trkpt>
      <trkpt lat="43.61247" lon="3.84525">
        <ele>75.383744526749</ele>
        <time>2020-08-16T09:05:20.000Z</time>
      </trkpt>
      <trkpt lat="43.61246" lon="3.84529">
        <ele>75.280863868313</ele>
        <time>2020-08-16T09:05:21.000Z</time>
      </trkpt>
      <trkpt lat="43.61244" lon="3.84533">
        <ele>75.177983209877</ele>
        <time>2020-08-16T09:05:22.000Z</time>
      </trkpt>
      <trkpt lat="43.61243" lon="3.84537">
        <ele>75.07510255144</ele>
        <time>2020-08-16T09:05:23.000Z</time>
      </trkpt>
      <trkpt lat="43.61241" lon="3.84542">
        <ele>75</ele>
        <time>2020-08-16T09:05:24.000Z</time>
      </trkpt>
      <trkpt lat="43.61239" lon="3.84546">
        <ele>75</ele>
        <time>2020-08-16T09:05:25.000Z</time>
      </trkpt>
      <trkpt lat="43.61237" lon="3.8455">
        <ele>75</ele>
        <time>2020-08-16T09:05:26.000Z</time>
      </trkpt>
      <trkpt lat="43.61235" lon="3.84553">
        <ele>75</ele>
        <time>2020-08-16T09:05:27.000Z</time>
      </trkpt>
      <trkpt lat="43.61234" lon="3.84557">
        <ele>75</ele>
        <time>2020-08-16T09:05:28.000Z</time>
      </trkpt>
      <trkpt lat="43.61232" lon="3.84562">
        <ele>75</ele>
        <time>2020-08-16T09:05:29.000Z</time>
      </trkpt>
      <trkpt lat="43.61231" lon="3.84566">
        <ele>75</ele>
        <time>2020-08-16T09:05:30.000Z</time>
      </trkpt>
      <trkpt lat="43.61229" lon="3.8457">
        <ele>75</ele>
        <time>2020-08-16T09:05:31.000Z</time>
      </trkpt>
      <trkpt lat="43.61227" lon="3.84574">
        <ele>75</ele>
        <time>2020-08-16T09:05:32.000Z</time>
      </trkpt>
      <trkpt lat="43.61225" lon="3.84578">
        <ele>75</ele>
        <time>2020-08-16T09:05:33.000Z</time>
      </trkpt>
      <trkpt lat="43.61222" lon="3.84581">
        <ele>75</ele>
        <time>2020-08-16T09:05:34.000Z</time>
      </trkpt>
      <trkpt lat="43.6122" lon="3.84585">
        <ele>75</ele>
        <time>2020-08-16T09:05:35.000Z</time>
      </trkpt>
      <trkpt lat="43.61218" lon="3.84588">
        <ele>75</ele>
        <time>2020-08-16T09:05:36.000Z</time>
      </trkpt>
      <trkpt lat="43.61215" lon="3.84591">
        <ele>75</ele>
        <time>2020-08-16T09:05:37.000Z</time>
      </trkpt>
      <trkpt lat="43.61213" lon="3.84595">
        <ele>75</ele>
        <time>2020-08-16T09:05:38.000Z</time>
      </trkpt>
      <trkpt lat="43.6121" lon="3.84598">
        <ele>75</ele>
        <time>2020-08-16T09:05:39.000Z</time>
      </trkpt>
      <trkpt lat="43.61207" lon="3.84601">
        <ele>75</ele>
        <time>2020-08-16T09:05:40.000Z</time>
      </trkpt>
      <trkpt lat="43.61204" lon="3.84604">
        <ele>75</ele>
        <time>2020-08-16T09:05:41.000Z</time>
      </trkpt>
      <trkpt lat="43.61201" lon="3.84608">
        <ele>75</ele>
        <time>2020-08-16T09:05:42.000Z</time>
      </trkpt>
      <trkpt lat="43.61198" lon="3.84611">
        <ele>75</ele>
        <time>2020-08-16T09:05:43.000Z</time>
      </trkpt>
      <trkpt lat="43.61196" lon="3.84615">
        <ele>75</ele>
        <time>2020-08-16T09:05:44.000Z</time>
      </trkpt>
      <trkpt lat="43.61193" lon="3.84618">
        <ele>75</ele>
        <time>2020-08-16T09:05:45.000Z</time>
      </trkpt>
      <trkpt lat="43.6119" lon="3.84622">
        <ele>75</ele>
        <time>2020-08-16T09:05:46.000Z</time>
      </trkpt>
      <trkpt lat="43.61187" lon="3.84626">
        <ele>75</ele>
        <time>2020-08-16T09:05:47.000Z</time>
      </trkpt>
      <trkpt lat="43.61184" lon="3.84629">
        <ele>75</ele>
        <time>2020-08-16T09:05:48.000Z</time>
      </trkpt>
      <trkpt lat="43.61182" lon="3.84633">
        <ele>75</ele>
        <time>2020-08-16T09:05:49.000Z</time>
      </trkpt>
      <trkpt lat="43.61179" lon="3.84636">
        <ele>75</ele>
        <time>2020-08-16T09:05:50.000Z</time>
      </trkpt>
      <trkpt lat="43.61176" lon="3.8464">
        <ele>75</ele>
        <time>2020-08-16T09:05:51.000Z</time>
      </trkpt>
      <trkpt lat="43.61174" lon="3.84643">
        <ele>75</ele>
        <time>2020-08-16T09:05:52.000Z</time>
      </trkpt>
      <trkpt lat="43.61171" lon="3.84646">
        <ele>75</ele>
        <time>2020-08-16T09:05:53.000Z</time>
      </trkpt>
      <trkpt lat="43.61169" lon="3.8465">
        <ele>74.973529098039</ele>
        <time>2020-08-16T09:05:54.000Z</time>
      </trkpt>
      <trkpt lat="43.61166" lon="3.84653">
        <ele>74.875489882353</ele>
        <time>2020-08-16T09:05:55.000Z</time>
      </trkpt>
      <trkpt lat="43.61164" lon="3.84656">
        <ele>74.777450666667</ele>
        <time>2020-08-16T09:05:56.000Z</time>
      </trkpt>
      <trkpt lat="43.61162" lon="3.8466">
        <ele>74.67941145098</ele>
        <time>2020-08-16T09:05:57.000Z</time>
      </trkpt>
      <trkpt lat="43.61159" lon="3.84664">
        <ele>74.581372235294</ele>
        <time>2020-08-16T09:05:58.000Z</time>
      </trkpt>
      <trkpt lat="43.61157" lon="3.84669">
        <ele>74.483333019608</ele>
        <time>2020-08-16T09:05:59.000Z</time>
      </trkpt>
      <trkpt lat="43.61155" lon="3.84673">
        <ele>74.385293803922</ele>
        <time>2020-08-16T09:06:00.000Z</time>
      </trkpt>
      <trkpt lat="43.61152" lon="3.84677">
        <ele>74.287254588235</ele>
        <time>2020-08-16T09:06:01.000Z</time>
      </trkpt>
      <trkpt lat="43.6115" lon="3.84682">
        <ele>74.189215372549</ele>
        <time>2020-08-16T09:06:02.000Z</time>
      </trkpt>
      <trkpt lat="43.61148" lon="3.84686">
        <ele>74.091176156863</ele>
        <time>2020-08-16T09:06:03.000Z</time>
      </trkpt>
      <trkpt lat="43.61145" lon="3.8469">
        <ele>74</ele>
        <time>2020-08-16T09:06:04.000Z</time>
      </trkpt>
      <trkpt lat="43.61143" lon="3.84694">
        <ele>74</ele>
        <time>2020-08-16T09:06:05.000Z</time>
      </trkpt>
      <trkpt lat="43.6114" lon="3.84698">
        <ele>74</ele>
        <time>2020-08-16T09:06:06.000Z</time>
      </trkpt>
      <trkpt lat="43.61138" lon="3.84702">
        <ele>74</ele>
        <time>2020-08-16T09:06:07.000Z</time>
      </trkpt>
      <trkpt lat="43.61136" lon="3.84706">
        <ele>74</ele>
        <time>2020-08-16T09:06:08.000Z</time>
      </trkpt>
      <trkpt lat="43.61133" lon="3.84711">
        <ele>74</ele>
        <time>2020-08-16T09:06:09.000Z</time>
      </trkpt>
      <trkpt lat="43.61131" lon="3.84715">
        <ele>74</ele>
        <time>2020-08-16T09:06:10.000Z</time>
      </trkpt>
      <trkpt lat="43.61129" lon="3.8472">
        <ele>74</ele>
        <time>2020-08-16T09:06:11.000Z</time>
      </trkpt>
      <trkpt lat="43.61126" lon="3.84724">
        <ele>74</ele>
        <time>2020-08-16T09:06:12.000Z</time>
      </trkpt>
      <trkpt lat="43.61124" lon="3.84728">
        <ele>74</ele>
        <time>2020-08-16T09:06:13.000Z</time>
      </trkpt>
      <trkpt lat="43.61121" lon="3.84733">
        <ele>74</ele>
        <time>2020-08-16T09:06:14.000Z</time>
      </trkpt>
      <trkpt lat="43.61119" lon="3.84738">
        <ele>73.89804295842</ele>
        <time>2020-08-16T09:06:15.000Z</time>
      </trkpt>
      <trkpt lat="43.61117" lon="3.84742">
        <ele>73.79505638062</ele>
        <time>2020-08-16T09:06:16.000Z</time>
      </trkpt>
      <trkpt lat="43.61115" lon="3.84747">
        <ele>73.692069802819</ele>
        <time>2020-08-16T09:06:17.000Z</time>
      </trkpt>
      <trkpt lat="43.61113" lon="3.84752">
        <ele>73.589083225019</ele>
        <time>2020-08-16T09:06:18.000Z</time>
      </trkpt>
      <trkpt lat="43.61112" lon="3.84758">
        <ele>73.486096647218</ele>
        <time>2020-08-16T09:06:19.000Z</time>
      </trkpt>
      <trkpt lat="43.6111" lon="3.84763">
        <ele>73.383110069418</ele>
        <time>2020-08-16T09:06:20.000Z</time>
      </trkpt>
      <trkpt lat="43.61108" lon="3.84768">
        <ele>73.280123491617</ele>
        <time>2020-08-16T09:06:21.000Z</time>
      </trkpt>
      <trkpt lat="43.61107" lon="3.84773">
        <ele>73.177136913817</ele>
        <time>2020-08-16T09:06:22.000Z</time>
      </trkpt>
      <trkpt lat="43.61106" lon="3.84778">
        <ele>73.074150336016</ele>
        <time>2020-08-16T09:06:23.000Z</time>
      </trkpt>
      <trkpt lat="43.61105" lon="3.84784">
        <ele>73</ele>
        <time>2020-08-16T09:06:24.000Z</time>
      </trkpt>
      <trkpt lat="43.61103" lon="3.8479">
        <ele>73</ele>
        <time>2020-08-16T09:06:25.000Z</time>
      </trkpt>
      <trkpt lat="43.61102" lon="3.84795">
        <ele>73</ele>
        <time>2020-08-16T09:06:26.000Z</time>
      </trkpt>
      <trkpt lat="43.61101" lon="3.84801">
        <ele>73</ele>
        <time>2020-08-16T09:06:27.000Z</time>
      </trkpt>
      <trkpt lat="43.61099" lon="3.84807">
        <ele>73</ele>
        <time>2020-08-16T09:06:28.000Z</time>
      </trkpt>
      <trkpt lat="43.61098" lon="3.84812">
        <ele>73</ele>
        <time>2020-08-16T09:06:29.000Z</time>
      </trkpt>
      <trkpt lat="43.61097" lon="3.84818">
        <ele>73</ele>
        <time>2020-08-16T09:06:30.000Z</time>
      </trkpt>
      <trkpt lat="43.61095" lon="3.84823">
        <ele>73</ele>
        <time>2020-08-16T09:06:31.000Z</time>
      </trkpt>
      <trkpt lat="43.61094" lon="3.84828">
        <ele>73</ele>
        <time>2020-08-16T09:06:32.000Z</time>
      </trkpt>
      <trkpt lat="43.61093" lon="3.84834">
        <ele>73</ele>
        <time>2020-08-16T09:06:33.000Z</time>
      </trkpt>
      <trkpt lat="43.61091" lon="3.84839">
        <ele>73</ele>
        <time>2020-08-16T09:06:34.000Z</time>
      </trkpt>
      <trkpt lat="43.6109" lon="3.84844">
        <ele>73</ele>
        <time>2020-08-16T09:06:35.000Z</time>
      </trkpt>
      <trkpt lat="43.61089" lon="3.84849">
        <ele>73</ele>
        <time>2020-08-16T09:06:36.000Z</time>
      </trkpt>
      <trkpt lat="43.61088" lon="3.84854">
        <ele>73</ele>
        <time>2020-08-16T09:06:37.000Z</time>
      </trkpt>
      <trkpt lat="43.61087" lon="3.84859">
        <ele>73</ele>
        <time>2020-08-16T09:06:38.000Z</time>
      </trkpt>
      <trkpt lat="43.61086" lon="3.84865">
        <ele>73</ele>
        <time>2020-08-16T09:06:39.000Z</time>
      </trkpt>
      <trkpt lat="43.61084" lon="3.8487">
        <ele>73</ele>
        <time>2020-08-16T09:06:40.000Z</time>
      </trkpt>
      <trkpt lat="43.61083" lon="3.84875">
        <ele>73</ele>
        <time>2020-08-16T09:06:41.000Z</time>
      </trkpt>
      <trkpt lat="43.61082" lon="3.8488">
        <ele>73</ele>
        <time>2020-08-16T09:06:42.000Z</time>
      </trkpt>
      <trkpt lat="43.61081" lon="3.84885">
        <ele>73</ele>
        <time>2020-08-16T09:06:43.000Z</time>
      </trkpt>
      <trkpt lat="43.6108" lon="3.84891">
        <ele>72.97297266131</ele>
        <time>2020-08-16T09:06:44.000Z</time>
      </trkpt>
      <trkpt lat="43.61079" lon="3.84896">
        <ele>72.872872593274</ele>
        <time>2020-08-16T09:06:45.000Z</time>
      </trkpt>
      <trkpt lat="43.61077" lon="3.84901">
        <ele>72.772772525238</ele>
        <time>2020-08-16T09:06:46.000Z</time>
      </trkpt>
      <trkpt lat="43.61076" lon="3.84906">
        <ele>72.672672457202</ele>
        <time>2020-08-16T09:06:47.000Z</time>
      </trkpt>
      <trkpt lat="43.61075" lon="3.84911">
        <ele>72.572572389166</ele>
        <time>2020-08-16T09:06:48.000Z</time>
      </trkpt>
      <trkpt lat="43.61073" lon="3.84916">
        <ele>72.47247232113</ele>
        <time>2020-08-16T09:06:49.000Z</time>
      </trkpt>
      <trkpt lat="43.61072" lon="3.84921">
        <ele>72.372372253094</ele>
        <time>2020-08-16T09:06:50.000Z</time>
      </trkpt>
      <trkpt lat="43.61071" lon="3.84927">
        <ele>72.272272185058</ele>
        <time>2020-08-16T09:06:51.000Z</time>
      </trkpt>
      <trkpt lat="43.6107" lon="3.84933">
        <ele>72.172172117022</ele>
        <time>2020-08-16T09:06:52.000Z</time>
      </trkpt>
      <trkpt lat="43.61068" lon="3.84938">
        <ele>72.072072048986</ele>
        <time>2020-08-16T09:06:53.000Z</time>
      </trkpt>
      <trkpt lat="43.61067" lon="3.84944">
        <ele>72.027972036914</ele>
        <time>2020-08-16T09:06:54.000Z</time>
      </trkpt>
      <trkpt lat="43.61066" lon="3.84949">
        <ele>72.12787216875</ele>
        <time>2020-08-16T09:06:55.000Z</time>
      </trkpt>
      <trkpt lat="43.61064" lon="3.84954">
        <ele>72.227772300587</ele>
        <time>2020-08-16T09:06:56.000Z</time>
      </trkpt>
      <trkpt lat="43.61063" lon="3.8496">
        <ele>72.327672432423</ele>
        <time>2020-08-16T09:06:57.000Z</time>
      </trkpt>
      <trkpt lat="43.61061" lon="3.84965">
        <ele>72.427572564259</ele>
        <time>2020-08-16T09:06:58.000Z</time>
      </trkpt>
      <trkpt lat="43.6106" lon="3.8497">
        <ele>72.527472696095</ele>
        <time>2020-08-16T09:06:59.000Z</time>
      </trkpt>
      <trkpt lat="43.61058" lon="3.84975">
        <ele>72.627372827931</ele>
        <time>2020-08-16T09:07:00.000Z</time>
      </trkpt>
      <trkpt lat="43.61057" lon="3.8498">
        <ele>72.727272959768</ele>
        <time>2020-08-16T09:07:01.000Z</time>
      </trkpt>
      <trkpt lat="43.61055" lon="3.84985">
        <ele>72.827173091604</ele>
        <time>2020-08-16T09:07:02.000Z</time>
      </trkpt>
      <trkpt lat="43.61053" lon="3.8499">
        <ele>72.92707322344</ele>
        <time>2020-08-16T09:07:03.000Z</time>
      </trkpt>
      <trkpt lat="43.6105" lon="3.84992">
        <ele>72.94599936</ele>
        <time>2020-08-16T09:07:04.000Z</time>
      </trkpt>
      <trkpt lat="43.61046" lon="3.84993">
        <ele>72.74599936</ele>
        <time>2020-08-16T09:07:05.000Z</time>
      </trkpt>
      <trkpt lat="43.61043" lon="3.84994">
        <ele>72.54599936</ele>
        <time>2020-08-16T09:07:06.000Z</time>
      </trkpt>
      <trkpt lat="43.61041" lon="3.84997">
        <ele>72.34599936</ele>
        <time>2020-08-16T09:07:07.000Z</time>
      </trkpt>
      <trkpt lat="43.6104" lon="3.85002">
        <ele>72.14599936</ele>
        <time>2020-08-16T09:07:08.000Z</time>
      </trkpt>
      <trkpt lat="43.61039" lon="3.85007">
        <ele>71.94599936</ele>
        <time>2020-08-16T09:07:09.000Z</time>
      </trkpt>
      <trkpt lat="43.61037" lon="3.85013">
        <ele>71.74599936</ele>
        <time>2020-08-16T09:07:10.000Z</time>
      </trkpt>
      <trkpt lat="43.61036" lon="3.85018">
        <ele>71.54599936</ele>
        <time>2020-08-16T09:07:11.000Z</time>
      </trkpt>
      <trkpt lat="43.61035" lon="3.85024">
        <ele>71.34599936</ele>
        <time>2020-08-16T09:07:12.000Z</time>
      </trkpt>
      <trkpt lat="43.61035" lon="3.8503">
        <ele>71.14599936</ele>
        <time>2020-08-16T09:07:13.000Z</time>
      </trkpt>
      <trkpt lat="43.61035" lon="3.85036">
        <ele>71</ele>
        <time>2020-08-16T09:07:14.000Z</time>
      </trkpt>
      <trkpt lat="43.61034" lon="3.85042">
        <ele>71</ele>
        <time>2020-08-16T09:07:15.000Z</time>
      </trkpt>
      <trkpt lat="43.61034" lon="3.85048">
        <ele>71</ele>
        <time>2020-08-16T09:07:16.000Z</time>
      </trkpt>
      <trkpt lat="43.61033" lon="3.85054">
        <ele>71</ele>
        <time>2020-08-16T09:07:17.000Z</time>
      </trkpt>
      <trkpt lat="43.61033" lon="3.85059">
        <ele>71</ele>
        <time>2020-08-16T09:07:18.000Z</time>
      </trkpt>
      <trkpt lat="43.61032" lon="3.85064">
        <ele>71</ele>
        <time>2020-08-16T09:07:19.000Z</time>
      </trkpt>
      <trkpt lat="43.61031" lon="3.8507">
        <ele>71</ele>
        <time>2020-08-16T09:07:20.000Z</time>
      </trkpt>
      <trkpt lat="43.6103" lon="3.85075">
        <ele>71</ele>
        <time>2020-08-16T09:07:21.000Z</time>
      </trkpt>
      <trkpt lat="43.61029" lon="3.8508">
        <ele>71</ele>
        <time>2020-08-16T09:07:22.000Z</time>
      </trkpt>
      <trkpt lat="43.61029" lon="3.85084">
        <ele>71</ele>
        <time>2020-08-16T09:07:23.000Z</time>
      </trkpt>
      <trkpt lat="43.61028" lon="3.85089">
        <ele>71</ele>
        <time>2020-08-16T09:07:24.000Z</time>
      </trkpt>
      <trkpt lat="43.61027" lon="3.85094">
        <ele>70.89814781893</ele>
        <time>2020-08-16T09:07:25.000Z</time>
      </trkpt>
      <trkpt lat="43.61026" lon="3.85097">
        <ele>70.795267160494</ele>
        <time>2020-08-16T09:07:26.000Z</time>
      </trkpt>
      <trkpt lat="43.61026" lon="3.851">
        <ele>70.692386502058</ele>
        <time>2020-08-16T09:07:27.000Z</time>
      </trkpt>
      <trkpt lat="43.61026" lon="3.85104">
        <ele>70.589505843621</ele>
        <time>2020-08-16T09:07:28.000Z</time>
      </trkpt>
      <trkpt lat="43.61026" lon="3.85108">
        <ele>70.486625185185</ele>
        <time>2020-08-16T09:07:29.000Z</time>
      </trkpt>
      <trkpt lat="43.61025" lon="3.85112">
        <ele>70.383744526749</ele>
        <time>2020-08-16T09:07:30.000Z</time>
      </trkpt>
      <trkpt lat="43.61024" lon="3.85117">
        <ele>70.280863868313</ele>
        <time>2020-08-16T09:07:31.000Z</time>
      </trkpt>
      <trkpt lat="43.61023" lon="3.85122">
        <ele>70.177983209877</ele>
        <time>2020-08-16T09:07:32.000Z</time>
      </trkpt>
      <trkpt lat="43.61022" lon="3.85127">
        <ele>70.07510255144</ele>
        <time>2020-08-16T09:07:33.000Z</time>
      </trkpt>
      <trkpt lat="43.61021" lon="3.85133">
        <ele>70.026548962156</ele>
        <time>2020-08-16T09:07:34.000Z</time>
      </trkpt>
      <trkpt lat="43.61021" lon="3.85138">
        <ele>70.124877286252</ele>
        <time>2020-08-16T09:07:35.000Z</time>
      </trkpt>
      <trkpt lat="43.6102" lon="3.85144">
        <ele>70.223205610347</ele>
        <time>2020-08-16T09:07:36.000Z</time>
      </trkpt>
      <trkpt lat="43.6102" lon="3.8515">
        <ele>70.321533934442</ele>
        <time>2020-08-16T09:07:37.000Z</time>
      </trkpt>
      <trkpt lat="43.61019" lon="3.85156">
        <ele>70.419862258537</ele>
        <time>2020-08-16T09:07:38.000Z</time>
      </trkpt>
      <trkpt lat="43.61019" lon="3.85162">
        <ele>70.518190582632</ele>
        <time>2020-08-16T09:07:39.000Z</time>
      </trkpt>
      <trkpt lat="43.61018" lon="3.85168">
        <ele>70.616518906728</ele>
        <time>2020-08-16T09:07:40.000Z</time>
      </trkpt>
      <trkpt lat="43.61018" lon="3.85174">
        <ele>70.714847230823</ele>
        <time>2020-08-16T09:07:41.000Z</time>
      </trkpt>
      <trkpt lat="43.61017" lon="3.85179">
        <ele>70.813175554918</ele>
        <time>2020-08-16T09:07:42.000Z</time>
      </trkpt>
      <trkpt lat="43.61017" lon="3.85185">
        <ele>70.911503879013</ele>
        <time>2020-08-16T09:07:43.000Z</time>
      </trkpt>
      <trkpt lat="43.61017" lon="3.8519">
        <ele>71</ele>
        <time>2020-08-16T09:07:44.000Z</time>
      </trkpt>
      <trkpt lat="43.61016" lon="3.85195">
        <ele>71</ele>
        <time>2020-08-16T09:07:45.000Z</time>
      </trkpt>
      <trkpt lat="43.61016" lon="3.85201">
        <ele>71</ele>
        <time>2020-08-16T09:07:46.000Z</time>
      </trkpt>
      <trkpt lat="43.61015" lon="3.85206">
        <ele>71</ele>
        <time>2020-08-16T09:07:47.000Z</time>
      </trkpt>
      <trkpt lat="43.61015" lon="3.85211">
        <ele>71</ele>
        <time>2020-08-16T09:07:48.000Z</time>
      </trkpt>
      <trkpt lat="43.61015" lon="3.85216">
        <ele>71</ele>
        <time>2020-08-16T09:07:49.000Z</time>
      </trkpt>
      <trkpt lat="43.61015" lon="3.85221">
        <ele>71</ele>
        <time>2020-08-16T09:07:50.000Z</time>
      </trkpt>
      <trkpt lat="43.61015" lon="3.85225">
        <ele>71</ele>
        <time>2020-08-16T09:07:51.000Z</time>
      </trkpt>
      <trkpt lat="43.61015" lon="3.8523">
        <ele>71</ele>
        <time>2020-08-16T09:07:52.000Z</time>
      </trkpt>
      <trkpt lat="43.61015" lon="3.85235">
        <ele>71</ele>
        <time>2020-08-16T09:07:53.000Z</time>
      </trkpt>
      <trkpt lat="43.61014" lon="3.85241">
        <ele>70.97297266131</ele>
        <time>2020-08-16T09:07:54.000Z</time>
      </trkpt>
      <trkpt lat="43.61014" lon="3.85246">
        <ele>70.872872593274</ele>
        <time>2020-08-16T09:07:55.000Z</time>
      </trkpt>
      <trkpt lat="43.61014" lon="3.85252">
        <ele>70.772772525238</ele>
        <time>2020-08-16T09:07:56.000Z</time>
      </trkpt>
      <trkpt lat="43.61013" lon="3.85258">
        <ele>70.672672457202</ele>
        <time>2020-08-16T09:07:57.000Z</time>
      </trkpt>
      <trkpt lat="43.61013" lon="3.85264">
        <ele>70.572572389166</ele>
        <time>2020-08-16T09:07:58.000Z</time>
      </trkpt>
      <trkpt lat="43.61012" lon="3.8527">
        <ele>70.47247232113</ele>
        <time>2020-08-16T09:07:59.000Z</time>
      </trkpt>
      <trkpt lat="43.61012" lon="3.85277">
        <ele>70.372372253094</ele>
        <time>2020-08-16T09:08:00.000Z</time>
      </trkpt>
      <trkpt lat="43.61012" lon="3.85283">
        <ele>70.272272185058</ele>
        <time>2020-08-16T09:08:01.000Z</time>
      </trkpt>
      <trkpt lat="43.61012" lon="3.85289">
        <ele>70.172172117022</ele>
        <time>2020-08-16T09:08:02.000Z</time>
      </trkpt>
      <trkpt lat="43.61012" lon="3.85295">
        <ele>70.072072048986</ele>
        <time>2020-08-16T09:08:03.000Z</time>
      </trkpt>
      <trkpt lat="43.61012" lon="3.85301">
        <ele>69.972</ele>
        <time>2020-08-16T09:08:04.000Z</time>
      </trkpt>
      <trkpt lat="43.61011" lon="3.85307">
        <ele>69.872</ele>
        <time>2020-08-16T09:08:05.000Z</time>
      </trkpt>
      <trkpt lat="43.61012" lon="3.85313">
        <ele>69.772</ele>
        <time>2020-08-16T09:08:06.000Z</time>
      </trkpt>
      <trkpt lat="43.61011" lon="3.85319">
        <ele>69.672</ele>
        <time>2020-08-16T09:08:07.000Z</time>
      </trkpt>
      <trkpt lat="43.61011" lon="3.85323">
        <ele>69.572</ele>
        <time>2020-08-16T09:08:08.000Z</time>
      </trkpt>
      <trkpt lat="43.6101" lon="3.85326">
        <ele>69.372</ele>
        <time>2020-08-16T09:08:10.000Z</time>
      </trkpt>
      <trkpt lat="43.61009" lon="3.85328">
        <ele>69.172</ele>
        <time>2020-08-16T09:08:12.000Z</time>
      </trkpt>
      <trkpt lat="43.61009" lon="3.85334">
        <ele>68.972055906072</ele>
        <time>2020-08-16T09:08:14.000Z</time>
      </trkpt>
      <trkpt lat="43.61009" lon="3.85337">
        <ele>68.872255570615</ele>
        <time>2020-08-16T09:08:15.000Z</time>
      </trkpt>
      <trkpt lat="43.61009" lon="3.85342">
        <ele>68.772455235158</ele>
        <time>2020-08-16T09:08:16.000Z</time>
      </trkpt>
      <trkpt lat="43.6101" lon="3.85347">
        <ele>68.672654899701</ele>
        <time>2020-08-16T09:08:17.000Z</time>
      </trkpt>
      <trkpt lat="43.6101" lon="3.85352">
        <ele>68.572854564245</ele>
        <time>2020-08-16T09:08:18.000Z</time>
      </trkpt>
      <trkpt lat="43.6101" lon="3.85358">
        <ele>68.473054228788</ele>
        <time>2020-08-16T09:08:19.000Z</time>
      </trkpt>
      <trkpt lat="43.6101" lon="3.85364">
        <ele>68.373253893331</ele>
        <time>2020-08-16T09:08:20.000Z</time>
      </trkpt>
      <trkpt lat="43.6101" lon="3.8537">
        <ele>68.273453557874</ele>
        <time>2020-08-16T09:08:21.000Z</time>
      </trkpt>
      <trkpt lat="43.6101" lon="3.85376">
        <ele>68.173653222417</ele>
        <time>2020-08-16T09:08:22.000Z</time>
      </trkpt>
      <trkpt lat="43.6101" lon="3.85382">
        <ele>68.07385288696</ele>
        <time>2020-08-16T09:08:23.000Z</time>
      </trkpt>
      <trkpt lat="43.6101" lon="3.85388">
        <ele>67.973974589605</ele>
        <time>2020-08-16T09:08:24.000Z</time>
      </trkpt>
      <trkpt lat="43.6101" lon="3.85394">
        <ele>67.873874393313</ele>
        <time>2020-08-16T09:08:25.000Z</time>
      </trkpt>
      <trkpt lat="43.6101" lon="3.854">
        <ele>67.77377419702</ele>
        <time>2020-08-16T09:08:26.000Z</time>
      </trkpt>
      <trkpt lat="43.6101" lon="3.85406">
        <ele>67.673674000728</ele>
        <time>2020-08-16T09:08:27.000Z</time>
      </trkpt>
      <trkpt lat="43.6101" lon="3.85411">
        <ele>67.573573804435</ele>
        <time>2020-08-16T09:08:28.000Z</time>
      </trkpt>
      <trkpt lat="43.6101" lon="3.85417">
        <ele>67.473473608143</ele>
        <time>2020-08-16T09:08:29.000Z</time>
      </trkpt>
      <trkpt lat="43.61011" lon="3.85423">
        <ele>67.37337341185</ele>
        <time>2020-08-16T09:08:30.000Z</time>
      </trkpt>
      <trkpt lat="43.61011" lon="3.85428">
        <ele>67.273273215558</ele>
        <time>2020-08-16T09:08:31.000Z</time>
      </trkpt>
      <trkpt lat="43.61012" lon="3.85434">
        <ele>67.173173019265</ele>
        <time>2020-08-16T09:08:32.000Z</time>
      </trkpt>
      <trkpt lat="43.61012" lon="3.8544">
        <ele>67.073072822973</ele>
        <time>2020-08-16T09:08:33.000Z</time>
      </trkpt>
      <trkpt lat="43.61013" lon="3.85445">
        <ele>66.973735097276</ele>
        <time>2020-08-16T09:08:34.000Z</time>
      </trkpt>
      <trkpt lat="43.61013" lon="3.8545">
        <ele>66.876458832685</ele>
        <time>2020-08-16T09:08:35.000Z</time>
      </trkpt>
      <trkpt lat="43.61014" lon="3.85456">
        <ele>66.779182568093</ele>
        <time>2020-08-16T09:08:36.000Z</time>
      </trkpt>
      <trkpt lat="43.61014" lon="3.85461">
        <ele>66.681906303502</ele>
        <time>2020-08-16T09:08:37.000Z</time>
      </trkpt>
      <trkpt lat="43.61015" lon="3.85467">
        <ele>66.584630038911</ele>
        <time>2020-08-16T09:08:38.000Z</time>
      </trkpt>
      <trkpt lat="43.61016" lon="3.85472">
        <ele>66.487353774319</ele>
        <time>2020-08-16T09:08:39.000Z</time>
      </trkpt>
      <trkpt lat="43.61016" lon="3.85478">
        <ele>66.390077509728</ele>
        <time>2020-08-16T09:08:40.000Z</time>
      </trkpt>
      <trkpt lat="43.61017" lon="3.85484">
        <ele>66.292801245136</ele>
        <time>2020-08-16T09:08:41.000Z</time>
      </trkpt>
      <trkpt lat="43.61017" lon="3.8549">
        <ele>66.195524980545</ele>
        <time>2020-08-16T09:08:42.000Z</time>
      </trkpt>
      <trkpt lat="43.61017" lon="3.85495">
        <ele>66.098248715953</ele>
        <time>2020-08-16T09:08:43.000Z</time>
      </trkpt>
      <trkpt lat="43.61018" lon="3.855">
        <ele>66.000972451362</ele>
        <time>2020-08-16T09:08:44.000Z</time>
      </trkpt>
      <trkpt lat="43.61018" lon="3.85505">
        <ele>66</ele>
        <time>2020-08-16T09:08:45.000Z</time>
      </trkpt>
      <trkpt lat="43.61019" lon="3.8551">
        <ele>66</ele>
        <time>2020-08-16T09:08:46.000Z</time>
      </trkpt>
      <trkpt lat="43.6102" lon="3.85515">
        <ele>66</ele>
        <time>2020-08-16T09:08:47.000Z</time>
      </trkpt>
      <trkpt lat="43.6102" lon="3.8552">
        <ele>66</ele>
        <time>2020-08-16T09:08:48.000Z</time>
      </trkpt>
      <trkpt lat="43.61021" lon="3.85526">
        <ele>66</ele>
        <time>2020-08-16T09:08:49.000Z</time>
      </trkpt>
      <trkpt lat="43.61022" lon="3.85531">
        <ele>66</ele>
        <time>2020-08-16T09:08:50.000Z</time>
      </trkpt>
      <trkpt lat="43.61022" lon="3.85537">
        <ele>66</ele>
        <time>2020-08-16T09:08:51.000Z</time>
      </trkpt>
      <trkpt lat="43.61023" lon="3.85543">
        <ele>66</ele>
        <time>2020-08-16T09:08:52.000Z</time>
      </trkpt>
      <trkpt lat="43.61024" lon="3.85549">
        <ele>66</ele>
        <time>2020-08-16T09:08:53.000Z</time>
      </trkpt>
      <trkpt lat="43.61024" lon="3.85555">
        <ele>65.97299968</ele>
        <time>2020-08-16T09:08:54.000Z</time>
      </trkpt>
      <trkpt lat="43.61025" lon="3.8556">
        <ele>65.87299968</ele>
        <time>2020-08-16T09:08:55.000Z</time>
      </trkpt>
      <trkpt lat="43.61026" lon="3.85566">
        <ele>65.77299968</ele>
        <time>2020-08-16T09:08:56.000Z</time>
      </trkpt>
      <trkpt lat="43.61027" lon="3.85571">
        <ele>65.67299968</ele>
        <time>2020-08-16T09:08:57.000Z</time>
      </trkpt>
      <trkpt lat="43.61027" lon="3.85577">
        <ele>65.57299968</ele>
        <time>2020-08-16T09:08:58.000Z</time>
      </trkpt>
      <trkpt lat="43.61028" lon="3.85582">
        <ele>65.47299968</ele>
        <time>2020-08-16T09:08:59.000Z</time>
      </trkpt>
      <trkpt lat="43.61029" lon="3.85588">
        <ele>65.37299968</ele>
        <time>2020-08-16T09:09:00.000Z</time>
      </trkpt>
      <trkpt lat="43.6103" lon="3.85593">
        <ele>65.27299968</ele>
        <time>2020-08-16T09:09:01.000Z</time>
      </trkpt>
      <trkpt lat="43.6103" lon="3.85599">
        <ele>65.17299968</ele>
        <time>2020-08-16T09:09:02.000Z</time>
      </trkpt>
      <trkpt lat="43.61031" lon="3.85604">
        <ele>65.07299968</ele>
        <time>2020-08-16T09:09:03.000Z</time>
      </trkpt>
      <trkpt lat="43.61032" lon="3.8561">
        <ele>65</ele>
        <time>2020-08-16T09:09:04.000Z</time>
      </trkpt>
      <trkpt lat="43.61033" lon="3.85615">
        <ele>65</ele>
        <time>2020-08-16T09:09:05.000Z</time>
      </trkpt>
      <trkpt lat="43.61033" lon="3.85621">
        <ele>65</ele>
        <time>2020-08-16T09:09:06.000Z</time>
      </trkpt>
      <trkpt lat="43.61034" lon="3.85626">
        <ele>65</ele>
        <time>2020-08-16T09:09:07.000Z</time>
      </trkpt>
      <trkpt lat="43.61034" lon="3.85632">
        <ele>65</ele>
        <time>2020-08-16T09:09:08.000Z</time>
      </trkpt>
      <trkpt lat="43.61035" lon="3.85637">
        <ele>65</ele>
        <time>2020-08-16T09:09:09.000Z</time>
      </trkpt>
      <trkpt lat="43.61036" lon="3.85643">
        <ele>65</ele>
        <time>2020-08-16T09:09:10.000Z</time>
      </trkpt>
      <trkpt lat="43.61037" lon="3.85648">
        <ele>65</ele>
        <time>2020-08-16T09:09:11.000Z</time>
      </trkpt>
      <trkpt lat="43.61037" lon="3.85653">
        <ele>65</ele>
        <time>2020-08-16T09:09:12.000Z</time>
      </trkpt>
      <trkpt lat="43.61038" lon="3.85659">
        <ele>65</ele>
        <time>2020-08-16T09:09:13.000Z</time>
      </trkpt>
      <trkpt lat="43.61038" lon="3.85664">
        <ele>65</ele>
        <time>2020-08-16T09:09:14.000Z</time>
      </trkpt>
      <trkpt lat="43.61038" lon="3.8567">
        <ele>65</ele>
        <time>2020-08-16T09:09:15.000Z</time>
      </trkpt>
      <trkpt lat="43.61039" lon="3.85675">
        <ele>65</ele>
        <time>2020-08-16T09:09:16.000Z</time>
      </trkpt>
      <trkpt lat="43.61039" lon="3.8568">
        <ele>65</ele>
        <time>2020-08-16T09:09:17.000Z</time>
      </trkpt>
      <trkpt lat="43.6104" lon="3.85685">
        <ele>65</ele>
        <time>2020-08-16T09:09:18.000Z</time>
      </trkpt>
      <trkpt lat="43.6104" lon="3.85691">
        <ele>65</ele>
        <time>2020-08-16T09:09:19.000Z</time>
      </trkpt>
      <trkpt lat="43.61041" lon="3.85696">
        <ele>65</ele>
        <time>2020-08-16T09:09:20.000Z</time>
      </trkpt>
      <trkpt lat="43.61041" lon="3.85701">
        <ele>65</ele>
        <time>2020-08-16T09:09:21.000Z</time>
      </trkpt>
      <trkpt lat="43.61042" lon="3.85706">
        <ele>65</ele>
        <time>2020-08-16T09:09:22.000Z</time>
      </trkpt>
      <trkpt lat="43.61043" lon="3.8571">
        <ele>65</ele>
        <time>2020-08-16T09:09:23.000Z</time>
      </trkpt>
      <trkpt lat="43.61043" lon="3.85716">
        <ele>65</ele>
        <time>2020-08-16T09:09:24.000Z</time>
      </trkpt>
      <trkpt lat="43.61044" lon="3.85721">
        <ele>64.89814781893</ele>
        <time>2020-08-16T09:09:25.000Z</time>
      </trkpt>
      <trkpt lat="43.61044" lon="3.85725">
        <ele>64.795267160494</ele>
        <time>2020-08-16T09:09:26.000Z</time>
      </trkpt>
      <trkpt lat="43.61045" lon="3.8573">
        <ele>64.692386502058</ele>
        <time>2020-08-16T09:09:27.000Z</time>
      </trkpt>
      <trkpt lat="43.61046" lon="3.85735">
        <ele>64.589505843621</ele>
        <time>2020-08-16T09:09:28.000Z</time>
      </trkpt>
      <trkpt lat="43.61046" lon="3.8574">
        <ele>64.486625185185</ele>
        <time>2020-08-16T09:09:29.000Z</time>
      </trkpt>
      <trkpt lat="43.61047" lon="3.85745">
        <ele>64.383744526749</ele>
        <time>2020-08-16T09:09:30.000Z</time>
      </trkpt>
      <trkpt lat="43.61048" lon="3.8575">
        <ele>64.280863868313</ele>
        <time>2020-08-16T09:09:31.000Z</time>
      </trkpt>
      <trkpt lat="43.61049" lon="3.85754">
        <ele>64.177983209877</ele>
        <time>2020-08-16T09:09:32.000Z</time>
      </trkpt>
      <trkpt lat="43.61049" lon="3.85759">
        <ele>64.07510255144</ele>
        <time>2020-08-16T09:09:33.000Z</time>
      </trkpt>
      <trkpt lat="43.6105" lon="3.85764">
        <ele>64.02702733869</ele>
        <time>2020-08-16T09:09:34.000Z</time>
      </trkpt>
      <trkpt lat="43.61051" lon="3.8577">
        <ele>64.127127406726</ele>
        <time>2020-08-16T09:09:35.000Z</time>
      </trkpt>
      <trkpt lat="43.61051" lon="3.85775">
        <ele>64.227227474762</ele>
        <time>2020-08-16T09:09:36.000Z</time>
      </trkpt>
      <trkpt lat="43.61052" lon="3.8578">
        <ele>64.327327542798</ele>
        <time>2020-08-16T09:09:37.000Z</time>
      </trkpt>
      <trkpt lat="43.61051" lon="3.85786">
        <ele>64.427427610834</ele>
        <time>2020-08-16T09:09:38.000Z</time>
      </trkpt>
      <trkpt lat="43.61052" lon="3.85791">
        <ele>64.52752767887</ele>
        <time>2020-08-16T09:09:39.000Z</time>
      </trkpt>
      <trkpt lat="43.61051" lon="3.85797">
        <ele>64.627627746906</ele>
        <time>2020-08-16T09:09:40.000Z</time>
      </trkpt>
      <trkpt lat="43.6105" lon="3.85802">
        <ele>64.727727814942</ele>
        <time>2020-08-16T09:09:41.000Z</time>
      </trkpt>
      <trkpt lat="43.6105" lon="3.85808">
        <ele>64.827827882978</ele>
        <time>2020-08-16T09:09:42.000Z</time>
      </trkpt>
      <trkpt lat="43.61049" lon="3.85814">
        <ele>64.927927951014</ele>
        <time>2020-08-16T09:09:43.000Z</time>
      </trkpt>
      <trkpt lat="43.61049" lon="3.85819">
        <ele>64.972027963086</ele>
        <time>2020-08-16T09:09:44.000Z</time>
      </trkpt>
      <trkpt lat="43.61048" lon="3.85825">
        <ele>64.87212783125</ele>
        <time>2020-08-16T09:09:45.000Z</time>
      </trkpt>
      <trkpt lat="43.61047" lon="3.8583">
        <ele>64.772227699413</ele>
        <time>2020-08-16T09:09:46.000Z</time>
      </trkpt>
      <trkpt lat="43.61046" lon="3.85836">
        <ele>64.672327567577</ele>
        <time>2020-08-16T09:09:47.000Z</time>
      </trkpt>
      <trkpt lat="43.61045" lon="3.85841">
        <ele>64.572427435741</ele>
        <time>2020-08-16T09:09:48.000Z</time>
      </trkpt>
      <trkpt lat="43.61043" lon="3.85847">
        <ele>64.472527303905</ele>
        <time>2020-08-16T09:09:49.000Z</time>
      </trkpt>
      <trkpt lat="43.61042" lon="3.85853">
        <ele>64.372627172069</ele>
        <time>2020-08-16T09:09:50.000Z</time>
      </trkpt>
      <trkpt lat="43.61041" lon="3.85859">
        <ele>64.272727040232</ele>
        <time>2020-08-16T09:09:51.000Z</time>
      </trkpt>
      <trkpt lat="43.61039" lon="3.85865">
        <ele>64.172826908396</ele>
        <time>2020-08-16T09:09:52.000Z</time>
      </trkpt>
      <trkpt lat="43.61038" lon="3.85871">
        <ele>64.07292677656</ele>
        <time>2020-08-16T09:09:53.000Z</time>
      </trkpt>
      <trkpt lat="43.61037" lon="3.85878">
        <ele>63.97299968</ele>
        <time>2020-08-16T09:09:54.000Z</time>
      </trkpt>
      <trkpt lat="43.61036" lon="3.85885">
        <ele>63.87299968</ele>
        <time>2020-08-16T09:09:55.000Z</time>
      </trkpt>
      <trkpt lat="43.61035" lon="3.85892">
        <ele>63.77299968</ele>
        <time>2020-08-16T09:09:56.000Z</time>
      </trkpt>
      <trkpt lat="43.61033" lon="3.859">
        <ele>63.67299968</ele>
        <time>2020-08-16T09:09:57.000Z</time>
      </trkpt>
      <trkpt lat="43.61032" lon="3.85907">
        <ele>63.57299968</ele>
        <time>2020-08-16T09:09:58.000Z</time>
      </trkpt>
      <trkpt lat="43.6103" lon="3.85915">
        <ele>63.47299968</ele>
        <time>2020-08-16T09:09:59.000Z</time>
      </trkpt>
      <trkpt lat="43.61029" lon="3.85923">
        <ele>63.37299968</ele>
        <time>2020-08-16T09:10:00.000Z</time>
      </trkpt>
      <trkpt lat="43.61028" lon="3.85931">
        <ele>63.27299968</ele>
        <time>2020-08-16T09:10:01.000Z</time>
      </trkpt>
      <trkpt lat="43.61026" lon="3.85939">
        <ele>63.17299968</ele>
        <time>2020-08-16T09:10:02.000Z</time>
      </trkpt>
      <trkpt lat="43.61025" lon="3.85947">
        <ele>63.07299968</ele>
        <time>2020-08-16T09:10:03.000Z</time>
      </trkpt>
      <trkpt lat="43.61023" lon="3.85956">
        <ele>62.946692342489</ele>
        <time>2020-08-16T09:10:04.000Z</time>
      </trkpt>
      <trkpt lat="43.61022" lon="3.85965">
        <ele>62.749258913882</ele>
        <time>2020-08-16T09:10:05.000Z</time>
      </trkpt>
      <trkpt lat="43.6102" lon="3.85973">
        <ele>62.551825485276</ele>
        <time>2020-08-16T09:10:06.000Z</time>
      </trkpt>
      <trkpt lat="43.61019" lon="3.85982">
        <ele>62.354392056669</ele>
        <time>2020-08-16T09:10:07.000Z</time>
      </trkpt>
      <trkpt lat="43.61017" lon="3.85991">
        <ele>62.156958628062</ele>
        <time>2020-08-16T09:10:08.000Z</time>
      </trkpt>
      <trkpt lat="43.61016" lon="3.86001">
        <ele>61.959525199455</ele>
        <time>2020-08-16T09:10:09.000Z</time>
      </trkpt>
      <trkpt lat="43.61015" lon="3.8601">
        <ele>61.762091770848</ele>
        <time>2020-08-16T09:10:10.000Z</time>
      </trkpt>
      <trkpt lat="43.61013" lon="3.8602">
        <ele>61.564658342242</ele>
        <time>2020-08-16T09:10:11.000Z</time>
      </trkpt>
      <trkpt lat="43.61012" lon="3.86029">
        <ele>61.367224913635</ele>
        <time>2020-08-16T09:10:12.000Z</time>
      </trkpt>
      <trkpt lat="43.61011" lon="3.86039">
        <ele>61.169791485028</ele>
        <time>2020-08-16T09:10:13.000Z</time>
      </trkpt>
      <trkpt lat="43.6101" lon="3.86049">
        <ele>60.929074795031</ele>
        <time>2020-08-16T09:10:14.000Z</time>
      </trkpt>
      <trkpt lat="43.61009" lon="3.8606">
        <ele>60.422489346305</ele>
        <time>2020-08-16T09:10:15.000Z</time>
      </trkpt>
      <trkpt lat="43.61008" lon="3.8607">
        <ele>59.915903897579</ele>
        <time>2020-08-16T09:10:16.000Z</time>
      </trkpt>
      <trkpt lat="43.61007" lon="3.8608">
        <ele>59.409318448853</ele>
        <time>2020-08-16T09:10:17.000Z</time>
      </trkpt>
      <trkpt lat="43.61006" lon="3.86091">
        <ele>58.902733000127</ele>
        <time>2020-08-16T09:10:18.000Z</time>
      </trkpt>
      <trkpt lat="43.61005" lon="3.86102">
        <ele>58.396147551401</ele>
        <time>2020-08-16T09:10:19.000Z</time>
      </trkpt>
      <trkpt lat="43.61004" lon="3.86113">
        <ele>57.889562102675</ele>
        <time>2020-08-16T09:10:20.000Z</time>
      </trkpt>
      <trkpt lat="43.61003" lon="3.86124">
        <ele>57.382976653949</ele>
        <time>2020-08-16T09:10:21.000Z</time>
      </trkpt>
      <trkpt lat="43.61002" lon="3.86135">
        <ele>56.876391205223</ele>
        <time>2020-08-16T09:10:22.000Z</time>
      </trkpt>
      <trkpt lat="43.61001" lon="3.86146">
        <ele>56.369805756497</ele>
        <time>2020-08-16T09:10:23.000Z</time>
      </trkpt>
      <trkpt lat="43.61" lon="3.86158">
        <ele>55.89199872</ele>
        <time>2020-08-16T09:10:24.000Z</time>
      </trkpt>
      <trkpt lat="43.60999" lon="3.86169">
        <ele>55.49199872</ele>
        <time>2020-08-16T09:10:25.000Z</time>
      </trkpt>
      <trkpt lat="43.60997" lon="3.86181">
        <ele>55.09199872</ele>
        <time>2020-08-16T09:10:26.000Z</time>
      </trkpt>
      <trkpt lat="43.60996" lon="3.86193">
        <ele>54.69199872</ele>
        <time>2020-08-16T09:10:27.000Z</time>
      </trkpt>
      <trkpt lat="43.60995" lon="3.86204">
        <ele>54.29199872</ele>
        <time>2020-08-16T09:10:28.000Z</time>
      </trkpt>
      <trkpt lat="43.60994" lon="3.86216">
        <ele>53.89199872</ele>
        <time>2020-08-16T09:10:29.000Z</time>
      </trkpt>
      <trkpt lat="43.60992" lon="3.86228">
        <ele>53.49199872</ele>
        <time>2020-08-16T09:10:30.000Z</time>
      </trkpt>
      <trkpt lat="43.6099" lon="3.8624">
        <ele>53.09199872</ele>
        <time>2020-08-16T09:10:31.000Z</time>
      </trkpt>
      <trkpt lat="43.60988" lon="3.86251">
        <ele>52.69199872</ele>
        <time>2020-08-16T09:10:32.000Z</time>
      </trkpt>
      <trkpt lat="43.60987" lon="3.86263">
        <ele>52.29199872</ele>
        <time>2020-08-16T09:10:33.000Z</time>
      </trkpt>
      <trkpt lat="43.60985" lon="3.86275">
        <ele>51.94599936</ele>
        <time>2020-08-16T09:10:34.000Z</time>
      </trkpt>
      <trkpt lat="43.60983" lon="3.86287">
        <ele>51.74599936</ele>
        <time>2020-08-16T09:10:35.000Z</time>
      </trkpt>
      <trkpt lat="43.60982" lon="3.86298">
        <ele>51.54599936</ele>
        <time>2020-08-16T09:10:36.000Z</time>
      </trkpt>
      <trkpt lat="43.6098" lon="3.8631">
        <ele>51.34599936</ele>
        <time>2020-08-16T09:10:37.000Z</time>
      </trkpt>
      <trkpt lat="43.60978" lon="3.86322">
        <ele>51.14599936</ele>
        <time>2020-08-16T09:10:38.000Z</time>
      </trkpt>
      <trkpt lat="43.60976" lon="3.86334">
        <ele>50.94599936</ele>
        <time>2020-08-16T09:10:39.000Z</time>
      </trkpt>
      <trkpt lat="43.60975" lon="3.86346">
        <ele>50.74599936</ele>
        <time>2020-08-16T09:10:40.000Z</time>
      </trkpt>
      <trkpt lat="43.60972" lon="3.86358">
        <ele>50.54599936</ele>
        <time>2020-08-16T09:10:41.000Z</time>
      </trkpt>
      <trkpt lat="43.6097" lon="3.8637">
        <ele>50.34599936</ele>
        <time>2020-08-16T09:10:42.000Z</time>
      </trkpt>
      <trkpt lat="43.60968" lon="3.86381">
        <ele>50.14599936</ele>
        <time>2020-08-16T09:10:43.000Z</time>
      </trkpt>
      <trkpt lat="43.60966" lon="3.86393">
        <ele>49.91899904</ele>
        <time>2020-08-16T09:10:44.000Z</time>
      </trkpt>
      <trkpt lat="43.60964" lon="3.86404">
        <ele>49.61899904</ele>
        <time>2020-08-16T09:10:45.000Z</time>
      </trkpt>
      <trkpt lat="43.60962" lon="3.86415">
        <ele>49.31899904</ele>
        <time>2020-08-16T09:10:46.000Z</time>
      </trkpt>
      <trkpt lat="43.6096" lon="3.86426">
        <ele>49.01899904</ele>
        <time>2020-08-16T09:10:47.000Z</time>
      </trkpt>
      <trkpt lat="43.60958" lon="3.86437">
        <ele>48.71899904</ele>
        <time>2020-08-16T09:10:48.000Z</time>
      </trkpt>
      <trkpt lat="43.60956" lon="3.86447">
        <ele>48.41899904</ele>
        <time>2020-08-16T09:10:49.000Z</time>
      </trkpt>
      <trkpt lat="43.60954" lon="3.86458">
        <ele>48.11899904</ele>
        <time>2020-08-16T09:10:50.000Z</time>
      </trkpt>
      <trkpt lat="43.60952" lon="3.86469">
        <ele>47.81899904</ele>
        <time>2020-08-16T09:10:51.000Z</time>
      </trkpt>
      <trkpt lat="43.6095" lon="3.86479">
        <ele>47.51899904</ele>
        <time>2020-08-16T09:10:52.000Z</time>
      </trkpt>
      <trkpt lat="43.60948" lon="3.8649">
        <ele>47.21899904</ele>
        <time>2020-08-16T09:10:53.000Z</time>
      </trkpt>
      <trkpt lat="43.60946" lon="3.865">
        <ele>46.97299968</ele>
        <time>2020-08-16T09:10:54.000Z</time>
      </trkpt>
      <trkpt lat="43.60944" lon="3.86511">
        <ele>46.87299968</ele>
        <time>2020-08-16T09:10:55.000Z</time>
      </trkpt>
      <trkpt lat="43.60942" lon="3.86521">
        <ele>46.77299968</ele>
        <time>2020-08-16T09:10:56.000Z</time>
      </trkpt>
      <trkpt lat="43.6094" lon="3.86531">
        <ele>46.67299968</ele>
        <time>2020-08-16T09:10:57.000Z</time>
      </trkpt>
      <trkpt lat="43.60938" lon="3.86542">
        <ele>46.57299968</ele>
        <time>2020-08-16T09:10:58.000Z</time>
      </trkpt>
      <trkpt lat="43.60936" lon="3.86551">
        <ele>46.47299968</ele>
        <time>2020-08-16T09:10:59.000Z</time>
      </trkpt>
      <trkpt lat="43.60934" lon="3.86561">
        <ele>46.37299968</ele>
        <time>2020-08-16T09:11:00.000Z</time>
      </trkpt>
      <trkpt lat="43.60932" lon="3.86571">
        <ele>46.27299968</ele>
        <time>2020-08-16T09:11:01.000Z</time>
      </trkpt>
      <trkpt lat="43.6093" lon="3.8658">
        <ele>46.17299968</ele>
        <time>2020-08-16T09:11:02.000Z</time>
      </trkpt>
      <trkpt lat="43.60929" lon="3.8659">
        <ele>46.07299968</ele>
        <time>2020-08-16T09:11:03.000Z</time>
      </trkpt>
      <trkpt lat="43.60927" lon="3.86599">
        <ele>45.94599936</ele>
        <time>2020-08-16T09:11:04.000Z</time>
      </trkpt>
      <trkpt lat="43.60925" lon="3.86609">
        <ele>45.74599936</ele>
        <time>2020-08-16T09:11:05.000Z</time>
      </trkpt>
      <trkpt lat="43.60923" lon="3.86618">
        <ele>45.54599936</ele>
        <time>2020-08-16T09:11:06.000Z</time>
      </trkpt>
      <trkpt lat="43.60922" lon="3.86627">
        <ele>45.34599936</ele>
        <time>2020-08-16T09:11:07.000Z</time>
      </trkpt>
      <trkpt lat="43.6092" lon="3.86636">
        <ele>45.14599936</ele>
        <time>2020-08-16T09:11:08.000Z</time>
      </trkpt>
      <trkpt lat="43.60918" lon="3.86645">
        <ele>44.94599936</ele>
        <time>2020-08-16T09:11:09.000Z</time>
      </trkpt>
      <trkpt lat="43.60917" lon="3.86653">
        <ele>44.74599936</ele>
        <time>2020-08-16T09:11:10.000Z</time>
      </trkpt>
      <trkpt lat="43.60915" lon="3.86661">
        <ele>44.54599936</ele>
        <time>2020-08-16T09:11:11.000Z</time>
      </trkpt>
      <trkpt lat="43.60914" lon="3.86669">
        <ele>44.34599936</ele>
        <time>2020-08-16T09:11:12.000Z</time>
      </trkpt>
      <trkpt lat="43.60913" lon="3.86675">
        <ele>44.14599936</ele>
        <time>2020-08-16T09:11:13.000Z</time>
      </trkpt>
      <trkpt lat="43.60912" lon="3.86681">
        <ele>43.966870786014</ele>
        <time>2020-08-16T09:11:14.000Z</time>
      </trkpt>
      <trkpt lat="43.60911" lon="3.86686">
        <ele>43.844171447687</ele>
        <time>2020-08-16T09:11:15.000Z</time>
      </trkpt>
      <trkpt lat="43.6091" lon="3.86689">
        <ele>43.598772771034</ele>
        <time>2020-08-16T09:11:17.000Z</time>
      </trkpt>
      <trkpt lat="43.6091" lon="3.86689">
        <ele>43</ele>
        <time>2020-08-16T09:11:23.000Z</time>
      </trkpt>
      <trkpt lat="43.60909" lon="3.867">
        <ele>42.917894118471</ele>
        <time>2020-08-16T09:11:28.000Z</time>
      </trkpt>
      <trkpt lat="43.60909" lon="3.86704">
        <ele>42.812631031491</ele>
        <time>2020-08-16T09:11:29.000Z</time>
      </trkpt>
      <trkpt lat="43.60908" lon="3.86709">
        <ele>42.70736794451</ele>
        <time>2020-08-16T09:11:30.000Z</time>
      </trkpt>
      <trkpt lat="43.60908" lon="3.86714">
        <ele>42.602104857529</ele>
        <time>2020-08-16T09:11:31.000Z</time>
      </trkpt>
      <trkpt lat="43.60906" lon="3.86718">
        <ele>42.496841770549</ele>
        <time>2020-08-16T09:11:32.000Z</time>
      </trkpt>
      <trkpt lat="43.60904" lon="3.86723">
        <ele>42.391578683568</ele>
        <time>2020-08-16T09:11:33.000Z</time>
      </trkpt>
      <trkpt lat="43.60902" lon="3.86727">
        <ele>42.286315596587</ele>
        <time>2020-08-16T09:11:34.000Z</time>
      </trkpt>
      <trkpt lat="43.60901" lon="3.86732">
        <ele>42.181052509607</ele>
        <time>2020-08-16T09:11:35.000Z</time>
      </trkpt>
      <trkpt lat="43.60899" lon="3.86736">
        <ele>42.075789422626</ele>
        <time>2020-08-16T09:11:36.000Z</time>
      </trkpt>
      <trkpt lat="43.60897" lon="3.86741">
        <ele>42</ele>
        <time>2020-08-16T09:11:37.000Z</time>
      </trkpt>
      <trkpt lat="43.60895" lon="3.86745">
        <ele>42</ele>
        <time>2020-08-16T09:11:38.000Z</time>
      </trkpt>
      <trkpt lat="43.60894" lon="3.86749">
        <ele>42</ele>
        <time>2020-08-16T09:11:39.000Z</time>
      </trkpt>
      <trkpt lat="43.60892" lon="3.86753">
        <ele>42</ele>
        <time>2020-08-16T09:11:40.000Z</time>
      </trkpt>
      <trkpt lat="43.60891" lon="3.86758">
        <ele>42</ele>
        <time>2020-08-16T09:11:41.000Z</time>
      </trkpt>
      <trkpt lat="43.60889" lon="3.86761">
        <ele>42</ele>
        <time>2020-08-16T09:11:42.000Z</time>
      </trkpt>
      <trkpt lat="43.60887" lon="3.86764">
        <ele>42</ele>
        <time>2020-08-16T09:11:43.000Z</time>
      </trkpt>
      <trkpt lat="43.60885" lon="3.86768">
        <ele>42</ele>
        <time>2020-08-16T09:11:44.000Z</time>
      </trkpt>
      <trkpt lat="43.60883" lon="3.86771">
        <ele>42</ele>
        <time>2020-08-16T09:11:45.000Z</time>
      </trkpt>
      <trkpt lat="43.60882" lon="3.86774">
        <ele>42</ele>
        <time>2020-08-16T09:11:46.000Z</time>
      </trkpt>
      <trkpt lat="43.60881" lon="3.86777">
        <ele>42</ele>
        <time>2020-08-16T09:11:47.000Z</time>
      </trkpt>
      <trkpt lat="43.6088" lon="3.86781">
        <ele>42</ele>
        <time>2020-08-16T09:11:48.000Z</time>
      </trkpt>
      <trkpt lat="43.60878" lon="3.86784">
        <ele>42</ele>
        <time>2020-08-16T09:11:49.000Z</time>
      </trkpt>
      <trkpt lat="43.60877" lon="3.86788">
        <ele>42</ele>
        <time>2020-08-16T09:11:50.000Z</time>
      </trkpt>
      <trkpt lat="43.60876" lon="3.86793">
        <ele>42</ele>
        <time>2020-08-16T09:11:51.000Z</time>
      </trkpt>
      <trkpt lat="43.60875" lon="3.86798">
        <ele>42</ele>
        <time>2020-08-16T09:11:52.000Z</time>
      </trkpt>
      <trkpt lat="43.60874" lon="3.86803">
        <ele>42</ele>
        <time>2020-08-16T09:11:53.000Z</time>
      </trkpt>
      <trkpt lat="43.60872" lon="3.86808">
        <ele>42</ele>
        <time>2020-08-16T09:11:54.000Z</time>
      </trkpt>
      <trkpt lat="43.60871" lon="3.86814">
        <ele>42</ele>
        <time>2020-08-16T09:11:55.000Z</time>
      </trkpt>
      <trkpt lat="43.6087" lon="3.8682">
        <ele>42</ele>
        <time>2020-08-16T09:11:56.000Z</time>
      </trkpt>
      <trkpt lat="43.6087" lon="3.86825">
        <ele>41.972027963086</ele>
        <time>2020-08-16T09:11:57.000Z</time>
      </trkpt>
      <trkpt lat="43.60869" lon="3.86831">
        <ele>41.87212783125</ele>
        <time>2020-08-16T09:11:58.000Z</time>
      </trkpt>
      <trkpt lat="43.60868" lon="3.86836">
        <ele>41.772227699413</ele>
        <time>2020-08-16T09:11:59.000Z</time>
      </trkpt>
      <trkpt lat="43.60867" lon="3.86842">
        <ele>41.672327567577</ele>
        <time>2020-08-16T09:12:00.000Z</time>
      </trkpt>
      <trkpt lat="43.60866" lon="3.86847">
        <ele>41.572427435741</ele>
        <time>2020-08-16T09:12:01.000Z</time>
      </trkpt>
      <trkpt lat="43.60865" lon="3.86852">
        <ele>41.472527303905</ele>
        <time>2020-08-16T09:12:02.000Z</time>
      </trkpt>
      <trkpt lat="43.60864" lon="3.86857">
        <ele>41.372627172069</ele>
        <time>2020-08-16T09:12:03.000Z</time>
      </trkpt>
      <trkpt lat="43.60863" lon="3.86862">
        <ele>41.272727040232</ele>
        <time>2020-08-16T09:12:04.000Z</time>
      </trkpt>
      <trkpt lat="43.60862" lon="3.86867">
        <ele>41.172826908396</ele>
        <time>2020-08-16T09:12:05.000Z</time>
      </trkpt>
      <trkpt lat="43.60862" lon="3.86872">
        <ele>41.07292677656</ele>
        <time>2020-08-16T09:12:06.000Z</time>
      </trkpt>
      <trkpt lat="43.60861" lon="3.86877">
        <ele>41.02700032</ele>
        <time>2020-08-16T09:12:07.000Z</time>
      </trkpt>
      <trkpt lat="43.6086" lon="3.86883">
        <ele>41.12700032</ele>
        <time>2020-08-16T09:12:08.000Z</time>
      </trkpt>
      <trkpt lat="43.60859" lon="3.86888">
        <ele>41.22700032</ele>
        <time>2020-08-16T09:12:09.000Z</time>
      </trkpt>
      <trkpt lat="43.60859" lon="3.86893">
        <ele>41.32700032</ele>
        <time>2020-08-16T09:12:10.000Z</time>
      </trkpt>
      <trkpt lat="43.60859" lon="3.86898">
        <ele>41.42700032</ele>
        <time>2020-08-16T09:12:11.000Z</time>
      </trkpt>
      <trkpt lat="43.60859" lon="3.86903">
        <ele>41.52700032</ele>
        <time>2020-08-16T09:12:12.000Z</time>
      </trkpt>
      <trkpt lat="43.60858" lon="3.86907">
        <ele>41.62700032</ele>
        <time>2020-08-16T09:12:13.000Z</time>
      </trkpt>
      <trkpt lat="43.60857" lon="3.86911">
        <ele>41.72700032</ele>
        <time>2020-08-16T09:12:14.000Z</time>
      </trkpt>
      <trkpt lat="43.60855" lon="3.86916">
        <ele>41.82700032</ele>
        <time>2020-08-16T09:12:15.000Z</time>
      </trkpt>
      <trkpt lat="43.60854" lon="3.8692">
        <ele>41.92700032</ele>
        <time>2020-08-16T09:12:16.000Z</time>
      </trkpt>
      <trkpt lat="43.60854" lon="3.86925">
        <ele>42.02702733869</ele>
        <time>2020-08-16T09:12:17.000Z</time>
      </trkpt>
      <trkpt lat="43.60853" lon="3.8693">
        <ele>42.127127406726</ele>
        <time>2020-08-16T09:12:18.000Z</time>
      </trkpt>
      <trkpt lat="43.60852" lon="3.86935">
        <ele>42.227227474762</ele>
        <time>2020-08-16T09:12:19.000Z</time>
      </trkpt>
      <trkpt lat="43.60851" lon="3.8694">
        <ele>42.327327542798</ele>
        <time>2020-08-16T09:12:20.000Z</time>
      </trkpt>
      <trkpt lat="43.60851" lon="3.86945">
        <ele>42.427427610834</ele>
        <time>2020-08-16T09:12:21.000Z</time>
      </trkpt>
      <trkpt lat="43.6085" lon="3.86951">
        <ele>42.52752767887</ele>
        <time>2020-08-16T09:12:22.000Z</time>
      </trkpt>
      <trkpt lat="43.6085" lon="3.86956">
        <ele>42.627627746906</ele>
        <time>2020-08-16T09:12:23.000Z</time>
      </trkpt>
      <trkpt lat="43.60849" lon="3.86961">
        <ele>42.727727814942</ele>
        <time>2020-08-16T09:12:24.000Z</time>
      </trkpt>
      <trkpt lat="43.60849" lon="3.86966">
        <ele>42.827827882978</ele>
        <time>2020-08-16T09:12:25.000Z</time>
      </trkpt>
      <trkpt lat="43.60848" lon="3.86971">
        <ele>42.927927951014</ele>
        <time>2020-08-16T09:12:26.000Z</time>
      </trkpt>
      <trkpt lat="43.60847" lon="3.86976">
        <ele>43</ele>
        <time>2020-08-16T09:12:27.000Z</time>
      </trkpt>
      <trkpt lat="43.60847" lon="3.86981">
        <ele>43</ele>
        <time>2020-08-16T09:12:28.000Z</time>
      </trkpt>
      <trkpt lat="43.60846" lon="3.86986">
        <ele>43</ele>
        <time>2020-08-16T09:12:29.000Z</time>
      </trkpt>
      <trkpt lat="43.60846" lon="3.8699">
        <ele>43</ele>
        <time>2020-08-16T09:12:30.000Z</time>
      </trkpt>
      <trkpt lat="43.60845" lon="3.86995">
        <ele>43</ele>
        <time>2020-08-16T09:12:31.000Z</time>
      </trkpt>
      <trkpt lat="43.60845" lon="3.87">
        <ele>43</ele>
        <time>2020-08-16T09:12:32.000Z</time>
      </trkpt>
      <trkpt lat="43.60845" lon="3.87005">
        <ele>43</ele>
        <time>2020-08-16T09:12:33.000Z</time>
      </trkpt>
      <trkpt lat="43.60844" lon="3.87009">
        <ele>43</ele>
        <time>2020-08-16T09:12:34.000Z</time>
      </trkpt>
      <trkpt lat="43.60843" lon="3.87014">
        <ele>43</ele>
        <time>2020-08-16T09:12:35.000Z</time>
      </trkpt>
      <trkpt lat="43.60842" lon="3.87019">
        <ele>43</ele>
        <time>2020-08-16T09:12:36.000Z</time>
      </trkpt>
      <trkpt lat="43.60841" lon="3.87024">
        <ele>43.02700032</ele>
        <time>2020-08-16T09:12:37.000Z</time>
      </trkpt>
      <trkpt lat="43.6084" lon="3.87029">
        <ele>43.12700032</ele>
        <time>2020-08-16T09:12:38.000Z</time>
      </trkpt>
      <trkpt lat="43.6084" lon="3.87034">
        <ele>43.22700032</ele>
        <time>2020-08-16T09:12:39.000Z</time>
      </trkpt>
      <trkpt lat="43.6084" lon="3.87039">
        <ele>43.32700032</ele>
        <time>2020-08-16T09:12:40.000Z</time>
      </trkpt>
      <trkpt lat="43.6084" lon="3.87043">
        <ele>43.42700032</ele>
        <time>2020-08-16T09:12:41.000Z</time>
      </trkpt>
      <trkpt lat="43.60839" lon="3.87048">
        <ele>43.52700032</ele>
        <time>2020-08-16T09:12:42.000Z</time>
      </trkpt>
      <trkpt lat="43.60838" lon="3.87053">
        <ele>43.62700032</ele>
        <time>2020-08-16T09:12:43.000Z</time>
      </trkpt>
      <trkpt lat="43.60838" lon="3.87057">
        <ele>43.72700032</ele>
        <time>2020-08-16T09:12:44.000Z</time>
      </trkpt>
      <trkpt lat="43.60838" lon="3.87062">
        <ele>43.82700032</ele>
        <time>2020-08-16T09:12:45.000Z</time>
      </trkpt>
      <trkpt lat="43.60837" lon="3.87067">
        <ele>43.92700032</ele>
        <time>2020-08-16T09:12:46.000Z</time>
      </trkpt>
      <trkpt lat="43.60836" lon="3.87072">
        <ele>44</ele>
        <time>2020-08-16T09:12:47.000Z</time>
      </trkpt>
      <trkpt lat="43.60836" lon="3.87076">
        <ele>44</ele>
        <time>2020-08-16T09:12:48.000Z</time>
      </trkpt>
      <trkpt lat="43.60836" lon="3.87081">
        <ele>44</ele>
        <time>2020-08-16T09:12:49.000Z</time>
      </trkpt>
      <trkpt lat="43.60835" lon="3.87085">
        <ele>44</ele>
        <time>2020-08-16T09:12:50.000Z</time>
      </trkpt>
      <trkpt lat="43.60835" lon="3.8709">
        <ele>44</ele>
        <time>2020-08-16T09:12:51.000Z</time>
      </trkpt>
      <trkpt lat="43.60835" lon="3.87094">
        <ele>44</ele>
        <time>2020-08-16T09:12:52.000Z</time>
      </trkpt>
      <trkpt lat="43.60834" lon="3.87098">
        <ele>44</ele>
        <time>2020-08-16T09:12:53.000Z</time>
      </trkpt>
      <trkpt lat="43.60834" lon="3.87103">
        <ele>44</ele>
        <time>2020-08-16T09:12:54.000Z</time>
      </trkpt>
      <trkpt lat="43.60834" lon="3.87108">
        <ele>44</ele>
        <time>2020-08-16T09:12:55.000Z</time>
      </trkpt>
      <trkpt lat="43.60834" lon="3.87113">
        <ele>44</ele>
        <time>2020-08-16T09:12:56.000Z</time>
      </trkpt>
      <trkpt lat="43.60835" lon="3.87118">
        <ele>44</ele>
        <time>2020-08-16T09:12:57.000Z</time>
      </trkpt>
      <trkpt lat="43.60835" lon="3.87123">
        <ele>44</ele>
        <time>2020-08-16T09:12:58.000Z</time>
      </trkpt>
      <trkpt lat="43.60835" lon="3.87128">
        <ele>44</ele>
        <time>2020-08-16T09:12:59.000Z</time>
      </trkpt>
      <trkpt lat="43.60834" lon="3.87133">
        <ele>44</ele>
        <time>2020-08-16T09:13:00.000Z</time>
      </trkpt>
      <trkpt lat="43.60835" lon="3.87138">
        <ele>44</ele>
        <time>2020-08-16T09:13:01.000Z</time>
      </trkpt>
      <trkpt lat="43.60835" lon="3.87142">
        <ele>44</ele>
        <time>2020-08-16T09:13:02.000Z</time>
      </trkpt>
      <trkpt lat="43.60834" lon="3.87147">
        <ele>44</ele>
        <time>2020-08-16T09:13:03.000Z</time>
      </trkpt>
      <trkpt lat="43.60834" lon="3.87152">
        <ele>44</ele>
        <time>2020-08-16T09:13:04.000Z</time>
      </trkpt>
      <trkpt lat="43.60834" lon="3.87156">
        <ele>44</ele>
        <time>2020-08-16T09:13:05.000Z</time>
      </trkpt>
      <trkpt lat="43.60834" lon="3.8716">
        <ele>44</ele>
        <time>2020-08-16T09:13:06.000Z</time>
      </trkpt>
      <trkpt lat="43.60834" lon="3.87164">
        <ele>44</ele>
        <time>2020-08-16T09:13:07.000Z</time>
      </trkpt>
      <trkpt lat="43.60833" lon="3.87169">
        <ele>44</ele>
        <time>2020-08-16T09:13:08.000Z</time>
      </trkpt>
      <trkpt lat="43.60833" lon="3.87173">
        <ele>44</ele>
        <time>2020-08-16T09:13:09.000Z</time>
      </trkpt>
      <trkpt lat="43.60833" lon="3.87178">
        <ele>44</ele>
        <time>2020-08-16T09:13:10.000Z</time>
      </trkpt>
      <trkpt lat="43.60833" lon="3.87182">
        <ele>44</ele>
        <time>2020-08-16T09:13:11.000Z</time>
      </trkpt>
      <trkpt lat="43.60833" lon="3.87186">
        <ele>44</ele>
        <time>2020-08-16T09:13:12.000Z</time>
      </trkpt>
      <trkpt lat="43.60834" lon="3.87191">
        <ele>44</ele>
        <time>2020-08-16T09:13:13.000Z</time>
      </trkpt>
      <trkpt lat="43.60834" lon="3.87196">
        <ele>44</ele>
        <time>2020-08-16T09:13:14.000Z</time>
      </trkpt>
      <trkpt lat="43.60835" lon="3.872">
        <ele>44</ele>
        <time>2020-08-16T09:13:15.000Z</time>
      </trkpt>
      <trkpt lat="43.60836" lon="3.87205">
        <ele>44</ele>
        <time>2020-08-16T09:13:16.000Z</time>
      </trkpt>
      <trkpt lat="43.60837" lon="3.8721">
        <ele>44.0276133948</ele>
        <time>2020-08-16T09:13:17.000Z</time>
      </trkpt>
      <trkpt lat="43.60838" lon="3.87215">
        <ele>44.126232661944</ele>
        <time>2020-08-16T09:13:18.000Z</time>
      </trkpt>
      <trkpt lat="43.6084" lon="3.8722">
        <ele>44.224851929087</ele>
        <time>2020-08-16T09:13:19.000Z</time>
      </trkpt>
      <trkpt lat="43.60841" lon="3.87225">
        <ele>44.323471196231</ele>
        <time>2020-08-16T09:13:20.000Z</time>
      </trkpt>
      <trkpt lat="43.60843" lon="3.8723">
        <ele>44.422090463375</ele>
        <time>2020-08-16T09:13:21.000Z</time>
      </trkpt>
      <trkpt lat="43.60844" lon="3.87235">
        <ele>44.520709730518</ele>
        <time>2020-08-16T09:13:22.000Z</time>
      </trkpt>
      <trkpt lat="43.60845" lon="3.87241">
        <ele>44.619328997662</ele>
        <time>2020-08-16T09:13:23.000Z</time>
      </trkpt>
      <trkpt lat="43.60847" lon="3.87246">
        <ele>44.717948264806</ele>
        <time>2020-08-16T09:13:24.000Z</time>
      </trkpt>
      <trkpt lat="43.60848" lon="3.87251">
        <ele>44.81656753195</ele>
        <time>2020-08-16T09:13:25.000Z</time>
      </trkpt>
      <trkpt lat="43.60849" lon="3.87256">
        <ele>44.915186799093</ele>
        <time>2020-08-16T09:13:26.000Z</time>
      </trkpt>
      <trkpt lat="43.6085" lon="3.87262">
        <ele>45.02839628618</ele>
        <time>2020-08-16T09:13:27.000Z</time>
      </trkpt>
      <trkpt lat="43.60852" lon="3.87267">
        <ele>45.231236174433</ele>
        <time>2020-08-16T09:13:28.000Z</time>
      </trkpt>
      <trkpt lat="43.60853" lon="3.87272">
        <ele>45.434076062686</ele>
        <time>2020-08-16T09:13:29.000Z</time>
      </trkpt>
      <trkpt lat="43.60854" lon="3.87278">
        <ele>45.636915950939</ele>
        <time>2020-08-16T09:13:30.000Z</time>
      </trkpt>
      <trkpt lat="43.60856" lon="3.87283">
        <ele>45.839755839192</ele>
        <time>2020-08-16T09:13:31.000Z</time>
      </trkpt>
      <trkpt lat="43.60857" lon="3.87288">
        <ele>46.042595727446</ele>
        <time>2020-08-16T09:13:32.000Z</time>
      </trkpt>
      <trkpt lat="43.60858" lon="3.87292">
        <ele>46.245435615699</ele>
        <time>2020-08-16T09:13:33.000Z</time>
      </trkpt>
      <trkpt lat="43.60858" lon="3.87296">
        <ele>46.448275503952</ele>
        <time>2020-08-16T09:13:34.000Z</time>
      </trkpt>
      <trkpt lat="43.60858" lon="3.87299">
        <ele>46.651115392205</ele>
        <time>2020-08-16T09:13:35.000Z</time>
      </trkpt>
      <trkpt lat="43.60858" lon="3.87303">
        <ele>46.853955280458</ele>
        <time>2020-08-16T09:13:36.000Z</time>
      </trkpt>
      <trkpt lat="43.60858" lon="3.87307">
        <ele>46.972</ele>
        <time>2020-08-16T09:13:37.000Z</time>
      </trkpt>
      <trkpt lat="43.60858" lon="3.87311">
        <ele>46.872</ele>
        <time>2020-08-16T09:13:38.000Z</time>
      </trkpt>
      <trkpt lat="43.60859" lon="3.87315">
        <ele>46.772</ele>
        <time>2020-08-16T09:13:39.000Z</time>
      </trkpt>
      <trkpt lat="43.60861" lon="3.87319">
        <ele>46.672</ele>
        <time>2020-08-16T09:13:40.000Z</time>
      </trkpt>
      <trkpt lat="43.60862" lon="3.87322">
        <ele>46.572</ele>
        <time>2020-08-16T09:13:41.000Z</time>
      </trkpt>
      <trkpt lat="43.60864" lon="3.87326">
        <ele>46.472</ele>
        <time>2020-08-16T09:13:42.000Z</time>
      </trkpt>
      <trkpt lat="43.60866" lon="3.8733">
        <ele>46.372</ele>
        <time>2020-08-16T09:13:43.000Z</time>
      </trkpt>
      <trkpt lat="43.60868" lon="3.87334">
        <ele>46.272</ele>
        <time>2020-08-16T09:13:44.000Z</time>
      </trkpt>
      <trkpt lat="43.6087" lon="3.87338">
        <ele>46.172</ele>
        <time>2020-08-16T09:13:45.000Z</time>
      </trkpt>
      <trkpt lat="43.60872" lon="3.87342">
        <ele>46.072</ele>
        <time>2020-08-16T09:13:46.000Z</time>
      </trkpt>
      <trkpt lat="43.60874" lon="3.87346">
        <ele>46</ele>
        <time>2020-08-16T09:13:47.000Z</time>
      </trkpt>
      <trkpt lat="43.60876" lon="3.8735">
        <ele>46</ele>
        <time>2020-08-16T09:13:48.000Z</time>
      </trkpt>
      <trkpt lat="43.60877" lon="3.87353">
        <ele>46</ele>
        <time>2020-08-16T09:13:49.000Z</time>
      </trkpt>
      <trkpt lat="43.60879" lon="3.87357">
        <ele>46</ele>
        <time>2020-08-16T09:13:50.000Z</time>
      </trkpt>
      <trkpt lat="43.60881" lon="3.8736">
        <ele>46</ele>
        <time>2020-08-16T09:13:51.000Z</time>
      </trkpt>
      <trkpt lat="43.60883" lon="3.87363">
        <ele>46</ele>
        <time>2020-08-16T09:13:52.000Z</time>
      </trkpt>
      <trkpt lat="43.60885" lon="3.87366">
        <ele>46</ele>
        <time>2020-08-16T09:13:53.000Z</time>
      </trkpt>
      <trkpt lat="43.60887" lon="3.8737">
        <ele>46</ele>
        <time>2020-08-16T09:13:54.000Z</time>
      </trkpt>
      <trkpt lat="43.60889" lon="3.87373">
        <ele>46</ele>
        <time>2020-08-16T09:13:55.000Z</time>
      </trkpt>
      <trkpt lat="43.6089" lon="3.87377">
        <ele>46</ele>
        <time>2020-08-16T09:13:56.000Z</time>
      </trkpt>
      <trkpt lat="43.60892" lon="3.87381">
        <ele>46.02702733869</ele>
        <time>2020-08-16T09:13:57.000Z</time>
      </trkpt>
      <trkpt lat="43.60894" lon="3.87384">
        <ele>46.127127406726</ele>
        <time>2020-08-16T09:13:58.000Z</time>
      </trkpt>
      <trkpt lat="43.60896" lon="3.87388">
        <ele>46.227227474762</ele>
        <time>2020-08-16T09:13:59.000Z</time>
      </trkpt>
      <trkpt lat="43.60897" lon="3.87392">
        <ele>46.327327542798</ele>
        <time>2020-08-16T09:14:00.000Z</time>
      </trkpt>
      <trkpt lat="43.60899" lon="3.87395">
        <ele>46.427427610834</ele>
        <time>2020-08-16T09:14:01.000Z</time>
      </trkpt>
      <trkpt lat="43.60901" lon="3.87399">
        <ele>46.52752767887</ele>
        <time>2020-08-16T09:14:02.000Z</time>
      </trkpt>
      <trkpt lat="43.60902" lon="3.87403">
        <ele>46.627627746906</ele>
        <time>2020-08-16T09:14:03.000Z</time>
      </trkpt>
      <trkpt lat="43.60904" lon="3.87407">
        <ele>46.727727814942</ele>
        <time>2020-08-16T09:14:04.000Z</time>
      </trkpt>
      <trkpt lat="43.60906" lon="3.8741">
        <ele>46.827827882978</ele>
        <time>2020-08-16T09:14:05.000Z</time>
      </trkpt>
      <trkpt lat="43.60907" lon="3.87414">
        <ele>46.927927951014</ele>
        <time>2020-08-16T09:14:06.000Z</time>
      </trkpt>
      <trkpt lat="43.60909" lon="3.87418">
        <ele>47</ele>
        <time>2020-08-16T09:14:07.000Z</time>
      </trkpt>
      <trkpt lat="43.6091" lon="3.87422">
        <ele>47</ele>
        <time>2020-08-16T09:14:08.000Z</time>
      </trkpt>
      <trkpt lat="43.60911" lon="3.87426">
        <ele>47</ele>
        <time>2020-08-16T09:14:09.000Z</time>
      </trkpt>
      <trkpt lat="43.60912" lon="3.8743">
        <ele>47</ele>
        <time>2020-08-16T09:14:10.000Z</time>
      </trkpt>
      <trkpt lat="43.60914" lon="3.87434">
        <ele>47</ele>
        <time>2020-08-16T09:14:11.000Z</time>
      </trkpt>
      <trkpt lat="43.60916" lon="3.87437">
        <ele>47</ele>
        <time>2020-08-16T09:14:12.000Z</time>
      </trkpt>
      <trkpt lat="43.60917" lon="3.8744">
        <ele>47</ele>
        <time>2020-08-16T09:14:13.000Z</time>
      </trkpt>
      <trkpt lat="43.60919" lon="3.87444">
        <ele>47</ele>
        <time>2020-08-16T09:14:14.000Z</time>
      </trkpt>
      <trkpt lat="43.6092" lon="3.87447">
        <ele>47</ele>
        <time>2020-08-16T09:14:15.000Z</time>
      </trkpt>
      <trkpt lat="43.60922" lon="3.8745">
        <ele>47</ele>
        <time>2020-08-16T09:14:16.000Z</time>
      </trkpt>
      <trkpt lat="43.60924" lon="3.87453">
        <ele>47</ele>
        <time>2020-08-16T09:14:17.000Z</time>
      </trkpt>
      <trkpt lat="43.60926" lon="3.87457">
        <ele>47</ele>
        <time>2020-08-16T09:14:18.000Z</time>
      </trkpt>
      <trkpt lat="43.60927" lon="3.8746">
        <ele>47</ele>
        <time>2020-08-16T09:14:19.000Z</time>
      </trkpt>
      <trkpt lat="43.60929" lon="3.87463">
        <ele>47</ele>
        <time>2020-08-16T09:14:20.000Z</time>
      </trkpt>
      <trkpt lat="43.60931" lon="3.87466">
        <ele>47</ele>
        <time>2020-08-16T09:14:21.000Z</time>
      </trkpt>
      <trkpt lat="43.60933" lon="3.87469">
        <ele>47</ele>
        <time>2020-08-16T09:14:22.000Z</time>
      </trkpt>
      <trkpt lat="43.60934" lon="3.87472">
        <ele>47</ele>
        <time>2020-08-16T09:14:23.000Z</time>
      </trkpt>
      <trkpt lat="43.60936" lon="3.87475">
        <ele>47</ele>
        <time>2020-08-16T09:14:24.000Z</time>
      </trkpt>
      <trkpt lat="43.60938" lon="3.87477">
        <ele>47</ele>
        <time>2020-08-16T09:14:25.000Z</time>
      </trkpt>
      <trkpt lat="43.60939" lon="3.8748">
        <ele>47</ele>
        <time>2020-08-16T09:14:26.000Z</time>
      </trkpt>
      <trkpt lat="43.60941" lon="3.87484">
        <ele>47.048144448753</ele>
        <time>2020-08-16T09:14:27.000Z</time>
      </trkpt>
      <trkpt lat="43.60942" lon="3.87487">
        <ele>47.248746318555</ele>
        <time>2020-08-16T09:14:28.000Z</time>
      </trkpt>
      <trkpt lat="43.60943" lon="3.87491">
        <ele>47.449348188357</ele>
        <time>2020-08-16T09:14:29.000Z</time>
      </trkpt>
      <trkpt lat="43.60944" lon="3.87494">
        <ele>47.649950058159</ele>
        <time>2020-08-16T09:14:30.000Z</time>
      </trkpt>
      <trkpt lat="43.60945" lon="3.87498">
        <ele>47.850551927961</ele>
        <time>2020-08-16T09:14:31.000Z</time>
      </trkpt>
      <trkpt lat="43.60946" lon="3.87502">
        <ele>48.051153797763</ele>
        <time>2020-08-16T09:14:32.000Z</time>
      </trkpt>
      <trkpt lat="43.60948" lon="3.87504">
        <ele>48.251755667565</ele>
        <time>2020-08-16T09:14:33.000Z</time>
      </trkpt>
      <trkpt lat="43.60949" lon="3.87508">
        <ele>48.452357537367</ele>
        <time>2020-08-16T09:14:34.000Z</time>
      </trkpt>
      <trkpt lat="43.60951" lon="3.8751">
        <ele>48.652959407169</ele>
        <time>2020-08-16T09:14:35.000Z</time>
      </trkpt>
      <trkpt lat="43.60952" lon="3.87513">
        <ele>48.853561276971</ele>
        <time>2020-08-16T09:14:36.000Z</time>
      </trkpt>
      <trkpt lat="43.60954" lon="3.87516">
        <ele>49.053946710552</ele>
        <time>2020-08-16T09:14:37.000Z</time>
      </trkpt>
      <trkpt lat="43.60955" lon="3.87518">
        <ele>49.253746974225</ele>
        <time>2020-08-16T09:14:38.000Z</time>
      </trkpt>
      <trkpt lat="43.60957" lon="3.87521">
        <ele>49.453547237897</ele>
        <time>2020-08-16T09:14:39.000Z</time>
      </trkpt>
      <trkpt lat="43.60959" lon="3.87523">
        <ele>49.65334750157</ele>
        <time>2020-08-16T09:14:40.000Z</time>
      </trkpt>
      <trkpt lat="43.6096" lon="3.87526">
        <ele>49.853147765242</ele>
        <time>2020-08-16T09:14:41.000Z</time>
      </trkpt>
      <trkpt lat="43.60962" lon="3.87529">
        <ele>50.052948028914</ele>
        <time>2020-08-16T09:14:42.000Z</time>
      </trkpt>
      <trkpt lat="43.60963" lon="3.87531">
        <ele>50.252748292587</ele>
        <time>2020-08-16T09:14:43.000Z</time>
      </trkpt>
      <trkpt lat="43.60965" lon="3.87534">
        <ele>50.452548556259</ele>
        <time>2020-08-16T09:14:44.000Z</time>
      </trkpt>
      <trkpt lat="43.60966" lon="3.87536">
        <ele>50.652348819932</ele>
        <time>2020-08-16T09:14:45.000Z</time>
      </trkpt>
      <trkpt lat="43.60968" lon="3.87538">
        <ele>50.852149083604</ele>
        <time>2020-08-16T09:14:46.000Z</time>
      </trkpt>
      <trkpt lat="43.6097" lon="3.87541">
        <ele>51.025317070982</ele>
        <time>2020-08-16T09:14:47.000Z</time>
      </trkpt>
      <trkpt lat="43.60971" lon="3.87544">
        <ele>51.122688024089</ele>
        <time>2020-08-16T09:14:48.000Z</time>
      </trkpt>
      <trkpt lat="43.60973" lon="3.87546">
        <ele>51.220058977197</ele>
        <time>2020-08-16T09:14:49.000Z</time>
      </trkpt>
      <trkpt lat="43.60975" lon="3.87548">
        <ele>51.317429930304</ele>
        <time>2020-08-16T09:14:50.000Z</time>
      </trkpt>
      <trkpt lat="43.60977" lon="3.87551">
        <ele>51.414800883412</ele>
        <time>2020-08-16T09:14:51.000Z</time>
      </trkpt>
      <trkpt lat="43.60978" lon="3.87554">
        <ele>51.512171836519</ele>
        <time>2020-08-16T09:14:52.000Z</time>
      </trkpt>
      <trkpt lat="43.6098" lon="3.87557">
        <ele>51.609542789626</ele>
        <time>2020-08-16T09:14:53.000Z</time>
      </trkpt>
      <trkpt lat="43.60981" lon="3.87559">
        <ele>51.706913742734</ele>
        <time>2020-08-16T09:14:54.000Z</time>
      </trkpt>
      <trkpt lat="43.60983" lon="3.87562">
        <ele>51.804284695841</ele>
        <time>2020-08-16T09:14:55.000Z</time>
      </trkpt>
      <trkpt lat="43.60984" lon="3.87564">
        <ele>51.901655648949</ele>
        <time>2020-08-16T09:14:56.000Z</time>
      </trkpt>
      <trkpt lat="43.60985" lon="3.87567">
        <ele>51.999026602056</ele>
        <time>2020-08-16T09:14:57.000Z</time>
      </trkpt>
      <trkpt lat="43.60987" lon="3.87569">
        <ele>52.20370436214</ele>
        <time>2020-08-16T09:14:58.000Z</time>
      </trkpt>
      <trkpt lat="43.60988" lon="3.87571">
        <ele>52.409465679012</ele>
        <time>2020-08-16T09:14:59.000Z</time>
      </trkpt>
      <trkpt lat="43.6099" lon="3.87573">
        <ele>52.615226995885</ele>
        <time>2020-08-16T09:15:00.000Z</time>
      </trkpt>
      <trkpt lat="43.60992" lon="3.87576">
        <ele>52.820988312757</ele>
        <time>2020-08-16T09:15:01.000Z</time>
      </trkpt>
      <trkpt lat="43.60994" lon="3.87579">
        <ele>53.02674962963</ele>
        <time>2020-08-16T09:15:02.000Z</time>
      </trkpt>
      <trkpt lat="43.60996" lon="3.87581">
        <ele>53.232510946502</ele>
        <time>2020-08-16T09:15:03.000Z</time>
      </trkpt>
      <trkpt lat="43.60998" lon="3.87584">
        <ele>53.438272263375</ele>
        <time>2020-08-16T09:15:04.000Z</time>
      </trkpt>
      <trkpt lat="43.60999" lon="3.87586">
        <ele>53.644033580247</ele>
        <time>2020-08-16T09:15:05.000Z</time>
      </trkpt>
      <trkpt lat="43.61001" lon="3.87589">
        <ele>53.849794897119</ele>
        <time>2020-08-16T09:15:06.000Z</time>
      </trkpt>
      <trkpt lat="43.61002" lon="3.87592">
        <ele>54.02702733869</ele>
        <time>2020-08-16T09:15:07.000Z</time>
      </trkpt>
      <trkpt lat="43.61004" lon="3.87595">
        <ele>54.127127406726</ele>
        <time>2020-08-16T09:15:08.000Z</time>
      </trkpt>
      <trkpt lat="43.61006" lon="3.87597">
        <ele>54.227227474762</ele>
        <time>2020-08-16T09:15:09.000Z</time>
      </trkpt>
      <trkpt lat="43.61008" lon="3.87599">
        <ele>54.327327542798</ele>
        <time>2020-08-16T09:15:10.000Z</time>
      </trkpt>
      <trkpt lat="43.6101" lon="3.87601">
        <ele>54.427427610834</ele>
        <time>2020-08-16T09:15:11.000Z</time>
      </trkpt>
      <trkpt lat="43.61012" lon="3.87604">
        <ele>54.52752767887</ele>
        <time>2020-08-16T09:15:12.000Z</time>
      </trkpt>
      <trkpt lat="43.61014" lon="3.87607">
        <ele>54.627627746906</ele>
        <time>2020-08-16T09:15:13.000Z</time>
      </trkpt>
      <trkpt lat="43.61015" lon="3.8761">
        <ele>54.727727814942</ele>
        <time>2020-08-16T09:15:14.000Z</time>
      </trkpt>
      <trkpt lat="43.61016" lon="3.87614">
        <ele>54.827827882978</ele>
        <time>2020-08-16T09:15:15.000Z</time>
      </trkpt>
      <trkpt lat="43.61018" lon="3.87617">
        <ele>54.927927951014</ele>
        <time>2020-08-16T09:15:16.000Z</time>
      </trkpt>
      <trkpt lat="43.6102" lon="3.87621">
        <ele>55.027832984281</ele>
        <time>2020-08-16T09:15:17.000Z</time>
      </trkpt>
      <trkpt lat="43.61022" lon="3.87624">
        <ele>55.127236499571</ele>
        <time>2020-08-16T09:15:18.000Z</time>
      </trkpt>
      <trkpt lat="43.61024" lon="3.87627">
        <ele>55.226640014861</ele>
        <time>2020-08-16T09:15:19.000Z</time>
      </trkpt>
      <trkpt lat="43.61026" lon="3.87629">
        <ele>55.326043530151</ele>
        <time>2020-08-16T09:15:20.000Z</time>
      </trkpt>
      <trkpt lat="43.61029" lon="3.87632">
        <ele>55.425447045441</ele>
        <time>2020-08-16T09:15:21.000Z</time>
      </trkpt>
      <trkpt lat="43.61031" lon="3.87634">
        <ele>55.524850560731</ele>
        <time>2020-08-16T09:15:22.000Z</time>
      </trkpt>
      <trkpt lat="43.61032" lon="3.87637">
        <ele>55.624254076021</ele>
        <time>2020-08-16T09:15:23.000Z</time>
      </trkpt>
      <trkpt lat="43.61034" lon="3.8764">
        <ele>55.723657591311</ele>
        <time>2020-08-16T09:15:24.000Z</time>
      </trkpt>
      <trkpt lat="43.61036" lon="3.87643">
        <ele>55.823061106601</ele>
        <time>2020-08-16T09:15:25.000Z</time>
      </trkpt>
      <trkpt lat="43.61038" lon="3.87647">
        <ele>55.922464621891</ele>
        <time>2020-08-16T09:15:26.000Z</time>
      </trkpt>
      <trkpt lat="43.6104" lon="3.8765">
        <ele>56</ele>
        <time>2020-08-16T09:15:27.000Z</time>
      </trkpt>
      <trkpt lat="43.61042" lon="3.87653">
        <ele>56</ele>
        <time>2020-08-16T09:15:28.000Z</time>
      </trkpt>
      <trkpt lat="43.61045" lon="3.87656">
        <ele>56</ele>
        <time>2020-08-16T09:15:29.000Z</time>
      </trkpt>
      <trkpt lat="43.61047" lon="3.87659">
        <ele>56</ele>
        <time>2020-08-16T09:15:30.000Z</time>
      </trkpt>
      <trkpt lat="43.61049" lon="3.87661">
        <ele>56</ele>
        <time>2020-08-16T09:15:31.000Z</time>
      </trkpt>
      <trkpt lat="43.61051" lon="3.87663">
        <ele>56</ele>
        <time>2020-08-16T09:15:32.000Z</time>
      </trkpt>
      <trkpt lat="43.61052" lon="3.87666">
        <ele>56</ele>
        <time>2020-08-16T09:15:33.000Z</time>
      </trkpt>
      <trkpt lat="43.61052" lon="3.87669">
        <ele>56</ele>
        <time>2020-08-16T09:15:34.000Z</time>
      </trkpt>
      <trkpt lat="43.61051" lon="3.87673">
        <ele>56</ele>
        <time>2020-08-16T09:15:35.000Z</time>
      </trkpt>
      <trkpt lat="43.61048" lon="3.87677">
        <ele>56</ele>
        <time>2020-08-16T09:15:36.000Z</time>
      </trkpt>
      <trkpt lat="43.61045" lon="3.87681">
        <ele>55.972027963086</ele>
        <time>2020-08-16T09:15:37.000Z</time>
      </trkpt>
      <trkpt lat="43.61043" lon="3.87684">
        <ele>55.87212783125</ele>
        <time>2020-08-16T09:15:38.000Z</time>
      </trkpt>
      <trkpt lat="43.6104" lon="3.87688">
        <ele>55.772227699413</ele>
        <time>2020-08-16T09:15:39.000Z</time>
      </trkpt>
      <trkpt lat="43.61037" lon="3.87692">
        <ele>55.672327567577</ele>
        <time>2020-08-16T09:15:40.000Z</time>
      </trkpt>
      <trkpt lat="43.61035" lon="3.87695">
        <ele>55.572427435741</ele>
        <time>2020-08-16T09:15:41.000Z</time>
      </trkpt>
      <trkpt lat="43.61032" lon="3.87699">
        <ele>55.472527303905</ele>
        <time>2020-08-16T09:15:42.000Z</time>
      </trkpt>
      <trkpt lat="43.61029" lon="3.87702">
        <ele>55.372627172069</ele>
        <time>2020-08-16T09:15:43.000Z</time>
      </trkpt>
      <trkpt lat="43.61026" lon="3.87705">
        <ele>55.272727040232</ele>
        <time>2020-08-16T09:15:44.000Z</time>
      </trkpt>
      <trkpt lat="43.61023" lon="3.87709">
        <ele>55.172826908396</ele>
        <time>2020-08-16T09:15:45.000Z</time>
      </trkpt>
      <trkpt lat="43.61021" lon="3.87712">
        <ele>55.07292677656</ele>
        <time>2020-08-16T09:15:46.000Z</time>
      </trkpt>
      <trkpt lat="43.61018" lon="3.87716">
        <ele>55</ele>
        <time>2020-08-16T09:15:47.000Z</time>
      </trkpt>
      <trkpt lat="43.61015" lon="3.87719">
        <ele>55</ele>
        <time>2020-08-16T09:15:48.000Z</time>
      </trkpt>
      <trkpt lat="43.61014" lon="3.87723">
        <ele>55</ele>
        <time>2020-08-16T09:15:49.000Z</time>
      </trkpt>
      <trkpt lat="43.61013" lon="3.87728">
        <ele>55</ele>
        <time>2020-08-16T09:15:50.000Z</time>
      </trkpt>
      <trkpt lat="43.61014" lon="3.87732">
        <ele>55</ele>
        <time>2020-08-16T09:15:51.000Z</time>
      </trkpt>
      <trkpt lat="43.61015" lon="3.87734">
        <ele>55</ele>
        <time>2020-08-16T09:15:52.000Z</time>
      </trkpt>
      <trkpt lat="43.61016" lon="3.87736">
        <ele>55</ele>
        <time>2020-08-16T09:15:53.000Z</time>
      </trkpt>
      <trkpt lat="43.61019" lon="3.87739">
        <ele>55</ele>
        <time>2020-08-16T09:15:54.000Z</time>
      </trkpt>
      <trkpt lat="43.61022" lon="3.87741">
        <ele>55</ele>
        <time>2020-08-16T09:15:55.000Z</time>
      </trkpt>
      <trkpt lat="43.61025" lon="3.87744">
        <ele>55</ele>
        <time>2020-08-16T09:15:56.000Z</time>
      </trkpt>
      <trkpt lat="43.61029" lon="3.87748">
        <ele>55</ele>
        <time>2020-08-16T09:15:57.000Z</time>
      </trkpt>
      <trkpt lat="43.61033" lon="3.87752">
        <ele>55.10185218107</ele>
        <time>2020-08-16T09:15:58.000Z</time>
      </trkpt>
      <trkpt lat="43.61037" lon="3.87755">
        <ele>55.204732839506</ele>
        <time>2020-08-16T09:15:59.000Z</time>
      </trkpt>
      <trkpt lat="43.6104" lon="3.87758">
        <ele>55.307613497942</ele>
        <time>2020-08-16T09:16:00.000Z</time>
      </trkpt>
      <trkpt lat="43.61044" lon="3.87762">
        <ele>55.410494156379</ele>
        <time>2020-08-16T09:16:01.000Z</time>
      </trkpt>
      <trkpt lat="43.61047" lon="3.87766">
        <ele>55.513374814815</ele>
        <time>2020-08-16T09:16:02.000Z</time>
      </trkpt>
      <trkpt lat="43.6105" lon="3.87769">
        <ele>55.616255473251</ele>
        <time>2020-08-16T09:16:03.000Z</time>
      </trkpt>
      <trkpt lat="43.61053" lon="3.87772">
        <ele>55.719136131687</ele>
        <time>2020-08-16T09:16:04.000Z</time>
      </trkpt>
      <trkpt lat="43.61056" lon="3.87776">
        <ele>55.822016790123</ele>
        <time>2020-08-16T09:16:05.000Z</time>
      </trkpt>
      <trkpt lat="43.61059" lon="3.87779">
        <ele>55.92489744856</ele>
        <time>2020-08-16T09:16:06.000Z</time>
      </trkpt>
      <trkpt lat="43.61062" lon="3.87781">
        <ele>56</ele>
        <time>2020-08-16T09:16:07.000Z</time>
      </trkpt>
      <trkpt lat="43.61066" lon="3.87782">
        <ele>56</ele>
        <time>2020-08-16T09:16:08.000Z</time>
      </trkpt>
      <trkpt lat="43.61069" lon="3.87784">
        <ele>56</ele>
        <time>2020-08-16T09:16:09.000Z</time>
      </trkpt>
      <trkpt lat="43.61071" lon="3.87786">
        <ele>56</ele>
        <time>2020-08-16T09:16:10.000Z</time>
      </trkpt>
      <trkpt lat="43.61073" lon="3.87789">
        <ele>56</ele>
        <time>2020-08-16T09:16:11.000Z</time>
      </trkpt>
      <trkpt lat="43.61074" lon="3.87792">
        <ele>56</ele>
        <time>2020-08-16T09:16:12.000Z</time>
      </trkpt>
      <trkpt lat="43.6108" lon="3.87805">
        <ele>56</ele>
        <time>2020-08-16T09:16:16.000Z</time>
      </trkpt>
      <trkpt lat="43.61086" lon="3.87816">
        <ele>56.427572564259</ele>
        <time>2020-08-16T09:16:21.000Z</time>
      </trkpt>
      <trkpt lat="43.61088" lon="3.87818">
        <ele>56.527472696095</ele>
        <time>2020-08-16T09:16:22.000Z</time>
      </trkpt>
      <trkpt lat="43.6109" lon="3.87821">
        <ele>56.627372827931</ele>
        <time>2020-08-16T09:16:23.000Z</time>
      </trkpt>
      <trkpt lat="43.61093" lon="3.87823">
        <ele>56.727272959768</ele>
        <time>2020-08-16T09:16:24.000Z</time>
      </trkpt>
      <trkpt lat="43.61095" lon="3.87825">
        <ele>56.827173091604</ele>
        <time>2020-08-16T09:16:25.000Z</time>
      </trkpt>
      <trkpt lat="43.61102" lon="3.87833">
        <ele>57</ele>
        <time>2020-08-16T09:16:28.000Z</time>
      </trkpt>
      <trkpt lat="43.61111" lon="3.87841">
        <ele>57</ele>
        <time>2020-08-16T09:16:32.000Z</time>
      </trkpt>
      <trkpt lat="43.6112" lon="3.87849">
        <ele>57</ele>
        <time>2020-08-16T09:16:36.000Z</time>
      </trkpt>
      <trkpt lat="43.61127" lon="3.87854">
        <ele>57.455544601173</ele>
        <time>2020-08-16T09:16:39.000Z</time>
      </trkpt>
      <trkpt lat="43.61132" lon="3.87858">
        <ele>57.855145128518</ele>
        <time>2020-08-16T09:16:41.000Z</time>
      </trkpt>
      <trkpt lat="43.61134" lon="3.8786">
        <ele>58.05494539219</ele>
        <time>2020-08-16T09:16:42.000Z</time>
      </trkpt>
      <trkpt lat="43.61136" lon="3.87862">
        <ele>58.254745655863</ele>
        <time>2020-08-16T09:16:43.000Z</time>
      </trkpt>
      <trkpt lat="43.61137" lon="3.87863">
        <ele>58.454545919535</ele>
        <time>2020-08-16T09:16:44.000Z</time>
      </trkpt>
      <trkpt lat="43.6114" lon="3.87865">
        <ele>58.654346183208</ele>
        <time>2020-08-16T09:16:45.000Z</time>
      </trkpt>
      <trkpt lat="43.61142" lon="3.87866">
        <ele>58.85414644688</ele>
        <time>2020-08-16T09:16:46.000Z</time>
      </trkpt>
      <trkpt lat="43.61144" lon="3.87866">
        <ele>58.97297266131</ele>
        <time>2020-08-16T09:16:47.000Z</time>
      </trkpt>
      <trkpt lat="43.6115" lon="3.8786">
        <ele>58.672672457202</ele>
        <time>2020-08-16T09:16:50.000Z</time>
      </trkpt>
      <trkpt lat="43.61153" lon="3.87858">
        <ele>58.572572389166</ele>
        <time>2020-08-16T09:16:51.000Z</time>
      </trkpt>
      <trkpt lat="43.61155" lon="3.87855">
        <ele>58.47247232113</ele>
        <time>2020-08-16T09:16:52.000Z</time>
      </trkpt>
      <trkpt lat="43.61157" lon="3.87853">
        <ele>58.372372253094</ele>
        <time>2020-08-16T09:16:53.000Z</time>
      </trkpt>
      <trkpt lat="43.61159" lon="3.8785">
        <ele>58.272272185058</ele>
        <time>2020-08-16T09:16:54.000Z</time>
      </trkpt>
      <trkpt lat="43.6116" lon="3.87847">
        <ele>58.172172117022</ele>
        <time>2020-08-16T09:16:55.000Z</time>
      </trkpt>
      <trkpt lat="43.61161" lon="3.87844">
        <ele>58.072072048986</ele>
        <time>2020-08-16T09:16:56.000Z</time>
      </trkpt>
      <trkpt lat="43.61164" lon="3.87838">
        <ele>58</ele>
        <time>2020-08-16T09:16:58.000Z</time>
      </trkpt>
      <trkpt lat="43.61166" lon="3.87834">
        <ele>58</ele>
        <time>2020-08-16T09:16:59.000Z</time>
      </trkpt>
      <trkpt lat="43.61167" lon="3.87831">
        <ele>58</ele>
        <time>2020-08-16T09:17:00.000Z</time>
      </trkpt>
      <trkpt lat="43.61168" lon="3.87828">
        <ele>58</ele>
        <time>2020-08-16T09:17:01.000Z</time>
      </trkpt>
      <trkpt lat="43.6117" lon="3.87825">
        <ele>58</ele>
        <time>2020-08-16T09:17:02.000Z</time>
      </trkpt>
      <trkpt lat="43.61171" lon="3.87821">
        <ele>58</ele>
        <time>2020-08-16T09:17:03.000Z</time>
      </trkpt>
      <trkpt lat="43.61173" lon="3.87818">
        <ele>58</ele>
        <time>2020-08-16T09:17:04.000Z</time>
      </trkpt>
      <trkpt lat="43.61175" lon="3.87816">
        <ele>58</ele>
        <time>2020-08-16T09:17:05.000Z</time>
      </trkpt>
      <trkpt lat="43.61177" lon="3.87813">
        <ele>58</ele>
        <time>2020-08-16T09:17:06.000Z</time>
      </trkpt>
      <trkpt lat="43.6118" lon="3.87811">
        <ele>58</ele>
        <time>2020-08-16T09:17:07.000Z</time>
      </trkpt>
      <trkpt lat="43.61178" lon="3.87805">
        <ele>58.307613497942</ele>
        <time>2020-08-16T09:17:10.000Z</time>
      </trkpt>
      <trkpt lat="43.61175" lon="3.87803">
        <ele>58.410494156379</ele>
        <time>2020-08-16T09:17:11.000Z</time>
      </trkpt>
      <trkpt lat="43.61173" lon="3.87801">
        <ele>58.513374814815</ele>
        <time>2020-08-16T09:17:12.000Z</time>
      </trkpt>
      <trkpt lat="43.6117" lon="3.87798">
        <ele>58.616255473251</ele>
        <time>2020-08-16T09:17:13.000Z</time>
      </trkpt>
      <trkpt lat="43.61168" lon="3.87795">
        <ele>58.719136131687</ele>
        <time>2020-08-16T09:17:14.000Z</time>
      </trkpt>
      <trkpt lat="43.61165" lon="3.87793">
        <ele>58.822016790123</ele>
        <time>2020-08-16T09:17:15.000Z</time>
      </trkpt>
      <trkpt lat="43.61163" lon="3.8779">
        <ele>58.92489744856</ele>
        <time>2020-08-16T09:17:16.000Z</time>
      </trkpt>
      <trkpt lat="43.61154" lon="3.8778">
        <ele>59.98100096</ele>
        <time>2020-08-16T09:17:20.000Z</time>
      </trkpt>
      <trkpt lat="43.61152" lon="3.87778">
        <ele>60.28100096</ele>
        <time>2020-08-16T09:17:21.000Z</time>
      </trkpt>
      <trkpt lat="43.61149" lon="3.87775">
        <ele>60.58100096</ele>
        <time>2020-08-16T09:17:22.000Z</time>
      </trkpt>
      <trkpt lat="43.61146" lon="3.87772">
        <ele>60.88100096</ele>
        <time>2020-08-16T09:17:23.000Z</time>
      </trkpt>
      <trkpt lat="43.61142" lon="3.8777">
        <ele>61.18100096</ele>
        <time>2020-08-16T09:17:24.000Z</time>
      </trkpt>
      <trkpt lat="43.61139" lon="3.87768">
        <ele>61.48100096</ele>
        <time>2020-08-16T09:17:25.000Z</time>
      </trkpt>
      <trkpt lat="43.61135" lon="3.87766">
        <ele>61.78100096</ele>
        <time>2020-08-16T09:17:26.000Z</time>
      </trkpt>
      <trkpt lat="43.61131" lon="3.87764">
        <ele>62</ele>
        <time>2020-08-16T09:17:27.000Z</time>
      </trkpt>
      <trkpt lat="43.61127" lon="3.87763">
        <ele>62</ele>
        <time>2020-08-16T09:17:28.000Z</time>
      </trkpt>
      <trkpt lat="43.61124" lon="3.87762">
        <ele>62</ele>
        <time>2020-08-16T09:17:29.000Z</time>
      </trkpt>
      <trkpt lat="43.6112" lon="3.8776">
        <ele>62</ele>
        <time>2020-08-16T09:17:30.000Z</time>
      </trkpt>
      <trkpt lat="43.61117" lon="3.87757">
        <ele>62</ele>
        <time>2020-08-16T09:17:31.000Z</time>
      </trkpt>
      <trkpt lat="43.61114" lon="3.87754">
        <ele>62</ele>
        <time>2020-08-16T09:17:32.000Z</time>
      </trkpt>
      <trkpt lat="43.61113" lon="3.87751">
        <ele>62</ele>
        <time>2020-08-16T09:17:33.000Z</time>
      </trkpt>
      <trkpt lat="43.61113" lon="3.87747">
        <ele>62</ele>
        <time>2020-08-16T09:17:35.000Z</time>
      </trkpt>
      <trkpt lat="43.61113" lon="3.87744">
        <ele>62</ele>
        <time>2020-08-16T09:17:36.000Z</time>
      </trkpt>
      <trkpt lat="43.61114" lon="3.87741">
        <ele>62</ele>
        <time>2020-08-16T09:17:37.000Z</time>
      </trkpt>
      <trkpt lat="43.61115" lon="3.87738">
        <ele>62</ele>
        <time>2020-08-16T09:17:38.000Z</time>
      </trkpt>
      <trkpt lat="43.61115" lon="3.87734">
        <ele>62</ele>
        <time>2020-08-16T09:17:39.000Z</time>
      </trkpt>
      <trkpt lat="43.61115" lon="3.8773">
        <ele>62</ele>
        <time>2020-08-16T09:17:40.000Z</time>
      </trkpt>
      <trkpt lat="43.61116" lon="3.87727">
        <ele>62</ele>
        <time>2020-08-16T09:17:41.000Z</time>
      </trkpt>
      <trkpt lat="43.61116" lon="3.87724">
        <ele>62</ele>
        <time>2020-08-16T09:17:42.000Z</time>
      </trkpt>
      <trkpt lat="43.61118" lon="3.87723">
        <ele>62</ele>
        <time>2020-08-16T09:17:43.000Z</time>
      </trkpt>
      <trkpt lat="43.61122" lon="3.87723">
        <ele>62</ele>
        <time>2020-08-16T09:17:44.000Z</time>
      </trkpt>
      <trkpt lat="43.61125" lon="3.87724">
        <ele>62</ele>
        <time>2020-08-16T09:17:45.000Z</time>
      </trkpt>
      <trkpt lat="43.61128" lon="3.87726">
        <ele>62</ele>
        <time>2020-08-16T09:17:46.000Z</time>
      </trkpt>
      <trkpt lat="43.61131" lon="3.87728">
        <ele>61.947470194553</ele>
        <time>2020-08-16T09:17:47.000Z</time>
      </trkpt>
      <trkpt lat="43.61135" lon="3.87731">
        <ele>61.75291766537</ele>
        <time>2020-08-16T09:17:48.000Z</time>
      </trkpt>
      <trkpt lat="43.61138" lon="3.87733">
        <ele>61.558365136187</ele>
        <time>2020-08-16T09:17:49.000Z</time>
      </trkpt>
      <trkpt lat="43.61141" lon="3.87735">
        <ele>61.363812607004</ele>
        <time>2020-08-16T09:17:50.000Z</time>
      </trkpt>
      <trkpt lat="43.61144" lon="3.87737">
        <ele>61.169260077821</ele>
        <time>2020-08-16T09:17:51.000Z</time>
      </trkpt>
      <trkpt lat="43.61146" lon="3.87739">
        <ele>60.974707548638</ele>
        <time>2020-08-16T09:17:52.000Z</time>
      </trkpt>
      <trkpt lat="43.61149" lon="3.87741">
        <ele>60.780155019455</ele>
        <time>2020-08-16T09:17:53.000Z</time>
      </trkpt>
      <trkpt lat="43.61151" lon="3.87744">
        <ele>60.585602490272</ele>
        <time>2020-08-16T09:17:54.000Z</time>
      </trkpt>
      <trkpt lat="43.61153" lon="3.87746">
        <ele>60.39104996109</ele>
        <time>2020-08-16T09:17:55.000Z</time>
      </trkpt>
      <trkpt lat="43.61155" lon="3.87747">
        <ele>60.196497431907</ele>
        <time>2020-08-16T09:17:56.000Z</time>
      </trkpt>
      <trkpt lat="43.61158" lon="3.87748">
        <ele>60.001944902724</ele>
        <time>2020-08-16T09:17:57.000Z</time>
      </trkpt>
      <trkpt lat="43.61159" lon="3.87748">
        <ele>60</ele>
        <time>2020-08-16T09:17:58.000Z</time>
      </trkpt>
      <trkpt lat="43.61162" lon="3.87747">
        <ele>60</ele>
        <time>2020-08-16T09:17:59.000Z</time>
      </trkpt>
      <trkpt lat="43.61163" lon="3.87746">
        <ele>60</ele>
        <time>2020-08-16T09:18:00.000Z</time>
      </trkpt>
      <trkpt lat="43.61162" lon="3.87745">
        <ele>60</ele>
        <time>2020-08-16T09:18:07.000Z</time>
      </trkpt>
    </trkseg>
  </trk>
</gpx>